<?xml version="1.0" encoding="UTF-8"?>
<gpx version="1.1" creator="https://www.youtrack.es" xsi:schemaLocation="http://www.topografix.com/GPX/1/1 http://www.topografix.com/GPX/1/1/gpx.xsd http://www.garmin.com/xmlschemas/GpxExtensions/v3 http://www.garmin.com/xmlschemas/GpxExtensionsv3.xsd http://www.garmin.com/xmlschemas/TrackPointExtension/v1 http://www.garmin.com/xmlschemas/TrackPointExtensionv1.xsd" xmlns:gpxtpx="http://www.garmin.com/xmlschemas/TrackPointExtension/v1" xmlns:gpxx="http://www.garmin.com/xmlschemas/GpxExtensions/v3" xmlns:xsi="http://www.w3.org/2001/XMLSchema-instance">
  <metadata>
    <link href="https://www.youtrack.es">
      <text>YouTrack.es</text>
    </link>
    <time>2026-05-10T16:55:18Z</time>
  </metadata>
  <trk>
    <src>https://www.youtrack.es</src>
    <link href="https://www.youtrack.es/ruta/10554-cicloviagem-solo-volta-na-represa-de-paraibuna">
      <text>YouTrack.es</text>
    </link>
    <trkseg>
      <trkpt lat="-23.386028" lon="-45.661886">
        <ele>630.469</ele>
        <time>2020-01-20T21:38:28Z</time>
      </trkpt>
      <trkpt lat="-23.386018" lon="-45.661859">
        <ele>630.204</ele>
        <time>2020-01-20T21:38:48Z</time>
      </trkpt>
      <trkpt lat="-23.386023" lon="-45.661768">
        <ele>629.424</ele>
        <time>2020-01-20T21:39:08Z</time>
      </trkpt>
      <trkpt lat="-23.386106" lon="-45.661730">
        <ele>629.208</ele>
        <time>2020-01-20T21:39:28Z</time>
      </trkpt>
      <trkpt lat="-23.386168" lon="-45.661728">
        <ele>629.450</ele>
        <time>2020-01-20T21:39:48Z</time>
      </trkpt>
      <trkpt lat="-23.386296" lon="-45.661701">
        <ele>629.421</ele>
        <time>2020-01-20T21:40:08Z</time>
      </trkpt>
      <trkpt lat="-23.386414" lon="-45.661717">
        <ele>629.933</ele>
        <time>2020-01-20T21:40:28Z</time>
      </trkpt>
      <trkpt lat="-23.386527" lon="-45.661757">
        <ele>630.640</ele>
        <time>2020-01-20T21:40:48Z</time>
      </trkpt>
      <trkpt lat="-23.386687" lon="-45.661787">
        <ele>631.393</ele>
        <time>2020-01-20T21:41:08Z</time>
      </trkpt>
      <trkpt lat="-23.386867" lon="-45.661747">
        <ele>631.183</ele>
        <time>2020-01-20T21:41:28Z</time>
      </trkpt>
      <trkpt lat="-23.386978" lon="-45.661698">
        <ele>630.798</ele>
        <time>2020-01-20T21:41:48Z</time>
      </trkpt>
      <trkpt lat="-23.387106" lon="-45.661572">
        <ele>630.645</ele>
        <time>2020-01-20T21:42:08Z</time>
      </trkpt>
      <trkpt lat="-23.387219" lon="-45.661465">
        <ele>630.954</ele>
        <time>2020-01-20T21:42:28Z</time>
      </trkpt>
      <trkpt lat="-23.387360" lon="-45.661334">
        <ele>631.456</ele>
        <time>2020-01-20T21:42:48Z</time>
      </trkpt>
      <trkpt lat="-23.387426" lon="-45.661264">
        <ele>631.711</ele>
        <time>2020-01-20T21:43:08Z</time>
      </trkpt>
      <trkpt lat="-23.387515" lon="-45.661197">
        <ele>632.108</ele>
        <time>2020-01-20T21:43:28Z</time>
      </trkpt>
      <trkpt lat="-23.387884" lon="-45.660875">
        <ele>633.379</ele>
        <time>2020-01-20T21:43:48Z</time>
      </trkpt>
      <trkpt lat="-23.388226" lon="-45.660550">
        <ele>634.250</ele>
        <time>2020-01-20T21:44:08Z</time>
      </trkpt>
      <trkpt lat="-23.388492" lon="-45.660338">
        <ele>634.652</ele>
        <time>2020-01-20T21:44:28Z</time>
      </trkpt>
      <trkpt lat="-23.388699" lon="-45.660151">
        <ele>635.089</ele>
        <time>2020-01-20T21:44:48Z</time>
      </trkpt>
      <trkpt lat="-23.388876" lon="-45.659917">
        <ele>635.322</ele>
        <time>2020-01-20T21:45:08Z</time>
      </trkpt>
      <trkpt lat="-23.389007" lon="-45.659858">
        <ele>635.372</ele>
        <time>2020-01-20T21:45:28Z</time>
      </trkpt>
      <trkpt lat="-23.389218" lon="-45.659660">
        <ele>634.827</ele>
        <time>2020-01-20T21:45:48Z</time>
      </trkpt>
      <trkpt lat="-23.389359" lon="-45.659528">
        <ele>634.814</ele>
        <time>2020-01-20T21:46:08Z</time>
      </trkpt>
      <trkpt lat="-23.389418" lon="-45.659456">
        <ele>634.888</ele>
        <time>2020-01-20T21:46:28Z</time>
      </trkpt>
      <trkpt lat="-23.389602" lon="-45.659295">
        <ele>635.524</ele>
        <time>2020-01-20T21:46:48Z</time>
      </trkpt>
      <trkpt lat="-23.389748" lon="-45.659201">
        <ele>636.426</ele>
        <time>2020-01-20T21:47:08Z</time>
      </trkpt>
      <trkpt lat="-23.390218" lon="-45.658831">
        <ele>637.808</ele>
        <time>2020-01-20T21:47:28Z</time>
      </trkpt>
      <trkpt lat="-23.390858" lon="-45.658246">
        <ele>642.912</ele>
        <time>2020-01-20T21:47:48Z</time>
      </trkpt>
      <trkpt lat="-23.391372" lon="-45.657788">
        <ele>641.863</ele>
        <time>2020-01-20T21:48:08Z</time>
      </trkpt>
      <trkpt lat="-23.391633" lon="-45.657616">
        <ele>641.345</ele>
        <time>2020-01-20T21:48:28Z</time>
      </trkpt>
      <trkpt lat="-23.391889" lon="-45.657439">
        <ele>643.012</ele>
        <time>2020-01-20T21:48:48Z</time>
      </trkpt>
      <trkpt lat="-23.392177" lon="-45.657254">
        <ele>645.255</ele>
        <time>2020-01-20T21:49:08Z</time>
      </trkpt>
      <trkpt lat="-23.392359" lon="-45.657082">
        <ele>644.345</ele>
        <time>2020-01-20T21:49:28Z</time>
      </trkpt>
      <trkpt lat="-23.392561" lon="-45.656916">
        <ele>644.140</ele>
        <time>2020-01-20T21:49:48Z</time>
      </trkpt>
      <trkpt lat="-23.392712" lon="-45.656779">
        <ele>645.327</ele>
        <time>2020-01-20T21:50:08Z</time>
      </trkpt>
      <trkpt lat="-23.392867" lon="-45.656666">
        <ele>646.931</ele>
        <time>2020-01-20T21:50:28Z</time>
      </trkpt>
      <trkpt lat="-23.393036" lon="-45.656532">
        <ele>650.061</ele>
        <time>2020-01-20T21:50:48Z</time>
      </trkpt>
      <trkpt lat="-23.393128" lon="-45.656428">
        <ele>650.507</ele>
        <time>2020-01-20T21:51:08Z</time>
      </trkpt>
      <trkpt lat="-23.393248" lon="-45.656202">
        <ele>648.508</ele>
        <time>2020-01-20T21:51:28Z</time>
      </trkpt>
      <trkpt lat="-23.393374" lon="-45.655953">
        <ele>644.877</ele>
        <time>2020-01-20T21:51:48Z</time>
      </trkpt>
      <trkpt lat="-23.393438" lon="-45.655736">
        <ele>642.218</ele>
        <time>2020-01-20T21:52:08Z</time>
      </trkpt>
      <trkpt lat="-23.393487" lon="-45.655586">
        <ele>641.810</ele>
        <time>2020-01-20T21:52:28Z</time>
      </trkpt>
      <trkpt lat="-23.393544" lon="-45.655387">
        <ele>641.027</ele>
        <time>2020-01-20T21:52:48Z</time>
      </trkpt>
      <trkpt lat="-23.393551" lon="-45.655248">
        <ele>639.940</ele>
        <time>2020-01-20T21:53:08Z</time>
      </trkpt>
      <trkpt lat="-23.393551" lon="-45.655122">
        <ele>638.870</ele>
        <time>2020-01-20T21:53:28Z</time>
      </trkpt>
      <trkpt lat="-23.393499" lon="-45.654953">
        <ele>636.825</ele>
        <time>2020-01-20T21:53:48Z</time>
      </trkpt>
      <trkpt lat="-23.393509" lon="-45.654781">
        <ele>637.052</ele>
        <time>2020-01-20T21:54:08Z</time>
      </trkpt>
      <trkpt lat="-23.393534" lon="-45.654676">
        <ele>637.231</ele>
        <time>2020-01-20T21:54:28Z</time>
      </trkpt>
      <trkpt lat="-23.393625" lon="-45.654545">
        <ele>637.961</ele>
        <time>2020-01-20T21:54:48Z</time>
      </trkpt>
      <trkpt lat="-23.393827" lon="-45.654411">
        <ele>638.607</ele>
        <time>2020-01-20T21:55:08Z</time>
      </trkpt>
      <trkpt lat="-23.394051" lon="-45.654287">
        <ele>638.308</ele>
        <time>2020-01-20T21:55:28Z</time>
      </trkpt>
      <trkpt lat="-23.394213" lon="-45.654180">
        <ele>638.037</ele>
        <time>2020-01-20T21:55:48Z</time>
      </trkpt>
      <trkpt lat="-23.394398" lon="-45.654078">
        <ele>639.788</ele>
        <time>2020-01-20T21:56:08Z</time>
      </trkpt>
      <trkpt lat="-23.394614" lon="-45.653963">
        <ele>641.150</ele>
        <time>2020-01-20T21:56:28Z</time>
      </trkpt>
      <trkpt lat="-23.394765" lon="-45.653858">
        <ele>641.387</ele>
        <time>2020-01-20T21:56:48Z</time>
      </trkpt>
      <trkpt lat="-23.394829" lon="-45.653770">
        <ele>640.470</ele>
        <time>2020-01-20T21:57:08Z</time>
      </trkpt>
      <trkpt lat="-23.394962" lon="-45.653585">
        <ele>638.130</ele>
        <time>2020-01-20T21:57:28Z</time>
      </trkpt>
      <trkpt lat="-23.395146" lon="-45.653445">
        <ele>636.955</ele>
        <time>2020-01-20T21:57:48Z</time>
      </trkpt>
      <trkpt lat="-23.395338" lon="-45.653324">
        <ele>636.262</ele>
        <time>2020-01-20T21:58:08Z</time>
      </trkpt>
      <trkpt lat="-23.395461" lon="-45.653244">
        <ele>636.857</ele>
        <time>2020-01-20T21:58:28Z</time>
      </trkpt>
      <trkpt lat="-23.395634" lon="-45.653163">
        <ele>637.500</ele>
        <time>2020-01-20T21:58:48Z</time>
      </trkpt>
      <trkpt lat="-23.395823" lon="-45.653147">
        <ele>638.720</ele>
        <time>2020-01-20T21:59:08Z</time>
      </trkpt>
      <trkpt lat="-23.395971" lon="-45.653099">
        <ele>640.308</ele>
        <time>2020-01-20T21:59:28Z</time>
      </trkpt>
      <trkpt lat="-23.396160" lon="-45.653021">
        <ele>641.929</ele>
        <time>2020-01-20T21:59:48Z</time>
      </trkpt>
      <trkpt lat="-23.396303" lon="-45.652914">
        <ele>641.640</ele>
        <time>2020-01-20T22:00:08Z</time>
      </trkpt>
      <trkpt lat="-23.396515" lon="-45.652775">
        <ele>640.572</ele>
        <time>2020-01-20T22:00:28Z</time>
      </trkpt>
      <trkpt lat="-23.396724" lon="-45.652598">
        <ele>638.019</ele>
        <time>2020-01-20T22:00:48Z</time>
      </trkpt>
      <trkpt lat="-23.396879" lon="-45.652506">
        <ele>638.382</ele>
        <time>2020-01-20T22:01:08Z</time>
      </trkpt>
      <trkpt lat="-23.396985" lon="-45.652412">
        <ele>639.182</ele>
        <time>2020-01-20T22:01:28Z</time>
      </trkpt>
      <trkpt lat="-23.397162" lon="-45.652297">
        <ele>640.467</ele>
        <time>2020-01-20T22:01:48Z</time>
      </trkpt>
      <trkpt lat="-23.397312" lon="-45.652201">
        <ele>641.014</ele>
        <time>2020-01-20T22:02:08Z</time>
      </trkpt>
      <trkpt lat="-23.397460" lon="-45.652120">
        <ele>641.375</ele>
        <time>2020-01-20T22:02:28Z</time>
      </trkpt>
      <trkpt lat="-23.397549" lon="-45.652064">
        <ele>641.428</ele>
        <time>2020-01-20T22:02:48Z</time>
      </trkpt>
      <trkpt lat="-23.398063" lon="-45.651680">
        <ele>639.120</ele>
        <time>2020-01-20T22:03:08Z</time>
      </trkpt>
      <trkpt lat="-23.398442" lon="-45.651393">
        <ele>639.508</ele>
        <time>2020-01-20T22:03:28Z</time>
      </trkpt>
      <trkpt lat="-23.398826" lon="-45.651087">
        <ele>637.731</ele>
        <time>2020-01-20T22:03:48Z</time>
      </trkpt>
      <trkpt lat="-23.399085" lon="-45.650937">
        <ele>636.572</ele>
        <time>2020-01-20T22:04:08Z</time>
      </trkpt>
      <trkpt lat="-23.399439" lon="-45.650752">
        <ele>634.454</ele>
        <time>2020-01-20T22:04:28Z</time>
      </trkpt>
      <trkpt lat="-23.399813" lon="-45.650672">
        <ele>633.981</ele>
        <time>2020-01-20T22:04:48Z</time>
      </trkpt>
      <trkpt lat="-23.400225" lon="-45.650621">
        <ele>634.234</ele>
        <time>2020-01-20T22:05:08Z</time>
      </trkpt>
      <trkpt lat="-23.400508" lon="-45.650613">
        <ele>634.764</ele>
        <time>2020-01-20T22:05:28Z</time>
      </trkpt>
      <trkpt lat="-23.400754" lon="-45.650645">
        <ele>635.519</ele>
        <time>2020-01-20T22:05:48Z</time>
      </trkpt>
      <trkpt lat="-23.400953" lon="-45.650672">
        <ele>636.196</ele>
        <time>2020-01-20T22:06:08Z</time>
      </trkpt>
      <trkpt lat="-23.401155" lon="-45.650693">
        <ele>636.648</ele>
        <time>2020-01-20T22:06:28Z</time>
      </trkpt>
      <trkpt lat="-23.401256" lon="-45.650680">
        <ele>636.761</ele>
        <time>2020-01-20T22:06:48Z</time>
      </trkpt>
      <trkpt lat="-23.401460" lon="-45.650637">
        <ele>636.717</ele>
        <time>2020-01-20T22:07:08Z</time>
      </trkpt>
      <trkpt lat="-23.401665" lon="-45.650572">
        <ele>636.508</ele>
        <time>2020-01-20T22:07:28Z</time>
      </trkpt>
      <trkpt lat="-23.401891" lon="-45.650522">
        <ele>635.518</ele>
        <time>2020-01-20T22:07:48Z</time>
      </trkpt>
      <trkpt lat="-23.402093" lon="-45.650487">
        <ele>634.879</ele>
        <time>2020-01-20T22:08:08Z</time>
      </trkpt>
      <trkpt lat="-23.402278" lon="-45.650444">
        <ele>634.141</ele>
        <time>2020-01-20T22:08:28Z</time>
      </trkpt>
      <trkpt lat="-23.402465" lon="-45.650374">
        <ele>633.328</ele>
        <time>2020-01-20T22:08:48Z</time>
      </trkpt>
      <trkpt lat="-23.402595" lon="-45.650323">
        <ele>632.991</ele>
        <time>2020-01-20T22:09:08Z</time>
      </trkpt>
      <trkpt lat="-23.402777" lon="-45.650304">
        <ele>632.741</ele>
        <time>2020-01-20T22:09:28Z</time>
      </trkpt>
      <trkpt lat="-23.402918" lon="-45.650280">
        <ele>632.596</ele>
        <time>2020-01-20T22:09:48Z</time>
      </trkpt>
      <trkpt lat="-23.403124" lon="-45.650243">
        <ele>632.213</ele>
        <time>2020-01-20T22:10:08Z</time>
      </trkpt>
      <trkpt lat="-23.403183" lon="-45.650210">
        <ele>632.174</ele>
        <time>2020-01-20T22:10:28Z</time>
      </trkpt>
      <trkpt lat="-23.403356" lon="-45.650154">
        <ele>632.056</ele>
        <time>2020-01-20T22:10:48Z</time>
      </trkpt>
      <trkpt lat="-23.403550" lon="-45.650087">
        <ele>633.621</ele>
        <time>2020-01-20T22:11:08Z</time>
      </trkpt>
      <trkpt lat="-23.403806" lon="-45.650009">
        <ele>636.108</ele>
        <time>2020-01-20T22:11:28Z</time>
      </trkpt>
      <trkpt lat="-23.403914" lon="-45.649977">
        <ele>637.181</ele>
        <time>2020-01-20T22:11:48Z</time>
      </trkpt>
      <trkpt lat="-23.404070" lon="-45.649910">
        <ele>638.022</ele>
        <time>2020-01-20T22:12:08Z</time>
      </trkpt>
      <trkpt lat="-23.404200" lon="-45.649830">
        <ele>638.764</ele>
        <time>2020-01-20T22:12:28Z</time>
      </trkpt>
      <trkpt lat="-23.404330" lon="-45.649642">
        <ele>639.161</ele>
        <time>2020-01-20T22:12:48Z</time>
      </trkpt>
      <trkpt lat="-23.404409" lon="-45.649567">
        <ele>639.754</ele>
        <time>2020-01-20T22:13:08Z</time>
      </trkpt>
      <trkpt lat="-23.404577" lon="-45.649363">
        <ele>640.594</ele>
        <time>2020-01-20T22:13:28Z</time>
      </trkpt>
      <trkpt lat="-23.404815" lon="-45.649097">
        <ele>641.779</ele>
        <time>2020-01-20T22:13:48Z</time>
      </trkpt>
      <trkpt lat="-23.405094" lon="-45.648969">
        <ele>642.966</ele>
        <time>2020-01-20T22:14:08Z</time>
      </trkpt>
      <trkpt lat="-23.405428" lon="-45.648840">
        <ele>641.221</ele>
        <time>2020-01-20T22:14:28Z</time>
      </trkpt>
      <trkpt lat="-23.405763" lon="-45.648714">
        <ele>639.241</ele>
        <time>2020-01-20T22:14:48Z</time>
      </trkpt>
      <trkpt lat="-23.406310" lon="-45.648494">
        <ele>637.205</ele>
        <time>2020-01-20T22:15:08Z</time>
      </trkpt>
      <trkpt lat="-23.406607" lon="-45.648405">
        <ele>637.608</ele>
        <time>2020-01-20T22:15:28Z</time>
      </trkpt>
      <trkpt lat="-23.407033" lon="-45.647968">
        <ele>642.066</ele>
        <time>2020-01-20T22:15:48Z</time>
      </trkpt>
      <trkpt lat="-23.407201" lon="-45.647719">
        <ele>640.797</ele>
        <time>2020-01-20T22:16:08Z</time>
      </trkpt>
      <trkpt lat="-23.407410" lon="-45.647437">
        <ele>638.219</ele>
        <time>2020-01-20T22:16:28Z</time>
      </trkpt>
      <trkpt lat="-23.407673" lon="-45.647129">
        <ele>638.376</ele>
        <time>2020-01-20T22:16:48Z</time>
      </trkpt>
      <trkpt lat="-23.407877" lon="-45.646766">
        <ele>636.189</ele>
        <time>2020-01-20T22:17:08Z</time>
      </trkpt>
      <trkpt lat="-23.408163" lon="-45.646337">
        <ele>637.019</ele>
        <time>2020-01-20T22:17:28Z</time>
      </trkpt>
      <trkpt lat="-23.408426" lon="-45.645972">
        <ele>637.654</ele>
        <time>2020-01-20T22:17:48Z</time>
      </trkpt>
      <trkpt lat="-23.408594" lon="-45.645734">
        <ele>640.671</ele>
        <time>2020-01-20T22:18:08Z</time>
      </trkpt>
      <trkpt lat="-23.408840" lon="-45.645374">
        <ele>643.955</ele>
        <time>2020-01-20T22:18:28Z</time>
      </trkpt>
      <trkpt lat="-23.409034" lon="-45.645117">
        <ele>644.707</ele>
        <time>2020-01-20T22:18:48Z</time>
      </trkpt>
      <trkpt lat="-23.409140" lon="-45.644959">
        <ele>644.417</ele>
        <time>2020-01-20T22:19:08Z</time>
      </trkpt>
      <trkpt lat="-23.409436" lon="-45.644572">
        <ele>646.108</ele>
        <time>2020-01-20T22:19:28Z</time>
      </trkpt>
      <trkpt lat="-23.409677" lon="-45.644422">
        <ele>648.479</ele>
        <time>2020-01-20T22:19:48Z</time>
      </trkpt>
      <trkpt lat="-23.409977" lon="-45.643998">
        <ele>647.650</ele>
        <time>2020-01-20T22:20:08Z</time>
      </trkpt>
      <trkpt lat="-23.410199" lon="-45.643650">
        <ele>645.542</ele>
        <time>2020-01-20T22:20:28Z</time>
      </trkpt>
      <trkpt lat="-23.410533" lon="-45.643156">
        <ele>644.569</ele>
        <time>2020-01-20T22:20:48Z</time>
      </trkpt>
      <trkpt lat="-23.410893" lon="-45.642689">
        <ele>642.332</ele>
        <time>2020-01-20T22:21:08Z</time>
      </trkpt>
      <trkpt lat="-23.411365" lon="-45.642137">
        <ele>638.532</ele>
        <time>2020-01-20T22:21:28Z</time>
      </trkpt>
      <trkpt lat="-23.411685" lon="-45.641670">
        <ele>633.157</ele>
        <time>2020-01-20T22:21:48Z</time>
      </trkpt>
      <trkpt lat="-23.411922" lon="-45.641268">
        <ele>634.094</ele>
        <time>2020-01-20T22:22:08Z</time>
      </trkpt>
      <trkpt lat="-23.412104" lon="-45.640801">
        <ele>635.194</ele>
        <time>2020-01-20T22:22:28Z</time>
      </trkpt>
      <trkpt lat="-23.412202" lon="-45.640501">
        <ele>635.557</ele>
        <time>2020-01-20T22:22:48Z</time>
      </trkpt>
      <trkpt lat="-23.411843" lon="-45.639696">
        <ele>634.722</ele>
        <time>2020-01-20T22:23:08Z</time>
      </trkpt>
      <trkpt lat="-23.411641" lon="-45.639213">
        <ele>637.808</ele>
        <time>2020-01-20T22:23:28Z</time>
      </trkpt>
      <trkpt lat="-23.411390" lon="-45.638505">
        <ele>638.983</ele>
        <time>2020-01-20T22:23:48Z</time>
      </trkpt>
      <trkpt lat="-23.411316" lon="-45.637996">
        <ele>638.774</ele>
        <time>2020-01-20T22:24:08Z</time>
      </trkpt>
      <trkpt lat="-23.411257" lon="-45.637239">
        <ele>640.026</ele>
        <time>2020-01-20T22:24:28Z</time>
      </trkpt>
      <trkpt lat="-23.411213" lon="-45.636499">
        <ele>642.363</ele>
        <time>2020-01-20T22:24:48Z</time>
      </trkpt>
      <trkpt lat="-23.411129" lon="-45.635834">
        <ele>637.536</ele>
        <time>2020-01-20T22:25:08Z</time>
      </trkpt>
      <trkpt lat="-23.410716" lon="-45.635040">
        <ele>639.856</ele>
        <time>2020-01-20T22:25:28Z</time>
      </trkpt>
      <trkpt lat="-23.410361" lon="-45.634310">
        <ele>640.861</ele>
        <time>2020-01-20T22:25:48Z</time>
      </trkpt>
      <trkpt lat="-23.409618" lon="-45.632384">
        <ele>635.498</ele>
        <time>2020-01-20T22:26:08Z</time>
      </trkpt>
      <trkpt lat="-23.409534" lon="-45.631108">
        <ele>638.926</ele>
        <time>2020-01-20T22:26:28Z</time>
      </trkpt>
      <trkpt lat="-23.409421" lon="-45.630276">
        <ele>642.047</ele>
        <time>2020-01-20T22:26:48Z</time>
      </trkpt>
      <trkpt lat="-23.409116" lon="-45.629327">
        <ele>639.211</ele>
        <time>2020-01-20T22:27:08Z</time>
      </trkpt>
      <trkpt lat="-23.408810" lon="-45.628603">
        <ele>642.508</ele>
        <time>2020-01-20T22:27:28Z</time>
      </trkpt>
      <trkpt lat="-23.408663" lon="-45.628141">
        <ele>639.266</ele>
        <time>2020-01-20T22:27:48Z</time>
      </trkpt>
      <trkpt lat="-23.408638" lon="-45.627674">
        <ele>635.837</ele>
        <time>2020-01-20T22:28:08Z</time>
      </trkpt>
      <trkpt lat="-23.408722" lon="-45.627235">
        <ele>634.519</ele>
        <time>2020-01-20T22:28:28Z</time>
      </trkpt>
      <trkpt lat="-23.409032" lon="-45.626913">
        <ele>633.256</ele>
        <time>2020-01-20T22:28:48Z</time>
      </trkpt>
      <trkpt lat="-23.409588" lon="-45.626612">
        <ele>632.959</ele>
        <time>2020-01-20T22:29:08Z</time>
      </trkpt>
      <trkpt lat="-23.410159" lon="-45.626333">
        <ele>637.749</ele>
        <time>2020-01-20T22:29:28Z</time>
      </trkpt>
      <trkpt lat="-23.410932" lon="-45.626156">
        <ele>641.054</ele>
        <time>2020-01-20T22:29:48Z</time>
      </trkpt>
      <trkpt lat="-23.411493" lon="-45.626189">
        <ele>642.651</ele>
        <time>2020-01-20T22:30:08Z</time>
      </trkpt>
      <trkpt lat="-23.412222" lon="-45.626398">
        <ele>641.799</ele>
        <time>2020-01-20T22:30:28Z</time>
      </trkpt>
      <trkpt lat="-23.412557" lon="-45.626510">
        <ele>639.607</ele>
        <time>2020-01-20T22:30:48Z</time>
      </trkpt>
      <trkpt lat="-23.413162" lon="-45.626113">
        <ele>634.427</ele>
        <time>2020-01-20T22:31:08Z</time>
      </trkpt>
      <trkpt lat="-23.414033" lon="-45.625277">
        <ele>638.508</ele>
        <time>2020-01-20T22:31:28Z</time>
      </trkpt>
      <trkpt lat="-23.414452" lon="-45.624284">
        <ele>630.443</ele>
        <time>2020-01-20T22:31:48Z</time>
      </trkpt>
      <trkpt lat="-23.414688" lon="-45.623646">
        <ele>633.394</ele>
        <time>2020-01-20T22:32:08Z</time>
      </trkpt>
      <trkpt lat="-23.414595" lon="-45.623120">
        <ele>637.946</ele>
        <time>2020-01-20T22:32:28Z</time>
      </trkpt>
      <trkpt lat="-23.414368" lon="-45.622702">
        <ele>640.123</ele>
        <time>2020-01-20T22:32:48Z</time>
      </trkpt>
      <trkpt lat="-23.414270" lon="-45.622417">
        <ele>640.216</ele>
        <time>2020-01-20T22:33:08Z</time>
      </trkpt>
      <trkpt lat="-23.414796" lon="-45.621704">
        <ele>645.486</ele>
        <time>2020-01-20T22:33:28Z</time>
      </trkpt>
      <trkpt lat="-23.415343" lon="-45.621243">
        <ele>647.081</ele>
        <time>2020-01-20T22:33:48Z</time>
      </trkpt>
      <trkpt lat="-23.415609" lon="-45.621071">
        <ele>647.538</ele>
        <time>2020-01-20T22:34:08Z</time>
      </trkpt>
      <trkpt lat="-23.415919" lon="-45.620969">
        <ele>650.163</ele>
        <time>2020-01-20T22:34:28Z</time>
      </trkpt>
      <trkpt lat="-23.416303" lon="-45.620561">
        <ele>650.744</ele>
        <time>2020-01-20T22:34:48Z</time>
      </trkpt>
      <trkpt lat="-23.416578" lon="-45.620261">
        <ele>647.618</ele>
        <time>2020-01-20T22:35:08Z</time>
      </trkpt>
      <trkpt lat="-23.417784" lon="-45.618893">
        <ele>640.408</ele>
        <time>2020-01-20T22:35:28Z</time>
      </trkpt>
      <trkpt lat="-23.417883" lon="-45.618491">
        <ele>638.270</ele>
        <time>2020-01-20T22:35:48Z</time>
      </trkpt>
      <trkpt lat="-23.417430" lon="-45.617090">
        <ele>638.491</ele>
        <time>2020-01-20T22:36:08Z</time>
      </trkpt>
      <trkpt lat="-23.417090" lon="-45.616211">
        <ele>641.583</ele>
        <time>2020-01-20T22:36:28Z</time>
      </trkpt>
      <trkpt lat="-23.416928" lon="-45.615368">
        <ele>640.420</ele>
        <time>2020-01-20T22:36:48Z</time>
      </trkpt>
      <trkpt lat="-23.416933" lon="-45.614859">
        <ele>640.383</ele>
        <time>2020-01-20T22:37:08Z</time>
      </trkpt>
      <trkpt lat="-23.417046" lon="-45.614623">
        <ele>640.083</ele>
        <time>2020-01-20T22:37:28Z</time>
      </trkpt>
      <trkpt lat="-23.417312" lon="-45.614521">
        <ele>641.058</ele>
        <time>2020-01-20T22:37:48Z</time>
      </trkpt>
      <trkpt lat="-23.417583" lon="-45.614392">
        <ele>640.525</ele>
        <time>2020-01-20T22:38:08Z</time>
      </trkpt>
      <trkpt lat="-23.418129" lon="-45.614237">
        <ele>642.185</ele>
        <time>2020-01-20T22:38:28Z</time>
      </trkpt>
      <trkpt lat="-23.418700" lon="-45.614065">
        <ele>649.489</ele>
        <time>2020-01-20T22:38:48Z</time>
      </trkpt>
      <trkpt lat="-23.419084" lon="-45.613791">
        <ele>651.317</ele>
        <time>2020-01-20T22:39:08Z</time>
      </trkpt>
      <trkpt lat="-23.419399" lon="-45.613110">
        <ele>649.908</ele>
        <time>2020-01-20T22:39:28Z</time>
      </trkpt>
      <trkpt lat="-23.419576" lon="-45.612531">
        <ele>653.582</ele>
        <time>2020-01-20T22:39:48Z</time>
      </trkpt>
      <trkpt lat="-23.419699" lon="-45.611597">
        <ele>656.373</ele>
        <time>2020-01-20T22:40:08Z</time>
      </trkpt>
      <trkpt lat="-23.419586" lon="-45.610937">
        <ele>652.145</ele>
        <time>2020-01-20T22:40:28Z</time>
      </trkpt>
      <trkpt lat="-23.419458" lon="-45.610374">
        <ele>645.712</ele>
        <time>2020-01-20T22:40:48Z</time>
      </trkpt>
      <trkpt lat="-23.419379" lon="-45.609741">
        <ele>642.225</ele>
        <time>2020-01-20T22:41:08Z</time>
      </trkpt>
      <trkpt lat="-23.419379" lon="-45.609081">
        <ele>644.075</ele>
        <time>2020-01-20T22:41:28Z</time>
      </trkpt>
      <trkpt lat="-23.419330" lon="-45.608609">
        <ele>648.380</ele>
        <time>2020-01-20T22:41:48Z</time>
      </trkpt>
      <trkpt lat="-23.419635" lon="-45.607842">
        <ele>658.967</ele>
        <time>2020-01-20T22:42:08Z</time>
      </trkpt>
      <trkpt lat="-23.419753" lon="-45.606968">
        <ele>658.297</ele>
        <time>2020-01-20T22:42:28Z</time>
      </trkpt>
      <trkpt lat="-23.419832" lon="-45.606233">
        <ele>653.323</ele>
        <time>2020-01-20T22:42:48Z</time>
      </trkpt>
      <trkpt lat="-23.420009" lon="-45.605981">
        <ele>651.825</ele>
        <time>2020-01-20T22:43:08Z</time>
      </trkpt>
      <trkpt lat="-23.420339" lon="-45.605680">
        <ele>659.408</ele>
        <time>2020-01-20T22:43:28Z</time>
      </trkpt>
      <trkpt lat="-23.420413" lon="-45.605332">
        <ele>658.863</ele>
        <time>2020-01-20T22:43:48Z</time>
      </trkpt>
      <trkpt lat="-23.420526" lon="-45.604951">
        <ele>658.614</ele>
        <time>2020-01-20T22:44:08Z</time>
      </trkpt>
      <trkpt lat="-23.420635" lon="-45.604607">
        <ele>658.766</ele>
        <time>2020-01-20T22:44:28Z</time>
      </trkpt>
      <trkpt lat="-23.420959" lon="-45.604452">
        <ele>659.393</ele>
        <time>2020-01-20T22:44:48Z</time>
      </trkpt>
      <trkpt lat="-23.421343" lon="-45.604565">
        <ele>661.596</ele>
        <time>2020-01-20T22:45:08Z</time>
      </trkpt>
      <trkpt lat="-23.421708" lon="-45.604650">
        <ele>663.086</ele>
        <time>2020-01-20T22:45:28Z</time>
      </trkpt>
      <trkpt lat="-23.421855" lon="-45.604747">
        <ele>662.131</ele>
        <time>2020-01-20T22:45:48Z</time>
      </trkpt>
      <trkpt lat="-23.422018" lon="-45.605069">
        <ele>663.348</ele>
        <time>2020-01-20T22:46:08Z</time>
      </trkpt>
      <trkpt lat="-23.422308" lon="-45.605525">
        <ele>667.342</ele>
        <time>2020-01-20T22:46:28Z</time>
      </trkpt>
      <trkpt lat="-23.422697" lon="-45.605664">
        <ele>665.022</ele>
        <time>2020-01-20T22:46:48Z</time>
      </trkpt>
      <trkpt lat="-23.423189" lon="-45.605514">
        <ele>659.514</ele>
        <time>2020-01-20T22:47:08Z</time>
      </trkpt>
      <trkpt lat="-23.424838" lon="-45.604838">
        <ele>657.908</ele>
        <time>2020-01-20T22:47:28Z</time>
      </trkpt>
      <trkpt lat="-23.425262" lon="-45.604752">
        <ele>656.928</ele>
        <time>2020-01-20T22:47:48Z</time>
      </trkpt>
      <trkpt lat="-23.425631" lon="-45.604758">
        <ele>655.129</ele>
        <time>2020-01-20T22:48:08Z</time>
      </trkpt>
      <trkpt lat="-23.427683" lon="-45.604414">
        <ele>658.111</ele>
        <time>2020-01-20T22:48:28Z</time>
      </trkpt>
      <trkpt lat="-23.428436" lon="-45.604280">
        <ele>659.048</ele>
        <time>2020-01-20T22:48:48Z</time>
      </trkpt>
      <trkpt lat="-23.429446" lon="-45.604162">
        <ele>659.351</ele>
        <time>2020-01-20T22:49:08Z</time>
      </trkpt>
      <trkpt lat="-23.430012" lon="-45.604092">
        <ele>663.221</ele>
        <time>2020-01-20T22:49:28Z</time>
      </trkpt>
      <trkpt lat="-23.431094" lon="-45.603899">
        <ele>664.676</ele>
        <time>2020-01-20T22:49:48Z</time>
      </trkpt>
      <trkpt lat="-23.431916" lon="-45.603830">
        <ele>660.413</ele>
        <time>2020-01-20T22:50:08Z</time>
      </trkpt>
      <trkpt lat="-23.432448" lon="-45.603717">
        <ele>659.084</ele>
        <time>2020-01-20T22:50:28Z</time>
      </trkpt>
      <trkpt lat="-23.433108" lon="-45.603325">
        <ele>663.807</ele>
        <time>2020-01-20T22:50:48Z</time>
      </trkpt>
      <trkpt lat="-23.433624" lon="-45.602880">
        <ele>663.017</ele>
        <time>2020-01-20T22:51:08Z</time>
      </trkpt>
      <trkpt lat="-23.433900" lon="-45.602381">
        <ele>658.408</ele>
        <time>2020-01-20T22:51:28Z</time>
      </trkpt>
      <trkpt lat="-23.434156" lon="-45.601727">
        <ele>657.162</ele>
        <time>2020-01-20T22:51:48Z</time>
      </trkpt>
      <trkpt lat="-23.434156" lon="-45.601727">
        <ele>657.183</ele>
        <time>2020-01-20T22:52:08Z</time>
      </trkpt>
      <trkpt lat="-23.434301" lon="-45.601593">
        <ele>658.315</ele>
        <time>2020-01-20T22:52:28Z</time>
      </trkpt>
      <trkpt lat="-23.434722" lon="-45.601445">
        <ele>661.932</ele>
        <time>2020-01-20T22:52:48Z</time>
      </trkpt>
      <trkpt lat="-23.435002" lon="-45.601405">
        <ele>663.755</ele>
        <time>2020-01-20T22:53:08Z</time>
      </trkpt>
      <trkpt lat="-23.435800" lon="-45.601188">
        <ele>669.815</ele>
        <time>2020-01-20T22:53:28Z</time>
      </trkpt>
      <trkpt lat="-23.436258" lon="-45.601016">
        <ele>672.580</ele>
        <time>2020-01-20T22:53:48Z</time>
      </trkpt>
      <trkpt lat="-23.436609" lon="-45.600901">
        <ele>674.147</ele>
        <time>2020-01-20T22:54:08Z</time>
      </trkpt>
      <trkpt lat="-23.437065" lon="-45.600638">
        <ele>672.969</ele>
        <time>2020-01-20T22:54:28Z</time>
      </trkpt>
      <trkpt lat="-23.437227" lon="-45.600498">
        <ele>673.504</ele>
        <time>2020-01-20T22:54:48Z</time>
      </trkpt>
      <trkpt lat="-23.437813" lon="-45.600268">
        <ele>676.624</ele>
        <time>2020-01-20T22:55:08Z</time>
      </trkpt>
      <trkpt lat="-23.439014" lon="-45.599715">
        <ele>685.208</ele>
        <time>2020-01-20T22:55:28Z</time>
      </trkpt>
      <trkpt lat="-23.439319" lon="-45.599484">
        <ele>689.050</ele>
        <time>2020-01-20T22:55:48Z</time>
      </trkpt>
      <trkpt lat="-23.439875" lon="-45.599098">
        <ele>695.111</ele>
        <time>2020-01-20T22:56:08Z</time>
      </trkpt>
      <trkpt lat="-23.440293" lon="-45.598363">
        <ele>691.983</ele>
        <time>2020-01-20T22:56:28Z</time>
      </trkpt>
      <trkpt lat="-23.440820" lon="-45.597478">
        <ele>685.590</ele>
        <time>2020-01-20T22:56:48Z</time>
      </trkpt>
      <trkpt lat="-23.441268" lon="-45.596700">
        <ele>679.343</ele>
        <time>2020-01-20T22:57:08Z</time>
      </trkpt>
      <trkpt lat="-23.441760" lon="-45.595853">
        <ele>676.393</ele>
        <time>2020-01-20T22:57:28Z</time>
      </trkpt>
      <trkpt lat="-23.442159" lon="-45.595241">
        <ele>675.448</ele>
        <time>2020-01-20T22:57:48Z</time>
      </trkpt>
      <trkpt lat="-23.442444" lon="-45.594871">
        <ele>673.715</ele>
        <time>2020-01-20T22:58:08Z</time>
      </trkpt>
      <trkpt lat="-23.442946" lon="-45.594410">
        <ele>671.962</ele>
        <time>2020-01-20T22:58:28Z</time>
      </trkpt>
      <trkpt lat="-23.443202" lon="-45.594163">
        <ele>670.783</ele>
        <time>2020-01-20T22:58:48Z</time>
      </trkpt>
      <trkpt lat="-23.443296" lon="-45.593734">
        <ele>669.711</ele>
        <time>2020-01-20T22:59:08Z</time>
      </trkpt>
      <trkpt lat="-23.443384" lon="-45.593106">
        <ele>669.908</ele>
        <time>2020-01-20T22:59:28Z</time>
      </trkpt>
      <trkpt lat="-23.443620" lon="-45.592141">
        <ele>672.130</ele>
        <time>2020-01-20T22:59:48Z</time>
      </trkpt>
      <trkpt lat="-23.443837" lon="-45.591781">
        <ele>669.631</ele>
        <time>2020-01-20T23:00:08Z</time>
      </trkpt>
      <trkpt lat="-23.444467" lon="-45.591497">
        <ele>667.853</ele>
        <time>2020-01-20T23:00:28Z</time>
      </trkpt>
      <trkpt lat="-23.444984" lon="-45.591266">
        <ele>666.170</ele>
        <time>2020-01-20T23:00:48Z</time>
      </trkpt>
      <trkpt lat="-23.445491" lon="-45.590451">
        <ele>664.693</ele>
        <time>2020-01-20T23:01:08Z</time>
      </trkpt>
      <trkpt lat="-23.445850" lon="-45.589582">
        <ele>667.653</ele>
        <time>2020-01-20T23:01:28Z</time>
      </trkpt>
      <trkpt lat="-23.445968" lon="-45.589158">
        <ele>670.328</ele>
        <time>2020-01-20T23:01:48Z</time>
      </trkpt>
      <trkpt lat="-23.445835" lon="-45.588294">
        <ele>672.395</ele>
        <time>2020-01-20T23:02:08Z</time>
      </trkpt>
      <trkpt lat="-23.445702" lon="-45.587683">
        <ele>675.065</ele>
        <time>2020-01-20T23:02:28Z</time>
      </trkpt>
      <trkpt lat="-23.445707" lon="-45.586932">
        <ele>673.868</ele>
        <time>2020-01-20T23:02:48Z</time>
      </trkpt>
      <trkpt lat="-23.446062" lon="-45.586191">
        <ele>678.914</ele>
        <time>2020-01-20T23:03:08Z</time>
      </trkpt>
      <trkpt lat="-23.446573" lon="-45.585408">
        <ele>683.108</ele>
        <time>2020-01-20T23:03:28Z</time>
      </trkpt>
      <trkpt lat="-23.447026" lon="-45.584743">
        <ele>686.340</ele>
        <time>2020-01-20T23:03:48Z</time>
      </trkpt>
      <trkpt lat="-23.447572" lon="-45.583981">
        <ele>685.951</ele>
        <time>2020-01-20T23:04:08Z</time>
      </trkpt>
      <trkpt lat="-23.448498" lon="-45.583413">
        <ele>689.463</ele>
        <time>2020-01-20T23:04:28Z</time>
      </trkpt>
      <trkpt lat="-23.449369" lon="-45.582774">
        <ele>695.560</ele>
        <time>2020-01-20T23:04:48Z</time>
      </trkpt>
      <trkpt lat="-23.449900" lon="-45.581959">
        <ele>699.763</ele>
        <time>2020-01-20T23:05:08Z</time>
      </trkpt>
      <trkpt lat="-23.450186" lon="-45.581637">
        <ele>705.543</ele>
        <time>2020-01-20T23:05:28Z</time>
      </trkpt>
      <trkpt lat="-23.450698" lon="-45.581256">
        <ele>718.218</ele>
        <time>2020-01-20T23:05:48Z</time>
      </trkpt>
      <trkpt lat="-23.450845" lon="-45.580822">
        <ele>718.695</ele>
        <time>2020-01-20T23:06:08Z</time>
      </trkpt>
      <trkpt lat="-23.450599" lon="-45.580366">
        <ele>722.032</ele>
        <time>2020-01-20T23:06:28Z</time>
      </trkpt>
      <trkpt lat="-23.450141" lon="-45.579668">
        <ele>725.092</ele>
        <time>2020-01-20T23:06:48Z</time>
      </trkpt>
      <trkpt lat="-23.449836" lon="-45.579255">
        <ele>728.911</ele>
        <time>2020-01-20T23:07:08Z</time>
      </trkpt>
      <trkpt lat="-23.449578" lon="-45.578778">
        <ele>731.108</ele>
        <time>2020-01-20T23:07:28Z</time>
      </trkpt>
      <trkpt lat="-23.449384" lon="-45.578284">
        <ele>730.077</ele>
        <time>2020-01-20T23:07:48Z</time>
      </trkpt>
      <trkpt lat="-23.449211" lon="-45.578059">
        <ele>727.868</ele>
        <time>2020-01-20T23:08:08Z</time>
      </trkpt>
      <trkpt lat="-23.448963" lon="-45.577874">
        <ele>728.780</ele>
        <time>2020-01-20T23:08:28Z</time>
      </trkpt>
      <trkpt lat="-23.448704" lon="-45.577748">
        <ele>731.437</ele>
        <time>2020-01-20T23:08:48Z</time>
      </trkpt>
      <trkpt lat="-23.448727" lon="-45.577504">
        <ele>728.080</ele>
        <time>2020-01-20T23:09:08Z</time>
      </trkpt>
      <trkpt lat="-23.448640" lon="-45.577295">
        <ele>726.610</ele>
        <time>2020-01-20T23:09:28Z</time>
      </trkpt>
      <trkpt lat="-23.448311" lon="-45.577225">
        <ele>730.475</ele>
        <time>2020-01-20T23:09:48Z</time>
      </trkpt>
      <trkpt lat="-23.447951" lon="-45.577168">
        <ele>729.662</ele>
        <time>2020-01-20T23:10:08Z</time>
      </trkpt>
      <trkpt lat="-23.447486" lon="-45.577032">
        <ele>727.873</ele>
        <time>2020-01-20T23:10:28Z</time>
      </trkpt>
      <trkpt lat="-23.447319" lon="-45.576726">
        <ele>725.085</ele>
        <time>2020-01-20T23:10:48Z</time>
      </trkpt>
      <trkpt lat="-23.447068" lon="-45.576010">
        <ele>729.713</ele>
        <time>2020-01-20T23:11:08Z</time>
      </trkpt>
      <trkpt lat="-23.446797" lon="-45.575567">
        <ele>732.008</ele>
        <time>2020-01-20T23:11:28Z</time>
      </trkpt>
      <trkpt lat="-23.446728" lon="-45.575476">
        <ele>731.961</ele>
        <time>2020-01-20T23:11:48Z</time>
      </trkpt>
      <trkpt lat="-23.446687" lon="-45.575076">
        <ele>728.652</ele>
        <time>2020-01-20T23:12:08Z</time>
      </trkpt>
      <trkpt lat="-23.446448" lon="-45.574669">
        <ele>724.584</ele>
        <time>2020-01-20T23:12:28Z</time>
      </trkpt>
      <trkpt lat="-23.446199" lon="-45.574462">
        <ele>723.361</ele>
        <time>2020-01-20T23:12:48Z</time>
      </trkpt>
      <trkpt lat="-23.445875" lon="-45.574478">
        <ele>726.284</ele>
        <time>2020-01-20T23:13:08Z</time>
      </trkpt>
      <trkpt lat="-23.445675" lon="-45.574709">
        <ele>730.464</ele>
        <time>2020-01-20T23:13:28Z</time>
      </trkpt>
      <trkpt lat="-23.445552" lon="-45.575074">
        <ele>736.239</ele>
        <time>2020-01-20T23:13:48Z</time>
      </trkpt>
      <trkpt lat="-23.445473" lon="-45.575251">
        <ele>740.086</ele>
        <time>2020-01-20T23:14:08Z</time>
      </trkpt>
      <trkpt lat="-23.445313" lon="-45.575337">
        <ele>741.666</ele>
        <time>2020-01-20T23:14:28Z</time>
      </trkpt>
      <trkpt lat="-23.445195" lon="-45.575259">
        <ele>740.129</ele>
        <time>2020-01-20T23:14:48Z</time>
      </trkpt>
      <trkpt lat="-23.445035" lon="-45.574926">
        <ele>735.121</ele>
        <time>2020-01-20T23:15:08Z</time>
      </trkpt>
      <trkpt lat="-23.444927" lon="-45.574591">
        <ele>733.908</ele>
        <time>2020-01-20T23:15:28Z</time>
      </trkpt>
      <trkpt lat="-23.444903" lon="-45.574446">
        <ele>733.050</ele>
        <time>2020-01-20T23:15:48Z</time>
      </trkpt>
      <trkpt lat="-23.444728" lon="-45.574293">
        <ele>736.711</ele>
        <time>2020-01-20T23:16:08Z</time>
      </trkpt>
      <trkpt lat="-23.444487" lon="-45.574103">
        <ele>742.733</ele>
        <time>2020-01-20T23:16:28Z</time>
      </trkpt>
      <trkpt lat="-23.444381" lon="-45.573869">
        <ele>746.570</ele>
        <time>2020-01-20T23:16:48Z</time>
      </trkpt>
      <trkpt lat="-23.444546" lon="-45.573652">
        <ele>743.453</ele>
        <time>2020-01-20T23:17:08Z</time>
      </trkpt>
      <trkpt lat="-23.444740" lon="-45.573585">
        <ele>739.623</ele>
        <time>2020-01-20T23:17:28Z</time>
      </trkpt>
      <trkpt lat="-23.444858" lon="-45.573513">
        <ele>737.878</ele>
        <time>2020-01-20T23:17:48Z</time>
      </trkpt>
      <trkpt lat="-23.445171" lon="-45.573362">
        <ele>733.535</ele>
        <time>2020-01-20T23:18:08Z</time>
      </trkpt>
      <trkpt lat="-23.445446" lon="-45.573295">
        <ele>728.448</ele>
        <time>2020-01-20T23:18:28Z</time>
      </trkpt>
      <trkpt lat="-23.445564" lon="-45.573204">
        <ele>726.361</ele>
        <time>2020-01-20T23:18:48Z</time>
      </trkpt>
      <trkpt lat="-23.445555" lon="-45.573078">
        <ele>726.517</ele>
        <time>2020-01-20T23:19:08Z</time>
      </trkpt>
      <trkpt lat="-23.445501" lon="-45.572920">
        <ele>727.608</ele>
        <time>2020-01-20T23:19:28Z</time>
      </trkpt>
      <trkpt lat="-23.445387" lon="-45.572831">
        <ele>729.518</ele>
        <time>2020-01-20T23:19:48Z</time>
      </trkpt>
      <trkpt lat="-23.445338" lon="-45.572754">
        <ele>730.249</ele>
        <time>2020-01-20T23:20:08Z</time>
      </trkpt>
      <trkpt lat="-23.445373" lon="-45.572590">
        <ele>729.751</ele>
        <time>2020-01-20T23:20:28Z</time>
      </trkpt>
      <trkpt lat="-23.445476" lon="-45.572547">
        <ele>728.178</ele>
        <time>2020-01-20T23:20:48Z</time>
      </trkpt>
      <trkpt lat="-23.445537" lon="-45.572485">
        <ele>727.241</ele>
        <time>2020-01-20T23:21:08Z</time>
      </trkpt>
      <trkpt lat="-23.445456" lon="-45.572163">
        <ele>725.641</ele>
        <time>2020-01-20T23:21:28Z</time>
      </trkpt>
      <trkpt lat="-23.445338" lon="-45.571917">
        <ele>724.036</ele>
        <time>2020-01-20T23:21:48Z</time>
      </trkpt>
      <trkpt lat="-23.444954" lon="-45.572062">
        <ele>728.073</ele>
        <time>2020-01-20T23:22:08Z</time>
      </trkpt>
      <trkpt lat="-23.444605" lon="-45.572088">
        <ele>731.461</ele>
        <time>2020-01-20T23:22:28Z</time>
      </trkpt>
      <trkpt lat="-23.444226" lon="-45.571976">
        <ele>733.421</ele>
        <time>2020-01-20T23:22:48Z</time>
      </trkpt>
      <trkpt lat="-23.443999" lon="-45.571858">
        <ele>732.413</ele>
        <time>2020-01-20T23:23:08Z</time>
      </trkpt>
      <trkpt lat="-23.443778" lon="-45.571611">
        <ele>731.008</ele>
        <time>2020-01-20T23:23:28Z</time>
      </trkpt>
      <trkpt lat="-23.443990" lon="-45.571278">
        <ele>730.470</ele>
        <time>2020-01-20T23:23:48Z</time>
      </trkpt>
      <trkpt lat="-23.444216" lon="-45.571209">
        <ele>729.161</ele>
        <time>2020-01-20T23:24:08Z</time>
      </trkpt>
      <trkpt lat="-23.444433" lon="-45.570973">
        <ele>724.323</ele>
        <time>2020-01-20T23:24:28Z</time>
      </trkpt>
      <trkpt lat="-23.444536" lon="-45.570694">
        <ele>720.790</ele>
        <time>2020-01-20T23:24:48Z</time>
      </trkpt>
      <trkpt lat="-23.444423" lon="-45.570458">
        <ele>721.343</ele>
        <time>2020-01-20T23:25:08Z</time>
      </trkpt>
      <trkpt lat="-23.444280" lon="-45.570302">
        <ele>722.393</ele>
        <time>2020-01-20T23:25:28Z</time>
      </trkpt>
      <trkpt lat="-23.443950" lon="-45.570286">
        <ele>725.048</ele>
        <time>2020-01-20T23:25:48Z</time>
      </trkpt>
      <trkpt lat="-23.443571" lon="-45.570254">
        <ele>727.125</ele>
        <time>2020-01-20T23:26:08Z</time>
      </trkpt>
      <trkpt lat="-23.443286" lon="-45.570259">
        <ele>728.837</ele>
        <time>2020-01-20T23:26:28Z</time>
      </trkpt>
      <trkpt lat="-23.443089" lon="-45.570313">
        <ele>729.849</ele>
        <time>2020-01-20T23:26:48Z</time>
      </trkpt>
      <trkpt lat="-23.443000" lon="-45.570399">
        <ele>729.913</ele>
        <time>2020-01-20T23:27:08Z</time>
      </trkpt>
      <trkpt lat="-23.442700" lon="-45.570291">
        <ele>731.608</ele>
        <time>2020-01-20T23:27:28Z</time>
      </trkpt>
      <trkpt lat="-23.442626" lon="-45.569943">
        <ele>735.687</ele>
        <time>2020-01-20T23:27:48Z</time>
      </trkpt>
      <trkpt lat="-23.442621" lon="-45.569540">
        <ele>736.248</ele>
        <time>2020-01-20T23:28:08Z</time>
      </trkpt>
      <trkpt lat="-23.442735" lon="-45.569052">
        <ele>733.740</ele>
        <time>2020-01-20T23:28:28Z</time>
      </trkpt>
      <trkpt lat="-23.442863" lon="-45.568843">
        <ele>730.387</ele>
        <time>2020-01-20T23:28:48Z</time>
      </trkpt>
      <trkpt lat="-23.442887" lon="-45.568746">
        <ele>729.450</ele>
        <time>2020-01-20T23:29:08Z</time>
      </trkpt>
      <trkpt lat="-23.442887" lon="-45.568483">
        <ele>728.130</ele>
        <time>2020-01-20T23:29:28Z</time>
      </trkpt>
      <trkpt lat="-23.442843" lon="-45.568210">
        <ele>725.975</ele>
        <time>2020-01-20T23:29:48Z</time>
      </trkpt>
      <trkpt lat="-23.442759" lon="-45.567990">
        <ele>723.452</ele>
        <time>2020-01-20T23:30:08Z</time>
      </trkpt>
      <trkpt lat="-23.442676" lon="-45.567791">
        <ele>721.133</ele>
        <time>2020-01-20T23:30:28Z</time>
      </trkpt>
      <trkpt lat="-23.442700" lon="-45.567491">
        <ele>716.523</ele>
        <time>2020-01-20T23:30:48Z</time>
      </trkpt>
      <trkpt lat="-23.442759" lon="-45.567207">
        <ele>714.715</ele>
        <time>2020-01-20T23:31:08Z</time>
      </trkpt>
      <trkpt lat="-23.442784" lon="-45.567089">
        <ele>714.008</ele>
        <time>2020-01-20T23:31:28Z</time>
      </trkpt>
      <trkpt lat="-23.442608" lon="-45.567701">
        <ele>720.395</ele>
        <time>2020-01-19T13:51:56Z</time>
      </trkpt>
      <trkpt lat="-23.442637" lon="-45.567662">
        <ele>720.349</ele>
        <time>2020-01-19T14:00:22Z</time>
      </trkpt>
      <trkpt lat="-23.442662" lon="-45.567704">
        <ele>720.323</ele>
        <time>2020-01-19T14:00:46Z</time>
      </trkpt>
      <trkpt lat="-23.442677" lon="-45.567754">
        <ele>720.308</ele>
        <time>2020-01-19T14:01:02Z</time>
      </trkpt>
      <trkpt lat="-23.442676" lon="-45.567805">
        <ele>720.343</ele>
        <time>2020-01-19T14:01:07Z</time>
      </trkpt>
      <trkpt lat="-23.442652" lon="-45.567847">
        <ele>720.384</ele>
        <time>2020-01-19T14:01:31Z</time>
      </trkpt>
      <trkpt lat="-23.442608" lon="-45.567860">
        <ele>720.336</ele>
        <time>2020-01-19T14:02:05Z</time>
      </trkpt>
      <trkpt lat="-23.442571" lon="-45.567830">
        <ele>720.340</ele>
        <time>2020-01-19T14:03:01Z</time>
      </trkpt>
      <trkpt lat="-23.442530" lon="-45.567806">
        <ele>720.316</ele>
        <time>2020-01-19T14:06:08Z</time>
      </trkpt>
      <trkpt lat="-23.442567" lon="-45.567776">
        <ele>720.370</ele>
        <time>2020-01-19T14:07:28Z</time>
      </trkpt>
      <trkpt lat="-23.442578" lon="-45.567824">
        <ele>720.353</ele>
        <time>2020-01-19T14:11:46Z</time>
      </trkpt>
      <trkpt lat="-23.442534" lon="-45.567811">
        <ele>720.363</ele>
        <time>2020-01-19T14:13:42Z</time>
      </trkpt>
      <trkpt lat="-23.442520" lon="-45.567753">
        <ele>720.324</ele>
        <time>2020-01-19T14:15:22Z</time>
      </trkpt>
      <trkpt lat="-23.442530" lon="-45.567685">
        <ele>720.304</ele>
        <time>2020-01-19T14:15:25Z</time>
      </trkpt>
      <trkpt lat="-23.442543" lon="-45.567632">
        <ele>720.314</ele>
        <time>2020-01-19T14:15:27Z</time>
      </trkpt>
      <trkpt lat="-23.442547" lon="-45.567558">
        <ele>721.108</ele>
        <time>2020-01-19T14:15:30Z</time>
      </trkpt>
      <trkpt lat="-23.442547" lon="-45.567558">
        <ele>721.136</ele>
        <time>2020-01-19T14:15:30Z</time>
      </trkpt>
      <trkpt lat="-23.442547" lon="-45.567558">
        <ele>721.117</ele>
        <time>2020-01-19T14:15:30Z</time>
      </trkpt>
      <trkpt lat="-23.442553" lon="-45.567501">
        <ele>721.669</ele>
        <time>2020-01-19T14:15:32Z</time>
      </trkpt>
      <trkpt lat="-23.442557" lon="-45.567446">
        <ele>722.373</ele>
        <time>2020-01-19T14:15:34Z</time>
      </trkpt>
      <trkpt lat="-23.442562" lon="-45.567375">
        <ele>722.529</ele>
        <time>2020-01-19T14:15:36Z</time>
      </trkpt>
      <trkpt lat="-23.442564" lon="-45.567323">
        <ele>721.633</ele>
        <time>2020-01-19T14:15:38Z</time>
      </trkpt>
      <trkpt lat="-23.442570" lon="-45.567261">
        <ele>719.316</ele>
        <time>2020-01-19T14:15:40Z</time>
      </trkpt>
      <trkpt lat="-23.442574" lon="-45.567211">
        <ele>716.976</ele>
        <time>2020-01-19T14:15:42Z</time>
      </trkpt>
      <trkpt lat="-23.442586" lon="-45.567154">
        <ele>714.833</ele>
        <time>2020-01-19T14:15:45Z</time>
      </trkpt>
      <trkpt lat="-23.442597" lon="-45.567103">
        <ele>711.823</ele>
        <time>2020-01-19T14:15:48Z</time>
      </trkpt>
      <trkpt lat="-23.442595" lon="-45.567054">
        <ele>709.915</ele>
        <time>2020-01-19T14:15:52Z</time>
      </trkpt>
      <trkpt lat="-23.442582" lon="-45.567005">
        <ele>709.308</ele>
        <time>2020-01-19T14:15:55Z</time>
      </trkpt>
      <trkpt lat="-23.442561" lon="-45.566954">
        <ele>707.597</ele>
        <time>2020-01-19T14:15:57Z</time>
      </trkpt>
      <trkpt lat="-23.442537" lon="-45.566903">
        <ele>705.488</ele>
        <time>2020-01-19T14:16:00Z</time>
      </trkpt>
      <trkpt lat="-23.442526" lon="-45.566852">
        <ele>703.730</ele>
        <time>2020-01-19T14:16:03Z</time>
      </trkpt>
      <trkpt lat="-23.442531" lon="-45.566802">
        <ele>701.624</ele>
        <time>2020-01-19T14:16:14Z</time>
      </trkpt>
      <trkpt lat="-23.442494" lon="-45.566767">
        <ele>697.710</ele>
        <time>2020-01-19T14:17:46Z</time>
      </trkpt>
      <trkpt lat="-23.442441" lon="-45.566742">
        <ele>694.124</ele>
        <time>2020-01-19T14:17:50Z</time>
      </trkpt>
      <trkpt lat="-23.442389" lon="-45.566716">
        <ele>693.047</ele>
        <time>2020-01-19T14:17:54Z</time>
      </trkpt>
      <trkpt lat="-23.442349" lon="-45.566688">
        <ele>692.167</ele>
        <time>2020-01-19T14:17:57Z</time>
      </trkpt>
      <trkpt lat="-23.442304" lon="-45.566654">
        <ele>690.667</ele>
        <time>2020-01-19T14:18:02Z</time>
      </trkpt>
      <trkpt lat="-23.442261" lon="-45.566637">
        <ele>689.081</ele>
        <time>2020-01-19T14:18:09Z</time>
      </trkpt>
      <trkpt lat="-23.442222" lon="-45.566611">
        <ele>686.919</ele>
        <time>2020-01-19T14:18:28Z</time>
      </trkpt>
      <trkpt lat="-23.442205" lon="-45.566565">
        <ele>685.908</ele>
        <time>2020-01-19T14:18:35Z</time>
      </trkpt>
      <trkpt lat="-23.442186" lon="-45.566509">
        <ele>685.060</ele>
        <time>2020-01-19T14:18:40Z</time>
      </trkpt>
      <trkpt lat="-23.442168" lon="-45.566451">
        <ele>684.471</ele>
        <time>2020-01-19T14:18:44Z</time>
      </trkpt>
      <trkpt lat="-23.442151" lon="-45.566389">
        <ele>684.733</ele>
        <time>2020-01-19T14:18:48Z</time>
      </trkpt>
      <trkpt lat="-23.442154" lon="-45.566337">
        <ele>685.497</ele>
        <time>2020-01-19T14:18:52Z</time>
      </trkpt>
      <trkpt lat="-23.442142" lon="-45.566278">
        <ele>686.153</ele>
        <time>2020-01-19T14:18:57Z</time>
      </trkpt>
      <trkpt lat="-23.442127" lon="-45.566222">
        <ele>687.477</ele>
        <time>2020-01-19T14:19:00Z</time>
      </trkpt>
      <trkpt lat="-23.442091" lon="-45.566175">
        <ele>687.790</ele>
        <time>2020-01-19T14:19:03Z</time>
      </trkpt>
      <trkpt lat="-23.442085" lon="-45.566119">
        <ele>688.170</ele>
        <time>2020-01-19T14:19:05Z</time>
      </trkpt>
      <trkpt lat="-23.442068" lon="-45.566066">
        <ele>688.788</ele>
        <time>2020-01-19T14:19:08Z</time>
      </trkpt>
      <trkpt lat="-23.442063" lon="-45.566014">
        <ele>688.624</ele>
        <time>2020-01-19T14:19:11Z</time>
      </trkpt>
      <trkpt lat="-23.442061" lon="-45.565957">
        <ele>689.026</ele>
        <time>2020-01-19T14:19:13Z</time>
      </trkpt>
      <trkpt lat="-23.442052" lon="-45.565897">
        <ele>689.408</ele>
        <time>2020-01-19T14:19:16Z</time>
      </trkpt>
      <trkpt lat="-23.442034" lon="-45.565847">
        <ele>688.982</ele>
        <time>2020-01-19T14:19:18Z</time>
      </trkpt>
      <trkpt lat="-23.442018" lon="-45.565801">
        <ele>688.163</ele>
        <time>2020-01-19T14:19:20Z</time>
      </trkpt>
      <trkpt lat="-23.442019" lon="-45.565743">
        <ele>688.055</ele>
        <time>2020-01-19T14:19:23Z</time>
      </trkpt>
      <trkpt lat="-23.442030" lon="-45.565676">
        <ele>688.339</ele>
        <time>2020-01-19T14:19:25Z</time>
      </trkpt>
      <trkpt lat="-23.442020" lon="-45.565608">
        <ele>689.025</ele>
        <time>2020-01-19T14:19:29Z</time>
      </trkpt>
      <trkpt lat="-23.442018" lon="-45.565540">
        <ele>689.679</ele>
        <time>2020-01-19T14:19:32Z</time>
      </trkpt>
      <trkpt lat="-23.442017" lon="-45.565477">
        <ele>689.982</ele>
        <time>2020-01-19T14:19:34Z</time>
      </trkpt>
      <trkpt lat="-23.442015" lon="-45.565424">
        <ele>690.052</ele>
        <time>2020-01-19T14:19:36Z</time>
      </trkpt>
      <trkpt lat="-23.442008" lon="-45.565352">
        <ele>689.925</ele>
        <time>2020-01-19T14:19:39Z</time>
      </trkpt>
      <trkpt lat="-23.442006" lon="-45.565302">
        <ele>689.826</ele>
        <time>2020-01-19T14:19:41Z</time>
      </trkpt>
      <trkpt lat="-23.442012" lon="-45.565237">
        <ele>689.908</ele>
        <time>2020-01-19T14:19:44Z</time>
      </trkpt>
      <trkpt lat="-23.442021" lon="-45.565171">
        <ele>689.808</ele>
        <time>2020-01-19T14:19:47Z</time>
      </trkpt>
      <trkpt lat="-23.442018" lon="-45.565106">
        <ele>689.736</ele>
        <time>2020-01-19T14:19:50Z</time>
      </trkpt>
      <trkpt lat="-23.442036" lon="-45.565052">
        <ele>689.527</ele>
        <time>2020-01-19T14:19:53Z</time>
      </trkpt>
      <trkpt lat="-23.442026" lon="-45.564995">
        <ele>689.599</ele>
        <time>2020-01-19T14:19:55Z</time>
      </trkpt>
      <trkpt lat="-23.442016" lon="-45.564946">
        <ele>690.073</ele>
        <time>2020-01-19T14:19:57Z</time>
      </trkpt>
      <trkpt lat="-23.442000" lon="-45.564879">
        <ele>692.859</ele>
        <time>2020-01-19T14:20:00Z</time>
      </trkpt>
      <trkpt lat="-23.441983" lon="-45.564821">
        <ele>693.843</ele>
        <time>2020-01-19T14:20:02Z</time>
      </trkpt>
      <trkpt lat="-23.441982" lon="-45.564762">
        <ele>693.816</ele>
        <time>2020-01-19T14:20:05Z</time>
      </trkpt>
      <trkpt lat="-23.441982" lon="-45.564711">
        <ele>693.476</ele>
        <time>2020-01-19T14:20:07Z</time>
      </trkpt>
      <trkpt lat="-23.441983" lon="-45.564650">
        <ele>692.625</ele>
        <time>2020-01-19T14:20:10Z</time>
      </trkpt>
      <trkpt lat="-23.441988" lon="-45.564600">
        <ele>692.026</ele>
        <time>2020-01-19T14:20:12Z</time>
      </trkpt>
      <trkpt lat="-23.441994" lon="-45.564551">
        <ele>692.408</ele>
        <time>2020-01-19T14:20:14Z</time>
      </trkpt>
      <trkpt lat="-23.441998" lon="-45.564489">
        <ele>691.308</ele>
        <time>2020-01-19T14:20:17Z</time>
      </trkpt>
      <trkpt lat="-23.442005" lon="-45.564423">
        <ele>689.956</ele>
        <time>2020-01-19T14:20:20Z</time>
      </trkpt>
      <trkpt lat="-23.442008" lon="-45.564352">
        <ele>688.977</ele>
        <time>2020-01-19T14:20:23Z</time>
      </trkpt>
      <trkpt lat="-23.442008" lon="-45.564291">
        <ele>688.489</ele>
        <time>2020-01-19T14:20:25Z</time>
      </trkpt>
      <trkpt lat="-23.442008" lon="-45.564220">
        <ele>688.183</ele>
        <time>2020-01-19T14:20:28Z</time>
      </trkpt>
      <trkpt lat="-23.442006" lon="-45.564169">
        <ele>687.969</ele>
        <time>2020-01-19T14:20:30Z</time>
      </trkpt>
      <trkpt lat="-23.442008" lon="-45.564104">
        <ele>687.463</ele>
        <time>2020-01-19T14:20:33Z</time>
      </trkpt>
      <trkpt lat="-23.442000" lon="-45.564041">
        <ele>686.786</ele>
        <time>2020-01-19T14:20:36Z</time>
      </trkpt>
      <trkpt lat="-23.441995" lon="-45.563975">
        <ele>686.836</ele>
        <time>2020-01-19T14:20:39Z</time>
      </trkpt>
      <trkpt lat="-23.441987" lon="-45.563907">
        <ele>687.716</ele>
        <time>2020-01-19T14:20:42Z</time>
      </trkpt>
      <trkpt lat="-23.441980" lon="-45.563838">
        <ele>688.576</ele>
        <time>2020-01-19T14:20:45Z</time>
      </trkpt>
      <trkpt lat="-23.441980" lon="-45.563768">
        <ele>688.513</ele>
        <time>2020-01-19T14:20:48Z</time>
      </trkpt>
      <trkpt lat="-23.441981" lon="-45.563696">
        <ele>688.008</ele>
        <time>2020-01-19T14:20:51Z</time>
      </trkpt>
      <trkpt lat="-23.441976" lon="-45.563628">
        <ele>692.095</ele>
        <time>2020-01-19T14:20:54Z</time>
      </trkpt>
      <trkpt lat="-23.441970" lon="-45.563560">
        <ele>693.846</ele>
        <time>2020-01-19T14:20:57Z</time>
      </trkpt>
      <trkpt lat="-23.441974" lon="-45.563487">
        <ele>693.568</ele>
        <time>2020-01-19T14:21:00Z</time>
      </trkpt>
      <trkpt lat="-23.441980" lon="-45.563438">
        <ele>692.962</ele>
        <time>2020-01-19T14:21:02Z</time>
      </trkpt>
      <trkpt lat="-23.441990" lon="-45.563367">
        <ele>696.658</ele>
        <time>2020-01-19T14:21:05Z</time>
      </trkpt>
      <trkpt lat="-23.441998" lon="-45.563295">
        <ele>696.132</ele>
        <time>2020-01-19T14:21:08Z</time>
      </trkpt>
      <trkpt lat="-23.442004" lon="-45.563222">
        <ele>694.615</ele>
        <time>2020-01-19T14:21:11Z</time>
      </trkpt>
      <trkpt lat="-23.442008" lon="-45.563172">
        <ele>693.155</ele>
        <time>2020-01-19T14:21:13Z</time>
      </trkpt>
      <trkpt lat="-23.442012" lon="-45.563101">
        <ele>691.861</ele>
        <time>2020-01-19T14:21:16Z</time>
      </trkpt>
      <trkpt lat="-23.442015" lon="-45.563031">
        <ele>691.021</ele>
        <time>2020-01-19T14:21:19Z</time>
      </trkpt>
      <trkpt lat="-23.442013" lon="-45.562961">
        <ele>689.413</ele>
        <time>2020-01-19T14:21:22Z</time>
      </trkpt>
      <trkpt lat="-23.442007" lon="-45.562891">
        <ele>688.908</ele>
        <time>2020-01-19T14:21:25Z</time>
      </trkpt>
      <trkpt lat="-23.442002" lon="-45.562822">
        <ele>688.870</ele>
        <time>2020-01-19T14:21:28Z</time>
      </trkpt>
      <trkpt lat="-23.442003" lon="-45.562753">
        <ele>688.341</ele>
        <time>2020-01-19T14:21:31Z</time>
      </trkpt>
      <trkpt lat="-23.442006" lon="-45.562686">
        <ele>687.833</ele>
        <time>2020-01-19T14:21:34Z</time>
      </trkpt>
      <trkpt lat="-23.442003" lon="-45.562619">
        <ele>687.637</ele>
        <time>2020-01-19T14:21:37Z</time>
      </trkpt>
      <trkpt lat="-23.441997" lon="-45.562552">
        <ele>687.683</ele>
        <time>2020-01-19T14:21:40Z</time>
      </trkpt>
      <trkpt lat="-23.441994" lon="-45.562487">
        <ele>687.517</ele>
        <time>2020-01-19T14:21:43Z</time>
      </trkpt>
      <trkpt lat="-23.441994" lon="-45.562415">
        <ele>686.990</ele>
        <time>2020-01-19T14:21:46Z</time>
      </trkpt>
      <trkpt lat="-23.441993" lon="-45.562365">
        <ele>686.390</ele>
        <time>2020-01-19T14:21:48Z</time>
      </trkpt>
      <trkpt lat="-23.441991" lon="-45.562292">
        <ele>685.355</ele>
        <time>2020-01-19T14:21:51Z</time>
      </trkpt>
      <trkpt lat="-23.441987" lon="-45.562222">
        <ele>684.907</ele>
        <time>2020-01-19T14:21:54Z</time>
      </trkpt>
      <trkpt lat="-23.441986" lon="-45.562172">
        <ele>684.517</ele>
        <time>2020-01-19T14:21:56Z</time>
      </trkpt>
      <trkpt lat="-23.441987" lon="-45.562122">
        <ele>683.708</ele>
        <time>2020-01-19T14:21:58Z</time>
      </trkpt>
      <trkpt lat="-23.441989" lon="-45.562072">
        <ele>683.099</ele>
        <time>2020-01-19T14:22:00Z</time>
      </trkpt>
      <trkpt lat="-23.441994" lon="-45.562023">
        <ele>682.580</ele>
        <time>2020-01-19T14:22:02Z</time>
      </trkpt>
      <trkpt lat="-23.442000" lon="-45.561974">
        <ele>682.652</ele>
        <time>2020-01-19T14:22:04Z</time>
      </trkpt>
      <trkpt lat="-23.442002" lon="-45.561924">
        <ele>682.556</ele>
        <time>2020-01-19T14:22:06Z</time>
      </trkpt>
      <trkpt lat="-23.442001" lon="-45.561871">
        <ele>682.682</ele>
        <time>2020-01-19T14:22:08Z</time>
      </trkpt>
      <trkpt lat="-23.442000" lon="-45.561803">
        <ele>683.146</ele>
        <time>2020-01-19T14:22:11Z</time>
      </trkpt>
      <trkpt lat="-23.442003" lon="-45.561736">
        <ele>683.769</ele>
        <time>2020-01-19T14:22:14Z</time>
      </trkpt>
      <trkpt lat="-23.442006" lon="-45.561664">
        <ele>684.039</ele>
        <time>2020-01-19T14:22:17Z</time>
      </trkpt>
      <trkpt lat="-23.442006" lon="-45.561614">
        <ele>684.126</ele>
        <time>2020-01-19T14:22:19Z</time>
      </trkpt>
      <trkpt lat="-23.442004" lon="-45.561561">
        <ele>684.747</ele>
        <time>2020-01-19T14:22:21Z</time>
      </trkpt>
      <trkpt lat="-23.442003" lon="-45.561510">
        <ele>684.511</ele>
        <time>2020-01-19T14:22:23Z</time>
      </trkpt>
      <trkpt lat="-23.442006" lon="-45.561458">
        <ele>683.708</ele>
        <time>2020-01-19T14:22:25Z</time>
      </trkpt>
      <trkpt lat="-23.442010" lon="-45.561392">
        <ele>683.116</ele>
        <time>2020-01-19T14:22:28Z</time>
      </trkpt>
      <trkpt lat="-23.442014" lon="-45.561342">
        <ele>682.737</ele>
        <time>2020-01-19T14:22:30Z</time>
      </trkpt>
      <trkpt lat="-23.442019" lon="-45.561280">
        <ele>682.159</ele>
        <time>2020-01-19T14:22:33Z</time>
      </trkpt>
      <trkpt lat="-23.442024" lon="-45.561213">
        <ele>681.323</ele>
        <time>2020-01-19T14:22:36Z</time>
      </trkpt>
      <trkpt lat="-23.442022" lon="-45.561146">
        <ele>681.259</ele>
        <time>2020-01-19T14:22:39Z</time>
      </trkpt>
      <trkpt lat="-23.442020" lon="-45.561097">
        <ele>681.873</ele>
        <time>2020-01-19T14:22:41Z</time>
      </trkpt>
      <trkpt lat="-23.442019" lon="-45.561026">
        <ele>682.536</ele>
        <time>2020-01-19T14:22:44Z</time>
      </trkpt>
      <trkpt lat="-23.442019" lon="-45.560976">
        <ele>682.646</ele>
        <time>2020-01-19T14:22:46Z</time>
      </trkpt>
      <trkpt lat="-23.442019" lon="-45.560900">
        <ele>683.771</ele>
        <time>2020-01-19T14:22:49Z</time>
      </trkpt>
      <trkpt lat="-23.442019" lon="-45.560848">
        <ele>684.541</ele>
        <time>2020-01-19T14:22:51Z</time>
      </trkpt>
      <trkpt lat="-23.442018" lon="-45.560799">
        <ele>684.615</ele>
        <time>2020-01-19T14:22:53Z</time>
      </trkpt>
      <trkpt lat="-23.442021" lon="-45.560730">
        <ele>685.008</ele>
        <time>2020-01-19T14:22:56Z</time>
      </trkpt>
      <trkpt lat="-23.442029" lon="-45.560668">
        <ele>685.361</ele>
        <time>2020-01-19T14:22:59Z</time>
      </trkpt>
      <trkpt lat="-23.442038" lon="-45.560606">
        <ele>685.622</ele>
        <time>2020-01-19T14:23:02Z</time>
      </trkpt>
      <trkpt lat="-23.442048" lon="-45.560550">
        <ele>684.924</ele>
        <time>2020-01-19T14:23:05Z</time>
      </trkpt>
      <trkpt lat="-23.442045" lon="-45.560490">
        <ele>684.888</ele>
        <time>2020-01-19T14:23:08Z</time>
      </trkpt>
      <trkpt lat="-23.442063" lon="-45.560426">
        <ele>684.644</ele>
        <time>2020-01-19T14:23:11Z</time>
      </trkpt>
      <trkpt lat="-23.442066" lon="-45.560362">
        <ele>686.018</ele>
        <time>2020-01-19T14:23:14Z</time>
      </trkpt>
      <trkpt lat="-23.442072" lon="-45.560293">
        <ele>687.221</ele>
        <time>2020-01-19T14:23:17Z</time>
      </trkpt>
      <trkpt lat="-23.442077" lon="-45.560243">
        <ele>687.691</ele>
        <time>2020-01-19T14:23:19Z</time>
      </trkpt>
      <trkpt lat="-23.442081" lon="-45.560171">
        <ele>688.584</ele>
        <time>2020-01-19T14:23:22Z</time>
      </trkpt>
      <trkpt lat="-23.442085" lon="-45.560100">
        <ele>689.207</ele>
        <time>2020-01-19T14:23:25Z</time>
      </trkpt>
      <trkpt lat="-23.442088" lon="-45.560032">
        <ele>689.617</ele>
        <time>2020-01-19T14:23:28Z</time>
      </trkpt>
      <trkpt lat="-23.442088" lon="-45.559961">
        <ele>689.708</ele>
        <time>2020-01-19T14:23:31Z</time>
      </trkpt>
      <trkpt lat="-23.442092" lon="-45.559889">
        <ele>690.012</ele>
        <time>2020-01-19T14:23:34Z</time>
      </trkpt>
      <trkpt lat="-23.442098" lon="-45.559818">
        <ele>690.423</ele>
        <time>2020-01-19T14:23:37Z</time>
      </trkpt>
      <trkpt lat="-23.442107" lon="-45.559745">
        <ele>691.335</ele>
        <time>2020-01-19T14:23:40Z</time>
      </trkpt>
      <trkpt lat="-23.442117" lon="-45.559674">
        <ele>691.529</ele>
        <time>2020-01-19T14:23:43Z</time>
      </trkpt>
      <trkpt lat="-23.442125" lon="-45.559606">
        <ele>691.715</ele>
        <time>2020-01-19T14:23:46Z</time>
      </trkpt>
      <trkpt lat="-23.442136" lon="-45.559536">
        <ele>692.129</ele>
        <time>2020-01-19T14:23:49Z</time>
      </trkpt>
      <trkpt lat="-23.442144" lon="-45.559466">
        <ele>692.492</ele>
        <time>2020-01-19T14:23:52Z</time>
      </trkpt>
      <trkpt lat="-23.442148" lon="-45.559413">
        <ele>692.652</ele>
        <time>2020-01-19T14:23:54Z</time>
      </trkpt>
      <trkpt lat="-23.442152" lon="-45.559350">
        <ele>692.141</ele>
        <time>2020-01-19T14:23:57Z</time>
      </trkpt>
      <trkpt lat="-23.442158" lon="-45.559280">
        <ele>692.581</ele>
        <time>2020-01-19T14:24:00Z</time>
      </trkpt>
      <trkpt lat="-23.442168" lon="-45.559209">
        <ele>693.109</ele>
        <time>2020-01-19T14:24:03Z</time>
      </trkpt>
      <trkpt lat="-23.442175" lon="-45.559160">
        <ele>693.108</ele>
        <time>2020-01-19T14:24:05Z</time>
      </trkpt>
      <trkpt lat="-23.442181" lon="-45.559097">
        <ele>692.998</ele>
        <time>2020-01-19T14:24:08Z</time>
      </trkpt>
      <trkpt lat="-23.442183" lon="-45.559032">
        <ele>692.819</ele>
        <time>2020-01-19T14:24:11Z</time>
      </trkpt>
      <trkpt lat="-23.442186" lon="-45.558966">
        <ele>693.041</ele>
        <time>2020-01-19T14:24:14Z</time>
      </trkpt>
      <trkpt lat="-23.442190" lon="-45.558911">
        <ele>693.145</ele>
        <time>2020-01-19T14:24:17Z</time>
      </trkpt>
      <trkpt lat="-23.442194" lon="-45.558857">
        <ele>692.991</ele>
        <time>2020-01-19T14:24:19Z</time>
      </trkpt>
      <trkpt lat="-23.442197" lon="-45.558789">
        <ele>692.985</ele>
        <time>2020-01-19T14:24:22Z</time>
      </trkpt>
      <trkpt lat="-23.442201" lon="-45.558720">
        <ele>692.488</ele>
        <time>2020-01-19T14:24:25Z</time>
      </trkpt>
      <trkpt lat="-23.442206" lon="-45.558651">
        <ele>692.328</ele>
        <time>2020-01-19T14:24:28Z</time>
      </trkpt>
      <trkpt lat="-23.442210" lon="-45.558581">
        <ele>692.062</ele>
        <time>2020-01-19T14:24:31Z</time>
      </trkpt>
      <trkpt lat="-23.442216" lon="-45.558510">
        <ele>691.983</ele>
        <time>2020-01-19T14:24:34Z</time>
      </trkpt>
      <trkpt lat="-23.442221" lon="-45.558461">
        <ele>692.311</ele>
        <time>2020-01-19T14:24:36Z</time>
      </trkpt>
      <trkpt lat="-23.442233" lon="-45.558391">
        <ele>692.208</ele>
        <time>2020-01-19T14:24:39Z</time>
      </trkpt>
      <trkpt lat="-23.442247" lon="-45.558323">
        <ele>691.390</ele>
        <time>2020-01-19T14:24:42Z</time>
      </trkpt>
      <trkpt lat="-23.442260" lon="-45.558255">
        <ele>691.591</ele>
        <time>2020-01-19T14:24:45Z</time>
      </trkpt>
      <trkpt lat="-23.442268" lon="-45.558192">
        <ele>692.233</ele>
        <time>2020-01-19T14:24:48Z</time>
      </trkpt>
      <trkpt lat="-23.442275" lon="-45.558123">
        <ele>692.467</ele>
        <time>2020-01-19T14:24:51Z</time>
      </trkpt>
      <trkpt lat="-23.442281" lon="-45.558054">
        <ele>693.193</ele>
        <time>2020-01-19T14:24:54Z</time>
      </trkpt>
      <trkpt lat="-23.442287" lon="-45.557999">
        <ele>693.237</ele>
        <time>2020-01-19T14:24:57Z</time>
      </trkpt>
      <trkpt lat="-23.442296" lon="-45.557937">
        <ele>692.430</ele>
        <time>2020-01-19T14:24:59Z</time>
      </trkpt>
      <trkpt lat="-23.442304" lon="-45.557885">
        <ele>691.770</ele>
        <time>2020-01-19T14:25:01Z</time>
      </trkpt>
      <trkpt lat="-23.442313" lon="-45.557835">
        <ele>691.279</ele>
        <time>2020-01-19T14:25:03Z</time>
      </trkpt>
      <trkpt lat="-23.442321" lon="-45.557785">
        <ele>690.605</ele>
        <time>2020-01-19T14:25:05Z</time>
      </trkpt>
      <trkpt lat="-23.442329" lon="-45.557732">
        <ele>690.525</ele>
        <time>2020-01-19T14:25:07Z</time>
      </trkpt>
      <trkpt lat="-23.442326" lon="-45.557680">
        <ele>690.908</ele>
        <time>2020-01-19T14:25:09Z</time>
      </trkpt>
      <trkpt lat="-23.442353" lon="-45.557640">
        <ele>691.251</ele>
        <time>2020-01-19T14:25:11Z</time>
      </trkpt>
      <trkpt lat="-23.442383" lon="-45.557590">
        <ele>691.562</ele>
        <time>2020-01-19T14:25:15Z</time>
      </trkpt>
      <trkpt lat="-23.442402" lon="-45.557537">
        <ele>691.274</ele>
        <time>2020-01-19T14:25:18Z</time>
      </trkpt>
      <trkpt lat="-23.442404" lon="-45.557472">
        <ele>690.228</ele>
        <time>2020-01-19T14:25:22Z</time>
      </trkpt>
      <trkpt lat="-23.442406" lon="-45.557415">
        <ele>690.014</ele>
        <time>2020-01-19T14:25:24Z</time>
      </trkpt>
      <trkpt lat="-23.442406" lon="-45.557353">
        <ele>689.728</ele>
        <time>2020-01-19T14:25:26Z</time>
      </trkpt>
      <trkpt lat="-23.442407" lon="-45.557285">
        <ele>689.761</ele>
        <time>2020-01-19T14:25:28Z</time>
      </trkpt>
      <trkpt lat="-23.442411" lon="-45.557218">
        <ele>688.631</ele>
        <time>2020-01-19T14:25:30Z</time>
      </trkpt>
      <trkpt lat="-23.442416" lon="-45.557153">
        <ele>687.571</ele>
        <time>2020-01-19T14:25:32Z</time>
      </trkpt>
      <trkpt lat="-23.442420" lon="-45.557100">
        <ele>687.341</ele>
        <time>2020-01-19T14:25:34Z</time>
      </trkpt>
      <trkpt lat="-23.442422" lon="-45.557034">
        <ele>687.115</ele>
        <time>2020-01-19T14:25:37Z</time>
      </trkpt>
      <trkpt lat="-23.442423" lon="-45.556975">
        <ele>686.808</ele>
        <time>2020-01-19T14:25:40Z</time>
      </trkpt>
      <trkpt lat="-23.442434" lon="-45.556922">
        <ele>687.211</ele>
        <time>2020-01-19T14:25:43Z</time>
      </trkpt>
      <trkpt lat="-23.442460" lon="-45.556856">
        <ele>688.012</ele>
        <time>2020-01-19T14:25:46Z</time>
      </trkpt>
      <trkpt lat="-23.442478" lon="-45.556807">
        <ele>688.424</ele>
        <time>2020-01-19T14:25:48Z</time>
      </trkpt>
      <trkpt lat="-23.442492" lon="-45.556760">
        <ele>689.538</ele>
        <time>2020-01-19T14:25:50Z</time>
      </trkpt>
      <trkpt lat="-23.442512" lon="-45.556694">
        <ele>690.534</ele>
        <time>2020-01-19T14:25:53Z</time>
      </trkpt>
      <trkpt lat="-23.442531" lon="-45.556632">
        <ele>691.818</ele>
        <time>2020-01-19T14:25:56Z</time>
      </trkpt>
      <trkpt lat="-23.442550" lon="-45.556570">
        <ele>692.641</ele>
        <time>2020-01-19T14:25:59Z</time>
      </trkpt>
      <trkpt lat="-23.442567" lon="-45.556507">
        <ele>692.541</ele>
        <time>2020-01-19T14:26:02Z</time>
      </trkpt>
      <trkpt lat="-23.442583" lon="-45.556450">
        <ele>692.523</ele>
        <time>2020-01-19T14:26:05Z</time>
      </trkpt>
      <trkpt lat="-23.442591" lon="-45.556388">
        <ele>692.483</ele>
        <time>2020-01-19T14:26:08Z</time>
      </trkpt>
      <trkpt lat="-23.442601" lon="-45.556320">
        <ele>692.311</ele>
        <time>2020-01-19T14:26:11Z</time>
      </trkpt>
      <trkpt lat="-23.442611" lon="-45.556269">
        <ele>691.508</ele>
        <time>2020-01-19T14:26:13Z</time>
      </trkpt>
      <trkpt lat="-23.442628" lon="-45.556205">
        <ele>690.786</ele>
        <time>2020-01-19T14:26:16Z</time>
      </trkpt>
      <trkpt lat="-23.442640" lon="-45.556157">
        <ele>690.547</ele>
        <time>2020-01-19T14:26:18Z</time>
      </trkpt>
      <trkpt lat="-23.442658" lon="-45.556089">
        <ele>690.169</ele>
        <time>2020-01-19T14:26:21Z</time>
      </trkpt>
      <trkpt lat="-23.442672" lon="-45.556021">
        <ele>689.593</ele>
        <time>2020-01-19T14:26:24Z</time>
      </trkpt>
      <trkpt lat="-23.442683" lon="-45.555952">
        <ele>688.829</ele>
        <time>2020-01-19T14:26:27Z</time>
      </trkpt>
      <trkpt lat="-23.442698" lon="-45.555884">
        <ele>688.523</ele>
        <time>2020-01-19T14:26:30Z</time>
      </trkpt>
      <trkpt lat="-23.442720" lon="-45.555820">
        <ele>688.786</ele>
        <time>2020-01-19T14:26:33Z</time>
      </trkpt>
      <trkpt lat="-23.442736" lon="-45.555771">
        <ele>689.066</ele>
        <time>2020-01-19T14:26:35Z</time>
      </trkpt>
      <trkpt lat="-23.442756" lon="-45.555711">
        <ele>689.335</ele>
        <time>2020-01-19T14:26:38Z</time>
      </trkpt>
      <trkpt lat="-23.442772" lon="-45.555661">
        <ele>689.586</ele>
        <time>2020-01-19T14:26:40Z</time>
      </trkpt>
      <trkpt lat="-23.442794" lon="-45.555594">
        <ele>689.614</ele>
        <time>2020-01-19T14:26:43Z</time>
      </trkpt>
      <trkpt lat="-23.442809" lon="-45.555548">
        <ele>689.508</ele>
        <time>2020-01-19T14:26:45Z</time>
      </trkpt>
      <trkpt lat="-23.442825" lon="-45.555501">
        <ele>689.467</ele>
        <time>2020-01-19T14:26:47Z</time>
      </trkpt>
      <trkpt lat="-23.442847" lon="-45.555436">
        <ele>688.968</ele>
        <time>2020-01-19T14:26:50Z</time>
      </trkpt>
      <trkpt lat="-23.442867" lon="-45.555374">
        <ele>688.170</ele>
        <time>2020-01-19T14:26:53Z</time>
      </trkpt>
      <trkpt lat="-23.442885" lon="-45.555315">
        <ele>688.114</ele>
        <time>2020-01-19T14:26:56Z</time>
      </trkpt>
      <trkpt lat="-23.442902" lon="-45.555259">
        <ele>688.330</ele>
        <time>2020-01-19T14:26:59Z</time>
      </trkpt>
      <trkpt lat="-23.442917" lon="-45.555206">
        <ele>688.374</ele>
        <time>2020-01-19T14:27:02Z</time>
      </trkpt>
      <trkpt lat="-23.442934" lon="-45.555149">
        <ele>688.087</ele>
        <time>2020-01-19T14:27:05Z</time>
      </trkpt>
      <trkpt lat="-23.442944" lon="-45.555101">
        <ele>687.587</ele>
        <time>2020-01-19T14:27:08Z</time>
      </trkpt>
      <trkpt lat="-23.442941" lon="-45.555043">
        <ele>687.347</ele>
        <time>2020-01-19T14:27:12Z</time>
      </trkpt>
      <trkpt lat="-23.442943" lon="-45.554981">
        <ele>686.529</ele>
        <time>2020-01-19T14:27:16Z</time>
      </trkpt>
      <trkpt lat="-23.442941" lon="-45.554924">
        <ele>686.221</ele>
        <time>2020-01-19T14:27:20Z</time>
      </trkpt>
      <trkpt lat="-23.442947" lon="-45.554868">
        <ele>685.308</ele>
        <time>2020-01-19T14:27:24Z</time>
      </trkpt>
      <trkpt lat="-23.442955" lon="-45.554815">
        <ele>684.838</ele>
        <time>2020-01-19T14:27:28Z</time>
      </trkpt>
      <trkpt lat="-23.442965" lon="-45.554762">
        <ele>684.289</ele>
        <time>2020-01-19T14:27:32Z</time>
      </trkpt>
      <trkpt lat="-23.442978" lon="-45.554705">
        <ele>683.571</ele>
        <time>2020-01-19T14:27:36Z</time>
      </trkpt>
      <trkpt lat="-23.442993" lon="-45.554644">
        <ele>682.765</ele>
        <time>2020-01-19T14:27:40Z</time>
      </trkpt>
      <trkpt lat="-23.443011" lon="-45.554596">
        <ele>682.281</ele>
        <time>2020-01-19T14:27:44Z</time>
      </trkpt>
      <trkpt lat="-23.443031" lon="-45.554546">
        <ele>681.845</ele>
        <time>2020-01-19T14:27:48Z</time>
      </trkpt>
      <trkpt lat="-23.443040" lon="-45.554493">
        <ele>680.558</ele>
        <time>2020-01-19T14:27:53Z</time>
      </trkpt>
      <trkpt lat="-23.443062" lon="-45.554440">
        <ele>679.578</ele>
        <time>2020-01-19T14:27:57Z</time>
      </trkpt>
      <trkpt lat="-23.443083" lon="-45.554393">
        <ele>679.481</ele>
        <time>2020-01-19T14:28:00Z</time>
      </trkpt>
      <trkpt lat="-23.443105" lon="-45.554345">
        <ele>678.861</ele>
        <time>2020-01-19T14:28:03Z</time>
      </trkpt>
      <trkpt lat="-23.443130" lon="-45.554294">
        <ele>678.017</ele>
        <time>2020-01-19T14:28:06Z</time>
      </trkpt>
      <trkpt lat="-23.443159" lon="-45.554234">
        <ele>680.308</ele>
        <time>2020-01-19T14:28:34Z</time>
      </trkpt>
      <trkpt lat="-23.443173" lon="-45.554187">
        <ele>682.232</ele>
        <time>2020-01-19T14:28:37Z</time>
      </trkpt>
      <trkpt lat="-23.443186" lon="-45.554137">
        <ele>682.953</ele>
        <time>2020-01-19T14:28:50Z</time>
      </trkpt>
      <trkpt lat="-23.443181" lon="-45.554083">
        <ele>684.795</ele>
        <time>2020-01-19T14:28:58Z</time>
      </trkpt>
      <trkpt lat="-23.443186" lon="-45.554029">
        <ele>685.449</ele>
        <time>2020-01-19T14:29:05Z</time>
      </trkpt>
      <trkpt lat="-23.443185" lon="-45.553974">
        <ele>685.895</ele>
        <time>2020-01-19T14:29:12Z</time>
      </trkpt>
      <trkpt lat="-23.443185" lon="-45.553922">
        <ele>685.559</ele>
        <time>2020-01-19T14:29:42Z</time>
      </trkpt>
      <trkpt lat="-23.443173" lon="-45.553871">
        <ele>685.832</ele>
        <time>2020-01-19T14:29:45Z</time>
      </trkpt>
      <trkpt lat="-23.443158" lon="-45.553819">
        <ele>687.282</ele>
        <time>2020-01-19T14:29:49Z</time>
      </trkpt>
      <trkpt lat="-23.443140" lon="-45.553772">
        <ele>688.594</ele>
        <time>2020-01-19T14:29:53Z</time>
      </trkpt>
      <trkpt lat="-23.443114" lon="-45.553726">
        <ele>689.657</ele>
        <time>2020-01-19T14:29:57Z</time>
      </trkpt>
      <trkpt lat="-23.443081" lon="-45.553691">
        <ele>690.622</ele>
        <time>2020-01-19T14:30:02Z</time>
      </trkpt>
      <trkpt lat="-23.443042" lon="-45.553666">
        <ele>691.508</ele>
        <time>2020-01-19T14:30:07Z</time>
      </trkpt>
      <trkpt lat="-23.443000" lon="-45.553644">
        <ele>691.863</ele>
        <time>2020-01-19T14:30:13Z</time>
      </trkpt>
      <trkpt lat="-23.442963" lon="-45.553613">
        <ele>692.944</ele>
        <time>2020-01-19T14:30:19Z</time>
      </trkpt>
      <trkpt lat="-23.442931" lon="-45.553578">
        <ele>693.526</ele>
        <time>2020-01-19T14:30:25Z</time>
      </trkpt>
      <trkpt lat="-23.442898" lon="-45.553541">
        <ele>693.960</ele>
        <time>2020-01-19T14:30:30Z</time>
      </trkpt>
      <trkpt lat="-23.442860" lon="-45.553501">
        <ele>693.456</ele>
        <time>2020-01-19T14:30:38Z</time>
      </trkpt>
      <trkpt lat="-23.442822" lon="-45.553469">
        <ele>693.460</ele>
        <time>2020-01-19T14:30:45Z</time>
      </trkpt>
      <trkpt lat="-23.442796" lon="-45.553425">
        <ele>693.113</ele>
        <time>2020-01-19T14:30:53Z</time>
      </trkpt>
      <trkpt lat="-23.442763" lon="-45.553386">
        <ele>692.493</ele>
        <time>2020-01-19T14:31:01Z</time>
      </trkpt>
      <trkpt lat="-23.442727" lon="-45.553352">
        <ele>693.284</ele>
        <time>2020-01-19T14:31:09Z</time>
      </trkpt>
      <trkpt lat="-23.442687" lon="-45.553327">
        <ele>694.307</ele>
        <time>2020-01-19T14:31:15Z</time>
      </trkpt>
      <trkpt lat="-23.442646" lon="-45.553295">
        <ele>694.717</ele>
        <time>2020-01-19T14:31:23Z</time>
      </trkpt>
      <trkpt lat="-23.442602" lon="-45.553275">
        <ele>695.908</ele>
        <time>2020-01-19T14:31:29Z</time>
      </trkpt>
      <trkpt lat="-23.442556" lon="-45.553254">
        <ele>696.582</ele>
        <time>2020-01-19T14:31:34Z</time>
      </trkpt>
      <trkpt lat="-23.442513" lon="-45.553236">
        <ele>695.993</ele>
        <time>2020-01-19T14:31:39Z</time>
      </trkpt>
      <trkpt lat="-23.442469" lon="-45.553213">
        <ele>695.945</ele>
        <time>2020-01-19T14:31:44Z</time>
      </trkpt>
      <trkpt lat="-23.442424" lon="-45.553190">
        <ele>696.499</ele>
        <time>2020-01-19T14:31:50Z</time>
      </trkpt>
      <trkpt lat="-23.442380" lon="-45.553167">
        <ele>698.755</ele>
        <time>2020-01-19T14:31:57Z</time>
      </trkpt>
      <trkpt lat="-23.442341" lon="-45.553138">
        <ele>700.059</ele>
        <time>2020-01-19T14:32:04Z</time>
      </trkpt>
      <trkpt lat="-23.442311" lon="-45.553101">
        <ele>702.212</ele>
        <time>2020-01-19T14:32:14Z</time>
      </trkpt>
      <trkpt lat="-23.442271" lon="-45.553076">
        <ele>704.632</ele>
        <time>2020-01-19T14:32:29Z</time>
      </trkpt>
      <trkpt lat="-23.442231" lon="-45.553053">
        <ele>704.972</ele>
        <time>2020-01-19T14:32:36Z</time>
      </trkpt>
      <trkpt lat="-23.442187" lon="-45.553031">
        <ele>704.313</ele>
        <time>2020-01-19T14:32:43Z</time>
      </trkpt>
      <trkpt lat="-23.442148" lon="-45.552992">
        <ele>704.814</ele>
        <time>2020-01-19T14:32:50Z</time>
      </trkpt>
      <trkpt lat="-23.442109" lon="-45.552968">
        <ele>703.708</ele>
        <time>2020-01-19T14:32:57Z</time>
      </trkpt>
      <trkpt lat="-23.442064" lon="-45.552992">
        <ele>702.631</ele>
        <time>2020-01-19T14:33:04Z</time>
      </trkpt>
      <trkpt lat="-23.442024" lon="-45.553026">
        <ele>702.122</ele>
        <time>2020-01-19T14:33:08Z</time>
      </trkpt>
      <trkpt lat="-23.441993" lon="-45.553067">
        <ele>702.984</ele>
        <time>2020-01-19T14:33:13Z</time>
      </trkpt>
      <trkpt lat="-23.441966" lon="-45.553107">
        <ele>703.138</ele>
        <time>2020-01-19T14:33:17Z</time>
      </trkpt>
      <trkpt lat="-23.441938" lon="-45.553150">
        <ele>704.134</ele>
        <time>2020-01-19T14:33:22Z</time>
      </trkpt>
      <trkpt lat="-23.441902" lon="-45.553196">
        <ele>705.188</ele>
        <time>2020-01-19T14:33:27Z</time>
      </trkpt>
      <trkpt lat="-23.441868" lon="-45.553230">
        <ele>707.041</ele>
        <time>2020-01-19T14:33:31Z</time>
      </trkpt>
      <trkpt lat="-23.441829" lon="-45.553260">
        <ele>708.021</ele>
        <time>2020-01-19T14:33:35Z</time>
      </trkpt>
      <trkpt lat="-23.441790" lon="-45.553289">
        <ele>709.998</ele>
        <time>2020-01-19T14:33:39Z</time>
      </trkpt>
      <trkpt lat="-23.441752" lon="-45.553321">
        <ele>710.715</ele>
        <time>2020-01-19T14:33:44Z</time>
      </trkpt>
      <trkpt lat="-23.441715" lon="-45.553349">
        <ele>712.326</ele>
        <time>2020-01-19T14:33:48Z</time>
      </trkpt>
      <trkpt lat="-23.441670" lon="-45.553369">
        <ele>713.008</ele>
        <time>2020-01-19T14:33:54Z</time>
      </trkpt>
      <trkpt lat="-23.441624" lon="-45.553379">
        <ele>713.963</ele>
        <time>2020-01-19T14:33:59Z</time>
      </trkpt>
      <trkpt lat="-23.441578" lon="-45.553376">
        <ele>713.934</ele>
        <time>2020-01-19T14:34:07Z</time>
      </trkpt>
      <trkpt lat="-23.441535" lon="-45.553360">
        <ele>711.536</ele>
        <time>2020-01-19T14:34:13Z</time>
      </trkpt>
      <trkpt lat="-23.441487" lon="-45.553356">
        <ele>711.650</ele>
        <time>2020-01-19T14:34:24Z</time>
      </trkpt>
      <trkpt lat="-23.441440" lon="-45.553368">
        <ele>712.846</ele>
        <time>2020-01-19T14:34:28Z</time>
      </trkpt>
      <trkpt lat="-23.441395" lon="-45.553374">
        <ele>713.780</ele>
        <time>2020-01-19T14:34:31Z</time>
      </trkpt>
      <trkpt lat="-23.441349" lon="-45.553377">
        <ele>714.473</ele>
        <time>2020-01-19T14:34:35Z</time>
      </trkpt>
      <trkpt lat="-23.441298" lon="-45.553378">
        <ele>716.333</ele>
        <time>2020-01-19T14:34:39Z</time>
      </trkpt>
      <trkpt lat="-23.441242" lon="-45.553380">
        <ele>718.242</ele>
        <time>2020-01-19T14:34:41Z</time>
      </trkpt>
      <trkpt lat="-23.441193" lon="-45.553376">
        <ele>719.522</ele>
        <time>2020-01-19T14:34:42Z</time>
      </trkpt>
      <trkpt lat="-23.441140" lon="-45.553372">
        <ele>720.714</ele>
        <time>2020-01-19T14:34:44Z</time>
      </trkpt>
      <trkpt lat="-23.441076" lon="-45.553374">
        <ele>721.908</ele>
        <time>2020-01-19T14:34:46Z</time>
      </trkpt>
      <trkpt lat="-23.441030" lon="-45.553376">
        <ele>723.058</ele>
        <time>2020-01-19T14:34:47Z</time>
      </trkpt>
      <trkpt lat="-23.440984" lon="-45.553374">
        <ele>724.919</ele>
        <time>2020-01-19T14:34:50Z</time>
      </trkpt>
      <trkpt lat="-23.440938" lon="-45.553374">
        <ele>725.271</ele>
        <time>2020-01-19T14:34:52Z</time>
      </trkpt>
      <trkpt lat="-23.440890" lon="-45.553378">
        <ele>725.495</ele>
        <time>2020-01-19T14:34:54Z</time>
      </trkpt>
      <trkpt lat="-23.440837" lon="-45.553374">
        <ele>724.791</ele>
        <time>2020-01-19T14:34:57Z</time>
      </trkpt>
      <trkpt lat="-23.440791" lon="-45.553362">
        <ele>724.965</ele>
        <time>2020-01-19T14:34:59Z</time>
      </trkpt>
      <trkpt lat="-23.440738" lon="-45.553353">
        <ele>723.788</ele>
        <time>2020-01-19T14:35:01Z</time>
      </trkpt>
      <trkpt lat="-23.440673" lon="-45.553334">
        <ele>723.788</ele>
        <time>2020-01-19T14:35:04Z</time>
      </trkpt>
      <trkpt lat="-23.440626" lon="-45.553327">
        <ele>724.453</ele>
        <time>2020-01-19T14:35:05Z</time>
      </trkpt>
      <trkpt lat="-23.440579" lon="-45.553326">
        <ele>723.204</ele>
        <time>2020-01-19T14:35:07Z</time>
      </trkpt>
      <trkpt lat="-23.440532" lon="-45.553323">
        <ele>722.314</ele>
        <time>2020-01-19T14:35:09Z</time>
      </trkpt>
      <trkpt lat="-23.440483" lon="-45.553323">
        <ele>721.308</ele>
        <time>2020-01-19T14:35:11Z</time>
      </trkpt>
      <trkpt lat="-23.440422" lon="-45.553315">
        <ele>721.159</ele>
        <time>2020-01-19T14:35:13Z</time>
      </trkpt>
      <trkpt lat="-23.440373" lon="-45.553302">
        <ele>720.130</ele>
        <time>2020-01-19T14:35:16Z</time>
      </trkpt>
      <trkpt lat="-23.440330" lon="-45.553278">
        <ele>720.092</ele>
        <time>2020-01-19T14:35:18Z</time>
      </trkpt>
      <trkpt lat="-23.440294" lon="-45.553247">
        <ele>719.886</ele>
        <time>2020-01-19T14:35:21Z</time>
      </trkpt>
      <trkpt lat="-23.440261" lon="-45.553208">
        <ele>719.482</ele>
        <time>2020-01-19T14:35:23Z</time>
      </trkpt>
      <trkpt lat="-23.440227" lon="-45.553169">
        <ele>720.396</ele>
        <time>2020-01-19T14:35:26Z</time>
      </trkpt>
      <trkpt lat="-23.440191" lon="-45.553127">
        <ele>721.459</ele>
        <time>2020-01-19T14:35:28Z</time>
      </trkpt>
      <trkpt lat="-23.440153" lon="-45.553098">
        <ele>723.049</ele>
        <time>2020-01-19T14:35:31Z</time>
      </trkpt>
      <trkpt lat="-23.440088" lon="-45.553056">
        <ele>724.045</ele>
        <time>2020-01-19T14:35:33Z</time>
      </trkpt>
      <trkpt lat="-23.439985" lon="-45.552982">
        <ele>725.147</ele>
        <time>2020-01-19T14:35:35Z</time>
      </trkpt>
      <trkpt lat="-23.439920" lon="-45.552954">
        <ele>726.111</ele>
        <time>2020-01-19T14:35:36Z</time>
      </trkpt>
      <trkpt lat="-23.439861" lon="-45.552948">
        <ele>727.108</ele>
        <time>2020-01-19T14:35:37Z</time>
      </trkpt>
      <trkpt lat="-23.439786" lon="-45.552964">
        <ele>727.998</ele>
        <time>2020-01-19T14:35:38Z</time>
      </trkpt>
      <trkpt lat="-23.439724" lon="-45.552993">
        <ele>727.889</ele>
        <time>2020-01-19T14:35:40Z</time>
      </trkpt>
      <trkpt lat="-23.439604" lon="-45.553075">
        <ele>727.561</ele>
        <time>2020-01-19T14:35:42Z</time>
      </trkpt>
      <trkpt lat="-23.439588" lon="-45.553026">
        <ele>724.985</ele>
        <time>2020-01-19T14:35:46Z</time>
      </trkpt>
      <trkpt lat="-23.439499" lon="-45.553045">
        <ele>720.941</ele>
        <time>2020-01-19T14:35:48Z</time>
      </trkpt>
      <trkpt lat="-23.439427" lon="-45.553053">
        <ele>718.445</ele>
        <time>2020-01-19T14:35:49Z</time>
      </trkpt>
      <trkpt lat="-23.439374" lon="-45.553050">
        <ele>716.958</ele>
        <time>2020-01-19T14:35:50Z</time>
      </trkpt>
      <trkpt lat="-23.439272" lon="-45.553030">
        <ele>716.018</ele>
        <time>2020-01-19T14:35:51Z</time>
      </trkpt>
      <trkpt lat="-23.439203" lon="-45.553006">
        <ele>715.965</ele>
        <time>2020-01-19T14:35:53Z</time>
      </trkpt>
      <trkpt lat="-23.439156" lon="-45.552985">
        <ele>714.968</ele>
        <time>2020-01-19T14:35:54Z</time>
      </trkpt>
      <trkpt lat="-23.439116" lon="-45.552961">
        <ele>714.314</ele>
        <time>2020-01-19T14:35:55Z</time>
      </trkpt>
      <trkpt lat="-23.439055" lon="-45.552923">
        <ele>710.808</ele>
        <time>2020-01-19T14:35:57Z</time>
      </trkpt>
      <trkpt lat="-23.439013" lon="-45.552899">
        <ele>709.140</ele>
        <time>2020-01-19T14:35:58Z</time>
      </trkpt>
      <trkpt lat="-23.438967" lon="-45.552877">
        <ele>708.281</ele>
        <time>2020-01-19T14:35:59Z</time>
      </trkpt>
      <trkpt lat="-23.438875" lon="-45.552846">
        <ele>708.713</ele>
        <time>2020-01-19T14:36:01Z</time>
      </trkpt>
      <trkpt lat="-23.438815" lon="-45.552829">
        <ele>710.357</ele>
        <time>2020-01-19T14:36:02Z</time>
      </trkpt>
      <trkpt lat="-23.438733" lon="-45.552793">
        <ele>711.493</ele>
        <time>2020-01-19T14:36:05Z</time>
      </trkpt>
      <trkpt lat="-23.438685" lon="-45.552760">
        <ele>713.387</ele>
        <time>2020-01-19T14:36:06Z</time>
      </trkpt>
      <trkpt lat="-23.438639" lon="-45.552731">
        <ele>714.580</ele>
        <time>2020-01-19T14:36:08Z</time>
      </trkpt>
      <trkpt lat="-23.438595" lon="-45.552704">
        <ele>714.790</ele>
        <time>2020-01-19T14:36:09Z</time>
      </trkpt>
      <trkpt lat="-23.438542" lon="-45.552680">
        <ele>715.738</ele>
        <time>2020-01-19T14:36:12Z</time>
      </trkpt>
      <trkpt lat="-23.438489" lon="-45.552667">
        <ele>716.470</ele>
        <time>2020-01-19T14:36:14Z</time>
      </trkpt>
      <trkpt lat="-23.438431" lon="-45.552659">
        <ele>716.517</ele>
        <time>2020-01-19T14:36:17Z</time>
      </trkpt>
      <trkpt lat="-23.438383" lon="-45.552659">
        <ele>716.208</ele>
        <time>2020-01-19T14:36:18Z</time>
      </trkpt>
      <trkpt lat="-23.438332" lon="-45.552660">
        <ele>715.847</ele>
        <time>2020-01-19T14:36:21Z</time>
      </trkpt>
      <trkpt lat="-23.438283" lon="-45.552662">
        <ele>717.658</ele>
        <time>2020-01-19T14:36:24Z</time>
      </trkpt>
      <trkpt lat="-23.438237" lon="-45.552646">
        <ele>718.870</ele>
        <time>2020-01-19T14:36:28Z</time>
      </trkpt>
      <trkpt lat="-23.438196" lon="-45.552622">
        <ele>718.334</ele>
        <time>2020-01-19T14:36:31Z</time>
      </trkpt>
      <trkpt lat="-23.438144" lon="-45.552586">
        <ele>716.880</ele>
        <time>2020-01-19T14:36:33Z</time>
      </trkpt>
      <trkpt lat="-23.438102" lon="-45.552549">
        <ele>714.764</ele>
        <time>2020-01-19T14:36:34Z</time>
      </trkpt>
      <trkpt lat="-23.438038" lon="-45.552503">
        <ele>714.357</ele>
        <time>2020-01-19T14:36:36Z</time>
      </trkpt>
      <trkpt lat="-23.437999" lon="-45.552478">
        <ele>714.117</ele>
        <time>2020-01-19T14:36:37Z</time>
      </trkpt>
      <trkpt lat="-23.437927" lon="-45.552428">
        <ele>714.191</ele>
        <time>2020-01-19T14:36:39Z</time>
      </trkpt>
      <trkpt lat="-23.437871" lon="-45.552396">
        <ele>715.181</ele>
        <time>2020-01-19T14:36:40Z</time>
      </trkpt>
      <trkpt lat="-23.437871" lon="-45.552396">
        <ele>715.119</ele>
        <time>2020-01-19T14:36:40Z</time>
      </trkpt>
      <trkpt lat="-23.437784" lon="-45.552344">
        <ele>714.708</ele>
        <time>2020-01-19T14:36:42Z</time>
      </trkpt>
      <trkpt lat="-23.437729" lon="-45.552303">
        <ele>714.223</ele>
        <time>2020-01-19T14:36:43Z</time>
      </trkpt>
      <trkpt lat="-23.437695" lon="-45.552269">
        <ele>712.764</ele>
        <time>2020-01-19T14:36:45Z</time>
      </trkpt>
      <trkpt lat="-23.437655" lon="-45.552218">
        <ele>711.246</ele>
        <time>2020-01-19T14:36:47Z</time>
      </trkpt>
      <trkpt lat="-23.437612" lon="-45.552151">
        <ele>710.410</ele>
        <time>2020-01-19T14:36:49Z</time>
      </trkpt>
      <trkpt lat="-23.437576" lon="-45.552095">
        <ele>710.556</ele>
        <time>2020-01-19T14:36:50Z</time>
      </trkpt>
      <trkpt lat="-23.437535" lon="-45.552046">
        <ele>711.280</ele>
        <time>2020-01-19T14:36:53Z</time>
      </trkpt>
      <trkpt lat="-23.437486" lon="-45.552022">
        <ele>713.523</ele>
        <time>2020-01-19T14:36:58Z</time>
      </trkpt>
      <trkpt lat="-23.437441" lon="-45.551997">
        <ele>714.683</ele>
        <time>2020-01-19T14:36:59Z</time>
      </trkpt>
      <trkpt lat="-23.437403" lon="-45.551969">
        <ele>715.768</ele>
        <time>2020-01-19T14:37:01Z</time>
      </trkpt>
      <trkpt lat="-23.437349" lon="-45.551945">
        <ele>716.842</ele>
        <time>2020-01-19T14:37:03Z</time>
      </trkpt>
      <trkpt lat="-23.437294" lon="-45.551936">
        <ele>718.226</ele>
        <time>2020-01-19T14:37:04Z</time>
      </trkpt>
      <trkpt lat="-23.437235" lon="-45.551947">
        <ele>719.508</ele>
        <time>2020-01-19T14:37:06Z</time>
      </trkpt>
      <trkpt lat="-23.437184" lon="-45.551986">
        <ele>720.370</ele>
        <time>2020-01-19T14:37:08Z</time>
      </trkpt>
      <trkpt lat="-23.437139" lon="-45.552029">
        <ele>721.241</ele>
        <time>2020-01-19T14:37:09Z</time>
      </trkpt>
      <trkpt lat="-23.437094" lon="-45.552071">
        <ele>720.913</ele>
        <time>2020-01-19T14:37:11Z</time>
      </trkpt>
      <trkpt lat="-23.437060" lon="-45.552116">
        <ele>720.657</ele>
        <time>2020-01-19T14:37:13Z</time>
      </trkpt>
      <trkpt lat="-23.437022" lon="-45.552157">
        <ele>720.143</ele>
        <time>2020-01-19T14:37:15Z</time>
      </trkpt>
      <trkpt lat="-23.436979" lon="-45.552193">
        <ele>719.997</ele>
        <time>2020-01-19T14:37:17Z</time>
      </trkpt>
      <trkpt lat="-23.436937" lon="-45.552216">
        <ele>720.690</ele>
        <time>2020-01-19T14:37:18Z</time>
      </trkpt>
      <trkpt lat="-23.436877" lon="-45.552257">
        <ele>721.710</ele>
        <time>2020-01-19T14:37:21Z</time>
      </trkpt>
      <trkpt lat="-23.436811" lon="-45.552290">
        <ele>722.882</ele>
        <time>2020-01-19T14:37:22Z</time>
      </trkpt>
      <trkpt lat="-23.436769" lon="-45.552309">
        <ele>723.643</ele>
        <time>2020-01-19T14:37:24Z</time>
      </trkpt>
      <trkpt lat="-23.436697" lon="-45.552346">
        <ele>723.817</ele>
        <time>2020-01-19T14:37:26Z</time>
      </trkpt>
      <trkpt lat="-23.436613" lon="-45.552378">
        <ele>722.708</ele>
        <time>2020-01-19T14:37:27Z</time>
      </trkpt>
      <trkpt lat="-23.436561" lon="-45.552391">
        <ele>721.982</ele>
        <time>2020-01-19T14:37:29Z</time>
      </trkpt>
      <trkpt lat="-23.436467" lon="-45.552404">
        <ele>721.943</ele>
        <time>2020-01-19T14:37:30Z</time>
      </trkpt>
      <trkpt lat="-23.436397" lon="-45.552406">
        <ele>722.415</ele>
        <time>2020-01-19T14:37:32Z</time>
      </trkpt>
      <trkpt lat="-23.436261" lon="-45.552415">
        <ele>722.459</ele>
        <time>2020-01-19T14:37:34Z</time>
      </trkpt>
      <trkpt lat="-23.436196" lon="-45.552429">
        <ele>722.155</ele>
        <time>2020-01-19T14:37:35Z</time>
      </trkpt>
      <trkpt lat="-23.436136" lon="-45.552447">
        <ele>720.999</ele>
        <time>2020-01-19T14:37:36Z</time>
      </trkpt>
      <trkpt lat="-23.436074" lon="-45.552471">
        <ele>719.692</ele>
        <time>2020-01-19T14:37:37Z</time>
      </trkpt>
      <trkpt lat="-23.436007" lon="-45.552494">
        <ele>719.472</ele>
        <time>2020-01-19T14:37:38Z</time>
      </trkpt>
      <trkpt lat="-23.435945" lon="-45.552517">
        <ele>719.363</ele>
        <time>2020-01-19T14:37:39Z</time>
      </trkpt>
      <trkpt lat="-23.435884" lon="-45.552553">
        <ele>719.444</ele>
        <time>2020-01-19T14:37:40Z</time>
      </trkpt>
      <trkpt lat="-23.435821" lon="-45.552605">
        <ele>719.218</ele>
        <time>2020-01-19T14:37:41Z</time>
      </trkpt>
      <trkpt lat="-23.435773" lon="-45.552652">
        <ele>718.308</ele>
        <time>2020-01-19T14:37:42Z</time>
      </trkpt>
      <trkpt lat="-23.435726" lon="-45.552686">
        <ele>716.840</ele>
        <time>2020-01-19T14:37:43Z</time>
      </trkpt>
      <trkpt lat="-23.435681" lon="-45.552716">
        <ele>715.721</ele>
        <time>2020-01-19T14:37:44Z</time>
      </trkpt>
      <trkpt lat="-23.435630" lon="-45.552740">
        <ele>714.743</ele>
        <time>2020-01-19T14:37:45Z</time>
      </trkpt>
      <trkpt lat="-23.435575" lon="-45.552765">
        <ele>714.257</ele>
        <time>2020-01-19T14:37:46Z</time>
      </trkpt>
      <trkpt lat="-23.435530" lon="-45.552790">
        <ele>712.713</ele>
        <time>2020-01-19T14:37:47Z</time>
      </trkpt>
      <trkpt lat="-23.435476" lon="-45.552811">
        <ele>711.617</ele>
        <time>2020-01-19T14:37:48Z</time>
      </trkpt>
      <trkpt lat="-23.435421" lon="-45.552833">
        <ele>711.090</ele>
        <time>2020-01-19T14:37:49Z</time>
      </trkpt>
      <trkpt lat="-23.435380" lon="-45.552865">
        <ele>710.870</ele>
        <time>2020-01-19T14:37:50Z</time>
      </trkpt>
      <trkpt lat="-23.435339" lon="-45.552925">
        <ele>710.559</ele>
        <time>2020-01-19T14:37:52Z</time>
      </trkpt>
      <trkpt lat="-23.435298" lon="-45.552997">
        <ele>707.403</ele>
        <time>2020-01-19T14:37:54Z</time>
      </trkpt>
      <trkpt lat="-23.435260" lon="-45.553030">
        <ele>705.123</ele>
        <time>2020-01-19T14:37:55Z</time>
      </trkpt>
      <trkpt lat="-23.435209" lon="-45.553033">
        <ele>703.008</ele>
        <time>2020-01-19T14:37:57Z</time>
      </trkpt>
      <trkpt lat="-23.435157" lon="-45.553034">
        <ele>702.639</ele>
        <time>2020-01-19T14:37:58Z</time>
      </trkpt>
      <trkpt lat="-23.435113" lon="-45.553084">
        <ele>702.570</ele>
        <time>2020-01-19T14:38:00Z</time>
      </trkpt>
      <trkpt lat="-23.435059" lon="-45.553139">
        <ele>702.722</ele>
        <time>2020-01-19T14:38:01Z</time>
      </trkpt>
      <trkpt lat="-23.435014" lon="-45.553158">
        <ele>703.296</ele>
        <time>2020-01-19T14:38:04Z</time>
      </trkpt>
      <trkpt lat="-23.434966" lon="-45.553178">
        <ele>703.212</ele>
        <time>2020-01-19T14:38:05Z</time>
      </trkpt>
      <trkpt lat="-23.434914" lon="-45.553190">
        <ele>702.436</ele>
        <time>2020-01-19T14:38:07Z</time>
      </trkpt>
      <trkpt lat="-23.434860" lon="-45.553186">
        <ele>698.449</ele>
        <time>2020-01-19T14:38:09Z</time>
      </trkpt>
      <trkpt lat="-23.434813" lon="-45.553181">
        <ele>694.469</ele>
        <time>2020-01-19T14:38:14Z</time>
      </trkpt>
      <trkpt lat="-23.434787" lon="-45.553228">
        <ele>698.492</ele>
        <time>2020-01-19T14:39:27Z</time>
      </trkpt>
      <trkpt lat="-23.434731" lon="-45.553222">
        <ele>702.473</ele>
        <time>2020-01-19T14:39:29Z</time>
      </trkpt>
      <trkpt lat="-23.434679" lon="-45.553221">
        <ele>705.220</ele>
        <time>2020-01-19T14:39:32Z</time>
      </trkpt>
      <trkpt lat="-23.434618" lon="-45.553210">
        <ele>706.808</ele>
        <time>2020-01-19T14:39:35Z</time>
      </trkpt>
      <trkpt lat="-23.434570" lon="-45.553198">
        <ele>707.273</ele>
        <time>2020-01-19T14:39:37Z</time>
      </trkpt>
      <trkpt lat="-23.434514" lon="-45.553187">
        <ele>707.624</ele>
        <time>2020-01-19T14:39:38Z</time>
      </trkpt>
      <trkpt lat="-23.434469" lon="-45.553172">
        <ele>707.926</ele>
        <time>2020-01-19T14:39:40Z</time>
      </trkpt>
      <trkpt lat="-23.434417" lon="-45.553151">
        <ele>708.290</ele>
        <time>2020-01-19T14:39:42Z</time>
      </trkpt>
      <trkpt lat="-23.434368" lon="-45.553139">
        <ele>708.256</ele>
        <time>2020-01-19T14:39:44Z</time>
      </trkpt>
      <trkpt lat="-23.434305" lon="-45.553119">
        <ele>709.050</ele>
        <time>2020-01-19T14:39:45Z</time>
      </trkpt>
      <trkpt lat="-23.434258" lon="-45.553100">
        <ele>708.913</ele>
        <time>2020-01-19T14:39:47Z</time>
      </trkpt>
      <trkpt lat="-23.434208" lon="-45.553072">
        <ele>709.053</ele>
        <time>2020-01-19T14:39:49Z</time>
      </trkpt>
      <trkpt lat="-23.434163" lon="-45.553057">
        <ele>709.438</ele>
        <time>2020-01-19T14:39:51Z</time>
      </trkpt>
      <trkpt lat="-23.434109" lon="-45.553027">
        <ele>710.170</ele>
        <time>2020-01-19T14:39:53Z</time>
      </trkpt>
      <trkpt lat="-23.434057" lon="-45.552990">
        <ele>711.117</ele>
        <time>2020-01-19T14:39:55Z</time>
      </trkpt>
      <trkpt lat="-23.433998" lon="-45.552951">
        <ele>711.508</ele>
        <time>2020-01-19T14:39:57Z</time>
      </trkpt>
      <trkpt lat="-23.433953" lon="-45.552915">
        <ele>710.677</ele>
        <time>2020-01-19T14:39:59Z</time>
      </trkpt>
      <trkpt lat="-23.433913" lon="-45.552868">
        <ele>709.858</ele>
        <time>2020-01-19T14:40:00Z</time>
      </trkpt>
      <trkpt lat="-23.433884" lon="-45.552821">
        <ele>709.130</ele>
        <time>2020-01-19T14:40:03Z</time>
      </trkpt>
      <trkpt lat="-23.433868" lon="-45.552768">
        <ele>708.774</ele>
        <time>2020-01-19T14:40:04Z</time>
      </trkpt>
      <trkpt lat="-23.433850" lon="-45.552720">
        <ele>708.240</ele>
        <time>2020-01-19T14:40:07Z</time>
      </trkpt>
      <trkpt lat="-23.433851" lon="-45.552668">
        <ele>708.674</ele>
        <time>2020-01-19T14:40:11Z</time>
      </trkpt>
      <trkpt lat="-23.433876" lon="-45.552619">
        <ele>708.757</ele>
        <time>2020-01-19T14:40:13Z</time>
      </trkpt>
      <trkpt lat="-23.433913" lon="-45.552580">
        <ele>709.137</ele>
        <time>2020-01-19T14:40:16Z</time>
      </trkpt>
      <trkpt lat="-23.433956" lon="-45.552537">
        <ele>710.296</ele>
        <time>2020-01-19T14:40:18Z</time>
      </trkpt>
      <trkpt lat="-23.433986" lon="-45.552490">
        <ele>710.231</ele>
        <time>2020-01-19T14:40:19Z</time>
      </trkpt>
      <trkpt lat="-23.434035" lon="-45.552443">
        <ele>709.424</ele>
        <time>2020-01-19T14:40:20Z</time>
      </trkpt>
      <trkpt lat="-23.434084" lon="-45.552419">
        <ele>707.908</ele>
        <time>2020-01-19T14:40:22Z</time>
      </trkpt>
      <trkpt lat="-23.434140" lon="-45.552400">
        <ele>705.423</ele>
        <time>2020-01-19T14:40:23Z</time>
      </trkpt>
      <trkpt lat="-23.434189" lon="-45.552387">
        <ele>705.274</ele>
        <time>2020-01-19T14:40:25Z</time>
      </trkpt>
      <trkpt lat="-23.434236" lon="-45.552375">
        <ele>705.696</ele>
        <time>2020-01-19T14:40:27Z</time>
      </trkpt>
      <trkpt lat="-23.434287" lon="-45.552356">
        <ele>705.130</ele>
        <time>2020-01-19T14:40:28Z</time>
      </trkpt>
      <trkpt lat="-23.434338" lon="-45.552334">
        <ele>705.186</ele>
        <time>2020-01-19T14:40:30Z</time>
      </trkpt>
      <trkpt lat="-23.434386" lon="-45.552308">
        <ele>705.650</ele>
        <time>2020-01-19T14:40:31Z</time>
      </trkpt>
      <trkpt lat="-23.434431" lon="-45.552263">
        <ele>706.273</ele>
        <time>2020-01-19T14:40:33Z</time>
      </trkpt>
      <trkpt lat="-23.434469" lon="-45.552202">
        <ele>706.463</ele>
        <time>2020-01-19T14:40:34Z</time>
      </trkpt>
      <trkpt lat="-23.434496" lon="-45.552155">
        <ele>706.471</ele>
        <time>2020-01-19T14:40:36Z</time>
      </trkpt>
      <trkpt lat="-23.434523" lon="-45.552099">
        <ele>705.941</ele>
        <time>2020-01-19T14:40:39Z</time>
      </trkpt>
      <trkpt lat="-23.434561" lon="-45.552058">
        <ele>705.315</ele>
        <time>2020-01-19T14:40:41Z</time>
      </trkpt>
      <trkpt lat="-23.434648" lon="-45.551994">
        <ele>704.708</ele>
        <time>2020-01-19T14:40:42Z</time>
      </trkpt>
      <trkpt lat="-23.434696" lon="-45.551963">
        <ele>704.491</ele>
        <time>2020-01-19T14:40:44Z</time>
      </trkpt>
      <trkpt lat="-23.434740" lon="-45.551934">
        <ele>704.462</ele>
        <time>2020-01-19T14:40:46Z</time>
      </trkpt>
      <trkpt lat="-23.434777" lon="-45.551906">
        <ele>703.964</ele>
        <time>2020-01-19T14:40:48Z</time>
      </trkpt>
      <trkpt lat="-23.434817" lon="-45.551877">
        <ele>702.898</ele>
        <time>2020-01-19T14:40:51Z</time>
      </trkpt>
      <trkpt lat="-23.434859" lon="-45.551848">
        <ele>702.544</ele>
        <time>2020-01-19T14:40:53Z</time>
      </trkpt>
      <trkpt lat="-23.434908" lon="-45.551802">
        <ele>704.498</ele>
        <time>2020-01-19T14:40:57Z</time>
      </trkpt>
      <trkpt lat="-23.434908" lon="-45.551802">
        <ele>704.461</ele>
        <time>2020-01-19T14:40:57Z</time>
      </trkpt>
      <trkpt lat="-23.434908" lon="-45.551802">
        <ele>704.421</ele>
        <time>2020-01-19T14:40:57Z</time>
      </trkpt>
      <trkpt lat="-23.434937" lon="-45.551764">
        <ele>706.248</ele>
        <time>2020-01-19T14:40:59Z</time>
      </trkpt>
      <trkpt lat="-23.434968" lon="-45.551719">
        <ele>707.661</ele>
        <time>2020-01-19T14:41:01Z</time>
      </trkpt>
      <trkpt lat="-23.435003" lon="-45.551668">
        <ele>708.617</ele>
        <time>2020-01-19T14:41:03Z</time>
      </trkpt>
      <trkpt lat="-23.435032" lon="-45.551624">
        <ele>709.008</ele>
        <time>2020-01-19T14:41:06Z</time>
      </trkpt>
      <trkpt lat="-23.435060" lon="-45.551581">
        <ele>709.398</ele>
        <time>2020-01-19T14:41:07Z</time>
      </trkpt>
      <trkpt lat="-23.435089" lon="-45.551533">
        <ele>709.789</ele>
        <time>2020-01-19T14:41:10Z</time>
      </trkpt>
      <trkpt lat="-23.435186" lon="-45.551381">
        <ele>709.951</ele>
        <time>2020-01-19T14:41:11Z</time>
      </trkpt>
      <trkpt lat="-23.435235" lon="-45.551301">
        <ele>710.165</ele>
        <time>2020-01-19T14:41:12Z</time>
      </trkpt>
      <trkpt lat="-23.435276" lon="-45.551216">
        <ele>710.181</ele>
        <time>2020-01-19T14:41:14Z</time>
      </trkpt>
      <trkpt lat="-23.435310" lon="-45.551128">
        <ele>709.415</ele>
        <time>2020-01-19T14:41:15Z</time>
      </trkpt>
      <trkpt lat="-23.435325" lon="-45.551082">
        <ele>713.418</ele>
        <time>2020-01-19T14:41:16Z</time>
      </trkpt>
      <trkpt lat="-23.435349" lon="-45.551024">
        <ele>714.888</ele>
        <time>2020-01-19T14:41:18Z</time>
      </trkpt>
      <trkpt lat="-23.435386" lon="-45.550967">
        <ele>715.154</ele>
        <time>2020-01-19T14:41:20Z</time>
      </trkpt>
      <trkpt lat="-23.435428" lon="-45.550931">
        <ele>715.056</ele>
        <time>2020-01-19T14:41:22Z</time>
      </trkpt>
      <trkpt lat="-23.435470" lon="-45.550913">
        <ele>715.611</ele>
        <time>2020-01-19T14:41:25Z</time>
      </trkpt>
      <trkpt lat="-23.435527" lon="-45.550885">
        <ele>715.308</ele>
        <time>2020-01-19T14:41:26Z</time>
      </trkpt>
      <trkpt lat="-23.435570" lon="-45.550850">
        <ele>714.789</ele>
        <time>2020-01-19T14:41:29Z</time>
      </trkpt>
      <trkpt lat="-23.435597" lon="-45.550803">
        <ele>713.610</ele>
        <time>2020-01-19T14:41:31Z</time>
      </trkpt>
      <trkpt lat="-23.435597" lon="-45.550733">
        <ele>714.242</ele>
        <time>2020-01-19T14:41:34Z</time>
      </trkpt>
      <trkpt lat="-23.435587" lon="-45.550672">
        <ele>716.086</ele>
        <time>2020-01-19T14:41:37Z</time>
      </trkpt>
      <trkpt lat="-23.435566" lon="-45.550541">
        <ele>716.952</ele>
        <time>2020-01-19T14:41:39Z</time>
      </trkpt>
      <trkpt lat="-23.435539" lon="-45.550434">
        <ele>716.936</ele>
        <time>2020-01-19T14:41:40Z</time>
      </trkpt>
      <trkpt lat="-23.435544" lon="-45.550505">
        <ele>715.589</ele>
        <time>2020-01-19T14:41:42Z</time>
      </trkpt>
      <trkpt lat="-23.435506" lon="-45.550469">
        <ele>715.269</ele>
        <time>2020-01-19T14:41:47Z</time>
      </trkpt>
      <trkpt lat="-23.435480" lon="-45.550404">
        <ele>715.041</ele>
        <time>2020-01-19T14:41:48Z</time>
      </trkpt>
      <trkpt lat="-23.435433" lon="-45.550266">
        <ele>715.881</ele>
        <time>2020-01-19T14:41:50Z</time>
      </trkpt>
      <trkpt lat="-23.435406" lon="-45.550184">
        <ele>714.909</ele>
        <time>2020-01-19T14:41:52Z</time>
      </trkpt>
      <trkpt lat="-23.435358" lon="-45.550035">
        <ele>713.908</ele>
        <time>2020-01-19T14:41:53Z</time>
      </trkpt>
      <trkpt lat="-23.435343" lon="-45.549988">
        <ele>713.178</ele>
        <time>2020-01-19T14:41:55Z</time>
      </trkpt>
      <trkpt lat="-23.435325" lon="-45.549935">
        <ele>712.669</ele>
        <time>2020-01-19T14:41:56Z</time>
      </trkpt>
      <trkpt lat="-23.435298" lon="-45.549867">
        <ele>712.451</ele>
        <time>2020-01-19T14:41:58Z</time>
      </trkpt>
      <trkpt lat="-23.435280" lon="-45.549806">
        <ele>712.665</ele>
        <time>2020-01-19T14:42:00Z</time>
      </trkpt>
      <trkpt lat="-23.435272" lon="-45.549755">
        <ele>712.591</ele>
        <time>2020-01-19T14:42:02Z</time>
      </trkpt>
      <trkpt lat="-23.435246" lon="-45.549714">
        <ele>711.575</ele>
        <time>2020-01-19T14:42:05Z</time>
      </trkpt>
      <trkpt lat="-23.435209" lon="-45.549679">
        <ele>710.848</ele>
        <time>2020-01-19T14:42:09Z</time>
      </trkpt>
      <trkpt lat="-23.435162" lon="-45.549646">
        <ele>710.268</ele>
        <time>2020-01-19T14:42:12Z</time>
      </trkpt>
      <trkpt lat="-23.435118" lon="-45.549611">
        <ele>710.869</ele>
        <time>2020-01-19T14:42:15Z</time>
      </trkpt>
      <trkpt lat="-23.435079" lon="-45.549580">
        <ele>711.804</ele>
        <time>2020-01-19T14:42:17Z</time>
      </trkpt>
      <trkpt lat="-23.435016" lon="-45.549516">
        <ele>713.124</ele>
        <time>2020-01-19T14:42:19Z</time>
      </trkpt>
      <trkpt lat="-23.434952" lon="-45.549448">
        <ele>713.908</ele>
        <time>2020-01-19T14:42:20Z</time>
      </trkpt>
      <trkpt lat="-23.434885" lon="-45.549386">
        <ele>714.120</ele>
        <time>2020-01-19T14:42:21Z</time>
      </trkpt>
      <trkpt lat="-23.434811" lon="-45.549317">
        <ele>715.131</ele>
        <time>2020-01-19T14:42:22Z</time>
      </trkpt>
      <trkpt lat="-23.434754" lon="-45.549260">
        <ele>715.553</ele>
        <time>2020-01-19T14:42:24Z</time>
      </trkpt>
      <trkpt lat="-23.434699" lon="-45.549222">
        <ele>716.017</ele>
        <time>2020-01-19T14:42:25Z</time>
      </trkpt>
      <trkpt lat="-23.434646" lon="-45.549193">
        <ele>715.943</ele>
        <time>2020-01-19T14:42:27Z</time>
      </trkpt>
      <trkpt lat="-23.434597" lon="-45.549156">
        <ele>716.017</ele>
        <time>2020-01-19T14:42:29Z</time>
      </trkpt>
      <trkpt lat="-23.434558" lon="-45.549127">
        <ele>715.790</ele>
        <time>2020-01-19T14:42:32Z</time>
      </trkpt>
      <trkpt lat="-23.434519" lon="-45.549093">
        <ele>716.290</ele>
        <time>2020-01-19T14:42:38Z</time>
      </trkpt>
      <trkpt lat="-23.434481" lon="-45.549064">
        <ele>716.823</ele>
        <time>2020-01-19T14:42:43Z</time>
      </trkpt>
      <trkpt lat="-23.434437" lon="-45.549021">
        <ele>717.983</ele>
        <time>2020-01-19T14:42:46Z</time>
      </trkpt>
      <trkpt lat="-23.434401" lon="-45.548983">
        <ele>718.511</ele>
        <time>2020-01-19T14:42:50Z</time>
      </trkpt>
      <trkpt lat="-23.434373" lon="-45.548943">
        <ele>718.808</ele>
        <time>2020-01-19T14:42:54Z</time>
      </trkpt>
      <trkpt lat="-23.434352" lon="-45.548897">
        <ele>719.556</ele>
        <time>2020-01-19T14:42:58Z</time>
      </trkpt>
      <trkpt lat="-23.434330" lon="-45.548852">
        <ele>720.287</ele>
        <time>2020-01-19T14:43:02Z</time>
      </trkpt>
      <trkpt lat="-23.434350" lon="-45.548803">
        <ele>720.489</ele>
        <time>2020-01-19T14:43:07Z</time>
      </trkpt>
      <trkpt lat="-23.434373" lon="-45.548759">
        <ele>720.373</ele>
        <time>2020-01-19T14:43:12Z</time>
      </trkpt>
      <trkpt lat="-23.434385" lon="-45.548708">
        <ele>719.879</ele>
        <time>2020-01-19T14:43:15Z</time>
      </trkpt>
      <trkpt lat="-23.434383" lon="-45.548659">
        <ele>720.423</ele>
        <time>2020-01-19T14:43:18Z</time>
      </trkpt>
      <trkpt lat="-23.434368" lon="-45.548601">
        <ele>720.866</ele>
        <time>2020-01-19T14:43:21Z</time>
      </trkpt>
      <trkpt lat="-23.434337" lon="-45.548563">
        <ele>721.946</ele>
        <time>2020-01-19T14:43:23Z</time>
      </trkpt>
      <trkpt lat="-23.434307" lon="-45.548525">
        <ele>724.159</ele>
        <time>2020-01-19T14:43:25Z</time>
      </trkpt>
      <trkpt lat="-23.434268" lon="-45.548488">
        <ele>725.303</ele>
        <time>2020-01-19T14:43:29Z</time>
      </trkpt>
      <trkpt lat="-23.434229" lon="-45.548450">
        <ele>725.523</ele>
        <time>2020-01-19T14:43:32Z</time>
      </trkpt>
      <trkpt lat="-23.434171" lon="-45.548382">
        <ele>725.608</ele>
        <time>2020-01-19T14:43:33Z</time>
      </trkpt>
      <trkpt lat="-23.434115" lon="-45.548316">
        <ele>725.399</ele>
        <time>2020-01-19T14:43:34Z</time>
      </trkpt>
      <trkpt lat="-23.434055" lon="-45.548260">
        <ele>725.180</ele>
        <time>2020-01-19T14:43:36Z</time>
      </trkpt>
      <trkpt lat="-23.434015" lon="-45.548213">
        <ele>724.752</ele>
        <time>2020-01-19T14:43:37Z</time>
      </trkpt>
      <trkpt lat="-23.433975" lon="-45.548178">
        <ele>724.936</ele>
        <time>2020-01-19T14:43:41Z</time>
      </trkpt>
      <trkpt lat="-23.433933" lon="-45.548155">
        <ele>723.962</ele>
        <time>2020-01-19T14:43:45Z</time>
      </trkpt>
      <trkpt lat="-23.433892" lon="-45.548130">
        <ele>723.456</ele>
        <time>2020-01-19T14:43:48Z</time>
      </trkpt>
      <trkpt lat="-23.433846" lon="-45.548112">
        <ele>719.499</ele>
        <time>2020-01-19T14:43:53Z</time>
      </trkpt>
      <trkpt lat="-23.433797" lon="-45.548090">
        <ele>715.449</ele>
        <time>2020-01-19T14:43:58Z</time>
      </trkpt>
      <trkpt lat="-23.433751" lon="-45.548097">
        <ele>711.578</ele>
        <time>2020-01-19T14:44:00Z</time>
      </trkpt>
      <trkpt lat="-23.433732" lon="-45.548144">
        <ele>710.733</ele>
        <time>2020-01-19T14:44:03Z</time>
      </trkpt>
      <trkpt lat="-23.433742" lon="-45.548194">
        <ele>713.426</ele>
        <time>2020-01-19T14:44:07Z</time>
      </trkpt>
      <trkpt lat="-23.433761" lon="-45.548243">
        <ele>716.108</ele>
        <time>2020-01-19T14:44:10Z</time>
      </trkpt>
      <trkpt lat="-23.433789" lon="-45.548296">
        <ele>717.851</ele>
        <time>2020-01-19T14:44:13Z</time>
      </trkpt>
      <trkpt lat="-23.433799" lon="-45.548359">
        <ele>718.512</ele>
        <time>2020-01-19T14:44:15Z</time>
      </trkpt>
      <trkpt lat="-23.433782" lon="-45.548427">
        <ele>718.694</ele>
        <time>2020-01-19T14:44:16Z</time>
      </trkpt>
      <trkpt lat="-23.433750" lon="-45.548487">
        <ele>718.438</ele>
        <time>2020-01-19T14:44:18Z</time>
      </trkpt>
      <trkpt lat="-23.433714" lon="-45.548549">
        <ele>717.824</ele>
        <time>2020-01-19T14:44:20Z</time>
      </trkpt>
      <trkpt lat="-23.433679" lon="-45.548605">
        <ele>716.538</ele>
        <time>2020-01-19T14:44:21Z</time>
      </trkpt>
      <trkpt lat="-23.433622" lon="-45.548698">
        <ele>715.581</ele>
        <time>2020-01-19T14:44:22Z</time>
      </trkpt>
      <trkpt lat="-23.433582" lon="-45.548770">
        <ele>714.911</ele>
        <time>2020-01-19T14:44:23Z</time>
      </trkpt>
      <trkpt lat="-23.433540" lon="-45.548833">
        <ele>713.417</ele>
        <time>2020-01-19T14:44:24Z</time>
      </trkpt>
      <trkpt lat="-23.433503" lon="-45.548895">
        <ele>713.087</ele>
        <time>2020-01-19T14:44:25Z</time>
      </trkpt>
      <trkpt lat="-23.433470" lon="-45.548956">
        <ele>713.015</ele>
        <time>2020-01-19T14:44:26Z</time>
      </trkpt>
      <trkpt lat="-23.433431" lon="-45.549010">
        <ele>712.408</ele>
        <time>2020-01-19T14:44:27Z</time>
      </trkpt>
      <trkpt lat="-23.433389" lon="-45.549052">
        <ele>711.765</ele>
        <time>2020-01-19T14:44:28Z</time>
      </trkpt>
      <trkpt lat="-23.433347" lon="-45.549090">
        <ele>711.166</ele>
        <time>2020-01-19T14:44:29Z</time>
      </trkpt>
      <trkpt lat="-23.433296" lon="-45.549141">
        <ele>710.888</ele>
        <time>2020-01-19T14:44:30Z</time>
      </trkpt>
      <trkpt lat="-23.433237" lon="-45.549192">
        <ele>710.742</ele>
        <time>2020-01-19T14:44:31Z</time>
      </trkpt>
      <trkpt lat="-23.433178" lon="-45.549232">
        <ele>710.298</ele>
        <time>2020-01-19T14:44:32Z</time>
      </trkpt>
      <trkpt lat="-23.433126" lon="-45.549267">
        <ele>710.562</ele>
        <time>2020-01-19T14:44:33Z</time>
      </trkpt>
      <trkpt lat="-23.433079" lon="-45.549290">
        <ele>709.895</ele>
        <time>2020-01-19T14:44:34Z</time>
      </trkpt>
      <trkpt lat="-23.432973" lon="-45.549322">
        <ele>708.725</ele>
        <time>2020-01-19T14:44:36Z</time>
      </trkpt>
      <trkpt lat="-23.432906" lon="-45.549336">
        <ele>708.526</ele>
        <time>2020-01-19T14:44:37Z</time>
      </trkpt>
      <trkpt lat="-23.432845" lon="-45.549344">
        <ele>708.847</ele>
        <time>2020-01-19T14:44:38Z</time>
      </trkpt>
      <trkpt lat="-23.432793" lon="-45.549338">
        <ele>709.211</ele>
        <time>2020-01-19T14:44:39Z</time>
      </trkpt>
      <trkpt lat="-23.432722" lon="-45.549318">
        <ele>710.508</ele>
        <time>2020-01-19T14:44:41Z</time>
      </trkpt>
      <trkpt lat="-23.432677" lon="-45.549311">
        <ele>711.196</ele>
        <time>2020-01-19T14:44:42Z</time>
      </trkpt>
      <trkpt lat="-23.432600" lon="-45.549294">
        <ele>710.997</ele>
        <time>2020-01-19T14:44:44Z</time>
      </trkpt>
      <trkpt lat="-23.432623" lon="-45.549248">
        <ele>710.859</ele>
        <time>2020-01-19T14:44:48Z</time>
      </trkpt>
      <trkpt lat="-23.432570" lon="-45.549217">
        <ele>711.413</ele>
        <time>2020-01-19T14:44:53Z</time>
      </trkpt>
      <trkpt lat="-23.432504" lon="-45.549204">
        <ele>712.439</ele>
        <time>2020-01-19T14:44:56Z</time>
      </trkpt>
      <trkpt lat="-23.432443" lon="-45.549182">
        <ele>713.253</ele>
        <time>2020-01-19T14:44:58Z</time>
      </trkpt>
      <trkpt lat="-23.432373" lon="-45.549163">
        <ele>713.026</ele>
        <time>2020-01-19T14:44:59Z</time>
      </trkpt>
      <trkpt lat="-23.432319" lon="-45.549158">
        <ele>713.036</ele>
        <time>2020-01-19T14:45:02Z</time>
      </trkpt>
      <trkpt lat="-23.432271" lon="-45.549171">
        <ele>716.068</ele>
        <time>2020-01-19T14:45:05Z</time>
      </trkpt>
      <trkpt lat="-23.432224" lon="-45.549198">
        <ele>716.842</ele>
        <time>2020-01-19T14:45:07Z</time>
      </trkpt>
      <trkpt lat="-23.432182" lon="-45.549239">
        <ele>715.926</ele>
        <time>2020-01-19T14:45:10Z</time>
      </trkpt>
      <trkpt lat="-23.432136" lon="-45.549294">
        <ele>715.108</ele>
        <time>2020-01-19T14:45:13Z</time>
      </trkpt>
      <trkpt lat="-23.432101" lon="-45.549327">
        <ele>714.580</ele>
        <time>2020-01-19T14:45:15Z</time>
      </trkpt>
      <trkpt lat="-23.432056" lon="-45.549364">
        <ele>714.111</ele>
        <time>2020-01-19T14:45:16Z</time>
      </trkpt>
      <trkpt lat="-23.431942" lon="-45.549456">
        <ele>712.753</ele>
        <time>2020-01-19T14:45:17Z</time>
      </trkpt>
      <trkpt lat="-23.431888" lon="-45.549499">
        <ele>712.577</ele>
        <time>2020-01-19T14:45:18Z</time>
      </trkpt>
      <trkpt lat="-23.431828" lon="-45.549552">
        <ele>712.893</ele>
        <time>2020-01-19T14:45:20Z</time>
      </trkpt>
      <trkpt lat="-23.431766" lon="-45.549595">
        <ele>713.147</ele>
        <time>2020-01-19T14:45:21Z</time>
      </trkpt>
      <trkpt lat="-23.431717" lon="-45.549630">
        <ele>713.720</ele>
        <time>2020-01-19T14:45:23Z</time>
      </trkpt>
      <trkpt lat="-23.431666" lon="-45.549660">
        <ele>713.870</ele>
        <time>2020-01-19T14:45:25Z</time>
      </trkpt>
      <trkpt lat="-23.431615" lon="-45.549660">
        <ele>712.275</ele>
        <time>2020-01-19T14:45:27Z</time>
      </trkpt>
      <trkpt lat="-23.431564" lon="-45.549642">
        <ele>710.828</ele>
        <time>2020-01-19T14:45:29Z</time>
      </trkpt>
      <trkpt lat="-23.431508" lon="-45.549630">
        <ele>708.820</ele>
        <time>2020-01-19T14:45:31Z</time>
      </trkpt>
      <trkpt lat="-23.431463" lon="-45.549619">
        <ele>707.008</ele>
        <time>2020-01-19T14:45:33Z</time>
      </trkpt>
      <trkpt lat="-23.431408" lon="-45.549601">
        <ele>706.151</ele>
        <time>2020-01-19T14:45:35Z</time>
      </trkpt>
      <trkpt lat="-23.431353" lon="-45.549571">
        <ele>705.382</ele>
        <time>2020-01-19T14:45:37Z</time>
      </trkpt>
      <trkpt lat="-23.431313" lon="-45.549546">
        <ele>705.294</ele>
        <time>2020-01-19T14:45:39Z</time>
      </trkpt>
      <trkpt lat="-23.431268" lon="-45.549519">
        <ele>705.428</ele>
        <time>2020-01-19T14:45:41Z</time>
      </trkpt>
      <trkpt lat="-23.431210" lon="-45.549488">
        <ele>706.524</ele>
        <time>2020-01-19T14:45:44Z</time>
      </trkpt>
      <trkpt lat="-23.431170" lon="-45.549453">
        <ele>707.658</ele>
        <time>2020-01-19T14:45:45Z</time>
      </trkpt>
      <trkpt lat="-23.431138" lon="-45.549417">
        <ele>707.871</ele>
        <time>2020-01-19T14:45:48Z</time>
      </trkpt>
      <trkpt lat="-23.431101" lon="-45.549370">
        <ele>707.581</ele>
        <time>2020-01-19T14:45:50Z</time>
      </trkpt>
      <trkpt lat="-23.431064" lon="-45.549334">
        <ele>707.442</ele>
        <time>2020-01-19T14:45:51Z</time>
      </trkpt>
      <trkpt lat="-23.431028" lon="-45.549293">
        <ele>706.622</ele>
        <time>2020-01-19T14:45:53Z</time>
      </trkpt>
      <trkpt lat="-23.430986" lon="-45.549229">
        <ele>710.614</ele>
        <time>2020-01-19T14:45:55Z</time>
      </trkpt>
      <trkpt lat="-23.430945" lon="-45.549254">
        <ele>708.608</ele>
        <time>2020-01-19T14:46:21Z</time>
      </trkpt>
      <trkpt lat="-23.430962" lon="-45.549207">
        <ele>706.968</ele>
        <time>2020-01-19T14:46:54Z</time>
      </trkpt>
      <trkpt lat="-23.430944" lon="-45.549260">
        <ele>706.339</ele>
        <time>2020-01-19T14:47:21Z</time>
      </trkpt>
      <trkpt lat="-23.430918" lon="-45.549208">
        <ele>705.281</ele>
        <time>2020-01-19T14:48:10Z</time>
      </trkpt>
      <trkpt lat="-23.430894" lon="-45.549165">
        <ele>704.575</ele>
        <time>2020-01-19T14:48:12Z</time>
      </trkpt>
      <trkpt lat="-23.430871" lon="-45.549111">
        <ele>703.321</ele>
        <time>2020-01-19T14:48:14Z</time>
      </trkpt>
      <trkpt lat="-23.430853" lon="-45.549057">
        <ele>702.785</ele>
        <time>2020-01-19T14:48:16Z</time>
      </trkpt>
      <trkpt lat="-23.430834" lon="-45.549007">
        <ele>702.568</ele>
        <time>2020-01-19T14:48:17Z</time>
      </trkpt>
      <trkpt lat="-23.430811" lon="-45.548958">
        <ele>702.248</ele>
        <time>2020-01-19T14:48:19Z</time>
      </trkpt>
      <trkpt lat="-23.430783" lon="-45.548905">
        <ele>702.186</ele>
        <time>2020-01-19T14:48:21Z</time>
      </trkpt>
      <trkpt lat="-23.430757" lon="-45.548845">
        <ele>702.260</ele>
        <time>2020-01-19T14:48:23Z</time>
      </trkpt>
      <trkpt lat="-23.430743" lon="-45.548785">
        <ele>702.326</ele>
        <time>2020-01-19T14:48:25Z</time>
      </trkpt>
      <trkpt lat="-23.430728" lon="-45.548722">
        <ele>702.008</ele>
        <time>2020-01-19T14:48:26Z</time>
      </trkpt>
      <trkpt lat="-23.430710" lon="-45.548668">
        <ele>701.292</ele>
        <time>2020-01-19T14:48:28Z</time>
      </trkpt>
      <trkpt lat="-23.430693" lon="-45.548603">
        <ele>701.083</ele>
        <time>2020-01-19T14:48:30Z</time>
      </trkpt>
      <trkpt lat="-23.430678" lon="-45.548545">
        <ele>700.415</ele>
        <time>2020-01-19T14:48:33Z</time>
      </trkpt>
      <trkpt lat="-23.430673" lon="-45.548484">
        <ele>700.179</ele>
        <time>2020-01-19T14:48:34Z</time>
      </trkpt>
      <trkpt lat="-23.430674" lon="-45.548434">
        <ele>700.395</ele>
        <time>2020-01-19T14:48:36Z</time>
      </trkpt>
      <trkpt lat="-23.430665" lon="-45.548371">
        <ele>701.149</ele>
        <time>2020-01-19T14:48:38Z</time>
      </trkpt>
      <trkpt lat="-23.430665" lon="-45.548322">
        <ele>701.452</ele>
        <time>2020-01-19T14:48:40Z</time>
      </trkpt>
      <trkpt lat="-23.430656" lon="-45.548264">
        <ele>701.422</ele>
        <time>2020-01-19T14:48:41Z</time>
      </trkpt>
      <trkpt lat="-23.430644" lon="-45.548213">
        <ele>701.192</ele>
        <time>2020-01-19T14:48:43Z</time>
      </trkpt>
      <trkpt lat="-23.430640" lon="-45.548161">
        <ele>701.573</ele>
        <time>2020-01-19T14:48:45Z</time>
      </trkpt>
      <trkpt lat="-23.430646" lon="-45.548111">
        <ele>701.320</ele>
        <time>2020-01-19T14:48:46Z</time>
      </trkpt>
      <trkpt lat="-23.430653" lon="-45.548060">
        <ele>701.008</ele>
        <time>2020-01-19T14:48:48Z</time>
      </trkpt>
      <trkpt lat="-23.430654" lon="-45.547978">
        <ele>702.173</ele>
        <time>2020-01-19T14:48:50Z</time>
      </trkpt>
      <trkpt lat="-23.430650" lon="-45.547925">
        <ele>702.694</ele>
        <time>2020-01-19T14:48:52Z</time>
      </trkpt>
      <trkpt lat="-23.430663" lon="-45.547872">
        <ele>702.536</ele>
        <time>2020-01-19T14:48:53Z</time>
      </trkpt>
      <trkpt lat="-23.430685" lon="-45.547820">
        <ele>702.670</ele>
        <time>2020-01-19T14:48:55Z</time>
      </trkpt>
      <trkpt lat="-23.430722" lon="-45.547751">
        <ele>703.056</ele>
        <time>2020-01-19T14:48:57Z</time>
      </trkpt>
      <trkpt lat="-23.430767" lon="-45.547682">
        <ele>703.390</ele>
        <time>2020-01-19T14:48:58Z</time>
      </trkpt>
      <trkpt lat="-23.430801" lon="-45.547634">
        <ele>703.693</ele>
        <time>2020-01-19T14:49:00Z</time>
      </trkpt>
      <trkpt lat="-23.430832" lon="-45.547588">
        <ele>703.873</ele>
        <time>2020-01-19T14:49:02Z</time>
      </trkpt>
      <trkpt lat="-23.430868" lon="-45.547545">
        <ele>703.647</ele>
        <time>2020-01-19T14:49:03Z</time>
      </trkpt>
      <trkpt lat="-23.430901" lon="-45.547500">
        <ele>703.929</ele>
        <time>2020-01-19T14:49:05Z</time>
      </trkpt>
      <trkpt lat="-23.430934" lon="-45.547460">
        <ele>704.221</ele>
        <time>2020-01-19T14:49:06Z</time>
      </trkpt>
      <trkpt lat="-23.430970" lon="-45.547425">
        <ele>704.508</ele>
        <time>2020-01-19T14:49:08Z</time>
      </trkpt>
      <trkpt lat="-23.431007" lon="-45.547385">
        <ele>704.988</ele>
        <time>2020-01-19T14:49:09Z</time>
      </trkpt>
      <trkpt lat="-23.431039" lon="-45.547342">
        <ele>705.899</ele>
        <time>2020-01-19T14:49:11Z</time>
      </trkpt>
      <trkpt lat="-23.431078" lon="-45.547292">
        <ele>706.261</ele>
        <time>2020-01-19T14:49:13Z</time>
      </trkpt>
      <trkpt lat="-23.431123" lon="-45.547232">
        <ele>706.555</ele>
        <time>2020-01-19T14:49:14Z</time>
      </trkpt>
      <trkpt lat="-23.431159" lon="-45.547195">
        <ele>706.641</ele>
        <time>2020-01-19T14:49:16Z</time>
      </trkpt>
      <trkpt lat="-23.431198" lon="-45.547144">
        <ele>706.765</ele>
        <time>2020-01-19T14:49:18Z</time>
      </trkpt>
      <trkpt lat="-23.431230" lon="-45.547088">
        <ele>707.118</ele>
        <time>2020-01-19T14:49:19Z</time>
      </trkpt>
      <trkpt lat="-23.431246" lon="-45.547023">
        <ele>707.438</ele>
        <time>2020-01-19T14:49:20Z</time>
      </trkpt>
      <trkpt lat="-23.431239" lon="-45.546968">
        <ele>707.684</ele>
        <time>2020-01-19T14:49:22Z</time>
      </trkpt>
      <trkpt lat="-23.431214" lon="-45.546917">
        <ele>707.907</ele>
        <time>2020-01-19T14:49:23Z</time>
      </trkpt>
      <trkpt lat="-23.431169" lon="-45.546861">
        <ele>707.917</ele>
        <time>2020-01-19T14:49:26Z</time>
      </trkpt>
      <trkpt lat="-23.431113" lon="-45.546831">
        <ele>707.408</ele>
        <time>2020-01-19T14:49:27Z</time>
      </trkpt>
      <trkpt lat="-23.431056" lon="-45.546811">
        <ele>706.632</ele>
        <time>2020-01-19T14:49:29Z</time>
      </trkpt>
      <trkpt lat="-23.430992" lon="-45.546790">
        <ele>707.423</ele>
        <time>2020-01-19T14:49:30Z</time>
      </trkpt>
      <trkpt lat="-23.430931" lon="-45.546779">
        <ele>706.725</ele>
        <time>2020-01-19T14:49:32Z</time>
      </trkpt>
      <trkpt lat="-23.430843" lon="-45.546755">
        <ele>707.619</ele>
        <time>2020-01-19T14:49:34Z</time>
      </trkpt>
      <trkpt lat="-23.430791" lon="-45.546744">
        <ele>708.275</ele>
        <time>2020-01-19T14:49:35Z</time>
      </trkpt>
      <trkpt lat="-23.430667" lon="-45.546706">
        <ele>706.179</ele>
        <time>2020-01-19T14:49:37Z</time>
      </trkpt>
      <trkpt lat="-23.430581" lon="-45.546696">
        <ele>704.772</ele>
        <time>2020-01-19T14:49:39Z</time>
      </trkpt>
      <trkpt lat="-23.430537" lon="-45.546683">
        <ele>703.732</ele>
        <time>2020-01-19T14:49:40Z</time>
      </trkpt>
      <trkpt lat="-23.430455" lon="-45.546687">
        <ele>703.382</ele>
        <time>2020-01-19T14:49:42Z</time>
      </trkpt>
      <trkpt lat="-23.430410" lon="-45.546667">
        <ele>703.343</ele>
        <time>2020-01-19T14:49:43Z</time>
      </trkpt>
      <trkpt lat="-23.430360" lon="-45.546633">
        <ele>703.117</ele>
        <time>2020-01-19T14:49:44Z</time>
      </trkpt>
      <trkpt lat="-23.430316" lon="-45.546613">
        <ele>703.208</ele>
        <time>2020-01-19T14:49:45Z</time>
      </trkpt>
      <trkpt lat="-23.430257" lon="-45.546567">
        <ele>705.072</ele>
        <time>2020-01-19T14:49:48Z</time>
      </trkpt>
      <trkpt lat="-23.430200" lon="-45.546557">
        <ele>706.183</ele>
        <time>2020-01-19T14:49:49Z</time>
      </trkpt>
      <trkpt lat="-23.430123" lon="-45.546538">
        <ele>706.395</ele>
        <time>2020-01-19T14:49:51Z</time>
      </trkpt>
      <trkpt lat="-23.430055" lon="-45.546514">
        <ele>707.499</ele>
        <time>2020-01-19T14:49:52Z</time>
      </trkpt>
      <trkpt lat="-23.430005" lon="-45.546491">
        <ele>707.725</ele>
        <time>2020-01-19T14:49:55Z</time>
      </trkpt>
      <trkpt lat="-23.429957" lon="-45.546468">
        <ele>708.019</ele>
        <time>2020-01-19T14:49:57Z</time>
      </trkpt>
      <trkpt lat="-23.429917" lon="-45.546440">
        <ele>708.592</ele>
        <time>2020-01-19T14:49:58Z</time>
      </trkpt>
      <trkpt lat="-23.429881" lon="-45.546405">
        <ele>708.282</ele>
        <time>2020-01-19T14:50:00Z</time>
      </trkpt>
      <trkpt lat="-23.429843" lon="-45.546367">
        <ele>708.316</ele>
        <time>2020-01-19T14:50:02Z</time>
      </trkpt>
      <trkpt lat="-23.429803" lon="-45.546321">
        <ele>710.176</ele>
        <time>2020-01-19T14:50:04Z</time>
      </trkpt>
      <trkpt lat="-23.429784" lon="-45.546270">
        <ele>710.413</ele>
        <time>2020-01-19T14:50:08Z</time>
      </trkpt>
      <trkpt lat="-23.429787" lon="-45.546209">
        <ele>710.808</ele>
        <time>2020-01-19T14:50:11Z</time>
      </trkpt>
      <trkpt lat="-23.429795" lon="-45.546157">
        <ele>710.755</ele>
        <time>2020-01-19T14:50:13Z</time>
      </trkpt>
      <trkpt lat="-23.429795" lon="-45.546100">
        <ele>711.616</ele>
        <time>2020-01-19T14:50:15Z</time>
      </trkpt>
      <trkpt lat="-23.429807" lon="-45.546050">
        <ele>711.538</ele>
        <time>2020-01-19T14:50:16Z</time>
      </trkpt>
      <trkpt lat="-23.429825" lon="-45.545996">
        <ele>710.972</ele>
        <time>2020-01-19T14:50:18Z</time>
      </trkpt>
      <trkpt lat="-23.429848" lon="-45.545946">
        <ele>711.378</ele>
        <time>2020-01-19T14:50:20Z</time>
      </trkpt>
      <trkpt lat="-23.429869" lon="-45.545895">
        <ele>712.382</ele>
        <time>2020-01-19T14:50:25Z</time>
      </trkpt>
      <trkpt lat="-23.429900" lon="-45.545838">
        <ele>712.365</ele>
        <time>2020-01-19T14:50:29Z</time>
      </trkpt>
      <trkpt lat="-23.429926" lon="-45.545794">
        <ele>713.185</ele>
        <time>2020-01-19T14:50:32Z</time>
      </trkpt>
      <trkpt lat="-23.429971" lon="-45.545743">
        <ele>713.276</ele>
        <time>2020-01-19T14:50:36Z</time>
      </trkpt>
      <trkpt lat="-23.430005" lon="-45.545707">
        <ele>712.290</ele>
        <time>2020-01-19T14:50:38Z</time>
      </trkpt>
      <trkpt lat="-23.430037" lon="-45.545672">
        <ele>711.419</ele>
        <time>2020-01-19T14:50:40Z</time>
      </trkpt>
      <trkpt lat="-23.430086" lon="-45.545617">
        <ele>711.008</ele>
        <time>2020-01-19T14:50:43Z</time>
      </trkpt>
      <trkpt lat="-23.430116" lon="-45.545578">
        <ele>711.661</ele>
        <time>2020-01-19T14:50:45Z</time>
      </trkpt>
      <trkpt lat="-23.430158" lon="-45.545538">
        <ele>712.462</ele>
        <time>2020-01-19T14:50:47Z</time>
      </trkpt>
      <trkpt lat="-23.430193" lon="-45.545503">
        <ele>712.844</ele>
        <time>2020-01-19T14:50:49Z</time>
      </trkpt>
      <trkpt lat="-23.430238" lon="-45.545449">
        <ele>712.198</ele>
        <time>2020-01-19T14:50:52Z</time>
      </trkpt>
      <trkpt lat="-23.430309" lon="-45.545378">
        <ele>711.694</ele>
        <time>2020-01-19T14:50:53Z</time>
      </trkpt>
      <trkpt lat="-23.430379" lon="-45.545310">
        <ele>711.368</ele>
        <time>2020-01-19T14:50:54Z</time>
      </trkpt>
      <trkpt lat="-23.430493" lon="-45.545201">
        <ele>710.561</ele>
        <time>2020-01-19T14:50:55Z</time>
      </trkpt>
      <trkpt lat="-23.430554" lon="-45.545149">
        <ele>710.321</ele>
        <time>2020-01-19T14:50:57Z</time>
      </trkpt>
      <trkpt lat="-23.430614" lon="-45.545097">
        <ele>710.017</ele>
        <time>2020-01-19T14:50:58Z</time>
      </trkpt>
      <trkpt lat="-23.430670" lon="-45.545057">
        <ele>709.387</ele>
        <time>2020-01-19T14:50:59Z</time>
      </trkpt>
      <trkpt lat="-23.430726" lon="-45.545030">
        <ele>708.215</ele>
        <time>2020-01-19T14:51:01Z</time>
      </trkpt>
      <trkpt lat="-23.430774" lon="-45.545015">
        <ele>707.208</ele>
        <time>2020-01-19T14:51:02Z</time>
      </trkpt>
      <trkpt lat="-23.430821" lon="-45.545006">
        <ele>705.965</ele>
        <time>2020-01-19T14:51:03Z</time>
      </trkpt>
      <trkpt lat="-23.430882" lon="-45.544998">
        <ele>704.926</ele>
        <time>2020-01-19T14:51:04Z</time>
      </trkpt>
      <trkpt lat="-23.430934" lon="-45.544988">
        <ele>704.198</ele>
        <time>2020-01-19T14:51:06Z</time>
      </trkpt>
      <trkpt lat="-23.430988" lon="-45.544977">
        <ele>703.852</ele>
        <time>2020-01-19T14:51:08Z</time>
      </trkpt>
      <trkpt lat="-23.431038" lon="-45.544966">
        <ele>704.068</ele>
        <time>2020-01-19T14:51:09Z</time>
      </trkpt>
      <trkpt lat="-23.431082" lon="-45.544953">
        <ele>704.342</ele>
        <time>2020-01-19T14:51:11Z</time>
      </trkpt>
      <trkpt lat="-23.431136" lon="-45.544930">
        <ele>705.115</ele>
        <time>2020-01-19T14:51:13Z</time>
      </trkpt>
      <trkpt lat="-23.431180" lon="-45.544901">
        <ele>705.425</ele>
        <time>2020-01-19T14:51:14Z</time>
      </trkpt>
      <trkpt lat="-23.431231" lon="-45.544870">
        <ele>705.653</ele>
        <time>2020-01-19T14:51:16Z</time>
      </trkpt>
      <trkpt lat="-23.431275" lon="-45.544839">
        <ele>709.604</ele>
        <time>2020-01-19T14:51:18Z</time>
      </trkpt>
      <trkpt lat="-23.431312" lon="-45.544808">
        <ele>711.214</ele>
        <time>2020-01-19T14:51:20Z</time>
      </trkpt>
      <trkpt lat="-23.431364" lon="-45.544777">
        <ele>710.508</ele>
        <time>2020-01-19T14:51:23Z</time>
      </trkpt>
      <trkpt lat="-23.431415" lon="-45.544749">
        <ele>709.319</ele>
        <time>2020-01-19T14:51:26Z</time>
      </trkpt>
      <trkpt lat="-23.431460" lon="-45.544721">
        <ele>707.880</ele>
        <time>2020-01-19T14:51:29Z</time>
      </trkpt>
      <trkpt lat="-23.431502" lon="-45.544679">
        <ele>707.352</ele>
        <time>2020-01-19T14:51:33Z</time>
      </trkpt>
      <trkpt lat="-23.431541" lon="-45.544644">
        <ele>706.166</ele>
        <time>2020-01-19T14:51:37Z</time>
      </trkpt>
      <trkpt lat="-23.431573" lon="-45.544603">
        <ele>704.622</ele>
        <time>2020-01-19T14:51:40Z</time>
      </trkpt>
      <trkpt lat="-23.431602" lon="-45.544565">
        <ele>703.466</ele>
        <time>2020-01-19T14:51:42Z</time>
      </trkpt>
      <trkpt lat="-23.431627" lon="-45.544514">
        <ele>702.759</ele>
        <time>2020-01-19T14:51:46Z</time>
      </trkpt>
      <trkpt lat="-23.431652" lon="-45.544470">
        <ele>701.649</ele>
        <time>2020-01-19T14:51:47Z</time>
      </trkpt>
      <trkpt lat="-23.431676" lon="-45.544422">
        <ele>701.077</ele>
        <time>2020-01-19T14:51:49Z</time>
      </trkpt>
      <trkpt lat="-23.431698" lon="-45.544368">
        <ele>700.561</ele>
        <time>2020-01-19T14:51:51Z</time>
      </trkpt>
      <trkpt lat="-23.431708" lon="-45.544312">
        <ele>699.927</ele>
        <time>2020-01-19T14:51:52Z</time>
      </trkpt>
      <trkpt lat="-23.431715" lon="-45.544251">
        <ele>699.808</ele>
        <time>2020-01-19T14:51:55Z</time>
      </trkpt>
      <trkpt lat="-23.431719" lon="-45.544195">
        <ele>700.931</ele>
        <time>2020-01-19T14:51:58Z</time>
      </trkpt>
      <trkpt lat="-23.431717" lon="-45.544145">
        <ele>702.082</ele>
        <time>2020-01-19T14:52:01Z</time>
      </trkpt>
      <trkpt lat="-23.431712" lon="-45.544094">
        <ele>703.094</ele>
        <time>2020-01-19T14:52:04Z</time>
      </trkpt>
      <trkpt lat="-23.431690" lon="-45.544048">
        <ele>704.118</ele>
        <time>2020-01-19T14:52:07Z</time>
      </trkpt>
      <trkpt lat="-23.431661" lon="-45.544008">
        <ele>706.524</ele>
        <time>2020-01-19T14:52:09Z</time>
      </trkpt>
      <trkpt lat="-23.431619" lon="-45.543968">
        <ele>708.468</ele>
        <time>2020-01-19T14:52:12Z</time>
      </trkpt>
      <trkpt lat="-23.431574" lon="-45.543938">
        <ele>710.311</ele>
        <time>2020-01-19T14:52:14Z</time>
      </trkpt>
      <trkpt lat="-23.431574" lon="-45.543938">
        <ele>710.321</ele>
        <time>2020-01-19T14:52:14Z</time>
      </trkpt>
      <trkpt lat="-23.431520" lon="-45.543909">
        <ele>710.954</ele>
        <time>2020-01-19T14:52:16Z</time>
      </trkpt>
      <trkpt lat="-23.431475" lon="-45.543888">
        <ele>710.656</ele>
        <time>2020-01-19T14:52:18Z</time>
      </trkpt>
      <trkpt lat="-23.431431" lon="-45.543874">
        <ele>711.011</ele>
        <time>2020-01-19T14:52:19Z</time>
      </trkpt>
      <trkpt lat="-23.431371" lon="-45.543874">
        <ele>712.408</ele>
        <time>2020-01-19T14:52:21Z</time>
      </trkpt>
      <trkpt lat="-23.431308" lon="-45.543871">
        <ele>712.759</ele>
        <time>2020-01-19T14:52:23Z</time>
      </trkpt>
      <trkpt lat="-23.431262" lon="-45.543867">
        <ele>712.980</ele>
        <time>2020-01-19T14:52:24Z</time>
      </trkpt>
      <trkpt lat="-23.431172" lon="-45.543829">
        <ele>712.352</ele>
        <time>2020-01-19T14:52:26Z</time>
      </trkpt>
      <trkpt lat="-23.431105" lon="-45.543756">
        <ele>712.426</ele>
        <time>2020-01-19T14:52:28Z</time>
      </trkpt>
      <trkpt lat="-23.431073" lon="-45.543695">
        <ele>712.672</ele>
        <time>2020-01-19T14:52:29Z</time>
      </trkpt>
      <trkpt lat="-23.431060" lon="-45.543633">
        <ele>713.046</ele>
        <time>2020-01-19T14:52:30Z</time>
      </trkpt>
      <trkpt lat="-23.431059" lon="-45.543564">
        <ele>712.649</ele>
        <time>2020-01-19T14:52:31Z</time>
      </trkpt>
      <trkpt lat="-23.431077" lon="-45.543501">
        <ele>712.269</ele>
        <time>2020-01-19T14:52:32Z</time>
      </trkpt>
      <trkpt lat="-23.431155" lon="-45.543595">
        <ele>711.897</ele>
        <time>2020-01-19T14:52:33Z</time>
      </trkpt>
      <trkpt lat="-23.431149" lon="-45.543676">
        <ele>711.323</ele>
        <time>2020-01-19T14:52:34Z</time>
      </trkpt>
      <trkpt lat="-23.431184" lon="-45.543617">
        <ele>712.025</ele>
        <time>2020-01-19T14:52:41Z</time>
      </trkpt>
      <trkpt lat="-23.431221" lon="-45.543566">
        <ele>712.208</ele>
        <time>2020-01-19T14:52:42Z</time>
      </trkpt>
      <trkpt lat="-23.431249" lon="-45.543515">
        <ele>712.273</ele>
        <time>2020-01-19T14:52:44Z</time>
      </trkpt>
      <trkpt lat="-23.431280" lon="-45.543438">
        <ele>711.614</ele>
        <time>2020-01-19T14:52:46Z</time>
      </trkpt>
      <trkpt lat="-23.431344" lon="-45.543345">
        <ele>711.666</ele>
        <time>2020-01-19T14:52:48Z</time>
      </trkpt>
      <trkpt lat="-23.431474" lon="-45.543206">
        <ele>712.030</ele>
        <time>2020-01-19T14:52:50Z</time>
      </trkpt>
      <trkpt lat="-23.431597" lon="-45.543075">
        <ele>712.796</ele>
        <time>2020-01-19T14:52:52Z</time>
      </trkpt>
      <trkpt lat="-23.431635" lon="-45.543043">
        <ele>713.190</ele>
        <time>2020-01-19T14:52:53Z</time>
      </trkpt>
      <trkpt lat="-23.431670" lon="-45.542996">
        <ele>713.653</ele>
        <time>2020-01-19T14:52:54Z</time>
      </trkpt>
      <trkpt lat="-23.431699" lon="-45.542951">
        <ele>714.113</ele>
        <time>2020-01-19T14:52:57Z</time>
      </trkpt>
      <trkpt lat="-23.431727" lon="-45.542905">
        <ele>713.955</ele>
        <time>2020-01-19T14:53:00Z</time>
      </trkpt>
      <trkpt lat="-23.431763" lon="-45.542873">
        <ele>713.107</ele>
        <time>2020-01-19T14:53:02Z</time>
      </trkpt>
      <trkpt lat="-23.431799" lon="-45.542840">
        <ele>712.717</ele>
        <time>2020-01-19T14:53:04Z</time>
      </trkpt>
      <trkpt lat="-23.431847" lon="-45.542809">
        <ele>713.208</ele>
        <time>2020-01-19T14:53:06Z</time>
      </trkpt>
      <trkpt lat="-23.431892" lon="-45.542765">
        <ele>712.749</ele>
        <time>2020-01-19T14:53:08Z</time>
      </trkpt>
      <trkpt lat="-23.431928" lon="-45.542714">
        <ele>712.060</ele>
        <time>2020-01-19T14:53:10Z</time>
      </trkpt>
      <trkpt lat="-23.431954" lon="-45.542663">
        <ele>712.072</ele>
        <time>2020-01-19T14:53:12Z</time>
      </trkpt>
      <trkpt lat="-23.431975" lon="-45.542608">
        <ele>711.566</ele>
        <time>2020-01-19T14:53:14Z</time>
      </trkpt>
      <trkpt lat="-23.431974" lon="-45.542556">
        <ele>711.192</ele>
        <time>2020-01-19T14:53:16Z</time>
      </trkpt>
      <trkpt lat="-23.431963" lon="-45.542500">
        <ele>711.426</ele>
        <time>2020-01-19T14:53:18Z</time>
      </trkpt>
      <trkpt lat="-23.431917" lon="-45.542452">
        <ele>711.379</ele>
        <time>2020-01-19T14:53:20Z</time>
      </trkpt>
      <trkpt lat="-23.431757" lon="-45.542370">
        <ele>711.689</ele>
        <time>2020-01-19T14:53:22Z</time>
      </trkpt>
      <trkpt lat="-23.431694" lon="-45.542346">
        <ele>712.428</ele>
        <time>2020-01-19T14:53:23Z</time>
      </trkpt>
      <trkpt lat="-23.431639" lon="-45.542330">
        <ele>712.789</ele>
        <time>2020-01-19T14:53:24Z</time>
      </trkpt>
      <trkpt lat="-23.431592" lon="-45.542313">
        <ele>713.517</ele>
        <time>2020-01-19T14:53:25Z</time>
      </trkpt>
      <trkpt lat="-23.431539" lon="-45.542315">
        <ele>714.108</ele>
        <time>2020-01-19T14:53:26Z</time>
      </trkpt>
      <trkpt lat="-23.431490" lon="-45.542313">
        <ele>714.326</ele>
        <time>2020-01-19T14:53:27Z</time>
      </trkpt>
      <trkpt lat="-23.431447" lon="-45.542330">
        <ele>714.437</ele>
        <time>2020-01-19T14:53:28Z</time>
      </trkpt>
      <trkpt lat="-23.431377" lon="-45.542324">
        <ele>714.069</ele>
        <time>2020-01-19T14:53:30Z</time>
      </trkpt>
      <trkpt lat="-23.431328" lon="-45.542314">
        <ele>713.993</ele>
        <time>2020-01-19T14:53:31Z</time>
      </trkpt>
      <trkpt lat="-23.431269" lon="-45.542318">
        <ele>713.429</ele>
        <time>2020-01-19T14:53:34Z</time>
      </trkpt>
      <trkpt lat="-23.431221" lon="-45.542342">
        <ele>712.983</ele>
        <time>2020-01-19T14:53:37Z</time>
      </trkpt>
      <trkpt lat="-23.431169" lon="-45.542357">
        <ele>711.766</ele>
        <time>2020-01-19T14:53:39Z</time>
      </trkpt>
      <trkpt lat="-23.431121" lon="-45.542371">
        <ele>710.596</ele>
        <time>2020-01-19T14:53:41Z</time>
      </trkpt>
      <trkpt lat="-23.431077" lon="-45.542384">
        <ele>709.569</ele>
        <time>2020-01-19T14:53:43Z</time>
      </trkpt>
      <trkpt lat="-23.431028" lon="-45.542404">
        <ele>708.504</ele>
        <time>2020-01-19T14:53:45Z</time>
      </trkpt>
      <trkpt lat="-23.430984" lon="-45.542416">
        <ele>707.124</ele>
        <time>2020-01-19T14:53:47Z</time>
      </trkpt>
      <trkpt lat="-23.430942" lon="-45.542435">
        <ele>705.908</ele>
        <time>2020-01-19T14:53:48Z</time>
      </trkpt>
      <trkpt lat="-23.430893" lon="-45.542453">
        <ele>704.470</ele>
        <time>2020-01-19T14:53:50Z</time>
      </trkpt>
      <trkpt lat="-23.430830" lon="-45.542464">
        <ele>704.151</ele>
        <time>2020-01-19T14:53:52Z</time>
      </trkpt>
      <trkpt lat="-23.430779" lon="-45.542467">
        <ele>703.653</ele>
        <time>2020-01-19T14:53:53Z</time>
      </trkpt>
      <trkpt lat="-23.430720" lon="-45.542469">
        <ele>703.067</ele>
        <time>2020-01-19T14:53:56Z</time>
      </trkpt>
      <trkpt lat="-23.430660" lon="-45.542470">
        <ele>703.543</ele>
        <time>2020-01-19T14:53:57Z</time>
      </trkpt>
      <trkpt lat="-23.430609" lon="-45.542469">
        <ele>704.137</ele>
        <time>2020-01-19T14:53:59Z</time>
      </trkpt>
      <trkpt lat="-23.430551" lon="-45.542461">
        <ele>704.630</ele>
        <time>2020-01-19T14:54:01Z</time>
      </trkpt>
      <trkpt lat="-23.430482" lon="-45.542452">
        <ele>705.190</ele>
        <time>2020-01-19T14:54:03Z</time>
      </trkpt>
      <trkpt lat="-23.430437" lon="-45.542433">
        <ele>706.164</ele>
        <time>2020-01-19T14:54:05Z</time>
      </trkpt>
      <trkpt lat="-23.430383" lon="-45.542402">
        <ele>707.406</ele>
        <time>2020-01-19T14:54:07Z</time>
      </trkpt>
      <trkpt lat="-23.430348" lon="-45.542368">
        <ele>708.316</ele>
        <time>2020-01-19T14:54:08Z</time>
      </trkpt>
      <trkpt lat="-23.430313" lon="-45.542316">
        <ele>708.308</ele>
        <time>2020-01-19T14:54:10Z</time>
      </trkpt>
      <trkpt lat="-23.430293" lon="-45.542268">
        <ele>708.070</ele>
        <time>2020-01-19T14:54:12Z</time>
      </trkpt>
      <trkpt lat="-23.430288" lon="-45.542210">
        <ele>707.851</ele>
        <time>2020-01-19T14:54:13Z</time>
      </trkpt>
      <trkpt lat="-23.430291" lon="-45.542160">
        <ele>708.123</ele>
        <time>2020-01-19T14:54:15Z</time>
      </trkpt>
      <trkpt lat="-23.430299" lon="-45.542110">
        <ele>708.927</ele>
        <time>2020-01-19T14:54:16Z</time>
      </trkpt>
      <trkpt lat="-23.430311" lon="-45.542061">
        <ele>709.573</ele>
        <time>2020-01-19T14:54:18Z</time>
      </trkpt>
      <trkpt lat="-23.430323" lon="-45.541996">
        <ele>710.737</ele>
        <time>2020-01-19T14:54:20Z</time>
      </trkpt>
      <trkpt lat="-23.430330" lon="-45.541941">
        <ele>711.360</ele>
        <time>2020-01-19T14:54:22Z</time>
      </trkpt>
      <trkpt lat="-23.430333" lon="-45.541884">
        <ele>711.120</ele>
        <time>2020-01-19T14:54:24Z</time>
      </trkpt>
      <trkpt lat="-23.430334" lon="-45.541823">
        <ele>711.095</ele>
        <time>2020-01-19T14:54:26Z</time>
      </trkpt>
      <trkpt lat="-23.430328" lon="-45.541768">
        <ele>710.749</ele>
        <time>2020-01-19T14:54:28Z</time>
      </trkpt>
      <trkpt lat="-23.430320" lon="-45.541710">
        <ele>711.423</ele>
        <time>2020-01-19T14:54:30Z</time>
      </trkpt>
      <trkpt lat="-23.430311" lon="-45.541661">
        <ele>710.208</ele>
        <time>2020-01-19T14:54:33Z</time>
      </trkpt>
      <trkpt lat="-23.430293" lon="-45.541615">
        <ele>710.583</ele>
        <time>2020-01-19T14:54:37Z</time>
      </trkpt>
      <trkpt lat="-23.430251" lon="-45.541591">
        <ele>712.064</ele>
        <time>2020-01-19T14:54:39Z</time>
      </trkpt>
      <trkpt lat="-23.430199" lon="-45.541565">
        <ele>714.356</ele>
        <time>2020-01-19T14:54:42Z</time>
      </trkpt>
      <trkpt lat="-23.430162" lon="-45.541531">
        <ele>716.170</ele>
        <time>2020-01-19T14:54:44Z</time>
      </trkpt>
      <trkpt lat="-23.430126" lon="-45.541485">
        <ele>716.396</ele>
        <time>2020-01-19T14:54:46Z</time>
      </trkpt>
      <trkpt lat="-23.430097" lon="-45.541435">
        <ele>716.240</ele>
        <time>2020-01-19T14:54:48Z</time>
      </trkpt>
      <trkpt lat="-23.430074" lon="-45.541376">
        <ele>715.423</ele>
        <time>2020-01-19T14:54:50Z</time>
      </trkpt>
      <trkpt lat="-23.430055" lon="-45.541326">
        <ele>715.133</ele>
        <time>2020-01-19T14:54:52Z</time>
      </trkpt>
      <trkpt lat="-23.430044" lon="-45.541272">
        <ele>714.845</ele>
        <time>2020-01-19T14:54:54Z</time>
      </trkpt>
      <trkpt lat="-23.430042" lon="-45.541222">
        <ele>715.247</ele>
        <time>2020-01-19T14:54:56Z</time>
      </trkpt>
      <trkpt lat="-23.430049" lon="-45.541160">
        <ele>715.311</ele>
        <time>2020-01-19T14:54:58Z</time>
      </trkpt>
      <trkpt lat="-23.430063" lon="-45.541101">
        <ele>715.908</ele>
        <time>2020-01-19T14:55:00Z</time>
      </trkpt>
      <trkpt lat="-23.430077" lon="-45.541049">
        <ele>716.578</ele>
        <time>2020-01-19T14:55:02Z</time>
      </trkpt>
      <trkpt lat="-23.430089" lon="-45.540994">
        <ele>717.099</ele>
        <time>2020-01-19T14:55:04Z</time>
      </trkpt>
      <trkpt lat="-23.430094" lon="-45.540925">
        <ele>717.471</ele>
        <time>2020-01-19T14:55:07Z</time>
      </trkpt>
      <trkpt lat="-23.430094" lon="-45.540865">
        <ele>717.625</ele>
        <time>2020-01-19T14:55:09Z</time>
      </trkpt>
      <trkpt lat="-23.430088" lon="-45.540813">
        <ele>717.621</ele>
        <time>2020-01-19T14:55:12Z</time>
      </trkpt>
      <trkpt lat="-23.430082" lon="-45.540762">
        <ele>718.235</ele>
        <time>2020-01-19T14:55:15Z</time>
      </trkpt>
      <trkpt lat="-23.430071" lon="-45.540712">
        <ele>718.578</ele>
        <time>2020-01-19T14:55:23Z</time>
      </trkpt>
      <trkpt lat="-23.430045" lon="-45.540671">
        <ele>719.068</ele>
        <time>2020-01-19T14:55:29Z</time>
      </trkpt>
      <trkpt lat="-23.430018" lon="-45.540628">
        <ele>719.586</ele>
        <time>2020-01-19T14:55:34Z</time>
      </trkpt>
      <trkpt lat="-23.429989" lon="-45.540585">
        <ele>720.560</ele>
        <time>2020-01-19T14:55:38Z</time>
      </trkpt>
      <trkpt lat="-23.429960" lon="-45.540543">
        <ele>721.226</ele>
        <time>2020-01-19T14:55:42Z</time>
      </trkpt>
      <trkpt lat="-23.429942" lon="-45.540492">
        <ele>721.808</ele>
        <time>2020-01-19T14:55:45Z</time>
      </trkpt>
      <trkpt lat="-23.429929" lon="-45.540444">
        <ele>722.342</ele>
        <time>2020-01-19T14:55:47Z</time>
      </trkpt>
      <trkpt lat="-23.429915" lon="-45.540386">
        <ele>723.023</ele>
        <time>2020-01-19T14:55:51Z</time>
      </trkpt>
      <trkpt lat="-23.429913" lon="-45.540331">
        <ele>723.075</ele>
        <time>2020-01-19T14:55:54Z</time>
      </trkpt>
      <trkpt lat="-23.429900" lon="-45.540284">
        <ele>723.529</ele>
        <time>2020-01-19T14:55:58Z</time>
      </trkpt>
      <trkpt lat="-23.429894" lon="-45.540233">
        <ele>721.935</ele>
        <time>2020-01-19T14:56:03Z</time>
      </trkpt>
      <trkpt lat="-23.429901" lon="-45.540183">
        <ele>720.549</ele>
        <time>2020-01-19T14:56:07Z</time>
      </trkpt>
      <trkpt lat="-23.429914" lon="-45.540136">
        <ele>719.682</ele>
        <time>2020-01-19T14:56:11Z</time>
      </trkpt>
      <trkpt lat="-23.429940" lon="-45.540088">
        <ele>719.482</ele>
        <time>2020-01-19T14:56:14Z</time>
      </trkpt>
      <trkpt lat="-23.429966" lon="-45.540038">
        <ele>719.043</ele>
        <time>2020-01-19T14:56:18Z</time>
      </trkpt>
      <trkpt lat="-23.429996" lon="-45.539993">
        <ele>717.664</ele>
        <time>2020-01-19T14:56:21Z</time>
      </trkpt>
      <trkpt lat="-23.430007" lon="-45.539941">
        <ele>717.710</ele>
        <time>2020-01-19T14:56:25Z</time>
      </trkpt>
      <trkpt lat="-23.429995" lon="-45.539888">
        <ele>718.408</ele>
        <time>2020-01-19T14:56:28Z</time>
      </trkpt>
      <trkpt lat="-23.429966" lon="-45.539848">
        <ele>719.058</ele>
        <time>2020-01-19T14:56:31Z</time>
      </trkpt>
      <trkpt lat="-23.429936" lon="-45.539775">
        <ele>718.919</ele>
        <time>2020-01-19T14:56:32Z</time>
      </trkpt>
      <trkpt lat="-23.429915" lon="-45.539727">
        <ele>718.931</ele>
        <time>2020-01-19T14:56:33Z</time>
      </trkpt>
      <trkpt lat="-23.429871" lon="-45.539665">
        <ele>718.915</ele>
        <time>2020-01-19T14:56:35Z</time>
      </trkpt>
      <trkpt lat="-23.429804" lon="-45.539581">
        <ele>719.131</ele>
        <time>2020-01-19T14:56:36Z</time>
      </trkpt>
      <trkpt lat="-23.429757" lon="-45.539540">
        <ele>719.295</ele>
        <time>2020-01-19T14:56:37Z</time>
      </trkpt>
      <trkpt lat="-23.429709" lon="-45.539503">
        <ele>719.068</ele>
        <time>2020-01-19T14:56:38Z</time>
      </trkpt>
      <trkpt lat="-23.429658" lon="-45.539465">
        <ele>718.948</ele>
        <time>2020-01-19T14:56:39Z</time>
      </trkpt>
      <trkpt lat="-23.429603" lon="-45.539425">
        <ele>718.848</ele>
        <time>2020-01-19T14:56:40Z</time>
      </trkpt>
      <trkpt lat="-23.429546" lon="-45.539396">
        <ele>718.861</ele>
        <time>2020-01-19T14:56:41Z</time>
      </trkpt>
      <trkpt lat="-23.429494" lon="-45.539373">
        <ele>718.517</ele>
        <time>2020-01-19T14:56:42Z</time>
      </trkpt>
      <trkpt lat="-23.429443" lon="-45.539352">
        <ele>718.608</ele>
        <time>2020-01-19T14:56:44Z</time>
      </trkpt>
      <trkpt lat="-23.429387" lon="-45.539364">
        <ele>719.128</ele>
        <time>2020-01-19T14:56:45Z</time>
      </trkpt>
      <trkpt lat="-23.429351" lon="-45.539406">
        <ele>719.579</ele>
        <time>2020-01-19T14:56:47Z</time>
      </trkpt>
      <trkpt lat="-23.429353" lon="-45.539462">
        <ele>719.941</ele>
        <time>2020-01-19T14:56:49Z</time>
      </trkpt>
      <trkpt lat="-23.429309" lon="-45.539491">
        <ele>720.725</ele>
        <time>2020-01-19T14:56:53Z</time>
      </trkpt>
      <trkpt lat="-23.429264" lon="-45.539511">
        <ele>721.691</ele>
        <time>2020-01-19T14:56:56Z</time>
      </trkpt>
      <trkpt lat="-23.429214" lon="-45.539529">
        <ele>722.995</ele>
        <time>2020-01-19T14:56:59Z</time>
      </trkpt>
      <trkpt lat="-23.429168" lon="-45.539533">
        <ele>724.858</ele>
        <time>2020-01-19T14:57:03Z</time>
      </trkpt>
      <trkpt lat="-23.429121" lon="-45.539532">
        <ele>726.338</ele>
        <time>2020-01-19T14:57:05Z</time>
      </trkpt>
      <trkpt lat="-23.429074" lon="-45.539547">
        <ele>726.283</ele>
        <time>2020-01-19T14:57:07Z</time>
      </trkpt>
      <trkpt lat="-23.429021" lon="-45.539583">
        <ele>725.825</ele>
        <time>2020-01-19T14:57:08Z</time>
      </trkpt>
      <trkpt lat="-23.428948" lon="-45.539661">
        <ele>725.717</ele>
        <time>2020-01-19T14:57:10Z</time>
      </trkpt>
      <trkpt lat="-23.428919" lon="-45.539709">
        <ele>725.308</ele>
        <time>2020-01-19T14:57:11Z</time>
      </trkpt>
      <trkpt lat="-23.428891" lon="-45.539761">
        <ele>725.122</ele>
        <time>2020-01-19T14:57:12Z</time>
      </trkpt>
      <trkpt lat="-23.428860" lon="-45.539814">
        <ele>724.643</ele>
        <time>2020-01-19T14:57:13Z</time>
      </trkpt>
      <trkpt lat="-23.428839" lon="-45.539863">
        <ele>724.425</ele>
        <time>2020-01-19T14:57:14Z</time>
      </trkpt>
      <trkpt lat="-23.428821" lon="-45.539912">
        <ele>724.019</ele>
        <time>2020-01-19T14:57:15Z</time>
      </trkpt>
      <trkpt lat="-23.428814" lon="-45.539971">
        <ele>723.245</ele>
        <time>2020-01-19T14:57:18Z</time>
      </trkpt>
      <trkpt lat="-23.428785" lon="-45.540015">
        <ele>722.099</ele>
        <time>2020-01-19T14:57:23Z</time>
      </trkpt>
      <trkpt lat="-23.428762" lon="-45.540065">
        <ele>722.012</ele>
        <time>2020-01-19T14:57:28Z</time>
      </trkpt>
      <trkpt lat="-23.428736" lon="-45.540114">
        <ele>723.972</ele>
        <time>2020-01-19T14:57:33Z</time>
      </trkpt>
      <trkpt lat="-23.428720" lon="-45.540162">
        <ele>723.255</ele>
        <time>2020-01-19T14:57:38Z</time>
      </trkpt>
      <trkpt lat="-23.428702" lon="-45.540212">
        <ele>723.607</ele>
        <time>2020-01-19T14:57:42Z</time>
      </trkpt>
      <trkpt lat="-23.428665" lon="-45.540242">
        <ele>722.517</ele>
        <time>2020-01-19T14:57:45Z</time>
      </trkpt>
      <trkpt lat="-23.428635" lon="-45.540279">
        <ele>721.408</ele>
        <time>2020-01-19T14:57:50Z</time>
      </trkpt>
      <trkpt lat="-23.428612" lon="-45.540324">
        <ele>720.679</ele>
        <time>2020-01-19T14:57:54Z</time>
      </trkpt>
      <trkpt lat="-23.428586" lon="-45.540370">
        <ele>720.520</ele>
        <time>2020-01-19T14:57:59Z</time>
      </trkpt>
      <trkpt lat="-23.428558" lon="-45.540410">
        <ele>720.072</ele>
        <time>2020-01-19T14:58:04Z</time>
      </trkpt>
      <trkpt lat="-23.428529" lon="-45.540452">
        <ele>720.256</ele>
        <time>2020-01-19T14:58:09Z</time>
      </trkpt>
      <trkpt lat="-23.428505" lon="-45.540502">
        <ele>720.232</ele>
        <time>2020-01-19T14:58:14Z</time>
      </trkpt>
      <trkpt lat="-23.428481" lon="-45.540549">
        <ele>720.396</ele>
        <time>2020-01-19T14:58:19Z</time>
      </trkpt>
      <trkpt lat="-23.428457" lon="-45.540591">
        <ele>719.969</ele>
        <time>2020-01-19T14:58:24Z</time>
      </trkpt>
      <trkpt lat="-23.428425" lon="-45.540630">
        <ele>720.919</ele>
        <time>2020-01-19T14:58:29Z</time>
      </trkpt>
      <trkpt lat="-23.428382" lon="-45.540658">
        <ele>721.347</ele>
        <time>2020-01-19T14:58:33Z</time>
      </trkpt>
      <trkpt lat="-23.428340" lon="-45.540678">
        <ele>720.929</ele>
        <time>2020-01-19T14:58:38Z</time>
      </trkpt>
      <trkpt lat="-23.428294" lon="-45.540682">
        <ele>721.321</ele>
        <time>2020-01-19T14:58:44Z</time>
      </trkpt>
      <trkpt lat="-23.428246" lon="-45.540695">
        <ele>722.508</ele>
        <time>2020-01-19T14:58:50Z</time>
      </trkpt>
      <trkpt lat="-23.428201" lon="-45.540710">
        <ele>724.388</ele>
        <time>2020-01-19T14:58:55Z</time>
      </trkpt>
      <trkpt lat="-23.428160" lon="-45.540745">
        <ele>725.559</ele>
        <time>2020-01-19T14:58:59Z</time>
      </trkpt>
      <trkpt lat="-23.428123" lon="-45.540778">
        <ele>727.071</ele>
        <time>2020-01-19T14:59:05Z</time>
      </trkpt>
      <trkpt lat="-23.428090" lon="-45.540814">
        <ele>729.495</ele>
        <time>2020-01-19T14:59:09Z</time>
      </trkpt>
      <trkpt lat="-23.428071" lon="-45.540862">
        <ele>730.661</ele>
        <time>2020-01-19T14:59:15Z</time>
      </trkpt>
      <trkpt lat="-23.428068" lon="-45.540917">
        <ele>731.625</ele>
        <time>2020-01-19T14:59:21Z</time>
      </trkpt>
      <trkpt lat="-23.428082" lon="-45.540964">
        <ele>732.328</ele>
        <time>2020-01-19T14:59:26Z</time>
      </trkpt>
      <trkpt lat="-23.428119" lon="-45.540999">
        <ele>732.988</ele>
        <time>2020-01-19T14:59:33Z</time>
      </trkpt>
      <trkpt lat="-23.428146" lon="-45.541042">
        <ele>733.515</ele>
        <time>2020-01-19T14:59:38Z</time>
      </trkpt>
      <trkpt lat="-23.428167" lon="-45.541092">
        <ele>733.665</ele>
        <time>2020-01-19T14:59:43Z</time>
      </trkpt>
      <trkpt lat="-23.428194" lon="-45.541139">
        <ele>733.711</ele>
        <time>2020-01-19T14:59:48Z</time>
      </trkpt>
      <trkpt lat="-23.428230" lon="-45.541173">
        <ele>733.708</ele>
        <time>2020-01-19T14:59:53Z</time>
      </trkpt>
      <trkpt lat="-23.428271" lon="-45.541207">
        <ele>732.775</ele>
        <time>2020-01-19T14:59:57Z</time>
      </trkpt>
      <trkpt lat="-23.428284" lon="-45.541255">
        <ele>730.056</ele>
        <time>2020-01-19T15:00:01Z</time>
      </trkpt>
      <trkpt lat="-23.428292" lon="-45.541306">
        <ele>731.268</ele>
        <time>2020-01-19T15:00:07Z</time>
      </trkpt>
      <trkpt lat="-23.428304" lon="-45.541354">
        <ele>731.832</ele>
        <time>2020-01-19T15:00:11Z</time>
      </trkpt>
      <trkpt lat="-23.428324" lon="-45.541405">
        <ele>731.228</ele>
        <time>2020-01-19T15:00:16Z</time>
      </trkpt>
      <trkpt lat="-23.428343" lon="-45.541450">
        <ele>729.252</ele>
        <time>2020-01-19T15:00:20Z</time>
      </trkpt>
      <trkpt lat="-23.428354" lon="-45.541500">
        <ele>728.855</ele>
        <time>2020-01-19T15:00:23Z</time>
      </trkpt>
      <trkpt lat="-23.428361" lon="-45.541559">
        <ele>728.725</ele>
        <time>2020-01-19T15:00:28Z</time>
      </trkpt>
      <trkpt lat="-23.428363" lon="-45.541609">
        <ele>727.681</ele>
        <time>2020-01-19T15:00:33Z</time>
      </trkpt>
      <trkpt lat="-23.428370" lon="-45.541660">
        <ele>725.861</ele>
        <time>2020-01-19T15:00:37Z</time>
      </trkpt>
      <trkpt lat="-23.428365" lon="-45.541709">
        <ele>726.017</ele>
        <time>2020-01-19T15:00:41Z</time>
      </trkpt>
      <trkpt lat="-23.428364" lon="-45.541760">
        <ele>725.708</ele>
        <time>2020-01-19T15:00:46Z</time>
      </trkpt>
      <trkpt lat="-23.428362" lon="-45.541814">
        <ele>726.832</ele>
        <time>2020-01-19T15:00:51Z</time>
      </trkpt>
      <trkpt lat="-23.428364" lon="-45.541864">
        <ele>727.683</ele>
        <time>2020-01-19T15:00:56Z</time>
      </trkpt>
      <trkpt lat="-23.428378" lon="-45.541919">
        <ele>726.445</ele>
        <time>2020-01-19T15:01:00Z</time>
      </trkpt>
      <trkpt lat="-23.428388" lon="-45.541976">
        <ele>725.659</ele>
        <time>2020-01-19T15:01:04Z</time>
      </trkpt>
      <trkpt lat="-23.428392" lon="-45.542026">
        <ele>725.195</ele>
        <time>2020-01-19T15:01:07Z</time>
      </trkpt>
      <trkpt lat="-23.428391" lon="-45.542087">
        <ele>724.419</ele>
        <time>2020-01-19T15:01:12Z</time>
      </trkpt>
      <trkpt lat="-23.428378" lon="-45.542138">
        <ele>723.982</ele>
        <time>2020-01-19T15:01:16Z</time>
      </trkpt>
      <trkpt lat="-23.428360" lon="-45.542186">
        <ele>724.032</ele>
        <time>2020-01-19T15:01:22Z</time>
      </trkpt>
      <trkpt lat="-23.428366" lon="-45.542241">
        <ele>725.596</ele>
        <time>2020-01-19T15:01:29Z</time>
      </trkpt>
      <trkpt lat="-23.428366" lon="-45.542292">
        <ele>726.531</ele>
        <time>2020-01-19T15:01:34Z</time>
      </trkpt>
      <trkpt lat="-23.428361" lon="-45.542345">
        <ele>725.624</ele>
        <time>2020-01-19T15:01:38Z</time>
      </trkpt>
      <trkpt lat="-23.428340" lon="-45.542395">
        <ele>725.108</ele>
        <time>2020-01-19T15:01:42Z</time>
      </trkpt>
      <trkpt lat="-23.428317" lon="-45.542438">
        <ele>726.313</ele>
        <time>2020-01-19T15:01:46Z</time>
      </trkpt>
      <trkpt lat="-23.428287" lon="-45.542489">
        <ele>726.684</ele>
        <time>2020-01-19T15:01:49Z</time>
      </trkpt>
      <trkpt lat="-23.428259" lon="-45.542534">
        <ele>727.926</ele>
        <time>2020-01-19T15:01:52Z</time>
      </trkpt>
      <trkpt lat="-23.428229" lon="-45.542572">
        <ele>729.150</ele>
        <time>2020-01-19T15:01:56Z</time>
      </trkpt>
      <trkpt lat="-23.428193" lon="-45.542602">
        <ele>730.266</ele>
        <time>2020-01-19T15:02:00Z</time>
      </trkpt>
      <trkpt lat="-23.428156" lon="-45.542640">
        <ele>731.210</ele>
        <time>2020-01-19T15:02:04Z</time>
      </trkpt>
      <trkpt lat="-23.428114" lon="-45.542664">
        <ele>732.053</ele>
        <time>2020-01-19T15:02:09Z</time>
      </trkpt>
      <trkpt lat="-23.428072" lon="-45.542682">
        <ele>733.713</ele>
        <time>2020-01-19T15:02:13Z</time>
      </trkpt>
      <trkpt lat="-23.428028" lon="-45.542707">
        <ele>734.374</ele>
        <time>2020-01-19T15:02:19Z</time>
      </trkpt>
      <trkpt lat="-23.427979" lon="-45.542729">
        <ele>734.356</ele>
        <time>2020-01-19T15:02:25Z</time>
      </trkpt>
      <trkpt lat="-23.427938" lon="-45.542756">
        <ele>735.621</ele>
        <time>2020-01-19T15:02:29Z</time>
      </trkpt>
      <trkpt lat="-23.427896" lon="-45.542787">
        <ele>736.008</ele>
        <time>2020-01-19T15:02:33Z</time>
      </trkpt>
      <trkpt lat="-23.427858" lon="-45.542817">
        <ele>736.221</ele>
        <time>2020-01-19T15:02:38Z</time>
      </trkpt>
      <trkpt lat="-23.427815" lon="-45.542842">
        <ele>735.532</ele>
        <time>2020-01-19T15:02:43Z</time>
      </trkpt>
      <trkpt lat="-23.427767" lon="-45.542865">
        <ele>734.934</ele>
        <time>2020-01-19T15:02:48Z</time>
      </trkpt>
      <trkpt lat="-23.427723" lon="-45.542890">
        <ele>735.578</ele>
        <time>2020-01-19T15:02:52Z</time>
      </trkpt>
      <trkpt lat="-23.427679" lon="-45.542906">
        <ele>735.744</ele>
        <time>2020-01-19T15:02:56Z</time>
      </trkpt>
      <trkpt lat="-23.427637" lon="-45.542932">
        <ele>737.268</ele>
        <time>2020-01-19T15:03:01Z</time>
      </trkpt>
      <trkpt lat="-23.427596" lon="-45.542955">
        <ele>738.351</ele>
        <time>2020-01-19T15:03:05Z</time>
      </trkpt>
      <trkpt lat="-23.427548" lon="-45.542983">
        <ele>739.941</ele>
        <time>2020-01-19T15:03:10Z</time>
      </trkpt>
      <trkpt lat="-23.427502" lon="-45.543004">
        <ele>741.865</ele>
        <time>2020-01-19T15:03:12Z</time>
      </trkpt>
      <trkpt lat="-23.427464" lon="-45.543031">
        <ele>741.768</ele>
        <time>2020-01-19T15:03:16Z</time>
      </trkpt>
      <trkpt lat="-23.427420" lon="-45.543060">
        <ele>742.314</ele>
        <time>2020-01-19T15:03:20Z</time>
      </trkpt>
      <trkpt lat="-23.427375" lon="-45.543075">
        <ele>740.308</ele>
        <time>2020-01-19T15:03:24Z</time>
      </trkpt>
      <trkpt lat="-23.427330" lon="-45.543094">
        <ele>739.570</ele>
        <time>2020-01-19T15:03:28Z</time>
      </trkpt>
      <trkpt lat="-23.427283" lon="-45.543109">
        <ele>739.641</ele>
        <time>2020-01-19T15:03:32Z</time>
      </trkpt>
      <trkpt lat="-23.427235" lon="-45.543117">
        <ele>740.543</ele>
        <time>2020-01-19T15:03:37Z</time>
      </trkpt>
      <trkpt lat="-23.427189" lon="-45.543110">
        <ele>741.057</ele>
        <time>2020-01-19T15:03:40Z</time>
      </trkpt>
      <trkpt lat="-23.427143" lon="-45.543101">
        <ele>740.113</ele>
        <time>2020-01-19T15:03:45Z</time>
      </trkpt>
      <trkpt lat="-23.427097" lon="-45.543094">
        <ele>739.897</ele>
        <time>2020-01-19T15:03:49Z</time>
      </trkpt>
      <trkpt lat="-23.427055" lon="-45.543076">
        <ele>739.160</ele>
        <time>2020-01-19T15:03:53Z</time>
      </trkpt>
      <trkpt lat="-23.427017" lon="-45.543050">
        <ele>739.090</ele>
        <time>2020-01-19T15:03:58Z</time>
      </trkpt>
      <trkpt lat="-23.426971" lon="-45.543030">
        <ele>739.346</ele>
        <time>2020-01-19T15:04:02Z</time>
      </trkpt>
      <trkpt lat="-23.426927" lon="-45.543005">
        <ele>740.888</ele>
        <time>2020-01-19T15:04:08Z</time>
      </trkpt>
      <trkpt lat="-23.426878" lon="-45.542991">
        <ele>741.516</ele>
        <time>2020-01-19T15:04:12Z</time>
      </trkpt>
      <trkpt lat="-23.426830" lon="-45.542985">
        <ele>742.808</ele>
        <time>2020-01-19T15:04:17Z</time>
      </trkpt>
      <trkpt lat="-23.426787" lon="-45.542970">
        <ele>744.748</ele>
        <time>2020-01-19T15:04:22Z</time>
      </trkpt>
      <trkpt lat="-23.426744" lon="-45.542950">
        <ele>745.929</ele>
        <time>2020-01-19T15:04:27Z</time>
      </trkpt>
      <trkpt lat="-23.426694" lon="-45.542936">
        <ele>746.051</ele>
        <time>2020-01-19T15:04:30Z</time>
      </trkpt>
      <trkpt lat="-23.426645" lon="-45.542926">
        <ele>746.715</ele>
        <time>2020-01-19T15:04:35Z</time>
      </trkpt>
      <trkpt lat="-23.426599" lon="-45.542921">
        <ele>748.731</ele>
        <time>2020-01-19T15:04:40Z</time>
      </trkpt>
      <trkpt lat="-23.426551" lon="-45.542938">
        <ele>750.985</ele>
        <time>2020-01-19T15:04:46Z</time>
      </trkpt>
      <trkpt lat="-23.426510" lon="-45.542961">
        <ele>752.088</ele>
        <time>2020-01-19T15:04:51Z</time>
      </trkpt>
      <trkpt lat="-23.426470" lon="-45.542993">
        <ele>751.858</ele>
        <time>2020-01-19T15:04:55Z</time>
      </trkpt>
      <trkpt lat="-23.426425" lon="-45.543011">
        <ele>752.675</ele>
        <time>2020-01-19T15:05:00Z</time>
      </trkpt>
      <trkpt lat="-23.426383" lon="-45.543036">
        <ele>754.528</ele>
        <time>2020-01-19T15:05:07Z</time>
      </trkpt>
      <trkpt lat="-23.426341" lon="-45.543054">
        <ele>755.420</ele>
        <time>2020-01-19T15:05:13Z</time>
      </trkpt>
      <trkpt lat="-23.426295" lon="-45.543052">
        <ele>754.908</ele>
        <time>2020-01-19T15:05:24Z</time>
      </trkpt>
      <trkpt lat="-23.426247" lon="-45.543052">
        <ele>754.151</ele>
        <time>2020-01-19T15:05:31Z</time>
      </trkpt>
      <trkpt lat="-23.426201" lon="-45.543058">
        <ele>753.562</ele>
        <time>2020-01-19T15:05:36Z</time>
      </trkpt>
      <trkpt lat="-23.426156" lon="-45.543078">
        <ele>752.444</ele>
        <time>2020-01-19T15:05:41Z</time>
      </trkpt>
      <trkpt lat="-23.426111" lon="-45.543113">
        <ele>752.068</ele>
        <time>2020-01-19T15:05:44Z</time>
      </trkpt>
      <trkpt lat="-23.426080" lon="-45.543155">
        <ele>752.214</ele>
        <time>2020-01-19T15:05:47Z</time>
      </trkpt>
      <trkpt lat="-23.426070" lon="-45.543208">
        <ele>753.428</ele>
        <time>2020-01-19T15:05:49Z</time>
      </trkpt>
      <trkpt lat="-23.426081" lon="-45.543274">
        <ele>754.471</ele>
        <time>2020-01-19T15:05:52Z</time>
      </trkpt>
      <trkpt lat="-23.426100" lon="-45.543335">
        <ele>756.041</ele>
        <time>2020-01-19T15:05:54Z</time>
      </trkpt>
      <trkpt lat="-23.426139" lon="-45.543377">
        <ele>757.026</ele>
        <time>2020-01-19T15:05:55Z</time>
      </trkpt>
      <trkpt lat="-23.426190" lon="-45.543425">
        <ele>755.847</ele>
        <time>2020-01-19T15:05:57Z</time>
      </trkpt>
      <trkpt lat="-23.426243" lon="-45.543475">
        <ele>754.911</ele>
        <time>2020-01-19T15:05:59Z</time>
      </trkpt>
      <trkpt lat="-23.426295" lon="-45.543527">
        <ele>755.308</ele>
        <time>2020-01-19T15:06:00Z</time>
      </trkpt>
      <trkpt lat="-23.426403" lon="-45.543567">
        <ele>755.826</ele>
        <time>2020-01-19T15:06:02Z</time>
      </trkpt>
      <trkpt lat="-23.426452" lon="-45.543595">
        <ele>755.977</ele>
        <time>2020-01-19T15:06:03Z</time>
      </trkpt>
      <trkpt lat="-23.426494" lon="-45.543630">
        <ele>755.839</ele>
        <time>2020-01-19T15:06:04Z</time>
      </trkpt>
      <trkpt lat="-23.426529" lon="-45.543682">
        <ele>756.023</ele>
        <time>2020-01-19T15:06:05Z</time>
      </trkpt>
      <trkpt lat="-23.426570" lon="-45.543742">
        <ele>755.649</ele>
        <time>2020-01-19T15:06:06Z</time>
      </trkpt>
      <trkpt lat="-23.426612" lon="-45.543790">
        <ele>755.653</ele>
        <time>2020-01-19T15:06:07Z</time>
      </trkpt>
      <trkpt lat="-23.426653" lon="-45.543831">
        <ele>754.916</ele>
        <time>2020-01-19T15:06:08Z</time>
      </trkpt>
      <trkpt lat="-23.426699" lon="-45.543861">
        <ele>754.236</ele>
        <time>2020-01-19T15:06:09Z</time>
      </trkpt>
      <trkpt lat="-23.426761" lon="-45.543868">
        <ele>752.998</ele>
        <time>2020-01-19T15:06:10Z</time>
      </trkpt>
      <trkpt lat="-23.426818" lon="-45.543875">
        <ele>751.215</ele>
        <time>2020-01-19T15:06:11Z</time>
      </trkpt>
      <trkpt lat="-23.426875" lon="-45.543890">
        <ele>750.726</ele>
        <time>2020-01-19T15:06:12Z</time>
      </trkpt>
      <trkpt lat="-23.426925" lon="-45.543911">
        <ele>750.408</ele>
        <time>2020-01-19T15:06:13Z</time>
      </trkpt>
      <trkpt lat="-23.426974" lon="-45.543939">
        <ele>746.593</ele>
        <time>2020-01-19T15:06:14Z</time>
      </trkpt>
      <trkpt lat="-23.427021" lon="-45.543970">
        <ele>745.124</ele>
        <time>2020-01-19T15:06:15Z</time>
      </trkpt>
      <trkpt lat="-23.427067" lon="-45.543999">
        <ele>743.926</ele>
        <time>2020-01-19T15:06:16Z</time>
      </trkpt>
      <trkpt lat="-23.427109" lon="-45.544020">
        <ele>743.690</ele>
        <time>2020-01-19T15:06:17Z</time>
      </trkpt>
      <trkpt lat="-23.427166" lon="-45.544054">
        <ele>744.016</ele>
        <time>2020-01-19T15:06:19Z</time>
      </trkpt>
      <trkpt lat="-23.427205" lon="-45.544086">
        <ele>744.570</ele>
        <time>2020-01-19T15:06:21Z</time>
      </trkpt>
      <trkpt lat="-23.427227" lon="-45.544131">
        <ele>746.013</ele>
        <time>2020-01-19T15:06:24Z</time>
      </trkpt>
      <trkpt lat="-23.427265" lon="-45.544161">
        <ele>748.183</ele>
        <time>2020-01-19T15:06:27Z</time>
      </trkpt>
      <trkpt lat="-23.427296" lon="-45.544203">
        <ele>748.391</ele>
        <time>2020-01-19T15:06:30Z</time>
      </trkpt>
      <trkpt lat="-23.427330" lon="-45.544255">
        <ele>747.081</ele>
        <time>2020-01-19T15:06:33Z</time>
      </trkpt>
      <trkpt lat="-23.427355" lon="-45.544306">
        <ele>745.619</ele>
        <time>2020-01-19T15:06:35Z</time>
      </trkpt>
      <trkpt lat="-23.427384" lon="-45.544346">
        <ele>745.108</ele>
        <time>2020-01-19T15:06:38Z</time>
      </trkpt>
      <trkpt lat="-23.427403" lon="-45.544395">
        <ele>743.123</ele>
        <time>2020-01-19T15:06:40Z</time>
      </trkpt>
      <trkpt lat="-23.427423" lon="-45.544445">
        <ele>741.454</ele>
        <time>2020-01-19T15:06:43Z</time>
      </trkpt>
      <trkpt lat="-23.427440" lon="-45.544491">
        <ele>740.676</ele>
        <time>2020-01-19T15:06:45Z</time>
      </trkpt>
      <trkpt lat="-23.427458" lon="-45.544543">
        <ele>739.650</ele>
        <time>2020-01-19T15:06:48Z</time>
      </trkpt>
      <trkpt lat="-23.427484" lon="-45.544585">
        <ele>738.946</ele>
        <time>2020-01-19T15:06:53Z</time>
      </trkpt>
      <trkpt lat="-23.427516" lon="-45.544620">
        <ele>737.450</ele>
        <time>2020-01-19T15:06:56Z</time>
      </trkpt>
      <trkpt lat="-23.427559" lon="-45.544654">
        <ele>736.163</ele>
        <time>2020-01-19T15:07:02Z</time>
      </trkpt>
      <trkpt lat="-23.427598" lon="-45.544682">
        <ele>734.773</ele>
        <time>2020-01-19T15:07:05Z</time>
      </trkpt>
      <trkpt lat="-23.427642" lon="-45.544708">
        <ele>734.375</ele>
        <time>2020-01-19T15:07:08Z</time>
      </trkpt>
      <trkpt lat="-23.427683" lon="-45.544735">
        <ele>735.328</ele>
        <time>2020-01-19T15:07:11Z</time>
      </trkpt>
      <trkpt lat="-23.427749" lon="-45.544753">
        <ele>736.620</ele>
        <time>2020-01-19T15:07:13Z</time>
      </trkpt>
      <trkpt lat="-23.427832" lon="-45.544767">
        <ele>736.708</ele>
        <time>2020-01-19T15:07:14Z</time>
      </trkpt>
      <trkpt lat="-23.427882" lon="-45.544788">
        <ele>737.221</ele>
        <time>2020-01-19T15:07:16Z</time>
      </trkpt>
      <trkpt lat="-23.427919" lon="-45.544825">
        <ele>737.832</ele>
        <time>2020-01-19T15:07:19Z</time>
      </trkpt>
      <trkpt lat="-23.427951" lon="-45.544863">
        <ele>737.014</ele>
        <time>2020-01-19T15:07:21Z</time>
      </trkpt>
      <trkpt lat="-23.427979" lon="-45.544904">
        <ele>736.988</ele>
        <time>2020-01-19T15:07:23Z</time>
      </trkpt>
      <trkpt lat="-23.428008" lon="-45.544943">
        <ele>737.574</ele>
        <time>2020-01-19T15:07:27Z</time>
      </trkpt>
      <trkpt lat="-23.428029" lon="-45.544990">
        <ele>737.938</ele>
        <time>2020-01-19T15:07:29Z</time>
      </trkpt>
      <trkpt lat="-23.428049" lon="-45.545036">
        <ele>739.761</ele>
        <time>2020-01-19T15:07:33Z</time>
      </trkpt>
      <trkpt lat="-23.428059" lon="-45.545092">
        <ele>740.981</ele>
        <time>2020-01-19T15:07:37Z</time>
      </trkpt>
      <trkpt lat="-23.428057" lon="-45.545141">
        <ele>742.567</ele>
        <time>2020-01-19T15:07:40Z</time>
      </trkpt>
      <trkpt lat="-23.428048" lon="-45.545200">
        <ele>743.681</ele>
        <time>2020-01-19T15:07:44Z</time>
      </trkpt>
      <trkpt lat="-23.428055" lon="-45.545250">
        <ele>743.719</ele>
        <time>2020-01-19T15:07:47Z</time>
      </trkpt>
      <trkpt lat="-23.428032" lon="-45.545295">
        <ele>742.608</ele>
        <time>2020-01-19T15:07:49Z</time>
      </trkpt>
      <trkpt lat="-23.428014" lon="-45.545347">
        <ele>741.670</ele>
        <time>2020-01-19T15:07:53Z</time>
      </trkpt>
      <trkpt lat="-23.428010" lon="-45.545399">
        <ele>740.871</ele>
        <time>2020-01-19T15:07:55Z</time>
      </trkpt>
      <trkpt lat="-23.428005" lon="-45.545450">
        <ele>740.853</ele>
        <time>2020-01-19T15:07:59Z</time>
      </trkpt>
      <trkpt lat="-23.427996" lon="-45.545509">
        <ele>740.057</ele>
        <time>2020-01-19T15:08:02Z</time>
      </trkpt>
      <trkpt lat="-23.427981" lon="-45.545556">
        <ele>741.183</ele>
        <time>2020-01-19T15:08:05Z</time>
      </trkpt>
      <trkpt lat="-23.427965" lon="-45.545602">
        <ele>741.537</ele>
        <time>2020-01-19T15:08:07Z</time>
      </trkpt>
      <trkpt lat="-23.427957" lon="-45.545658">
        <ele>740.850</ele>
        <time>2020-01-19T15:08:09Z</time>
      </trkpt>
      <trkpt lat="-23.427939" lon="-45.545706">
        <ele>741.480</ele>
        <time>2020-01-19T15:08:12Z</time>
      </trkpt>
      <trkpt lat="-23.427906" lon="-45.545752">
        <ele>741.693</ele>
        <time>2020-01-19T15:08:15Z</time>
      </trkpt>
      <trkpt lat="-23.427864" lon="-45.545792">
        <ele>741.065</ele>
        <time>2020-01-19T15:08:20Z</time>
      </trkpt>
      <trkpt lat="-23.427838" lon="-45.545832">
        <ele>740.721</ele>
        <time>2020-01-19T15:08:24Z</time>
      </trkpt>
      <trkpt lat="-23.427793" lon="-45.545869">
        <ele>741.208</ele>
        <time>2020-01-19T15:08:30Z</time>
      </trkpt>
      <trkpt lat="-23.427741" lon="-45.545885">
        <ele>742.023</ele>
        <time>2020-01-19T15:08:34Z</time>
      </trkpt>
      <trkpt lat="-23.427703" lon="-45.545917">
        <ele>742.924</ele>
        <time>2020-01-19T15:08:38Z</time>
      </trkpt>
      <trkpt lat="-23.427655" lon="-45.545940">
        <ele>744.266</ele>
        <time>2020-01-19T15:08:43Z</time>
      </trkpt>
      <trkpt lat="-23.427616" lon="-45.545985">
        <ele>746.350</ele>
        <time>2020-01-19T15:08:53Z</time>
      </trkpt>
      <trkpt lat="-23.427569" lon="-45.546001">
        <ele>747.936</ele>
        <time>2020-01-19T15:08:57Z</time>
      </trkpt>
      <trkpt lat="-23.427518" lon="-45.546005">
        <ele>749.240</ele>
        <time>2020-01-19T15:09:02Z</time>
      </trkpt>
      <trkpt lat="-23.427469" lon="-45.546009">
        <ele>750.593</ele>
        <time>2020-01-19T15:09:07Z</time>
      </trkpt>
      <trkpt lat="-23.427421" lon="-45.546022">
        <ele>751.873</ele>
        <time>2020-01-19T15:09:12Z</time>
      </trkpt>
      <trkpt lat="-23.427384" lon="-45.546049">
        <ele>752.978</ele>
        <time>2020-01-19T15:09:17Z</time>
      </trkpt>
      <trkpt lat="-23.427349" lon="-45.546080">
        <ele>754.133</ele>
        <time>2020-01-19T15:09:20Z</time>
      </trkpt>
      <trkpt lat="-23.427310" lon="-45.546110">
        <ele>756.326</ele>
        <time>2020-01-19T15:09:26Z</time>
      </trkpt>
      <trkpt lat="-23.427271" lon="-45.546143">
        <ele>758.508</ele>
        <time>2020-01-19T15:09:28Z</time>
      </trkpt>
      <trkpt lat="-23.427229" lon="-45.546167">
        <ele>761.841</ele>
        <time>2020-01-19T15:09:33Z</time>
      </trkpt>
      <trkpt lat="-23.427176" lon="-45.546209">
        <ele>765.852</ele>
        <time>2020-01-19T15:09:38Z</time>
      </trkpt>
      <trkpt lat="-23.427138" lon="-45.546239">
        <ele>769.364</ele>
        <time>2020-01-19T15:09:41Z</time>
      </trkpt>
      <trkpt lat="-23.427087" lon="-45.546257">
        <ele>772.148</ele>
        <time>2020-01-19T15:09:44Z</time>
      </trkpt>
      <trkpt lat="-23.427038" lon="-45.546267">
        <ele>774.074</ele>
        <time>2020-01-19T15:09:46Z</time>
      </trkpt>
      <trkpt lat="-23.426990" lon="-45.546288">
        <ele>775.258</ele>
        <time>2020-01-19T15:09:48Z</time>
      </trkpt>
      <trkpt lat="-23.426934" lon="-45.546313">
        <ele>775.641</ele>
        <time>2020-01-19T15:09:53Z</time>
      </trkpt>
      <trkpt lat="-23.426889" lon="-45.546328">
        <ele>775.191</ele>
        <time>2020-01-19T15:09:55Z</time>
      </trkpt>
      <trkpt lat="-23.426843" lon="-45.546347">
        <ele>774.376</ele>
        <time>2020-01-19T15:09:57Z</time>
      </trkpt>
      <trkpt lat="-23.426798" lon="-45.546370">
        <ele>773.090</ele>
        <time>2020-01-19T15:10:01Z</time>
      </trkpt>
      <trkpt lat="-23.426760" lon="-45.546397">
        <ele>771.319</ele>
        <time>2020-01-19T15:10:06Z</time>
      </trkpt>
      <trkpt lat="-23.426719" lon="-45.546419">
        <ele>768.908</ele>
        <time>2020-01-19T15:10:11Z</time>
      </trkpt>
      <trkpt lat="-23.426679" lon="-45.546447">
        <ele>767.821</ele>
        <time>2020-01-19T15:10:17Z</time>
      </trkpt>
      <trkpt lat="-23.426639" lon="-45.546472">
        <ele>766.252</ele>
        <time>2020-01-19T15:10:19Z</time>
      </trkpt>
      <trkpt lat="-23.426595" lon="-45.546492">
        <ele>764.274</ele>
        <time>2020-01-19T15:10:22Z</time>
      </trkpt>
      <trkpt lat="-23.426549" lon="-45.546505">
        <ele>761.748</ele>
        <time>2020-01-19T15:10:26Z</time>
      </trkpt>
      <trkpt lat="-23.426504" lon="-45.546508">
        <ele>761.674</ele>
        <time>2020-01-19T15:10:33Z</time>
      </trkpt>
      <trkpt lat="-23.426455" lon="-45.546523">
        <ele>762.328</ele>
        <time>2020-01-19T15:10:40Z</time>
      </trkpt>
      <trkpt lat="-23.426412" lon="-45.546550">
        <ele>764.041</ele>
        <time>2020-01-19T15:10:46Z</time>
      </trkpt>
      <trkpt lat="-23.426371" lon="-45.546585">
        <ele>766.251</ele>
        <time>2020-01-19T15:10:51Z</time>
      </trkpt>
      <trkpt lat="-23.426338" lon="-45.546627">
        <ele>767.511</ele>
        <time>2020-01-19T15:10:52Z</time>
      </trkpt>
      <trkpt lat="-23.426297" lon="-45.546671">
        <ele>768.121</ele>
        <time>2020-01-19T15:10:55Z</time>
      </trkpt>
      <trkpt lat="-23.426251" lon="-45.546694">
        <ele>768.503</ele>
        <time>2020-01-19T15:11:00Z</time>
      </trkpt>
      <trkpt lat="-23.426204" lon="-45.546697">
        <ele>769.008</ele>
        <time>2020-01-19T15:11:04Z</time>
      </trkpt>
      <trkpt lat="-23.426158" lon="-45.546698">
        <ele>769.995</ele>
        <time>2020-01-19T15:11:10Z</time>
      </trkpt>
      <trkpt lat="-23.426111" lon="-45.546710">
        <ele>770.486</ele>
        <time>2020-01-19T15:11:12Z</time>
      </trkpt>
      <trkpt lat="-23.426061" lon="-45.546722">
        <ele>770.668</ele>
        <time>2020-01-19T15:11:15Z</time>
      </trkpt>
      <trkpt lat="-23.426015" lon="-45.546720">
        <ele>771.842</ele>
        <time>2020-01-19T15:11:20Z</time>
      </trkpt>
      <trkpt lat="-23.425967" lon="-45.546718">
        <ele>773.948</ele>
        <time>2020-01-19T15:11:26Z</time>
      </trkpt>
      <trkpt lat="-23.425921" lon="-45.546717">
        <ele>777.942</ele>
        <time>2020-01-19T15:11:32Z</time>
      </trkpt>
      <trkpt lat="-23.425875" lon="-45.546726">
        <ele>779.585</ele>
        <time>2020-01-19T15:11:37Z</time>
      </trkpt>
      <trkpt lat="-23.425828" lon="-45.546727">
        <ele>781.245</ele>
        <time>2020-01-19T15:11:42Z</time>
      </trkpt>
      <trkpt lat="-23.425779" lon="-45.546738">
        <ele>782.238</ele>
        <time>2020-01-19T15:11:46Z</time>
      </trkpt>
      <trkpt lat="-23.425733" lon="-45.546734">
        <ele>783.470</ele>
        <time>2020-01-19T15:11:52Z</time>
      </trkpt>
      <trkpt lat="-23.425686" lon="-45.546749">
        <ele>784.117</ele>
        <time>2020-01-19T15:11:56Z</time>
      </trkpt>
      <trkpt lat="-23.425637" lon="-45.546763">
        <ele>784.008</ele>
        <time>2020-01-19T15:12:02Z</time>
      </trkpt>
      <trkpt lat="-23.425589" lon="-45.546767">
        <ele>785.157</ele>
        <time>2020-01-19T15:12:07Z</time>
      </trkpt>
      <trkpt lat="-23.425544" lon="-45.546773">
        <ele>787.758</ele>
        <time>2020-01-19T15:12:12Z</time>
      </trkpt>
      <trkpt lat="-23.425487" lon="-45.546756">
        <ele>789.840</ele>
        <time>2020-01-19T15:12:16Z</time>
      </trkpt>
      <trkpt lat="-23.425439" lon="-45.546753">
        <ele>790.464</ele>
        <time>2020-01-19T15:12:20Z</time>
      </trkpt>
      <trkpt lat="-23.425397" lon="-45.546777">
        <ele>789.880</ele>
        <time>2020-01-19T15:12:26Z</time>
      </trkpt>
      <trkpt lat="-23.425349" lon="-45.546813">
        <ele>787.674</ele>
        <time>2020-01-19T15:12:31Z</time>
      </trkpt>
      <trkpt lat="-23.425305" lon="-45.546846">
        <ele>785.887</ele>
        <time>2020-01-19T15:12:34Z</time>
      </trkpt>
      <trkpt lat="-23.425281" lon="-45.546896">
        <ele>785.067</ele>
        <time>2020-01-19T15:12:37Z</time>
      </trkpt>
      <trkpt lat="-23.425282" lon="-45.546950">
        <ele>784.647</ele>
        <time>2020-01-19T15:12:41Z</time>
      </trkpt>
      <trkpt lat="-23.425270" lon="-45.546998">
        <ele>783.429</ele>
        <time>2020-01-19T15:12:46Z</time>
      </trkpt>
      <trkpt lat="-23.425248" lon="-45.547051">
        <ele>781.121</ele>
        <time>2020-01-19T15:12:49Z</time>
      </trkpt>
      <trkpt lat="-23.425224" lon="-45.547098">
        <ele>781.208</ele>
        <time>2020-01-19T15:12:53Z</time>
      </trkpt>
      <trkpt lat="-23.425213" lon="-45.547149">
        <ele>779.518</ele>
        <time>2020-01-19T15:12:58Z</time>
      </trkpt>
      <trkpt lat="-23.425215" lon="-45.547202">
        <ele>777.819</ele>
        <time>2020-01-19T15:13:01Z</time>
      </trkpt>
      <trkpt lat="-23.425221" lon="-45.547253">
        <ele>777.261</ele>
        <time>2020-01-19T15:13:05Z</time>
      </trkpt>
      <trkpt lat="-23.425231" lon="-45.547308">
        <ele>778.465</ele>
        <time>2020-01-19T15:13:09Z</time>
      </trkpt>
      <trkpt lat="-23.425256" lon="-45.547356">
        <ele>779.041</ele>
        <time>2020-01-19T15:13:12Z</time>
      </trkpt>
      <trkpt lat="-23.425290" lon="-45.547395">
        <ele>778.055</ele>
        <time>2020-01-19T15:13:17Z</time>
      </trkpt>
      <trkpt lat="-23.425314" lon="-45.547445">
        <ele>776.878</ele>
        <time>2020-01-19T15:13:20Z</time>
      </trkpt>
      <trkpt lat="-23.425332" lon="-45.547498">
        <ele>776.618</ele>
        <time>2020-01-19T15:13:22Z</time>
      </trkpt>
      <trkpt lat="-23.425352" lon="-45.547549">
        <ele>776.129</ele>
        <time>2020-01-19T15:13:25Z</time>
      </trkpt>
      <trkpt lat="-23.425375" lon="-45.547597">
        <ele>777.000</ele>
        <time>2020-01-19T15:13:30Z</time>
      </trkpt>
      <trkpt lat="-23.425395" lon="-45.547642">
        <ele>776.120</ele>
        <time>2020-01-19T15:13:33Z</time>
      </trkpt>
      <trkpt lat="-23.425404" lon="-45.547691">
        <ele>775.908</ele>
        <time>2020-01-19T15:13:36Z</time>
      </trkpt>
      <trkpt lat="-23.425414" lon="-45.547760">
        <ele>775.296</ele>
        <time>2020-01-19T15:13:39Z</time>
      </trkpt>
      <trkpt lat="-23.425415" lon="-45.547823">
        <ele>775.067</ele>
        <time>2020-01-19T15:13:40Z</time>
      </trkpt>
      <trkpt lat="-23.425405" lon="-45.547873">
        <ele>775.369</ele>
        <time>2020-01-19T15:13:43Z</time>
      </trkpt>
      <trkpt lat="-23.425375" lon="-45.547919">
        <ele>775.533</ele>
        <time>2020-01-19T15:13:48Z</time>
      </trkpt>
      <trkpt lat="-23.425329" lon="-45.547913">
        <ele>774.999</ele>
        <time>2020-01-19T15:13:53Z</time>
      </trkpt>
      <trkpt lat="-23.425280" lon="-45.547906">
        <ele>774.793</ele>
        <time>2020-01-19T15:13:59Z</time>
      </trkpt>
      <trkpt lat="-23.425234" lon="-45.547908">
        <ele>775.936</ele>
        <time>2020-01-19T15:14:05Z</time>
      </trkpt>
      <trkpt lat="-23.425190" lon="-45.547932">
        <ele>777.786</ele>
        <time>2020-01-19T15:14:09Z</time>
      </trkpt>
      <trkpt lat="-23.425142" lon="-45.547954">
        <ele>778.961</ele>
        <time>2020-01-19T15:14:14Z</time>
      </trkpt>
      <trkpt lat="-23.425096" lon="-45.547983">
        <ele>780.821</ele>
        <time>2020-01-19T15:14:16Z</time>
      </trkpt>
      <trkpt lat="-23.425053" lon="-45.548003">
        <ele>783.013</ele>
        <time>2020-01-19T15:14:18Z</time>
      </trkpt>
      <trkpt lat="-23.425009" lon="-45.548017">
        <ele>783.908</ele>
        <time>2020-01-19T15:14:23Z</time>
      </trkpt>
      <trkpt lat="-23.424964" lon="-45.548022">
        <ele>784.840</ele>
        <time>2020-01-19T15:14:28Z</time>
      </trkpt>
      <trkpt lat="-23.424919" lon="-45.548029">
        <ele>783.941</ele>
        <time>2020-01-19T15:14:33Z</time>
      </trkpt>
      <trkpt lat="-23.424863" lon="-45.548044">
        <ele>784.393</ele>
        <time>2020-01-19T15:14:37Z</time>
      </trkpt>
      <trkpt lat="-23.424813" lon="-45.548061">
        <ele>785.057</ele>
        <time>2020-01-19T15:14:39Z</time>
      </trkpt>
      <trkpt lat="-23.424770" lon="-45.548079">
        <ele>785.053</ele>
        <time>2020-01-19T15:14:41Z</time>
      </trkpt>
      <trkpt lat="-23.424724" lon="-45.548089">
        <ele>785.077</ele>
        <time>2020-01-19T15:14:44Z</time>
      </trkpt>
      <trkpt lat="-23.424669" lon="-45.548087">
        <ele>787.650</ele>
        <time>2020-01-19T15:14:50Z</time>
      </trkpt>
      <trkpt lat="-23.424618" lon="-45.548083">
        <ele>789.540</ele>
        <time>2020-01-19T15:14:52Z</time>
      </trkpt>
      <trkpt lat="-23.424570" lon="-45.548080">
        <ele>791.075</ele>
        <time>2020-01-19T15:14:57Z</time>
      </trkpt>
      <trkpt lat="-23.424525" lon="-45.548086">
        <ele>791.628</ele>
        <time>2020-01-19T15:15:01Z</time>
      </trkpt>
      <trkpt lat="-23.424479" lon="-45.548088">
        <ele>794.220</ele>
        <time>2020-01-19T15:15:19Z</time>
      </trkpt>
      <trkpt lat="-23.424434" lon="-45.548085">
        <ele>795.508</ele>
        <time>2020-01-19T15:15:29Z</time>
      </trkpt>
      <trkpt lat="-23.424373" lon="-45.548064">
        <ele>794.831</ele>
        <time>2020-01-19T15:15:37Z</time>
      </trkpt>
      <trkpt lat="-23.424350" lon="-45.548018">
        <ele>797.672</ele>
        <time>2020-01-19T15:17:51Z</time>
      </trkpt>
      <trkpt lat="-23.424300" lon="-45.547995">
        <ele>799.984</ele>
        <time>2020-01-19T15:17:54Z</time>
      </trkpt>
      <trkpt lat="-23.424258" lon="-45.547976">
        <ele>801.148</ele>
        <time>2020-01-19T15:17:57Z</time>
      </trkpt>
      <trkpt lat="-23.424179" lon="-45.547889">
        <ele>801.274</ele>
        <time>2020-01-19T15:17:58Z</time>
      </trkpt>
      <trkpt lat="-23.424116" lon="-45.547755">
        <ele>800.858</ele>
        <time>2020-01-19T15:18:00Z</time>
      </trkpt>
      <trkpt lat="-23.424101" lon="-45.547683">
        <ele>799.521</ele>
        <time>2020-01-19T15:18:01Z</time>
      </trkpt>
      <trkpt lat="-23.424098" lon="-45.547612">
        <ele>798.211</ele>
        <time>2020-01-19T15:18:02Z</time>
      </trkpt>
      <trkpt lat="-23.424107" lon="-45.547543">
        <ele>797.822</ele>
        <time>2020-01-19T15:18:03Z</time>
      </trkpt>
      <trkpt lat="-23.424123" lon="-45.547477">
        <ele>797.862</ele>
        <time>2020-01-19T15:18:04Z</time>
      </trkpt>
      <trkpt lat="-23.424133" lon="-45.547421">
        <ele>797.508</ele>
        <time>2020-01-19T15:18:05Z</time>
      </trkpt>
      <trkpt lat="-23.424149" lon="-45.547373">
        <ele>796.808</ele>
        <time>2020-01-19T15:18:06Z</time>
      </trkpt>
      <trkpt lat="-23.424156" lon="-45.547307">
        <ele>796.656</ele>
        <time>2020-01-19T15:18:07Z</time>
      </trkpt>
      <trkpt lat="-23.424168" lon="-45.547243">
        <ele>796.927</ele>
        <time>2020-01-19T15:18:10Z</time>
      </trkpt>
      <trkpt lat="-23.424136" lon="-45.547122">
        <ele>797.219</ele>
        <time>2020-01-19T15:18:13Z</time>
      </trkpt>
      <trkpt lat="-23.424140" lon="-45.547069">
        <ele>796.633</ele>
        <time>2020-01-19T15:18:19Z</time>
      </trkpt>
      <trkpt lat="-23.424034" lon="-45.546855">
        <ele>795.489</ele>
        <time>2020-01-19T15:18:20Z</time>
      </trkpt>
      <trkpt lat="-23.423967" lon="-45.546731">
        <ele>793.913</ele>
        <time>2020-01-19T15:18:21Z</time>
      </trkpt>
      <trkpt lat="-23.423926" lon="-45.546660">
        <ele>792.796</ele>
        <time>2020-01-19T15:18:23Z</time>
      </trkpt>
      <trkpt lat="-23.423895" lon="-45.546615">
        <ele>792.226</ele>
        <time>2020-01-19T15:18:25Z</time>
      </trkpt>
      <trkpt lat="-23.423868" lon="-45.546571">
        <ele>791.546</ele>
        <time>2020-01-19T15:18:27Z</time>
      </trkpt>
      <trkpt lat="-23.423833" lon="-45.546523">
        <ele>791.088</ele>
        <time>2020-01-19T15:18:31Z</time>
      </trkpt>
      <trkpt lat="-23.423805" lon="-45.546474">
        <ele>790.416</ele>
        <time>2020-01-19T15:18:34Z</time>
      </trkpt>
      <trkpt lat="-23.423778" lon="-45.546432">
        <ele>790.008</ele>
        <time>2020-01-19T15:18:37Z</time>
      </trkpt>
      <trkpt lat="-23.423756" lon="-45.546384">
        <ele>789.938</ele>
        <time>2020-01-19T15:18:39Z</time>
      </trkpt>
      <trkpt lat="-23.423723" lon="-45.546331">
        <ele>789.719</ele>
        <time>2020-01-19T15:18:41Z</time>
      </trkpt>
      <trkpt lat="-23.423701" lon="-45.546287">
        <ele>788.981</ele>
        <time>2020-01-19T15:18:42Z</time>
      </trkpt>
      <trkpt lat="-23.423674" lon="-45.546240">
        <ele>788.515</ele>
        <time>2020-01-19T15:18:44Z</time>
      </trkpt>
      <trkpt lat="-23.423625" lon="-45.546202">
        <ele>788.261</ele>
        <time>2020-01-19T15:18:45Z</time>
      </trkpt>
      <trkpt lat="-23.423568" lon="-45.546172">
        <ele>788.065</ele>
        <time>2020-01-19T15:18:47Z</time>
      </trkpt>
      <trkpt lat="-23.423453" lon="-45.546139">
        <ele>787.738</ele>
        <time>2020-01-19T15:18:49Z</time>
      </trkpt>
      <trkpt lat="-23.423411" lon="-45.546116">
        <ele>787.518</ele>
        <time>2020-01-19T15:18:50Z</time>
      </trkpt>
      <trkpt lat="-23.423370" lon="-45.546095">
        <ele>787.213</ele>
        <time>2020-01-19T15:18:51Z</time>
      </trkpt>
      <trkpt lat="-23.423289" lon="-45.546042">
        <ele>786.443</ele>
        <time>2020-01-19T15:18:53Z</time>
      </trkpt>
      <trkpt lat="-23.423247" lon="-45.546015">
        <ele>785.907</ele>
        <time>2020-01-19T15:18:54Z</time>
      </trkpt>
      <trkpt lat="-23.423209" lon="-45.545987">
        <ele>785.708</ele>
        <time>2020-01-19T15:18:55Z</time>
      </trkpt>
      <trkpt lat="-23.423134" lon="-45.545935">
        <ele>785.595</ele>
        <time>2020-01-19T15:18:57Z</time>
      </trkpt>
      <trkpt lat="-23.423052" lon="-45.545889">
        <ele>786.726</ele>
        <time>2020-01-19T15:18:59Z</time>
      </trkpt>
      <trkpt lat="-23.423005" lon="-45.545860">
        <ele>788.078</ele>
        <time>2020-01-19T15:19:01Z</time>
      </trkpt>
      <trkpt lat="-23.422942" lon="-45.545844">
        <ele>788.282</ele>
        <time>2020-01-19T15:19:02Z</time>
      </trkpt>
      <trkpt lat="-23.422888" lon="-45.545821">
        <ele>788.428</ele>
        <time>2020-01-19T15:19:04Z</time>
      </trkpt>
      <trkpt lat="-23.422833" lon="-45.545778">
        <ele>788.632</ele>
        <time>2020-01-19T15:19:05Z</time>
      </trkpt>
      <trkpt lat="-23.422780" lon="-45.545749">
        <ele>789.085</ele>
        <time>2020-01-19T15:19:07Z</time>
      </trkpt>
      <trkpt lat="-23.422738" lon="-45.545730">
        <ele>789.165</ele>
        <time>2020-01-19T15:19:08Z</time>
      </trkpt>
      <trkpt lat="-23.422697" lon="-45.545710">
        <ele>788.859</ele>
        <time>2020-01-19T15:19:09Z</time>
      </trkpt>
      <trkpt lat="-23.422654" lon="-45.545687">
        <ele>789.803</ele>
        <time>2020-01-19T15:19:11Z</time>
      </trkpt>
      <trkpt lat="-23.422607" lon="-45.545662">
        <ele>790.723</ele>
        <time>2020-01-19T15:19:13Z</time>
      </trkpt>
      <trkpt lat="-23.422562" lon="-45.545640">
        <ele>791.708</ele>
        <time>2020-01-19T15:19:16Z</time>
      </trkpt>
      <trkpt lat="-23.422520" lon="-45.545615">
        <ele>793.259</ele>
        <time>2020-01-19T15:19:19Z</time>
      </trkpt>
      <trkpt lat="-23.422477" lon="-45.545587">
        <ele>793.760</ele>
        <time>2020-01-19T15:19:22Z</time>
      </trkpt>
      <trkpt lat="-23.422413" lon="-45.545548">
        <ele>793.982</ele>
        <time>2020-01-19T15:19:24Z</time>
      </trkpt>
      <trkpt lat="-23.422345" lon="-45.545507">
        <ele>793.846</ele>
        <time>2020-01-19T15:19:25Z</time>
      </trkpt>
      <trkpt lat="-23.422284" lon="-45.545467">
        <ele>794.092</ele>
        <time>2020-01-19T15:19:26Z</time>
      </trkpt>
      <trkpt lat="-23.422212" lon="-45.545423">
        <ele>793.586</ele>
        <time>2020-01-19T15:19:28Z</time>
      </trkpt>
      <trkpt lat="-23.422159" lon="-45.545377">
        <ele>792.269</ele>
        <time>2020-01-19T15:19:29Z</time>
      </trkpt>
      <trkpt lat="-23.422130" lon="-45.545332">
        <ele>791.629</ele>
        <time>2020-01-19T15:19:30Z</time>
      </trkpt>
      <trkpt lat="-23.422103" lon="-45.545287">
        <ele>791.754</ele>
        <time>2020-01-19T15:19:32Z</time>
      </trkpt>
      <trkpt lat="-23.422052" lon="-45.545224">
        <ele>791.656</ele>
        <time>2020-01-19T15:19:34Z</time>
      </trkpt>
      <trkpt lat="-23.422018" lon="-45.545183">
        <ele>792.211</ele>
        <time>2020-01-19T15:19:35Z</time>
      </trkpt>
      <trkpt lat="-23.421981" lon="-45.545149">
        <ele>788.208</ele>
        <time>2020-01-19T15:19:37Z</time>
      </trkpt>
      <trkpt lat="-23.421944" lon="-45.545116">
        <ele>784.219</ele>
        <time>2020-01-19T15:19:38Z</time>
      </trkpt>
      <trkpt lat="-23.421898" lon="-45.545077">
        <ele>780.250</ele>
        <time>2020-01-19T15:19:40Z</time>
      </trkpt>
      <trkpt lat="-23.421861" lon="-45.545045">
        <ele>778.832</ele>
        <time>2020-01-19T15:19:42Z</time>
      </trkpt>
      <trkpt lat="-23.421813" lon="-45.545017">
        <ele>780.546</ele>
        <time>2020-01-19T15:19:45Z</time>
      </trkpt>
      <trkpt lat="-23.421766" lon="-45.545007">
        <ele>782.532</ele>
        <time>2020-01-19T15:19:48Z</time>
      </trkpt>
      <trkpt lat="-23.421683" lon="-45.544996">
        <ele>783.726</ele>
        <time>2020-01-19T15:19:49Z</time>
      </trkpt>
      <trkpt lat="-23.421591" lon="-45.545000">
        <ele>784.569</ele>
        <time>2020-01-19T15:19:51Z</time>
      </trkpt>
      <trkpt lat="-23.421508" lon="-45.545016">
        <ele>786.619</ele>
        <time>2020-01-19T15:19:53Z</time>
      </trkpt>
      <trkpt lat="-23.421422" lon="-45.545032">
        <ele>787.283</ele>
        <time>2020-01-19T15:19:55Z</time>
      </trkpt>
      <trkpt lat="-23.421280" lon="-45.545000">
        <ele>786.825</ele>
        <time>2020-01-19T15:19:57Z</time>
      </trkpt>
      <trkpt lat="-23.421245" lon="-45.544967">
        <ele>787.717</ele>
        <time>2020-01-19T15:20:00Z</time>
      </trkpt>
      <trkpt lat="-23.421199" lon="-45.544988">
        <ele>787.708</ele>
        <time>2020-01-19T15:20:02Z</time>
      </trkpt>
      <trkpt lat="-23.420943" lon="-45.545036">
        <ele>786.732</ele>
        <time>2020-01-19T15:20:04Z</time>
      </trkpt>
      <trkpt lat="-23.420836" lon="-45.545042">
        <ele>785.873</ele>
        <time>2020-01-19T15:20:05Z</time>
      </trkpt>
      <trkpt lat="-23.420744" lon="-45.545019">
        <ele>783.555</ele>
        <time>2020-01-19T15:20:06Z</time>
      </trkpt>
      <trkpt lat="-23.420669" lon="-45.544976">
        <ele>781.949</ele>
        <time>2020-01-19T15:20:07Z</time>
      </trkpt>
      <trkpt lat="-23.420607" lon="-45.544918">
        <ele>781.585</ele>
        <time>2020-01-19T15:20:08Z</time>
      </trkpt>
      <trkpt lat="-23.420560" lon="-45.544859">
        <ele>781.259</ele>
        <time>2020-01-19T15:20:09Z</time>
      </trkpt>
      <trkpt lat="-23.420533" lon="-45.544802">
        <ele>780.892</ele>
        <time>2020-01-19T15:20:10Z</time>
      </trkpt>
      <trkpt lat="-23.420517" lon="-45.544754">
        <ele>781.132</ele>
        <time>2020-01-19T15:20:11Z</time>
      </trkpt>
      <trkpt lat="-23.420529" lon="-45.544701">
        <ele>780.224</ele>
        <time>2020-01-19T15:20:13Z</time>
      </trkpt>
      <trkpt lat="-23.420502" lon="-45.544653">
        <ele>779.604</ele>
        <time>2020-01-19T15:20:14Z</time>
      </trkpt>
      <trkpt lat="-23.420449" lon="-45.544601">
        <ele>779.814</ele>
        <time>2020-01-19T15:20:15Z</time>
      </trkpt>
      <trkpt lat="-23.420397" lon="-45.544564">
        <ele>778.608</ele>
        <time>2020-01-19T15:20:17Z</time>
      </trkpt>
      <trkpt lat="-23.420347" lon="-45.544530">
        <ele>776.056</ele>
        <time>2020-01-19T15:20:18Z</time>
      </trkpt>
      <trkpt lat="-23.420302" lon="-45.544500">
        <ele>774.167</ele>
        <time>2020-01-19T15:20:20Z</time>
      </trkpt>
      <trkpt lat="-23.420233" lon="-45.544462">
        <ele>772.749</ele>
        <time>2020-01-19T15:20:22Z</time>
      </trkpt>
      <trkpt lat="-23.420182" lon="-45.544418">
        <ele>771.923</ele>
        <time>2020-01-19T15:20:24Z</time>
      </trkpt>
      <trkpt lat="-23.420108" lon="-45.544359">
        <ele>771.199</ele>
        <time>2020-01-19T15:20:26Z</time>
      </trkpt>
      <trkpt lat="-23.420058" lon="-45.544318">
        <ele>770.813</ele>
        <time>2020-01-19T15:20:28Z</time>
      </trkpt>
      <trkpt lat="-23.420006" lon="-45.544254">
        <ele>770.736</ele>
        <time>2020-01-19T15:20:29Z</time>
      </trkpt>
      <trkpt lat="-23.419962" lon="-45.544187">
        <ele>770.526</ele>
        <time>2020-01-19T15:20:31Z</time>
      </trkpt>
      <trkpt lat="-23.419938" lon="-45.544145">
        <ele>770.245</ele>
        <time>2020-01-19T15:20:32Z</time>
      </trkpt>
      <trkpt lat="-23.419913" lon="-45.544080">
        <ele>769.847</ele>
        <time>2020-01-19T15:20:34Z</time>
      </trkpt>
      <trkpt lat="-23.419889" lon="-45.544005">
        <ele>769.411</ele>
        <time>2020-01-19T15:20:36Z</time>
      </trkpt>
      <trkpt lat="-23.419887" lon="-45.543950">
        <ele>769.208</ele>
        <time>2020-01-19T15:20:37Z</time>
      </trkpt>
      <trkpt lat="-23.419893" lon="-45.543899">
        <ele>768.938</ele>
        <time>2020-01-19T15:20:39Z</time>
      </trkpt>
      <trkpt lat="-23.419907" lon="-45.543845">
        <ele>768.739</ele>
        <time>2020-01-19T15:20:41Z</time>
      </trkpt>
      <trkpt lat="-23.419916" lon="-45.543796">
        <ele>769.051</ele>
        <time>2020-01-19T15:20:42Z</time>
      </trkpt>
      <trkpt lat="-23.419920" lon="-45.543735">
        <ele>769.335</ele>
        <time>2020-01-19T15:20:44Z</time>
      </trkpt>
      <trkpt lat="-23.419914" lon="-45.543673">
        <ele>768.611</ele>
        <time>2020-01-19T15:20:47Z</time>
      </trkpt>
      <trkpt lat="-23.419890" lon="-45.543614">
        <ele>767.865</ele>
        <time>2020-01-19T15:20:50Z</time>
      </trkpt>
      <trkpt lat="-23.419869" lon="-45.543558">
        <ele>767.398</ele>
        <time>2020-01-19T15:20:51Z</time>
      </trkpt>
      <trkpt lat="-23.419855" lon="-45.543499">
        <ele>766.558</ele>
        <time>2020-01-19T15:20:54Z</time>
      </trkpt>
      <trkpt lat="-23.419860" lon="-45.543440">
        <ele>766.513</ele>
        <time>2020-01-19T15:20:57Z</time>
      </trkpt>
      <trkpt lat="-23.419876" lon="-45.543388">
        <ele>766.343</ele>
        <time>2020-01-19T15:21:00Z</time>
      </trkpt>
      <trkpt lat="-23.419906" lon="-45.543346">
        <ele>765.307</ele>
        <time>2020-01-19T15:21:04Z</time>
      </trkpt>
      <trkpt lat="-23.419930" lon="-45.543294">
        <ele>764.208</ele>
        <time>2020-01-19T15:21:06Z</time>
      </trkpt>
      <trkpt lat="-23.419935" lon="-45.543235">
        <ele>763.285</ele>
        <time>2020-01-19T15:21:10Z</time>
      </trkpt>
      <trkpt lat="-23.419927" lon="-45.543187">
        <ele>762.576</ele>
        <time>2020-01-19T15:21:14Z</time>
      </trkpt>
      <trkpt lat="-23.419906" lon="-45.543137">
        <ele>761.328</ele>
        <time>2020-01-19T15:21:20Z</time>
      </trkpt>
      <trkpt lat="-23.419892" lon="-45.543082">
        <ele>761.432</ele>
        <time>2020-01-19T15:21:23Z</time>
      </trkpt>
      <trkpt lat="-23.419887" lon="-45.543030">
        <ele>761.438</ele>
        <time>2020-01-19T15:21:26Z</time>
      </trkpt>
      <trkpt lat="-23.419887" lon="-45.542978">
        <ele>761.132</ele>
        <time>2020-01-19T15:21:28Z</time>
      </trkpt>
      <trkpt lat="-23.419895" lon="-45.542927">
        <ele>761.325</ele>
        <time>2020-01-19T15:21:31Z</time>
      </trkpt>
      <trkpt lat="-23.419910" lon="-45.542876">
        <ele>762.095</ele>
        <time>2020-01-19T15:21:34Z</time>
      </trkpt>
      <trkpt lat="-23.419916" lon="-45.542826">
        <ele>762.698</ele>
        <time>2020-01-19T15:21:36Z</time>
      </trkpt>
      <trkpt lat="-23.419930" lon="-45.542773">
        <ele>762.615</ele>
        <time>2020-01-19T15:21:39Z</time>
      </trkpt>
      <trkpt lat="-23.419937" lon="-45.542716">
        <ele>763.726</ele>
        <time>2020-01-19T15:21:41Z</time>
      </trkpt>
      <trkpt lat="-23.419944" lon="-45.542664">
        <ele>764.508</ele>
        <time>2020-01-19T15:21:44Z</time>
      </trkpt>
      <trkpt lat="-23.419941" lon="-45.542602">
        <ele>765.323</ele>
        <time>2020-01-19T15:21:47Z</time>
      </trkpt>
      <trkpt lat="-23.419925" lon="-45.542553">
        <ele>766.284</ele>
        <time>2020-01-19T15:21:50Z</time>
      </trkpt>
      <trkpt lat="-23.419907" lon="-45.542494">
        <ele>767.036</ele>
        <time>2020-01-19T15:21:52Z</time>
      </trkpt>
      <trkpt lat="-23.419893" lon="-45.542439">
        <ele>768.040</ele>
        <time>2020-01-19T15:21:54Z</time>
      </trkpt>
      <trkpt lat="-23.419877" lon="-45.542389">
        <ele>768.686</ele>
        <time>2020-01-19T15:21:56Z</time>
      </trkpt>
      <trkpt lat="-23.419836" lon="-45.542349">
        <ele>768.780</ele>
        <time>2020-01-19T15:21:57Z</time>
      </trkpt>
      <trkpt lat="-23.419790" lon="-45.542324">
        <ele>769.153</ele>
        <time>2020-01-19T15:21:59Z</time>
      </trkpt>
      <trkpt lat="-23.419725" lon="-45.542307">
        <ele>769.783</ele>
        <time>2020-01-19T15:22:01Z</time>
      </trkpt>
      <trkpt lat="-23.419670" lon="-45.542313">
        <ele>770.585</ele>
        <time>2020-01-19T15:22:02Z</time>
      </trkpt>
      <trkpt lat="-23.419617" lon="-45.542332">
        <ele>771.189</ele>
        <time>2020-01-19T15:22:04Z</time>
      </trkpt>
      <trkpt lat="-23.419561" lon="-45.542366">
        <ele>771.517</ele>
        <time>2020-01-19T15:22:05Z</time>
      </trkpt>
      <trkpt lat="-23.419502" lon="-45.542403">
        <ele>771.508</ele>
        <time>2020-01-19T15:22:07Z</time>
      </trkpt>
      <trkpt lat="-23.419382" lon="-45.542471">
        <ele>771.372</ele>
        <time>2020-01-19T15:22:09Z</time>
      </trkpt>
      <trkpt lat="-23.419327" lon="-45.542489">
        <ele>771.033</ele>
        <time>2020-01-19T15:22:10Z</time>
      </trkpt>
      <trkpt lat="-23.419269" lon="-45.542506">
        <ele>770.845</ele>
        <time>2020-01-19T15:22:11Z</time>
      </trkpt>
      <trkpt lat="-23.419206" lon="-45.542520">
        <ele>770.449</ele>
        <time>2020-01-19T15:22:12Z</time>
      </trkpt>
      <trkpt lat="-23.419144" lon="-45.542534">
        <ele>770.195</ele>
        <time>2020-01-19T15:22:13Z</time>
      </trkpt>
      <trkpt lat="-23.419083" lon="-45.542549">
        <ele>769.969</ele>
        <time>2020-01-19T15:22:14Z</time>
      </trkpt>
      <trkpt lat="-23.419019" lon="-45.542567">
        <ele>769.752</ele>
        <time>2020-01-19T15:22:15Z</time>
      </trkpt>
      <trkpt lat="-23.418958" lon="-45.542588">
        <ele>769.482</ele>
        <time>2020-01-19T15:22:16Z</time>
      </trkpt>
      <trkpt lat="-23.418901" lon="-45.542608">
        <ele>769.072</ele>
        <time>2020-01-19T15:22:17Z</time>
      </trkpt>
      <trkpt lat="-23.418840" lon="-45.542629">
        <ele>768.813</ele>
        <time>2020-01-19T15:22:18Z</time>
      </trkpt>
      <trkpt lat="-23.418781" lon="-45.542649">
        <ele>768.714</ele>
        <time>2020-01-19T15:22:19Z</time>
      </trkpt>
      <trkpt lat="-23.418723" lon="-45.542670">
        <ele>768.608</ele>
        <time>2020-01-19T15:22:20Z</time>
      </trkpt>
      <trkpt lat="-23.418665" lon="-45.542693">
        <ele>768.351</ele>
        <time>2020-01-19T15:22:21Z</time>
      </trkpt>
      <trkpt lat="-23.418607" lon="-45.542718">
        <ele>768.072</ele>
        <time>2020-01-19T15:22:22Z</time>
      </trkpt>
      <trkpt lat="-23.418552" lon="-45.542748">
        <ele>767.794</ele>
        <time>2020-01-19T15:22:23Z</time>
      </trkpt>
      <trkpt lat="-23.418495" lon="-45.542781">
        <ele>767.068</ele>
        <time>2020-01-19T15:22:24Z</time>
      </trkpt>
      <trkpt lat="-23.418441" lon="-45.542817">
        <ele>766.584</ele>
        <time>2020-01-19T15:22:25Z</time>
      </trkpt>
      <trkpt lat="-23.418389" lon="-45.542859">
        <ele>765.898</ele>
        <time>2020-01-19T15:22:26Z</time>
      </trkpt>
      <trkpt lat="-23.418340" lon="-45.542906">
        <ele>765.431</ele>
        <time>2020-01-19T15:22:27Z</time>
      </trkpt>
      <trkpt lat="-23.418293" lon="-45.542955">
        <ele>764.911</ele>
        <time>2020-01-19T15:22:28Z</time>
      </trkpt>
      <trkpt lat="-23.418250" lon="-45.543005">
        <ele>764.386</ele>
        <time>2020-01-19T15:22:29Z</time>
      </trkpt>
      <trkpt lat="-23.418208" lon="-45.543056">
        <ele>763.860</ele>
        <time>2020-01-19T15:22:30Z</time>
      </trkpt>
      <trkpt lat="-23.418169" lon="-45.543106">
        <ele>763.426</ele>
        <time>2020-01-19T15:22:31Z</time>
      </trkpt>
      <trkpt lat="-23.418127" lon="-45.543150">
        <ele>762.508</ele>
        <time>2020-01-19T15:22:32Z</time>
      </trkpt>
      <trkpt lat="-23.418093" lon="-45.543204">
        <ele>762.532</ele>
        <time>2020-01-19T15:22:33Z</time>
      </trkpt>
      <trkpt lat="-23.418061" lon="-45.543262">
        <ele>762.393</ele>
        <time>2020-01-19T15:22:34Z</time>
      </trkpt>
      <trkpt lat="-23.418028" lon="-45.543324">
        <ele>763.165</ele>
        <time>2020-01-19T15:22:35Z</time>
      </trkpt>
      <trkpt lat="-23.417991" lon="-45.543382">
        <ele>763.769</ele>
        <time>2020-01-19T15:22:36Z</time>
      </trkpt>
      <trkpt lat="-23.417949" lon="-45.543434">
        <ele>763.735</ele>
        <time>2020-01-19T15:22:37Z</time>
      </trkpt>
      <trkpt lat="-23.417897" lon="-45.543485">
        <ele>763.459</ele>
        <time>2020-01-19T15:22:38Z</time>
      </trkpt>
      <trkpt lat="-23.417847" lon="-45.543538">
        <ele>763.172</ele>
        <time>2020-01-19T15:22:39Z</time>
      </trkpt>
      <trkpt lat="-23.417802" lon="-45.543588">
        <ele>762.692</ele>
        <time>2020-01-19T15:22:40Z</time>
      </trkpt>
      <trkpt lat="-23.417754" lon="-45.543641">
        <ele>762.242</ele>
        <time>2020-01-19T15:22:41Z</time>
      </trkpt>
      <trkpt lat="-23.417709" lon="-45.543693">
        <ele>762.122</ele>
        <time>2020-01-19T15:22:42Z</time>
      </trkpt>
      <trkpt lat="-23.417660" lon="-45.543742">
        <ele>761.714</ele>
        <time>2020-01-19T15:22:43Z</time>
      </trkpt>
      <trkpt lat="-23.417605" lon="-45.543792">
        <ele>761.208</ele>
        <time>2020-01-19T15:22:44Z</time>
      </trkpt>
      <trkpt lat="-23.417550" lon="-45.543842">
        <ele>761.138</ele>
        <time>2020-01-19T15:22:45Z</time>
      </trkpt>
      <trkpt lat="-23.417497" lon="-45.543889">
        <ele>761.259</ele>
        <time>2020-01-19T15:22:46Z</time>
      </trkpt>
      <trkpt lat="-23.417445" lon="-45.543930">
        <ele>760.881</ele>
        <time>2020-01-19T15:22:47Z</time>
      </trkpt>
      <trkpt lat="-23.417388" lon="-45.543971">
        <ele>760.715</ele>
        <time>2020-01-19T15:22:48Z</time>
      </trkpt>
      <trkpt lat="-23.417329" lon="-45.544003">
        <ele>760.421</ele>
        <time>2020-01-19T15:22:49Z</time>
      </trkpt>
      <trkpt lat="-23.417272" lon="-45.544032">
        <ele>760.215</ele>
        <time>2020-01-19T15:22:50Z</time>
      </trkpt>
      <trkpt lat="-23.417214" lon="-45.544056">
        <ele>759.678</ele>
        <time>2020-01-19T15:22:51Z</time>
      </trkpt>
      <trkpt lat="-23.417156" lon="-45.544079">
        <ele>759.118</ele>
        <time>2020-01-19T15:22:52Z</time>
      </trkpt>
      <trkpt lat="-23.417093" lon="-45.544092">
        <ele>758.848</ele>
        <time>2020-01-19T15:22:53Z</time>
      </trkpt>
      <trkpt lat="-23.417037" lon="-45.544095">
        <ele>758.561</ele>
        <time>2020-01-19T15:22:54Z</time>
      </trkpt>
      <trkpt lat="-23.416985" lon="-45.544091">
        <ele>757.517</ele>
        <time>2020-01-19T15:22:55Z</time>
      </trkpt>
      <trkpt lat="-23.416928" lon="-45.544088">
        <ele>755.708</ele>
        <time>2020-01-19T15:22:56Z</time>
      </trkpt>
      <trkpt lat="-23.416872" lon="-45.544082">
        <ele>755.158</ele>
        <time>2020-01-19T15:22:57Z</time>
      </trkpt>
      <trkpt lat="-23.416817" lon="-45.544069">
        <ele>754.859</ele>
        <time>2020-01-19T15:22:58Z</time>
      </trkpt>
      <trkpt lat="-23.416758" lon="-45.544050">
        <ele>754.591</ele>
        <time>2020-01-19T15:22:59Z</time>
      </trkpt>
      <trkpt lat="-23.416702" lon="-45.544025">
        <ele>753.855</ele>
        <time>2020-01-19T15:23:00Z</time>
      </trkpt>
      <trkpt lat="-23.416651" lon="-45.543998">
        <ele>753.271</ele>
        <time>2020-01-19T15:23:01Z</time>
      </trkpt>
      <trkpt lat="-23.416606" lon="-45.543965">
        <ele>752.815</ele>
        <time>2020-01-19T15:23:02Z</time>
      </trkpt>
      <trkpt lat="-23.416569" lon="-45.543927">
        <ele>752.198</ele>
        <time>2020-01-19T15:23:03Z</time>
      </trkpt>
      <trkpt lat="-23.416536" lon="-45.543881">
        <ele>752.088</ele>
        <time>2020-01-19T15:23:04Z</time>
      </trkpt>
      <trkpt lat="-23.416499" lon="-45.543829">
        <ele>751.641</ele>
        <time>2020-01-19T15:23:05Z</time>
      </trkpt>
      <trkpt lat="-23.416460" lon="-45.543775">
        <ele>751.481</ele>
        <time>2020-01-19T15:23:06Z</time>
      </trkpt>
      <trkpt lat="-23.416415" lon="-45.543717">
        <ele>751.309</ele>
        <time>2020-01-19T15:23:07Z</time>
      </trkpt>
      <trkpt lat="-23.416369" lon="-45.543657">
        <ele>751.308</ele>
        <time>2020-01-19T15:23:08Z</time>
      </trkpt>
      <trkpt lat="-23.416321" lon="-45.543595">
        <ele>751.338</ele>
        <time>2020-01-19T15:23:09Z</time>
      </trkpt>
      <trkpt lat="-23.416277" lon="-45.543537">
        <ele>751.099</ele>
        <time>2020-01-19T15:23:10Z</time>
      </trkpt>
      <trkpt lat="-23.416238" lon="-45.543475">
        <ele>750.841</ele>
        <time>2020-01-19T15:23:11Z</time>
      </trkpt>
      <trkpt lat="-23.416197" lon="-45.543411">
        <ele>750.735</ele>
        <time>2020-01-19T15:23:12Z</time>
      </trkpt>
      <trkpt lat="-23.416155" lon="-45.543357">
        <ele>750.941</ele>
        <time>2020-01-19T15:23:13Z</time>
      </trkpt>
      <trkpt lat="-23.416116" lon="-45.543306">
        <ele>751.465</ele>
        <time>2020-01-19T15:23:14Z</time>
      </trkpt>
      <trkpt lat="-23.416074" lon="-45.543255">
        <ele>751.948</ele>
        <time>2020-01-19T15:23:15Z</time>
      </trkpt>
      <trkpt lat="-23.416033" lon="-45.543209">
        <ele>752.448</ele>
        <time>2020-01-19T15:23:16Z</time>
      </trkpt>
      <trkpt lat="-23.415995" lon="-45.543161">
        <ele>752.811</ele>
        <time>2020-01-19T15:23:17Z</time>
      </trkpt>
      <trkpt lat="-23.415960" lon="-45.543111">
        <ele>752.821</ele>
        <time>2020-01-19T15:23:18Z</time>
      </trkpt>
      <trkpt lat="-23.415933" lon="-45.543062">
        <ele>752.903</ele>
        <time>2020-01-19T15:23:19Z</time>
      </trkpt>
      <trkpt lat="-23.415913" lon="-45.543012">
        <ele>752.908</ele>
        <time>2020-01-19T15:23:20Z</time>
      </trkpt>
      <trkpt lat="-23.415900" lon="-45.542964">
        <ele>752.865</ele>
        <time>2020-01-19T15:23:21Z</time>
      </trkpt>
      <trkpt lat="-23.415888" lon="-45.542871">
        <ele>752.656</ele>
        <time>2020-01-19T15:23:23Z</time>
      </trkpt>
      <trkpt lat="-23.415880" lon="-45.542787">
        <ele>752.478</ele>
        <time>2020-01-19T15:23:25Z</time>
      </trkpt>
      <trkpt lat="-23.415886" lon="-45.542697">
        <ele>752.712</ele>
        <time>2020-01-19T15:23:27Z</time>
      </trkpt>
      <trkpt lat="-23.415891" lon="-45.542646">
        <ele>752.758</ele>
        <time>2020-01-19T15:23:28Z</time>
      </trkpt>
      <trkpt lat="-23.415896" lon="-45.542595">
        <ele>752.712</ele>
        <time>2020-01-19T15:23:29Z</time>
      </trkpt>
      <trkpt lat="-23.415900" lon="-45.542542">
        <ele>752.335</ele>
        <time>2020-01-19T15:23:30Z</time>
      </trkpt>
      <trkpt lat="-23.415907" lon="-45.542488">
        <ele>751.715</ele>
        <time>2020-01-19T15:23:31Z</time>
      </trkpt>
      <trkpt lat="-23.415928" lon="-45.542388">
        <ele>751.653</ele>
        <time>2020-01-19T15:23:33Z</time>
      </trkpt>
      <trkpt lat="-23.415940" lon="-45.542334">
        <ele>751.904</ele>
        <time>2020-01-19T15:23:34Z</time>
      </trkpt>
      <trkpt lat="-23.415964" lon="-45.542281">
        <ele>751.614</ele>
        <time>2020-01-19T15:23:35Z</time>
      </trkpt>
      <trkpt lat="-23.415984" lon="-45.542226">
        <ele>751.508</ele>
        <time>2020-01-19T15:23:36Z</time>
      </trkpt>
      <trkpt lat="-23.416003" lon="-45.542167">
        <ele>751.439</ele>
        <time>2020-01-19T15:23:37Z</time>
      </trkpt>
      <trkpt lat="-23.416020" lon="-45.542108">
        <ele>751.190</ele>
        <time>2020-01-19T15:23:38Z</time>
      </trkpt>
      <trkpt lat="-23.416036" lon="-45.542048">
        <ele>750.612</ele>
        <time>2020-01-19T15:23:39Z</time>
      </trkpt>
      <trkpt lat="-23.416057" lon="-45.541987">
        <ele>750.336</ele>
        <time>2020-01-19T15:23:40Z</time>
      </trkpt>
      <trkpt lat="-23.416080" lon="-45.541923">
        <ele>750.322</ele>
        <time>2020-01-19T15:23:41Z</time>
      </trkpt>
      <trkpt lat="-23.416104" lon="-45.541857">
        <ele>750.256</ele>
        <time>2020-01-19T15:23:42Z</time>
      </trkpt>
      <trkpt lat="-23.416137" lon="-45.541788">
        <ele>749.759</ele>
        <time>2020-01-19T15:23:43Z</time>
      </trkpt>
      <trkpt lat="-23.416170" lon="-45.541720">
        <ele>749.599</ele>
        <time>2020-01-19T15:23:44Z</time>
      </trkpt>
      <trkpt lat="-23.416204" lon="-45.541651">
        <ele>749.532</ele>
        <time>2020-01-19T15:23:45Z</time>
      </trkpt>
      <trkpt lat="-23.416235" lon="-45.541582">
        <ele>749.792</ele>
        <time>2020-01-19T15:23:46Z</time>
      </trkpt>
      <trkpt lat="-23.416261" lon="-45.541517">
        <ele>749.311</ele>
        <time>2020-01-19T15:23:47Z</time>
      </trkpt>
      <trkpt lat="-23.416286" lon="-45.541446">
        <ele>749.408</ele>
        <time>2020-01-19T15:23:48Z</time>
      </trkpt>
      <trkpt lat="-23.416307" lon="-45.541383">
        <ele>749.577</ele>
        <time>2020-01-19T15:23:49Z</time>
      </trkpt>
      <trkpt lat="-23.416337" lon="-45.541322">
        <ele>749.558</ele>
        <time>2020-01-19T15:23:50Z</time>
      </trkpt>
      <trkpt lat="-23.416364" lon="-45.541270">
        <ele>749.350</ele>
        <time>2020-01-19T15:23:51Z</time>
      </trkpt>
      <trkpt lat="-23.416390" lon="-45.541217">
        <ele>749.194</ele>
        <time>2020-01-19T15:23:52Z</time>
      </trkpt>
      <trkpt lat="-23.416409" lon="-45.541166">
        <ele>748.830</ele>
        <time>2020-01-19T15:23:53Z</time>
      </trkpt>
      <trkpt lat="-23.416438" lon="-45.541093">
        <ele>748.644</ele>
        <time>2020-01-19T15:23:55Z</time>
      </trkpt>
      <trkpt lat="-23.416464" lon="-45.541038">
        <ele>748.417</ele>
        <time>2020-01-19T15:23:57Z</time>
      </trkpt>
      <trkpt lat="-23.416487" lon="-45.540982">
        <ele>748.417</ele>
        <time>2020-01-19T15:23:59Z</time>
      </trkpt>
      <trkpt lat="-23.416522" lon="-45.540949">
        <ele>744.936</ele>
        <time>2020-01-19T15:24:10Z</time>
      </trkpt>
      <trkpt lat="-23.416539" lon="-45.540902">
        <ele>743.517</ele>
        <time>2020-01-19T15:24:30Z</time>
      </trkpt>
      <trkpt lat="-23.416563" lon="-45.540860">
        <ele>743.218</ele>
        <time>2020-01-19T15:24:50Z</time>
      </trkpt>
      <trkpt lat="-23.416600" lon="-45.540806">
        <ele>743.408</ele>
        <time>2020-01-19T15:24:53Z</time>
      </trkpt>
      <trkpt lat="-23.416632" lon="-45.540769">
        <ele>743.437</ele>
        <time>2020-01-19T15:24:55Z</time>
      </trkpt>
      <trkpt lat="-23.416666" lon="-45.540737">
        <ele>743.248</ele>
        <time>2020-01-19T15:24:57Z</time>
      </trkpt>
      <trkpt lat="-23.416712" lon="-45.540705">
        <ele>743.290</ele>
        <time>2020-01-19T15:24:59Z</time>
      </trkpt>
      <trkpt lat="-23.416754" lon="-45.540686">
        <ele>742.374</ele>
        <time>2020-01-19T15:25:00Z</time>
      </trkpt>
      <trkpt lat="-23.416814" lon="-45.540680">
        <ele>741.090</ele>
        <time>2020-01-19T15:25:03Z</time>
      </trkpt>
      <trkpt lat="-23.416864" lon="-45.540684">
        <ele>739.594</ele>
        <time>2020-01-19T15:25:04Z</time>
      </trkpt>
      <trkpt lat="-23.416915" lon="-45.540698">
        <ele>738.087</ele>
        <time>2020-01-19T15:25:05Z</time>
      </trkpt>
      <trkpt lat="-23.416971" lon="-45.540732">
        <ele>735.727</ele>
        <time>2020-01-19T15:25:07Z</time>
      </trkpt>
      <trkpt lat="-23.417029" lon="-45.540767">
        <ele>734.423</ele>
        <time>2020-01-19T15:25:09Z</time>
      </trkpt>
      <trkpt lat="-23.417170" lon="-45.540866">
        <ele>734.283</ele>
        <time>2020-01-19T15:25:11Z</time>
      </trkpt>
      <trkpt lat="-23.417226" lon="-45.540880">
        <ele>734.011</ele>
        <time>2020-01-19T15:25:12Z</time>
      </trkpt>
      <trkpt lat="-23.417284" lon="-45.540886">
        <ele>733.808</ele>
        <time>2020-01-19T15:25:13Z</time>
      </trkpt>
      <trkpt lat="-23.417345" lon="-45.540908">
        <ele>730.466</ele>
        <time>2020-01-19T15:25:14Z</time>
      </trkpt>
      <trkpt lat="-23.417404" lon="-45.540923">
        <ele>728.537</ele>
        <time>2020-01-19T15:25:15Z</time>
      </trkpt>
      <trkpt lat="-23.417457" lon="-45.540927">
        <ele>726.189</ele>
        <time>2020-01-19T15:25:16Z</time>
      </trkpt>
      <trkpt lat="-23.417503" lon="-45.540911">
        <ele>725.293</ele>
        <time>2020-01-19T15:25:17Z</time>
      </trkpt>
      <trkpt lat="-23.417550" lon="-45.540900">
        <ele>725.039</ele>
        <time>2020-01-19T15:25:19Z</time>
      </trkpt>
      <trkpt lat="-23.417603" lon="-45.540875">
        <ele>723.983</ele>
        <time>2020-01-19T15:25:21Z</time>
      </trkpt>
      <trkpt lat="-23.417629" lon="-45.540818">
        <ele>723.486</ele>
        <time>2020-01-19T15:25:23Z</time>
      </trkpt>
      <trkpt lat="-23.417721" lon="-45.540667">
        <ele>722.236</ele>
        <time>2020-01-19T15:25:25Z</time>
      </trkpt>
      <trkpt lat="-23.417752" lon="-45.540607">
        <ele>721.836</ele>
        <time>2020-01-19T15:25:26Z</time>
      </trkpt>
      <trkpt lat="-23.417773" lon="-45.540550">
        <ele>720.717</ele>
        <time>2020-01-19T15:25:27Z</time>
      </trkpt>
      <trkpt lat="-23.417796" lon="-45.540495">
        <ele>719.618</ele>
        <time>2020-01-19T15:25:28Z</time>
      </trkpt>
      <trkpt lat="-23.417819" lon="-45.540441">
        <ele>719.208</ele>
        <time>2020-01-19T15:25:29Z</time>
      </trkpt>
      <trkpt lat="-23.417836" lon="-45.540386">
        <ele>718.877</ele>
        <time>2020-01-19T15:25:30Z</time>
      </trkpt>
      <trkpt lat="-23.417848" lon="-45.540339">
        <ele>718.748</ele>
        <time>2020-01-19T15:25:31Z</time>
      </trkpt>
      <trkpt lat="-23.417871" lon="-45.540288">
        <ele>718.560</ele>
        <time>2020-01-19T15:25:32Z</time>
      </trkpt>
      <trkpt lat="-23.417899" lon="-45.540237">
        <ele>717.734</ele>
        <time>2020-01-19T15:25:34Z</time>
      </trkpt>
      <trkpt lat="-23.417970" lon="-45.540179">
        <ele>721.730</ele>
        <time>2020-01-19T15:25:36Z</time>
      </trkpt>
      <trkpt lat="-23.418011" lon="-45.540138">
        <ele>724.434</ele>
        <time>2020-01-19T15:25:37Z</time>
      </trkpt>
      <trkpt lat="-23.418051" lon="-45.540091">
        <ele>725.167</ele>
        <time>2020-01-19T15:25:38Z</time>
      </trkpt>
      <trkpt lat="-23.418091" lon="-45.540040">
        <ele>724.067</ele>
        <time>2020-01-19T15:25:39Z</time>
      </trkpt>
      <trkpt lat="-23.418136" lon="-45.539988">
        <ele>722.457</ele>
        <time>2020-01-19T15:25:40Z</time>
      </trkpt>
      <trkpt lat="-23.418187" lon="-45.539927">
        <ele>720.500</ele>
        <time>2020-01-19T15:25:41Z</time>
      </trkpt>
      <trkpt lat="-23.418238" lon="-45.539876">
        <ele>719.120</ele>
        <time>2020-01-19T15:25:42Z</time>
      </trkpt>
      <trkpt lat="-23.418286" lon="-45.539825">
        <ele>718.108</ele>
        <time>2020-01-19T15:25:43Z</time>
      </trkpt>
      <trkpt lat="-23.418337" lon="-45.539778">
        <ele>717.379</ele>
        <time>2020-01-19T15:25:44Z</time>
      </trkpt>
      <trkpt lat="-23.418386" lon="-45.539731">
        <ele>716.710</ele>
        <time>2020-01-19T15:25:45Z</time>
      </trkpt>
      <trkpt lat="-23.418433" lon="-45.539686">
        <ele>716.152</ele>
        <time>2020-01-19T15:25:46Z</time>
      </trkpt>
      <trkpt lat="-23.418476" lon="-45.539646">
        <ele>715.596</ele>
        <time>2020-01-19T15:25:47Z</time>
      </trkpt>
      <trkpt lat="-23.418521" lon="-45.539611">
        <ele>714.872</ele>
        <time>2020-01-19T15:25:48Z</time>
      </trkpt>
      <trkpt lat="-23.418569" lon="-45.539568">
        <ele>713.656</ele>
        <time>2020-01-19T15:25:49Z</time>
      </trkpt>
      <trkpt lat="-23.418603" lon="-45.539534">
        <ele>713.599</ele>
        <time>2020-01-19T15:25:50Z</time>
      </trkpt>
      <trkpt lat="-23.418634" lon="-45.539497">
        <ele>712.849</ele>
        <time>2020-01-19T15:25:51Z</time>
      </trkpt>
      <trkpt lat="-23.418671" lon="-45.539451">
        <ele>711.922</ele>
        <time>2020-01-19T15:25:52Z</time>
      </trkpt>
      <trkpt lat="-23.418713" lon="-45.539401">
        <ele>711.062</ele>
        <time>2020-01-19T15:25:53Z</time>
      </trkpt>
      <trkpt lat="-23.418752" lon="-45.539360">
        <ele>710.608</ele>
        <time>2020-01-19T15:25:54Z</time>
      </trkpt>
      <trkpt lat="-23.418790" lon="-45.539325">
        <ele>710.608</ele>
        <time>2020-01-19T15:25:55Z</time>
      </trkpt>
      <trkpt lat="-23.418833" lon="-45.539290">
        <ele>711.086</ele>
        <time>2020-01-19T15:25:56Z</time>
      </trkpt>
      <trkpt lat="-23.418870" lon="-45.539261">
        <ele>710.337</ele>
        <time>2020-01-19T15:25:57Z</time>
      </trkpt>
      <trkpt lat="-23.418940" lon="-45.539209">
        <ele>709.729</ele>
        <time>2020-01-19T15:25:59Z</time>
      </trkpt>
      <trkpt lat="-23.419011" lon="-45.539183">
        <ele>710.673</ele>
        <time>2020-01-19T15:26:01Z</time>
      </trkpt>
      <trkpt lat="-23.419089" lon="-45.539144">
        <ele>712.439</ele>
        <time>2020-01-19T15:26:03Z</time>
      </trkpt>
      <trkpt lat="-23.419161" lon="-45.539120">
        <ele>713.443</ele>
        <time>2020-01-19T15:26:05Z</time>
      </trkpt>
      <trkpt lat="-23.419131" lon="-45.539076">
        <ele>713.916</ele>
        <time>2020-01-19T15:26:07Z</time>
      </trkpt>
      <trkpt lat="-23.419197" lon="-45.539090">
        <ele>713.686</ele>
        <time>2020-01-19T15:26:13Z</time>
      </trkpt>
      <trkpt lat="-23.419238" lon="-45.539119">
        <ele>713.457</ele>
        <time>2020-01-19T15:26:14Z</time>
      </trkpt>
      <trkpt lat="-23.419353" lon="-45.539164">
        <ele>713.800</ele>
        <time>2020-01-19T15:26:15Z</time>
      </trkpt>
      <trkpt lat="-23.419415" lon="-45.539182">
        <ele>713.920</ele>
        <time>2020-01-19T15:26:16Z</time>
      </trkpt>
      <trkpt lat="-23.419472" lon="-45.539191">
        <ele>714.208</ele>
        <time>2020-01-19T15:26:18Z</time>
      </trkpt>
      <trkpt lat="-23.419558" lon="-45.539201">
        <ele>715.449</ele>
        <time>2020-01-19T15:26:20Z</time>
      </trkpt>
      <trkpt lat="-23.419605" lon="-45.539193">
        <ele>716.060</ele>
        <time>2020-01-19T15:26:22Z</time>
      </trkpt>
      <trkpt lat="-23.419642" lon="-45.539164">
        <ele>718.272</ele>
        <time>2020-01-19T15:26:27Z</time>
      </trkpt>
      <trkpt lat="-23.419651" lon="-45.539115">
        <ele>720.196</ele>
        <time>2020-01-19T15:26:32Z</time>
      </trkpt>
      <trkpt lat="-23.419620" lon="-45.539074">
        <ele>722.352</ele>
        <time>2020-01-19T15:26:35Z</time>
      </trkpt>
      <trkpt lat="-23.419579" lon="-45.539043">
        <ele>724.396</ele>
        <time>2020-01-19T15:26:39Z</time>
      </trkpt>
      <trkpt lat="-23.419546" lon="-45.539001">
        <ele>724.539</ele>
        <time>2020-01-19T15:26:42Z</time>
      </trkpt>
      <trkpt lat="-23.419512" lon="-45.538967">
        <ele>724.689</ele>
        <time>2020-01-19T15:26:45Z</time>
      </trkpt>
      <trkpt lat="-23.419488" lon="-45.538922">
        <ele>726.576</ele>
        <time>2020-01-19T15:26:48Z</time>
      </trkpt>
      <trkpt lat="-23.419466" lon="-45.538878">
        <ele>726.890</ele>
        <time>2020-01-19T15:26:50Z</time>
      </trkpt>
      <trkpt lat="-23.419442" lon="-45.538834">
        <ele>728.019</ele>
        <time>2020-01-19T15:26:56Z</time>
      </trkpt>
      <trkpt lat="-23.419403" lon="-45.538735">
        <ele>726.308</ele>
        <time>2020-01-19T15:27:03Z</time>
      </trkpt>
      <trkpt lat="-23.419403" lon="-45.538735">
        <ele>726.371</ele>
        <time>2020-01-19T15:27:03Z</time>
      </trkpt>
      <trkpt lat="-23.419403" lon="-45.538735">
        <ele>726.362</ele>
        <time>2020-01-19T15:27:03Z</time>
      </trkpt>
      <trkpt lat="-23.419403" lon="-45.538735">
        <ele>726.374</ele>
        <time>2020-01-19T15:27:03Z</time>
      </trkpt>
      <trkpt lat="-23.419403" lon="-45.538735">
        <ele>726.368</ele>
        <time>2020-01-19T15:27:03Z</time>
      </trkpt>
      <trkpt lat="-23.419380" lon="-45.538691">
        <ele>724.734</ele>
        <time>2020-01-19T15:27:08Z</time>
      </trkpt>
      <trkpt lat="-23.419354" lon="-45.538651">
        <ele>724.018</ele>
        <time>2020-01-19T15:27:13Z</time>
      </trkpt>
      <trkpt lat="-23.419324" lon="-45.538607">
        <ele>724.481</ele>
        <time>2020-01-19T15:27:20Z</time>
      </trkpt>
      <trkpt lat="-23.419291" lon="-45.538569">
        <ele>725.021</ele>
        <time>2020-01-19T15:27:25Z</time>
      </trkpt>
      <trkpt lat="-23.419254" lon="-45.538536">
        <ele>725.211</ele>
        <time>2020-01-19T15:27:30Z</time>
      </trkpt>
      <trkpt lat="-23.419216" lon="-45.538501">
        <ele>725.221</ele>
        <time>2020-01-19T15:27:38Z</time>
      </trkpt>
      <trkpt lat="-23.419178" lon="-45.538464">
        <ele>725.603</ele>
        <time>2020-01-19T15:27:43Z</time>
      </trkpt>
      <trkpt lat="-23.419141" lon="-45.538421">
        <ele>727.308</ele>
        <time>2020-01-19T15:27:48Z</time>
      </trkpt>
      <trkpt lat="-23.419118" lon="-45.538370">
        <ele>729.085</ele>
        <time>2020-01-19T15:27:53Z</time>
      </trkpt>
      <trkpt lat="-23.419079" lon="-45.538289">
        <ele>730.816</ele>
        <time>2020-01-19T15:27:55Z</time>
      </trkpt>
      <trkpt lat="-23.419046" lon="-45.538230">
        <ele>731.528</ele>
        <time>2020-01-19T15:27:57Z</time>
      </trkpt>
      <trkpt lat="-23.419026" lon="-45.538182">
        <ele>732.292</ele>
        <time>2020-01-19T15:27:59Z</time>
      </trkpt>
      <trkpt lat="-23.419004" lon="-45.538127">
        <ele>732.828</ele>
        <time>2020-01-19T15:28:01Z</time>
      </trkpt>
      <trkpt lat="-23.418993" lon="-45.538071">
        <ele>732.982</ele>
        <time>2020-01-19T15:28:04Z</time>
      </trkpt>
      <trkpt lat="-23.418992" lon="-45.538014">
        <ele>733.565</ele>
        <time>2020-01-19T15:28:07Z</time>
      </trkpt>
      <trkpt lat="-23.418990" lon="-45.537957">
        <ele>734.345</ele>
        <time>2020-01-19T15:28:10Z</time>
      </trkpt>
      <trkpt lat="-23.418977" lon="-45.537906">
        <ele>735.276</ele>
        <time>2020-01-19T15:28:13Z</time>
      </trkpt>
      <trkpt lat="-23.418960" lon="-45.537853">
        <ele>735.390</ele>
        <time>2020-01-19T15:28:17Z</time>
      </trkpt>
      <trkpt lat="-23.418921" lon="-45.537809">
        <ele>735.219</ele>
        <time>2020-01-19T15:28:21Z</time>
      </trkpt>
      <trkpt lat="-23.418888" lon="-45.537768">
        <ele>734.708</ele>
        <time>2020-01-19T15:28:26Z</time>
      </trkpt>
      <trkpt lat="-23.418844" lon="-45.537744">
        <ele>734.521</ele>
        <time>2020-01-19T15:28:30Z</time>
      </trkpt>
      <trkpt lat="-23.418799" lon="-45.537726">
        <ele>734.442</ele>
        <time>2020-01-19T15:28:33Z</time>
      </trkpt>
      <trkpt lat="-23.418750" lon="-45.537710">
        <ele>735.294</ele>
        <time>2020-01-19T15:28:38Z</time>
      </trkpt>
      <trkpt lat="-23.418705" lon="-45.537688">
        <ele>736.318</ele>
        <time>2020-01-19T15:28:42Z</time>
      </trkpt>
      <trkpt lat="-23.418661" lon="-45.537644">
        <ele>737.184</ele>
        <time>2020-01-19T15:28:46Z</time>
      </trkpt>
      <trkpt lat="-23.418638" lon="-45.537592">
        <ele>737.978</ele>
        <time>2020-01-19T15:28:51Z</time>
      </trkpt>
      <trkpt lat="-23.418638" lon="-45.537539">
        <ele>738.131</ele>
        <time>2020-01-19T15:28:55Z</time>
      </trkpt>
      <trkpt lat="-23.418652" lon="-45.537492">
        <ele>738.571</ele>
        <time>2020-01-19T15:29:01Z</time>
      </trkpt>
      <trkpt lat="-23.418676" lon="-45.537447">
        <ele>739.218</ele>
        <time>2020-01-19T15:29:06Z</time>
      </trkpt>
      <trkpt lat="-23.418701" lon="-45.537403">
        <ele>740.498</ele>
        <time>2020-01-19T15:29:10Z</time>
      </trkpt>
      <trkpt lat="-23.418732" lon="-45.537338">
        <ele>741.617</ele>
        <time>2020-01-19T15:29:13Z</time>
      </trkpt>
      <trkpt lat="-23.418742" lon="-45.537283">
        <ele>742.108</ele>
        <time>2020-01-19T15:29:17Z</time>
      </trkpt>
      <trkpt lat="-23.418742" lon="-45.537219">
        <ele>742.845</ele>
        <time>2020-01-19T15:29:20Z</time>
      </trkpt>
      <trkpt lat="-23.418712" lon="-45.537173">
        <ele>743.266</ele>
        <time>2020-01-19T15:29:24Z</time>
      </trkpt>
      <trkpt lat="-23.418668" lon="-45.537142">
        <ele>743.158</ele>
        <time>2020-01-19T15:29:27Z</time>
      </trkpt>
      <trkpt lat="-23.418623" lon="-45.537131">
        <ele>742.972</ele>
        <time>2020-01-19T15:29:30Z</time>
      </trkpt>
      <trkpt lat="-23.418576" lon="-45.537121">
        <ele>743.778</ele>
        <time>2020-01-19T15:29:34Z</time>
      </trkpt>
      <trkpt lat="-23.418529" lon="-45.537105">
        <ele>744.442</ele>
        <time>2020-01-19T15:29:37Z</time>
      </trkpt>
      <trkpt lat="-23.418468" lon="-45.537099">
        <ele>744.365</ele>
        <time>2020-01-19T15:29:40Z</time>
      </trkpt>
      <trkpt lat="-23.418421" lon="-45.537094">
        <ele>744.875</ele>
        <time>2020-01-19T15:29:44Z</time>
      </trkpt>
      <trkpt lat="-23.418373" lon="-45.537085">
        <ele>745.366</ele>
        <time>2020-01-19T15:29:47Z</time>
      </trkpt>
      <trkpt lat="-23.418324" lon="-45.537066">
        <ele>744.929</ele>
        <time>2020-01-19T15:29:50Z</time>
      </trkpt>
      <trkpt lat="-23.418279" lon="-45.537041">
        <ele>743.821</ele>
        <time>2020-01-19T15:29:53Z</time>
      </trkpt>
      <trkpt lat="-23.418235" lon="-45.537019">
        <ele>744.208</ele>
        <time>2020-01-19T15:29:55Z</time>
      </trkpt>
      <trkpt lat="-23.418187" lon="-45.537006">
        <ele>743.420</ele>
        <time>2020-01-19T15:29:59Z</time>
      </trkpt>
      <trkpt lat="-23.418139" lon="-45.537009">
        <ele>743.521</ele>
        <time>2020-01-19T15:30:03Z</time>
      </trkpt>
      <trkpt lat="-23.418090" lon="-45.537016">
        <ele>744.243</ele>
        <time>2020-01-19T15:30:08Z</time>
      </trkpt>
      <trkpt lat="-23.418037" lon="-45.537022">
        <ele>744.997</ele>
        <time>2020-01-19T15:30:13Z</time>
      </trkpt>
      <trkpt lat="-23.417991" lon="-45.537021">
        <ele>746.043</ele>
        <time>2020-01-19T15:30:17Z</time>
      </trkpt>
      <trkpt lat="-23.417946" lon="-45.537017">
        <ele>746.857</ele>
        <time>2020-01-19T15:30:24Z</time>
      </trkpt>
      <trkpt lat="-23.417901" lon="-45.537012">
        <ele>747.620</ele>
        <time>2020-01-19T15:30:27Z</time>
      </trkpt>
      <trkpt lat="-23.417852" lon="-45.537005">
        <ele>748.450</ele>
        <time>2020-01-19T15:30:29Z</time>
      </trkpt>
      <trkpt lat="-23.417800" lon="-45.537010">
        <ele>749.265</ele>
        <time>2020-01-19T15:30:33Z</time>
      </trkpt>
      <trkpt lat="-23.417745" lon="-45.537016">
        <ele>749.868</ele>
        <time>2020-01-19T15:30:37Z</time>
      </trkpt>
      <trkpt lat="-23.417701" lon="-45.537029">
        <ele>750.114</ele>
        <time>2020-01-19T15:30:40Z</time>
      </trkpt>
      <trkpt lat="-23.417657" lon="-45.537058">
        <ele>749.808</ele>
        <time>2020-01-19T15:30:44Z</time>
      </trkpt>
      <trkpt lat="-23.417612" lon="-45.537088">
        <ele>749.590</ele>
        <time>2020-01-19T15:30:48Z</time>
      </trkpt>
      <trkpt lat="-23.417577" lon="-45.537124">
        <ele>750.241</ele>
        <time>2020-01-19T15:30:55Z</time>
      </trkpt>
      <trkpt lat="-23.417536" lon="-45.537156">
        <ele>750.513</ele>
        <time>2020-01-19T15:30:58Z</time>
      </trkpt>
      <trkpt lat="-23.417502" lon="-45.537190">
        <ele>750.537</ele>
        <time>2020-01-19T15:31:01Z</time>
      </trkpt>
      <trkpt lat="-23.417464" lon="-45.537222">
        <ele>749.513</ele>
        <time>2020-01-19T15:31:05Z</time>
      </trkpt>
      <trkpt lat="-23.417417" lon="-45.537237">
        <ele>747.097</ele>
        <time>2020-01-19T15:31:11Z</time>
      </trkpt>
      <trkpt lat="-23.417373" lon="-45.537247">
        <ele>746.270</ele>
        <time>2020-01-19T15:31:16Z</time>
      </trkpt>
      <trkpt lat="-23.417316" lon="-45.537255">
        <ele>746.150</ele>
        <time>2020-01-19T15:31:20Z</time>
      </trkpt>
      <trkpt lat="-23.417268" lon="-45.537270">
        <ele>745.967</ele>
        <time>2020-01-19T15:31:22Z</time>
      </trkpt>
      <trkpt lat="-23.417219" lon="-45.537284">
        <ele>746.281</ele>
        <time>2020-01-19T15:31:26Z</time>
      </trkpt>
      <trkpt lat="-23.417165" lon="-45.537285">
        <ele>747.719</ele>
        <time>2020-01-19T15:31:30Z</time>
      </trkpt>
      <trkpt lat="-23.417113" lon="-45.537288">
        <ele>748.608</ele>
        <time>2020-01-19T15:31:33Z</time>
      </trkpt>
      <trkpt lat="-23.417064" lon="-45.537291">
        <ele>749.410</ele>
        <time>2020-01-19T15:31:36Z</time>
      </trkpt>
      <trkpt lat="-23.417014" lon="-45.537288">
        <ele>749.941</ele>
        <time>2020-01-19T15:31:40Z</time>
      </trkpt>
      <trkpt lat="-23.416969" lon="-45.537277">
        <ele>750.493</ele>
        <time>2020-01-19T15:31:44Z</time>
      </trkpt>
      <trkpt lat="-23.416922" lon="-45.537253">
        <ele>750.697</ele>
        <time>2020-01-19T15:31:47Z</time>
      </trkpt>
      <trkpt lat="-23.416890" lon="-45.537211">
        <ele>750.453</ele>
        <time>2020-01-19T15:31:50Z</time>
      </trkpt>
      <trkpt lat="-23.416865" lon="-45.537169">
        <ele>750.447</ele>
        <time>2020-01-19T15:31:54Z</time>
      </trkpt>
      <trkpt lat="-23.416831" lon="-45.537202">
        <ele>752.020</ele>
        <time>2020-01-19T15:33:38Z</time>
      </trkpt>
      <trkpt lat="-23.416870" lon="-45.537175">
        <ele>754.510</ele>
        <time>2020-01-19T15:33:57Z</time>
      </trkpt>
      <trkpt lat="-23.416889" lon="-45.537122">
        <ele>756.295</ele>
        <time>2020-01-19T15:34:00Z</time>
      </trkpt>
      <trkpt lat="-23.416908" lon="-45.537068">
        <ele>757.349</ele>
        <time>2020-01-19T15:34:04Z</time>
      </trkpt>
      <trkpt lat="-23.416928" lon="-45.537020">
        <ele>758.223</ele>
        <time>2020-01-19T15:34:08Z</time>
      </trkpt>
      <trkpt lat="-23.416960" lon="-45.536975">
        <ele>758.708</ele>
        <time>2020-01-19T15:34:12Z</time>
      </trkpt>
      <trkpt lat="-23.416994" lon="-45.536932">
        <ele>759.753</ele>
        <time>2020-01-19T15:34:14Z</time>
      </trkpt>
      <trkpt lat="-23.417028" lon="-45.536892">
        <ele>760.544</ele>
        <time>2020-01-19T15:34:18Z</time>
      </trkpt>
      <trkpt lat="-23.417063" lon="-45.536857">
        <ele>761.016</ele>
        <time>2020-01-19T15:34:21Z</time>
      </trkpt>
      <trkpt lat="-23.417100" lon="-45.536823">
        <ele>761.150</ele>
        <time>2020-01-19T15:34:24Z</time>
      </trkpt>
      <trkpt lat="-23.417138" lon="-45.536789">
        <ele>761.026</ele>
        <time>2020-01-19T15:34:27Z</time>
      </trkpt>
      <trkpt lat="-23.417175" lon="-45.536761">
        <ele>761.150</ele>
        <time>2020-01-19T15:34:30Z</time>
      </trkpt>
      <trkpt lat="-23.417216" lon="-45.536736">
        <ele>761.473</ele>
        <time>2020-01-19T15:34:33Z</time>
      </trkpt>
      <trkpt lat="-23.417265" lon="-45.536708">
        <ele>760.853</ele>
        <time>2020-01-19T15:34:35Z</time>
      </trkpt>
      <trkpt lat="-23.417318" lon="-45.536690">
        <ele>760.152</ele>
        <time>2020-01-19T15:34:38Z</time>
      </trkpt>
      <trkpt lat="-23.417369" lon="-45.536673">
        <ele>759.653</ele>
        <time>2020-01-19T15:34:41Z</time>
      </trkpt>
      <trkpt lat="-23.417415" lon="-45.536659">
        <ele>759.108</ele>
        <time>2020-01-19T15:34:44Z</time>
      </trkpt>
      <trkpt lat="-23.417467" lon="-45.536640">
        <ele>758.408</ele>
        <time>2020-01-19T15:34:47Z</time>
      </trkpt>
      <trkpt lat="-23.417512" lon="-45.536620">
        <ele>758.099</ele>
        <time>2020-01-19T15:34:49Z</time>
      </trkpt>
      <trkpt lat="-23.417551" lon="-45.536584">
        <ele>758.970</ele>
        <time>2020-01-19T15:34:52Z</time>
      </trkpt>
      <trkpt lat="-23.417588" lon="-45.536544">
        <ele>759.712</ele>
        <time>2020-01-19T15:34:55Z</time>
      </trkpt>
      <trkpt lat="-23.417629" lon="-45.536513">
        <ele>759.766</ele>
        <time>2020-01-19T15:34:58Z</time>
      </trkpt>
      <trkpt lat="-23.417668" lon="-45.536482">
        <ele>759.842</ele>
        <time>2020-01-19T15:35:01Z</time>
      </trkpt>
      <trkpt lat="-23.417701" lon="-45.536449">
        <ele>759.366</ele>
        <time>2020-01-19T15:35:04Z</time>
      </trkpt>
      <trkpt lat="-23.417727" lon="-45.536406">
        <ele>758.259</ele>
        <time>2020-01-19T15:35:08Z</time>
      </trkpt>
      <trkpt lat="-23.417759" lon="-45.536366">
        <ele>758.119</ele>
        <time>2020-01-19T15:35:13Z</time>
      </trkpt>
      <trkpt lat="-23.417801" lon="-45.536341">
        <ele>757.087</ele>
        <time>2020-01-19T15:35:16Z</time>
      </trkpt>
      <trkpt lat="-23.417851" lon="-45.536327">
        <ele>756.442</ele>
        <time>2020-01-19T15:35:20Z</time>
      </trkpt>
      <trkpt lat="-23.417894" lon="-45.536312">
        <ele>755.526</ele>
        <time>2020-01-19T15:35:22Z</time>
      </trkpt>
      <trkpt lat="-23.417943" lon="-45.536295">
        <ele>754.408</ele>
        <time>2020-01-19T15:35:26Z</time>
      </trkpt>
      <trkpt lat="-23.417988" lon="-45.536281">
        <ele>754.692</ele>
        <time>2020-01-19T15:35:29Z</time>
      </trkpt>
      <trkpt lat="-23.418035" lon="-45.536261">
        <ele>755.033</ele>
        <time>2020-01-19T15:35:32Z</time>
      </trkpt>
      <trkpt lat="-23.418079" lon="-45.536247">
        <ele>755.845</ele>
        <time>2020-01-19T15:35:35Z</time>
      </trkpt>
      <trkpt lat="-23.418127" lon="-45.536232">
        <ele>756.769</ele>
        <time>2020-01-19T15:35:38Z</time>
      </trkpt>
      <trkpt lat="-23.418177" lon="-45.536221">
        <ele>757.575</ele>
        <time>2020-01-19T15:35:41Z</time>
      </trkpt>
      <trkpt lat="-23.418224" lon="-45.536206">
        <ele>757.679</ele>
        <time>2020-01-19T15:35:44Z</time>
      </trkpt>
      <trkpt lat="-23.418276" lon="-45.536206">
        <ele>756.712</ele>
        <time>2020-01-19T15:35:47Z</time>
      </trkpt>
      <trkpt lat="-23.418325" lon="-45.536192">
        <ele>757.462</ele>
        <time>2020-01-19T15:35:50Z</time>
      </trkpt>
      <trkpt lat="-23.418373" lon="-45.536175">
        <ele>757.942</ele>
        <time>2020-01-19T15:35:53Z</time>
      </trkpt>
      <trkpt lat="-23.418416" lon="-45.536151">
        <ele>758.822</ele>
        <time>2020-01-19T15:35:55Z</time>
      </trkpt>
      <trkpt lat="-23.418469" lon="-45.536153">
        <ele>759.514</ele>
        <time>2020-01-19T15:35:59Z</time>
      </trkpt>
      <trkpt lat="-23.418515" lon="-45.536141">
        <ele>760.908</ele>
        <time>2020-01-19T15:36:04Z</time>
      </trkpt>
      <trkpt lat="-23.418565" lon="-45.536132">
        <ele>761.148</ele>
        <time>2020-01-19T15:36:07Z</time>
      </trkpt>
      <trkpt lat="-23.418613" lon="-45.536136">
        <ele>760.779</ele>
        <time>2020-01-19T15:36:10Z</time>
      </trkpt>
      <trkpt lat="-23.418659" lon="-45.536136">
        <ele>761.251</ele>
        <time>2020-01-19T15:36:12Z</time>
      </trkpt>
      <trkpt lat="-23.418705" lon="-45.536129">
        <ele>761.535</ele>
        <time>2020-01-19T15:36:15Z</time>
      </trkpt>
      <trkpt lat="-23.418768" lon="-45.536131">
        <ele>761.881</ele>
        <time>2020-01-19T15:36:18Z</time>
      </trkpt>
      <trkpt lat="-23.418816" lon="-45.536131">
        <ele>761.325</ele>
        <time>2020-01-19T15:36:20Z</time>
      </trkpt>
      <trkpt lat="-23.418869" lon="-45.536119">
        <ele>760.928</ele>
        <time>2020-01-19T15:36:24Z</time>
      </trkpt>
      <trkpt lat="-23.418920" lon="-45.536116">
        <ele>760.598</ele>
        <time>2020-01-19T15:36:27Z</time>
      </trkpt>
      <trkpt lat="-23.418962" lon="-45.536097">
        <ele>760.454</ele>
        <time>2020-01-19T15:36:30Z</time>
      </trkpt>
      <trkpt lat="-23.419012" lon="-45.536076">
        <ele>759.956</ele>
        <time>2020-01-19T15:36:33Z</time>
      </trkpt>
      <trkpt lat="-23.419063" lon="-45.536063">
        <ele>759.811</ele>
        <time>2020-01-19T15:36:36Z</time>
      </trkpt>
      <trkpt lat="-23.419114" lon="-45.536051">
        <ele>760.008</ele>
        <time>2020-01-19T15:36:38Z</time>
      </trkpt>
      <trkpt lat="-23.419168" lon="-45.536037">
        <ele>759.599</ele>
        <time>2020-01-19T15:36:40Z</time>
      </trkpt>
      <trkpt lat="-23.419227" lon="-45.536014">
        <ele>759.490</ele>
        <time>2020-01-19T15:36:44Z</time>
      </trkpt>
      <trkpt lat="-23.419266" lon="-45.535978">
        <ele>758.342</ele>
        <time>2020-01-19T15:36:47Z</time>
      </trkpt>
      <trkpt lat="-23.419303" lon="-45.535942">
        <ele>757.616</ele>
        <time>2020-01-19T15:36:50Z</time>
      </trkpt>
      <trkpt lat="-23.419329" lon="-45.535899">
        <ele>757.252</ele>
        <time>2020-01-19T15:36:53Z</time>
      </trkpt>
      <trkpt lat="-23.419346" lon="-45.535853">
        <ele>757.616</ele>
        <time>2020-01-19T15:36:55Z</time>
      </trkpt>
      <trkpt lat="-23.419368" lon="-45.535805">
        <ele>758.239</ele>
        <time>2020-01-19T15:36:58Z</time>
      </trkpt>
      <trkpt lat="-23.419395" lon="-45.535755">
        <ele>758.359</ele>
        <time>2020-01-19T15:37:02Z</time>
      </trkpt>
      <trkpt lat="-23.419425" lon="-45.535714">
        <ele>759.178</ele>
        <time>2020-01-19T15:37:05Z</time>
      </trkpt>
      <trkpt lat="-23.419450" lon="-45.535670">
        <ele>759.633</ele>
        <time>2020-01-19T15:37:07Z</time>
      </trkpt>
      <trkpt lat="-23.419491" lon="-45.535625">
        <ele>759.626</ele>
        <time>2020-01-19T15:37:11Z</time>
      </trkpt>
      <trkpt lat="-23.419532" lon="-45.535593">
        <ele>758.808</ele>
        <time>2020-01-19T15:37:14Z</time>
      </trkpt>
      <trkpt lat="-23.419572" lon="-45.535567">
        <ele>759.011</ele>
        <time>2020-01-19T15:37:17Z</time>
      </trkpt>
      <trkpt lat="-23.419614" lon="-45.535536">
        <ele>758.672</ele>
        <time>2020-01-19T15:37:21Z</time>
      </trkpt>
      <trkpt lat="-23.419654" lon="-45.535513">
        <ele>756.174</ele>
        <time>2020-01-19T15:37:24Z</time>
      </trkpt>
      <trkpt lat="-23.419689" lon="-45.535477">
        <ele>755.578</ele>
        <time>2020-01-19T15:37:27Z</time>
      </trkpt>
      <trkpt lat="-23.419724" lon="-45.535443">
        <ele>755.394</ele>
        <time>2020-01-19T15:37:29Z</time>
      </trkpt>
      <trkpt lat="-23.419762" lon="-45.535416">
        <ele>755.868</ele>
        <time>2020-01-19T15:37:33Z</time>
      </trkpt>
      <trkpt lat="-23.419798" lon="-45.535386">
        <ele>755.191</ele>
        <time>2020-01-19T15:37:36Z</time>
      </trkpt>
      <trkpt lat="-23.419842" lon="-45.535347">
        <ele>756.951</ele>
        <time>2020-01-19T15:37:41Z</time>
      </trkpt>
      <trkpt lat="-23.419877" lon="-45.535303">
        <ele>758.124</ele>
        <time>2020-01-19T15:37:45Z</time>
      </trkpt>
      <trkpt lat="-23.419919" lon="-45.535276">
        <ele>759.004</ele>
        <time>2020-01-19T15:37:49Z</time>
      </trkpt>
      <trkpt lat="-23.419964" lon="-45.535247">
        <ele>759.714</ele>
        <time>2020-01-19T15:37:52Z</time>
      </trkpt>
      <trkpt lat="-23.420009" lon="-45.535227">
        <ele>761.008</ele>
        <time>2020-01-19T15:37:55Z</time>
      </trkpt>
      <trkpt lat="-23.420046" lon="-45.535195">
        <ele>762.986</ele>
        <time>2020-01-19T15:38:00Z</time>
      </trkpt>
      <trkpt lat="-23.420087" lon="-45.535154">
        <ele>764.357</ele>
        <time>2020-01-19T15:38:05Z</time>
      </trkpt>
      <trkpt lat="-23.420123" lon="-45.535107">
        <ele>764.679</ele>
        <time>2020-01-19T15:38:08Z</time>
      </trkpt>
      <trkpt lat="-23.420163" lon="-45.535068">
        <ele>764.563</ele>
        <time>2020-01-19T15:38:11Z</time>
      </trkpt>
      <trkpt lat="-23.420205" lon="-45.535036">
        <ele>763.799</ele>
        <time>2020-01-19T15:38:14Z</time>
      </trkpt>
      <trkpt lat="-23.420242" lon="-45.535003">
        <ele>763.843</ele>
        <time>2020-01-19T15:38:15Z</time>
      </trkpt>
      <trkpt lat="-23.420285" lon="-45.534964">
        <ele>763.536</ele>
        <time>2020-01-19T15:38:18Z</time>
      </trkpt>
      <trkpt lat="-23.420319" lon="-45.534927">
        <ele>763.446</ele>
        <time>2020-01-19T15:38:20Z</time>
      </trkpt>
      <trkpt lat="-23.420349" lon="-45.534879">
        <ele>763.626</ele>
        <time>2020-01-19T15:38:24Z</time>
      </trkpt>
      <trkpt lat="-23.420382" lon="-45.534837">
        <ele>764.047</ele>
        <time>2020-01-19T15:38:27Z</time>
      </trkpt>
      <trkpt lat="-23.420393" lon="-45.534789">
        <ele>764.611</ele>
        <time>2020-01-19T15:38:29Z</time>
      </trkpt>
      <trkpt lat="-23.420411" lon="-45.534742">
        <ele>764.508</ele>
        <time>2020-01-19T15:38:31Z</time>
      </trkpt>
      <trkpt lat="-23.420430" lon="-45.534686">
        <ele>764.376</ele>
        <time>2020-01-19T15:38:34Z</time>
      </trkpt>
      <trkpt lat="-23.420441" lon="-45.534636">
        <ele>764.397</ele>
        <time>2020-01-19T15:38:36Z</time>
      </trkpt>
      <trkpt lat="-23.420451" lon="-45.534580">
        <ele>764.389</ele>
        <time>2020-01-19T15:38:39Z</time>
      </trkpt>
      <trkpt lat="-23.420459" lon="-45.534531">
        <ele>764.193</ele>
        <time>2020-01-19T15:38:43Z</time>
      </trkpt>
      <trkpt lat="-23.420477" lon="-45.534472">
        <ele>764.589</ele>
        <time>2020-01-19T15:38:47Z</time>
      </trkpt>
      <trkpt lat="-23.420482" lon="-45.534418">
        <ele>764.873</ele>
        <time>2020-01-19T15:38:50Z</time>
      </trkpt>
      <trkpt lat="-23.420497" lon="-45.534363">
        <ele>765.096</ele>
        <time>2020-01-19T15:38:53Z</time>
      </trkpt>
      <trkpt lat="-23.420519" lon="-45.534311">
        <ele>765.016</ele>
        <time>2020-01-19T15:38:55Z</time>
      </trkpt>
      <trkpt lat="-23.420547" lon="-45.534268">
        <ele>765.551</ele>
        <time>2020-01-19T15:38:57Z</time>
      </trkpt>
      <trkpt lat="-23.420590" lon="-45.534221">
        <ele>765.301</ele>
        <time>2020-01-19T15:39:00Z</time>
      </trkpt>
      <trkpt lat="-23.420629" lon="-45.534183">
        <ele>766.811</ele>
        <time>2020-01-19T15:39:03Z</time>
      </trkpt>
      <trkpt lat="-23.420677" lon="-45.534155">
        <ele>768.308</ele>
        <time>2020-01-19T15:39:07Z</time>
      </trkpt>
      <trkpt lat="-23.420722" lon="-45.534140">
        <ele>768.949</ele>
        <time>2020-01-19T15:39:10Z</time>
      </trkpt>
      <trkpt lat="-23.420774" lon="-45.534141">
        <ele>769.080</ele>
        <time>2020-01-19T15:39:14Z</time>
      </trkpt>
      <trkpt lat="-23.420825" lon="-45.534157">
        <ele>768.442</ele>
        <time>2020-01-19T15:39:17Z</time>
      </trkpt>
      <trkpt lat="-23.420869" lon="-45.534182">
        <ele>768.156</ele>
        <time>2020-01-19T15:39:21Z</time>
      </trkpt>
      <trkpt lat="-23.420918" lon="-45.534188">
        <ele>767.432</ele>
        <time>2020-01-19T15:39:25Z</time>
      </trkpt>
      <trkpt lat="-23.420960" lon="-45.534211">
        <ele>763.466</ele>
        <time>2020-01-19T15:39:29Z</time>
      </trkpt>
      <trkpt lat="-23.420993" lon="-45.534177">
        <ele>763.179</ele>
        <time>2020-01-19T15:39:33Z</time>
      </trkpt>
      <trkpt lat="-23.421011" lon="-45.534127">
        <ele>764.849</ele>
        <time>2020-01-19T15:39:36Z</time>
      </trkpt>
      <trkpt lat="-23.421010" lon="-45.534074">
        <ele>767.417</ele>
        <time>2020-01-19T15:39:39Z</time>
      </trkpt>
      <trkpt lat="-23.420962" lon="-45.534010">
        <ele>769.587</ele>
        <time>2020-01-19T15:39:40Z</time>
      </trkpt>
      <trkpt lat="-23.420920" lon="-45.533945">
        <ele>770.315</ele>
        <time>2020-01-19T15:39:43Z</time>
      </trkpt>
      <trkpt lat="-23.420899" lon="-45.533901">
        <ele>770.508</ele>
        <time>2020-01-19T15:39:45Z</time>
      </trkpt>
      <trkpt lat="-23.420883" lon="-45.533853">
        <ele>769.065</ele>
        <time>2020-01-19T15:39:48Z</time>
      </trkpt>
      <trkpt lat="-23.420876" lon="-45.533801">
        <ele>767.986</ele>
        <time>2020-01-19T15:39:52Z</time>
      </trkpt>
      <trkpt lat="-23.420890" lon="-45.533739">
        <ele>767.658</ele>
        <time>2020-01-19T15:39:55Z</time>
      </trkpt>
      <trkpt lat="-23.420913" lon="-45.533694">
        <ele>766.332</ele>
        <time>2020-01-19T15:39:57Z</time>
      </trkpt>
      <trkpt lat="-23.420936" lon="-45.533634">
        <ele>765.988</ele>
        <time>2020-01-19T15:40:01Z</time>
      </trkpt>
      <trkpt lat="-23.420950" lon="-45.533586">
        <ele>767.342</ele>
        <time>2020-01-19T15:40:03Z</time>
      </trkpt>
      <trkpt lat="-23.420971" lon="-45.533534">
        <ele>768.475</ele>
        <time>2020-01-19T15:40:05Z</time>
      </trkpt>
      <trkpt lat="-23.420988" lon="-45.533480">
        <ele>768.285</ele>
        <time>2020-01-19T15:40:08Z</time>
      </trkpt>
      <trkpt lat="-23.421012" lon="-45.533432">
        <ele>768.157</ele>
        <time>2020-01-19T15:40:12Z</time>
      </trkpt>
      <trkpt lat="-23.421043" lon="-45.533391">
        <ele>769.000</ele>
        <time>2020-01-19T15:40:14Z</time>
      </trkpt>
      <trkpt lat="-23.421070" lon="-45.533349">
        <ele>770.120</ele>
        <time>2020-01-19T15:40:18Z</time>
      </trkpt>
      <trkpt lat="-23.421100" lon="-45.533304">
        <ele>769.908</ele>
        <time>2020-01-19T15:40:22Z</time>
      </trkpt>
      <trkpt lat="-23.421126" lon="-45.533257">
        <ele>769.819</ele>
        <time>2020-01-19T15:40:26Z</time>
      </trkpt>
      <trkpt lat="-23.421154" lon="-45.533218">
        <ele>769.840</ele>
        <time>2020-01-19T15:40:30Z</time>
      </trkpt>
      <trkpt lat="-23.421190" lon="-45.533167">
        <ele>769.672</ele>
        <time>2020-01-19T15:40:35Z</time>
      </trkpt>
      <trkpt lat="-23.421233" lon="-45.533142">
        <ele>769.716</ele>
        <time>2020-01-19T15:40:37Z</time>
      </trkpt>
      <trkpt lat="-23.421279" lon="-45.533106">
        <ele>769.542</ele>
        <time>2020-01-19T15:40:41Z</time>
      </trkpt>
      <trkpt lat="-23.421323" lon="-45.533084">
        <ele>769.856</ele>
        <time>2020-01-19T15:40:45Z</time>
      </trkpt>
      <trkpt lat="-23.421365" lon="-45.533060">
        <ele>769.379</ele>
        <time>2020-01-19T15:40:49Z</time>
      </trkpt>
      <trkpt lat="-23.421408" lon="-45.533035">
        <ele>768.339</ele>
        <time>2020-01-19T15:40:53Z</time>
      </trkpt>
      <trkpt lat="-23.421445" lon="-45.533000">
        <ele>769.392</ele>
        <time>2020-01-19T15:40:58Z</time>
      </trkpt>
      <trkpt lat="-23.421478" lon="-45.532966">
        <ele>768.773</ele>
        <time>2020-01-19T15:41:01Z</time>
      </trkpt>
      <trkpt lat="-23.421511" lon="-45.532932">
        <ele>768.820</ele>
        <time>2020-01-19T15:41:05Z</time>
      </trkpt>
      <trkpt lat="-23.421548" lon="-45.532902">
        <ele>768.208</ele>
        <time>2020-01-19T15:41:08Z</time>
      </trkpt>
      <trkpt lat="-23.421587" lon="-45.532862">
        <ele>767.793</ele>
        <time>2020-01-19T15:41:11Z</time>
      </trkpt>
      <trkpt lat="-23.421618" lon="-45.532826">
        <ele>767.814</ele>
        <time>2020-01-19T15:41:13Z</time>
      </trkpt>
      <trkpt lat="-23.421656" lon="-45.532792">
        <ele>766.736</ele>
        <time>2020-01-19T15:41:16Z</time>
      </trkpt>
      <trkpt lat="-23.421687" lon="-45.532744">
        <ele>766.540</ele>
        <time>2020-01-19T15:41:19Z</time>
      </trkpt>
      <trkpt lat="-23.421707" lon="-45.532697">
        <ele>767.636</ele>
        <time>2020-01-19T15:41:21Z</time>
      </trkpt>
      <trkpt lat="-23.421744" lon="-45.532639">
        <ele>770.760</ele>
        <time>2020-01-19T15:41:25Z</time>
      </trkpt>
      <trkpt lat="-23.421757" lon="-45.532584">
        <ele>772.793</ele>
        <time>2020-01-19T15:41:27Z</time>
      </trkpt>
      <trkpt lat="-23.421765" lon="-45.532533">
        <ele>772.423</ele>
        <time>2020-01-19T15:41:29Z</time>
      </trkpt>
      <trkpt lat="-23.421775" lon="-45.532472">
        <ele>771.716</ele>
        <time>2020-01-19T15:41:31Z</time>
      </trkpt>
      <trkpt lat="-23.421778" lon="-45.532415">
        <ele>770.976</ele>
        <time>2020-01-19T15:41:33Z</time>
      </trkpt>
      <trkpt lat="-23.421784" lon="-45.532349">
        <ele>770.413</ele>
        <time>2020-01-19T15:41:34Z</time>
      </trkpt>
      <trkpt lat="-23.421781" lon="-45.532283">
        <ele>769.808</ele>
        <time>2020-01-19T15:41:36Z</time>
      </trkpt>
      <trkpt lat="-23.421767" lon="-45.532226">
        <ele>769.535</ele>
        <time>2020-01-19T15:41:38Z</time>
      </trkpt>
      <trkpt lat="-23.421749" lon="-45.532171">
        <ele>770.036</ele>
        <time>2020-01-19T15:41:39Z</time>
      </trkpt>
      <trkpt lat="-23.421727" lon="-45.532122">
        <ele>771.828</ele>
        <time>2020-01-19T15:41:40Z</time>
      </trkpt>
      <trkpt lat="-23.421693" lon="-45.532071">
        <ele>773.492</ele>
        <time>2020-01-19T15:41:43Z</time>
      </trkpt>
      <trkpt lat="-23.421655" lon="-45.532039">
        <ele>774.628</ele>
        <time>2020-01-19T15:41:45Z</time>
      </trkpt>
      <trkpt lat="-23.421613" lon="-45.532014">
        <ele>776.122</ele>
        <time>2020-01-19T15:41:47Z</time>
      </trkpt>
      <trkpt lat="-23.421569" lon="-45.531993">
        <ele>778.355</ele>
        <time>2020-01-19T15:41:51Z</time>
      </trkpt>
      <trkpt lat="-23.421523" lon="-45.531984">
        <ele>779.785</ele>
        <time>2020-01-19T15:41:54Z</time>
      </trkpt>
      <trkpt lat="-23.421473" lon="-45.531989">
        <ele>781.672</ele>
        <time>2020-01-19T15:41:57Z</time>
      </trkpt>
      <trkpt lat="-23.421428" lon="-45.531983">
        <ele>782.013</ele>
        <time>2020-01-19T15:42:00Z</time>
      </trkpt>
      <trkpt lat="-23.421372" lon="-45.531974">
        <ele>783.414</ele>
        <time>2020-01-19T15:42:04Z</time>
      </trkpt>
      <trkpt lat="-23.421322" lon="-45.531964">
        <ele>785.208</ele>
        <time>2020-01-19T15:42:07Z</time>
      </trkpt>
      <trkpt lat="-23.421276" lon="-45.531977">
        <ele>788.461</ele>
        <time>2020-01-19T15:42:11Z</time>
      </trkpt>
      <trkpt lat="-23.421229" lon="-45.531988">
        <ele>791.012</ele>
        <time>2020-01-19T15:42:15Z</time>
      </trkpt>
      <trkpt lat="-23.421176" lon="-45.531992">
        <ele>793.184</ele>
        <time>2020-01-19T15:42:19Z</time>
      </trkpt>
      <trkpt lat="-23.421129" lon="-45.532001">
        <ele>794.058</ele>
        <time>2020-01-19T15:42:21Z</time>
      </trkpt>
      <trkpt lat="-23.421080" lon="-45.532011">
        <ele>794.874</ele>
        <time>2020-01-19T15:42:24Z</time>
      </trkpt>
      <trkpt lat="-23.421025" lon="-45.532014">
        <ele>795.728</ele>
        <time>2020-01-19T15:42:27Z</time>
      </trkpt>
      <trkpt lat="-23.420977" lon="-45.532030">
        <ele>797.221</ele>
        <time>2020-01-19T15:42:33Z</time>
      </trkpt>
      <trkpt lat="-23.420934" lon="-45.532062">
        <ele>798.991</ele>
        <time>2020-01-19T15:42:37Z</time>
      </trkpt>
      <trkpt lat="-23.420901" lon="-45.532103">
        <ele>801.055</ele>
        <time>2020-01-19T15:42:41Z</time>
      </trkpt>
      <trkpt lat="-23.420855" lon="-45.532119">
        <ele>797.907</ele>
        <time>2020-01-19T15:42:45Z</time>
      </trkpt>
      <trkpt lat="-23.420797" lon="-45.532118">
        <ele>796.117</ele>
        <time>2020-01-19T15:42:48Z</time>
      </trkpt>
      <trkpt lat="-23.420754" lon="-45.532100">
        <ele>795.508</ele>
        <time>2020-01-19T15:42:51Z</time>
      </trkpt>
      <trkpt lat="-23.420707" lon="-45.532078">
        <ele>794.939</ele>
        <time>2020-01-19T15:42:54Z</time>
      </trkpt>
      <trkpt lat="-23.420660" lon="-45.532059">
        <ele>793.680</ele>
        <time>2020-01-19T15:42:57Z</time>
      </trkpt>
      <trkpt lat="-23.420612" lon="-45.532038">
        <ele>792.972</ele>
        <time>2020-01-19T15:42:59Z</time>
      </trkpt>
      <trkpt lat="-23.420567" lon="-45.532000">
        <ele>792.686</ele>
        <time>2020-01-19T15:43:02Z</time>
      </trkpt>
      <trkpt lat="-23.420524" lon="-45.531965">
        <ele>792.482</ele>
        <time>2020-01-19T15:43:05Z</time>
      </trkpt>
      <trkpt lat="-23.420491" lon="-45.531929">
        <ele>791.696</ele>
        <time>2020-01-19T15:43:07Z</time>
      </trkpt>
      <trkpt lat="-23.420450" lon="-45.531884">
        <ele>790.259</ele>
        <time>2020-01-19T15:43:09Z</time>
      </trkpt>
      <trkpt lat="-23.420407" lon="-45.531857">
        <ele>788.689</ele>
        <time>2020-01-19T15:43:12Z</time>
      </trkpt>
      <trkpt lat="-23.420372" lon="-45.531824">
        <ele>788.279</ele>
        <time>2020-01-19T15:43:14Z</time>
      </trkpt>
      <trkpt lat="-23.420333" lon="-45.531794">
        <ele>788.605</ele>
        <time>2020-01-19T15:43:17Z</time>
      </trkpt>
      <trkpt lat="-23.420282" lon="-45.531760">
        <ele>788.825</ele>
        <time>2020-01-19T15:43:19Z</time>
      </trkpt>
      <trkpt lat="-23.420237" lon="-45.531726">
        <ele>789.308</ele>
        <time>2020-01-19T15:43:23Z</time>
      </trkpt>
      <trkpt lat="-23.420186" lon="-45.531688">
        <ele>785.371</ele>
        <time>2020-01-19T15:43:26Z</time>
      </trkpt>
      <trkpt lat="-23.420145" lon="-45.531652">
        <ele>784.952</ele>
        <time>2020-01-19T15:43:29Z</time>
      </trkpt>
      <trkpt lat="-23.420097" lon="-45.531615">
        <ele>786.134</ele>
        <time>2020-01-19T15:43:32Z</time>
      </trkpt>
      <trkpt lat="-23.420064" lon="-45.531576">
        <ele>785.858</ele>
        <time>2020-01-19T15:43:34Z</time>
      </trkpt>
      <trkpt lat="-23.420035" lon="-45.531538">
        <ele>786.054</ele>
        <time>2020-01-19T15:43:36Z</time>
      </trkpt>
      <trkpt lat="-23.420012" lon="-45.531494">
        <ele>785.928</ele>
        <time>2020-01-19T15:43:39Z</time>
      </trkpt>
      <trkpt lat="-23.419986" lon="-45.531446">
        <ele>786.371</ele>
        <time>2020-01-19T15:43:41Z</time>
      </trkpt>
      <trkpt lat="-23.419957" lon="-45.531394">
        <ele>786.961</ele>
        <time>2020-01-19T15:43:43Z</time>
      </trkpt>
      <trkpt lat="-23.419926" lon="-45.531353">
        <ele>787.398</ele>
        <time>2020-01-19T15:43:45Z</time>
      </trkpt>
      <trkpt lat="-23.419890" lon="-45.531313">
        <ele>787.115</ele>
        <time>2020-01-19T15:43:47Z</time>
      </trkpt>
      <trkpt lat="-23.419856" lon="-45.531278">
        <ele>786.926</ele>
        <time>2020-01-19T15:43:49Z</time>
      </trkpt>
      <trkpt lat="-23.419809" lon="-45.531240">
        <ele>787.508</ele>
        <time>2020-01-19T15:43:51Z</time>
      </trkpt>
      <trkpt lat="-23.419769" lon="-45.531215">
        <ele>787.963</ele>
        <time>2020-01-19T15:43:52Z</time>
      </trkpt>
      <trkpt lat="-23.419718" lon="-45.531195">
        <ele>787.974</ele>
        <time>2020-01-19T15:43:54Z</time>
      </trkpt>
      <trkpt lat="-23.419667" lon="-45.531167">
        <ele>788.266</ele>
        <time>2020-01-19T15:43:55Z</time>
      </trkpt>
      <trkpt lat="-23.419616" lon="-45.531134">
        <ele>788.040</ele>
        <time>2020-01-19T15:43:57Z</time>
      </trkpt>
      <trkpt lat="-23.419578" lon="-45.531085">
        <ele>788.186</ele>
        <time>2020-01-19T15:43:59Z</time>
      </trkpt>
      <trkpt lat="-23.419525" lon="-45.531011">
        <ele>788.020</ele>
        <time>2020-01-19T15:44:01Z</time>
      </trkpt>
      <trkpt lat="-23.419410" lon="-45.530860">
        <ele>787.013</ele>
        <time>2020-01-19T15:44:03Z</time>
      </trkpt>
      <trkpt lat="-23.419368" lon="-45.530816">
        <ele>786.753</ele>
        <time>2020-01-19T15:44:04Z</time>
      </trkpt>
      <trkpt lat="-23.419333" lon="-45.530769">
        <ele>785.879</ele>
        <time>2020-01-19T15:44:05Z</time>
      </trkpt>
      <trkpt lat="-23.419295" lon="-45.530720">
        <ele>784.705</ele>
        <time>2020-01-19T15:44:06Z</time>
      </trkpt>
      <trkpt lat="-23.419248" lon="-45.530686">
        <ele>784.225</ele>
        <time>2020-01-19T15:44:07Z</time>
      </trkpt>
      <trkpt lat="-23.419193" lon="-45.530655">
        <ele>784.108</ele>
        <time>2020-01-19T15:44:08Z</time>
      </trkpt>
      <trkpt lat="-23.419143" lon="-45.530623">
        <ele>784.611</ele>
        <time>2020-01-19T15:44:09Z</time>
      </trkpt>
      <trkpt lat="-23.419099" lon="-45.530593">
        <ele>784.932</ele>
        <time>2020-01-19T15:44:10Z</time>
      </trkpt>
      <trkpt lat="-23.419061" lon="-45.530558">
        <ele>785.014</ele>
        <time>2020-01-19T15:44:11Z</time>
      </trkpt>
      <trkpt lat="-23.419030" lon="-45.530518">
        <ele>785.038</ele>
        <time>2020-01-19T15:44:12Z</time>
      </trkpt>
      <trkpt lat="-23.418978" lon="-45.530460">
        <ele>784.914</ele>
        <time>2020-01-19T15:44:14Z</time>
      </trkpt>
      <trkpt lat="-23.418944" lon="-45.530426">
        <ele>784.578</ele>
        <time>2020-01-19T15:44:15Z</time>
      </trkpt>
      <trkpt lat="-23.418891" lon="-45.530359">
        <ele>784.131</ele>
        <time>2020-01-19T15:44:17Z</time>
      </trkpt>
      <trkpt lat="-23.418811" lon="-45.530311">
        <ele>784.791</ele>
        <time>2020-01-19T15:44:19Z</time>
      </trkpt>
      <trkpt lat="-23.418747" lon="-45.530296">
        <ele>785.222</ele>
        <time>2020-01-19T15:44:20Z</time>
      </trkpt>
      <trkpt lat="-23.418678" lon="-45.530281">
        <ele>785.762</ele>
        <time>2020-01-19T15:44:21Z</time>
      </trkpt>
      <trkpt lat="-23.418616" lon="-45.530269">
        <ele>786.008</ele>
        <time>2020-01-19T15:44:22Z</time>
      </trkpt>
      <trkpt lat="-23.418560" lon="-45.530257">
        <ele>786.108</ele>
        <time>2020-01-19T15:44:23Z</time>
      </trkpt>
      <trkpt lat="-23.418505" lon="-45.530242">
        <ele>786.266</ele>
        <time>2020-01-19T15:44:24Z</time>
      </trkpt>
      <trkpt lat="-23.418449" lon="-45.530225">
        <ele>786.647</ele>
        <time>2020-01-19T15:44:25Z</time>
      </trkpt>
      <trkpt lat="-23.418389" lon="-45.530205">
        <ele>786.289</ele>
        <time>2020-01-19T15:44:26Z</time>
      </trkpt>
      <trkpt lat="-23.418328" lon="-45.530187">
        <ele>785.283</ele>
        <time>2020-01-19T15:44:27Z</time>
      </trkpt>
      <trkpt lat="-23.418266" lon="-45.530169">
        <ele>784.849</ele>
        <time>2020-01-19T15:44:28Z</time>
      </trkpt>
      <trkpt lat="-23.418203" lon="-45.530146">
        <ele>783.933</ele>
        <time>2020-01-19T15:44:29Z</time>
      </trkpt>
      <trkpt lat="-23.418144" lon="-45.530123">
        <ele>783.686</ele>
        <time>2020-01-19T15:44:30Z</time>
      </trkpt>
      <trkpt lat="-23.418100" lon="-45.530100">
        <ele>783.356</ele>
        <time>2020-01-19T15:44:31Z</time>
      </trkpt>
      <trkpt lat="-23.418043" lon="-45.530066">
        <ele>783.525</ele>
        <time>2020-01-19T15:44:33Z</time>
      </trkpt>
      <trkpt lat="-23.417972" lon="-45.530045">
        <ele>783.726</ele>
        <time>2020-01-19T15:44:35Z</time>
      </trkpt>
      <trkpt lat="-23.417897" lon="-45.530076">
        <ele>784.608</ele>
        <time>2020-01-19T15:44:37Z</time>
      </trkpt>
      <trkpt lat="-23.417835" lon="-45.530109">
        <ele>785.008</ele>
        <time>2020-01-19T15:44:39Z</time>
      </trkpt>
      <trkpt lat="-23.417793" lon="-45.530129">
        <ele>784.686</ele>
        <time>2020-01-19T15:44:40Z</time>
      </trkpt>
      <trkpt lat="-23.417748" lon="-45.530139">
        <ele>783.427</ele>
        <time>2020-01-19T15:44:41Z</time>
      </trkpt>
      <trkpt lat="-23.417645" lon="-45.530155">
        <ele>782.819</ele>
        <time>2020-01-19T15:44:43Z</time>
      </trkpt>
      <trkpt lat="-23.417554" lon="-45.530153">
        <ele>781.933</ele>
        <time>2020-01-19T15:44:45Z</time>
      </trkpt>
      <trkpt lat="-23.417493" lon="-45.530161">
        <ele>780.999</ele>
        <time>2020-01-19T15:44:46Z</time>
      </trkpt>
      <trkpt lat="-23.417430" lon="-45.530171">
        <ele>779.443</ele>
        <time>2020-01-19T15:44:47Z</time>
      </trkpt>
      <trkpt lat="-23.417365" lon="-45.530184">
        <ele>778.346</ele>
        <time>2020-01-19T15:44:48Z</time>
      </trkpt>
      <trkpt lat="-23.417300" lon="-45.530194">
        <ele>776.686</ele>
        <time>2020-01-19T15:44:49Z</time>
      </trkpt>
      <trkpt lat="-23.417247" lon="-45.530203">
        <ele>775.497</ele>
        <time>2020-01-19T15:44:50Z</time>
      </trkpt>
      <trkpt lat="-23.417194" lon="-45.530216">
        <ele>775.023</ele>
        <time>2020-01-19T15:44:51Z</time>
      </trkpt>
      <trkpt lat="-23.417144" lon="-45.530227">
        <ele>774.425</ele>
        <time>2020-01-19T15:44:52Z</time>
      </trkpt>
      <trkpt lat="-23.417092" lon="-45.530236">
        <ele>773.708</ele>
        <time>2020-01-19T15:44:53Z</time>
      </trkpt>
      <trkpt lat="-23.417043" lon="-45.530238">
        <ele>772.573</ele>
        <time>2020-01-19T15:44:54Z</time>
      </trkpt>
      <trkpt lat="-23.416996" lon="-45.530237">
        <ele>771.334</ele>
        <time>2020-01-19T15:44:55Z</time>
      </trkpt>
      <trkpt lat="-23.416949" lon="-45.530236">
        <ele>770.516</ele>
        <time>2020-01-19T15:44:56Z</time>
      </trkpt>
      <trkpt lat="-23.416900" lon="-45.530229">
        <ele>769.930</ele>
        <time>2020-01-19T15:44:57Z</time>
      </trkpt>
      <trkpt lat="-23.416819" lon="-45.530195">
        <ele>768.616</ele>
        <time>2020-01-19T15:44:59Z</time>
      </trkpt>
      <trkpt lat="-23.416778" lon="-45.530166">
        <ele>767.290</ele>
        <time>2020-01-19T15:45:00Z</time>
      </trkpt>
      <trkpt lat="-23.416736" lon="-45.530133">
        <ele>765.633</ele>
        <time>2020-01-19T15:45:01Z</time>
      </trkpt>
      <trkpt lat="-23.416702" lon="-45.530090">
        <ele>764.323</ele>
        <time>2020-01-19T15:45:02Z</time>
      </trkpt>
      <trkpt lat="-23.416680" lon="-45.530042">
        <ele>763.536</ele>
        <time>2020-01-19T15:45:03Z</time>
      </trkpt>
      <trkpt lat="-23.416658" lon="-45.529993">
        <ele>762.917</ele>
        <time>2020-01-19T15:45:04Z</time>
      </trkpt>
      <trkpt lat="-23.416636" lon="-45.529944">
        <ele>762.418</ele>
        <time>2020-01-19T15:45:05Z</time>
      </trkpt>
      <trkpt lat="-23.416613" lon="-45.529899">
        <ele>762.108</ele>
        <time>2020-01-19T15:45:06Z</time>
      </trkpt>
      <trkpt lat="-23.416566" lon="-45.529824">
        <ele>761.587</ele>
        <time>2020-01-19T15:45:08Z</time>
      </trkpt>
      <trkpt lat="-23.416495" lon="-45.529759">
        <ele>760.118</ele>
        <time>2020-01-19T15:45:10Z</time>
      </trkpt>
      <trkpt lat="-23.416449" lon="-45.529733">
        <ele>758.980</ele>
        <time>2020-01-19T15:45:11Z</time>
      </trkpt>
      <trkpt lat="-23.416405" lon="-45.529714">
        <ele>757.984</ele>
        <time>2020-01-19T15:45:12Z</time>
      </trkpt>
      <trkpt lat="-23.416356" lon="-45.529691">
        <ele>757.120</ele>
        <time>2020-01-19T15:45:13Z</time>
      </trkpt>
      <trkpt lat="-23.416307" lon="-45.529665">
        <ele>756.534</ele>
        <time>2020-01-19T15:45:14Z</time>
      </trkpt>
      <trkpt lat="-23.416263" lon="-45.529647">
        <ele>755.937</ele>
        <time>2020-01-19T15:45:15Z</time>
      </trkpt>
      <trkpt lat="-23.416216" lon="-45.529632">
        <ele>755.997</ele>
        <time>2020-01-19T15:45:16Z</time>
      </trkpt>
      <trkpt lat="-23.416159" lon="-45.529611">
        <ele>754.983</ele>
        <time>2020-01-19T15:45:18Z</time>
      </trkpt>
      <trkpt lat="-23.416098" lon="-45.529620">
        <ele>753.825</ele>
        <time>2020-01-19T15:45:19Z</time>
      </trkpt>
      <trkpt lat="-23.416045" lon="-45.529626">
        <ele>753.017</ele>
        <time>2020-01-19T15:45:20Z</time>
      </trkpt>
      <trkpt lat="-23.415995" lon="-45.529639">
        <ele>752.408</ele>
        <time>2020-01-19T15:45:21Z</time>
      </trkpt>
      <trkpt lat="-23.415944" lon="-45.529658">
        <ele>752.412</ele>
        <time>2020-01-19T15:45:22Z</time>
      </trkpt>
      <trkpt lat="-23.415895" lon="-45.529677">
        <ele>752.463</ele>
        <time>2020-01-19T15:45:23Z</time>
      </trkpt>
      <trkpt lat="-23.415837" lon="-45.529683">
        <ele>752.235</ele>
        <time>2020-01-19T15:45:24Z</time>
      </trkpt>
      <trkpt lat="-23.415781" lon="-45.529696">
        <ele>751.649</ele>
        <time>2020-01-19T15:45:25Z</time>
      </trkpt>
      <trkpt lat="-23.415724" lon="-45.529710">
        <ele>750.565</ele>
        <time>2020-01-19T15:45:26Z</time>
      </trkpt>
      <trkpt lat="-23.415671" lon="-45.529718">
        <ele>749.659</ele>
        <time>2020-01-19T15:45:27Z</time>
      </trkpt>
      <trkpt lat="-23.415630" lon="-45.529755">
        <ele>748.812</ele>
        <time>2020-01-19T15:45:28Z</time>
      </trkpt>
      <trkpt lat="-23.415585" lon="-45.529790">
        <ele>748.732</ele>
        <time>2020-01-19T15:45:29Z</time>
      </trkpt>
      <trkpt lat="-23.415528" lon="-45.529810">
        <ele>748.645</ele>
        <time>2020-01-19T15:45:30Z</time>
      </trkpt>
      <trkpt lat="-23.415463" lon="-45.529826">
        <ele>748.147</ele>
        <time>2020-01-19T15:45:31Z</time>
      </trkpt>
      <trkpt lat="-23.415405" lon="-45.529842">
        <ele>747.711</ele>
        <time>2020-01-19T15:45:32Z</time>
      </trkpt>
      <trkpt lat="-23.415346" lon="-45.529864">
        <ele>747.408</ele>
        <time>2020-01-19T15:45:33Z</time>
      </trkpt>
      <trkpt lat="-23.415292" lon="-45.529890">
        <ele>747.358</ele>
        <time>2020-01-19T15:45:34Z</time>
      </trkpt>
      <trkpt lat="-23.415244" lon="-45.529913">
        <ele>747.589</ele>
        <time>2020-01-19T15:45:35Z</time>
      </trkpt>
      <trkpt lat="-23.415193" lon="-45.529930">
        <ele>747.131</ele>
        <time>2020-01-19T15:45:36Z</time>
      </trkpt>
      <trkpt lat="-23.415108" lon="-45.529937">
        <ele>746.325</ele>
        <time>2020-01-19T15:45:38Z</time>
      </trkpt>
      <trkpt lat="-23.415028" lon="-45.529939">
        <ele>744.771</ele>
        <time>2020-01-19T15:45:40Z</time>
      </trkpt>
      <trkpt lat="-23.414945" lon="-45.529941">
        <ele>743.155</ele>
        <time>2020-01-19T15:45:42Z</time>
      </trkpt>
      <trkpt lat="-23.414897" lon="-45.529935">
        <ele>741.918</ele>
        <time>2020-01-19T15:45:43Z</time>
      </trkpt>
      <trkpt lat="-23.414847" lon="-45.529930">
        <ele>741.388</ele>
        <time>2020-01-19T15:45:44Z</time>
      </trkpt>
      <trkpt lat="-23.414795" lon="-45.529922">
        <ele>741.312</ele>
        <time>2020-01-19T15:45:45Z</time>
      </trkpt>
      <trkpt lat="-23.414740" lon="-45.529907">
        <ele>740.932</ele>
        <time>2020-01-19T15:45:46Z</time>
      </trkpt>
      <trkpt lat="-23.414684" lon="-45.529880">
        <ele>740.305</ele>
        <time>2020-01-19T15:45:47Z</time>
      </trkpt>
      <trkpt lat="-23.414627" lon="-45.529855">
        <ele>739.608</ele>
        <time>2020-01-19T15:45:48Z</time>
      </trkpt>
      <trkpt lat="-23.414574" lon="-45.529824">
        <ele>738.345</ele>
        <time>2020-01-19T15:45:49Z</time>
      </trkpt>
      <trkpt lat="-23.414518" lon="-45.529798">
        <ele>737.266</ele>
        <time>2020-01-19T15:45:50Z</time>
      </trkpt>
      <trkpt lat="-23.414462" lon="-45.529780">
        <ele>736.118</ele>
        <time>2020-01-19T15:45:51Z</time>
      </trkpt>
      <trkpt lat="-23.414396" lon="-45.529759">
        <ele>735.042</ele>
        <time>2020-01-19T15:45:52Z</time>
      </trkpt>
      <trkpt lat="-23.414342" lon="-45.529744">
        <ele>734.128</ele>
        <time>2020-01-19T15:45:53Z</time>
      </trkpt>
      <trkpt lat="-23.414277" lon="-45.529719">
        <ele>733.442</ele>
        <time>2020-01-19T15:45:54Z</time>
      </trkpt>
      <trkpt lat="-23.414218" lon="-45.529702">
        <ele>733.025</ele>
        <time>2020-01-19T15:45:55Z</time>
      </trkpt>
      <trkpt lat="-23.414160" lon="-45.529692">
        <ele>732.295</ele>
        <time>2020-01-19T15:45:56Z</time>
      </trkpt>
      <trkpt lat="-23.414100" lon="-45.529687">
        <ele>731.691</ele>
        <time>2020-01-19T15:45:57Z</time>
      </trkpt>
      <trkpt lat="-23.414039" lon="-45.529682">
        <ele>730.681</ele>
        <time>2020-01-19T15:45:58Z</time>
      </trkpt>
      <trkpt lat="-23.413981" lon="-45.529685">
        <ele>729.719</ele>
        <time>2020-01-19T15:45:59Z</time>
      </trkpt>
      <trkpt lat="-23.413919" lon="-45.529688">
        <ele>729.408</ele>
        <time>2020-01-19T15:46:00Z</time>
      </trkpt>
      <trkpt lat="-23.413853" lon="-45.529694">
        <ele>728.553</ele>
        <time>2020-01-19T15:46:01Z</time>
      </trkpt>
      <trkpt lat="-23.413792" lon="-45.529702">
        <ele>727.884</ele>
        <time>2020-01-19T15:46:02Z</time>
      </trkpt>
      <trkpt lat="-23.413727" lon="-45.529695">
        <ele>726.886</ele>
        <time>2020-01-19T15:46:03Z</time>
      </trkpt>
      <trkpt lat="-23.413665" lon="-45.529687">
        <ele>726.260</ele>
        <time>2020-01-19T15:46:04Z</time>
      </trkpt>
      <trkpt lat="-23.413607" lon="-45.529686">
        <ele>725.736</ele>
        <time>2020-01-19T15:46:05Z</time>
      </trkpt>
      <trkpt lat="-23.413554" lon="-45.529695">
        <ele>724.030</ele>
        <time>2020-01-19T15:46:06Z</time>
      </trkpt>
      <trkpt lat="-23.413498" lon="-45.529712">
        <ele>722.793</ele>
        <time>2020-01-19T15:46:07Z</time>
      </trkpt>
      <trkpt lat="-23.413442" lon="-45.529723">
        <ele>721.543</ele>
        <time>2020-01-19T15:46:08Z</time>
      </trkpt>
      <trkpt lat="-23.413383" lon="-45.529734">
        <ele>720.854</ele>
        <time>2020-01-19T15:46:09Z</time>
      </trkpt>
      <trkpt lat="-23.413320" lon="-45.529753">
        <ele>719.856</ele>
        <time>2020-01-19T15:46:10Z</time>
      </trkpt>
      <trkpt lat="-23.413259" lon="-45.529766">
        <ele>719.311</ele>
        <time>2020-01-19T15:46:11Z</time>
      </trkpt>
      <trkpt lat="-23.413201" lon="-45.529779">
        <ele>719.108</ele>
        <time>2020-01-19T15:46:12Z</time>
      </trkpt>
      <trkpt lat="-23.413143" lon="-45.529788">
        <ele>718.569</ele>
        <time>2020-01-19T15:46:13Z</time>
      </trkpt>
      <trkpt lat="-23.413086" lon="-45.529796">
        <ele>718.580</ele>
        <time>2020-01-19T15:46:14Z</time>
      </trkpt>
      <trkpt lat="-23.413031" lon="-45.529806">
        <ele>718.162</ele>
        <time>2020-01-19T15:46:15Z</time>
      </trkpt>
      <trkpt lat="-23.412984" lon="-45.529822">
        <ele>717.766</ele>
        <time>2020-01-19T15:46:16Z</time>
      </trkpt>
      <trkpt lat="-23.412937" lon="-45.529840">
        <ele>717.732</ele>
        <time>2020-01-19T15:46:17Z</time>
      </trkpt>
      <trkpt lat="-23.412889" lon="-45.529854">
        <ele>717.396</ele>
        <time>2020-01-19T15:46:18Z</time>
      </trkpt>
      <trkpt lat="-23.412844" lon="-45.529865">
        <ele>716.479</ele>
        <time>2020-01-19T15:46:19Z</time>
      </trkpt>
      <trkpt lat="-23.412762" lon="-45.529884">
        <ele>716.169</ele>
        <time>2020-01-19T15:46:21Z</time>
      </trkpt>
      <trkpt lat="-23.412689" lon="-45.529901">
        <ele>716.391</ele>
        <time>2020-01-19T15:46:23Z</time>
      </trkpt>
      <trkpt lat="-23.412608" lon="-45.529924">
        <ele>716.881</ele>
        <time>2020-01-19T15:46:25Z</time>
      </trkpt>
      <trkpt lat="-23.412537" lon="-45.529949">
        <ele>716.419</ele>
        <time>2020-01-19T15:46:27Z</time>
      </trkpt>
      <trkpt lat="-23.412520" lon="-45.530000">
        <ele>716.008</ele>
        <time>2020-01-19T15:46:29Z</time>
      </trkpt>
      <trkpt lat="-23.412468" lon="-45.530009">
        <ele>715.123</ele>
        <time>2020-01-19T15:46:31Z</time>
      </trkpt>
      <trkpt lat="-23.412419" lon="-45.530024">
        <ele>714.544</ele>
        <time>2020-01-19T15:46:32Z</time>
      </trkpt>
      <trkpt lat="-23.412352" lon="-45.530047">
        <ele>714.196</ele>
        <time>2020-01-19T15:46:33Z</time>
      </trkpt>
      <trkpt lat="-23.412296" lon="-45.530073">
        <ele>712.790</ele>
        <time>2020-01-19T15:46:35Z</time>
      </trkpt>
      <trkpt lat="-23.412241" lon="-45.530107">
        <ele>712.046</ele>
        <time>2020-01-19T15:46:36Z</time>
      </trkpt>
      <trkpt lat="-23.412190" lon="-45.530146">
        <ele>711.670</ele>
        <time>2020-01-19T15:46:38Z</time>
      </trkpt>
      <trkpt lat="-23.412146" lon="-45.530173">
        <ele>711.373</ele>
        <time>2020-01-19T15:46:40Z</time>
      </trkpt>
      <trkpt lat="-23.411970" lon="-45.530243">
        <ele>710.373</ele>
        <time>2020-01-19T15:46:42Z</time>
      </trkpt>
      <trkpt lat="-23.411919" lon="-45.530274">
        <ele>709.691</ele>
        <time>2020-01-19T15:46:43Z</time>
      </trkpt>
      <trkpt lat="-23.411867" lon="-45.530296">
        <ele>709.281</ele>
        <time>2020-01-19T15:46:44Z</time>
      </trkpt>
      <trkpt lat="-23.411813" lon="-45.530313">
        <ele>707.819</ele>
        <time>2020-01-19T15:46:45Z</time>
      </trkpt>
      <trkpt lat="-23.411757" lon="-45.530326">
        <ele>707.508</ele>
        <time>2020-01-19T15:46:46Z</time>
      </trkpt>
      <trkpt lat="-23.411698" lon="-45.530333">
        <ele>706.833</ele>
        <time>2020-01-19T15:46:47Z</time>
      </trkpt>
      <trkpt lat="-23.411637" lon="-45.530335">
        <ele>706.124</ele>
        <time>2020-01-19T15:46:48Z</time>
      </trkpt>
      <trkpt lat="-23.411578" lon="-45.530340">
        <ele>705.686</ele>
        <time>2020-01-19T15:46:49Z</time>
      </trkpt>
      <trkpt lat="-23.411519" lon="-45.530352">
        <ele>705.230</ele>
        <time>2020-01-19T15:46:50Z</time>
      </trkpt>
      <trkpt lat="-23.411466" lon="-45.530375">
        <ele>704.166</ele>
        <time>2020-01-19T15:46:51Z</time>
      </trkpt>
      <trkpt lat="-23.411405" lon="-45.530396">
        <ele>702.380</ele>
        <time>2020-01-19T15:46:52Z</time>
      </trkpt>
      <trkpt lat="-23.411344" lon="-45.530416">
        <ele>701.423</ele>
        <time>2020-01-19T15:46:53Z</time>
      </trkpt>
      <trkpt lat="-23.411278" lon="-45.530446">
        <ele>700.683</ele>
        <time>2020-01-19T15:46:54Z</time>
      </trkpt>
      <trkpt lat="-23.411213" lon="-45.530473">
        <ele>699.659</ele>
        <time>2020-01-19T15:46:55Z</time>
      </trkpt>
      <trkpt lat="-23.411158" lon="-45.530492">
        <ele>699.303</ele>
        <time>2020-01-19T15:46:56Z</time>
      </trkpt>
      <trkpt lat="-23.411110" lon="-45.530507">
        <ele>698.823</ele>
        <time>2020-01-19T15:46:57Z</time>
      </trkpt>
      <trkpt lat="-23.411064" lon="-45.530525">
        <ele>698.508</ele>
        <time>2020-01-19T15:46:58Z</time>
      </trkpt>
      <trkpt lat="-23.411012" lon="-45.530540">
        <ele>697.639</ele>
        <time>2020-01-19T15:46:59Z</time>
      </trkpt>
      <trkpt lat="-23.410960" lon="-45.530552">
        <ele>697.210</ele>
        <time>2020-01-19T15:47:00Z</time>
      </trkpt>
      <trkpt lat="-23.410910" lon="-45.530564">
        <ele>696.582</ele>
        <time>2020-01-19T15:47:01Z</time>
      </trkpt>
      <trkpt lat="-23.410866" lon="-45.530577">
        <ele>696.666</ele>
        <time>2020-01-19T15:47:02Z</time>
      </trkpt>
      <trkpt lat="-23.410786" lon="-45.530593">
        <ele>697.572</ele>
        <time>2020-01-19T15:47:04Z</time>
      </trkpt>
      <trkpt lat="-23.410712" lon="-45.530614">
        <ele>698.246</ele>
        <time>2020-01-19T15:47:06Z</time>
      </trkpt>
      <trkpt lat="-23.410643" lon="-45.530620">
        <ele>698.739</ele>
        <time>2020-01-19T15:47:08Z</time>
      </trkpt>
      <trkpt lat="-23.410595" lon="-45.530603">
        <ele>699.319</ele>
        <time>2020-01-19T15:47:10Z</time>
      </trkpt>
      <trkpt lat="-23.410541" lon="-45.530603">
        <ele>699.684</ele>
        <time>2020-01-19T15:47:12Z</time>
      </trkpt>
      <trkpt lat="-23.410485" lon="-45.530603">
        <ele>698.507</ele>
        <time>2020-01-19T15:47:14Z</time>
      </trkpt>
      <trkpt lat="-23.410430" lon="-45.530598">
        <ele>697.817</ele>
        <time>2020-01-19T15:47:16Z</time>
      </trkpt>
      <trkpt lat="-23.410367" lon="-45.530582">
        <ele>697.208</ele>
        <time>2020-01-19T15:47:17Z</time>
      </trkpt>
      <trkpt lat="-23.410273" lon="-45.530534">
        <ele>697.452</ele>
        <time>2020-01-19T15:47:19Z</time>
      </trkpt>
      <trkpt lat="-23.410230" lon="-45.530514">
        <ele>696.973</ele>
        <time>2020-01-19T15:47:20Z</time>
      </trkpt>
      <trkpt lat="-23.410187" lon="-45.530456">
        <ele>696.435</ele>
        <time>2020-01-19T15:47:22Z</time>
      </trkpt>
      <trkpt lat="-23.410133" lon="-45.530424">
        <ele>696.449</ele>
        <time>2020-01-19T15:47:24Z</time>
      </trkpt>
      <trkpt lat="-23.410079" lon="-45.530389">
        <ele>696.275</ele>
        <time>2020-01-19T15:47:25Z</time>
      </trkpt>
      <trkpt lat="-23.410020" lon="-45.530351">
        <ele>696.359</ele>
        <time>2020-01-19T15:47:28Z</time>
      </trkpt>
      <trkpt lat="-23.409973" lon="-45.530331">
        <ele>695.892</ele>
        <time>2020-01-19T15:47:31Z</time>
      </trkpt>
      <trkpt lat="-23.409925" lon="-45.530310">
        <ele>695.712</ele>
        <time>2020-01-19T15:47:36Z</time>
      </trkpt>
      <trkpt lat="-23.409874" lon="-45.530307">
        <ele>695.665</ele>
        <time>2020-01-19T15:47:42Z</time>
      </trkpt>
      <trkpt lat="-23.409824" lon="-45.530307">
        <ele>696.468</ele>
        <time>2020-01-19T15:47:49Z</time>
      </trkpt>
      <trkpt lat="-23.409759" lon="-45.530317">
        <ele>696.814</ele>
        <time>2020-01-19T15:47:53Z</time>
      </trkpt>
      <trkpt lat="-23.409706" lon="-45.530327">
        <ele>696.908</ele>
        <time>2020-01-19T15:47:57Z</time>
      </trkpt>
      <trkpt lat="-23.409662" lon="-45.530348">
        <ele>697.460</ele>
        <time>2020-01-19T15:48:00Z</time>
      </trkpt>
      <trkpt lat="-23.409612" lon="-45.530364">
        <ele>698.751</ele>
        <time>2020-01-19T15:48:04Z</time>
      </trkpt>
      <trkpt lat="-23.409567" lon="-45.530365">
        <ele>699.883</ele>
        <time>2020-01-19T15:48:06Z</time>
      </trkpt>
      <trkpt lat="-23.409519" lon="-45.530365">
        <ele>700.717</ele>
        <time>2020-01-19T15:48:10Z</time>
      </trkpt>
      <trkpt lat="-23.409474" lon="-45.530363">
        <ele>700.533</ele>
        <time>2020-01-19T15:48:14Z</time>
      </trkpt>
      <trkpt lat="-23.409425" lon="-45.530345">
        <ele>700.427</ele>
        <time>2020-01-19T15:48:18Z</time>
      </trkpt>
      <trkpt lat="-23.409381" lon="-45.530330">
        <ele>700.820</ele>
        <time>2020-01-19T15:48:21Z</time>
      </trkpt>
      <trkpt lat="-23.409331" lon="-45.530315">
        <ele>701.640</ele>
        <time>2020-01-19T15:48:24Z</time>
      </trkpt>
      <trkpt lat="-23.409269" lon="-45.530294">
        <ele>702.295</ele>
        <time>2020-01-19T15:48:28Z</time>
      </trkpt>
      <trkpt lat="-23.409221" lon="-45.530271">
        <ele>702.649</ele>
        <time>2020-01-19T15:48:31Z</time>
      </trkpt>
      <trkpt lat="-23.409177" lon="-45.530257">
        <ele>703.323</ele>
        <time>2020-01-19T15:48:34Z</time>
      </trkpt>
      <trkpt lat="-23.409127" lon="-45.530244">
        <ele>703.608</ele>
        <time>2020-01-19T15:48:37Z</time>
      </trkpt>
      <trkpt lat="-23.409082" lon="-45.530229">
        <ele>703.013</ele>
        <time>2020-01-19T15:48:40Z</time>
      </trkpt>
      <trkpt lat="-23.409039" lon="-45.530207">
        <ele>702.324</ele>
        <time>2020-01-19T15:48:42Z</time>
      </trkpt>
      <trkpt lat="-23.408992" lon="-45.530181">
        <ele>702.696</ele>
        <time>2020-01-19T15:48:46Z</time>
      </trkpt>
      <trkpt lat="-23.408946" lon="-45.530155">
        <ele>702.250</ele>
        <time>2020-01-19T15:48:49Z</time>
      </trkpt>
      <trkpt lat="-23.408904" lon="-45.530133">
        <ele>702.546</ele>
        <time>2020-01-19T15:48:51Z</time>
      </trkpt>
      <trkpt lat="-23.408857" lon="-45.530116">
        <ele>702.820</ele>
        <time>2020-01-19T15:48:55Z</time>
      </trkpt>
      <trkpt lat="-23.408816" lon="-45.530094">
        <ele>702.963</ele>
        <time>2020-01-19T15:48:57Z</time>
      </trkpt>
      <trkpt lat="-23.408764" lon="-45.530069">
        <ele>702.733</ele>
        <time>2020-01-19T15:49:00Z</time>
      </trkpt>
      <trkpt lat="-23.408708" lon="-45.530045">
        <ele>702.362</ele>
        <time>2020-01-19T15:49:03Z</time>
      </trkpt>
      <trkpt lat="-23.408663" lon="-45.530031">
        <ele>702.683</ele>
        <time>2020-01-19T15:49:05Z</time>
      </trkpt>
      <trkpt lat="-23.408610" lon="-45.530020">
        <ele>702.611</ele>
        <time>2020-01-19T15:49:08Z</time>
      </trkpt>
      <trkpt lat="-23.408564" lon="-45.530010">
        <ele>702.808</ele>
        <time>2020-01-19T15:49:11Z</time>
      </trkpt>
      <trkpt lat="-23.408517" lon="-45.530002">
        <ele>703.670</ele>
        <time>2020-01-19T15:49:15Z</time>
      </trkpt>
      <trkpt lat="-23.408458" lon="-45.529988">
        <ele>705.051</ele>
        <time>2020-01-19T15:49:18Z</time>
      </trkpt>
      <trkpt lat="-23.408411" lon="-45.529995">
        <ele>707.143</ele>
        <time>2020-01-19T15:49:22Z</time>
      </trkpt>
      <trkpt lat="-23.408359" lon="-45.530009">
        <ele>707.967</ele>
        <time>2020-01-19T15:49:25Z</time>
      </trkpt>
      <trkpt lat="-23.408311" lon="-45.530016">
        <ele>709.783</ele>
        <time>2020-01-19T15:49:27Z</time>
      </trkpt>
      <trkpt lat="-23.408266" lon="-45.530027">
        <ele>710.117</ele>
        <time>2020-01-19T15:49:30Z</time>
      </trkpt>
      <trkpt lat="-23.408213" lon="-45.530026">
        <ele>708.870</ele>
        <time>2020-01-19T15:49:33Z</time>
      </trkpt>
      <trkpt lat="-23.408165" lon="-45.530036">
        <ele>709.420</ele>
        <time>2020-01-19T15:49:37Z</time>
      </trkpt>
      <trkpt lat="-23.408119" lon="-45.530045">
        <ele>709.795</ele>
        <time>2020-01-19T15:49:40Z</time>
      </trkpt>
      <trkpt lat="-23.408068" lon="-45.530054">
        <ele>709.449</ele>
        <time>2020-01-19T15:49:43Z</time>
      </trkpt>
      <trkpt lat="-23.408022" lon="-45.530051">
        <ele>708.423</ele>
        <time>2020-01-19T15:49:46Z</time>
      </trkpt>
      <trkpt lat="-23.407976" lon="-45.530017">
        <ele>705.808</ele>
        <time>2020-01-19T15:49:49Z</time>
      </trkpt>
      <trkpt lat="-23.407935" lon="-45.529974">
        <ele>704.493</ele>
        <time>2020-01-19T15:49:51Z</time>
      </trkpt>
      <trkpt lat="-23.407902" lon="-45.529929">
        <ele>703.674</ele>
        <time>2020-01-19T15:49:53Z</time>
      </trkpt>
      <trkpt lat="-23.407887" lon="-45.529883">
        <ele>704.086</ele>
        <time>2020-01-19T15:49:55Z</time>
      </trkpt>
      <trkpt lat="-23.407875" lon="-45.529831">
        <ele>705.090</ele>
        <time>2020-01-19T15:49:58Z</time>
      </trkpt>
      <trkpt lat="-23.407879" lon="-45.529780">
        <ele>706.036</ele>
        <time>2020-01-19T15:50:00Z</time>
      </trkpt>
      <trkpt lat="-23.407893" lon="-45.529712">
        <ele>706.390</ele>
        <time>2020-01-19T15:50:03Z</time>
      </trkpt>
      <trkpt lat="-23.407921" lon="-45.529661">
        <ele>707.173</ele>
        <time>2020-01-19T15:50:06Z</time>
      </trkpt>
      <trkpt lat="-23.407959" lon="-45.529619">
        <ele>707.153</ele>
        <time>2020-01-19T15:50:09Z</time>
      </trkpt>
      <trkpt lat="-23.407996" lon="-45.529583">
        <ele>708.458</ele>
        <time>2020-01-19T15:50:12Z</time>
      </trkpt>
      <trkpt lat="-23.408037" lon="-45.529544">
        <ele>709.352</ele>
        <time>2020-01-19T15:50:16Z</time>
      </trkpt>
      <trkpt lat="-23.408081" lon="-45.529517">
        <ele>709.817</ele>
        <time>2020-01-19T15:50:19Z</time>
      </trkpt>
      <trkpt lat="-23.408109" lon="-45.529474">
        <ele>710.208</ele>
        <time>2020-01-19T15:50:21Z</time>
      </trkpt>
      <trkpt lat="-23.408125" lon="-45.529426">
        <ele>711.539</ele>
        <time>2020-01-19T15:50:25Z</time>
      </trkpt>
      <trkpt lat="-23.408125" lon="-45.529369">
        <ele>712.970</ele>
        <time>2020-01-19T15:50:29Z</time>
      </trkpt>
      <trkpt lat="-23.408112" lon="-45.529314">
        <ele>713.732</ele>
        <time>2020-01-19T15:50:31Z</time>
      </trkpt>
      <trkpt lat="-23.408104" lon="-45.529260">
        <ele>714.986</ele>
        <time>2020-01-19T15:50:35Z</time>
      </trkpt>
      <trkpt lat="-23.408112" lon="-45.529208">
        <ele>715.942</ele>
        <time>2020-01-19T15:50:38Z</time>
      </trkpt>
      <trkpt lat="-23.408128" lon="-45.529148">
        <ele>717.236</ele>
        <time>2020-01-19T15:50:42Z</time>
      </trkpt>
      <trkpt lat="-23.408139" lon="-45.529090">
        <ele>717.669</ele>
        <time>2020-01-19T15:50:45Z</time>
      </trkpt>
      <trkpt lat="-23.408143" lon="-45.529034">
        <ele>717.899</ele>
        <time>2020-01-19T15:50:47Z</time>
      </trkpt>
      <trkpt lat="-23.408146" lon="-45.528979">
        <ele>717.173</ele>
        <time>2020-01-19T15:50:50Z</time>
      </trkpt>
      <trkpt lat="-23.408154" lon="-45.528922">
        <ele>717.985</ele>
        <time>2020-01-19T15:50:54Z</time>
      </trkpt>
      <trkpt lat="-23.408142" lon="-45.528873">
        <ele>718.113</ele>
        <time>2020-01-19T15:50:58Z</time>
      </trkpt>
      <trkpt lat="-23.408128" lon="-45.528822">
        <ele>718.008</ele>
        <time>2020-01-19T15:51:01Z</time>
      </trkpt>
      <trkpt lat="-23.408114" lon="-45.528772">
        <ele>718.991</ele>
        <time>2020-01-19T15:51:05Z</time>
      </trkpt>
      <trkpt lat="-23.408091" lon="-45.528722">
        <ele>719.622</ele>
        <time>2020-01-19T15:51:09Z</time>
      </trkpt>
      <trkpt lat="-23.408069" lon="-45.528672">
        <ele>719.894</ele>
        <time>2020-01-19T15:51:12Z</time>
      </trkpt>
      <trkpt lat="-23.408057" lon="-45.528619">
        <ele>719.518</ele>
        <time>2020-01-19T15:51:16Z</time>
      </trkpt>
      <trkpt lat="-23.408054" lon="-45.528567">
        <ele>719.984</ele>
        <time>2020-01-19T15:51:19Z</time>
      </trkpt>
      <trkpt lat="-23.408054" lon="-45.528516">
        <ele>719.848</ele>
        <time>2020-01-19T15:51:22Z</time>
      </trkpt>
      <trkpt lat="-23.408048" lon="-45.528455">
        <ele>719.421</ele>
        <time>2020-01-19T15:51:27Z</time>
      </trkpt>
      <trkpt lat="-23.408037" lon="-45.528399">
        <ele>718.671</ele>
        <time>2020-01-19T15:51:30Z</time>
      </trkpt>
      <trkpt lat="-23.408011" lon="-45.528354">
        <ele>718.422</ele>
        <time>2020-01-19T15:51:33Z</time>
      </trkpt>
      <trkpt lat="-23.408001" lon="-45.528292">
        <ele>718.262</ele>
        <time>2020-01-19T15:51:36Z</time>
      </trkpt>
      <trkpt lat="-23.408004" lon="-45.528234">
        <ele>718.308</ele>
        <time>2020-01-19T15:51:38Z</time>
      </trkpt>
      <trkpt lat="-23.408005" lon="-45.528178">
        <ele>718.308</ele>
        <time>2020-01-19T15:51:41Z</time>
      </trkpt>
      <trkpt lat="-23.407998" lon="-45.528119">
        <ele>719.626</ele>
        <time>2020-01-19T15:51:44Z</time>
      </trkpt>
      <trkpt lat="-23.407987" lon="-45.528069">
        <ele>720.227</ele>
        <time>2020-01-19T15:51:47Z</time>
      </trkpt>
      <trkpt lat="-23.407987" lon="-45.528014">
        <ele>721.749</ele>
        <time>2020-01-19T15:51:50Z</time>
      </trkpt>
      <trkpt lat="-23.407989" lon="-45.527963">
        <ele>722.553</ele>
        <time>2020-01-19T15:51:53Z</time>
      </trkpt>
      <trkpt lat="-23.407997" lon="-45.527912">
        <ele>723.519</ele>
        <time>2020-01-19T15:51:56Z</time>
      </trkpt>
      <trkpt lat="-23.408004" lon="-45.527858">
        <ele>723.583</ele>
        <time>2020-01-19T15:51:59Z</time>
      </trkpt>
      <trkpt lat="-23.408015" lon="-45.527809">
        <ele>723.766</ele>
        <time>2020-01-19T15:52:02Z</time>
      </trkpt>
      <trkpt lat="-23.408026" lon="-45.527753">
        <ele>723.816</ele>
        <time>2020-01-19T15:52:06Z</time>
      </trkpt>
      <trkpt lat="-23.408029" lon="-45.527701">
        <ele>723.555</ele>
        <time>2020-01-19T15:52:11Z</time>
      </trkpt>
      <trkpt lat="-23.408005" lon="-45.527655">
        <ele>724.507</ele>
        <time>2020-01-19T15:52:16Z</time>
      </trkpt>
      <trkpt lat="-23.407967" lon="-45.527628">
        <ele>725.317</ele>
        <time>2020-01-19T15:52:18Z</time>
      </trkpt>
      <trkpt lat="-23.407916" lon="-45.527616">
        <ele>725.208</ele>
        <time>2020-01-19T15:52:23Z</time>
      </trkpt>
      <trkpt lat="-23.407870" lon="-45.527617">
        <ele>725.319</ele>
        <time>2020-01-19T15:52:27Z</time>
      </trkpt>
      <trkpt lat="-23.407823" lon="-45.527613">
        <ele>724.980</ele>
        <time>2020-01-19T15:52:31Z</time>
      </trkpt>
      <trkpt lat="-23.407772" lon="-45.527614">
        <ele>725.122</ele>
        <time>2020-01-19T15:52:35Z</time>
      </trkpt>
      <trkpt lat="-23.407724" lon="-45.527610">
        <ele>724.886</ele>
        <time>2020-01-19T15:52:38Z</time>
      </trkpt>
      <trkpt lat="-23.407677" lon="-45.527598">
        <ele>723.862</ele>
        <time>2020-01-19T15:52:43Z</time>
      </trkpt>
      <trkpt lat="-23.407634" lon="-45.527581">
        <ele>722.066</ele>
        <time>2020-01-19T15:52:48Z</time>
      </trkpt>
      <trkpt lat="-23.407595" lon="-45.527556">
        <ele>719.919</ele>
        <time>2020-01-19T15:52:52Z</time>
      </trkpt>
      <trkpt lat="-23.407562" lon="-45.527517">
        <ele>719.159</ele>
        <time>2020-01-19T15:52:56Z</time>
      </trkpt>
      <trkpt lat="-23.407545" lon="-45.527468">
        <ele>718.459</ele>
        <time>2020-01-19T15:53:00Z</time>
      </trkpt>
      <trkpt lat="-23.407529" lon="-45.527422">
        <ele>717.703</ele>
        <time>2020-01-19T15:53:03Z</time>
      </trkpt>
      <trkpt lat="-23.407500" lon="-45.527381">
        <ele>719.123</ele>
        <time>2020-01-19T15:53:07Z</time>
      </trkpt>
      <trkpt lat="-23.407478" lon="-45.527336">
        <ele>720.408</ele>
        <time>2020-01-19T15:53:11Z</time>
      </trkpt>
      <trkpt lat="-23.407459" lon="-45.527286">
        <ele>722.269</ele>
        <time>2020-01-19T15:53:15Z</time>
      </trkpt>
      <trkpt lat="-23.407448" lon="-45.527236">
        <ele>723.760</ele>
        <time>2020-01-19T15:53:19Z</time>
      </trkpt>
      <trkpt lat="-23.407423" lon="-45.527194">
        <ele>726.352</ele>
        <time>2020-01-19T15:53:25Z</time>
      </trkpt>
      <trkpt lat="-23.407392" lon="-45.527153">
        <ele>728.146</ele>
        <time>2020-01-19T15:53:31Z</time>
      </trkpt>
      <trkpt lat="-23.407357" lon="-45.527117">
        <ele>729.822</ele>
        <time>2020-01-19T15:53:36Z</time>
      </trkpt>
      <trkpt lat="-23.407337" lon="-45.527072">
        <ele>730.356</ele>
        <time>2020-01-19T15:53:43Z</time>
      </trkpt>
      <trkpt lat="-23.407325" lon="-45.527025">
        <ele>730.679</ele>
        <time>2020-01-19T15:53:50Z</time>
      </trkpt>
      <trkpt lat="-23.407301" lon="-45.526981">
        <ele>731.429</ele>
        <time>2020-01-19T15:53:55Z</time>
      </trkpt>
      <trkpt lat="-23.407262" lon="-45.526940">
        <ele>732.142</ele>
        <time>2020-01-19T15:53:59Z</time>
      </trkpt>
      <trkpt lat="-23.407230" lon="-45.526905">
        <ele>733.422</ele>
        <time>2020-01-19T15:54:05Z</time>
      </trkpt>
      <trkpt lat="-23.407209" lon="-45.526859">
        <ele>734.014</ele>
        <time>2020-01-19T15:54:10Z</time>
      </trkpt>
      <trkpt lat="-23.407193" lon="-45.526807">
        <ele>734.508</ele>
        <time>2020-01-19T15:54:15Z</time>
      </trkpt>
      <trkpt lat="-23.407194" lon="-45.526753">
        <ele>734.998</ele>
        <time>2020-01-19T15:54:18Z</time>
      </trkpt>
      <trkpt lat="-23.407198" lon="-45.526700">
        <ele>734.519</ele>
        <time>2020-01-19T15:54:22Z</time>
      </trkpt>
      <trkpt lat="-23.407198" lon="-45.526650">
        <ele>735.791</ele>
        <time>2020-01-19T15:54:27Z</time>
      </trkpt>
      <trkpt lat="-23.407196" lon="-45.526596">
        <ele>735.565</ele>
        <time>2020-01-19T15:54:33Z</time>
      </trkpt>
      <trkpt lat="-23.407200" lon="-45.526545">
        <ele>735.341</ele>
        <time>2020-01-19T15:54:38Z</time>
      </trkpt>
      <trkpt lat="-23.407197" lon="-45.526486">
        <ele>736.335</ele>
        <time>2020-01-19T15:54:44Z</time>
      </trkpt>
      <trkpt lat="-23.407180" lon="-45.526437">
        <ele>736.738</ele>
        <time>2020-01-19T15:54:48Z</time>
      </trkpt>
      <trkpt lat="-23.407154" lon="-45.526389">
        <ele>737.118</ele>
        <time>2020-01-19T15:54:52Z</time>
      </trkpt>
      <trkpt lat="-23.407118" lon="-45.526358">
        <ele>738.097</ele>
        <time>2020-01-19T15:54:56Z</time>
      </trkpt>
      <trkpt lat="-23.407079" lon="-45.526331">
        <ele>738.723</ele>
        <time>2020-01-19T15:54:58Z</time>
      </trkpt>
      <trkpt lat="-23.407041" lon="-45.526304">
        <ele>739.825</ele>
        <time>2020-01-19T15:55:00Z</time>
      </trkpt>
      <trkpt lat="-23.407001" lon="-45.526280">
        <ele>740.908</ele>
        <time>2020-01-19T15:55:03Z</time>
      </trkpt>
      <trkpt lat="-23.406958" lon="-45.526254">
        <ele>742.173</ele>
        <time>2020-01-19T15:55:07Z</time>
      </trkpt>
      <trkpt lat="-23.406929" lon="-45.526214">
        <ele>742.864</ele>
        <time>2020-01-19T15:55:10Z</time>
      </trkpt>
      <trkpt lat="-23.406916" lon="-45.526167">
        <ele>743.246</ele>
        <time>2020-01-19T15:55:13Z</time>
      </trkpt>
      <trkpt lat="-23.406906" lon="-45.526114">
        <ele>744.690</ele>
        <time>2020-01-19T15:55:17Z</time>
      </trkpt>
      <trkpt lat="-23.406898" lon="-45.526065">
        <ele>746.516</ele>
        <time>2020-01-19T15:55:21Z</time>
      </trkpt>
      <trkpt lat="-23.406882" lon="-45.526015">
        <ele>747.170</ele>
        <time>2020-01-19T15:55:27Z</time>
      </trkpt>
      <trkpt lat="-23.406853" lon="-45.525960">
        <ele>746.683</ele>
        <time>2020-01-19T15:55:30Z</time>
      </trkpt>
      <trkpt lat="-23.406829" lon="-45.525918">
        <ele>746.363</ele>
        <time>2020-01-19T15:55:33Z</time>
      </trkpt>
      <trkpt lat="-23.406783" lon="-45.525890">
        <ele>747.849</ele>
        <time>2020-01-19T15:55:38Z</time>
      </trkpt>
      <trkpt lat="-23.406733" lon="-45.525911">
        <ele>749.602</ele>
        <time>2020-01-19T15:55:41Z</time>
      </trkpt>
      <trkpt lat="-23.406681" lon="-45.525933">
        <ele>750.022</ele>
        <time>2020-01-19T15:55:43Z</time>
      </trkpt>
      <trkpt lat="-23.406634" lon="-45.525952">
        <ele>750.908</ele>
        <time>2020-01-19T15:55:46Z</time>
      </trkpt>
      <trkpt lat="-23.406586" lon="-45.525972">
        <ele>751.228</ele>
        <time>2020-01-19T15:55:49Z</time>
      </trkpt>
      <trkpt lat="-23.406538" lon="-45.525980">
        <ele>753.199</ele>
        <time>2020-01-19T15:55:53Z</time>
      </trkpt>
      <trkpt lat="-23.406491" lon="-45.525987">
        <ele>753.141</ele>
        <time>2020-01-19T15:55:57Z</time>
      </trkpt>
      <trkpt lat="-23.406440" lon="-45.525986">
        <ele>752.225</ele>
        <time>2020-01-19T15:56:00Z</time>
      </trkpt>
      <trkpt lat="-23.406394" lon="-45.525983">
        <ele>750.061</ele>
        <time>2020-01-19T15:56:16Z</time>
      </trkpt>
      <trkpt lat="-23.406339" lon="-45.525996">
        <ele>749.695</ele>
        <time>2020-01-19T15:56:46Z</time>
      </trkpt>
      <trkpt lat="-23.406294" lon="-45.526009">
        <ele>749.388</ele>
        <time>2020-01-19T15:56:48Z</time>
      </trkpt>
      <trkpt lat="-23.406247" lon="-45.526020">
        <ele>748.478</ele>
        <time>2020-01-19T15:56:51Z</time>
      </trkpt>
      <trkpt lat="-23.406191" lon="-45.526024">
        <ele>747.955</ele>
        <time>2020-01-19T15:56:53Z</time>
      </trkpt>
      <trkpt lat="-23.406146" lon="-45.526045">
        <ele>747.107</ele>
        <time>2020-01-19T15:56:56Z</time>
      </trkpt>
      <trkpt lat="-23.406101" lon="-45.526069">
        <ele>745.917</ele>
        <time>2020-01-19T15:56:58Z</time>
      </trkpt>
      <trkpt lat="-23.406054" lon="-45.526093">
        <ele>745.208</ele>
        <time>2020-01-19T15:57:00Z</time>
      </trkpt>
      <trkpt lat="-23.405992" lon="-45.526117">
        <ele>745.349</ele>
        <time>2020-01-19T15:57:03Z</time>
      </trkpt>
      <trkpt lat="-23.405948" lon="-45.526146">
        <ele>745.610</ele>
        <time>2020-01-19T15:57:06Z</time>
      </trkpt>
      <trkpt lat="-23.405892" lon="-45.526166">
        <ele>745.642</ele>
        <time>2020-01-19T15:57:09Z</time>
      </trkpt>
      <trkpt lat="-23.405843" lon="-45.526169">
        <ele>745.916</ele>
        <time>2020-01-19T15:57:11Z</time>
      </trkpt>
      <trkpt lat="-23.405785" lon="-45.526149">
        <ele>746.562</ele>
        <time>2020-01-19T15:57:14Z</time>
      </trkpt>
      <trkpt lat="-23.405752" lon="-45.526115">
        <ele>747.146</ele>
        <time>2020-01-19T15:57:16Z</time>
      </trkpt>
      <trkpt lat="-23.405725" lon="-45.526072">
        <ele>747.479</ele>
        <time>2020-01-19T15:57:18Z</time>
      </trkpt>
      <trkpt lat="-23.405710" lon="-45.526016">
        <ele>747.489</ele>
        <time>2020-01-19T15:57:20Z</time>
      </trkpt>
      <trkpt lat="-23.405709" lon="-45.525961">
        <ele>747.582</ele>
        <time>2020-01-19T15:57:22Z</time>
      </trkpt>
      <trkpt lat="-23.405720" lon="-45.525913">
        <ele>747.543</ele>
        <time>2020-01-19T15:57:24Z</time>
      </trkpt>
      <trkpt lat="-23.405739" lon="-45.525867">
        <ele>746.217</ele>
        <time>2020-01-19T15:57:26Z</time>
      </trkpt>
      <trkpt lat="-23.405774" lon="-45.525809">
        <ele>745.008</ele>
        <time>2020-01-19T15:57:29Z</time>
      </trkpt>
      <trkpt lat="-23.405812" lon="-45.525767">
        <ele>744.672</ele>
        <time>2020-01-19T15:57:32Z</time>
      </trkpt>
      <trkpt lat="-23.405859" lon="-45.525729">
        <ele>746.063</ele>
        <time>2020-01-19T15:57:34Z</time>
      </trkpt>
      <trkpt lat="-23.405895" lon="-45.525667">
        <ele>747.165</ele>
        <time>2020-01-19T15:57:36Z</time>
      </trkpt>
      <trkpt lat="-23.405919" lon="-45.525584">
        <ele>747.829</ele>
        <time>2020-01-19T15:57:37Z</time>
      </trkpt>
      <trkpt lat="-23.405928" lon="-45.525532">
        <ele>748.295</ele>
        <time>2020-01-19T15:57:39Z</time>
      </trkpt>
      <trkpt lat="-23.405908" lon="-45.525398">
        <ele>748.619</ele>
        <time>2020-01-19T15:57:41Z</time>
      </trkpt>
      <trkpt lat="-23.405867" lon="-45.525351">
        <ele>748.332</ele>
        <time>2020-01-19T15:57:43Z</time>
      </trkpt>
      <trkpt lat="-23.405843" lon="-45.525269">
        <ele>748.142</ele>
        <time>2020-01-19T15:57:44Z</time>
      </trkpt>
      <trkpt lat="-23.405826" lon="-45.525211">
        <ele>748.563</ele>
        <time>2020-01-19T15:57:46Z</time>
      </trkpt>
      <trkpt lat="-23.405812" lon="-45.525143">
        <ele>748.944</ele>
        <time>2020-01-19T15:57:47Z</time>
      </trkpt>
      <trkpt lat="-23.405815" lon="-45.525082">
        <ele>748.318</ele>
        <time>2020-01-19T15:57:49Z</time>
      </trkpt>
      <trkpt lat="-23.405846" lon="-45.525020">
        <ele>747.708</ele>
        <time>2020-01-19T15:57:50Z</time>
      </trkpt>
      <trkpt lat="-23.405891" lon="-45.524926">
        <ele>745.550</ele>
        <time>2020-01-19T15:57:52Z</time>
      </trkpt>
      <trkpt lat="-23.405911" lon="-45.524880">
        <ele>744.371</ele>
        <time>2020-01-19T15:57:53Z</time>
      </trkpt>
      <trkpt lat="-23.405927" lon="-45.524831">
        <ele>742.783</ele>
        <time>2020-01-19T15:57:54Z</time>
      </trkpt>
      <trkpt lat="-23.405934" lon="-45.524775">
        <ele>741.667</ele>
        <time>2020-01-19T15:57:55Z</time>
      </trkpt>
      <trkpt lat="-23.405937" lon="-45.524719">
        <ele>740.823</ele>
        <time>2020-01-19T15:57:56Z</time>
      </trkpt>
      <trkpt lat="-23.405930" lon="-45.524658">
        <ele>740.397</ele>
        <time>2020-01-19T15:57:57Z</time>
      </trkpt>
      <trkpt lat="-23.405917" lon="-45.524594">
        <ele>740.070</ele>
        <time>2020-01-19T15:57:58Z</time>
      </trkpt>
      <trkpt lat="-23.405910" lon="-45.524530">
        <ele>739.380</ele>
        <time>2020-01-19T15:57:59Z</time>
      </trkpt>
      <trkpt lat="-23.405906" lon="-45.524461">
        <ele>739.571</ele>
        <time>2020-01-19T15:58:00Z</time>
      </trkpt>
      <trkpt lat="-23.405907" lon="-45.524395">
        <ele>739.641</ele>
        <time>2020-01-19T15:58:01Z</time>
      </trkpt>
      <trkpt lat="-23.405920" lon="-45.524333">
        <ele>739.715</ele>
        <time>2020-01-19T15:58:02Z</time>
      </trkpt>
      <trkpt lat="-23.405942" lon="-45.524282">
        <ele>740.008</ele>
        <time>2020-01-19T15:58:03Z</time>
      </trkpt>
      <trkpt lat="-23.405979" lon="-45.524240">
        <ele>739.661</ele>
        <time>2020-01-19T15:58:04Z</time>
      </trkpt>
      <trkpt lat="-23.406031" lon="-45.524202">
        <ele>739.312</ele>
        <time>2020-01-19T15:58:05Z</time>
      </trkpt>
      <trkpt lat="-23.406098" lon="-45.524171">
        <ele>737.864</ele>
        <time>2020-01-19T15:58:06Z</time>
      </trkpt>
      <trkpt lat="-23.406163" lon="-45.524163">
        <ele>736.758</ele>
        <time>2020-01-19T15:58:07Z</time>
      </trkpt>
      <trkpt lat="-23.406226" lon="-45.524173">
        <ele>736.384</ele>
        <time>2020-01-19T15:58:08Z</time>
      </trkpt>
      <trkpt lat="-23.406284" lon="-45.524196">
        <ele>736.118</ele>
        <time>2020-01-19T15:58:09Z</time>
      </trkpt>
      <trkpt lat="-23.406341" lon="-45.524223">
        <ele>735.521</ele>
        <time>2020-01-19T15:58:10Z</time>
      </trkpt>
      <trkpt lat="-23.406397" lon="-45.524250">
        <ele>735.051</ele>
        <time>2020-01-19T15:58:11Z</time>
      </trkpt>
      <trkpt lat="-23.406454" lon="-45.524272">
        <ele>734.799</ele>
        <time>2020-01-19T15:58:12Z</time>
      </trkpt>
      <trkpt lat="-23.406513" lon="-45.524278">
        <ele>734.407</ele>
        <time>2020-01-19T15:58:13Z</time>
      </trkpt>
      <trkpt lat="-23.406570" lon="-45.524277">
        <ele>733.827</ele>
        <time>2020-01-19T15:58:14Z</time>
      </trkpt>
      <trkpt lat="-23.406625" lon="-45.524277">
        <ele>733.708</ele>
        <time>2020-01-19T15:58:15Z</time>
      </trkpt>
      <trkpt lat="-23.406677" lon="-45.524279">
        <ele>733.393</ele>
        <time>2020-01-19T15:58:16Z</time>
      </trkpt>
      <trkpt lat="-23.406734" lon="-45.524275">
        <ele>732.694</ele>
        <time>2020-01-19T15:58:17Z</time>
      </trkpt>
      <trkpt lat="-23.406791" lon="-45.524262">
        <ele>732.086</ele>
        <time>2020-01-19T15:58:18Z</time>
      </trkpt>
      <trkpt lat="-23.406849" lon="-45.524234">
        <ele>731.510</ele>
        <time>2020-01-19T15:58:19Z</time>
      </trkpt>
      <trkpt lat="-23.406901" lon="-45.524185">
        <ele>731.076</ele>
        <time>2020-01-19T15:58:20Z</time>
      </trkpt>
      <trkpt lat="-23.406942" lon="-45.524125">
        <ele>730.450</ele>
        <time>2020-01-19T15:58:21Z</time>
      </trkpt>
      <trkpt lat="-23.406970" lon="-45.524059">
        <ele>729.973</ele>
        <time>2020-01-19T15:58:22Z</time>
      </trkpt>
      <trkpt lat="-23.406980" lon="-45.523989">
        <ele>729.393</ele>
        <time>2020-01-19T15:58:23Z</time>
      </trkpt>
      <trkpt lat="-23.406977" lon="-45.523919">
        <ele>728.916</ele>
        <time>2020-01-19T15:58:24Z</time>
      </trkpt>
      <trkpt lat="-23.406955" lon="-45.523850">
        <ele>728.876</ele>
        <time>2020-01-19T15:58:25Z</time>
      </trkpt>
      <trkpt lat="-23.406924" lon="-45.523794">
        <ele>727.613</ele>
        <time>2020-01-19T15:58:26Z</time>
      </trkpt>
      <trkpt lat="-23.406896" lon="-45.523746">
        <ele>726.608</ele>
        <time>2020-01-19T15:58:27Z</time>
      </trkpt>
      <trkpt lat="-23.406868" lon="-45.523697">
        <ele>725.765</ele>
        <time>2020-01-19T15:58:28Z</time>
      </trkpt>
      <trkpt lat="-23.406851" lon="-45.523642">
        <ele>724.856</ele>
        <time>2020-01-19T15:58:29Z</time>
      </trkpt>
      <trkpt lat="-23.406845" lon="-45.523577">
        <ele>724.378</ele>
        <time>2020-01-19T15:58:30Z</time>
      </trkpt>
      <trkpt lat="-23.406861" lon="-45.523512">
        <ele>723.792</ele>
        <time>2020-01-19T15:58:31Z</time>
      </trkpt>
      <trkpt lat="-23.406891" lon="-45.523453">
        <ele>723.348</ele>
        <time>2020-01-19T15:58:32Z</time>
      </trkpt>
      <trkpt lat="-23.406926" lon="-45.523402">
        <ele>723.482</ele>
        <time>2020-01-19T15:58:33Z</time>
      </trkpt>
      <trkpt lat="-23.406960" lon="-45.523348">
        <ele>722.845</ele>
        <time>2020-01-19T15:58:34Z</time>
      </trkpt>
      <trkpt lat="-23.406992" lon="-45.523289">
        <ele>722.175</ele>
        <time>2020-01-19T15:58:35Z</time>
      </trkpt>
      <trkpt lat="-23.407021" lon="-45.523224">
        <ele>721.595</ele>
        <time>2020-01-19T15:58:36Z</time>
      </trkpt>
      <trkpt lat="-23.407042" lon="-45.523153">
        <ele>720.749</ele>
        <time>2020-01-19T15:58:37Z</time>
      </trkpt>
      <trkpt lat="-23.407059" lon="-45.523078">
        <ele>720.023</ele>
        <time>2020-01-19T15:58:38Z</time>
      </trkpt>
      <trkpt lat="-23.407071" lon="-45.523001">
        <ele>719.708</ele>
        <time>2020-01-19T15:58:39Z</time>
      </trkpt>
      <trkpt lat="-23.407085" lon="-45.522920">
        <ele>719.683</ele>
        <time>2020-01-19T15:58:40Z</time>
      </trkpt>
      <trkpt lat="-23.407096" lon="-45.522836">
        <ele>719.644</ele>
        <time>2020-01-19T15:58:41Z</time>
      </trkpt>
      <trkpt lat="-23.407103" lon="-45.522750">
        <ele>719.426</ele>
        <time>2020-01-19T15:58:42Z</time>
      </trkpt>
      <trkpt lat="-23.407113" lon="-45.522667">
        <ele>719.380</ele>
        <time>2020-01-19T15:58:43Z</time>
      </trkpt>
      <trkpt lat="-23.407122" lon="-45.522586">
        <ele>719.266</ele>
        <time>2020-01-19T15:58:44Z</time>
      </trkpt>
      <trkpt lat="-23.407128" lon="-45.522509">
        <ele>719.050</ele>
        <time>2020-01-19T15:58:45Z</time>
      </trkpt>
      <trkpt lat="-23.407137" lon="-45.522434">
        <ele>718.633</ele>
        <time>2020-01-19T15:58:46Z</time>
      </trkpt>
      <trkpt lat="-23.407151" lon="-45.522365">
        <ele>718.173</ele>
        <time>2020-01-19T15:58:47Z</time>
      </trkpt>
      <trkpt lat="-23.407168" lon="-45.522302">
        <ele>721.934</ele>
        <time>2020-01-19T15:58:48Z</time>
      </trkpt>
      <trkpt lat="-23.407198" lon="-45.522248">
        <ele>721.655</ele>
        <time>2020-01-19T15:58:49Z</time>
      </trkpt>
      <trkpt lat="-23.407231" lon="-45.522196">
        <ele>720.310</ele>
        <time>2020-01-19T15:58:50Z</time>
      </trkpt>
      <trkpt lat="-23.407269" lon="-45.522146">
        <ele>718.408</ele>
        <time>2020-01-19T15:58:51Z</time>
      </trkpt>
      <trkpt lat="-23.407309" lon="-45.522102">
        <ele>717.187</ele>
        <time>2020-01-19T15:58:52Z</time>
      </trkpt>
      <trkpt lat="-23.407365" lon="-45.522063">
        <ele>715.798</ele>
        <time>2020-01-19T15:58:53Z</time>
      </trkpt>
      <trkpt lat="-23.407422" lon="-45.522028">
        <ele>714.660</ele>
        <time>2020-01-19T15:58:54Z</time>
      </trkpt>
      <trkpt lat="-23.407471" lon="-45.522001">
        <ele>714.584</ele>
        <time>2020-01-19T15:58:55Z</time>
      </trkpt>
      <trkpt lat="-23.407518" lon="-45.521976">
        <ele>714.030</ele>
        <time>2020-01-19T15:58:56Z</time>
      </trkpt>
      <trkpt lat="-23.407558" lon="-45.521948">
        <ele>713.794</ele>
        <time>2020-01-19T15:58:57Z</time>
      </trkpt>
      <trkpt lat="-23.407597" lon="-45.521895">
        <ele>712.487</ele>
        <time>2020-01-19T15:58:59Z</time>
      </trkpt>
      <trkpt lat="-23.407614" lon="-45.521846">
        <ele>711.467</ele>
        <time>2020-01-19T15:59:00Z</time>
      </trkpt>
      <trkpt lat="-23.407627" lon="-45.521787">
        <ele>711.035</ele>
        <time>2020-01-19T15:59:01Z</time>
      </trkpt>
      <trkpt lat="-23.407633" lon="-45.521721">
        <ele>711.186</ele>
        <time>2020-01-19T15:59:02Z</time>
      </trkpt>
      <trkpt lat="-23.407638" lon="-45.521654">
        <ele>711.814</ele>
        <time>2020-01-19T15:59:03Z</time>
      </trkpt>
      <trkpt lat="-23.407631" lon="-45.521594">
        <ele>711.708</ele>
        <time>2020-01-19T15:59:04Z</time>
      </trkpt>
      <trkpt lat="-23.407620" lon="-45.521536">
        <ele>711.737</ele>
        <time>2020-01-19T15:59:05Z</time>
      </trkpt>
      <trkpt lat="-23.407599" lon="-45.521484">
        <ele>711.248</ele>
        <time>2020-01-19T15:59:06Z</time>
      </trkpt>
      <trkpt lat="-23.407563" lon="-45.521441">
        <ele>710.840</ele>
        <time>2020-01-19T15:59:08Z</time>
      </trkpt>
      <trkpt lat="-23.407471" lon="-45.521402">
        <ele>710.334</ele>
        <time>2020-01-19T15:59:10Z</time>
      </trkpt>
      <trkpt lat="-23.407426" lon="-45.521398">
        <ele>709.440</ele>
        <time>2020-01-19T15:59:13Z</time>
      </trkpt>
      <trkpt lat="-23.407375" lon="-45.521386">
        <ele>709.294</ele>
        <time>2020-01-19T15:59:16Z</time>
      </trkpt>
      <trkpt lat="-23.407322" lon="-45.521393">
        <ele>709.627</ele>
        <time>2020-01-19T15:59:19Z</time>
      </trkpt>
      <trkpt lat="-23.407267" lon="-45.521394">
        <ele>708.987</ele>
        <time>2020-01-19T15:59:21Z</time>
      </trkpt>
      <trkpt lat="-23.407211" lon="-45.521397">
        <ele>708.578</ele>
        <time>2020-01-19T15:59:24Z</time>
      </trkpt>
      <trkpt lat="-23.407150" lon="-45.521395">
        <ele>707.433</ele>
        <time>2020-01-19T15:59:27Z</time>
      </trkpt>
      <trkpt lat="-23.407098" lon="-45.521392">
        <ele>706.326</ele>
        <time>2020-01-19T15:59:30Z</time>
      </trkpt>
      <trkpt lat="-23.407050" lon="-45.521389">
        <ele>705.308</ele>
        <time>2020-01-19T15:59:32Z</time>
      </trkpt>
      <trkpt lat="-23.407003" lon="-45.521390">
        <ele>703.231</ele>
        <time>2020-01-19T15:59:36Z</time>
      </trkpt>
      <trkpt lat="-23.406953" lon="-45.521388">
        <ele>702.182</ele>
        <time>2020-01-19T15:59:40Z</time>
      </trkpt>
      <trkpt lat="-23.406900" lon="-45.521393">
        <ele>701.624</ele>
        <time>2020-01-19T15:59:43Z</time>
      </trkpt>
      <trkpt lat="-23.406844" lon="-45.521409">
        <ele>701.538</ele>
        <time>2020-01-19T15:59:46Z</time>
      </trkpt>
      <trkpt lat="-23.406791" lon="-45.521424">
        <ele>701.964</ele>
        <time>2020-01-19T15:59:48Z</time>
      </trkpt>
      <trkpt lat="-23.406745" lon="-45.521428">
        <ele>702.528</ele>
        <time>2020-01-19T15:59:50Z</time>
      </trkpt>
      <trkpt lat="-23.406697" lon="-45.521435">
        <ele>702.981</ele>
        <time>2020-01-19T15:59:53Z</time>
      </trkpt>
      <trkpt lat="-23.406639" lon="-45.521432">
        <ele>702.581</ele>
        <time>2020-01-19T15:59:56Z</time>
      </trkpt>
      <trkpt lat="-23.406582" lon="-45.521434">
        <ele>702.252</ele>
        <time>2020-01-19T15:59:59Z</time>
      </trkpt>
      <trkpt lat="-23.406523" lon="-45.521439">
        <ele>701.453</ele>
        <time>2020-01-19T16:00:04Z</time>
      </trkpt>
      <trkpt lat="-23.406477" lon="-45.521450">
        <ele>701.308</ele>
        <time>2020-01-19T16:00:06Z</time>
      </trkpt>
      <trkpt lat="-23.406430" lon="-45.521466">
        <ele>701.208</ele>
        <time>2020-01-19T16:00:07Z</time>
      </trkpt>
      <trkpt lat="-23.406370" lon="-45.521486">
        <ele>701.699</ele>
        <time>2020-01-19T16:00:09Z</time>
      </trkpt>
      <trkpt lat="-23.406308" lon="-45.521493">
        <ele>702.370</ele>
        <time>2020-01-19T16:00:11Z</time>
      </trkpt>
      <trkpt lat="-23.406242" lon="-45.521493">
        <ele>702.822</ele>
        <time>2020-01-19T16:00:12Z</time>
      </trkpt>
      <trkpt lat="-23.406196" lon="-45.521490">
        <ele>703.236</ele>
        <time>2020-01-19T16:00:13Z</time>
      </trkpt>
      <trkpt lat="-23.406143" lon="-45.521486">
        <ele>703.562</ele>
        <time>2020-01-19T16:00:15Z</time>
      </trkpt>
      <trkpt lat="-23.406057" lon="-45.521490">
        <ele>704.716</ele>
        <time>2020-01-19T16:00:18Z</time>
      </trkpt>
      <trkpt lat="-23.406057" lon="-45.521490">
        <ele>704.739</ele>
        <time>2020-01-19T16:00:18Z</time>
      </trkpt>
      <trkpt lat="-23.406057" lon="-45.521490">
        <ele>704.719</ele>
        <time>2020-01-19T16:00:18Z</time>
      </trkpt>
      <trkpt lat="-23.406012" lon="-45.521493">
        <ele>704.647</ele>
        <time>2020-01-19T16:00:19Z</time>
      </trkpt>
      <trkpt lat="-23.405954" lon="-45.521505">
        <ele>703.329</ele>
        <time>2020-01-19T16:00:21Z</time>
      </trkpt>
      <trkpt lat="-23.405909" lon="-45.521528">
        <ele>702.921</ele>
        <time>2020-01-19T16:00:23Z</time>
      </trkpt>
      <trkpt lat="-23.405874" lon="-45.521561">
        <ele>703.108</ele>
        <time>2020-01-19T16:00:25Z</time>
      </trkpt>
      <trkpt lat="-23.405836" lon="-45.521598">
        <ele>703.638</ele>
        <time>2020-01-19T16:00:26Z</time>
      </trkpt>
      <trkpt lat="-23.405795" lon="-45.521625">
        <ele>704.669</ele>
        <time>2020-01-19T16:00:28Z</time>
      </trkpt>
      <trkpt lat="-23.405749" lon="-45.521648">
        <ele>705.741</ele>
        <time>2020-01-19T16:00:29Z</time>
      </trkpt>
      <trkpt lat="-23.405700" lon="-45.521669">
        <ele>706.685</ele>
        <time>2020-01-19T16:00:31Z</time>
      </trkpt>
      <trkpt lat="-23.405649" lon="-45.521686">
        <ele>707.481</ele>
        <time>2020-01-19T16:00:32Z</time>
      </trkpt>
      <trkpt lat="-23.405594" lon="-45.521704">
        <ele>708.725</ele>
        <time>2020-01-19T16:00:34Z</time>
      </trkpt>
      <trkpt lat="-23.405535" lon="-45.521718">
        <ele>709.788</ele>
        <time>2020-01-19T16:00:35Z</time>
      </trkpt>
      <trkpt lat="-23.405482" lon="-45.521723">
        <ele>708.548</ele>
        <time>2020-01-19T16:00:37Z</time>
      </trkpt>
      <trkpt lat="-23.405426" lon="-45.521712">
        <ele>707.312</ele>
        <time>2020-01-19T16:00:39Z</time>
      </trkpt>
      <trkpt lat="-23.405337" lon="-45.521687">
        <ele>706.732</ele>
        <time>2020-01-19T16:00:41Z</time>
      </trkpt>
      <trkpt lat="-23.405275" lon="-45.521674">
        <ele>706.505</ele>
        <time>2020-01-19T16:00:42Z</time>
      </trkpt>
      <trkpt lat="-23.405226" lon="-45.521668">
        <ele>706.408</ele>
        <time>2020-01-19T16:00:44Z</time>
      </trkpt>
      <trkpt lat="-23.405178" lon="-45.521669">
        <ele>706.745</ele>
        <time>2020-01-19T16:00:45Z</time>
      </trkpt>
      <trkpt lat="-23.405128" lon="-45.521668">
        <ele>706.996</ele>
        <time>2020-01-19T16:00:47Z</time>
      </trkpt>
      <trkpt lat="-23.405076" lon="-45.521665">
        <ele>706.758</ele>
        <time>2020-01-19T16:00:48Z</time>
      </trkpt>
      <trkpt lat="-23.405024" lon="-45.521664">
        <ele>706.222</ele>
        <time>2020-01-19T16:00:50Z</time>
      </trkpt>
      <trkpt lat="-23.404973" lon="-45.521665">
        <ele>705.718</ele>
        <time>2020-01-19T16:00:52Z</time>
      </trkpt>
      <trkpt lat="-23.404918" lon="-45.521661">
        <ele>705.672</ele>
        <time>2020-01-19T16:00:53Z</time>
      </trkpt>
      <trkpt lat="-23.404853" lon="-45.521654">
        <ele>705.745</ele>
        <time>2020-01-19T16:00:55Z</time>
      </trkpt>
      <trkpt lat="-23.404803" lon="-45.521646">
        <ele>705.885</ele>
        <time>2020-01-19T16:00:57Z</time>
      </trkpt>
      <trkpt lat="-23.404738" lon="-45.521633">
        <ele>705.439</ele>
        <time>2020-01-19T16:00:58Z</time>
      </trkpt>
      <trkpt lat="-23.404692" lon="-45.521627">
        <ele>705.001</ele>
        <time>2020-01-19T16:01:00Z</time>
      </trkpt>
      <trkpt lat="-23.404617" lon="-45.521616">
        <ele>709.021</ele>
        <time>2020-01-19T16:01:02Z</time>
      </trkpt>
      <trkpt lat="-23.404561" lon="-45.521601">
        <ele>708.808</ele>
        <time>2020-01-19T16:01:04Z</time>
      </trkpt>
      <trkpt lat="-23.404476" lon="-45.521579">
        <ele>707.967</ele>
        <time>2020-01-19T16:01:05Z</time>
      </trkpt>
      <trkpt lat="-23.404425" lon="-45.521566">
        <ele>706.718</ele>
        <time>2020-01-19T16:01:07Z</time>
      </trkpt>
      <trkpt lat="-23.404372" lon="-45.521553">
        <ele>705.870</ele>
        <time>2020-01-19T16:01:09Z</time>
      </trkpt>
      <trkpt lat="-23.404309" lon="-45.521537">
        <ele>705.194</ele>
        <time>2020-01-19T16:01:11Z</time>
      </trkpt>
      <trkpt lat="-23.404261" lon="-45.521517">
        <ele>705.060</ele>
        <time>2020-01-19T16:01:13Z</time>
      </trkpt>
      <trkpt lat="-23.404210" lon="-45.521493">
        <ele>705.064</ele>
        <time>2020-01-19T16:01:15Z</time>
      </trkpt>
      <trkpt lat="-23.404164" lon="-45.521465">
        <ele>705.447</ele>
        <time>2020-01-19T16:01:16Z</time>
      </trkpt>
      <trkpt lat="-23.404121" lon="-45.521429">
        <ele>705.977</ele>
        <time>2020-01-19T16:01:18Z</time>
      </trkpt>
      <trkpt lat="-23.404081" lon="-45.521392">
        <ele>706.138</ele>
        <time>2020-01-19T16:01:19Z</time>
      </trkpt>
      <trkpt lat="-23.404031" lon="-45.521353">
        <ele>706.070</ele>
        <time>2020-01-19T16:01:21Z</time>
      </trkpt>
      <trkpt lat="-23.403990" lon="-45.521316">
        <ele>705.817</ele>
        <time>2020-01-19T16:01:23Z</time>
      </trkpt>
      <trkpt lat="-23.403958" lon="-45.521278">
        <ele>705.308</ele>
        <time>2020-01-19T16:01:24Z</time>
      </trkpt>
      <trkpt lat="-23.403927" lon="-45.521222">
        <ele>705.017</ele>
        <time>2020-01-19T16:01:26Z</time>
      </trkpt>
      <trkpt lat="-23.403910" lon="-45.521159">
        <ele>705.688</ele>
        <time>2020-01-19T16:01:28Z</time>
      </trkpt>
      <trkpt lat="-23.403897" lon="-45.521097">
        <ele>705.980</ele>
        <time>2020-01-19T16:01:30Z</time>
      </trkpt>
      <trkpt lat="-23.403896" lon="-45.521038">
        <ele>706.334</ele>
        <time>2020-01-19T16:01:32Z</time>
      </trkpt>
      <trkpt lat="-23.403907" lon="-45.520963">
        <ele>705.850</ele>
        <time>2020-01-19T16:01:35Z</time>
      </trkpt>
      <trkpt lat="-23.403922" lon="-45.520909">
        <ele>704.134</ele>
        <time>2020-01-19T16:01:37Z</time>
      </trkpt>
      <trkpt lat="-23.403943" lon="-45.520849">
        <ele>703.367</ele>
        <time>2020-01-19T16:01:40Z</time>
      </trkpt>
      <trkpt lat="-23.403974" lon="-45.520802">
        <ele>703.367</ele>
        <time>2020-01-19T16:01:42Z</time>
      </trkpt>
      <trkpt lat="-23.404000" lon="-45.520760">
        <ele>703.939</ele>
        <time>2020-01-19T16:01:44Z</time>
      </trkpt>
      <trkpt lat="-23.404035" lon="-45.520714">
        <ele>704.001</ele>
        <time>2020-01-19T16:01:45Z</time>
      </trkpt>
      <trkpt lat="-23.404069" lon="-45.520666">
        <ele>703.921</ele>
        <time>2020-01-19T16:01:48Z</time>
      </trkpt>
      <trkpt lat="-23.404113" lon="-45.520615">
        <ele>703.608</ele>
        <time>2020-01-19T16:01:50Z</time>
      </trkpt>
      <trkpt lat="-23.404166" lon="-45.520554">
        <ele>703.357</ele>
        <time>2020-01-19T16:01:51Z</time>
      </trkpt>
      <trkpt lat="-23.404220" lon="-45.520499">
        <ele>703.038</ele>
        <time>2020-01-19T16:01:54Z</time>
      </trkpt>
      <trkpt lat="-23.404276" lon="-45.520444">
        <ele>702.390</ele>
        <time>2020-01-19T16:01:56Z</time>
      </trkpt>
      <trkpt lat="-23.404314" lon="-45.520399">
        <ele>701.844</ele>
        <time>2020-01-19T16:01:57Z</time>
      </trkpt>
      <trkpt lat="-23.404355" lon="-45.520348">
        <ele>701.710</ele>
        <time>2020-01-19T16:01:59Z</time>
      </trkpt>
      <trkpt lat="-23.404406" lon="-45.520283">
        <ele>703.114</ele>
        <time>2020-01-19T16:02:01Z</time>
      </trkpt>
      <trkpt lat="-23.404443" lon="-45.520228">
        <ele>703.187</ele>
        <time>2020-01-19T16:02:03Z</time>
      </trkpt>
      <trkpt lat="-23.404514" lon="-45.520156">
        <ele>703.117</ele>
        <time>2020-01-19T16:02:05Z</time>
      </trkpt>
      <trkpt lat="-23.404553" lon="-45.520110">
        <ele>703.044</ele>
        <time>2020-01-19T16:02:07Z</time>
      </trkpt>
      <trkpt lat="-23.404589" lon="-45.520065">
        <ele>703.205</ele>
        <time>2020-01-19T16:02:09Z</time>
      </trkpt>
      <trkpt lat="-23.404640" lon="-45.520011">
        <ele>702.915</ele>
        <time>2020-01-19T16:02:11Z</time>
      </trkpt>
      <trkpt lat="-23.404685" lon="-45.519995">
        <ele>701.808</ele>
        <time>2020-01-19T16:02:13Z</time>
      </trkpt>
      <trkpt lat="-23.404741" lon="-45.519978">
        <ele>700.868</ele>
        <time>2020-01-19T16:02:15Z</time>
      </trkpt>
      <trkpt lat="-23.404810" lon="-45.519962">
        <ele>700.349</ele>
        <time>2020-01-19T16:02:18Z</time>
      </trkpt>
      <trkpt lat="-23.404853" lon="-45.519933">
        <ele>699.561</ele>
        <time>2020-01-19T16:02:20Z</time>
      </trkpt>
      <trkpt lat="-23.404880" lon="-45.519884">
        <ele>699.315</ele>
        <time>2020-01-19T16:02:22Z</time>
      </trkpt>
      <trkpt lat="-23.404891" lon="-45.519832">
        <ele>699.691</ele>
        <time>2020-01-19T16:02:24Z</time>
      </trkpt>
      <trkpt lat="-23.404889" lon="-45.519767">
        <ele>699.995</ele>
        <time>2020-01-19T16:02:26Z</time>
      </trkpt>
      <trkpt lat="-23.404858" lon="-45.519709">
        <ele>701.058</ele>
        <time>2020-01-19T16:02:28Z</time>
      </trkpt>
      <trkpt lat="-23.404809" lon="-45.519657">
        <ele>702.348</ele>
        <time>2020-01-19T16:02:29Z</time>
      </trkpt>
      <trkpt lat="-23.404761" lon="-45.519610">
        <ele>703.075</ele>
        <time>2020-01-19T16:02:31Z</time>
      </trkpt>
      <trkpt lat="-23.404721" lon="-45.519573">
        <ele>703.128</ele>
        <time>2020-01-19T16:02:32Z</time>
      </trkpt>
      <trkpt lat="-23.404685" lon="-45.519536">
        <ele>703.020</ele>
        <time>2020-01-19T16:02:33Z</time>
      </trkpt>
      <trkpt lat="-23.404647" lon="-45.519486">
        <ele>703.208</ele>
        <time>2020-01-19T16:02:35Z</time>
      </trkpt>
      <trkpt lat="-23.404621" lon="-45.519401">
        <ele>703.291</ele>
        <time>2020-01-19T16:02:36Z</time>
      </trkpt>
      <trkpt lat="-23.404634" lon="-45.519323">
        <ele>703.082</ele>
        <time>2020-01-19T16:02:38Z</time>
      </trkpt>
      <trkpt lat="-23.404646" lon="-45.519269">
        <ele>702.784</ele>
        <time>2020-01-19T16:02:39Z</time>
      </trkpt>
      <trkpt lat="-23.404658" lon="-45.519220">
        <ele>702.598</ele>
        <time>2020-01-19T16:02:40Z</time>
      </trkpt>
      <trkpt lat="-23.404659" lon="-45.519163">
        <ele>702.924</ele>
        <time>2020-01-19T16:02:42Z</time>
      </trkpt>
      <trkpt lat="-23.404689" lon="-45.519117">
        <ele>702.688</ele>
        <time>2020-01-19T16:02:43Z</time>
      </trkpt>
      <trkpt lat="-23.404729" lon="-45.519066">
        <ele>702.921</ele>
        <time>2020-01-19T16:02:44Z</time>
      </trkpt>
      <trkpt lat="-23.404755" lon="-45.519015">
        <ele>702.841</ele>
        <time>2020-01-19T16:02:45Z</time>
      </trkpt>
      <trkpt lat="-23.404800" lon="-45.518947">
        <ele>702.767</ele>
        <time>2020-01-19T16:02:48Z</time>
      </trkpt>
      <trkpt lat="-23.404840" lon="-45.518898">
        <ele>702.681</ele>
        <time>2020-01-19T16:02:49Z</time>
      </trkpt>
      <trkpt lat="-23.404886" lon="-45.518865">
        <ele>706.619</ele>
        <time>2020-01-19T16:02:51Z</time>
      </trkpt>
      <trkpt lat="-23.404928" lon="-45.518837">
        <ele>710.608</ele>
        <time>2020-01-19T16:02:52Z</time>
      </trkpt>
      <trkpt lat="-23.404975" lon="-45.518807">
        <ele>711.490</ele>
        <time>2020-01-19T16:02:54Z</time>
      </trkpt>
      <trkpt lat="-23.405013" lon="-45.518771">
        <ele>709.691</ele>
        <time>2020-01-19T16:02:57Z</time>
      </trkpt>
      <trkpt lat="-23.405053" lon="-45.518745">
        <ele>707.923</ele>
        <time>2020-01-19T16:02:59Z</time>
      </trkpt>
      <trkpt lat="-23.405092" lon="-45.518717">
        <ele>706.667</ele>
        <time>2020-01-19T16:03:00Z</time>
      </trkpt>
      <trkpt lat="-23.405140" lon="-45.518680">
        <ele>704.893</ele>
        <time>2020-01-19T16:03:02Z</time>
      </trkpt>
      <trkpt lat="-23.405186" lon="-45.518644">
        <ele>703.557</ele>
        <time>2020-01-19T16:03:04Z</time>
      </trkpt>
      <trkpt lat="-23.405236" lon="-45.518601">
        <ele>701.720</ele>
        <time>2020-01-19T16:03:05Z</time>
      </trkpt>
      <trkpt lat="-23.405278" lon="-45.518557">
        <ele>701.610</ele>
        <time>2020-01-19T16:03:08Z</time>
      </trkpt>
      <trkpt lat="-23.405313" lon="-45.518523">
        <ele>702.028</ele>
        <time>2020-01-19T16:03:10Z</time>
      </trkpt>
      <trkpt lat="-23.405354" lon="-45.518486">
        <ele>702.089</ele>
        <time>2020-01-19T16:03:12Z</time>
      </trkpt>
      <trkpt lat="-23.405393" lon="-45.518447">
        <ele>702.117</ele>
        <time>2020-01-19T16:03:15Z</time>
      </trkpt>
      <trkpt lat="-23.405441" lon="-45.518407">
        <ele>701.508</ele>
        <time>2020-01-19T16:03:17Z</time>
      </trkpt>
      <trkpt lat="-23.405493" lon="-45.518368">
        <ele>700.926</ele>
        <time>2020-01-19T16:03:20Z</time>
      </trkpt>
      <trkpt lat="-23.405532" lon="-45.518336">
        <ele>700.717</ele>
        <time>2020-01-19T16:03:22Z</time>
      </trkpt>
      <trkpt lat="-23.405574" lon="-45.518296">
        <ele>700.459</ele>
        <time>2020-01-19T16:03:24Z</time>
      </trkpt>
      <trkpt lat="-23.405620" lon="-45.518257">
        <ele>700.453</ele>
        <time>2020-01-19T16:03:27Z</time>
      </trkpt>
      <trkpt lat="-23.405654" lon="-45.518222">
        <ele>701.399</ele>
        <time>2020-01-19T16:03:29Z</time>
      </trkpt>
      <trkpt lat="-23.405684" lon="-45.518185">
        <ele>702.223</ele>
        <time>2020-01-19T16:03:31Z</time>
      </trkpt>
      <trkpt lat="-23.405724" lon="-45.518148">
        <ele>702.616</ele>
        <time>2020-01-19T16:03:33Z</time>
      </trkpt>
      <trkpt lat="-23.405772" lon="-45.518111">
        <ele>702.746</ele>
        <time>2020-01-19T16:03:36Z</time>
      </trkpt>
      <trkpt lat="-23.405816" lon="-45.518084">
        <ele>703.595</ele>
        <time>2020-01-19T16:03:38Z</time>
      </trkpt>
      <trkpt lat="-23.405867" lon="-45.518063">
        <ele>703.949</ele>
        <time>2020-01-19T16:03:40Z</time>
      </trkpt>
      <trkpt lat="-23.405915" lon="-45.518058">
        <ele>704.323</ele>
        <time>2020-01-19T16:03:42Z</time>
      </trkpt>
      <trkpt lat="-23.405960" lon="-45.518059">
        <ele>704.308</ele>
        <time>2020-01-19T16:03:43Z</time>
      </trkpt>
      <trkpt lat="-23.406024" lon="-45.518085">
        <ele>703.553</ele>
        <time>2020-01-19T16:03:45Z</time>
      </trkpt>
      <trkpt lat="-23.406075" lon="-45.518117">
        <ele>702.834</ele>
        <time>2020-01-19T16:03:47Z</time>
      </trkpt>
      <trkpt lat="-23.406129" lon="-45.518133">
        <ele>702.446</ele>
        <time>2020-01-19T16:03:49Z</time>
      </trkpt>
      <trkpt lat="-23.406189" lon="-45.518116">
        <ele>702.220</ele>
        <time>2020-01-19T16:03:50Z</time>
      </trkpt>
      <trkpt lat="-23.406221" lon="-45.518056">
        <ele>702.266</ele>
        <time>2020-01-19T16:03:52Z</time>
      </trkpt>
      <trkpt lat="-23.406241" lon="-45.517970">
        <ele>701.890</ele>
        <time>2020-01-19T16:03:54Z</time>
      </trkpt>
      <trkpt lat="-23.406248" lon="-45.517889">
        <ele>702.523</ele>
        <time>2020-01-19T16:03:55Z</time>
      </trkpt>
      <trkpt lat="-23.406249" lon="-45.517813">
        <ele>702.513</ele>
        <time>2020-01-19T16:03:57Z</time>
      </trkpt>
      <trkpt lat="-23.406243" lon="-45.517747">
        <ele>702.155</ele>
        <time>2020-01-19T16:03:58Z</time>
      </trkpt>
      <trkpt lat="-23.406251" lon="-45.517686">
        <ele>702.207</ele>
        <time>2020-01-19T16:04:00Z</time>
      </trkpt>
      <trkpt lat="-23.406269" lon="-45.517632">
        <ele>702.217</ele>
        <time>2020-01-19T16:04:02Z</time>
      </trkpt>
      <trkpt lat="-23.406300" lon="-45.517570">
        <ele>702.408</ele>
        <time>2020-01-19T16:04:03Z</time>
      </trkpt>
      <trkpt lat="-23.406339" lon="-45.517523">
        <ele>702.339</ele>
        <time>2020-01-19T16:04:05Z</time>
      </trkpt>
      <trkpt lat="-23.406462" lon="-45.517467">
        <ele>701.850</ele>
        <time>2020-01-19T16:04:07Z</time>
      </trkpt>
      <trkpt lat="-23.406516" lon="-45.517443">
        <ele>701.242</ele>
        <time>2020-01-19T16:04:08Z</time>
      </trkpt>
      <trkpt lat="-23.406574" lon="-45.517420">
        <ele>700.956</ele>
        <time>2020-01-19T16:04:09Z</time>
      </trkpt>
      <trkpt lat="-23.406633" lon="-45.517397">
        <ele>700.882</ele>
        <time>2020-01-19T16:04:10Z</time>
      </trkpt>
      <trkpt lat="-23.406688" lon="-45.517368">
        <ele>700.996</ele>
        <time>2020-01-19T16:04:11Z</time>
      </trkpt>
      <trkpt lat="-23.406743" lon="-45.517336">
        <ele>700.849</ele>
        <time>2020-01-19T16:04:12Z</time>
      </trkpt>
      <trkpt lat="-23.406792" lon="-45.517305">
        <ele>700.499</ele>
        <time>2020-01-19T16:04:13Z</time>
      </trkpt>
      <trkpt lat="-23.406839" lon="-45.517271">
        <ele>700.346</ele>
        <time>2020-01-19T16:04:14Z</time>
      </trkpt>
      <trkpt lat="-23.406884" lon="-45.517241">
        <ele>700.388</ele>
        <time>2020-01-19T16:04:15Z</time>
      </trkpt>
      <trkpt lat="-23.406923" lon="-45.517212">
        <ele>700.616</ele>
        <time>2020-01-19T16:04:16Z</time>
      </trkpt>
      <trkpt lat="-23.406965" lon="-45.517181">
        <ele>700.608</ele>
        <time>2020-01-19T16:04:17Z</time>
      </trkpt>
      <trkpt lat="-23.407004" lon="-45.517148">
        <ele>700.438</ele>
        <time>2020-01-19T16:04:18Z</time>
      </trkpt>
      <trkpt lat="-23.407046" lon="-45.517120">
        <ele>700.299</ele>
        <time>2020-01-19T16:04:19Z</time>
      </trkpt>
      <trkpt lat="-23.407093" lon="-45.517097">
        <ele>700.291</ele>
        <time>2020-01-19T16:04:20Z</time>
      </trkpt>
      <trkpt lat="-23.407136" lon="-45.517078">
        <ele>700.185</ele>
        <time>2020-01-19T16:04:21Z</time>
      </trkpt>
      <trkpt lat="-23.407175" lon="-45.517053">
        <ele>700.051</ele>
        <time>2020-01-19T16:04:22Z</time>
      </trkpt>
      <trkpt lat="-23.407232" lon="-45.517010">
        <ele>699.795</ele>
        <time>2020-01-19T16:04:24Z</time>
      </trkpt>
      <trkpt lat="-23.407284" lon="-45.516980">
        <ele>699.118</ele>
        <time>2020-01-19T16:04:26Z</time>
      </trkpt>
      <trkpt lat="-23.407327" lon="-45.516964">
        <ele>698.628</ele>
        <time>2020-01-19T16:04:28Z</time>
      </trkpt>
      <trkpt lat="-23.407360" lon="-45.516928">
        <ele>698.715</ele>
        <time>2020-01-19T16:04:31Z</time>
      </trkpt>
      <trkpt lat="-23.407419" lon="-45.516899">
        <ele>698.765</ele>
        <time>2020-01-19T16:04:34Z</time>
      </trkpt>
      <trkpt lat="-23.407462" lon="-45.516875">
        <ele>698.811</ele>
        <time>2020-01-19T16:04:36Z</time>
      </trkpt>
      <trkpt lat="-23.407514" lon="-45.516849">
        <ele>699.308</ele>
        <time>2020-01-19T16:04:38Z</time>
      </trkpt>
      <trkpt lat="-23.407566" lon="-45.516826">
        <ele>699.435</ele>
        <time>2020-01-19T16:04:40Z</time>
      </trkpt>
      <trkpt lat="-23.407620" lon="-45.516803">
        <ele>699.816</ele>
        <time>2020-01-19T16:04:42Z</time>
      </trkpt>
      <trkpt lat="-23.407689" lon="-45.516781">
        <ele>700.078</ele>
        <time>2020-01-19T16:04:44Z</time>
      </trkpt>
      <trkpt lat="-23.407745" lon="-45.516769">
        <ele>700.152</ele>
        <time>2020-01-19T16:04:46Z</time>
      </trkpt>
      <trkpt lat="-23.407809" lon="-45.516762">
        <ele>699.918</ele>
        <time>2020-01-19T16:04:47Z</time>
      </trkpt>
      <trkpt lat="-23.407863" lon="-45.516757">
        <ele>699.222</ele>
        <time>2020-01-19T16:04:49Z</time>
      </trkpt>
      <trkpt lat="-23.407917" lon="-45.516760">
        <ele>698.785</ele>
        <time>2020-01-19T16:04:50Z</time>
      </trkpt>
      <trkpt lat="-23.407972" lon="-45.516759">
        <ele>698.055</ele>
        <time>2020-01-19T16:04:52Z</time>
      </trkpt>
      <trkpt lat="-23.408039" lon="-45.516759">
        <ele>697.638</ele>
        <time>2020-01-19T16:04:54Z</time>
      </trkpt>
      <trkpt lat="-23.408087" lon="-45.516747">
        <ele>697.270</ele>
        <time>2020-01-19T16:04:55Z</time>
      </trkpt>
      <trkpt lat="-23.408138" lon="-45.516716">
        <ele>697.617</ele>
        <time>2020-01-19T16:04:57Z</time>
      </trkpt>
      <trkpt lat="-23.408196" lon="-45.516666">
        <ele>698.208</ele>
        <time>2020-01-19T16:05:00Z</time>
      </trkpt>
      <trkpt lat="-23.408274" lon="-45.516601">
        <ele>698.247</ele>
        <time>2020-01-19T16:05:03Z</time>
      </trkpt>
      <trkpt lat="-23.408274" lon="-45.516601">
        <ele>698.248</ele>
        <time>2020-01-19T16:05:03Z</time>
      </trkpt>
      <trkpt lat="-23.408274" lon="-45.516601">
        <ele>698.230</ele>
        <time>2020-01-19T16:05:03Z</time>
      </trkpt>
      <trkpt lat="-23.408274" lon="-45.516601">
        <ele>698.234</ele>
        <time>2020-01-19T16:05:03Z</time>
      </trkpt>
      <trkpt lat="-23.408322" lon="-45.516570">
        <ele>698.620</ele>
        <time>2020-01-19T16:05:05Z</time>
      </trkpt>
      <trkpt lat="-23.408387" lon="-45.516534">
        <ele>699.214</ele>
        <time>2020-01-19T16:05:08Z</time>
      </trkpt>
      <trkpt lat="-23.408426" lon="-45.516504">
        <ele>700.257</ele>
        <time>2020-01-19T16:05:09Z</time>
      </trkpt>
      <trkpt lat="-23.408471" lon="-45.516475">
        <ele>700.977</ele>
        <time>2020-01-19T16:05:12Z</time>
      </trkpt>
      <trkpt lat="-23.408516" lon="-45.516462">
        <ele>701.273</ele>
        <time>2020-01-19T16:05:13Z</time>
      </trkpt>
      <trkpt lat="-23.408575" lon="-45.516450">
        <ele>701.585</ele>
        <time>2020-01-19T16:05:15Z</time>
      </trkpt>
      <trkpt lat="-23.408627" lon="-45.516436">
        <ele>702.113</ele>
        <time>2020-01-19T16:05:17Z</time>
      </trkpt>
      <trkpt lat="-23.408682" lon="-45.516419">
        <ele>701.808</ele>
        <time>2020-01-19T16:05:19Z</time>
      </trkpt>
      <trkpt lat="-23.408745" lon="-45.516401">
        <ele>701.761</ele>
        <time>2020-01-19T16:05:22Z</time>
      </trkpt>
      <trkpt lat="-23.408796" lon="-45.516380">
        <ele>701.792</ele>
        <time>2020-01-19T16:05:24Z</time>
      </trkpt>
      <trkpt lat="-23.408849" lon="-45.516353">
        <ele>701.654</ele>
        <time>2020-01-19T16:05:26Z</time>
      </trkpt>
      <trkpt lat="-23.408905" lon="-45.516327">
        <ele>701.728</ele>
        <time>2020-01-19T16:05:28Z</time>
      </trkpt>
      <trkpt lat="-23.408954" lon="-45.516298">
        <ele>701.764</ele>
        <time>2020-01-19T16:05:30Z</time>
      </trkpt>
      <trkpt lat="-23.409004" lon="-45.516276">
        <ele>701.238</ele>
        <time>2020-01-19T16:05:32Z</time>
      </trkpt>
      <trkpt lat="-23.409061" lon="-45.516249">
        <ele>700.871</ele>
        <time>2020-01-19T16:05:34Z</time>
      </trkpt>
      <trkpt lat="-23.409117" lon="-45.516231">
        <ele>700.551</ele>
        <time>2020-01-19T16:05:36Z</time>
      </trkpt>
      <trkpt lat="-23.409164" lon="-45.516219">
        <ele>700.361</ele>
        <time>2020-01-19T16:05:38Z</time>
      </trkpt>
      <trkpt lat="-23.409220" lon="-45.516205">
        <ele>699.821</ele>
        <time>2020-01-19T16:05:39Z</time>
      </trkpt>
      <trkpt lat="-23.409270" lon="-45.516196">
        <ele>699.313</ele>
        <time>2020-01-19T16:05:41Z</time>
      </trkpt>
      <trkpt lat="-23.409335" lon="-45.516173">
        <ele>699.108</ele>
        <time>2020-01-19T16:05:43Z</time>
      </trkpt>
      <trkpt lat="-23.409393" lon="-45.516156">
        <ele>699.220</ele>
        <time>2020-01-19T16:05:44Z</time>
      </trkpt>
      <trkpt lat="-23.409442" lon="-45.516139">
        <ele>699.791</ele>
        <time>2020-01-19T16:05:46Z</time>
      </trkpt>
      <trkpt lat="-23.409496" lon="-45.516111">
        <ele>700.173</ele>
        <time>2020-01-19T16:05:48Z</time>
      </trkpt>
      <trkpt lat="-23.409546" lon="-45.516088">
        <ele>699.987</ele>
        <time>2020-01-19T16:05:50Z</time>
      </trkpt>
      <trkpt lat="-23.409600" lon="-45.516072">
        <ele>699.343</ele>
        <time>2020-01-19T16:05:52Z</time>
      </trkpt>
      <trkpt lat="-23.409654" lon="-45.516054">
        <ele>698.277</ele>
        <time>2020-01-19T16:05:54Z</time>
      </trkpt>
      <trkpt lat="-23.409707" lon="-45.516036">
        <ele>697.680</ele>
        <time>2020-01-19T16:05:56Z</time>
      </trkpt>
      <trkpt lat="-23.409762" lon="-45.516020">
        <ele>697.370</ele>
        <time>2020-01-19T16:05:58Z</time>
      </trkpt>
      <trkpt lat="-23.409817" lon="-45.516004">
        <ele>697.351</ele>
        <time>2020-01-19T16:06:00Z</time>
      </trkpt>
      <trkpt lat="-23.409870" lon="-45.515984">
        <ele>697.401</ele>
        <time>2020-01-19T16:06:02Z</time>
      </trkpt>
      <trkpt lat="-23.409917" lon="-45.515954">
        <ele>698.211</ele>
        <time>2020-01-19T16:06:04Z</time>
      </trkpt>
      <trkpt lat="-23.409981" lon="-45.515929">
        <ele>699.308</ele>
        <time>2020-01-19T16:06:07Z</time>
      </trkpt>
      <trkpt lat="-23.410025" lon="-45.515912">
        <ele>699.749</ele>
        <time>2020-01-19T16:06:09Z</time>
      </trkpt>
      <trkpt lat="-23.410099" lon="-45.515887">
        <ele>700.080</ele>
        <time>2020-01-19T16:06:10Z</time>
      </trkpt>
      <trkpt lat="-23.410153" lon="-45.515871">
        <ele>700.562</ele>
        <time>2020-01-19T16:06:12Z</time>
      </trkpt>
      <trkpt lat="-23.410225" lon="-45.515851">
        <ele>700.186</ele>
        <time>2020-01-19T16:06:14Z</time>
      </trkpt>
      <trkpt lat="-23.410276" lon="-45.515842">
        <ele>699.682</ele>
        <time>2020-01-19T16:06:16Z</time>
      </trkpt>
      <trkpt lat="-23.410325" lon="-45.515840">
        <ele>699.256</ele>
        <time>2020-01-19T16:06:17Z</time>
      </trkpt>
      <trkpt lat="-23.410378" lon="-45.515842">
        <ele>699.319</ele>
        <time>2020-01-19T16:06:18Z</time>
      </trkpt>
      <trkpt lat="-23.410449" lon="-45.515836">
        <ele>700.019</ele>
        <time>2020-01-19T16:06:20Z</time>
      </trkpt>
      <trkpt lat="-23.410505" lon="-45.515830">
        <ele>699.745</ele>
        <time>2020-01-19T16:06:21Z</time>
      </trkpt>
      <trkpt lat="-23.410551" lon="-45.515829">
        <ele>700.047</ele>
        <time>2020-01-19T16:06:22Z</time>
      </trkpt>
      <trkpt lat="-23.410622" lon="-45.515826">
        <ele>700.011</ele>
        <time>2020-01-19T16:06:24Z</time>
      </trkpt>
      <trkpt lat="-23.410706" lon="-45.515816">
        <ele>700.108</ele>
        <time>2020-01-19T16:06:26Z</time>
      </trkpt>
      <trkpt lat="-23.410775" lon="-45.515801">
        <ele>700.198</ele>
        <time>2020-01-19T16:06:27Z</time>
      </trkpt>
      <trkpt lat="-23.410862" lon="-45.515786">
        <ele>700.299</ele>
        <time>2020-01-19T16:06:29Z</time>
      </trkpt>
      <trkpt lat="-23.410909" lon="-45.515783">
        <ele>700.291</ele>
        <time>2020-01-19T16:06:30Z</time>
      </trkpt>
      <trkpt lat="-23.410995" lon="-45.515777">
        <ele>699.455</ele>
        <time>2020-01-19T16:06:32Z</time>
      </trkpt>
      <trkpt lat="-23.411039" lon="-45.515759">
        <ele>698.761</ele>
        <time>2020-01-19T16:06:33Z</time>
      </trkpt>
      <trkpt lat="-23.411086" lon="-45.515754">
        <ele>698.285</ele>
        <time>2020-01-19T16:06:34Z</time>
      </trkpt>
      <trkpt lat="-23.411151" lon="-45.515755">
        <ele>697.958</ele>
        <time>2020-01-19T16:06:36Z</time>
      </trkpt>
      <trkpt lat="-23.411224" lon="-45.515763">
        <ele>697.518</ele>
        <time>2020-01-19T16:06:37Z</time>
      </trkpt>
      <trkpt lat="-23.411306" lon="-45.515766">
        <ele>697.661</ele>
        <time>2020-01-19T16:06:40Z</time>
      </trkpt>
      <trkpt lat="-23.411371" lon="-45.515760">
        <ele>697.121</ele>
        <time>2020-01-19T16:06:42Z</time>
      </trkpt>
      <trkpt lat="-23.411418" lon="-45.515762">
        <ele>696.213</ele>
        <time>2020-01-19T16:06:43Z</time>
      </trkpt>
      <trkpt lat="-23.411475" lon="-45.515785">
        <ele>695.508</ele>
        <time>2020-01-19T16:06:45Z</time>
      </trkpt>
      <trkpt lat="-23.411527" lon="-45.515794">
        <ele>695.560</ele>
        <time>2020-01-19T16:06:48Z</time>
      </trkpt>
      <trkpt lat="-23.411580" lon="-45.515793">
        <ele>695.711</ele>
        <time>2020-01-19T16:06:51Z</time>
      </trkpt>
      <trkpt lat="-23.411636" lon="-45.515787">
        <ele>696.083</ele>
        <time>2020-01-19T16:06:53Z</time>
      </trkpt>
      <trkpt lat="-23.411685" lon="-45.515778">
        <ele>696.637</ele>
        <time>2020-01-19T16:06:56Z</time>
      </trkpt>
      <trkpt lat="-23.411736" lon="-45.515757">
        <ele>697.373</ele>
        <time>2020-01-19T16:07:00Z</time>
      </trkpt>
      <trkpt lat="-23.411778" lon="-45.515738">
        <ele>697.537</ele>
        <time>2020-01-19T16:07:02Z</time>
      </trkpt>
      <trkpt lat="-23.411820" lon="-45.515709">
        <ele>697.860</ele>
        <time>2020-01-19T16:07:04Z</time>
      </trkpt>
      <trkpt lat="-23.411865" lon="-45.515685">
        <ele>698.480</ele>
        <time>2020-01-19T16:07:06Z</time>
      </trkpt>
      <trkpt lat="-23.411909" lon="-45.515665">
        <ele>698.714</ele>
        <time>2020-01-19T16:07:08Z</time>
      </trkpt>
      <trkpt lat="-23.411961" lon="-45.515659">
        <ele>699.054</ele>
        <time>2020-01-19T16:07:11Z</time>
      </trkpt>
      <trkpt lat="-23.412010" lon="-45.515650">
        <ele>700.809</ele>
        <time>2020-01-19T16:07:13Z</time>
      </trkpt>
      <trkpt lat="-23.412066" lon="-45.515637">
        <ele>702.608</ele>
        <time>2020-01-19T16:07:17Z</time>
      </trkpt>
      <trkpt lat="-23.412118" lon="-45.515620">
        <ele>703.835</ele>
        <time>2020-01-19T16:07:19Z</time>
      </trkpt>
      <trkpt lat="-23.412173" lon="-45.515615">
        <ele>704.796</ele>
        <time>2020-01-19T16:07:21Z</time>
      </trkpt>
      <trkpt lat="-23.412237" lon="-45.515611">
        <ele>705.048</ele>
        <time>2020-01-19T16:07:24Z</time>
      </trkpt>
      <trkpt lat="-23.412287" lon="-45.515612">
        <ele>705.392</ele>
        <time>2020-01-19T16:07:26Z</time>
      </trkpt>
      <trkpt lat="-23.412333" lon="-45.515610">
        <ele>705.228</ele>
        <time>2020-01-19T16:07:28Z</time>
      </trkpt>
      <trkpt lat="-23.412396" lon="-45.515622">
        <ele>704.932</ele>
        <time>2020-01-19T16:07:30Z</time>
      </trkpt>
      <trkpt lat="-23.412448" lon="-45.515638">
        <ele>705.065</ele>
        <time>2020-01-19T16:07:33Z</time>
      </trkpt>
      <trkpt lat="-23.412500" lon="-45.515647">
        <ele>705.235</ele>
        <time>2020-01-19T16:07:35Z</time>
      </trkpt>
      <trkpt lat="-23.412555" lon="-45.515661">
        <ele>704.886</ele>
        <time>2020-01-19T16:07:37Z</time>
      </trkpt>
      <trkpt lat="-23.412600" lon="-45.515690">
        <ele>702.460</ele>
        <time>2020-01-19T16:07:38Z</time>
      </trkpt>
      <trkpt lat="-23.412647" lon="-45.515729">
        <ele>700.426</ele>
        <time>2020-01-19T16:07:40Z</time>
      </trkpt>
      <trkpt lat="-23.412711" lon="-45.515781">
        <ele>699.508</ele>
        <time>2020-01-19T16:07:42Z</time>
      </trkpt>
      <trkpt lat="-23.412777" lon="-45.515832">
        <ele>698.572</ele>
        <time>2020-01-19T16:07:44Z</time>
      </trkpt>
      <trkpt lat="-23.412833" lon="-45.515871">
        <ele>697.793</ele>
        <time>2020-01-19T16:07:45Z</time>
      </trkpt>
      <trkpt lat="-23.412893" lon="-45.515913">
        <ele>696.985</ele>
        <time>2020-01-19T16:07:47Z</time>
      </trkpt>
      <trkpt lat="-23.412941" lon="-45.515947">
        <ele>696.579</ele>
        <time>2020-01-19T16:07:48Z</time>
      </trkpt>
      <trkpt lat="-23.412998" lon="-45.515979">
        <ele>696.445</ele>
        <time>2020-01-19T16:07:49Z</time>
      </trkpt>
      <trkpt lat="-23.413048" lon="-45.515991">
        <ele>696.139</ele>
        <time>2020-01-19T16:07:50Z</time>
      </trkpt>
      <trkpt lat="-23.413099" lon="-45.515998">
        <ele>696.012</ele>
        <time>2020-01-19T16:07:51Z</time>
      </trkpt>
      <trkpt lat="-23.413150" lon="-45.516007">
        <ele>696.222</ele>
        <time>2020-01-19T16:07:52Z</time>
      </trkpt>
      <trkpt lat="-23.413196" lon="-45.516015">
        <ele>696.468</ele>
        <time>2020-01-19T16:07:53Z</time>
      </trkpt>
      <trkpt lat="-23.413281" lon="-45.515999">
        <ele>696.242</ele>
        <time>2020-01-19T16:07:55Z</time>
      </trkpt>
      <trkpt lat="-23.413329" lon="-45.516019">
        <ele>696.026</ele>
        <time>2020-01-19T16:07:57Z</time>
      </trkpt>
      <trkpt lat="-23.413402" lon="-45.515992">
        <ele>696.408</ele>
        <time>2020-01-19T16:07:59Z</time>
      </trkpt>
      <trkpt lat="-23.413454" lon="-45.515965">
        <ele>696.770</ele>
        <time>2020-01-19T16:08:01Z</time>
      </trkpt>
      <trkpt lat="-23.413506" lon="-45.515940">
        <ele>697.551</ele>
        <time>2020-01-19T16:08:03Z</time>
      </trkpt>
      <trkpt lat="-23.413563" lon="-45.515926">
        <ele>697.753</ele>
        <time>2020-01-19T16:08:05Z</time>
      </trkpt>
      <trkpt lat="-23.413609" lon="-45.515922">
        <ele>698.187</ele>
        <time>2020-01-19T16:08:07Z</time>
      </trkpt>
      <trkpt lat="-23.413687" lon="-45.515888">
        <ele>699.073</ele>
        <time>2020-01-19T16:08:09Z</time>
      </trkpt>
      <trkpt lat="-23.413751" lon="-45.515875">
        <ele>699.547</ele>
        <time>2020-01-19T16:08:11Z</time>
      </trkpt>
      <trkpt lat="-23.413811" lon="-45.515869">
        <ele>699.830</ele>
        <time>2020-01-19T16:08:13Z</time>
      </trkpt>
      <trkpt lat="-23.413860" lon="-45.515857">
        <ele>699.180</ele>
        <time>2020-01-19T16:08:14Z</time>
      </trkpt>
      <trkpt lat="-23.413922" lon="-45.515828">
        <ele>699.456</ele>
        <time>2020-01-19T16:08:17Z</time>
      </trkpt>
      <trkpt lat="-23.413962" lon="-45.515803">
        <ele>700.459</ele>
        <time>2020-01-19T16:08:18Z</time>
      </trkpt>
      <trkpt lat="-23.414007" lon="-45.515763">
        <ele>701.214</ele>
        <time>2020-01-19T16:08:20Z</time>
      </trkpt>
      <trkpt lat="-23.414040" lon="-45.515726">
        <ele>702.308</ele>
        <time>2020-01-19T16:08:22Z</time>
      </trkpt>
      <trkpt lat="-23.414066" lon="-45.515684">
        <ele>702.569</ele>
        <time>2020-01-19T16:08:24Z</time>
      </trkpt>
      <trkpt lat="-23.414081" lon="-45.515636">
        <ele>702.910</ele>
        <time>2020-01-19T16:08:26Z</time>
      </trkpt>
      <trkpt lat="-23.414087" lon="-45.515583">
        <ele>702.142</ele>
        <time>2020-01-19T16:08:28Z</time>
      </trkpt>
      <trkpt lat="-23.414098" lon="-45.515526">
        <ele>701.836</ele>
        <time>2020-01-19T16:08:31Z</time>
      </trkpt>
      <trkpt lat="-23.414099" lon="-45.515472">
        <ele>703.012</ele>
        <time>2020-01-19T16:08:33Z</time>
      </trkpt>
      <trkpt lat="-23.414086" lon="-45.515407">
        <ele>703.926</ele>
        <time>2020-01-19T16:08:37Z</time>
      </trkpt>
      <trkpt lat="-23.414068" lon="-45.515352">
        <ele>704.949</ele>
        <time>2020-01-19T16:08:39Z</time>
      </trkpt>
      <trkpt lat="-23.414050" lon="-45.515296">
        <ele>705.049</ele>
        <time>2020-01-19T16:08:41Z</time>
      </trkpt>
      <trkpt lat="-23.414013" lon="-45.515257">
        <ele>706.068</ele>
        <time>2020-01-19T16:08:43Z</time>
      </trkpt>
      <trkpt lat="-23.413977" lon="-45.515222">
        <ele>707.442</ele>
        <time>2020-01-19T16:08:46Z</time>
      </trkpt>
      <trkpt lat="-23.413934" lon="-45.515189">
        <ele>708.126</ele>
        <time>2020-01-19T16:08:48Z</time>
      </trkpt>
      <trkpt lat="-23.413893" lon="-45.515160">
        <ele>708.908</ele>
        <time>2020-01-19T16:08:50Z</time>
      </trkpt>
      <trkpt lat="-23.413848" lon="-45.515126">
        <ele>708.330</ele>
        <time>2020-01-19T16:08:52Z</time>
      </trkpt>
      <trkpt lat="-23.413803" lon="-45.515096">
        <ele>708.361</ele>
        <time>2020-01-19T16:08:54Z</time>
      </trkpt>
      <trkpt lat="-23.413749" lon="-45.515081">
        <ele>708.223</ele>
        <time>2020-01-19T16:08:56Z</time>
      </trkpt>
      <trkpt lat="-23.413699" lon="-45.515073">
        <ele>708.377</ele>
        <time>2020-01-19T16:08:58Z</time>
      </trkpt>
      <trkpt lat="-23.413636" lon="-45.515065">
        <ele>708.493</ele>
        <time>2020-01-19T16:09:00Z</time>
      </trkpt>
      <trkpt lat="-23.413585" lon="-45.515053">
        <ele>708.447</ele>
        <time>2020-01-19T16:09:02Z</time>
      </trkpt>
      <trkpt lat="-23.413528" lon="-45.515044">
        <ele>708.440</ele>
        <time>2020-01-19T16:09:04Z</time>
      </trkpt>
      <trkpt lat="-23.413470" lon="-45.515032">
        <ele>707.590</ele>
        <time>2020-01-19T16:09:06Z</time>
      </trkpt>
      <trkpt lat="-23.413419" lon="-45.515022">
        <ele>706.625</ele>
        <time>2020-01-19T16:09:08Z</time>
      </trkpt>
      <trkpt lat="-23.413368" lon="-45.515015">
        <ele>706.126</ele>
        <time>2020-01-19T16:09:09Z</time>
      </trkpt>
      <trkpt lat="-23.413316" lon="-45.514990">
        <ele>705.808</ele>
        <time>2020-01-19T16:09:12Z</time>
      </trkpt>
      <trkpt lat="-23.413265" lon="-45.514968">
        <ele>706.208</ele>
        <time>2020-01-19T16:09:14Z</time>
      </trkpt>
      <trkpt lat="-23.413215" lon="-45.514950">
        <ele>706.676</ele>
        <time>2020-01-19T16:09:16Z</time>
      </trkpt>
      <trkpt lat="-23.413159" lon="-45.514938">
        <ele>706.847</ele>
        <time>2020-01-19T16:09:18Z</time>
      </trkpt>
      <trkpt lat="-23.413114" lon="-45.514930">
        <ele>707.019</ele>
        <time>2020-01-19T16:09:20Z</time>
      </trkpt>
      <trkpt lat="-23.413065" lon="-45.514924">
        <ele>707.383</ele>
        <time>2020-01-19T16:09:22Z</time>
      </trkpt>
      <trkpt lat="-23.413009" lon="-45.514915">
        <ele>707.429</ele>
        <time>2020-01-19T16:09:24Z</time>
      </trkpt>
      <trkpt lat="-23.412961" lon="-45.514913">
        <ele>708.033</ele>
        <time>2020-01-19T16:09:27Z</time>
      </trkpt>
      <trkpt lat="-23.412913" lon="-45.514911">
        <ele>708.856</ele>
        <time>2020-01-19T16:09:29Z</time>
      </trkpt>
      <trkpt lat="-23.412859" lon="-45.514908">
        <ele>709.686</ele>
        <time>2020-01-19T16:09:32Z</time>
      </trkpt>
      <trkpt lat="-23.412804" lon="-45.514899">
        <ele>710.495</ele>
        <time>2020-01-19T16:09:34Z</time>
      </trkpt>
      <trkpt lat="-23.412753" lon="-45.514887">
        <ele>710.949</ele>
        <time>2020-01-19T16:09:36Z</time>
      </trkpt>
      <trkpt lat="-23.412704" lon="-45.514876">
        <ele>710.423</ele>
        <time>2020-01-19T16:09:38Z</time>
      </trkpt>
      <trkpt lat="-23.412651" lon="-45.514861">
        <ele>710.108</ele>
        <time>2020-01-19T16:09:40Z</time>
      </trkpt>
      <trkpt lat="-23.412598" lon="-45.514846">
        <ele>710.133</ele>
        <time>2020-01-19T16:09:42Z</time>
      </trkpt>
      <trkpt lat="-23.412543" lon="-45.514827">
        <ele>711.154</ele>
        <time>2020-01-19T16:09:44Z</time>
      </trkpt>
      <trkpt lat="-23.412499" lon="-45.514813">
        <ele>711.346</ele>
        <time>2020-01-19T16:09:46Z</time>
      </trkpt>
      <trkpt lat="-23.412454" lon="-45.514797">
        <ele>711.650</ele>
        <time>2020-01-19T16:09:47Z</time>
      </trkpt>
      <trkpt lat="-23.412408" lon="-45.514786">
        <ele>711.946</ele>
        <time>2020-01-19T16:09:49Z</time>
      </trkpt>
      <trkpt lat="-23.412356" lon="-45.514774">
        <ele>712.560</ele>
        <time>2020-01-19T16:09:50Z</time>
      </trkpt>
      <trkpt lat="-23.412301" lon="-45.514757">
        <ele>713.063</ele>
        <time>2020-01-19T16:09:53Z</time>
      </trkpt>
      <trkpt lat="-23.412254" lon="-45.514741">
        <ele>712.353</ele>
        <time>2020-01-19T16:09:54Z</time>
      </trkpt>
      <trkpt lat="-23.412209" lon="-45.514723">
        <ele>712.215</ele>
        <time>2020-01-19T16:09:56Z</time>
      </trkpt>
      <trkpt lat="-23.412163" lon="-45.514707">
        <ele>712.065</ele>
        <time>2020-01-19T16:09:57Z</time>
      </trkpt>
      <trkpt lat="-23.412107" lon="-45.514682">
        <ele>711.411</ele>
        <time>2020-01-19T16:09:59Z</time>
      </trkpt>
      <trkpt lat="-23.412063" lon="-45.514662">
        <ele>710.808</ele>
        <time>2020-01-19T16:10:01Z</time>
      </trkpt>
      <trkpt lat="-23.412021" lon="-45.514643">
        <ele>710.245</ele>
        <time>2020-01-19T16:10:02Z</time>
      </trkpt>
      <trkpt lat="-23.411978" lon="-45.514623">
        <ele>709.396</ele>
        <time>2020-01-19T16:10:04Z</time>
      </trkpt>
      <trkpt lat="-23.411933" lon="-45.514608">
        <ele>708.768</ele>
        <time>2020-01-19T16:10:06Z</time>
      </trkpt>
      <trkpt lat="-23.411854" lon="-45.514583">
        <ele>708.692</ele>
        <time>2020-01-19T16:10:08Z</time>
      </trkpt>
      <trkpt lat="-23.411795" lon="-45.514568">
        <ele>708.058</ele>
        <time>2020-01-19T16:10:10Z</time>
      </trkpt>
      <trkpt lat="-23.411742" lon="-45.514564">
        <ele>707.212</ele>
        <time>2020-01-19T16:10:11Z</time>
      </trkpt>
      <trkpt lat="-23.411691" lon="-45.514556">
        <ele>706.975</ele>
        <time>2020-01-19T16:10:13Z</time>
      </trkpt>
      <trkpt lat="-23.411629" lon="-45.514548">
        <ele>706.945</ele>
        <time>2020-01-19T16:10:14Z</time>
      </trkpt>
      <trkpt lat="-23.411572" lon="-45.514534">
        <ele>707.299</ele>
        <time>2020-01-19T16:10:16Z</time>
      </trkpt>
      <trkpt lat="-23.411511" lon="-45.514507">
        <ele>707.207</ele>
        <time>2020-01-19T16:10:17Z</time>
      </trkpt>
      <trkpt lat="-23.411460" lon="-45.514424">
        <ele>706.327</ele>
        <time>2020-01-19T16:10:19Z</time>
      </trkpt>
      <trkpt lat="-23.411446" lon="-45.514369">
        <ele>705.508</ele>
        <time>2020-01-19T16:10:20Z</time>
      </trkpt>
      <trkpt lat="-23.411441" lon="-45.514307">
        <ele>704.683</ele>
        <time>2020-01-19T16:10:21Z</time>
      </trkpt>
      <trkpt lat="-23.411448" lon="-45.514242">
        <ele>703.864</ele>
        <time>2020-01-19T16:10:22Z</time>
      </trkpt>
      <trkpt lat="-23.411465" lon="-45.514179">
        <ele>703.066</ele>
        <time>2020-01-19T16:10:23Z</time>
      </trkpt>
      <trkpt lat="-23.411491" lon="-45.514123">
        <ele>702.350</ele>
        <time>2020-01-19T16:10:24Z</time>
      </trkpt>
      <trkpt lat="-23.411519" lon="-45.514064">
        <ele>701.856</ele>
        <time>2020-01-19T16:10:25Z</time>
      </trkpt>
      <trkpt lat="-23.411549" lon="-45.514009">
        <ele>701.170</ele>
        <time>2020-01-19T16:10:26Z</time>
      </trkpt>
      <trkpt lat="-23.411579" lon="-45.513955">
        <ele>700.673</ele>
        <time>2020-01-19T16:10:27Z</time>
      </trkpt>
      <trkpt lat="-23.411603" lon="-45.513900">
        <ele>700.113</ele>
        <time>2020-01-19T16:10:28Z</time>
      </trkpt>
      <trkpt lat="-23.411625" lon="-45.513850">
        <ele>699.929</ele>
        <time>2020-01-19T16:10:29Z</time>
      </trkpt>
      <trkpt lat="-23.411648" lon="-45.513803">
        <ele>699.800</ele>
        <time>2020-01-19T16:10:30Z</time>
      </trkpt>
      <trkpt lat="-23.411671" lon="-45.513756">
        <ele>699.920</ele>
        <time>2020-01-19T16:10:31Z</time>
      </trkpt>
      <trkpt lat="-23.411693" lon="-45.513708">
        <ele>700.108</ele>
        <time>2020-01-19T16:10:32Z</time>
      </trkpt>
      <trkpt lat="-23.411715" lon="-45.513661">
        <ele>700.826</ele>
        <time>2020-01-19T16:10:33Z</time>
      </trkpt>
      <trkpt lat="-23.411738" lon="-45.513615">
        <ele>701.057</ele>
        <time>2020-01-19T16:10:34Z</time>
      </trkpt>
      <trkpt lat="-23.411759" lon="-45.513570">
        <ele>701.029</ele>
        <time>2020-01-19T16:10:35Z</time>
      </trkpt>
      <trkpt lat="-23.411792" lon="-45.513488">
        <ele>700.973</ele>
        <time>2020-01-19T16:10:37Z</time>
      </trkpt>
      <trkpt lat="-23.411827" lon="-45.513420">
        <ele>700.839</ele>
        <time>2020-01-19T16:10:39Z</time>
      </trkpt>
      <trkpt lat="-23.411858" lon="-45.513363">
        <ele>700.773</ele>
        <time>2020-01-19T16:10:41Z</time>
      </trkpt>
      <trkpt lat="-23.411890" lon="-45.513299">
        <ele>701.476</ele>
        <time>2020-01-19T16:10:43Z</time>
      </trkpt>
      <trkpt lat="-23.411920" lon="-45.513238">
        <ele>701.796</ele>
        <time>2020-01-19T16:10:45Z</time>
      </trkpt>
      <trkpt lat="-23.411944" lon="-45.513195">
        <ele>702.015</ele>
        <time>2020-01-19T16:10:47Z</time>
      </trkpt>
      <trkpt lat="-23.411973" lon="-45.513149">
        <ele>702.365</ele>
        <time>2020-01-19T16:10:50Z</time>
      </trkpt>
      <trkpt lat="-23.412013" lon="-45.513098">
        <ele>702.311</ele>
        <time>2020-01-19T16:10:53Z</time>
      </trkpt>
      <trkpt lat="-23.412049" lon="-45.513065">
        <ele>702.008</ele>
        <time>2020-01-19T16:10:55Z</time>
      </trkpt>
      <trkpt lat="-23.412088" lon="-45.513030">
        <ele>701.735</ele>
        <time>2020-01-19T16:10:57Z</time>
      </trkpt>
      <trkpt lat="-23.412125" lon="-45.512987">
        <ele>701.846</ele>
        <time>2020-01-19T16:10:59Z</time>
      </trkpt>
      <trkpt lat="-23.412169" lon="-45.512948">
        <ele>701.658</ele>
        <time>2020-01-19T16:11:01Z</time>
      </trkpt>
      <trkpt lat="-23.412213" lon="-45.512910">
        <ele>701.262</ele>
        <time>2020-01-19T16:11:03Z</time>
      </trkpt>
      <trkpt lat="-23.412249" lon="-45.512874">
        <ele>701.178</ele>
        <time>2020-01-19T16:11:04Z</time>
      </trkpt>
      <trkpt lat="-23.412278" lon="-45.512835">
        <ele>700.692</ele>
        <time>2020-01-19T16:11:06Z</time>
      </trkpt>
      <trkpt lat="-23.412314" lon="-45.512781">
        <ele>700.085</ele>
        <time>2020-01-19T16:11:08Z</time>
      </trkpt>
      <trkpt lat="-23.412357" lon="-45.512734">
        <ele>699.925</ele>
        <time>2020-01-19T16:11:09Z</time>
      </trkpt>
      <trkpt lat="-23.412392" lon="-45.512688">
        <ele>698.633</ele>
        <time>2020-01-19T16:11:11Z</time>
      </trkpt>
      <trkpt lat="-23.412427" lon="-45.512645">
        <ele>698.223</ele>
        <time>2020-01-19T16:11:13Z</time>
      </trkpt>
      <trkpt lat="-23.412452" lon="-45.512601">
        <ele>698.015</ele>
        <time>2020-01-19T16:11:15Z</time>
      </trkpt>
      <trkpt lat="-23.412480" lon="-45.512558">
        <ele>697.708</ele>
        <time>2020-01-19T16:11:17Z</time>
      </trkpt>
      <trkpt lat="-23.412510" lon="-45.512510">
        <ele>697.487</ele>
        <time>2020-01-19T16:11:19Z</time>
      </trkpt>
      <trkpt lat="-23.412537" lon="-45.512459">
        <ele>696.918</ele>
        <time>2020-01-19T16:11:21Z</time>
      </trkpt>
      <trkpt lat="-23.412563" lon="-45.512403">
        <ele>696.920</ele>
        <time>2020-01-19T16:11:23Z</time>
      </trkpt>
      <trkpt lat="-23.412588" lon="-45.512351">
        <ele>696.584</ele>
        <time>2020-01-19T16:11:25Z</time>
      </trkpt>
      <trkpt lat="-23.412613" lon="-45.512308">
        <ele>696.530</ele>
        <time>2020-01-19T16:11:27Z</time>
      </trkpt>
      <trkpt lat="-23.412644" lon="-45.512259">
        <ele>696.974</ele>
        <time>2020-01-19T16:11:29Z</time>
      </trkpt>
      <trkpt lat="-23.412671" lon="-45.512211">
        <ele>697.817</ele>
        <time>2020-01-19T16:11:32Z</time>
      </trkpt>
      <trkpt lat="-23.412721" lon="-45.512169">
        <ele>698.347</ele>
        <time>2020-01-19T16:11:34Z</time>
      </trkpt>
      <trkpt lat="-23.412767" lon="-45.512142">
        <ele>698.957</ele>
        <time>2020-01-19T16:11:38Z</time>
      </trkpt>
      <trkpt lat="-23.412817" lon="-45.512125">
        <ele>699.200</ele>
        <time>2020-01-19T16:11:41Z</time>
      </trkpt>
      <trkpt lat="-23.412865" lon="-45.512103">
        <ele>699.620</ele>
        <time>2020-01-19T16:11:44Z</time>
      </trkpt>
      <trkpt lat="-23.412910" lon="-45.512089">
        <ele>700.008</ele>
        <time>2020-01-19T16:11:46Z</time>
      </trkpt>
      <trkpt lat="-23.412960" lon="-45.512075">
        <ele>700.269</ele>
        <time>2020-01-19T16:11:48Z</time>
      </trkpt>
      <trkpt lat="-23.413008" lon="-45.512062">
        <ele>700.470</ele>
        <time>2020-01-19T16:11:50Z</time>
      </trkpt>
      <trkpt lat="-23.413055" lon="-45.512044">
        <ele>701.452</ele>
        <time>2020-01-19T16:11:52Z</time>
      </trkpt>
      <trkpt lat="-23.413106" lon="-45.512012">
        <ele>702.736</ele>
        <time>2020-01-19T16:11:55Z</time>
      </trkpt>
      <trkpt lat="-23.413155" lon="-45.512000">
        <ele>703.432</ele>
        <time>2020-01-19T16:11:57Z</time>
      </trkpt>
      <trkpt lat="-23.413201" lon="-45.511976">
        <ele>704.046</ele>
        <time>2020-01-19T16:12:02Z</time>
      </trkpt>
      <trkpt lat="-23.413246" lon="-45.511955">
        <ele>704.729</ele>
        <time>2020-01-19T16:12:05Z</time>
      </trkpt>
      <trkpt lat="-23.413291" lon="-45.511933">
        <ele>705.039</ele>
        <time>2020-01-19T16:12:08Z</time>
      </trkpt>
      <trkpt lat="-23.413335" lon="-45.511919">
        <ele>705.795</ele>
        <time>2020-01-19T16:12:10Z</time>
      </trkpt>
      <trkpt lat="-23.413384" lon="-45.511901">
        <ele>705.749</ele>
        <time>2020-01-19T16:12:12Z</time>
      </trkpt>
      <trkpt lat="-23.413436" lon="-45.511882">
        <ele>706.123</ele>
        <time>2020-01-19T16:12:15Z</time>
      </trkpt>
      <trkpt lat="-23.413481" lon="-45.511865">
        <ele>707.408</ele>
        <time>2020-01-19T16:12:17Z</time>
      </trkpt>
      <trkpt lat="-23.413530" lon="-45.511841">
        <ele>708.233</ele>
        <time>2020-01-19T16:12:19Z</time>
      </trkpt>
      <trkpt lat="-23.413577" lon="-45.511828">
        <ele>708.384</ele>
        <time>2020-01-19T16:12:21Z</time>
      </trkpt>
      <trkpt lat="-23.413625" lon="-45.511810">
        <ele>708.686</ele>
        <time>2020-01-19T16:12:23Z</time>
      </trkpt>
      <trkpt lat="-23.413666" lon="-45.511786">
        <ele>708.960</ele>
        <time>2020-01-19T16:12:25Z</time>
      </trkpt>
      <trkpt lat="-23.413712" lon="-45.511760">
        <ele>709.756</ele>
        <time>2020-01-19T16:12:27Z</time>
      </trkpt>
      <trkpt lat="-23.413758" lon="-45.511736">
        <ele>709.520</ele>
        <time>2020-01-19T16:12:29Z</time>
      </trkpt>
      <trkpt lat="-23.413818" lon="-45.511718">
        <ele>708.763</ele>
        <time>2020-01-19T16:12:32Z</time>
      </trkpt>
      <trkpt lat="-23.413863" lon="-45.511696">
        <ele>708.363</ele>
        <time>2020-01-19T16:12:34Z</time>
      </trkpt>
      <trkpt lat="-23.413911" lon="-45.511678">
        <ele>707.456</ele>
        <time>2020-01-19T16:12:37Z</time>
      </trkpt>
      <trkpt lat="-23.413958" lon="-45.511676">
        <ele>707.359</ele>
        <time>2020-01-19T16:12:41Z</time>
      </trkpt>
      <trkpt lat="-23.414005" lon="-45.511663">
        <ele>707.914</ele>
        <time>2020-01-19T16:12:46Z</time>
      </trkpt>
      <trkpt lat="-23.414051" lon="-45.511652">
        <ele>708.308</ele>
        <time>2020-01-19T16:12:51Z</time>
      </trkpt>
      <trkpt lat="-23.414096" lon="-45.511637">
        <ele>708.779</ele>
        <time>2020-01-19T16:12:54Z</time>
      </trkpt>
      <trkpt lat="-23.414137" lon="-45.511612">
        <ele>709.170</ele>
        <time>2020-01-19T16:12:58Z</time>
      </trkpt>
      <trkpt lat="-23.414179" lon="-45.511593">
        <ele>709.382</ele>
        <time>2020-01-19T16:13:00Z</time>
      </trkpt>
      <trkpt lat="-23.414226" lon="-45.511563">
        <ele>709.156</ele>
        <time>2020-01-19T16:13:04Z</time>
      </trkpt>
      <trkpt lat="-23.414226" lon="-45.511563">
        <ele>709.182</ele>
        <time>2020-01-19T16:13:04Z</time>
      </trkpt>
      <trkpt lat="-23.414269" lon="-45.511540">
        <ele>709.596</ele>
        <time>2020-01-19T16:13:07Z</time>
      </trkpt>
      <trkpt lat="-23.414309" lon="-45.511512">
        <ele>710.149</ele>
        <time>2020-01-19T16:13:09Z</time>
      </trkpt>
      <trkpt lat="-23.414349" lon="-45.511485">
        <ele>711.099</ele>
        <time>2020-01-19T16:13:12Z</time>
      </trkpt>
      <trkpt lat="-23.414379" lon="-45.511449">
        <ele>711.634</ele>
        <time>2020-01-19T16:13:15Z</time>
      </trkpt>
      <trkpt lat="-23.414415" lon="-45.511417">
        <ele>712.455</ele>
        <time>2020-01-19T16:13:19Z</time>
      </trkpt>
      <trkpt lat="-23.414452" lon="-45.511373">
        <ele>712.410</ele>
        <time>2020-01-19T16:13:24Z</time>
      </trkpt>
      <trkpt lat="-23.414479" lon="-45.511326">
        <ele>712.608</ele>
        <time>2020-01-19T16:13:28Z</time>
      </trkpt>
      <trkpt lat="-23.414516" lon="-45.511288">
        <ele>713.037</ele>
        <time>2020-01-19T16:13:31Z</time>
      </trkpt>
      <trkpt lat="-23.414568" lon="-45.511260">
        <ele>712.528</ele>
        <time>2020-01-19T16:13:35Z</time>
      </trkpt>
      <trkpt lat="-23.414616" lon="-45.511249">
        <ele>711.830</ele>
        <time>2020-01-19T16:13:38Z</time>
      </trkpt>
      <trkpt lat="-23.414662" lon="-45.511246">
        <ele>711.764</ele>
        <time>2020-01-19T16:13:41Z</time>
      </trkpt>
      <trkpt lat="-23.414713" lon="-45.511260">
        <ele>712.290</ele>
        <time>2020-01-19T16:13:43Z</time>
      </trkpt>
      <trkpt lat="-23.414756" lon="-45.511277">
        <ele>712.664</ele>
        <time>2020-01-19T16:13:46Z</time>
      </trkpt>
      <trkpt lat="-23.414801" lon="-45.511303">
        <ele>712.897</ele>
        <time>2020-01-19T16:13:49Z</time>
      </trkpt>
      <trkpt lat="-23.414856" lon="-45.511337">
        <ele>712.887</ele>
        <time>2020-01-19T16:13:52Z</time>
      </trkpt>
      <trkpt lat="-23.414912" lon="-45.511367">
        <ele>712.853</ele>
        <time>2020-01-19T16:13:54Z</time>
      </trkpt>
      <trkpt lat="-23.414970" lon="-45.511401">
        <ele>712.704</ele>
        <time>2020-01-19T16:13:56Z</time>
      </trkpt>
      <trkpt lat="-23.415023" lon="-45.511430">
        <ele>712.514</ele>
        <time>2020-01-19T16:13:57Z</time>
      </trkpt>
      <trkpt lat="-23.415099" lon="-45.511459">
        <ele>712.408</ele>
        <time>2020-01-19T16:14:00Z</time>
      </trkpt>
      <trkpt lat="-23.415143" lon="-45.511468">
        <ele>712.389</ele>
        <time>2020-01-19T16:14:01Z</time>
      </trkpt>
      <trkpt lat="-23.415208" lon="-45.511481">
        <ele>712.040</ele>
        <time>2020-01-19T16:14:02Z</time>
      </trkpt>
      <trkpt lat="-23.415266" lon="-45.511490">
        <ele>712.222</ele>
        <time>2020-01-19T16:14:04Z</time>
      </trkpt>
      <trkpt lat="-23.415324" lon="-45.511482">
        <ele>712.796</ele>
        <time>2020-01-19T16:14:05Z</time>
      </trkpt>
      <trkpt lat="-23.415375" lon="-45.511464">
        <ele>712.952</ele>
        <time>2020-01-19T16:14:07Z</time>
      </trkpt>
      <trkpt lat="-23.415426" lon="-45.511441">
        <ele>712.436</ele>
        <time>2020-01-19T16:14:09Z</time>
      </trkpt>
      <trkpt lat="-23.415476" lon="-45.511413">
        <ele>711.849</ele>
        <time>2020-01-19T16:14:10Z</time>
      </trkpt>
      <trkpt lat="-23.415531" lon="-45.511395">
        <ele>710.319</ele>
        <time>2020-01-19T16:14:12Z</time>
      </trkpt>
      <trkpt lat="-23.415589" lon="-45.511383">
        <ele>709.437</ele>
        <time>2020-01-19T16:14:13Z</time>
      </trkpt>
      <trkpt lat="-23.415666" lon="-45.511419">
        <ele>709.549</ele>
        <time>2020-01-19T16:14:15Z</time>
      </trkpt>
      <trkpt lat="-23.415722" lon="-45.511432">
        <ele>709.513</ele>
        <time>2020-01-19T16:14:16Z</time>
      </trkpt>
      <trkpt lat="-23.415778" lon="-45.511438">
        <ele>709.708</ele>
        <time>2020-01-19T16:14:17Z</time>
      </trkpt>
      <trkpt lat="-23.415827" lon="-45.511437">
        <ele>710.447</ele>
        <time>2020-01-19T16:14:18Z</time>
      </trkpt>
      <trkpt lat="-23.415880" lon="-45.511436">
        <ele>710.078</ele>
        <time>2020-01-19T16:14:19Z</time>
      </trkpt>
      <trkpt lat="-23.415929" lon="-45.511430">
        <ele>709.840</ele>
        <time>2020-01-19T16:14:20Z</time>
      </trkpt>
      <trkpt lat="-23.415975" lon="-45.511409">
        <ele>710.034</ele>
        <time>2020-01-19T16:14:21Z</time>
      </trkpt>
      <trkpt lat="-23.416035" lon="-45.511397">
        <ele>709.350</ele>
        <time>2020-01-19T16:14:23Z</time>
      </trkpt>
      <trkpt lat="-23.416082" lon="-45.511390">
        <ele>709.044</ele>
        <time>2020-01-19T16:14:24Z</time>
      </trkpt>
      <trkpt lat="-23.416132" lon="-45.511350">
        <ele>708.547</ele>
        <time>2020-01-19T16:14:26Z</time>
      </trkpt>
      <trkpt lat="-23.416184" lon="-45.511312">
        <ele>708.067</ele>
        <time>2020-01-19T16:14:27Z</time>
      </trkpt>
      <trkpt lat="-23.416263" lon="-45.511272">
        <ele>707.642</ele>
        <time>2020-01-19T16:14:29Z</time>
      </trkpt>
      <trkpt lat="-23.416310" lon="-45.511254">
        <ele>707.422</ele>
        <time>2020-01-19T16:14:31Z</time>
      </trkpt>
      <trkpt lat="-23.416354" lon="-45.511227">
        <ele>707.214</ele>
        <time>2020-01-19T16:14:32Z</time>
      </trkpt>
      <trkpt lat="-23.416416" lon="-45.511201">
        <ele>706.508</ele>
        <time>2020-01-19T16:14:33Z</time>
      </trkpt>
      <trkpt lat="-23.416465" lon="-45.511187">
        <ele>706.668</ele>
        <time>2020-01-19T16:14:35Z</time>
      </trkpt>
      <trkpt lat="-23.416513" lon="-45.511168">
        <ele>707.719</ele>
        <time>2020-01-19T16:14:39Z</time>
      </trkpt>
      <trkpt lat="-23.416555" lon="-45.511150">
        <ele>708.491</ele>
        <time>2020-01-19T16:14:42Z</time>
      </trkpt>
      <trkpt lat="-23.416597" lon="-45.511130">
        <ele>709.585</ele>
        <time>2020-01-19T16:14:44Z</time>
      </trkpt>
      <trkpt lat="-23.416648" lon="-45.511114">
        <ele>710.481</ele>
        <time>2020-01-19T16:14:47Z</time>
      </trkpt>
      <trkpt lat="-23.416696" lon="-45.511086">
        <ele>711.065</ele>
        <time>2020-01-19T16:14:51Z</time>
      </trkpt>
      <trkpt lat="-23.416743" lon="-45.511071">
        <ele>711.278</ele>
        <time>2020-01-19T16:14:54Z</time>
      </trkpt>
      <trkpt lat="-23.416795" lon="-45.511048">
        <ele>711.668</ele>
        <time>2020-01-19T16:14:57Z</time>
      </trkpt>
      <trkpt lat="-23.416837" lon="-45.511020">
        <ele>712.563</ele>
        <time>2020-01-19T16:15:00Z</time>
      </trkpt>
      <trkpt lat="-23.416882" lon="-45.511000">
        <ele>712.544</ele>
        <time>2020-01-19T16:15:04Z</time>
      </trkpt>
      <trkpt lat="-23.416919" lon="-45.510969">
        <ele>711.218</ele>
        <time>2020-01-19T16:15:07Z</time>
      </trkpt>
      <trkpt lat="-23.416972" lon="-45.510933">
        <ele>708.608</ele>
        <time>2020-01-19T16:15:11Z</time>
      </trkpt>
      <trkpt lat="-23.417023" lon="-45.510906">
        <ele>706.730</ele>
        <time>2020-01-19T16:15:14Z</time>
      </trkpt>
      <trkpt lat="-23.417052" lon="-45.510954">
        <ele>709.311</ele>
        <time>2020-01-19T16:16:09Z</time>
      </trkpt>
      <trkpt lat="-23.417062" lon="-45.511002">
        <ele>711.693</ele>
        <time>2020-01-19T16:16:12Z</time>
      </trkpt>
      <trkpt lat="-23.417051" lon="-45.511050">
        <ele>712.827</ele>
        <time>2020-01-19T16:16:16Z</time>
      </trkpt>
      <trkpt lat="-23.417061" lon="-45.510985">
        <ele>713.113</ele>
        <time>2020-01-19T16:17:48Z</time>
      </trkpt>
      <trkpt lat="-23.417057" lon="-45.510923">
        <ele>713.757</ele>
        <time>2020-01-19T16:17:51Z</time>
      </trkpt>
      <trkpt lat="-23.417045" lon="-45.510872">
        <ele>713.410</ele>
        <time>2020-01-19T16:17:58Z</time>
      </trkpt>
      <trkpt lat="-23.417059" lon="-45.510821">
        <ele>712.470</ele>
        <time>2020-01-19T16:18:04Z</time>
      </trkpt>
      <trkpt lat="-23.417079" lon="-45.510769">
        <ele>711.967</ele>
        <time>2020-01-19T16:18:09Z</time>
      </trkpt>
      <trkpt lat="-23.417103" lon="-45.510722">
        <ele>711.681</ele>
        <time>2020-01-19T16:18:13Z</time>
      </trkpt>
      <trkpt lat="-23.417121" lon="-45.510676">
        <ele>712.219</ele>
        <time>2020-01-19T16:18:17Z</time>
      </trkpt>
      <trkpt lat="-23.417147" lon="-45.510634">
        <ele>712.908</ele>
        <time>2020-01-19T16:18:20Z</time>
      </trkpt>
      <trkpt lat="-23.417165" lon="-45.510581">
        <ele>713.740</ele>
        <time>2020-01-19T16:18:24Z</time>
      </trkpt>
      <trkpt lat="-23.417181" lon="-45.510531">
        <ele>713.381</ele>
        <time>2020-01-19T16:18:28Z</time>
      </trkpt>
      <trkpt lat="-23.417197" lon="-45.510483">
        <ele>713.273</ele>
        <time>2020-01-19T16:18:32Z</time>
      </trkpt>
      <trkpt lat="-23.417214" lon="-45.510436">
        <ele>714.727</ele>
        <time>2020-01-19T16:18:36Z</time>
      </trkpt>
      <trkpt lat="-23.417240" lon="-45.510391">
        <ele>715.843</ele>
        <time>2020-01-19T16:18:41Z</time>
      </trkpt>
      <trkpt lat="-23.417258" lon="-45.510343">
        <ele>716.677</ele>
        <time>2020-01-19T16:18:46Z</time>
      </trkpt>
      <trkpt lat="-23.417276" lon="-45.510298">
        <ele>717.880</ele>
        <time>2020-01-19T16:18:51Z</time>
      </trkpt>
      <trkpt lat="-23.417292" lon="-45.510250">
        <ele>717.990</ele>
        <time>2020-01-19T16:18:56Z</time>
      </trkpt>
      <trkpt lat="-23.417320" lon="-45.510207">
        <ele>716.418</ele>
        <time>2020-01-19T16:19:01Z</time>
      </trkpt>
      <trkpt lat="-23.417348" lon="-45.510169">
        <ele>716.098</ele>
        <time>2020-01-19T16:19:06Z</time>
      </trkpt>
      <trkpt lat="-23.417369" lon="-45.510122">
        <ele>716.017</ele>
        <time>2020-01-19T16:19:11Z</time>
      </trkpt>
      <trkpt lat="-23.417391" lon="-45.510072">
        <ele>715.908</ele>
        <time>2020-01-19T16:19:16Z</time>
      </trkpt>
      <trkpt lat="-23.417416" lon="-45.510020">
        <ele>716.085</ele>
        <time>2020-01-19T16:19:23Z</time>
      </trkpt>
      <trkpt lat="-23.417437" lon="-45.509968">
        <ele>716.196</ele>
        <time>2020-01-19T16:19:29Z</time>
      </trkpt>
      <trkpt lat="-23.417457" lon="-45.509920">
        <ele>719.318</ele>
        <time>2020-01-19T16:19:34Z</time>
      </trkpt>
      <trkpt lat="-23.417462" lon="-45.509865">
        <ele>721.262</ele>
        <time>2020-01-19T16:19:40Z</time>
      </trkpt>
      <trkpt lat="-23.417487" lon="-45.509821">
        <ele>724.858</ele>
        <time>2020-01-19T16:19:47Z</time>
      </trkpt>
      <trkpt lat="-23.417500" lon="-45.509772">
        <ele>727.762</ele>
        <time>2020-01-19T16:19:52Z</time>
      </trkpt>
      <trkpt lat="-23.417501" lon="-45.509723">
        <ele>730.365</ele>
        <time>2020-01-19T16:19:56Z</time>
      </trkpt>
      <trkpt lat="-23.417499" lon="-45.509673">
        <ele>732.185</ele>
        <time>2020-01-19T16:20:01Z</time>
      </trkpt>
      <trkpt lat="-23.417496" lon="-45.509621">
        <ele>733.275</ele>
        <time>2020-01-19T16:20:06Z</time>
      </trkpt>
      <trkpt lat="-23.417492" lon="-45.509570">
        <ele>734.628</ele>
        <time>2020-01-19T16:20:12Z</time>
      </trkpt>
      <trkpt lat="-23.417485" lon="-45.509517">
        <ele>736.020</ele>
        <time>2020-01-19T16:20:18Z</time>
      </trkpt>
      <trkpt lat="-23.417499" lon="-45.509465">
        <ele>736.508</ele>
        <time>2020-01-19T16:20:22Z</time>
      </trkpt>
      <trkpt lat="-23.417514" lon="-45.509416">
        <ele>736.081</ele>
        <time>2020-01-19T16:20:27Z</time>
      </trkpt>
      <trkpt lat="-23.417532" lon="-45.509371">
        <ele>735.652</ele>
        <time>2020-01-19T16:20:31Z</time>
      </trkpt>
      <trkpt lat="-23.417558" lon="-45.509327">
        <ele>735.464</ele>
        <time>2020-01-19T16:20:36Z</time>
      </trkpt>
      <trkpt lat="-23.417576" lon="-45.509281">
        <ele>734.118</ele>
        <time>2020-01-19T16:20:42Z</time>
      </trkpt>
      <trkpt lat="-23.417597" lon="-45.509232">
        <ele>733.544</ele>
        <time>2020-01-19T16:20:47Z</time>
      </trkpt>
      <trkpt lat="-23.417623" lon="-45.509185">
        <ele>733.238</ele>
        <time>2020-01-19T16:20:52Z</time>
      </trkpt>
      <trkpt lat="-23.417640" lon="-45.509137">
        <ele>733.661</ele>
        <time>2020-01-19T16:20:56Z</time>
      </trkpt>
      <trkpt lat="-23.417644" lon="-45.509085">
        <ele>733.941</ele>
        <time>2020-01-19T16:21:00Z</time>
      </trkpt>
      <trkpt lat="-23.417650" lon="-45.509030">
        <ele>734.149</ele>
        <time>2020-01-19T16:21:03Z</time>
      </trkpt>
      <trkpt lat="-23.417631" lon="-45.508963">
        <ele>734.802</ele>
        <time>2020-01-19T16:21:05Z</time>
      </trkpt>
      <trkpt lat="-23.417607" lon="-45.508920">
        <ele>736.222</ele>
        <time>2020-01-19T16:21:07Z</time>
      </trkpt>
      <trkpt lat="-23.417585" lon="-45.508877">
        <ele>737.708</ele>
        <time>2020-01-19T16:21:09Z</time>
      </trkpt>
      <trkpt lat="-23.417554" lon="-45.508834">
        <ele>739.518</ele>
        <time>2020-01-19T16:21:15Z</time>
      </trkpt>
      <trkpt lat="-23.417514" lon="-45.508806">
        <ele>740.789</ele>
        <time>2020-01-19T16:21:18Z</time>
      </trkpt>
      <trkpt lat="-23.417466" lon="-45.508794">
        <ele>742.461</ele>
        <time>2020-01-19T16:21:21Z</time>
      </trkpt>
      <trkpt lat="-23.417407" lon="-45.508820">
        <ele>743.395</ele>
        <time>2020-01-19T16:21:22Z</time>
      </trkpt>
      <trkpt lat="-23.417360" lon="-45.508834">
        <ele>743.751</ele>
        <time>2020-01-19T16:21:26Z</time>
      </trkpt>
      <trkpt lat="-23.417309" lon="-45.508817">
        <ele>743.565</ele>
        <time>2020-01-19T16:21:31Z</time>
      </trkpt>
      <trkpt lat="-23.417267" lon="-45.508792">
        <ele>741.958</ele>
        <time>2020-01-19T16:21:36Z</time>
      </trkpt>
      <trkpt lat="-23.417227" lon="-45.508761">
        <ele>739.548</ele>
        <time>2020-01-19T16:21:40Z</time>
      </trkpt>
      <trkpt lat="-23.417205" lon="-45.508715">
        <ele>737.889</ele>
        <time>2020-01-19T16:21:44Z</time>
      </trkpt>
      <trkpt lat="-23.417192" lon="-45.508663">
        <ele>735.806</ele>
        <time>2020-01-19T16:21:48Z</time>
      </trkpt>
      <trkpt lat="-23.417171" lon="-45.508610">
        <ele>735.426</ele>
        <time>2020-01-19T16:21:52Z</time>
      </trkpt>
      <trkpt lat="-23.417158" lon="-45.508561">
        <ele>734.808</ele>
        <time>2020-01-19T16:21:56Z</time>
      </trkpt>
      <trkpt lat="-23.417148" lon="-45.508511">
        <ele>734.882</ele>
        <time>2020-01-19T16:22:01Z</time>
      </trkpt>
      <trkpt lat="-23.417136" lon="-45.508461">
        <ele>735.533</ele>
        <time>2020-01-19T16:22:06Z</time>
      </trkpt>
      <trkpt lat="-23.417120" lon="-45.508415">
        <ele>736.445</ele>
        <time>2020-01-19T16:22:13Z</time>
      </trkpt>
      <trkpt lat="-23.417107" lon="-45.508364">
        <ele>737.249</ele>
        <time>2020-01-19T16:22:18Z</time>
      </trkpt>
      <trkpt lat="-23.417088" lon="-45.508315">
        <ele>738.145</ele>
        <time>2020-01-19T16:22:22Z</time>
      </trkpt>
      <trkpt lat="-23.417078" lon="-45.508266">
        <ele>738.219</ele>
        <time>2020-01-19T16:22:28Z</time>
      </trkpt>
      <trkpt lat="-23.417070" lon="-45.508216">
        <ele>736.772</ele>
        <time>2020-01-19T16:22:32Z</time>
      </trkpt>
      <trkpt lat="-23.417057" lon="-45.508168">
        <ele>735.242</ele>
        <time>2020-01-19T16:22:38Z</time>
      </trkpt>
      <trkpt lat="-23.417041" lon="-45.508119">
        <ele>736.288</ele>
        <time>2020-01-19T16:22:44Z</time>
      </trkpt>
      <trkpt lat="-23.417034" lon="-45.508062">
        <ele>737.524</ele>
        <time>2020-01-19T16:22:49Z</time>
      </trkpt>
      <trkpt lat="-23.417035" lon="-45.508008">
        <ele>738.826</ele>
        <time>2020-01-19T16:22:54Z</time>
      </trkpt>
      <trkpt lat="-23.417039" lon="-45.507956">
        <ele>741.208</ele>
        <time>2020-01-19T16:22:58Z</time>
      </trkpt>
      <trkpt lat="-23.417031" lon="-45.507905">
        <ele>741.892</ele>
        <time>2020-01-19T16:23:02Z</time>
      </trkpt>
      <trkpt lat="-23.417011" lon="-45.507857">
        <ele>743.673</ele>
        <time>2020-01-19T16:23:06Z</time>
      </trkpt>
      <trkpt lat="-23.416992" lon="-45.507810">
        <ele>744.335</ele>
        <time>2020-01-19T16:23:10Z</time>
      </trkpt>
      <trkpt lat="-23.416967" lon="-45.507765">
        <ele>745.219</ele>
        <time>2020-01-19T16:23:15Z</time>
      </trkpt>
      <trkpt lat="-23.416938" lon="-45.507724">
        <ele>745.825</ele>
        <time>2020-01-19T16:23:20Z</time>
      </trkpt>
      <trkpt lat="-23.416902" lon="-45.507694">
        <ele>746.869</ele>
        <time>2020-01-19T16:23:24Z</time>
      </trkpt>
      <trkpt lat="-23.416860" lon="-45.507671">
        <ele>747.942</ele>
        <time>2020-01-19T16:23:28Z</time>
      </trkpt>
      <trkpt lat="-23.416815" lon="-45.507659">
        <ele>747.212</ele>
        <time>2020-01-19T16:23:32Z</time>
      </trkpt>
      <trkpt lat="-23.416763" lon="-45.507655">
        <ele>746.749</ele>
        <time>2020-01-19T16:23:37Z</time>
      </trkpt>
      <trkpt lat="-23.416713" lon="-45.507654">
        <ele>746.402</ele>
        <time>2020-01-19T16:23:43Z</time>
      </trkpt>
      <trkpt lat="-23.416667" lon="-45.507649">
        <ele>747.222</ele>
        <time>2020-01-19T16:23:47Z</time>
      </trkpt>
      <trkpt lat="-23.416622" lon="-45.507639">
        <ele>747.008</ele>
        <time>2020-01-19T16:23:52Z</time>
      </trkpt>
      <trkpt lat="-23.416577" lon="-45.507627">
        <ele>747.418</ele>
        <time>2020-01-19T16:23:58Z</time>
      </trkpt>
      <trkpt lat="-23.416533" lon="-45.507615">
        <ele>748.589</ele>
        <time>2020-01-19T16:24:02Z</time>
      </trkpt>
      <trkpt lat="-23.416486" lon="-45.507596">
        <ele>749.571</ele>
        <time>2020-01-19T16:24:07Z</time>
      </trkpt>
      <trkpt lat="-23.416437" lon="-45.507583">
        <ele>750.475</ele>
        <time>2020-01-19T16:24:11Z</time>
      </trkpt>
      <trkpt lat="-23.416390" lon="-45.507587">
        <ele>749.881</ele>
        <time>2020-01-19T16:24:16Z</time>
      </trkpt>
      <trkpt lat="-23.416341" lon="-45.507581">
        <ele>749.085</ele>
        <time>2020-01-19T16:24:21Z</time>
      </trkpt>
      <trkpt lat="-23.416293" lon="-45.507570">
        <ele>748.998</ele>
        <time>2020-01-19T16:24:26Z</time>
      </trkpt>
      <trkpt lat="-23.416247" lon="-45.507572">
        <ele>749.238</ele>
        <time>2020-01-19T16:24:32Z</time>
      </trkpt>
      <trkpt lat="-23.416201" lon="-45.507580">
        <ele>749.472</ele>
        <time>2020-01-19T16:24:37Z</time>
      </trkpt>
      <trkpt lat="-23.416154" lon="-45.507601">
        <ele>749.813</ele>
        <time>2020-01-19T16:24:42Z</time>
      </trkpt>
      <trkpt lat="-23.416115" lon="-45.507633">
        <ele>750.914</ele>
        <time>2020-01-19T16:24:47Z</time>
      </trkpt>
      <trkpt lat="-23.416074" lon="-45.507671">
        <ele>751.508</ele>
        <time>2020-01-19T16:24:52Z</time>
      </trkpt>
      <trkpt lat="-23.416039" lon="-45.507702">
        <ele>751.851</ele>
        <time>2020-01-19T16:24:56Z</time>
      </trkpt>
      <trkpt lat="-23.415999" lon="-45.507728">
        <ele>752.622</ele>
        <time>2020-01-19T16:25:00Z</time>
      </trkpt>
      <trkpt lat="-23.415955" lon="-45.507742">
        <ele>752.284</ele>
        <time>2020-01-19T16:25:04Z</time>
      </trkpt>
      <trkpt lat="-23.415909" lon="-45.507755">
        <ele>751.758</ele>
        <time>2020-01-19T16:25:09Z</time>
      </trkpt>
      <trkpt lat="-23.415861" lon="-45.507767">
        <ele>751.484</ele>
        <time>2020-01-19T16:25:13Z</time>
      </trkpt>
      <trkpt lat="-23.415810" lon="-45.507784">
        <ele>750.828</ele>
        <time>2020-01-19T16:25:18Z</time>
      </trkpt>
      <trkpt lat="-23.415763" lon="-45.507788">
        <ele>750.481</ele>
        <time>2020-01-19T16:25:22Z</time>
      </trkpt>
      <trkpt lat="-23.415711" lon="-45.507783">
        <ele>749.781</ele>
        <time>2020-01-19T16:25:26Z</time>
      </trkpt>
      <trkpt lat="-23.415665" lon="-45.507785">
        <ele>749.313</ele>
        <time>2020-01-19T16:25:31Z</time>
      </trkpt>
      <trkpt lat="-23.415619" lon="-45.507795">
        <ele>750.943</ele>
        <time>2020-01-19T16:25:36Z</time>
      </trkpt>
      <trkpt lat="-23.415581" lon="-45.507826">
        <ele>751.207</ele>
        <time>2020-01-19T16:25:40Z</time>
      </trkpt>
      <trkpt lat="-23.415538" lon="-45.507851">
        <ele>751.108</ele>
        <time>2020-01-19T16:25:46Z</time>
      </trkpt>
      <trkpt lat="-23.415493" lon="-45.507880">
        <ele>750.455</ele>
        <time>2020-01-19T16:25:52Z</time>
      </trkpt>
      <trkpt lat="-23.415449" lon="-45.507905">
        <ele>748.476</ele>
        <time>2020-01-19T16:25:58Z</time>
      </trkpt>
      <trkpt lat="-23.415409" lon="-45.507927">
        <ele>747.418</ele>
        <time>2020-01-19T16:26:03Z</time>
      </trkpt>
      <trkpt lat="-23.415365" lon="-45.507953">
        <ele>746.522</ele>
        <time>2020-01-19T16:26:06Z</time>
      </trkpt>
      <trkpt lat="-23.415323" lon="-45.507981">
        <ele>747.888</ele>
        <time>2020-01-19T16:26:11Z</time>
      </trkpt>
      <trkpt lat="-23.415276" lon="-45.508001">
        <ele>748.942</ele>
        <time>2020-01-19T16:26:15Z</time>
      </trkpt>
      <trkpt lat="-23.415239" lon="-45.508033">
        <ele>749.485</ele>
        <time>2020-01-19T16:26:19Z</time>
      </trkpt>
      <trkpt lat="-23.415198" lon="-45.508064">
        <ele>748.615</ele>
        <time>2020-01-19T16:26:25Z</time>
      </trkpt>
      <trkpt lat="-23.415152" lon="-45.508077">
        <ele>749.662</ele>
        <time>2020-01-19T16:26:29Z</time>
      </trkpt>
      <trkpt lat="-23.415107" lon="-45.508083">
        <ele>750.083</ele>
        <time>2020-01-19T16:26:34Z</time>
      </trkpt>
      <trkpt lat="-23.415061" lon="-45.508071">
        <ele>751.011</ele>
        <time>2020-01-19T16:26:40Z</time>
      </trkpt>
      <trkpt lat="-23.415015" lon="-45.508057">
        <ele>752.308</ele>
        <time>2020-01-19T16:26:46Z</time>
      </trkpt>
      <trkpt lat="-23.414969" lon="-45.508057">
        <ele>752.720</ele>
        <time>2020-01-19T16:26:55Z</time>
      </trkpt>
      <trkpt lat="-23.414929" lon="-45.508027">
        <ele>754.051</ele>
        <time>2020-01-19T16:27:02Z</time>
      </trkpt>
      <trkpt lat="-23.414888" lon="-45.507998">
        <ele>754.193</ele>
        <time>2020-01-19T16:27:08Z</time>
      </trkpt>
      <trkpt lat="-23.414851" lon="-45.507969">
        <ele>753.777</ele>
        <time>2020-01-19T16:27:13Z</time>
      </trkpt>
      <trkpt lat="-23.414816" lon="-45.507929">
        <ele>755.353</ele>
        <time>2020-01-19T16:27:20Z</time>
      </trkpt>
      <trkpt lat="-23.414775" lon="-45.507901">
        <ele>757.717</ele>
        <time>2020-01-19T16:27:27Z</time>
      </trkpt>
      <trkpt lat="-23.414722" lon="-45.507886">
        <ele>759.220</ele>
        <time>2020-01-19T16:27:33Z</time>
      </trkpt>
      <trkpt lat="-23.414671" lon="-45.507878">
        <ele>760.310</ele>
        <time>2020-01-19T16:27:37Z</time>
      </trkpt>
      <trkpt lat="-23.414624" lon="-45.507865">
        <ele>761.323</ele>
        <time>2020-01-19T16:27:42Z</time>
      </trkpt>
      <trkpt lat="-23.414579" lon="-45.507850">
        <ele>761.483</ele>
        <time>2020-01-19T16:27:47Z</time>
      </trkpt>
      <trkpt lat="-23.414535" lon="-45.507833">
        <ele>761.611</ele>
        <time>2020-01-19T16:27:52Z</time>
      </trkpt>
      <trkpt lat="-23.414487" lon="-45.507821">
        <ele>761.508</ele>
        <time>2020-01-19T16:27:56Z</time>
      </trkpt>
      <trkpt lat="-23.414444" lon="-45.507837">
        <ele>761.866</ele>
        <time>2020-01-19T16:28:01Z</time>
      </trkpt>
      <trkpt lat="-23.414398" lon="-45.507841">
        <ele>762.997</ele>
        <time>2020-01-19T16:28:07Z</time>
      </trkpt>
      <trkpt lat="-23.414352" lon="-45.507833">
        <ele>764.739</ele>
        <time>2020-01-19T16:28:12Z</time>
      </trkpt>
      <trkpt lat="-23.414304" lon="-45.507832">
        <ele>766.753</ele>
        <time>2020-01-19T16:28:18Z</time>
      </trkpt>
      <trkpt lat="-23.414258" lon="-45.507832">
        <ele>767.729</ele>
        <time>2020-01-19T16:28:23Z</time>
      </trkpt>
      <trkpt lat="-23.414212" lon="-45.507822">
        <ele>768.433</ele>
        <time>2020-01-19T16:28:28Z</time>
      </trkpt>
      <trkpt lat="-23.414164" lon="-45.507808">
        <ele>768.596</ele>
        <time>2020-01-19T16:28:32Z</time>
      </trkpt>
      <trkpt lat="-23.414134" lon="-45.507771">
        <ele>766.736</ele>
        <time>2020-01-19T16:28:37Z</time>
      </trkpt>
      <trkpt lat="-23.414106" lon="-45.507721">
        <ele>766.518</ele>
        <time>2020-01-19T16:28:43Z</time>
      </trkpt>
      <trkpt lat="-23.414075" lon="-45.507680">
        <ele>767.798</ele>
        <time>2020-01-19T16:28:47Z</time>
      </trkpt>
      <trkpt lat="-23.414044" lon="-45.507637">
        <ele>766.217</ele>
        <time>2020-01-19T16:28:52Z</time>
      </trkpt>
      <trkpt lat="-23.414023" lon="-45.507593">
        <ele>766.108</ele>
        <time>2020-01-19T16:28:57Z</time>
      </trkpt>
      <trkpt lat="-23.413995" lon="-45.507549">
        <ele>765.855</ele>
        <time>2020-01-19T16:29:02Z</time>
      </trkpt>
      <trkpt lat="-23.413978" lon="-45.507501">
        <ele>767.016</ele>
        <time>2020-01-19T16:29:07Z</time>
      </trkpt>
      <trkpt lat="-23.413957" lon="-45.507457">
        <ele>767.988</ele>
        <time>2020-01-19T16:29:13Z</time>
      </trkpt>
      <trkpt lat="-23.413923" lon="-45.507420">
        <ele>768.852</ele>
        <time>2020-01-19T16:29:17Z</time>
      </trkpt>
      <trkpt lat="-23.413882" lon="-45.507389">
        <ele>768.698</ele>
        <time>2020-01-19T16:29:22Z</time>
      </trkpt>
      <trkpt lat="-23.413853" lon="-45.507351">
        <ele>768.362</ele>
        <time>2020-01-19T16:29:25Z</time>
      </trkpt>
      <trkpt lat="-23.413821" lon="-45.507316">
        <ele>769.275</ele>
        <time>2020-01-19T16:29:30Z</time>
      </trkpt>
      <trkpt lat="-23.413786" lon="-45.507282">
        <ele>769.225</ele>
        <time>2020-01-19T16:29:34Z</time>
      </trkpt>
      <trkpt lat="-23.413762" lon="-45.507235">
        <ele>770.374</ele>
        <time>2020-01-19T16:29:41Z</time>
      </trkpt>
      <trkpt lat="-23.413736" lon="-45.507192">
        <ele>773.656</ele>
        <time>2020-01-19T16:29:48Z</time>
      </trkpt>
      <trkpt lat="-23.413692" lon="-45.507168">
        <ele>774.821</ele>
        <time>2020-01-19T16:29:54Z</time>
      </trkpt>
      <trkpt lat="-23.413656" lon="-45.507136">
        <ele>775.808</ele>
        <time>2020-01-19T16:30:00Z</time>
      </trkpt>
      <trkpt lat="-23.413615" lon="-45.507105">
        <ele>776.181</ele>
        <time>2020-01-19T16:30:05Z</time>
      </trkpt>
      <trkpt lat="-23.413579" lon="-45.507073">
        <ele>776.042</ele>
        <time>2020-01-19T16:30:09Z</time>
      </trkpt>
      <trkpt lat="-23.413536" lon="-45.507056">
        <ele>774.014</ele>
        <time>2020-01-19T16:32:14Z</time>
      </trkpt>
      <trkpt lat="-23.413506" lon="-45.507015">
        <ele>774.868</ele>
        <time>2020-01-19T16:32:20Z</time>
      </trkpt>
      <trkpt lat="-23.413468" lon="-45.506982">
        <ele>775.634</ele>
        <time>2020-01-19T16:32:26Z</time>
      </trkpt>
      <trkpt lat="-23.413427" lon="-45.506961">
        <ele>776.338</ele>
        <time>2020-01-19T16:32:30Z</time>
      </trkpt>
      <trkpt lat="-23.413385" lon="-45.506940">
        <ele>777.371</ele>
        <time>2020-01-19T16:32:34Z</time>
      </trkpt>
      <trkpt lat="-23.413338" lon="-45.506921">
        <ele>778.081</ele>
        <time>2020-01-19T16:32:39Z</time>
      </trkpt>
      <trkpt lat="-23.413294" lon="-45.506910">
        <ele>779.693</ele>
        <time>2020-01-19T16:32:45Z</time>
      </trkpt>
      <trkpt lat="-23.413249" lon="-45.506899">
        <ele>780.265</ele>
        <time>2020-01-19T16:32:52Z</time>
      </trkpt>
      <trkpt lat="-23.413197" lon="-45.506894">
        <ele>780.221</ele>
        <time>2020-01-19T16:33:00Z</time>
      </trkpt>
      <trkpt lat="-23.413144" lon="-45.506888">
        <ele>780.108</ele>
        <time>2020-01-19T16:33:06Z</time>
      </trkpt>
      <trkpt lat="-23.413099" lon="-45.506878">
        <ele>780.233</ele>
        <time>2020-01-19T16:33:11Z</time>
      </trkpt>
      <trkpt lat="-23.413052" lon="-45.506868">
        <ele>780.844</ele>
        <time>2020-01-19T16:33:17Z</time>
      </trkpt>
      <trkpt lat="-23.413008" lon="-45.506853">
        <ele>782.386</ele>
        <time>2020-01-19T16:33:34Z</time>
      </trkpt>
      <trkpt lat="-23.412966" lon="-45.506831">
        <ele>782.440</ele>
        <time>2020-01-19T16:33:41Z</time>
      </trkpt>
      <trkpt lat="-23.412920" lon="-45.506817">
        <ele>782.646</ele>
        <time>2020-01-19T16:33:48Z</time>
      </trkpt>
      <trkpt lat="-23.412875" lon="-45.506813">
        <ele>781.310</ele>
        <time>2020-01-19T16:33:55Z</time>
      </trkpt>
      <trkpt lat="-23.412826" lon="-45.506799">
        <ele>782.113</ele>
        <time>2020-01-19T16:34:03Z</time>
      </trkpt>
      <trkpt lat="-23.412779" lon="-45.506784">
        <ele>783.063</ele>
        <time>2020-01-19T16:34:09Z</time>
      </trkpt>
      <trkpt lat="-23.412732" lon="-45.506775">
        <ele>784.127</ele>
        <time>2020-01-19T16:34:15Z</time>
      </trkpt>
      <trkpt lat="-23.412688" lon="-45.506755">
        <ele>785.368</ele>
        <time>2020-01-19T16:34:21Z</time>
      </trkpt>
      <trkpt lat="-23.412644" lon="-45.506732">
        <ele>787.514</ele>
        <time>2020-01-19T16:34:27Z</time>
      </trkpt>
      <trkpt lat="-23.412604" lon="-45.506708">
        <ele>788.408</ele>
        <time>2020-01-19T16:34:31Z</time>
      </trkpt>
      <trkpt lat="-23.412559" lon="-45.506683">
        <ele>786.886</ele>
        <time>2020-01-19T16:34:36Z</time>
      </trkpt>
      <trkpt lat="-23.412517" lon="-45.506664">
        <ele>784.847</ele>
        <time>2020-01-19T16:34:42Z</time>
      </trkpt>
      <trkpt lat="-23.412472" lon="-45.506646">
        <ele>783.319</ele>
        <time>2020-01-19T16:34:48Z</time>
      </trkpt>
      <trkpt lat="-23.412430" lon="-45.506621">
        <ele>783.293</ele>
        <time>2020-01-19T16:34:54Z</time>
      </trkpt>
      <trkpt lat="-23.412392" lon="-45.506590">
        <ele>783.279</ele>
        <time>2020-01-19T16:35:01Z</time>
      </trkpt>
      <trkpt lat="-23.412354" lon="-45.506564">
        <ele>783.053</ele>
        <time>2020-01-19T16:35:06Z</time>
      </trkpt>
      <trkpt lat="-23.412317" lon="-45.506528">
        <ele>784.696</ele>
        <time>2020-01-19T16:35:11Z</time>
      </trkpt>
      <trkpt lat="-23.412290" lon="-45.506486">
        <ele>786.286</ele>
        <time>2020-01-19T16:35:15Z</time>
      </trkpt>
      <trkpt lat="-23.412279" lon="-45.506436">
        <ele>788.197</ele>
        <time>2020-01-19T16:35:20Z</time>
      </trkpt>
      <trkpt lat="-23.412268" lon="-45.506388">
        <ele>789.723</ele>
        <time>2020-01-19T16:35:25Z</time>
      </trkpt>
      <trkpt lat="-23.412259" lon="-45.506340">
        <ele>790.925</ele>
        <time>2020-01-19T16:35:30Z</time>
      </trkpt>
      <trkpt lat="-23.412253" lon="-45.506288">
        <ele>792.108</ele>
        <time>2020-01-19T16:35:38Z</time>
      </trkpt>
      <trkpt lat="-23.412241" lon="-45.506237">
        <ele>791.613</ele>
        <time>2020-01-19T16:35:43Z</time>
      </trkpt>
      <trkpt lat="-23.412227" lon="-45.506190">
        <ele>793.024</ele>
        <time>2020-01-19T16:35:49Z</time>
      </trkpt>
      <trkpt lat="-23.412204" lon="-45.506143">
        <ele>792.786</ele>
        <time>2020-01-19T16:35:56Z</time>
      </trkpt>
      <trkpt lat="-23.412168" lon="-45.506114">
        <ele>793.750</ele>
        <time>2020-01-19T16:36:02Z</time>
      </trkpt>
      <trkpt lat="-23.412134" lon="-45.506082">
        <ele>794.626</ele>
        <time>2020-01-19T16:36:10Z</time>
      </trkpt>
      <trkpt lat="-23.412179" lon="-45.506098">
        <ele>793.060</ele>
        <time>2020-01-19T16:36:45Z</time>
      </trkpt>
      <trkpt lat="-23.412149" lon="-45.506058">
        <ele>794.993</ele>
        <time>2020-01-19T16:38:11Z</time>
      </trkpt>
      <trkpt lat="-23.412217" lon="-45.506049">
        <ele>797.153</ele>
        <time>2020-01-19T16:38:19Z</time>
      </trkpt>
      <trkpt lat="-23.412275" lon="-45.506026">
        <ele>793.194</ele>
        <time>2020-01-19T16:38:21Z</time>
      </trkpt>
      <trkpt lat="-23.412340" lon="-45.505967">
        <ele>790.157</ele>
        <time>2020-01-19T16:38:22Z</time>
      </trkpt>
      <trkpt lat="-23.412413" lon="-45.505865">
        <ele>788.722</ele>
        <time>2020-01-19T16:38:24Z</time>
      </trkpt>
      <trkpt lat="-23.412460" lon="-45.505819">
        <ele>788.408</ele>
        <time>2020-01-19T16:38:25Z</time>
      </trkpt>
      <trkpt lat="-23.412516" lon="-45.505772">
        <ele>788.493</ele>
        <time>2020-01-19T16:38:26Z</time>
      </trkpt>
      <trkpt lat="-23.412572" lon="-45.505733">
        <ele>788.654</ele>
        <time>2020-01-19T16:38:27Z</time>
      </trkpt>
      <trkpt lat="-23.412622" lon="-45.505688">
        <ele>789.126</ele>
        <time>2020-01-19T16:38:28Z</time>
      </trkpt>
      <trkpt lat="-23.412665" lon="-45.505638">
        <ele>789.740</ele>
        <time>2020-01-19T16:38:29Z</time>
      </trkpt>
      <trkpt lat="-23.412711" lon="-45.505578">
        <ele>790.236</ele>
        <time>2020-01-19T16:38:30Z</time>
      </trkpt>
      <trkpt lat="-23.412758" lon="-45.505521">
        <ele>791.230</ele>
        <time>2020-01-19T16:38:31Z</time>
      </trkpt>
      <trkpt lat="-23.412805" lon="-45.505458">
        <ele>792.273</ele>
        <time>2020-01-19T16:38:32Z</time>
      </trkpt>
      <trkpt lat="-23.412846" lon="-45.505402">
        <ele>793.163</ele>
        <time>2020-01-19T16:38:33Z</time>
      </trkpt>
      <trkpt lat="-23.412887" lon="-45.505346">
        <ele>793.783</ele>
        <time>2020-01-19T16:38:34Z</time>
      </trkpt>
      <trkpt lat="-23.412924" lon="-45.505306">
        <ele>794.025</ele>
        <time>2020-01-19T16:38:35Z</time>
      </trkpt>
      <trkpt lat="-23.412966" lon="-45.505269">
        <ele>794.317</ele>
        <time>2020-01-19T16:38:36Z</time>
      </trkpt>
      <trkpt lat="-23.413013" lon="-45.505245">
        <ele>794.208</ele>
        <time>2020-01-19T16:38:37Z</time>
      </trkpt>
      <trkpt lat="-23.413061" lon="-45.505223">
        <ele>794.232</ele>
        <time>2020-01-19T16:38:38Z</time>
      </trkpt>
      <trkpt lat="-23.413108" lon="-45.505203">
        <ele>794.293</ele>
        <time>2020-01-19T16:38:39Z</time>
      </trkpt>
      <trkpt lat="-23.413143" lon="-45.505171">
        <ele>794.555</ele>
        <time>2020-01-19T16:38:40Z</time>
      </trkpt>
      <trkpt lat="-23.413171" lon="-45.505126">
        <ele>794.669</ele>
        <time>2020-01-19T16:38:41Z</time>
      </trkpt>
      <trkpt lat="-23.413195" lon="-45.505072">
        <ele>794.625</ele>
        <time>2020-01-19T16:38:42Z</time>
      </trkpt>
      <trkpt lat="-23.413213" lon="-45.505007">
        <ele>795.459</ele>
        <time>2020-01-19T16:38:43Z</time>
      </trkpt>
      <trkpt lat="-23.413229" lon="-45.504945">
        <ele>795.332</ele>
        <time>2020-01-19T16:38:44Z</time>
      </trkpt>
      <trkpt lat="-23.413245" lon="-45.504880">
        <ele>795.522</ele>
        <time>2020-01-19T16:38:45Z</time>
      </trkpt>
      <trkpt lat="-23.413241" lon="-45.504798">
        <ele>795.976</ele>
        <time>2020-01-19T16:38:46Z</time>
      </trkpt>
      <trkpt lat="-23.413212" lon="-45.504727">
        <ele>796.090</ele>
        <time>2020-01-19T16:38:47Z</time>
      </trkpt>
      <trkpt lat="-23.413171" lon="-45.504661">
        <ele>796.219</ele>
        <time>2020-01-19T16:38:48Z</time>
      </trkpt>
      <trkpt lat="-23.413133" lon="-45.504600">
        <ele>796.208</ele>
        <time>2020-01-19T16:38:49Z</time>
      </trkpt>
      <trkpt lat="-23.413087" lon="-45.504542">
        <ele>796.241</ele>
        <time>2020-01-19T16:38:50Z</time>
      </trkpt>
      <trkpt lat="-23.413047" lon="-45.504480">
        <ele>796.592</ele>
        <time>2020-01-19T16:38:51Z</time>
      </trkpt>
      <trkpt lat="-23.413002" lon="-45.504420">
        <ele>796.594</ele>
        <time>2020-01-19T16:38:52Z</time>
      </trkpt>
      <trkpt lat="-23.412950" lon="-45.504365">
        <ele>796.928</ele>
        <time>2020-01-19T16:38:53Z</time>
      </trkpt>
      <trkpt lat="-23.412895" lon="-45.504315">
        <ele>796.774</ele>
        <time>2020-01-19T16:38:54Z</time>
      </trkpt>
      <trkpt lat="-23.412840" lon="-45.504267">
        <ele>796.738</ele>
        <time>2020-01-19T16:38:55Z</time>
      </trkpt>
      <trkpt lat="-23.412787" lon="-45.504212">
        <ele>796.291</ele>
        <time>2020-01-19T16:38:56Z</time>
      </trkpt>
      <trkpt lat="-23.412734" lon="-45.504156">
        <ele>795.641</ele>
        <time>2020-01-19T16:38:57Z</time>
      </trkpt>
      <trkpt lat="-23.412690" lon="-45.504087">
        <ele>794.567</ele>
        <time>2020-01-19T16:38:58Z</time>
      </trkpt>
      <trkpt lat="-23.412650" lon="-45.504022">
        <ele>793.681</ele>
        <time>2020-01-19T16:38:59Z</time>
      </trkpt>
      <trkpt lat="-23.412615" lon="-45.503947">
        <ele>793.219</ele>
        <time>2020-01-19T16:39:00Z</time>
      </trkpt>
      <trkpt lat="-23.412588" lon="-45.503869">
        <ele>792.908</ele>
        <time>2020-01-19T16:39:01Z</time>
      </trkpt>
      <trkpt lat="-23.412570" lon="-45.503789">
        <ele>792.410</ele>
        <time>2020-01-19T16:39:02Z</time>
      </trkpt>
      <trkpt lat="-23.412560" lon="-45.503706">
        <ele>792.351</ele>
        <time>2020-01-19T16:39:03Z</time>
      </trkpt>
      <trkpt lat="-23.412555" lon="-45.503623">
        <ele>792.093</ele>
        <time>2020-01-19T16:39:04Z</time>
      </trkpt>
      <trkpt lat="-23.412558" lon="-45.503546">
        <ele>791.587</ele>
        <time>2020-01-19T16:39:05Z</time>
      </trkpt>
      <trkpt lat="-23.412572" lon="-45.503464">
        <ele>790.633</ele>
        <time>2020-01-19T16:39:06Z</time>
      </trkpt>
      <trkpt lat="-23.412596" lon="-45.503381">
        <ele>789.817</ele>
        <time>2020-01-19T16:39:07Z</time>
      </trkpt>
      <trkpt lat="-23.412625" lon="-45.503292">
        <ele>788.970</ele>
        <time>2020-01-19T16:39:08Z</time>
      </trkpt>
      <trkpt lat="-23.412659" lon="-45.503205">
        <ele>788.250</ele>
        <time>2020-01-19T16:39:09Z</time>
      </trkpt>
      <trkpt lat="-23.412690" lon="-45.503116">
        <ele>788.054</ele>
        <time>2020-01-19T16:39:10Z</time>
      </trkpt>
      <trkpt lat="-23.412724" lon="-45.503032">
        <ele>788.156</ele>
        <time>2020-01-19T16:39:11Z</time>
      </trkpt>
      <trkpt lat="-23.412757" lon="-45.502949">
        <ele>788.111</ele>
        <time>2020-01-19T16:39:12Z</time>
      </trkpt>
      <trkpt lat="-23.412791" lon="-45.502867">
        <ele>787.908</ele>
        <time>2020-01-19T16:39:13Z</time>
      </trkpt>
      <trkpt lat="-23.412828" lon="-45.502788">
        <ele>787.749</ele>
        <time>2020-01-19T16:39:14Z</time>
      </trkpt>
      <trkpt lat="-23.412865" lon="-45.502717">
        <ele>787.480</ele>
        <time>2020-01-19T16:39:15Z</time>
      </trkpt>
      <trkpt lat="-23.412900" lon="-45.502657">
        <ele>787.022</ele>
        <time>2020-01-19T16:39:16Z</time>
      </trkpt>
      <trkpt lat="-23.412929" lon="-45.502605">
        <ele>785.986</ele>
        <time>2020-01-19T16:39:17Z</time>
      </trkpt>
      <trkpt lat="-23.412930" lon="-45.502538">
        <ele>786.162</ele>
        <time>2020-01-19T16:39:19Z</time>
      </trkpt>
      <trkpt lat="-23.412907" lon="-45.502482">
        <ele>785.986</ele>
        <time>2020-01-19T16:39:21Z</time>
      </trkpt>
      <trkpt lat="-23.412884" lon="-45.502430">
        <ele>785.899</ele>
        <time>2020-01-19T16:39:23Z</time>
      </trkpt>
      <trkpt lat="-23.412850" lon="-45.502391">
        <ele>785.759</ele>
        <time>2020-01-19T16:39:25Z</time>
      </trkpt>
      <trkpt lat="-23.412811" lon="-45.502347">
        <ele>785.945</ele>
        <time>2020-01-19T16:39:29Z</time>
      </trkpt>
      <trkpt lat="-23.412775" lon="-45.502303">
        <ele>785.647</ele>
        <time>2020-01-19T16:39:31Z</time>
      </trkpt>
      <trkpt lat="-23.412744" lon="-45.502265">
        <ele>785.211</ele>
        <time>2020-01-19T16:39:32Z</time>
      </trkpt>
      <trkpt lat="-23.412696" lon="-45.502209">
        <ele>784.908</ele>
        <time>2020-01-19T16:39:35Z</time>
      </trkpt>
      <trkpt lat="-23.412672" lon="-45.502165">
        <ele>784.828</ele>
        <time>2020-01-19T16:39:37Z</time>
      </trkpt>
      <trkpt lat="-23.412654" lon="-45.502112">
        <ele>785.349</ele>
        <time>2020-01-19T16:39:39Z</time>
      </trkpt>
      <trkpt lat="-23.412630" lon="-45.502058">
        <ele>785.341</ele>
        <time>2020-01-19T16:39:45Z</time>
      </trkpt>
      <trkpt lat="-23.412611" lon="-45.502006">
        <ele>784.725</ele>
        <time>2020-01-19T16:39:49Z</time>
      </trkpt>
      <trkpt lat="-23.412597" lon="-45.501956">
        <ele>784.451</ele>
        <time>2020-01-19T16:39:53Z</time>
      </trkpt>
      <trkpt lat="-23.412587" lon="-45.501907">
        <ele>783.955</ele>
        <time>2020-01-19T16:39:58Z</time>
      </trkpt>
      <trkpt lat="-23.412573" lon="-45.501859">
        <ele>784.288</ele>
        <time>2020-01-19T16:40:02Z</time>
      </trkpt>
      <trkpt lat="-23.412560" lon="-45.501808">
        <ele>783.658</ele>
        <time>2020-01-19T16:40:07Z</time>
      </trkpt>
      <trkpt lat="-23.412553" lon="-45.501753">
        <ele>782.544</ele>
        <time>2020-01-19T16:40:12Z</time>
      </trkpt>
      <trkpt lat="-23.412540" lon="-45.501705">
        <ele>782.105</ele>
        <time>2020-01-19T16:40:17Z</time>
      </trkpt>
      <trkpt lat="-23.412522" lon="-45.501649">
        <ele>778.115</ele>
        <time>2020-01-19T16:40:22Z</time>
      </trkpt>
      <trkpt lat="-23.412494" lon="-45.501602">
        <ele>775.708</ele>
        <time>2020-01-19T16:40:27Z</time>
      </trkpt>
      <trkpt lat="-23.412452" lon="-45.501580">
        <ele>775.418</ele>
        <time>2020-01-19T16:40:50Z</time>
      </trkpt>
      <trkpt lat="-23.412446" lon="-45.501530">
        <ele>774.689</ele>
        <time>2020-01-19T16:41:01Z</time>
      </trkpt>
      <trkpt lat="-23.412439" lon="-45.501479">
        <ele>775.011</ele>
        <time>2020-01-19T16:41:08Z</time>
      </trkpt>
      <trkpt lat="-23.412418" lon="-45.501430">
        <ele>775.725</ele>
        <time>2020-01-19T16:41:14Z</time>
      </trkpt>
      <trkpt lat="-23.412397" lon="-45.501377">
        <ele>771.761</ele>
        <time>2020-01-19T16:41:19Z</time>
      </trkpt>
      <trkpt lat="-23.412379" lon="-45.501329">
        <ele>770.815</ele>
        <time>2020-01-19T16:41:24Z</time>
      </trkpt>
      <trkpt lat="-23.412353" lon="-45.501283">
        <ele>771.538</ele>
        <time>2020-01-19T16:41:29Z</time>
      </trkpt>
      <trkpt lat="-23.412326" lon="-45.501236">
        <ele>772.648</ele>
        <time>2020-01-19T16:41:35Z</time>
      </trkpt>
      <trkpt lat="-23.412304" lon="-45.501190">
        <ele>772.577</ele>
        <time>2020-01-19T16:41:40Z</time>
      </trkpt>
      <trkpt lat="-23.412287" lon="-45.501141">
        <ele>772.361</ele>
        <time>2020-01-19T16:41:44Z</time>
      </trkpt>
      <trkpt lat="-23.412269" lon="-45.501093">
        <ele>772.227</ele>
        <time>2020-01-19T16:41:49Z</time>
      </trkpt>
      <trkpt lat="-23.412249" lon="-45.501047">
        <ele>772.408</ele>
        <time>2020-01-19T16:41:54Z</time>
      </trkpt>
      <trkpt lat="-23.412219" lon="-45.501005">
        <ele>772.611</ele>
        <time>2020-01-19T16:42:00Z</time>
      </trkpt>
      <trkpt lat="-23.412191" lon="-45.500965">
        <ele>772.932</ele>
        <time>2020-01-19T16:42:05Z</time>
      </trkpt>
      <trkpt lat="-23.412157" lon="-45.500926">
        <ele>773.164</ele>
        <time>2020-01-19T16:42:10Z</time>
      </trkpt>
      <trkpt lat="-23.412123" lon="-45.500893">
        <ele>773.718</ele>
        <time>2020-01-19T16:42:15Z</time>
      </trkpt>
      <trkpt lat="-23.412087" lon="-45.500853">
        <ele>774.734</ele>
        <time>2020-01-19T16:42:20Z</time>
      </trkpt>
      <trkpt lat="-23.412056" lon="-45.500810">
        <ele>775.838</ele>
        <time>2020-01-19T16:42:25Z</time>
      </trkpt>
      <trkpt lat="-23.412030" lon="-45.500763">
        <ele>776.521</ele>
        <time>2020-01-19T16:42:30Z</time>
      </trkpt>
      <trkpt lat="-23.412017" lon="-45.500715">
        <ele>776.861</ele>
        <time>2020-01-19T16:42:35Z</time>
      </trkpt>
      <trkpt lat="-23.412004" lon="-45.500668">
        <ele>777.662</ele>
        <time>2020-01-19T16:42:41Z</time>
      </trkpt>
      <trkpt lat="-23.412008" lon="-45.500617">
        <ele>779.283</ele>
        <time>2020-01-19T16:42:46Z</time>
      </trkpt>
      <trkpt lat="-23.412034" lon="-45.500577">
        <ele>781.011</ele>
        <time>2020-01-19T16:42:52Z</time>
      </trkpt>
      <trkpt lat="-23.412067" lon="-45.500541">
        <ele>782.708</ele>
        <time>2020-01-19T16:42:57Z</time>
      </trkpt>
      <trkpt lat="-23.412103" lon="-45.500508">
        <ele>784.580</ele>
        <time>2020-01-19T16:43:04Z</time>
      </trkpt>
      <trkpt lat="-23.412142" lon="-45.500476">
        <ele>780.551</ele>
        <time>2020-01-19T16:43:11Z</time>
      </trkpt>
      <trkpt lat="-23.412171" lon="-45.500436">
        <ele>784.343</ele>
        <time>2020-01-19T16:43:23Z</time>
      </trkpt>
      <trkpt lat="-23.412222" lon="-45.500415">
        <ele>787.337</ele>
        <time>2020-01-19T16:43:27Z</time>
      </trkpt>
      <trkpt lat="-23.412276" lon="-45.500382">
        <ele>789.033</ele>
        <time>2020-01-19T16:43:30Z</time>
      </trkpt>
      <trkpt lat="-23.412350" lon="-45.500336">
        <ele>789.587</ele>
        <time>2020-01-19T16:43:31Z</time>
      </trkpt>
      <trkpt lat="-23.412388" lon="-45.500306">
        <ele>789.670</ele>
        <time>2020-01-19T16:43:33Z</time>
      </trkpt>
      <trkpt lat="-23.412434" lon="-45.500271">
        <ele>789.820</ele>
        <time>2020-01-19T16:43:35Z</time>
      </trkpt>
      <trkpt lat="-23.412488" lon="-45.500235">
        <ele>790.572</ele>
        <time>2020-01-19T16:43:38Z</time>
      </trkpt>
      <trkpt lat="-23.412533" lon="-45.500218">
        <ele>790.413</ele>
        <time>2020-01-19T16:43:39Z</time>
      </trkpt>
      <trkpt lat="-23.412591" lon="-45.500223">
        <ele>788.214</ele>
        <time>2020-01-19T16:43:41Z</time>
      </trkpt>
      <trkpt lat="-23.412668" lon="-45.500259">
        <ele>784.208</ele>
        <time>2020-01-19T16:43:43Z</time>
      </trkpt>
      <trkpt lat="-23.412778" lon="-45.500366">
        <ele>780.271</ele>
        <time>2020-01-19T16:43:45Z</time>
      </trkpt>
      <trkpt lat="-23.412822" lon="-45.500407">
        <ele>776.362</ele>
        <time>2020-01-19T16:43:46Z</time>
      </trkpt>
      <trkpt lat="-23.412865" lon="-45.500446">
        <ele>774.334</ele>
        <time>2020-01-19T16:43:47Z</time>
      </trkpt>
      <trkpt lat="-23.412908" lon="-45.500483">
        <ele>773.618</ele>
        <time>2020-01-19T16:43:48Z</time>
      </trkpt>
      <trkpt lat="-23.412948" lon="-45.500521">
        <ele>773.634</ele>
        <time>2020-01-19T16:43:49Z</time>
      </trkpt>
      <trkpt lat="-23.412979" lon="-45.500565">
        <ele>774.168</ele>
        <time>2020-01-19T16:43:50Z</time>
      </trkpt>
      <trkpt lat="-23.413005" lon="-45.500615">
        <ele>774.151</ele>
        <time>2020-01-19T16:43:51Z</time>
      </trkpt>
      <trkpt lat="-23.413025" lon="-45.500675">
        <ele>774.471</ele>
        <time>2020-01-19T16:43:52Z</time>
      </trkpt>
      <trkpt lat="-23.413046" lon="-45.500739">
        <ele>774.519</ele>
        <time>2020-01-19T16:43:53Z</time>
      </trkpt>
      <trkpt lat="-23.413062" lon="-45.500797">
        <ele>774.909</ele>
        <time>2020-01-19T16:43:54Z</time>
      </trkpt>
      <trkpt lat="-23.413082" lon="-45.500853">
        <ele>775.519</ele>
        <time>2020-01-19T16:43:55Z</time>
      </trkpt>
      <trkpt lat="-23.413108" lon="-45.500910">
        <ele>776.508</ele>
        <time>2020-01-19T16:43:56Z</time>
      </trkpt>
      <trkpt lat="-23.413144" lon="-45.500965">
        <ele>777.635</ele>
        <time>2020-01-19T16:43:57Z</time>
      </trkpt>
      <trkpt lat="-23.413184" lon="-45.501023">
        <ele>777.686</ele>
        <time>2020-01-19T16:43:58Z</time>
      </trkpt>
      <trkpt lat="-23.413230" lon="-45.501073">
        <ele>777.678</ele>
        <time>2020-01-19T16:43:59Z</time>
      </trkpt>
      <trkpt lat="-23.413279" lon="-45.501112">
        <ele>777.212</ele>
        <time>2020-01-19T16:44:00Z</time>
      </trkpt>
      <trkpt lat="-23.413326" lon="-45.501154">
        <ele>776.918</ele>
        <time>2020-01-19T16:44:01Z</time>
      </trkpt>
      <trkpt lat="-23.413366" lon="-45.501198">
        <ele>777.142</ele>
        <time>2020-01-19T16:44:02Z</time>
      </trkpt>
      <trkpt lat="-23.413403" lon="-45.501250">
        <ele>777.465</ele>
        <time>2020-01-19T16:44:03Z</time>
      </trkpt>
      <trkpt lat="-23.413432" lon="-45.501303">
        <ele>777.995</ele>
        <time>2020-01-19T16:44:04Z</time>
      </trkpt>
      <trkpt lat="-23.413456" lon="-45.501367">
        <ele>778.287</ele>
        <time>2020-01-19T16:44:05Z</time>
      </trkpt>
      <trkpt lat="-23.413473" lon="-45.501431">
        <ele>778.742</ele>
        <time>2020-01-19T16:44:06Z</time>
      </trkpt>
      <trkpt lat="-23.413490" lon="-45.501494">
        <ele>778.626</ele>
        <time>2020-01-19T16:44:07Z</time>
      </trkpt>
      <trkpt lat="-23.413510" lon="-45.501560">
        <ele>777.908</ele>
        <time>2020-01-19T16:44:08Z</time>
      </trkpt>
      <trkpt lat="-23.413530" lon="-45.501622">
        <ele>777.462</ele>
        <time>2020-01-19T16:44:09Z</time>
      </trkpt>
      <trkpt lat="-23.413548" lon="-45.501686">
        <ele>777.323</ele>
        <time>2020-01-19T16:44:10Z</time>
      </trkpt>
      <trkpt lat="-23.413565" lon="-45.501743">
        <ele>777.135</ele>
        <time>2020-01-19T16:44:11Z</time>
      </trkpt>
      <trkpt lat="-23.413581" lon="-45.501795">
        <ele>776.849</ele>
        <time>2020-01-19T16:44:12Z</time>
      </trkpt>
      <trkpt lat="-23.413603" lon="-45.501845">
        <ele>776.595</ele>
        <time>2020-01-19T16:44:13Z</time>
      </trkpt>
      <trkpt lat="-23.413632" lon="-45.501894">
        <ele>776.889</ele>
        <time>2020-01-19T16:44:14Z</time>
      </trkpt>
      <trkpt lat="-23.413671" lon="-45.501937">
        <ele>776.942</ele>
        <time>2020-01-19T16:44:15Z</time>
      </trkpt>
      <trkpt lat="-23.413722" lon="-45.501976">
        <ele>776.582</ele>
        <time>2020-01-19T16:44:16Z</time>
      </trkpt>
      <trkpt lat="-23.413777" lon="-45.502015">
        <ele>775.522</ele>
        <time>2020-01-19T16:44:17Z</time>
      </trkpt>
      <trkpt lat="-23.413836" lon="-45.502046">
        <ele>774.562</ele>
        <time>2020-01-19T16:44:18Z</time>
      </trkpt>
      <trkpt lat="-23.413898" lon="-45.502063">
        <ele>773.808</ele>
        <time>2020-01-19T16:44:19Z</time>
      </trkpt>
      <trkpt lat="-23.413964" lon="-45.502070">
        <ele>773.608</ele>
        <time>2020-01-19T16:44:20Z</time>
      </trkpt>
      <trkpt lat="-23.414033" lon="-45.502059">
        <ele>773.496</ele>
        <time>2020-01-19T16:44:21Z</time>
      </trkpt>
      <trkpt lat="-23.414095" lon="-45.502050">
        <ele>772.847</ele>
        <time>2020-01-19T16:44:22Z</time>
      </trkpt>
      <trkpt lat="-23.414149" lon="-45.502048">
        <ele>772.719</ele>
        <time>2020-01-19T16:44:23Z</time>
      </trkpt>
      <trkpt lat="-23.414201" lon="-45.502050">
        <ele>773.383</ele>
        <time>2020-01-19T16:44:24Z</time>
      </trkpt>
      <trkpt lat="-23.414258" lon="-45.502072">
        <ele>773.669</ele>
        <time>2020-01-19T16:44:25Z</time>
      </trkpt>
      <trkpt lat="-23.414312" lon="-45.502109">
        <ele>773.013</ele>
        <time>2020-01-19T16:44:26Z</time>
      </trkpt>
      <trkpt lat="-23.414359" lon="-45.502151">
        <ele>772.626</ele>
        <time>2020-01-19T16:44:27Z</time>
      </trkpt>
      <trkpt lat="-23.414414" lon="-45.502192">
        <ele>772.036</ele>
        <time>2020-01-19T16:44:28Z</time>
      </trkpt>
      <trkpt lat="-23.414471" lon="-45.502235">
        <ele>771.047</ele>
        <time>2020-01-19T16:44:29Z</time>
      </trkpt>
      <trkpt lat="-23.414536" lon="-45.502270">
        <ele>770.429</ele>
        <time>2020-01-19T16:44:30Z</time>
      </trkpt>
      <trkpt lat="-23.414604" lon="-45.502297">
        <ele>769.721</ele>
        <time>2020-01-19T16:44:31Z</time>
      </trkpt>
      <trkpt lat="-23.414675" lon="-45.502322">
        <ele>769.208</ele>
        <time>2020-01-19T16:44:32Z</time>
      </trkpt>
      <trkpt lat="-23.414753" lon="-45.502344">
        <ele>766.728</ele>
        <time>2020-01-19T16:44:33Z</time>
      </trkpt>
      <trkpt lat="-23.414830" lon="-45.502361">
        <ele>764.359</ele>
        <time>2020-01-19T16:44:34Z</time>
      </trkpt>
      <trkpt lat="-23.414899" lon="-45.502373">
        <ele>764.111</ele>
        <time>2020-01-19T16:44:35Z</time>
      </trkpt>
      <trkpt lat="-23.414969" lon="-45.502379">
        <ele>764.715</ele>
        <time>2020-01-19T16:44:36Z</time>
      </trkpt>
      <trkpt lat="-23.415039" lon="-45.502375">
        <ele>765.061</ele>
        <time>2020-01-19T16:44:37Z</time>
      </trkpt>
      <trkpt lat="-23.415108" lon="-45.502361">
        <ele>765.185</ele>
        <time>2020-01-19T16:44:38Z</time>
      </trkpt>
      <trkpt lat="-23.415177" lon="-45.502333">
        <ele>765.218</ele>
        <time>2020-01-19T16:44:39Z</time>
      </trkpt>
      <trkpt lat="-23.415239" lon="-45.502302">
        <ele>765.368</ele>
        <time>2020-01-19T16:44:40Z</time>
      </trkpt>
      <trkpt lat="-23.415293" lon="-45.502271">
        <ele>765.418</ele>
        <time>2020-01-19T16:44:41Z</time>
      </trkpt>
      <trkpt lat="-23.415335" lon="-45.502252">
        <ele>765.698</ele>
        <time>2020-01-19T16:44:42Z</time>
      </trkpt>
      <trkpt lat="-23.415407" lon="-45.502263">
        <ele>765.617</ele>
        <time>2020-01-19T16:44:44Z</time>
      </trkpt>
      <trkpt lat="-23.415446" lon="-45.502297">
        <ele>764.708</ele>
        <time>2020-01-19T16:44:45Z</time>
      </trkpt>
      <trkpt lat="-23.415478" lon="-45.502341">
        <ele>764.035</ele>
        <time>2020-01-19T16:44:46Z</time>
      </trkpt>
      <trkpt lat="-23.415494" lon="-45.502388">
        <ele>764.176</ele>
        <time>2020-01-19T16:44:47Z</time>
      </trkpt>
      <trkpt lat="-23.415510" lon="-45.502438">
        <ele>764.218</ele>
        <time>2020-01-19T16:44:48Z</time>
      </trkpt>
      <trkpt lat="-23.415542" lon="-45.502476">
        <ele>763.532</ele>
        <time>2020-01-19T16:44:49Z</time>
      </trkpt>
      <trkpt lat="-23.415583" lon="-45.502501">
        <ele>763.748</ele>
        <time>2020-01-19T16:44:50Z</time>
      </trkpt>
      <trkpt lat="-23.415631" lon="-45.502515">
        <ele>764.022</ele>
        <time>2020-01-19T16:44:51Z</time>
      </trkpt>
      <trkpt lat="-23.415682" lon="-45.502511">
        <ele>765.035</ele>
        <time>2020-01-19T16:44:52Z</time>
      </trkpt>
      <trkpt lat="-23.415729" lon="-45.502482">
        <ele>765.275</ele>
        <time>2020-01-19T16:44:53Z</time>
      </trkpt>
      <trkpt lat="-23.415771" lon="-45.502446">
        <ele>764.955</ele>
        <time>2020-01-19T16:44:54Z</time>
      </trkpt>
      <trkpt lat="-23.415809" lon="-45.502397">
        <ele>764.507</ele>
        <time>2020-01-19T16:44:55Z</time>
      </trkpt>
      <trkpt lat="-23.415844" lon="-45.502340">
        <ele>764.117</ele>
        <time>2020-01-19T16:44:56Z</time>
      </trkpt>
      <trkpt lat="-23.415873" lon="-45.502271">
        <ele>764.108</ele>
        <time>2020-01-19T16:44:57Z</time>
      </trkpt>
      <trkpt lat="-23.415891" lon="-45.502199">
        <ele>764.139</ele>
        <time>2020-01-19T16:44:58Z</time>
      </trkpt>
      <trkpt lat="-23.415896" lon="-45.502129">
        <ele>764.070</ele>
        <time>2020-01-19T16:44:59Z</time>
      </trkpt>
      <trkpt lat="-23.415882" lon="-45.502065">
        <ele>764.142</ele>
        <time>2020-01-19T16:45:00Z</time>
      </trkpt>
      <trkpt lat="-23.415866" lon="-45.502009">
        <ele>763.986</ele>
        <time>2020-01-19T16:45:01Z</time>
      </trkpt>
      <trkpt lat="-23.415855" lon="-45.501961">
        <ele>763.442</ele>
        <time>2020-01-19T16:45:02Z</time>
      </trkpt>
      <trkpt lat="-23.415855" lon="-45.501874">
        <ele>762.676</ele>
        <time>2020-01-19T16:45:04Z</time>
      </trkpt>
      <trkpt lat="-23.415912" lon="-45.501809">
        <ele>762.299</ele>
        <time>2020-01-19T16:45:06Z</time>
      </trkpt>
      <trkpt lat="-23.416002" lon="-45.501797">
        <ele>759.779</ele>
        <time>2020-01-19T16:45:08Z</time>
      </trkpt>
      <trkpt lat="-23.416050" lon="-45.501827">
        <ele>757.786</ele>
        <time>2020-01-19T16:45:09Z</time>
      </trkpt>
      <trkpt lat="-23.416092" lon="-45.501865">
        <ele>756.960</ele>
        <time>2020-01-19T16:45:10Z</time>
      </trkpt>
      <trkpt lat="-23.416139" lon="-45.501908">
        <ele>756.326</ele>
        <time>2020-01-19T16:45:11Z</time>
      </trkpt>
      <trkpt lat="-23.416186" lon="-45.501939">
        <ele>755.108</ele>
        <time>2020-01-19T16:45:12Z</time>
      </trkpt>
      <trkpt lat="-23.416241" lon="-45.501959">
        <ele>754.422</ele>
        <time>2020-01-19T16:45:13Z</time>
      </trkpt>
      <trkpt lat="-23.416298" lon="-45.501958">
        <ele>754.023</ele>
        <time>2020-01-19T16:45:14Z</time>
      </trkpt>
      <trkpt lat="-23.416358" lon="-45.501940">
        <ele>753.885</ele>
        <time>2020-01-19T16:45:15Z</time>
      </trkpt>
      <trkpt lat="-23.416422" lon="-45.501915">
        <ele>753.879</ele>
        <time>2020-01-19T16:45:16Z</time>
      </trkpt>
      <trkpt lat="-23.416485" lon="-45.501883">
        <ele>754.045</ele>
        <time>2020-01-19T16:45:17Z</time>
      </trkpt>
      <trkpt lat="-23.416533" lon="-45.501838">
        <ele>754.339</ele>
        <time>2020-01-19T16:45:18Z</time>
      </trkpt>
      <trkpt lat="-23.416569" lon="-45.501784">
        <ele>754.262</ele>
        <time>2020-01-19T16:45:19Z</time>
      </trkpt>
      <trkpt lat="-23.416585" lon="-45.501721">
        <ele>754.542</ele>
        <time>2020-01-19T16:45:20Z</time>
      </trkpt>
      <trkpt lat="-23.416577" lon="-45.501624">
        <ele>752.949</ele>
        <time>2020-01-19T16:45:22Z</time>
      </trkpt>
      <trkpt lat="-23.416551" lon="-45.501575">
        <ele>752.002</ele>
        <time>2020-01-19T16:45:23Z</time>
      </trkpt>
      <trkpt lat="-23.416522" lon="-45.501526">
        <ele>751.522</ele>
        <time>2020-01-19T16:45:24Z</time>
      </trkpt>
      <trkpt lat="-23.416496" lon="-45.501474">
        <ele>751.008</ele>
        <time>2020-01-19T16:45:25Z</time>
      </trkpt>
      <trkpt lat="-23.416473" lon="-45.501420">
        <ele>751.498</ele>
        <time>2020-01-19T16:45:26Z</time>
      </trkpt>
      <trkpt lat="-23.416437" lon="-45.501372">
        <ele>750.859</ele>
        <time>2020-01-19T16:45:27Z</time>
      </trkpt>
      <trkpt lat="-23.416413" lon="-45.501323">
        <ele>749.471</ele>
        <time>2020-01-19T16:45:28Z</time>
      </trkpt>
      <trkpt lat="-23.416383" lon="-45.501241">
        <ele>747.715</ele>
        <time>2020-01-19T16:45:30Z</time>
      </trkpt>
      <trkpt lat="-23.416369" lon="-45.501188">
        <ele>746.451</ele>
        <time>2020-01-19T16:45:31Z</time>
      </trkpt>
      <trkpt lat="-23.416360" lon="-45.501121">
        <ele>745.975</ele>
        <time>2020-01-19T16:45:32Z</time>
      </trkpt>
      <trkpt lat="-23.416349" lon="-45.501052">
        <ele>746.188</ele>
        <time>2020-01-19T16:45:33Z</time>
      </trkpt>
      <trkpt lat="-23.416338" lon="-45.500987">
        <ele>745.548</ele>
        <time>2020-01-19T16:45:34Z</time>
      </trkpt>
      <trkpt lat="-23.416322" lon="-45.500920">
        <ele>749.552</ele>
        <time>2020-01-19T16:45:35Z</time>
      </trkpt>
      <trkpt lat="-23.416299" lon="-45.500849">
        <ele>753.553</ele>
        <time>2020-01-19T16:45:36Z</time>
      </trkpt>
      <trkpt lat="-23.416270" lon="-45.500780">
        <ele>757.508</ele>
        <time>2020-01-19T16:45:37Z</time>
      </trkpt>
      <trkpt lat="-23.416241" lon="-45.500707">
        <ele>759.208</ele>
        <time>2020-01-19T16:45:38Z</time>
      </trkpt>
      <trkpt lat="-23.416221" lon="-45.500626">
        <ele>758.579</ele>
        <time>2020-01-19T16:45:39Z</time>
      </trkpt>
      <trkpt lat="-23.416196" lon="-45.500548">
        <ele>756.110</ele>
        <time>2020-01-19T16:45:40Z</time>
      </trkpt>
      <trkpt lat="-23.416175" lon="-45.500474">
        <ele>753.452</ele>
        <time>2020-01-19T16:45:41Z</time>
      </trkpt>
      <trkpt lat="-23.416159" lon="-45.500402">
        <ele>751.036</ele>
        <time>2020-01-19T16:45:42Z</time>
      </trkpt>
      <trkpt lat="-23.416149" lon="-45.500324">
        <ele>749.712</ele>
        <time>2020-01-19T16:45:43Z</time>
      </trkpt>
      <trkpt lat="-23.416152" lon="-45.500247">
        <ele>748.526</ele>
        <time>2020-01-19T16:45:44Z</time>
      </trkpt>
      <trkpt lat="-23.416164" lon="-45.500169">
        <ele>747.769</ele>
        <time>2020-01-19T16:45:45Z</time>
      </trkpt>
      <trkpt lat="-23.416179" lon="-45.500092">
        <ele>747.649</ele>
        <time>2020-01-19T16:45:46Z</time>
      </trkpt>
      <trkpt lat="-23.416198" lon="-45.500016">
        <ele>747.131</ele>
        <time>2020-01-19T16:45:47Z</time>
      </trkpt>
      <trkpt lat="-23.416229" lon="-45.499953">
        <ele>746.361</ele>
        <time>2020-01-19T16:45:48Z</time>
      </trkpt>
      <trkpt lat="-23.416270" lon="-45.499889">
        <ele>745.807</ele>
        <time>2020-01-19T16:45:49Z</time>
      </trkpt>
      <trkpt lat="-23.416319" lon="-45.499831">
        <ele>744.908</ele>
        <time>2020-01-19T16:45:50Z</time>
      </trkpt>
      <trkpt lat="-23.416376" lon="-45.499780">
        <ele>743.967</ele>
        <time>2020-01-19T16:45:51Z</time>
      </trkpt>
      <trkpt lat="-23.416437" lon="-45.499737">
        <ele>743.268</ele>
        <time>2020-01-19T16:45:52Z</time>
      </trkpt>
      <trkpt lat="-23.416501" lon="-45.499693">
        <ele>742.660</ele>
        <time>2020-01-19T16:45:53Z</time>
      </trkpt>
      <trkpt lat="-23.416566" lon="-45.499655">
        <ele>742.274</ele>
        <time>2020-01-19T16:45:54Z</time>
      </trkpt>
      <trkpt lat="-23.416634" lon="-45.499631">
        <ele>741.830</ele>
        <time>2020-01-19T16:45:55Z</time>
      </trkpt>
      <trkpt lat="-23.416704" lon="-45.499623">
        <ele>741.474</ele>
        <time>2020-01-19T16:45:56Z</time>
      </trkpt>
      <trkpt lat="-23.416778" lon="-45.499630">
        <ele>741.587</ele>
        <time>2020-01-19T16:45:57Z</time>
      </trkpt>
      <trkpt lat="-23.416846" lon="-45.499660">
        <ele>741.057</ele>
        <time>2020-01-19T16:45:58Z</time>
      </trkpt>
      <trkpt lat="-23.416904" lon="-45.499701">
        <ele>740.459</ele>
        <time>2020-01-19T16:45:59Z</time>
      </trkpt>
      <trkpt lat="-23.416959" lon="-45.499744">
        <ele>740.303</ele>
        <time>2020-01-19T16:46:00Z</time>
      </trkpt>
      <trkpt lat="-23.417006" lon="-45.499796">
        <ele>740.223</ele>
        <time>2020-01-19T16:46:01Z</time>
      </trkpt>
      <trkpt lat="-23.417033" lon="-45.499849">
        <ele>740.408</ele>
        <time>2020-01-19T16:46:02Z</time>
      </trkpt>
      <trkpt lat="-23.417051" lon="-45.499912">
        <ele>740.269</ele>
        <time>2020-01-19T16:46:03Z</time>
      </trkpt>
      <trkpt lat="-23.417056" lon="-45.499975">
        <ele>740.050</ele>
        <time>2020-01-19T16:46:04Z</time>
      </trkpt>
      <trkpt lat="-23.417055" lon="-45.500039">
        <ele>738.952</ele>
        <time>2020-01-19T16:46:05Z</time>
      </trkpt>
      <trkpt lat="-23.417054" lon="-45.500114">
        <ele>737.216</ele>
        <time>2020-01-19T16:46:06Z</time>
      </trkpt>
      <trkpt lat="-23.417057" lon="-45.500195">
        <ele>735.092</ele>
        <time>2020-01-19T16:46:07Z</time>
      </trkpt>
      <trkpt lat="-23.417068" lon="-45.500265">
        <ele>733.656</ele>
        <time>2020-01-19T16:46:08Z</time>
      </trkpt>
      <trkpt lat="-23.417086" lon="-45.500333">
        <ele>732.859</ele>
        <time>2020-01-19T16:46:09Z</time>
      </trkpt>
      <trkpt lat="-23.417113" lon="-45.500399">
        <ele>732.319</ele>
        <time>2020-01-19T16:46:10Z</time>
      </trkpt>
      <trkpt lat="-23.417147" lon="-45.500471">
        <ele>731.337</ele>
        <time>2020-01-19T16:46:11Z</time>
      </trkpt>
      <trkpt lat="-23.417186" lon="-45.500539">
        <ele>730.849</ele>
        <time>2020-01-19T16:46:12Z</time>
      </trkpt>
      <trkpt lat="-23.417231" lon="-45.500595">
        <ele>730.613</ele>
        <time>2020-01-19T16:46:13Z</time>
      </trkpt>
      <trkpt lat="-23.417280" lon="-45.500639">
        <ele>730.608</ele>
        <time>2020-01-19T16:46:14Z</time>
      </trkpt>
      <trkpt lat="-23.417338" lon="-45.500665">
        <ele>730.077</ele>
        <time>2020-01-19T16:46:15Z</time>
      </trkpt>
      <trkpt lat="-23.417398" lon="-45.500674">
        <ele>730.158</ele>
        <time>2020-01-19T16:46:16Z</time>
      </trkpt>
      <trkpt lat="-23.417459" lon="-45.500683">
        <ele>729.920</ele>
        <time>2020-01-19T16:46:17Z</time>
      </trkpt>
      <trkpt lat="-23.417517" lon="-45.500692">
        <ele>729.414</ele>
        <time>2020-01-19T16:46:18Z</time>
      </trkpt>
      <trkpt lat="-23.417568" lon="-45.500702">
        <ele>729.050</ele>
        <time>2020-01-19T16:46:19Z</time>
      </trkpt>
      <trkpt lat="-23.417617" lon="-45.500697">
        <ele>728.514</ele>
        <time>2020-01-19T16:46:20Z</time>
      </trkpt>
      <trkpt lat="-23.417669" lon="-45.500674">
        <ele>728.027</ele>
        <time>2020-01-19T16:46:21Z</time>
      </trkpt>
      <trkpt lat="-23.417719" lon="-45.500630">
        <ele>727.827</ele>
        <time>2020-01-19T16:46:22Z</time>
      </trkpt>
      <trkpt lat="-23.417753" lon="-45.500573">
        <ele>727.098</ele>
        <time>2020-01-19T16:46:23Z</time>
      </trkpt>
      <trkpt lat="-23.417774" lon="-45.500508">
        <ele>726.415</ele>
        <time>2020-01-19T16:46:24Z</time>
      </trkpt>
      <trkpt lat="-23.417797" lon="-45.500441">
        <ele>726.026</ele>
        <time>2020-01-19T16:46:25Z</time>
      </trkpt>
      <trkpt lat="-23.417818" lon="-45.500365">
        <ele>726.408</ele>
        <time>2020-01-19T16:46:26Z</time>
      </trkpt>
      <trkpt lat="-23.417830" lon="-45.500296">
        <ele>726.063</ele>
        <time>2020-01-19T16:46:27Z</time>
      </trkpt>
      <trkpt lat="-23.417845" lon="-45.500221">
        <ele>725.864</ele>
        <time>2020-01-19T16:46:28Z</time>
      </trkpt>
      <trkpt lat="-23.417854" lon="-45.500140">
        <ele>726.296</ele>
        <time>2020-01-19T16:46:29Z</time>
      </trkpt>
      <trkpt lat="-23.417851" lon="-45.500060">
        <ele>727.340</ele>
        <time>2020-01-19T16:46:30Z</time>
      </trkpt>
      <trkpt lat="-23.417847" lon="-45.499988">
        <ele>728.586</ele>
        <time>2020-01-19T16:46:31Z</time>
      </trkpt>
      <trkpt lat="-23.417850" lon="-45.499927">
        <ele>729.450</ele>
        <time>2020-01-19T16:46:32Z</time>
      </trkpt>
      <trkpt lat="-23.417862" lon="-45.499875">
        <ele>729.713</ele>
        <time>2020-01-19T16:46:33Z</time>
      </trkpt>
      <trkpt lat="-23.417892" lon="-45.499830">
        <ele>730.263</ele>
        <time>2020-01-19T16:46:34Z</time>
      </trkpt>
      <trkpt lat="-23.417936" lon="-45.499796">
        <ele>730.556</ele>
        <time>2020-01-19T16:46:35Z</time>
      </trkpt>
      <trkpt lat="-23.417987" lon="-45.499764">
        <ele>730.359</ele>
        <time>2020-01-19T16:46:36Z</time>
      </trkpt>
      <trkpt lat="-23.418043" lon="-45.499726">
        <ele>729.814</ele>
        <time>2020-01-19T16:46:37Z</time>
      </trkpt>
      <trkpt lat="-23.418088" lon="-45.499670">
        <ele>729.608</ele>
        <time>2020-01-19T16:46:38Z</time>
      </trkpt>
      <trkpt lat="-23.418114" lon="-45.499603">
        <ele>729.169</ele>
        <time>2020-01-19T16:46:39Z</time>
      </trkpt>
      <trkpt lat="-23.418124" lon="-45.499528">
        <ele>728.870</ele>
        <time>2020-01-19T16:46:40Z</time>
      </trkpt>
      <trkpt lat="-23.418132" lon="-45.499452">
        <ele>728.822</ele>
        <time>2020-01-19T16:46:41Z</time>
      </trkpt>
      <trkpt lat="-23.418138" lon="-45.499377">
        <ele>728.526</ele>
        <time>2020-01-19T16:46:42Z</time>
      </trkpt>
      <trkpt lat="-23.418148" lon="-45.499300">
        <ele>728.022</ele>
        <time>2020-01-19T16:46:43Z</time>
      </trkpt>
      <trkpt lat="-23.418163" lon="-45.499220">
        <ele>727.946</ele>
        <time>2020-01-19T16:46:44Z</time>
      </trkpt>
      <trkpt lat="-23.418183" lon="-45.499142">
        <ele>727.729</ele>
        <time>2020-01-19T16:46:45Z</time>
      </trkpt>
      <trkpt lat="-23.418194" lon="-45.499057">
        <ele>727.359</ele>
        <time>2020-01-19T16:46:46Z</time>
      </trkpt>
      <trkpt lat="-23.418199" lon="-45.498973">
        <ele>726.419</ele>
        <time>2020-01-19T16:46:47Z</time>
      </trkpt>
      <trkpt lat="-23.418204" lon="-45.498887">
        <ele>726.309</ele>
        <time>2020-01-19T16:46:48Z</time>
      </trkpt>
      <trkpt lat="-23.418208" lon="-45.498796">
        <ele>726.519</ele>
        <time>2020-01-19T16:46:49Z</time>
      </trkpt>
      <trkpt lat="-23.418217" lon="-45.498712">
        <ele>726.108</ele>
        <time>2020-01-19T16:46:50Z</time>
      </trkpt>
      <trkpt lat="-23.418224" lon="-45.498636">
        <ele>726.115</ele>
        <time>2020-01-19T16:46:51Z</time>
      </trkpt>
      <trkpt lat="-23.418238" lon="-45.498583">
        <ele>725.226</ele>
        <time>2020-01-19T16:46:52Z</time>
      </trkpt>
      <trkpt lat="-23.418267" lon="-45.498532">
        <ele>724.898</ele>
        <time>2020-01-19T16:46:53Z</time>
      </trkpt>
      <trkpt lat="-23.418310" lon="-45.498492">
        <ele>724.122</ele>
        <time>2020-01-19T16:46:54Z</time>
      </trkpt>
      <trkpt lat="-23.418364" lon="-45.498467">
        <ele>723.528</ele>
        <time>2020-01-19T16:46:55Z</time>
      </trkpt>
      <trkpt lat="-23.418422" lon="-45.498461">
        <ele>722.792</ele>
        <time>2020-01-19T16:46:56Z</time>
      </trkpt>
      <trkpt lat="-23.418479" lon="-45.498475">
        <ele>721.965</ele>
        <time>2020-01-19T16:46:57Z</time>
      </trkpt>
      <trkpt lat="-23.418531" lon="-45.498493">
        <ele>721.465</ele>
        <time>2020-01-19T16:46:58Z</time>
      </trkpt>
      <trkpt lat="-23.418586" lon="-45.498509">
        <ele>720.889</ele>
        <time>2020-01-19T16:46:59Z</time>
      </trkpt>
      <trkpt lat="-23.418637" lon="-45.498521">
        <ele>720.706</ele>
        <time>2020-01-19T16:47:00Z</time>
      </trkpt>
      <trkpt lat="-23.418687" lon="-45.498533">
        <ele>720.626</ele>
        <time>2020-01-19T16:47:01Z</time>
      </trkpt>
      <trkpt lat="-23.418733" lon="-45.498542">
        <ele>720.208</ele>
        <time>2020-01-19T16:47:02Z</time>
      </trkpt>
      <trkpt lat="-23.418781" lon="-45.498553">
        <ele>718.832</ele>
        <time>2020-01-19T16:47:03Z</time>
      </trkpt>
      <trkpt lat="-23.418826" lon="-45.498555">
        <ele>717.923</ele>
        <time>2020-01-19T16:47:04Z</time>
      </trkpt>
      <trkpt lat="-23.418915" lon="-45.498538">
        <ele>717.785</ele>
        <time>2020-01-19T16:47:06Z</time>
      </trkpt>
      <trkpt lat="-23.418990" lon="-45.498506">
        <ele>718.089</ele>
        <time>2020-01-19T16:47:08Z</time>
      </trkpt>
      <trkpt lat="-23.419031" lon="-45.498437">
        <ele>717.735</ele>
        <time>2020-01-19T16:47:10Z</time>
      </trkpt>
      <trkpt lat="-23.419060" lon="-45.498389">
        <ele>717.829</ele>
        <time>2020-01-19T16:47:12Z</time>
      </trkpt>
      <trkpt lat="-23.419068" lon="-45.498339">
        <ele>718.342</ele>
        <time>2020-01-19T16:47:14Z</time>
      </trkpt>
      <trkpt lat="-23.419083" lon="-45.498290">
        <ele>717.592</ele>
        <time>2020-01-19T16:47:20Z</time>
      </trkpt>
      <trkpt lat="-23.419108" lon="-45.498241">
        <ele>716.539</ele>
        <time>2020-01-19T16:47:24Z</time>
      </trkpt>
      <trkpt lat="-23.419141" lon="-45.498207">
        <ele>716.001</ele>
        <time>2020-01-19T16:47:26Z</time>
      </trkpt>
      <trkpt lat="-23.419179" lon="-45.498174">
        <ele>715.621</ele>
        <time>2020-01-19T16:47:28Z</time>
      </trkpt>
      <trkpt lat="-23.419223" lon="-45.498141">
        <ele>714.808</ele>
        <time>2020-01-19T16:47:30Z</time>
      </trkpt>
      <trkpt lat="-23.419272" lon="-45.498109">
        <ele>714.267</ele>
        <time>2020-01-19T16:47:32Z</time>
      </trkpt>
      <trkpt lat="-23.419419" lon="-45.498052">
        <ele>714.198</ele>
        <time>2020-01-19T16:47:34Z</time>
      </trkpt>
      <trkpt lat="-23.419476" lon="-45.498034">
        <ele>713.790</ele>
        <time>2020-01-19T16:47:35Z</time>
      </trkpt>
      <trkpt lat="-23.419531" lon="-45.498014">
        <ele>713.624</ele>
        <time>2020-01-19T16:47:36Z</time>
      </trkpt>
      <trkpt lat="-23.419582" lon="-45.498009">
        <ele>712.980</ele>
        <time>2020-01-19T16:47:37Z</time>
      </trkpt>
      <trkpt lat="-23.419639" lon="-45.497994">
        <ele>712.464</ele>
        <time>2020-01-19T16:47:38Z</time>
      </trkpt>
      <trkpt lat="-23.419694" lon="-45.497973">
        <ele>711.997</ele>
        <time>2020-01-19T16:47:39Z</time>
      </trkpt>
      <trkpt lat="-23.419754" lon="-45.497955">
        <ele>711.357</ele>
        <time>2020-01-19T16:47:40Z</time>
      </trkpt>
      <trkpt lat="-23.419818" lon="-45.497940">
        <ele>710.889</ele>
        <time>2020-01-19T16:47:41Z</time>
      </trkpt>
      <trkpt lat="-23.419874" lon="-45.497930">
        <ele>710.406</ele>
        <time>2020-01-19T16:47:42Z</time>
      </trkpt>
      <trkpt lat="-23.419934" lon="-45.497921">
        <ele>710.526</ele>
        <time>2020-01-19T16:47:43Z</time>
      </trkpt>
      <trkpt lat="-23.419987" lon="-45.497912">
        <ele>708.508</ele>
        <time>2020-01-19T16:47:44Z</time>
      </trkpt>
      <trkpt lat="-23.420039" lon="-45.497897">
        <ele>707.472</ele>
        <time>2020-01-19T16:47:45Z</time>
      </trkpt>
      <trkpt lat="-23.420090" lon="-45.497882">
        <ele>711.453</ele>
        <time>2020-01-19T16:47:46Z</time>
      </trkpt>
      <trkpt lat="-23.420163" lon="-45.497879">
        <ele>715.485</ele>
        <time>2020-01-19T16:47:48Z</time>
      </trkpt>
      <trkpt lat="-23.420250" lon="-45.497875">
        <ele>717.079</ele>
        <time>2020-01-19T16:47:50Z</time>
      </trkpt>
      <trkpt lat="-23.420308" lon="-45.497868">
        <ele>717.255</ele>
        <time>2020-01-19T16:47:51Z</time>
      </trkpt>
      <trkpt lat="-23.420373" lon="-45.497862">
        <ele>717.619</ele>
        <time>2020-01-19T16:47:52Z</time>
      </trkpt>
      <trkpt lat="-23.420438" lon="-45.497857">
        <ele>717.532</ele>
        <time>2020-01-19T16:47:53Z</time>
      </trkpt>
      <trkpt lat="-23.420504" lon="-45.497853">
        <ele>717.672</ele>
        <time>2020-01-19T16:47:54Z</time>
      </trkpt>
      <trkpt lat="-23.420573" lon="-45.497849">
        <ele>717.019</ele>
        <time>2020-01-19T16:47:55Z</time>
      </trkpt>
      <trkpt lat="-23.420642" lon="-45.497838">
        <ele>716.109</ele>
        <time>2020-01-19T16:47:56Z</time>
      </trkpt>
      <trkpt lat="-23.420707" lon="-45.497827">
        <ele>715.319</ele>
        <time>2020-01-19T16:47:57Z</time>
      </trkpt>
      <trkpt lat="-23.420768" lon="-45.497818">
        <ele>715.008</ele>
        <time>2020-01-19T16:47:58Z</time>
      </trkpt>
      <trkpt lat="-23.420826" lon="-45.497802">
        <ele>715.015</ele>
        <time>2020-01-19T16:47:59Z</time>
      </trkpt>
      <trkpt lat="-23.420880" lon="-45.497783">
        <ele>714.926</ele>
        <time>2020-01-19T16:48:00Z</time>
      </trkpt>
      <trkpt lat="-23.420937" lon="-45.497772">
        <ele>714.658</ele>
        <time>2020-01-19T16:48:01Z</time>
      </trkpt>
      <trkpt lat="-23.420991" lon="-45.497761">
        <ele>714.542</ele>
        <time>2020-01-19T16:48:02Z</time>
      </trkpt>
      <trkpt lat="-23.421051" lon="-45.497751">
        <ele>714.248</ele>
        <time>2020-01-19T16:48:03Z</time>
      </trkpt>
      <trkpt lat="-23.421111" lon="-45.497734">
        <ele>713.782</ele>
        <time>2020-01-19T16:48:04Z</time>
      </trkpt>
      <trkpt lat="-23.421163" lon="-45.497709">
        <ele>713.535</ele>
        <time>2020-01-19T16:48:05Z</time>
      </trkpt>
      <trkpt lat="-23.421216" lon="-45.497687">
        <ele>713.665</ele>
        <time>2020-01-19T16:48:06Z</time>
      </trkpt>
      <trkpt lat="-23.421269" lon="-45.497666">
        <ele>713.533</ele>
        <time>2020-01-19T16:48:07Z</time>
      </trkpt>
      <trkpt lat="-23.421322" lon="-45.497638">
        <ele>713.523</ele>
        <time>2020-01-19T16:48:08Z</time>
      </trkpt>
      <trkpt lat="-23.421370" lon="-45.497611">
        <ele>713.515</ele>
        <time>2020-01-19T16:48:09Z</time>
      </trkpt>
      <trkpt lat="-23.421419" lon="-45.497584">
        <ele>713.808</ele>
        <time>2020-01-19T16:48:10Z</time>
      </trkpt>
      <trkpt lat="-23.421479" lon="-45.497574">
        <ele>714.027</ele>
        <time>2020-01-19T16:48:11Z</time>
      </trkpt>
      <trkpt lat="-23.421531" lon="-45.497566">
        <ele>713.338</ele>
        <time>2020-01-19T16:48:12Z</time>
      </trkpt>
      <trkpt lat="-23.421579" lon="-45.497549">
        <ele>714.080</ele>
        <time>2020-01-19T16:48:13Z</time>
      </trkpt>
      <trkpt lat="-23.421624" lon="-45.497529">
        <ele>714.484</ele>
        <time>2020-01-19T16:48:14Z</time>
      </trkpt>
      <trkpt lat="-23.421669" lon="-45.497510">
        <ele>714.580</ele>
        <time>2020-01-19T16:48:15Z</time>
      </trkpt>
      <trkpt lat="-23.421714" lon="-45.497488">
        <ele>713.834</ele>
        <time>2020-01-19T16:48:16Z</time>
      </trkpt>
      <trkpt lat="-23.421756" lon="-45.497469">
        <ele>713.467</ele>
        <time>2020-01-19T16:48:17Z</time>
      </trkpt>
      <trkpt lat="-23.421827" lon="-45.497434">
        <ele>713.517</ele>
        <time>2020-01-19T16:48:19Z</time>
      </trkpt>
      <trkpt lat="-23.421889" lon="-45.497400">
        <ele>713.274</ele>
        <time>2020-01-19T16:48:21Z</time>
      </trkpt>
      <trkpt lat="-23.421943" lon="-45.497380">
        <ele>713.456</ele>
        <time>2020-01-19T16:48:23Z</time>
      </trkpt>
      <trkpt lat="-23.422012" lon="-45.497376">
        <ele>714.121</ele>
        <time>2020-01-19T16:48:27Z</time>
      </trkpt>
      <trkpt lat="-23.422058" lon="-45.497353">
        <ele>713.208</ele>
        <time>2020-01-19T16:48:29Z</time>
      </trkpt>
      <trkpt lat="-23.422104" lon="-45.497337">
        <ele>711.581</ele>
        <time>2020-01-19T16:48:31Z</time>
      </trkpt>
      <trkpt lat="-23.422161" lon="-45.497324">
        <ele>710.672</ele>
        <time>2020-01-19T16:48:33Z</time>
      </trkpt>
      <trkpt lat="-23.422205" lon="-45.497307">
        <ele>710.734</ele>
        <time>2020-01-19T16:48:37Z</time>
      </trkpt>
      <trkpt lat="-23.422258" lon="-45.497298">
        <ele>711.168</ele>
        <time>2020-01-19T16:48:39Z</time>
      </trkpt>
      <trkpt lat="-23.422311" lon="-45.497287">
        <ele>711.464</ele>
        <time>2020-01-19T16:48:41Z</time>
      </trkpt>
      <trkpt lat="-23.422370" lon="-45.497276">
        <ele>711.778</ele>
        <time>2020-01-19T16:48:43Z</time>
      </trkpt>
      <trkpt lat="-23.422423" lon="-45.497257">
        <ele>712.281</ele>
        <time>2020-01-19T16:48:45Z</time>
      </trkpt>
      <trkpt lat="-23.422468" lon="-45.497232">
        <ele>711.981</ele>
        <time>2020-01-19T16:48:47Z</time>
      </trkpt>
      <trkpt lat="-23.422523" lon="-45.497204">
        <ele>712.013</ele>
        <time>2020-01-19T16:48:48Z</time>
      </trkpt>
      <trkpt lat="-23.422580" lon="-45.497170">
        <ele>712.043</ele>
        <time>2020-01-19T16:48:50Z</time>
      </trkpt>
      <trkpt lat="-23.422645" lon="-45.497134">
        <ele>711.807</ele>
        <time>2020-01-19T16:48:51Z</time>
      </trkpt>
      <trkpt lat="-23.422686" lon="-45.497106">
        <ele>712.008</ele>
        <time>2020-01-19T16:48:52Z</time>
      </trkpt>
      <trkpt lat="-23.422718" lon="-45.497052">
        <ele>712.075</ele>
        <time>2020-01-19T16:48:54Z</time>
      </trkpt>
      <trkpt lat="-23.422709" lon="-45.496999">
        <ele>712.386</ele>
        <time>2020-01-19T16:48:55Z</time>
      </trkpt>
      <trkpt lat="-23.422657" lon="-45.496966">
        <ele>713.668</ele>
        <time>2020-01-19T16:48:57Z</time>
      </trkpt>
      <trkpt lat="-23.422599" lon="-45.496964">
        <ele>714.922</ele>
        <time>2020-01-19T16:48:59Z</time>
      </trkpt>
      <trkpt lat="-23.422548" lon="-45.496980">
        <ele>715.458</ele>
        <time>2020-01-19T16:49:01Z</time>
      </trkpt>
      <trkpt lat="-23.422490" lon="-45.497004">
        <ele>714.912</ele>
        <time>2020-01-19T16:49:03Z</time>
      </trkpt>
      <trkpt lat="-23.422441" lon="-45.497025">
        <ele>714.445</ele>
        <time>2020-01-19T16:49:06Z</time>
      </trkpt>
      <trkpt lat="-23.422395" lon="-45.497016">
        <ele>713.695</ele>
        <time>2020-01-19T16:49:08Z</time>
      </trkpt>
      <trkpt lat="-23.422353" lon="-45.496990">
        <ele>712.391</ele>
        <time>2020-01-19T16:49:11Z</time>
      </trkpt>
      <trkpt lat="-23.422309" lon="-45.496961">
        <ele>711.281</ele>
        <time>2020-01-19T16:49:12Z</time>
      </trkpt>
      <trkpt lat="-23.422264" lon="-45.496924">
        <ele>710.719</ele>
        <time>2020-01-19T16:49:14Z</time>
      </trkpt>
      <trkpt lat="-23.422226" lon="-45.496888">
        <ele>711.108</ele>
        <time>2020-01-19T16:49:16Z</time>
      </trkpt>
      <trkpt lat="-23.422183" lon="-45.496854">
        <ele>711.133</ele>
        <time>2020-01-19T16:49:19Z</time>
      </trkpt>
      <trkpt lat="-23.422140" lon="-45.496831">
        <ele>710.094</ele>
        <time>2020-01-19T16:49:21Z</time>
      </trkpt>
      <trkpt lat="-23.422088" lon="-45.496811">
        <ele>709.496</ele>
        <time>2020-01-19T16:49:23Z</time>
      </trkpt>
      <trkpt lat="-23.422034" lon="-45.496791">
        <ele>709.370</ele>
        <time>2020-01-19T16:49:25Z</time>
      </trkpt>
      <trkpt lat="-23.421982" lon="-45.496784">
        <ele>709.756</ele>
        <time>2020-01-19T16:49:27Z</time>
      </trkpt>
      <trkpt lat="-23.421931" lon="-45.496782">
        <ele>710.040</ele>
        <time>2020-01-19T16:49:29Z</time>
      </trkpt>
      <trkpt lat="-23.421873" lon="-45.496774">
        <ele>710.083</ele>
        <time>2020-01-19T16:49:32Z</time>
      </trkpt>
      <trkpt lat="-23.421827" lon="-45.496764">
        <ele>709.683</ele>
        <time>2020-01-19T16:49:33Z</time>
      </trkpt>
      <trkpt lat="-23.421772" lon="-45.496752">
        <ele>708.464</ele>
        <time>2020-01-19T16:49:35Z</time>
      </trkpt>
      <trkpt lat="-23.421712" lon="-45.496735">
        <ele>706.806</ele>
        <time>2020-01-19T16:49:36Z</time>
      </trkpt>
      <trkpt lat="-23.421650" lon="-45.496711">
        <ele>705.516</ele>
        <time>2020-01-19T16:49:38Z</time>
      </trkpt>
      <trkpt lat="-23.421607" lon="-45.496691">
        <ele>704.608</ele>
        <time>2020-01-19T16:49:39Z</time>
      </trkpt>
      <trkpt lat="-23.421558" lon="-45.496670">
        <ele>704.180</ele>
        <time>2020-01-19T16:49:40Z</time>
      </trkpt>
      <trkpt lat="-23.421507" lon="-45.496653">
        <ele>702.411</ele>
        <time>2020-01-19T16:49:41Z</time>
      </trkpt>
      <trkpt lat="-23.421452" lon="-45.496640">
        <ele>701.253</ele>
        <time>2020-01-19T16:49:42Z</time>
      </trkpt>
      <trkpt lat="-23.421390" lon="-45.496623">
        <ele>700.717</ele>
        <time>2020-01-19T16:49:43Z</time>
      </trkpt>
      <trkpt lat="-23.421328" lon="-45.496610">
        <ele>700.343</ele>
        <time>2020-01-19T16:49:44Z</time>
      </trkpt>
      <trkpt lat="-23.421262" lon="-45.496610">
        <ele>699.977</ele>
        <time>2020-01-19T16:49:45Z</time>
      </trkpt>
      <trkpt lat="-23.421199" lon="-45.496623">
        <ele>700.550</ele>
        <time>2020-01-19T16:49:46Z</time>
      </trkpt>
      <trkpt lat="-23.421150" lon="-45.496659">
        <ele>699.740</ele>
        <time>2020-01-19T16:49:47Z</time>
      </trkpt>
      <trkpt lat="-23.421117" lon="-45.496705">
        <ele>699.061</ele>
        <time>2020-01-19T16:49:48Z</time>
      </trkpt>
      <trkpt lat="-23.421085" lon="-45.496742">
        <ele>703.021</ele>
        <time>2020-01-19T16:49:50Z</time>
      </trkpt>
      <trkpt lat="-23.421046" lon="-45.496775">
        <ele>704.513</ele>
        <time>2020-01-19T16:49:54Z</time>
      </trkpt>
      <trkpt lat="-23.421011" lon="-45.496812">
        <ele>702.208</ele>
        <time>2020-01-19T16:50:00Z</time>
      </trkpt>
      <trkpt lat="-23.420967" lon="-45.496839">
        <ele>698.940</ele>
        <time>2020-01-19T16:50:05Z</time>
      </trkpt>
      <trkpt lat="-23.420927" lon="-45.496868">
        <ele>696.811</ele>
        <time>2020-01-19T16:50:10Z</time>
      </trkpt>
      <trkpt lat="-23.420879" lon="-45.496882">
        <ele>694.733</ele>
        <time>2020-01-19T16:50:15Z</time>
      </trkpt>
      <trkpt lat="-23.420830" lon="-45.496890">
        <ele>694.327</ele>
        <time>2020-01-19T16:50:18Z</time>
      </trkpt>
      <trkpt lat="-23.420786" lon="-45.496871">
        <ele>695.443</ele>
        <time>2020-01-19T16:50:23Z</time>
      </trkpt>
      <trkpt lat="-23.420749" lon="-45.496839">
        <ele>695.567</ele>
        <time>2020-01-19T16:50:27Z</time>
      </trkpt>
      <trkpt lat="-23.420717" lon="-45.496802">
        <ele>695.590</ele>
        <time>2020-01-19T16:50:31Z</time>
      </trkpt>
      <trkpt lat="-23.420682" lon="-45.496769">
        <ele>696.230</ele>
        <time>2020-01-19T16:50:35Z</time>
      </trkpt>
      <trkpt lat="-23.420651" lon="-45.496727">
        <ele>697.055</ele>
        <time>2020-01-19T16:50:40Z</time>
      </trkpt>
      <trkpt lat="-23.420609" lon="-45.496694">
        <ele>696.907</ele>
        <time>2020-01-19T16:50:43Z</time>
      </trkpt>
      <trkpt lat="-23.420570" lon="-45.496666">
        <ele>698.617</ele>
        <time>2020-01-19T16:50:48Z</time>
      </trkpt>
      <trkpt lat="-23.420535" lon="-45.496632">
        <ele>699.208</ele>
        <time>2020-01-19T16:50:50Z</time>
      </trkpt>
      <trkpt lat="-23.420488" lon="-45.496607">
        <ele>699.869</ele>
        <time>2020-01-19T16:50:55Z</time>
      </trkpt>
      <trkpt lat="-23.420442" lon="-45.496598">
        <ele>700.770</ele>
        <time>2020-01-19T16:50:59Z</time>
      </trkpt>
      <trkpt lat="-23.420395" lon="-45.496606">
        <ele>702.092</ele>
        <time>2020-01-19T16:51:03Z</time>
      </trkpt>
      <trkpt lat="-23.420351" lon="-45.496618">
        <ele>703.046</ele>
        <time>2020-01-19T16:51:08Z</time>
      </trkpt>
      <trkpt lat="-23.420304" lon="-45.496632">
        <ele>703.362</ele>
        <time>2020-01-19T16:51:11Z</time>
      </trkpt>
      <trkpt lat="-23.420262" lon="-45.496655">
        <ele>702.926</ele>
        <time>2020-01-19T16:51:15Z</time>
      </trkpt>
      <trkpt lat="-23.420228" lon="-45.496689">
        <ele>702.559</ele>
        <time>2020-01-19T16:51:19Z</time>
      </trkpt>
      <trkpt lat="-23.420183" lon="-45.496724">
        <ele>701.769</ele>
        <time>2020-01-19T16:51:23Z</time>
      </trkpt>
      <trkpt lat="-23.420141" lon="-45.496744">
        <ele>701.683</ele>
        <time>2020-01-19T16:51:26Z</time>
      </trkpt>
      <trkpt lat="-23.420108" lon="-45.496781">
        <ele>701.825</ele>
        <time>2020-01-19T16:51:29Z</time>
      </trkpt>
      <trkpt lat="-23.420074" lon="-45.496817">
        <ele>701.317</ele>
        <time>2020-01-19T16:51:33Z</time>
      </trkpt>
      <trkpt lat="-23.420036" lon="-45.496848">
        <ele>700.908</ele>
        <time>2020-01-19T16:51:37Z</time>
      </trkpt>
      <trkpt lat="-23.419998" lon="-45.496877">
        <ele>700.722</ele>
        <time>2020-01-19T16:51:41Z</time>
      </trkpt>
      <trkpt lat="-23.419953" lon="-45.496893">
        <ele>700.843</ele>
        <time>2020-01-19T16:51:44Z</time>
      </trkpt>
      <trkpt lat="-23.419905" lon="-45.496909">
        <ele>701.095</ele>
        <time>2020-01-19T16:51:47Z</time>
      </trkpt>
      <trkpt lat="-23.419858" lon="-45.496916">
        <ele>701.319</ele>
        <time>2020-01-19T16:51:51Z</time>
      </trkpt>
      <trkpt lat="-23.419809" lon="-45.496920">
        <ele>701.525</ele>
        <time>2020-01-19T16:51:55Z</time>
      </trkpt>
      <trkpt lat="-23.419750" lon="-45.496920">
        <ele>701.559</ele>
        <time>2020-01-19T16:51:57Z</time>
      </trkpt>
      <trkpt lat="-23.419704" lon="-45.496923">
        <ele>702.182</ele>
        <time>2020-01-19T16:51:59Z</time>
      </trkpt>
      <trkpt lat="-23.419650" lon="-45.496928">
        <ele>703.262</ele>
        <time>2020-01-19T16:52:02Z</time>
      </trkpt>
      <trkpt lat="-23.419604" lon="-45.496934">
        <ele>704.441</ele>
        <time>2020-01-19T16:52:05Z</time>
      </trkpt>
      <trkpt lat="-23.419556" lon="-45.496943">
        <ele>706.281</ele>
        <time>2020-01-19T16:52:08Z</time>
      </trkpt>
      <trkpt lat="-23.419502" lon="-45.496940">
        <ele>707.109</ele>
        <time>2020-01-19T16:52:10Z</time>
      </trkpt>
      <trkpt lat="-23.419456" lon="-45.496936">
        <ele>708.408</ele>
        <time>2020-01-19T16:52:13Z</time>
      </trkpt>
      <trkpt lat="-23.419403" lon="-45.496928">
        <ele>708.998</ele>
        <time>2020-01-19T16:52:16Z</time>
      </trkpt>
      <trkpt lat="-23.419351" lon="-45.496922">
        <ele>709.369</ele>
        <time>2020-01-19T16:52:18Z</time>
      </trkpt>
      <trkpt lat="-23.419298" lon="-45.496912">
        <ele>709.151</ele>
        <time>2020-01-19T16:52:21Z</time>
      </trkpt>
      <trkpt lat="-23.419246" lon="-45.496894">
        <ele>708.885</ele>
        <time>2020-01-19T16:52:24Z</time>
      </trkpt>
      <trkpt lat="-23.419205" lon="-45.496858">
        <ele>708.691</ele>
        <time>2020-01-19T16:52:26Z</time>
      </trkpt>
      <trkpt lat="-23.419166" lon="-45.496818">
        <ele>708.495</ele>
        <time>2020-01-19T16:52:29Z</time>
      </trkpt>
      <trkpt lat="-23.419137" lon="-45.496776">
        <ele>709.598</ele>
        <time>2020-01-19T16:52:31Z</time>
      </trkpt>
      <trkpt lat="-23.419112" lon="-45.496733">
        <ele>710.258</ele>
        <time>2020-01-19T16:52:33Z</time>
      </trkpt>
      <trkpt lat="-23.419086" lon="-45.496681">
        <ele>710.863</ele>
        <time>2020-01-19T16:52:35Z</time>
      </trkpt>
      <trkpt lat="-23.419072" lon="-45.496631">
        <ele>711.044</ele>
        <time>2020-01-19T16:52:38Z</time>
      </trkpt>
      <trkpt lat="-23.419052" lon="-45.496581">
        <ele>709.918</ele>
        <time>2020-01-19T16:52:41Z</time>
      </trkpt>
      <trkpt lat="-23.419028" lon="-45.496534">
        <ele>708.208</ele>
        <time>2020-01-19T16:52:43Z</time>
      </trkpt>
      <trkpt lat="-23.419007" lon="-45.496490">
        <ele>709.240</ele>
        <time>2020-01-19T16:52:46Z</time>
      </trkpt>
      <trkpt lat="-23.418976" lon="-45.496451">
        <ele>709.881</ele>
        <time>2020-01-19T16:52:49Z</time>
      </trkpt>
      <trkpt lat="-23.418940" lon="-45.496414">
        <ele>710.633</ele>
        <time>2020-01-19T16:52:54Z</time>
      </trkpt>
      <trkpt lat="-23.418897" lon="-45.496375">
        <ele>711.677</ele>
        <time>2020-01-19T16:52:58Z</time>
      </trkpt>
      <trkpt lat="-23.418859" lon="-45.496335">
        <ele>712.143</ele>
        <time>2020-01-19T16:53:01Z</time>
      </trkpt>
      <trkpt lat="-23.418830" lon="-45.496292">
        <ele>712.477</ele>
        <time>2020-01-19T16:53:04Z</time>
      </trkpt>
      <trkpt lat="-23.418799" lon="-45.496249">
        <ele>712.080</ele>
        <time>2020-01-19T16:53:06Z</time>
      </trkpt>
      <trkpt lat="-23.418761" lon="-45.496207">
        <ele>712.070</ele>
        <time>2020-01-19T16:53:09Z</time>
      </trkpt>
      <trkpt lat="-23.418727" lon="-45.496173">
        <ele>711.767</ele>
        <time>2020-01-19T16:53:12Z</time>
      </trkpt>
      <trkpt lat="-23.418696" lon="-45.496130">
        <ele>711.481</ele>
        <time>2020-01-19T16:53:15Z</time>
      </trkpt>
      <trkpt lat="-23.418667" lon="-45.496084">
        <ele>711.119</ele>
        <time>2020-01-19T16:53:18Z</time>
      </trkpt>
      <trkpt lat="-23.418643" lon="-45.496041">
        <ele>711.208</ele>
        <time>2020-01-19T16:53:20Z</time>
      </trkpt>
      <trkpt lat="-23.418621" lon="-45.495985">
        <ele>712.240</ele>
        <time>2020-01-19T16:53:22Z</time>
      </trkpt>
      <trkpt lat="-23.418608" lon="-45.495931">
        <ele>712.431</ele>
        <time>2020-01-19T16:53:25Z</time>
      </trkpt>
      <trkpt lat="-23.418597" lon="-45.495883">
        <ele>713.643</ele>
        <time>2020-01-19T16:53:28Z</time>
      </trkpt>
      <trkpt lat="-23.418575" lon="-45.495834">
        <ele>714.447</ele>
        <time>2020-01-19T16:53:31Z</time>
      </trkpt>
      <trkpt lat="-23.418547" lon="-45.495793">
        <ele>714.823</ele>
        <time>2020-01-19T16:53:34Z</time>
      </trkpt>
      <trkpt lat="-23.418513" lon="-45.495756">
        <ele>714.747</ele>
        <time>2020-01-19T16:53:38Z</time>
      </trkpt>
      <trkpt lat="-23.418485" lon="-45.495715">
        <ele>714.290</ele>
        <time>2020-01-19T16:53:40Z</time>
      </trkpt>
      <trkpt lat="-23.418448" lon="-45.495674">
        <ele>714.970</ele>
        <time>2020-01-19T16:53:44Z</time>
      </trkpt>
      <trkpt lat="-23.418407" lon="-45.495646">
        <ele>716.098</ele>
        <time>2020-01-19T16:53:46Z</time>
      </trkpt>
      <trkpt lat="-23.418359" lon="-45.495628">
        <ele>717.015</ele>
        <time>2020-01-19T16:53:50Z</time>
      </trkpt>
      <trkpt lat="-23.418319" lon="-45.495604">
        <ele>717.826</ele>
        <time>2020-01-19T16:53:52Z</time>
      </trkpt>
      <trkpt lat="-23.418275" lon="-45.495587">
        <ele>719.308</ele>
        <time>2020-01-19T16:53:54Z</time>
      </trkpt>
      <trkpt lat="-23.418226" lon="-45.495578">
        <ele>718.973</ele>
        <time>2020-01-19T16:53:58Z</time>
      </trkpt>
      <trkpt lat="-23.418180" lon="-45.495570">
        <ele>719.074</ele>
        <time>2020-01-19T16:54:00Z</time>
      </trkpt>
      <trkpt lat="-23.418132" lon="-45.495564">
        <ele>720.016</ele>
        <time>2020-01-19T16:54:03Z</time>
      </trkpt>
      <trkpt lat="-23.418087" lon="-45.495555">
        <ele>721.260</ele>
        <time>2020-01-19T16:54:06Z</time>
      </trkpt>
      <trkpt lat="-23.418039" lon="-45.495547">
        <ele>723.446</ele>
        <time>2020-01-19T16:54:09Z</time>
      </trkpt>
      <trkpt lat="-23.417993" lon="-45.495538">
        <ele>723.850</ele>
        <time>2020-01-19T16:54:11Z</time>
      </trkpt>
      <trkpt lat="-23.417941" lon="-45.495528">
        <ele>724.933</ele>
        <time>2020-01-19T16:54:14Z</time>
      </trkpt>
      <trkpt lat="-23.417888" lon="-45.495524">
        <ele>725.723</ele>
        <time>2020-01-19T16:54:17Z</time>
      </trkpt>
      <trkpt lat="-23.417838" lon="-45.495525">
        <ele>726.151</ele>
        <time>2020-01-19T16:54:19Z</time>
      </trkpt>
      <trkpt lat="-23.417791" lon="-45.495536">
        <ele>726.301</ele>
        <time>2020-01-19T16:54:22Z</time>
      </trkpt>
      <trkpt lat="-23.417744" lon="-45.495547">
        <ele>726.511</ele>
        <time>2020-01-19T16:54:24Z</time>
      </trkpt>
      <trkpt lat="-23.417696" lon="-45.495559">
        <ele>726.308</ele>
        <time>2020-01-19T16:54:27Z</time>
      </trkpt>
      <trkpt lat="-23.417641" lon="-45.495575">
        <ele>726.549</ele>
        <time>2020-01-19T16:54:30Z</time>
      </trkpt>
      <trkpt lat="-23.417594" lon="-45.495603">
        <ele>727.020</ele>
        <time>2020-01-19T16:54:33Z</time>
      </trkpt>
      <trkpt lat="-23.417546" lon="-45.495635">
        <ele>727.742</ele>
        <time>2020-01-19T16:54:36Z</time>
      </trkpt>
      <trkpt lat="-23.417502" lon="-45.495656">
        <ele>727.526</ele>
        <time>2020-01-19T16:54:38Z</time>
      </trkpt>
      <trkpt lat="-23.417447" lon="-45.495668">
        <ele>727.312</ele>
        <time>2020-01-19T16:54:41Z</time>
      </trkpt>
      <trkpt lat="-23.417385" lon="-45.495699">
        <ele>727.896</ele>
        <time>2020-01-19T16:54:44Z</time>
      </trkpt>
      <trkpt lat="-23.417341" lon="-45.495718">
        <ele>728.079</ele>
        <time>2020-01-19T16:54:46Z</time>
      </trkpt>
      <trkpt lat="-23.417295" lon="-45.495732">
        <ele>728.049</ele>
        <time>2020-01-19T16:54:48Z</time>
      </trkpt>
      <trkpt lat="-23.417247" lon="-45.495748">
        <ele>728.137</ele>
        <time>2020-01-19T16:54:50Z</time>
      </trkpt>
      <trkpt lat="-23.417188" lon="-45.495765">
        <ele>728.249</ele>
        <time>2020-01-19T16:54:53Z</time>
      </trkpt>
      <trkpt lat="-23.417133" lon="-45.495772">
        <ele>727.913</ele>
        <time>2020-01-19T16:54:55Z</time>
      </trkpt>
      <trkpt lat="-23.417083" lon="-45.495769">
        <ele>727.308</ele>
        <time>2020-01-19T16:54:56Z</time>
      </trkpt>
      <trkpt lat="-23.417033" lon="-45.495764">
        <ele>726.927</ele>
        <time>2020-01-19T16:54:58Z</time>
      </trkpt>
      <trkpt lat="-23.416961" lon="-45.495756">
        <ele>726.528</ele>
        <time>2020-01-19T16:55:00Z</time>
      </trkpt>
      <trkpt lat="-23.416902" lon="-45.495740">
        <ele>726.550</ele>
        <time>2020-01-19T16:55:01Z</time>
      </trkpt>
      <trkpt lat="-23.416807" lon="-45.495732">
        <ele>726.794</ele>
        <time>2020-01-19T16:55:03Z</time>
      </trkpt>
      <trkpt lat="-23.416751" lon="-45.495732">
        <ele>726.760</ele>
        <time>2020-01-19T16:55:04Z</time>
      </trkpt>
      <trkpt lat="-23.416697" lon="-45.495740">
        <ele>726.594</ele>
        <time>2020-01-19T16:55:05Z</time>
      </trkpt>
      <trkpt lat="-23.416644" lon="-45.495750">
        <ele>726.527</ele>
        <time>2020-01-19T16:55:06Z</time>
      </trkpt>
      <trkpt lat="-23.416585" lon="-45.495765">
        <ele>726.187</ele>
        <time>2020-01-19T16:55:07Z</time>
      </trkpt>
      <trkpt lat="-23.416526" lon="-45.495784">
        <ele>725.757</ele>
        <time>2020-01-19T16:55:08Z</time>
      </trkpt>
      <trkpt lat="-23.416470" lon="-45.495809">
        <ele>725.300</ele>
        <time>2020-01-19T16:55:09Z</time>
      </trkpt>
      <trkpt lat="-23.416417" lon="-45.495840">
        <ele>724.920</ele>
        <time>2020-01-19T16:55:10Z</time>
      </trkpt>
      <trkpt lat="-23.416368" lon="-45.495868">
        <ele>724.408</ele>
        <time>2020-01-19T16:55:11Z</time>
      </trkpt>
      <trkpt lat="-23.416320" lon="-45.495897">
        <ele>723.959</ele>
        <time>2020-01-19T16:55:12Z</time>
      </trkpt>
      <trkpt lat="-23.416275" lon="-45.495922">
        <ele>723.440</ele>
        <time>2020-01-19T16:55:13Z</time>
      </trkpt>
      <trkpt lat="-23.416223" lon="-45.495941">
        <ele>723.052</ele>
        <time>2020-01-19T16:55:14Z</time>
      </trkpt>
      <trkpt lat="-23.416170" lon="-45.495944">
        <ele>722.386</ele>
        <time>2020-01-19T16:55:15Z</time>
      </trkpt>
      <trkpt lat="-23.416110" lon="-45.495934">
        <ele>721.832</ele>
        <time>2020-01-19T16:55:16Z</time>
      </trkpt>
      <trkpt lat="-23.416052" lon="-45.495916">
        <ele>721.156</ele>
        <time>2020-01-19T16:55:17Z</time>
      </trkpt>
      <trkpt lat="-23.416002" lon="-45.495897">
        <ele>720.879</ele>
        <time>2020-01-19T16:55:18Z</time>
      </trkpt>
      <trkpt lat="-23.415949" lon="-45.495870">
        <ele>720.489</ele>
        <time>2020-01-19T16:55:19Z</time>
      </trkpt>
      <trkpt lat="-23.415887" lon="-45.495835">
        <ele>719.591</ele>
        <time>2020-01-19T16:55:20Z</time>
      </trkpt>
      <trkpt lat="-23.415824" lon="-45.495797">
        <ele>718.981</ele>
        <time>2020-01-19T16:55:21Z</time>
      </trkpt>
      <trkpt lat="-23.415763" lon="-45.495750">
        <ele>718.419</ele>
        <time>2020-01-19T16:55:22Z</time>
      </trkpt>
      <trkpt lat="-23.415703" lon="-45.495697">
        <ele>718.008</ele>
        <time>2020-01-19T16:55:23Z</time>
      </trkpt>
      <trkpt lat="-23.415651" lon="-45.495635">
        <ele>718.023</ele>
        <time>2020-01-19T16:55:24Z</time>
      </trkpt>
      <trkpt lat="-23.415626" lon="-45.495556">
        <ele>717.394</ele>
        <time>2020-01-19T16:55:25Z</time>
      </trkpt>
      <trkpt lat="-23.415622" lon="-45.495478">
        <ele>716.816</ele>
        <time>2020-01-19T16:55:26Z</time>
      </trkpt>
      <trkpt lat="-23.415628" lon="-45.495400">
        <ele>716.870</ele>
        <time>2020-01-19T16:55:27Z</time>
      </trkpt>
      <trkpt lat="-23.415642" lon="-45.495326">
        <ele>716.916</ele>
        <time>2020-01-19T16:55:28Z</time>
      </trkpt>
      <trkpt lat="-23.415663" lon="-45.495253">
        <ele>716.840</ele>
        <time>2020-01-19T16:55:29Z</time>
      </trkpt>
      <trkpt lat="-23.415691" lon="-45.495175">
        <ele>716.853</ele>
        <time>2020-01-19T16:55:30Z</time>
      </trkpt>
      <trkpt lat="-23.415717" lon="-45.495098">
        <ele>716.973</ele>
        <time>2020-01-19T16:55:31Z</time>
      </trkpt>
      <trkpt lat="-23.415747" lon="-45.495026">
        <ele>717.143</ele>
        <time>2020-01-19T16:55:32Z</time>
      </trkpt>
      <trkpt lat="-23.415780" lon="-45.494961">
        <ele>717.564</ele>
        <time>2020-01-19T16:55:33Z</time>
      </trkpt>
      <trkpt lat="-23.415812" lon="-45.494895">
        <ele>717.410</ele>
        <time>2020-01-19T16:55:34Z</time>
      </trkpt>
      <trkpt lat="-23.415841" lon="-45.494832">
        <ele>717.408</ele>
        <time>2020-01-19T16:55:35Z</time>
      </trkpt>
      <trkpt lat="-23.415867" lon="-45.494769">
        <ele>717.268</ele>
        <time>2020-01-19T16:55:36Z</time>
      </trkpt>
      <trkpt lat="-23.415893" lon="-45.494712">
        <ele>717.389</ele>
        <time>2020-01-19T16:55:37Z</time>
      </trkpt>
      <trkpt lat="-23.415917" lon="-45.494653">
        <ele>717.541</ele>
        <time>2020-01-19T16:55:38Z</time>
      </trkpt>
      <trkpt lat="-23.415942" lon="-45.494604">
        <ele>717.655</ele>
        <time>2020-01-19T16:55:39Z</time>
      </trkpt>
      <trkpt lat="-23.415972" lon="-45.494560">
        <ele>718.091</ele>
        <time>2020-01-19T16:55:40Z</time>
      </trkpt>
      <trkpt lat="-23.416000" lon="-45.494513">
        <ele>718.815</ele>
        <time>2020-01-19T16:55:41Z</time>
      </trkpt>
      <trkpt lat="-23.416047" lon="-45.494455">
        <ele>719.738</ele>
        <time>2020-01-19T16:55:43Z</time>
      </trkpt>
      <trkpt lat="-23.416088" lon="-45.494412">
        <ele>720.958</ele>
        <time>2020-01-19T16:55:45Z</time>
      </trkpt>
      <trkpt lat="-23.416105" lon="-45.494365">
        <ele>721.138</ele>
        <time>2020-01-19T16:55:47Z</time>
      </trkpt>
      <trkpt lat="-23.416112" lon="-45.494316">
        <ele>720.470</ele>
        <time>2020-01-19T16:55:52Z</time>
      </trkpt>
      <trkpt lat="-23.416112" lon="-45.494316">
        <ele>720.417</ele>
        <time>2020-01-19T16:55:52Z</time>
      </trkpt>
      <trkpt lat="-23.416137" lon="-45.494267">
        <ele>720.108</ele>
        <time>2020-01-19T16:55:54Z</time>
      </trkpt>
      <trkpt lat="-23.416152" lon="-45.494215">
        <ele>719.997</ele>
        <time>2020-01-19T16:55:57Z</time>
      </trkpt>
      <trkpt lat="-23.416169" lon="-45.494166">
        <ele>720.968</ele>
        <time>2020-01-19T16:56:02Z</time>
      </trkpt>
      <trkpt lat="-23.416195" lon="-45.494102">
        <ele>721.580</ele>
        <time>2020-01-19T16:56:05Z</time>
      </trkpt>
      <trkpt lat="-23.416216" lon="-45.494056">
        <ele>720.474</ele>
        <time>2020-01-19T16:56:09Z</time>
      </trkpt>
      <trkpt lat="-23.416245" lon="-45.494006">
        <ele>719.420</ele>
        <time>2020-01-19T16:56:13Z</time>
      </trkpt>
      <trkpt lat="-23.416274" lon="-45.493959">
        <ele>720.034</ele>
        <time>2020-01-19T16:56:17Z</time>
      </trkpt>
      <trkpt lat="-23.416303" lon="-45.493902">
        <ele>719.837</ele>
        <time>2020-01-19T16:56:20Z</time>
      </trkpt>
      <trkpt lat="-23.416326" lon="-45.493836">
        <ele>719.617</ele>
        <time>2020-01-19T16:56:21Z</time>
      </trkpt>
      <trkpt lat="-23.416353" lon="-45.493779">
        <ele>719.592</ele>
        <time>2020-01-19T16:56:23Z</time>
      </trkpt>
      <trkpt lat="-23.416388" lon="-45.493728">
        <ele>719.273</ele>
        <time>2020-01-19T16:56:26Z</time>
      </trkpt>
      <trkpt lat="-23.416430" lon="-45.493683">
        <ele>719.120</ele>
        <time>2020-01-19T16:56:28Z</time>
      </trkpt>
      <trkpt lat="-23.416473" lon="-45.493651">
        <ele>718.108</ele>
        <time>2020-01-19T16:56:31Z</time>
      </trkpt>
      <trkpt lat="-23.416512" lon="-45.493621">
        <ele>717.013</ele>
        <time>2020-01-19T16:56:33Z</time>
      </trkpt>
      <trkpt lat="-23.416553" lon="-45.493588">
        <ele>717.264</ele>
        <time>2020-01-19T16:56:35Z</time>
      </trkpt>
      <trkpt lat="-23.416585" lon="-45.493549">
        <ele>719.366</ele>
        <time>2020-01-19T16:56:37Z</time>
      </trkpt>
      <trkpt lat="-23.416615" lon="-45.493512">
        <ele>720.160</ele>
        <time>2020-01-19T16:56:42Z</time>
      </trkpt>
      <trkpt lat="-23.416641" lon="-45.493465">
        <ele>721.066</ele>
        <time>2020-01-19T16:56:47Z</time>
      </trkpt>
      <trkpt lat="-23.416674" lon="-45.493421">
        <ele>722.810</ele>
        <time>2020-01-19T16:56:52Z</time>
      </trkpt>
      <trkpt lat="-23.416699" lon="-45.493379">
        <ele>724.213</ele>
        <time>2020-01-19T16:56:55Z</time>
      </trkpt>
      <trkpt lat="-23.416732" lon="-45.493340">
        <ele>725.633</ele>
        <time>2020-01-19T16:56:59Z</time>
      </trkpt>
      <trkpt lat="-23.416771" lon="-45.493296">
        <ele>726.589</ele>
        <time>2020-01-19T16:57:03Z</time>
      </trkpt>
      <trkpt lat="-23.416803" lon="-45.493258">
        <ele>727.106</ele>
        <time>2020-01-19T16:57:08Z</time>
      </trkpt>
      <trkpt lat="-23.416836" lon="-45.493223">
        <ele>727.526</ele>
        <time>2020-01-19T16:57:12Z</time>
      </trkpt>
      <trkpt lat="-23.416871" lon="-45.493185">
        <ele>727.008</ele>
        <time>2020-01-19T16:57:15Z</time>
      </trkpt>
      <trkpt lat="-23.416911" lon="-45.493155">
        <ele>727.222</ele>
        <time>2020-01-19T16:57:18Z</time>
      </trkpt>
      <trkpt lat="-23.416959" lon="-45.493132">
        <ele>727.193</ele>
        <time>2020-01-19T16:57:20Z</time>
      </trkpt>
      <trkpt lat="-23.417003" lon="-45.493104">
        <ele>728.425</ele>
        <time>2020-01-19T16:57:22Z</time>
      </trkpt>
      <trkpt lat="-23.417041" lon="-45.493073">
        <ele>729.589</ele>
        <time>2020-01-19T16:57:26Z</time>
      </trkpt>
      <trkpt lat="-23.417080" lon="-45.493043">
        <ele>730.865</ele>
        <time>2020-01-19T16:57:30Z</time>
      </trkpt>
      <trkpt lat="-23.417115" lon="-45.493010">
        <ele>731.869</ele>
        <time>2020-01-19T16:57:34Z</time>
      </trkpt>
      <trkpt lat="-23.417149" lon="-45.492972">
        <ele>729.422</ele>
        <time>2020-01-19T16:57:39Z</time>
      </trkpt>
      <trkpt lat="-23.417185" lon="-45.492936">
        <ele>725.942</ele>
        <time>2020-01-19T16:57:43Z</time>
      </trkpt>
      <trkpt lat="-23.417217" lon="-45.492893">
        <ele>721.991</ele>
        <time>2020-01-19T16:57:48Z</time>
      </trkpt>
      <trkpt lat="-23.417250" lon="-45.492848">
        <ele>720.081</ele>
        <time>2020-01-19T16:57:52Z</time>
      </trkpt>
      <trkpt lat="-23.417300" lon="-45.492801">
        <ele>719.119</ele>
        <time>2020-01-19T16:57:56Z</time>
      </trkpt>
      <trkpt lat="-23.417341" lon="-45.492764">
        <ele>719.308</ele>
        <time>2020-01-19T16:58:00Z</time>
      </trkpt>
      <trkpt lat="-23.417380" lon="-45.492739">
        <ele>720.223</ele>
        <time>2020-01-19T16:58:04Z</time>
      </trkpt>
      <trkpt lat="-23.417433" lon="-45.492699">
        <ele>720.674</ele>
        <time>2020-01-19T16:58:08Z</time>
      </trkpt>
      <trkpt lat="-23.417458" lon="-45.492658">
        <ele>721.126</ele>
        <time>2020-01-19T16:58:10Z</time>
      </trkpt>
      <trkpt lat="-23.417493" lon="-45.492621">
        <ele>721.510</ele>
        <time>2020-01-19T16:58:14Z</time>
      </trkpt>
      <trkpt lat="-23.417530" lon="-45.492590">
        <ele>722.526</ele>
        <time>2020-01-19T16:58:17Z</time>
      </trkpt>
      <trkpt lat="-23.417564" lon="-45.492552">
        <ele>723.840</ele>
        <time>2020-01-19T16:58:19Z</time>
      </trkpt>
      <trkpt lat="-23.417603" lon="-45.492519">
        <ele>724.133</ele>
        <time>2020-01-19T16:58:22Z</time>
      </trkpt>
      <trkpt lat="-23.417633" lon="-45.492480">
        <ele>725.383</ele>
        <time>2020-01-19T16:58:24Z</time>
      </trkpt>
      <trkpt lat="-23.417660" lon="-45.492439">
        <ele>726.128</ele>
        <time>2020-01-19T16:58:26Z</time>
      </trkpt>
      <trkpt lat="-23.417698" lon="-45.492402">
        <ele>727.089</ele>
        <time>2020-01-19T16:58:29Z</time>
      </trkpt>
      <trkpt lat="-23.417742" lon="-45.492361">
        <ele>728.117</ele>
        <time>2020-01-19T16:58:32Z</time>
      </trkpt>
      <trkpt lat="-23.417781" lon="-45.492326">
        <ele>728.408</ele>
        <time>2020-01-19T16:58:34Z</time>
      </trkpt>
      <trkpt lat="-23.417815" lon="-45.492294">
        <ele>728.996</ele>
        <time>2020-01-19T16:58:37Z</time>
      </trkpt>
      <trkpt lat="-23.417846" lon="-45.492257">
        <ele>729.317</ele>
        <time>2020-01-19T16:58:39Z</time>
      </trkpt>
      <trkpt lat="-23.417883" lon="-45.492212">
        <ele>730.229</ele>
        <time>2020-01-19T16:58:42Z</time>
      </trkpt>
      <trkpt lat="-23.417912" lon="-45.492173">
        <ele>731.263</ele>
        <time>2020-01-19T16:58:44Z</time>
      </trkpt>
      <trkpt lat="-23.417940" lon="-45.492126">
        <ele>731.999</ele>
        <time>2020-01-19T16:58:46Z</time>
      </trkpt>
      <trkpt lat="-23.417966" lon="-45.492076">
        <ele>731.913</ele>
        <time>2020-01-19T16:58:49Z</time>
      </trkpt>
      <trkpt lat="-23.417982" lon="-45.492028">
        <ele>730.046</ele>
        <time>2020-01-19T16:58:51Z</time>
      </trkpt>
      <trkpt lat="-23.418006" lon="-45.491977">
        <ele>729.566</ele>
        <time>2020-01-19T16:58:54Z</time>
      </trkpt>
      <trkpt lat="-23.418036" lon="-45.491925">
        <ele>729.714</ele>
        <time>2020-01-19T16:58:57Z</time>
      </trkpt>
      <trkpt lat="-23.418069" lon="-45.491885">
        <ele>730.054</ele>
        <time>2020-01-19T16:59:00Z</time>
      </trkpt>
      <trkpt lat="-23.418097" lon="-45.491845">
        <ele>730.909</ele>
        <time>2020-01-19T16:59:01Z</time>
      </trkpt>
      <trkpt lat="-23.418118" lon="-45.491798">
        <ele>731.408</ele>
        <time>2020-01-19T16:59:03Z</time>
      </trkpt>
      <trkpt lat="-23.418144" lon="-45.491748">
        <ele>731.815</ele>
        <time>2020-01-19T16:59:04Z</time>
      </trkpt>
      <trkpt lat="-23.418191" lon="-45.491642">
        <ele>729.676</ele>
        <time>2020-01-19T16:59:06Z</time>
      </trkpt>
      <trkpt lat="-23.418209" lon="-45.491588">
        <ele>728.738</ele>
        <time>2020-01-19T16:59:07Z</time>
      </trkpt>
      <trkpt lat="-23.418244" lon="-45.491525">
        <ele>728.652</ele>
        <time>2020-01-19T16:59:08Z</time>
      </trkpt>
      <trkpt lat="-23.418283" lon="-45.491460">
        <ele>728.848</ele>
        <time>2020-01-19T16:59:09Z</time>
      </trkpt>
      <trkpt lat="-23.418303" lon="-45.491403">
        <ele>727.992</ele>
        <time>2020-01-19T16:59:10Z</time>
      </trkpt>
      <trkpt lat="-23.418316" lon="-45.491342">
        <ele>727.755</ele>
        <time>2020-01-19T16:59:11Z</time>
      </trkpt>
      <trkpt lat="-23.418322" lon="-45.491291">
        <ele>727.755</ele>
        <time>2020-01-19T16:59:12Z</time>
      </trkpt>
      <trkpt lat="-23.418338" lon="-45.491238">
        <ele>727.014</ele>
        <time>2020-01-19T16:59:13Z</time>
      </trkpt>
      <trkpt lat="-23.418344" lon="-45.491175">
        <ele>726.054</ele>
        <time>2020-01-19T16:59:14Z</time>
      </trkpt>
      <trkpt lat="-23.418340" lon="-45.491118">
        <ele>725.409</ele>
        <time>2020-01-19T16:59:15Z</time>
      </trkpt>
      <trkpt lat="-23.418334" lon="-45.491063">
        <ele>725.008</ele>
        <time>2020-01-19T16:59:16Z</time>
      </trkpt>
      <trkpt lat="-23.418300" lon="-45.491017">
        <ele>723.955</ele>
        <time>2020-01-19T16:59:18Z</time>
      </trkpt>
      <trkpt lat="-23.418257" lon="-45.490992">
        <ele>723.146</ele>
        <time>2020-01-19T16:59:19Z</time>
      </trkpt>
      <trkpt lat="-23.418212" lon="-45.491002">
        <ele>722.628</ele>
        <time>2020-01-19T16:59:21Z</time>
      </trkpt>
      <trkpt lat="-23.418171" lon="-45.491025">
        <ele>721.922</ele>
        <time>2020-01-19T16:59:23Z</time>
      </trkpt>
      <trkpt lat="-23.418120" lon="-45.491029">
        <ele>721.328</ele>
        <time>2020-01-19T16:59:27Z</time>
      </trkpt>
      <trkpt lat="-23.418074" lon="-45.491043">
        <ele>720.442</ele>
        <time>2020-01-19T16:59:30Z</time>
      </trkpt>
      <trkpt lat="-23.418020" lon="-45.491057">
        <ele>720.595</ele>
        <time>2020-01-19T16:59:35Z</time>
      </trkpt>
      <trkpt lat="-23.417973" lon="-45.491059">
        <ele>720.815</ele>
        <time>2020-01-19T16:59:38Z</time>
      </trkpt>
      <trkpt lat="-23.417928" lon="-45.491061">
        <ele>720.343</ele>
        <time>2020-01-19T16:59:42Z</time>
      </trkpt>
      <trkpt lat="-23.417878" lon="-45.491066">
        <ele>720.264</ele>
        <time>2020-01-19T16:59:45Z</time>
      </trkpt>
      <trkpt lat="-23.417833" lon="-45.491063">
        <ele>720.110</ele>
        <time>2020-01-19T16:59:48Z</time>
      </trkpt>
      <trkpt lat="-23.417780" lon="-45.491057">
        <ele>721.008</ele>
        <time>2020-01-19T16:59:51Z</time>
      </trkpt>
      <trkpt lat="-23.417734" lon="-45.491053">
        <ele>721.888</ele>
        <time>2020-01-19T16:59:54Z</time>
      </trkpt>
      <trkpt lat="-23.417684" lon="-45.491052">
        <ele>722.349</ele>
        <time>2020-01-19T16:59:57Z</time>
      </trkpt>
      <trkpt lat="-23.417635" lon="-45.491036">
        <ele>723.171</ele>
        <time>2020-01-19T17:00:00Z</time>
      </trkpt>
      <trkpt lat="-23.417583" lon="-45.491026">
        <ele>724.475</ele>
        <time>2020-01-19T17:00:03Z</time>
      </trkpt>
      <trkpt lat="-23.417537" lon="-45.491033">
        <ele>724.891</ele>
        <time>2020-01-19T17:00:06Z</time>
      </trkpt>
      <trkpt lat="-23.417489" lon="-45.491042">
        <ele>726.725</ele>
        <time>2020-01-19T17:00:11Z</time>
      </trkpt>
      <trkpt lat="-23.417444" lon="-45.491052">
        <ele>728.568</ele>
        <time>2020-01-19T17:00:17Z</time>
      </trkpt>
      <trkpt lat="-23.417390" lon="-45.491061">
        <ele>729.528</ele>
        <time>2020-01-19T17:00:23Z</time>
      </trkpt>
      <trkpt lat="-23.417343" lon="-45.491067">
        <ele>730.019</ele>
        <time>2020-01-19T17:00:26Z</time>
      </trkpt>
      <trkpt lat="-23.417295" lon="-45.491076">
        <ele>730.809</ele>
        <time>2020-01-19T17:00:30Z</time>
      </trkpt>
      <trkpt lat="-23.417251" lon="-45.491089">
        <ele>731.819</ele>
        <time>2020-01-19T17:00:32Z</time>
      </trkpt>
      <trkpt lat="-23.417206" lon="-45.491099">
        <ele>732.208</ele>
        <time>2020-01-19T17:00:35Z</time>
      </trkpt>
      <trkpt lat="-23.417150" lon="-45.491105">
        <ele>732.765</ele>
        <time>2020-01-19T17:00:39Z</time>
      </trkpt>
      <trkpt lat="-23.417102" lon="-45.491096">
        <ele>732.796</ele>
        <time>2020-01-19T17:00:42Z</time>
      </trkpt>
      <trkpt lat="-23.417050" lon="-45.491098">
        <ele>732.778</ele>
        <time>2020-01-19T17:00:45Z</time>
      </trkpt>
      <trkpt lat="-23.417004" lon="-45.491104">
        <ele>733.192</ele>
        <time>2020-01-19T17:00:48Z</time>
      </trkpt>
      <trkpt lat="-23.416923" lon="-45.491107">
        <ele>733.838</ele>
        <time>2020-01-19T17:00:53Z</time>
      </trkpt>
      <trkpt lat="-23.416923" lon="-45.491107">
        <ele>733.882</ele>
        <time>2020-01-19T17:00:53Z</time>
      </trkpt>
      <trkpt lat="-23.416923" lon="-45.491107">
        <ele>733.865</ele>
        <time>2020-01-19T17:00:53Z</time>
      </trkpt>
      <trkpt lat="-23.416871" lon="-45.491116">
        <ele>733.825</ele>
        <time>2020-01-19T17:00:57Z</time>
      </trkpt>
      <trkpt lat="-23.416829" lon="-45.491133">
        <ele>734.082</ele>
        <time>2020-01-19T17:01:00Z</time>
      </trkpt>
      <trkpt lat="-23.416782" lon="-45.491158">
        <ele>734.343</ele>
        <time>2020-01-19T17:01:06Z</time>
      </trkpt>
      <trkpt lat="-23.416732" lon="-45.491162">
        <ele>734.517</ele>
        <time>2020-01-19T17:01:13Z</time>
      </trkpt>
      <trkpt lat="-23.416684" lon="-45.491177">
        <ele>734.408</ele>
        <time>2020-01-19T17:01:18Z</time>
      </trkpt>
      <trkpt lat="-23.416639" lon="-45.491198">
        <ele>734.632</ele>
        <time>2020-01-19T17:01:23Z</time>
      </trkpt>
      <trkpt lat="-23.416593" lon="-45.491210">
        <ele>734.843</ele>
        <time>2020-01-19T17:01:27Z</time>
      </trkpt>
      <trkpt lat="-23.416545" lon="-45.491228">
        <ele>734.255</ele>
        <time>2020-01-19T17:01:32Z</time>
      </trkpt>
      <trkpt lat="-23.416501" lon="-45.491247">
        <ele>734.739</ele>
        <time>2020-01-19T17:01:35Z</time>
      </trkpt>
      <trkpt lat="-23.416456" lon="-45.491268">
        <ele>735.175</ele>
        <time>2020-01-19T17:01:38Z</time>
      </trkpt>
      <trkpt lat="-23.416410" lon="-45.491281">
        <ele>736.369</ele>
        <time>2020-01-19T17:01:42Z</time>
      </trkpt>
      <trkpt lat="-23.416363" lon="-45.491299">
        <ele>737.862</ele>
        <time>2020-01-19T17:01:45Z</time>
      </trkpt>
      <trkpt lat="-23.416314" lon="-45.491306">
        <ele>738.482</ele>
        <time>2020-01-19T17:01:48Z</time>
      </trkpt>
      <trkpt lat="-23.416269" lon="-45.491323">
        <ele>738.936</ele>
        <time>2020-01-19T17:01:52Z</time>
      </trkpt>
      <trkpt lat="-23.416223" lon="-45.491331">
        <ele>739.217</ele>
        <time>2020-01-19T17:01:57Z</time>
      </trkpt>
      <trkpt lat="-23.416175" lon="-45.491338">
        <ele>738.918</ele>
        <time>2020-01-19T17:02:03Z</time>
      </trkpt>
      <trkpt lat="-23.416162" lon="-45.491386">
        <ele>740.408</ele>
        <time>2020-01-19T17:04:02Z</time>
      </trkpt>
      <trkpt lat="-23.416118" lon="-45.491395">
        <ele>741.597</ele>
        <time>2020-01-19T17:04:07Z</time>
      </trkpt>
      <trkpt lat="-23.416070" lon="-45.491403">
        <ele>742.698</ele>
        <time>2020-01-19T17:04:10Z</time>
      </trkpt>
      <trkpt lat="-23.416019" lon="-45.491405">
        <ele>743.740</ele>
        <time>2020-01-19T17:04:14Z</time>
      </trkpt>
      <trkpt lat="-23.415966" lon="-45.491403">
        <ele>744.634</ele>
        <time>2020-01-19T17:04:17Z</time>
      </trkpt>
      <trkpt lat="-23.415916" lon="-45.491396">
        <ele>745.130</ele>
        <time>2020-01-19T17:04:21Z</time>
      </trkpt>
      <trkpt lat="-23.415865" lon="-45.491385">
        <ele>745.044</ele>
        <time>2020-01-19T17:04:25Z</time>
      </trkpt>
      <trkpt lat="-23.415820" lon="-45.491371">
        <ele>745.137</ele>
        <time>2020-01-19T17:04:28Z</time>
      </trkpt>
      <trkpt lat="-23.415772" lon="-45.491352">
        <ele>744.717</ele>
        <time>2020-01-19T17:04:32Z</time>
      </trkpt>
      <trkpt lat="-23.415730" lon="-45.491332">
        <ele>744.634</ele>
        <time>2020-01-19T17:04:36Z</time>
      </trkpt>
      <trkpt lat="-23.415687" lon="-45.491312">
        <ele>744.355</ele>
        <time>2020-01-19T17:04:41Z</time>
      </trkpt>
      <trkpt lat="-23.415644" lon="-45.491293">
        <ele>744.210</ele>
        <time>2020-01-19T17:04:44Z</time>
      </trkpt>
      <trkpt lat="-23.415600" lon="-45.491277">
        <ele>744.808</ele>
        <time>2020-01-19T17:04:49Z</time>
      </trkpt>
      <trkpt lat="-23.415548" lon="-45.491267">
        <ele>745.527</ele>
        <time>2020-01-19T17:04:54Z</time>
      </trkpt>
      <trkpt lat="-23.415499" lon="-45.491264">
        <ele>746.748</ele>
        <time>2020-01-19T17:04:59Z</time>
      </trkpt>
      <trkpt lat="-23.415452" lon="-45.491263">
        <ele>746.680</ele>
        <time>2020-01-19T17:05:04Z</time>
      </trkpt>
      <trkpt lat="-23.415405" lon="-45.491266">
        <ele>748.024</ele>
        <time>2020-01-19T17:05:09Z</time>
      </trkpt>
      <trkpt lat="-23.415356" lon="-45.491262">
        <ele>749.140</ele>
        <time>2020-01-19T17:05:14Z</time>
      </trkpt>
      <trkpt lat="-23.415310" lon="-45.491257">
        <ele>750.084</ele>
        <time>2020-01-19T17:05:20Z</time>
      </trkpt>
      <trkpt lat="-23.415264" lon="-45.491246">
        <ele>749.997</ele>
        <time>2020-01-19T17:05:26Z</time>
      </trkpt>
      <trkpt lat="-23.415218" lon="-45.491229">
        <ele>750.027</ele>
        <time>2020-01-19T17:05:32Z</time>
      </trkpt>
      <trkpt lat="-23.415175" lon="-45.491208">
        <ele>750.284</ele>
        <time>2020-01-19T17:05:38Z</time>
      </trkpt>
      <trkpt lat="-23.415133" lon="-45.491188">
        <ele>750.707</ele>
        <time>2020-01-19T17:05:44Z</time>
      </trkpt>
      <trkpt lat="-23.415088" lon="-45.491167">
        <ele>751.117</ele>
        <time>2020-01-19T17:05:50Z</time>
      </trkpt>
      <trkpt lat="-23.415042" lon="-45.491153">
        <ele>751.808</ele>
        <time>2020-01-19T17:05:57Z</time>
      </trkpt>
      <trkpt lat="-23.415008" lon="-45.491120">
        <ele>753.162</ele>
        <time>2020-01-19T17:06:04Z</time>
      </trkpt>
      <trkpt lat="-23.414965" lon="-45.491092">
        <ele>754.373</ele>
        <time>2020-01-19T17:06:12Z</time>
      </trkpt>
      <trkpt lat="-23.414936" lon="-45.491050">
        <ele>757.775</ele>
        <time>2020-01-19T17:07:14Z</time>
      </trkpt>
      <trkpt lat="-23.414892" lon="-45.491023">
        <ele>759.829</ele>
        <time>2020-01-19T17:07:19Z</time>
      </trkpt>
      <trkpt lat="-23.414847" lon="-45.491000">
        <ele>761.915</ele>
        <time>2020-01-19T17:07:23Z</time>
      </trkpt>
      <trkpt lat="-23.414803" lon="-45.490977">
        <ele>763.539</ele>
        <time>2020-01-19T17:07:27Z</time>
      </trkpt>
      <trkpt lat="-23.414752" lon="-45.490960">
        <ele>765.412</ele>
        <time>2020-01-19T17:07:32Z</time>
      </trkpt>
      <trkpt lat="-23.414710" lon="-45.490939">
        <ele>767.062</ele>
        <time>2020-01-19T17:07:37Z</time>
      </trkpt>
      <trkpt lat="-23.414669" lon="-45.490905">
        <ele>767.689</ele>
        <time>2020-01-19T17:08:37Z</time>
      </trkpt>
      <trkpt lat="-23.414666" lon="-45.490854">
        <ele>768.206</ele>
        <time>2020-01-19T17:08:42Z</time>
      </trkpt>
      <trkpt lat="-23.414655" lon="-45.490806">
        <ele>769.226</ele>
        <time>2020-01-19T17:08:53Z</time>
      </trkpt>
      <trkpt lat="-23.414642" lon="-45.490754">
        <ele>770.708</ele>
        <time>2020-01-19T17:08:58Z</time>
      </trkpt>
      <trkpt lat="-23.414634" lon="-45.490702">
        <ele>771.562</ele>
        <time>2020-01-19T17:09:02Z</time>
      </trkpt>
      <trkpt lat="-23.414629" lon="-45.490651">
        <ele>767.593</ele>
        <time>2020-01-19T17:09:07Z</time>
      </trkpt>
      <trkpt lat="-23.414629" lon="-45.490597">
        <ele>768.055</ele>
        <time>2020-01-19T17:09:13Z</time>
      </trkpt>
      <trkpt lat="-23.414638" lon="-45.490544">
        <ele>769.139</ele>
        <time>2020-01-19T17:09:18Z</time>
      </trkpt>
      <trkpt lat="-23.414646" lon="-45.490490">
        <ele>770.425</ele>
        <time>2020-01-19T17:09:22Z</time>
      </trkpt>
      <trkpt lat="-23.414655" lon="-45.490440">
        <ele>770.019</ele>
        <time>2020-01-19T17:09:25Z</time>
      </trkpt>
      <trkpt lat="-23.414662" lon="-45.490381">
        <ele>769.812</ele>
        <time>2020-01-19T17:09:30Z</time>
      </trkpt>
      <trkpt lat="-23.414673" lon="-45.490328">
        <ele>769.732</ele>
        <time>2020-01-19T17:09:34Z</time>
      </trkpt>
      <trkpt lat="-23.414681" lon="-45.490277">
        <ele>770.516</ele>
        <time>2020-01-19T17:09:39Z</time>
      </trkpt>
      <trkpt lat="-23.414685" lon="-45.490228">
        <ele>771.076</ele>
        <time>2020-01-19T17:09:43Z</time>
      </trkpt>
      <trkpt lat="-23.414682" lon="-45.490176">
        <ele>771.513</ele>
        <time>2020-01-19T17:09:49Z</time>
      </trkpt>
      <trkpt lat="-23.414682" lon="-45.490124">
        <ele>771.508</ele>
        <time>2020-01-19T17:09:54Z</time>
      </trkpt>
      <trkpt lat="-23.414679" lon="-45.490075">
        <ele>772.375</ele>
        <time>2020-01-19T17:09:59Z</time>
      </trkpt>
      <trkpt lat="-23.414670" lon="-45.490026">
        <ele>772.576</ele>
        <time>2020-01-19T17:10:04Z</time>
      </trkpt>
      <trkpt lat="-23.414656" lon="-45.489976">
        <ele>773.448</ele>
        <time>2020-01-19T17:10:11Z</time>
      </trkpt>
      <trkpt lat="-23.414642" lon="-45.489928">
        <ele>774.922</ele>
        <time>2020-01-19T17:10:18Z</time>
      </trkpt>
      <trkpt lat="-23.414625" lon="-45.489881">
        <ele>777.318</ele>
        <time>2020-01-19T17:11:10Z</time>
      </trkpt>
      <trkpt lat="-23.414608" lon="-45.489829">
        <ele>779.152</ele>
        <time>2020-01-19T17:11:14Z</time>
      </trkpt>
      <trkpt lat="-23.414592" lon="-45.489782">
        <ele>780.345</ele>
        <time>2020-01-19T17:11:18Z</time>
      </trkpt>
      <trkpt lat="-23.414569" lon="-45.489731">
        <ele>781.395</ele>
        <time>2020-01-19T17:11:22Z</time>
      </trkpt>
      <trkpt lat="-23.414542" lon="-45.489685">
        <ele>782.411</ele>
        <time>2020-01-19T17:11:27Z</time>
      </trkpt>
      <trkpt lat="-23.414518" lon="-45.489642">
        <ele>783.021</ele>
        <time>2020-01-19T17:11:31Z</time>
      </trkpt>
      <trkpt lat="-23.414498" lon="-45.489589">
        <ele>783.303</ele>
        <time>2020-01-19T17:11:37Z</time>
      </trkpt>
      <trkpt lat="-23.414489" lon="-45.489541">
        <ele>784.208</ele>
        <time>2020-01-19T17:11:43Z</time>
      </trkpt>
      <trkpt lat="-23.414487" lon="-45.489488">
        <ele>784.785</ele>
        <time>2020-01-19T17:11:49Z</time>
      </trkpt>
      <trkpt lat="-23.414490" lon="-45.489435">
        <ele>784.676</ele>
        <time>2020-01-19T17:11:54Z</time>
      </trkpt>
      <trkpt lat="-23.414497" lon="-45.489384">
        <ele>785.188</ele>
        <time>2020-01-19T17:11:59Z</time>
      </trkpt>
      <trkpt lat="-23.414510" lon="-45.489329">
        <ele>786.052</ele>
        <time>2020-01-19T17:12:05Z</time>
      </trkpt>
      <trkpt lat="-23.414521" lon="-45.489279">
        <ele>786.668</ele>
        <time>2020-01-19T17:12:09Z</time>
      </trkpt>
      <trkpt lat="-23.414530" lon="-45.489229">
        <ele>787.242</ele>
        <time>2020-01-19T17:12:14Z</time>
      </trkpt>
      <trkpt lat="-23.414537" lon="-45.489175">
        <ele>787.785</ele>
        <time>2020-01-19T17:12:20Z</time>
      </trkpt>
      <trkpt lat="-23.414547" lon="-45.489124">
        <ele>787.585</ele>
        <time>2020-01-19T17:12:24Z</time>
      </trkpt>
      <trkpt lat="-23.414552" lon="-45.489073">
        <ele>787.166</ele>
        <time>2020-01-19T17:12:28Z</time>
      </trkpt>
      <trkpt lat="-23.414551" lon="-45.489023">
        <ele>787.029</ele>
        <time>2020-01-19T17:12:31Z</time>
      </trkpt>
      <trkpt lat="-23.414548" lon="-45.488970">
        <ele>787.221</ele>
        <time>2020-01-19T17:12:35Z</time>
      </trkpt>
      <trkpt lat="-23.414533" lon="-45.488922">
        <ele>787.408</ele>
        <time>2020-01-19T17:12:40Z</time>
      </trkpt>
      <trkpt lat="-23.414511" lon="-45.488877">
        <ele>787.720</ele>
        <time>2020-01-19T17:12:44Z</time>
      </trkpt>
      <trkpt lat="-23.414486" lon="-45.488835">
        <ele>788.251</ele>
        <time>2020-01-19T17:12:48Z</time>
      </trkpt>
      <trkpt lat="-23.414452" lon="-45.488798">
        <ele>789.043</ele>
        <time>2020-01-19T17:12:53Z</time>
      </trkpt>
      <trkpt lat="-23.414408" lon="-45.488775">
        <ele>789.937</ele>
        <time>2020-01-19T17:12:58Z</time>
      </trkpt>
      <trkpt lat="-23.414360" lon="-45.488768">
        <ele>790.643</ele>
        <time>2020-01-19T17:13:04Z</time>
      </trkpt>
      <trkpt lat="-23.414314" lon="-45.488767">
        <ele>791.467</ele>
        <time>2020-01-19T17:13:10Z</time>
      </trkpt>
      <trkpt lat="-23.414263" lon="-45.488781">
        <ele>791.740</ele>
        <time>2020-01-19T17:13:20Z</time>
      </trkpt>
      <trkpt lat="-23.414218" lon="-45.488793">
        <ele>793.090</ele>
        <time>2020-01-19T17:13:26Z</time>
      </trkpt>
      <trkpt lat="-23.414173" lon="-45.488795">
        <ele>794.832</ele>
        <time>2020-01-19T17:13:31Z</time>
      </trkpt>
      <trkpt lat="-23.414124" lon="-45.488791">
        <ele>796.092</ele>
        <time>2020-01-19T17:13:38Z</time>
      </trkpt>
      <trkpt lat="-23.414075" lon="-45.488783">
        <ele>796.611</ele>
        <time>2020-01-19T17:13:45Z</time>
      </trkpt>
      <trkpt lat="-23.414028" lon="-45.488773">
        <ele>797.808</ele>
        <time>2020-01-19T17:13:51Z</time>
      </trkpt>
      <trkpt lat="-23.413981" lon="-45.488762">
        <ele>798.597</ele>
        <time>2020-01-19T17:13:55Z</time>
      </trkpt>
      <trkpt lat="-23.413936" lon="-45.488749">
        <ele>799.288</ele>
        <time>2020-01-19T17:14:00Z</time>
      </trkpt>
      <trkpt lat="-23.413893" lon="-45.488726">
        <ele>800.040</ele>
        <time>2020-01-19T17:14:04Z</time>
      </trkpt>
      <trkpt lat="-23.413850" lon="-45.488699">
        <ele>799.784</ele>
        <time>2020-01-19T17:14:09Z</time>
      </trkpt>
      <trkpt lat="-23.413808" lon="-45.488672">
        <ele>798.060</ele>
        <time>2020-01-19T17:14:14Z</time>
      </trkpt>
      <trkpt lat="-23.413769" lon="-45.488648">
        <ele>797.334</ele>
        <time>2020-01-19T17:14:18Z</time>
      </trkpt>
      <trkpt lat="-23.413726" lon="-45.488613">
        <ele>796.167</ele>
        <time>2020-01-19T17:14:23Z</time>
      </trkpt>
      <trkpt lat="-23.413695" lon="-45.488572">
        <ele>795.887</ele>
        <time>2020-01-19T17:14:30Z</time>
      </trkpt>
      <trkpt lat="-23.413659" lon="-45.488526">
        <ele>795.223</ele>
        <time>2020-01-19T17:14:33Z</time>
      </trkpt>
      <trkpt lat="-23.413641" lon="-45.488465">
        <ele>794.783</ele>
        <time>2020-01-19T17:14:35Z</time>
      </trkpt>
      <trkpt lat="-23.413631" lon="-45.488414">
        <ele>794.211</ele>
        <time>2020-01-19T17:14:37Z</time>
      </trkpt>
      <trkpt lat="-23.413620" lon="-45.488347">
        <ele>793.808</ele>
        <time>2020-01-19T17:14:39Z</time>
      </trkpt>
      <trkpt lat="-23.413604" lon="-45.488289">
        <ele>793.526</ele>
        <time>2020-01-19T17:14:43Z</time>
      </trkpt>
      <trkpt lat="-23.413592" lon="-45.488240">
        <ele>792.947</ele>
        <time>2020-01-19T17:14:46Z</time>
      </trkpt>
      <trkpt lat="-23.413581" lon="-45.488184">
        <ele>792.489</ele>
        <time>2020-01-19T17:14:49Z</time>
      </trkpt>
      <trkpt lat="-23.413568" lon="-45.488123">
        <ele>791.893</ele>
        <time>2020-01-19T17:14:52Z</time>
      </trkpt>
      <trkpt lat="-23.413561" lon="-45.488062">
        <ele>791.079</ele>
        <time>2020-01-19T17:14:54Z</time>
      </trkpt>
      <trkpt lat="-23.413555" lon="-45.488013">
        <ele>790.633</ele>
        <time>2020-01-19T17:14:56Z</time>
      </trkpt>
      <trkpt lat="-23.413551" lon="-45.487962">
        <ele>790.396</ele>
        <time>2020-01-19T17:14:57Z</time>
      </trkpt>
      <trkpt lat="-23.413546" lon="-45.487911">
        <ele>790.446</ele>
        <time>2020-01-19T17:14:59Z</time>
      </trkpt>
      <trkpt lat="-23.413543" lon="-45.487853">
        <ele>790.644</ele>
        <time>2020-01-19T17:15:01Z</time>
      </trkpt>
      <trkpt lat="-23.413549" lon="-45.487804">
        <ele>790.905</ele>
        <time>2020-01-19T17:15:03Z</time>
      </trkpt>
      <trkpt lat="-23.413555" lon="-45.487744">
        <ele>790.615</ele>
        <time>2020-01-19T17:15:06Z</time>
      </trkpt>
      <trkpt lat="-23.413568" lon="-45.487691">
        <ele>789.908</ele>
        <time>2020-01-19T17:15:08Z</time>
      </trkpt>
      <trkpt lat="-23.413584" lon="-45.487636">
        <ele>789.648</ele>
        <time>2020-01-19T17:15:10Z</time>
      </trkpt>
      <trkpt lat="-23.413608" lon="-45.487573">
        <ele>789.339</ele>
        <time>2020-01-19T17:15:13Z</time>
      </trkpt>
      <trkpt lat="-23.413616" lon="-45.487523">
        <ele>789.371</ele>
        <time>2020-01-19T17:15:15Z</time>
      </trkpt>
      <trkpt lat="-23.413620" lon="-45.487465">
        <ele>789.035</ele>
        <time>2020-01-19T17:15:17Z</time>
      </trkpt>
      <trkpt lat="-23.413613" lon="-45.487407">
        <ele>789.121</ele>
        <time>2020-01-19T17:15:19Z</time>
      </trkpt>
      <trkpt lat="-23.413611" lon="-45.487352">
        <ele>789.385</ele>
        <time>2020-01-19T17:15:21Z</time>
      </trkpt>
      <trkpt lat="-23.413621" lon="-45.487303">
        <ele>789.558</ele>
        <time>2020-01-19T17:15:23Z</time>
      </trkpt>
      <trkpt lat="-23.413636" lon="-45.487243">
        <ele>789.468</ele>
        <time>2020-01-19T17:15:25Z</time>
      </trkpt>
      <trkpt lat="-23.413651" lon="-45.487182">
        <ele>789.711</ele>
        <time>2020-01-19T17:15:27Z</time>
      </trkpt>
      <trkpt lat="-23.413674" lon="-45.487106">
        <ele>790.621</ele>
        <time>2020-01-19T17:15:28Z</time>
      </trkpt>
      <trkpt lat="-23.413718" lon="-45.487049">
        <ele>791.103</ele>
        <time>2020-01-19T17:15:30Z</time>
      </trkpt>
      <trkpt lat="-23.413762" lon="-45.486998">
        <ele>791.108</ele>
        <time>2020-01-19T17:15:32Z</time>
      </trkpt>
      <trkpt lat="-23.413798" lon="-45.486958">
        <ele>791.225</ele>
        <time>2020-01-19T17:15:33Z</time>
      </trkpt>
      <trkpt lat="-23.413838" lon="-45.486921">
        <ele>791.746</ele>
        <time>2020-01-19T17:15:35Z</time>
      </trkpt>
      <trkpt lat="-23.413872" lon="-45.486879">
        <ele>792.338</ele>
        <time>2020-01-19T17:15:36Z</time>
      </trkpt>
      <trkpt lat="-23.413902" lon="-45.486835">
        <ele>792.312</ele>
        <time>2020-01-19T17:15:38Z</time>
      </trkpt>
      <trkpt lat="-23.413945" lon="-45.486793">
        <ele>792.948</ele>
        <time>2020-01-19T17:15:39Z</time>
      </trkpt>
      <trkpt lat="-23.413985" lon="-45.486750">
        <ele>792.622</ele>
        <time>2020-01-19T17:15:41Z</time>
      </trkpt>
      <trkpt lat="-23.414016" lon="-45.486700">
        <ele>792.435</ele>
        <time>2020-01-19T17:15:42Z</time>
      </trkpt>
      <trkpt lat="-23.414039" lon="-45.486656">
        <ele>793.015</ele>
        <time>2020-01-19T17:15:44Z</time>
      </trkpt>
      <trkpt lat="-23.414058" lon="-45.486609">
        <ele>792.014</ele>
        <time>2020-01-19T17:15:45Z</time>
      </trkpt>
      <trkpt lat="-23.414088" lon="-45.486544">
        <ele>791.854</ele>
        <time>2020-01-19T17:15:48Z</time>
      </trkpt>
      <trkpt lat="-23.414099" lon="-45.486483">
        <ele>787.809</ele>
        <time>2020-01-19T17:15:51Z</time>
      </trkpt>
      <trkpt lat="-23.414080" lon="-45.486429">
        <ele>783.808</ele>
        <time>2020-01-19T17:15:53Z</time>
      </trkpt>
      <trkpt lat="-23.414060" lon="-45.486380">
        <ele>781.515</ele>
        <time>2020-01-19T17:15:54Z</time>
      </trkpt>
      <trkpt lat="-23.414043" lon="-45.486328">
        <ele>783.976</ele>
        <time>2020-01-19T17:15:56Z</time>
      </trkpt>
      <trkpt lat="-23.414024" lon="-45.486274">
        <ele>785.448</ele>
        <time>2020-01-19T17:15:58Z</time>
      </trkpt>
      <trkpt lat="-23.414006" lon="-45.486210">
        <ele>785.982</ele>
        <time>2020-01-19T17:16:00Z</time>
      </trkpt>
      <trkpt lat="-23.414003" lon="-45.486144">
        <ele>786.048</ele>
        <time>2020-01-19T17:16:01Z</time>
      </trkpt>
      <trkpt lat="-23.414010" lon="-45.486088">
        <ele>785.662</ele>
        <time>2020-01-19T17:16:03Z</time>
      </trkpt>
      <trkpt lat="-23.414031" lon="-45.486034">
        <ele>783.355</ele>
        <time>2020-01-19T17:16:05Z</time>
      </trkpt>
      <trkpt lat="-23.414066" lon="-45.485981">
        <ele>781.935</ele>
        <time>2020-01-19T17:16:06Z</time>
      </trkpt>
      <trkpt lat="-23.414109" lon="-45.485939">
        <ele>781.089</ele>
        <time>2020-01-19T17:16:08Z</time>
      </trkpt>
      <trkpt lat="-23.414155" lon="-45.485903">
        <ele>780.006</ele>
        <time>2020-01-19T17:16:09Z</time>
      </trkpt>
      <trkpt lat="-23.414218" lon="-45.485873">
        <ele>778.826</ele>
        <time>2020-01-19T17:16:11Z</time>
      </trkpt>
      <trkpt lat="-23.414265" lon="-45.485851">
        <ele>778.108</ele>
        <time>2020-01-19T17:16:12Z</time>
      </trkpt>
      <trkpt lat="-23.414310" lon="-45.485832">
        <ele>776.782</ele>
        <time>2020-01-19T17:16:13Z</time>
      </trkpt>
      <trkpt lat="-23.414370" lon="-45.485801">
        <ele>775.563</ele>
        <time>2020-01-19T17:16:14Z</time>
      </trkpt>
      <trkpt lat="-23.414435" lon="-45.485765">
        <ele>773.935</ele>
        <time>2020-01-19T17:16:16Z</time>
      </trkpt>
      <trkpt lat="-23.414476" lon="-45.485741">
        <ele>772.579</ele>
        <time>2020-01-19T17:16:17Z</time>
      </trkpt>
      <trkpt lat="-23.414553" lon="-45.485705">
        <ele>771.685</ele>
        <time>2020-01-19T17:16:18Z</time>
      </trkpt>
      <trkpt lat="-23.414597" lon="-45.485676">
        <ele>770.689</ele>
        <time>2020-01-19T17:16:19Z</time>
      </trkpt>
      <trkpt lat="-23.414641" lon="-45.485642">
        <ele>770.092</ele>
        <time>2020-01-19T17:16:20Z</time>
      </trkpt>
      <trkpt lat="-23.414750" lon="-45.485597">
        <ele>768.462</ele>
        <time>2020-01-19T17:16:22Z</time>
      </trkpt>
      <trkpt lat="-23.414796" lon="-45.485565">
        <ele>767.328</ele>
        <time>2020-01-19T17:16:23Z</time>
      </trkpt>
      <trkpt lat="-23.414842" lon="-45.485526">
        <ele>766.489</ele>
        <time>2020-01-19T17:16:24Z</time>
      </trkpt>
      <trkpt lat="-23.414884" lon="-45.485484">
        <ele>765.517</ele>
        <time>2020-01-19T17:16:25Z</time>
      </trkpt>
      <trkpt lat="-23.414927" lon="-45.485440">
        <ele>764.708</ele>
        <time>2020-01-19T17:16:26Z</time>
      </trkpt>
      <trkpt lat="-23.414971" lon="-45.485403">
        <ele>767.546</ele>
        <time>2020-01-19T17:16:27Z</time>
      </trkpt>
      <trkpt lat="-23.415010" lon="-45.485365">
        <ele>767.927</ele>
        <time>2020-01-19T17:16:28Z</time>
      </trkpt>
      <trkpt lat="-23.415045" lon="-45.485328">
        <ele>767.229</ele>
        <time>2020-01-19T17:16:29Z</time>
      </trkpt>
      <trkpt lat="-23.415077" lon="-45.485289">
        <ele>766.213</ele>
        <time>2020-01-19T17:16:30Z</time>
      </trkpt>
      <trkpt lat="-23.415124" lon="-45.485206">
        <ele>765.119</ele>
        <time>2020-01-19T17:16:32Z</time>
      </trkpt>
      <trkpt lat="-23.415183" lon="-45.485137">
        <ele>763.633</ele>
        <time>2020-01-19T17:16:34Z</time>
      </trkpt>
      <trkpt lat="-23.415221" lon="-45.485105">
        <ele>762.396</ele>
        <time>2020-01-19T17:16:35Z</time>
      </trkpt>
      <trkpt lat="-23.415277" lon="-45.485041">
        <ele>761.176</ele>
        <time>2020-01-19T17:16:37Z</time>
      </trkpt>
      <trkpt lat="-23.415317" lon="-45.485011">
        <ele>759.967</ele>
        <time>2020-01-19T17:16:40Z</time>
      </trkpt>
      <trkpt lat="-23.415360" lon="-45.484985">
        <ele>759.281</ele>
        <time>2020-01-19T17:16:41Z</time>
      </trkpt>
      <trkpt lat="-23.415402" lon="-45.484955">
        <ele>757.519</ele>
        <time>2020-01-19T17:16:43Z</time>
      </trkpt>
      <trkpt lat="-23.415457" lon="-45.484956">
        <ele>756.308</ele>
        <time>2020-01-19T17:16:45Z</time>
      </trkpt>
      <trkpt lat="-23.415549" lon="-45.485038">
        <ele>755.710</ele>
        <time>2020-01-19T17:16:47Z</time>
      </trkpt>
      <trkpt lat="-23.415603" lon="-45.485058">
        <ele>754.751</ele>
        <time>2020-01-19T17:16:48Z</time>
      </trkpt>
      <trkpt lat="-23.415654" lon="-45.485069">
        <ele>753.473</ele>
        <time>2020-01-19T17:16:49Z</time>
      </trkpt>
      <trkpt lat="-23.415708" lon="-45.485063">
        <ele>752.477</ele>
        <time>2020-01-19T17:16:50Z</time>
      </trkpt>
      <trkpt lat="-23.415755" lon="-45.485043">
        <ele>751.653</ele>
        <time>2020-01-19T17:16:51Z</time>
      </trkpt>
      <trkpt lat="-23.415795" lon="-45.485005">
        <ele>750.557</ele>
        <time>2020-01-19T17:16:52Z</time>
      </trkpt>
      <trkpt lat="-23.415827" lon="-45.484957">
        <ele>749.470</ele>
        <time>2020-01-19T17:16:53Z</time>
      </trkpt>
      <trkpt lat="-23.415852" lon="-45.484907">
        <ele>748.610</ele>
        <time>2020-01-19T17:16:54Z</time>
      </trkpt>
      <trkpt lat="-23.415877" lon="-45.484857">
        <ele>748.225</ele>
        <time>2020-01-19T17:16:55Z</time>
      </trkpt>
      <trkpt lat="-23.415900" lon="-45.484814">
        <ele>747.926</ele>
        <time>2020-01-19T17:16:56Z</time>
      </trkpt>
      <trkpt lat="-23.415926" lon="-45.484719">
        <ele>747.708</ele>
        <time>2020-01-19T17:16:58Z</time>
      </trkpt>
      <trkpt lat="-23.415932" lon="-45.484658">
        <ele>747.408</ele>
        <time>2020-01-19T17:16:59Z</time>
      </trkpt>
      <trkpt lat="-23.415928" lon="-45.484595">
        <ele>747.386</ele>
        <time>2020-01-19T17:17:00Z</time>
      </trkpt>
      <trkpt lat="-23.415925" lon="-45.484542">
        <ele>747.517</ele>
        <time>2020-01-19T17:17:01Z</time>
      </trkpt>
      <trkpt lat="-23.415919" lon="-45.484479">
        <ele>747.359</ele>
        <time>2020-01-19T17:17:03Z</time>
      </trkpt>
      <trkpt lat="-23.415901" lon="-45.484428">
        <ele>747.363</ele>
        <time>2020-01-19T17:17:05Z</time>
      </trkpt>
      <trkpt lat="-23.415918" lon="-45.484343">
        <ele>746.889</ele>
        <time>2020-01-19T17:17:07Z</time>
      </trkpt>
      <trkpt lat="-23.415918" lon="-45.484343">
        <ele>746.883</ele>
        <time>2020-01-19T17:17:07Z</time>
      </trkpt>
      <trkpt lat="-23.415918" lon="-45.484343">
        <ele>746.856</ele>
        <time>2020-01-19T17:17:07Z</time>
      </trkpt>
      <trkpt lat="-23.415909" lon="-45.484279">
        <ele>745.416</ele>
        <time>2020-01-19T17:17:09Z</time>
      </trkpt>
      <trkpt lat="-23.415876" lon="-45.484198">
        <ele>743.813</ele>
        <time>2020-01-19T17:17:11Z</time>
      </trkpt>
      <trkpt lat="-23.415835" lon="-45.484141">
        <ele>743.043</ele>
        <time>2020-01-19T17:17:12Z</time>
      </trkpt>
      <trkpt lat="-23.415798" lon="-45.484098">
        <ele>742.207</ele>
        <time>2020-01-19T17:17:13Z</time>
      </trkpt>
      <trkpt lat="-23.415767" lon="-45.484060">
        <ele>741.508</ele>
        <time>2020-01-19T17:17:14Z</time>
      </trkpt>
      <trkpt lat="-23.415712" lon="-45.484033">
        <ele>740.735</ele>
        <time>2020-01-19T17:17:16Z</time>
      </trkpt>
      <trkpt lat="-23.415675" lon="-45.483993">
        <ele>740.066</ele>
        <time>2020-01-19T17:17:17Z</time>
      </trkpt>
      <trkpt lat="-23.415635" lon="-45.483953">
        <ele>738.418</ele>
        <time>2020-01-19T17:17:19Z</time>
      </trkpt>
      <trkpt lat="-23.415605" lon="-45.483909">
        <ele>737.272</ele>
        <time>2020-01-19T17:17:22Z</time>
      </trkpt>
      <trkpt lat="-23.415573" lon="-45.483872">
        <ele>738.068</ele>
        <time>2020-01-19T17:17:25Z</time>
      </trkpt>
      <trkpt lat="-23.415614" lon="-45.483907">
        <ele>735.872</ele>
        <time>2020-01-19T17:17:45Z</time>
      </trkpt>
      <trkpt lat="-23.415656" lon="-45.483877">
        <ele>733.635</ele>
        <time>2020-01-19T17:18:13Z</time>
      </trkpt>
      <trkpt lat="-23.415632" lon="-45.483829">
        <ele>732.035</ele>
        <time>2020-01-19T17:18:15Z</time>
      </trkpt>
      <trkpt lat="-23.415606" lon="-45.483786">
        <ele>730.148</ele>
        <time>2020-01-19T17:18:17Z</time>
      </trkpt>
      <trkpt lat="-23.415583" lon="-45.483733">
        <ele>728.661</ele>
        <time>2020-01-19T17:18:19Z</time>
      </trkpt>
      <trkpt lat="-23.415552" lon="-45.483675">
        <ele>726.317</ele>
        <time>2020-01-19T17:18:21Z</time>
      </trkpt>
      <trkpt lat="-23.415537" lon="-45.483624">
        <ele>724.208</ele>
        <time>2020-01-19T17:18:23Z</time>
      </trkpt>
      <trkpt lat="-23.415517" lon="-45.483570">
        <ele>722.718</ele>
        <time>2020-01-19T17:18:24Z</time>
      </trkpt>
      <trkpt lat="-23.415504" lon="-45.483516">
        <ele>721.839</ele>
        <time>2020-01-19T17:18:25Z</time>
      </trkpt>
      <trkpt lat="-23.415473" lon="-45.483375">
        <ele>720.491</ele>
        <time>2020-01-19T17:18:27Z</time>
      </trkpt>
      <trkpt lat="-23.415462" lon="-45.483266">
        <ele>718.825</ele>
        <time>2020-01-19T17:18:28Z</time>
      </trkpt>
      <trkpt lat="-23.415455" lon="-45.483177">
        <ele>717.551</ele>
        <time>2020-01-19T17:18:29Z</time>
      </trkpt>
      <trkpt lat="-23.415444" lon="-45.483101">
        <ele>717.135</ele>
        <time>2020-01-19T17:18:30Z</time>
      </trkpt>
      <trkpt lat="-23.415432" lon="-45.483032">
        <ele>716.318</ele>
        <time>2020-01-19T17:18:31Z</time>
      </trkpt>
      <trkpt lat="-23.415424" lon="-45.482961">
        <ele>715.228</ele>
        <time>2020-01-19T17:18:32Z</time>
      </trkpt>
      <trkpt lat="-23.415418" lon="-45.482894">
        <ele>714.254</ele>
        <time>2020-01-19T17:18:33Z</time>
      </trkpt>
      <trkpt lat="-23.415417" lon="-45.482828">
        <ele>713.556</ele>
        <time>2020-01-19T17:18:34Z</time>
      </trkpt>
      <trkpt lat="-23.415418" lon="-45.482758">
        <ele>713.311</ele>
        <time>2020-01-19T17:18:35Z</time>
      </trkpt>
      <trkpt lat="-23.415416" lon="-45.482690">
        <ele>712.908</ele>
        <time>2020-01-19T17:18:36Z</time>
      </trkpt>
      <trkpt lat="-23.415411" lon="-45.482620">
        <ele>712.659</ele>
        <time>2020-01-19T17:18:37Z</time>
      </trkpt>
      <trkpt lat="-23.415407" lon="-45.482558">
        <ele>712.460</ele>
        <time>2020-01-19T17:18:38Z</time>
      </trkpt>
      <trkpt lat="-23.415405" lon="-45.482491">
        <ele>711.882</ele>
        <time>2020-01-19T17:18:39Z</time>
      </trkpt>
      <trkpt lat="-23.415401" lon="-45.482419">
        <ele>711.746</ele>
        <time>2020-01-19T17:18:40Z</time>
      </trkpt>
      <trkpt lat="-23.415393" lon="-45.482356">
        <ele>711.432</ele>
        <time>2020-01-19T17:18:41Z</time>
      </trkpt>
      <trkpt lat="-23.415375" lon="-45.482279">
        <ele>711.496</ele>
        <time>2020-01-19T17:18:42Z</time>
      </trkpt>
      <trkpt lat="-23.415354" lon="-45.482210">
        <ele>711.829</ele>
        <time>2020-01-19T17:18:43Z</time>
      </trkpt>
      <trkpt lat="-23.415321" lon="-45.482165">
        <ele>712.019</ele>
        <time>2020-01-19T17:18:44Z</time>
      </trkpt>
      <trkpt lat="-23.415283" lon="-45.482138">
        <ele>711.542</ele>
        <time>2020-01-19T17:18:45Z</time>
      </trkpt>
      <trkpt lat="-23.415241" lon="-45.482113">
        <ele>711.122</ele>
        <time>2020-01-19T17:18:46Z</time>
      </trkpt>
      <trkpt lat="-23.415200" lon="-45.482090">
        <ele>710.514</ele>
        <time>2020-01-19T17:18:47Z</time>
      </trkpt>
      <trkpt lat="-23.415124" lon="-45.482040">
        <ele>710.008</ele>
        <time>2020-01-19T17:18:49Z</time>
      </trkpt>
      <trkpt lat="-23.415061" lon="-45.482014">
        <ele>709.928</ele>
        <time>2020-01-19T17:18:51Z</time>
      </trkpt>
      <trkpt lat="-23.415029" lon="-45.481971">
        <ele>710.689</ele>
        <time>2020-01-19T17:18:57Z</time>
      </trkpt>
      <trkpt lat="-23.414993" lon="-45.481928">
        <ele>711.231</ele>
        <time>2020-01-19T17:19:00Z</time>
      </trkpt>
      <trkpt lat="-23.414954" lon="-45.481890">
        <ele>711.515</ele>
        <time>2020-01-19T17:19:03Z</time>
      </trkpt>
      <trkpt lat="-23.414918" lon="-45.481861">
        <ele>711.491</ele>
        <time>2020-01-19T17:19:05Z</time>
      </trkpt>
      <trkpt lat="-23.414918" lon="-45.481861">
        <ele>711.415</ele>
        <time>2020-01-19T17:19:05Z</time>
      </trkpt>
      <trkpt lat="-23.414918" lon="-45.481861">
        <ele>711.418</ele>
        <time>2020-01-19T17:19:05Z</time>
      </trkpt>
      <trkpt lat="-23.414872" lon="-45.481830">
        <ele>711.528</ele>
        <time>2020-01-19T17:19:07Z</time>
      </trkpt>
      <trkpt lat="-23.414813" lon="-45.481790">
        <ele>711.757</ele>
        <time>2020-01-19T17:19:09Z</time>
      </trkpt>
      <trkpt lat="-23.414770" lon="-45.481751">
        <ele>712.000</ele>
        <time>2020-01-19T17:19:11Z</time>
      </trkpt>
      <trkpt lat="-23.414728" lon="-45.481705">
        <ele>712.220</ele>
        <time>2020-01-19T17:19:13Z</time>
      </trkpt>
      <trkpt lat="-23.414689" lon="-45.481669">
        <ele>712.208</ele>
        <time>2020-01-19T17:19:14Z</time>
      </trkpt>
      <trkpt lat="-23.414639" lon="-45.481619">
        <ele>711.729</ele>
        <time>2020-01-19T17:19:16Z</time>
      </trkpt>
      <trkpt lat="-23.414563" lon="-45.481531">
        <ele>710.680</ele>
        <time>2020-01-19T17:19:18Z</time>
      </trkpt>
      <trkpt lat="-23.414527" lon="-45.481486">
        <ele>710.052</ele>
        <time>2020-01-19T17:19:19Z</time>
      </trkpt>
      <trkpt lat="-23.414488" lon="-45.481438">
        <ele>709.756</ele>
        <time>2020-01-19T17:19:20Z</time>
      </trkpt>
      <trkpt lat="-23.414444" lon="-45.481393">
        <ele>709.652</ele>
        <time>2020-01-19T17:19:21Z</time>
      </trkpt>
      <trkpt lat="-23.414403" lon="-45.481348">
        <ele>709.626</ele>
        <time>2020-01-19T17:19:22Z</time>
      </trkpt>
      <trkpt lat="-23.414363" lon="-45.481307">
        <ele>709.539</ele>
        <time>2020-01-19T17:19:23Z</time>
      </trkpt>
      <trkpt lat="-23.414324" lon="-45.481265">
        <ele>709.549</ele>
        <time>2020-01-19T17:19:24Z</time>
      </trkpt>
      <trkpt lat="-23.414288" lon="-45.481224">
        <ele>709.556</ele>
        <time>2020-01-19T17:19:25Z</time>
      </trkpt>
      <trkpt lat="-23.414250" lon="-45.481189">
        <ele>709.359</ele>
        <time>2020-01-19T17:19:26Z</time>
      </trkpt>
      <trkpt lat="-23.414192" lon="-45.481128">
        <ele>709.314</ele>
        <time>2020-01-19T17:19:28Z</time>
      </trkpt>
      <trkpt lat="-23.414155" lon="-45.481091">
        <ele>709.208</ele>
        <time>2020-01-19T17:19:29Z</time>
      </trkpt>
      <trkpt lat="-23.414122" lon="-45.481052">
        <ele>709.119</ele>
        <time>2020-01-19T17:19:30Z</time>
      </trkpt>
      <trkpt lat="-23.414091" lon="-45.481014">
        <ele>708.810</ele>
        <time>2020-01-19T17:19:31Z</time>
      </trkpt>
      <trkpt lat="-23.414036" lon="-45.480971">
        <ele>708.962</ele>
        <time>2020-01-19T17:19:33Z</time>
      </trkpt>
      <trkpt lat="-23.413973" lon="-45.480907">
        <ele>709.226</ele>
        <time>2020-01-19T17:19:34Z</time>
      </trkpt>
      <trkpt lat="-23.413922" lon="-45.480878">
        <ele>709.182</ele>
        <time>2020-01-19T17:19:36Z</time>
      </trkpt>
      <trkpt lat="-23.413880" lon="-45.480827">
        <ele>708.946</ele>
        <time>2020-01-19T17:19:38Z</time>
      </trkpt>
      <trkpt lat="-23.413834" lon="-45.480778">
        <ele>708.619</ele>
        <time>2020-01-19T17:19:39Z</time>
      </trkpt>
      <trkpt lat="-23.413789" lon="-45.480730">
        <ele>708.599</ele>
        <time>2020-01-19T17:19:41Z</time>
      </trkpt>
      <trkpt lat="-23.413751" lon="-45.480688">
        <ele>708.443</ele>
        <time>2020-01-19T17:19:43Z</time>
      </trkpt>
      <trkpt lat="-23.413689" lon="-45.480630">
        <ele>708.564</ele>
        <time>2020-01-19T17:19:45Z</time>
      </trkpt>
      <trkpt lat="-23.413654" lon="-45.480562">
        <ele>708.210</ele>
        <time>2020-01-19T17:19:47Z</time>
      </trkpt>
      <trkpt lat="-23.413627" lon="-45.480520">
        <ele>707.808</ele>
        <time>2020-01-19T17:19:49Z</time>
      </trkpt>
      <trkpt lat="-23.413592" lon="-45.480452">
        <ele>707.798</ele>
        <time>2020-01-19T17:19:51Z</time>
      </trkpt>
      <trkpt lat="-23.413565" lon="-45.480396">
        <ele>707.689</ele>
        <time>2020-01-19T17:19:53Z</time>
      </trkpt>
      <trkpt lat="-23.413549" lon="-45.480343">
        <ele>707.721</ele>
        <time>2020-01-19T17:19:55Z</time>
      </trkpt>
      <trkpt lat="-23.413529" lon="-45.480286">
        <ele>707.825</ele>
        <time>2020-01-19T17:19:57Z</time>
      </trkpt>
      <trkpt lat="-23.413514" lon="-45.480239">
        <ele>707.761</ele>
        <time>2020-01-19T17:19:59Z</time>
      </trkpt>
      <trkpt lat="-23.413496" lon="-45.480189">
        <ele>707.435</ele>
        <time>2020-01-19T17:20:01Z</time>
      </trkpt>
      <trkpt lat="-23.413476" lon="-45.480143">
        <ele>705.948</ele>
        <time>2020-01-19T17:20:04Z</time>
      </trkpt>
      <trkpt lat="-23.413462" lon="-45.480089">
        <ele>704.128</ele>
        <time>2020-01-19T17:20:06Z</time>
      </trkpt>
      <trkpt lat="-23.413447" lon="-45.480028">
        <ele>702.549</ele>
        <time>2020-01-19T17:20:09Z</time>
      </trkpt>
      <trkpt lat="-23.413424" lon="-45.479974">
        <ele>702.502</ele>
        <time>2020-01-19T17:20:10Z</time>
      </trkpt>
      <trkpt lat="-23.413408" lon="-45.479921">
        <ele>702.422</ele>
        <time>2020-01-19T17:20:13Z</time>
      </trkpt>
      <trkpt lat="-23.413403" lon="-45.479869">
        <ele>703.308</ele>
        <time>2020-01-19T17:20:15Z</time>
      </trkpt>
      <trkpt lat="-23.413392" lon="-45.479812">
        <ele>704.138</ele>
        <time>2020-01-19T17:20:17Z</time>
      </trkpt>
      <trkpt lat="-23.413385" lon="-45.479753">
        <ele>704.719</ele>
        <time>2020-01-19T17:20:19Z</time>
      </trkpt>
      <trkpt lat="-23.413377" lon="-45.479699">
        <ele>705.091</ele>
        <time>2020-01-19T17:20:21Z</time>
      </trkpt>
      <trkpt lat="-23.413368" lon="-45.479647">
        <ele>705.355</ele>
        <time>2020-01-19T17:20:24Z</time>
      </trkpt>
      <trkpt lat="-23.413357" lon="-45.479581">
        <ele>706.011</ele>
        <time>2020-01-19T17:20:27Z</time>
      </trkpt>
      <trkpt lat="-23.413342" lon="-45.479498">
        <ele>706.185</ele>
        <time>2020-01-19T17:20:29Z</time>
      </trkpt>
      <trkpt lat="-23.413330" lon="-45.479429">
        <ele>706.338</ele>
        <time>2020-01-19T17:20:30Z</time>
      </trkpt>
      <trkpt lat="-23.413319" lon="-45.479363">
        <ele>706.278</ele>
        <time>2020-01-19T17:20:32Z</time>
      </trkpt>
      <trkpt lat="-23.413310" lon="-45.479307">
        <ele>706.255</ele>
        <time>2020-01-19T17:20:34Z</time>
      </trkpt>
      <trkpt lat="-23.413302" lon="-45.479250">
        <ele>706.107</ele>
        <time>2020-01-19T17:20:35Z</time>
      </trkpt>
      <trkpt lat="-23.413290" lon="-45.479197">
        <ele>705.917</ele>
        <time>2020-01-19T17:20:37Z</time>
      </trkpt>
      <trkpt lat="-23.413269" lon="-45.479106">
        <ele>705.308</ele>
        <time>2020-01-19T17:20:39Z</time>
      </trkpt>
      <trkpt lat="-23.413256" lon="-45.479050">
        <ele>705.159</ele>
        <time>2020-01-19T17:20:40Z</time>
      </trkpt>
      <trkpt lat="-23.413238" lon="-45.478987">
        <ele>704.980</ele>
        <time>2020-01-19T17:20:42Z</time>
      </trkpt>
      <trkpt lat="-23.413209" lon="-45.478913">
        <ele>704.342</ele>
        <time>2020-01-19T17:20:44Z</time>
      </trkpt>
      <trkpt lat="-23.413181" lon="-45.478837">
        <ele>704.656</ele>
        <time>2020-01-19T17:20:46Z</time>
      </trkpt>
      <trkpt lat="-23.413151" lon="-45.478774">
        <ele>704.582</ele>
        <time>2020-01-19T17:20:48Z</time>
      </trkpt>
      <trkpt lat="-23.413129" lon="-45.478727">
        <ele>705.056</ele>
        <time>2020-01-19T17:20:49Z</time>
      </trkpt>
      <trkpt lat="-23.413099" lon="-45.478682">
        <ele>705.689</ele>
        <time>2020-01-19T17:20:52Z</time>
      </trkpt>
      <trkpt lat="-23.413072" lon="-45.478631">
        <ele>706.029</ele>
        <time>2020-01-19T17:20:55Z</time>
      </trkpt>
      <trkpt lat="-23.413038" lon="-45.478572">
        <ele>705.725</ele>
        <time>2020-01-19T17:20:58Z</time>
      </trkpt>
      <trkpt lat="-23.413026" lon="-45.478525">
        <ele>705.626</ele>
        <time>2020-01-19T17:21:00Z</time>
      </trkpt>
      <trkpt lat="-23.413003" lon="-45.478467">
        <ele>705.208</ele>
        <time>2020-01-19T17:21:03Z</time>
      </trkpt>
      <trkpt lat="-23.412982" lon="-45.478423">
        <ele>705.208</ele>
        <time>2020-01-19T17:21:05Z</time>
      </trkpt>
      <trkpt lat="-23.412964" lon="-45.478377">
        <ele>704.986</ele>
        <time>2020-01-19T17:21:07Z</time>
      </trkpt>
      <trkpt lat="-23.412950" lon="-45.478327">
        <ele>705.267</ele>
        <time>2020-01-19T17:21:09Z</time>
      </trkpt>
      <trkpt lat="-23.412932" lon="-45.478268">
        <ele>705.049</ele>
        <time>2020-01-19T17:21:12Z</time>
      </trkpt>
      <trkpt lat="-23.412926" lon="-45.478214">
        <ele>705.273</ele>
        <time>2020-01-19T17:21:14Z</time>
      </trkpt>
      <trkpt lat="-23.412913" lon="-45.478158">
        <ele>705.639</ele>
        <time>2020-01-19T17:21:16Z</time>
      </trkpt>
      <trkpt lat="-23.412906" lon="-45.478098">
        <ele>705.843</ele>
        <time>2020-01-19T17:21:18Z</time>
      </trkpt>
      <trkpt lat="-23.412903" lon="-45.478047">
        <ele>706.116</ele>
        <time>2020-01-19T17:21:20Z</time>
      </trkpt>
      <trkpt lat="-23.412913" lon="-45.477991">
        <ele>706.576</ele>
        <time>2020-01-19T17:21:22Z</time>
      </trkpt>
      <trkpt lat="-23.412932" lon="-45.477940">
        <ele>706.755</ele>
        <time>2020-01-19T17:21:25Z</time>
      </trkpt>
      <trkpt lat="-23.412975" lon="-45.477902">
        <ele>707.007</ele>
        <time>2020-01-19T17:21:28Z</time>
      </trkpt>
      <trkpt lat="-23.413017" lon="-45.477869">
        <ele>706.717</ele>
        <time>2020-01-19T17:21:30Z</time>
      </trkpt>
      <trkpt lat="-23.413061" lon="-45.477842">
        <ele>706.608</ele>
        <time>2020-01-19T17:21:32Z</time>
      </trkpt>
      <trkpt lat="-23.413108" lon="-45.477822">
        <ele>706.759</ele>
        <time>2020-01-19T17:21:34Z</time>
      </trkpt>
      <trkpt lat="-23.413152" lon="-45.477810">
        <ele>706.620</ele>
        <time>2020-01-19T17:21:36Z</time>
      </trkpt>
      <trkpt lat="-23.413197" lon="-45.477802">
        <ele>706.712</ele>
        <time>2020-01-19T17:21:38Z</time>
      </trkpt>
      <trkpt lat="-23.413246" lon="-45.477806">
        <ele>706.416</ele>
        <time>2020-01-19T17:21:40Z</time>
      </trkpt>
      <trkpt lat="-23.413295" lon="-45.477814">
        <ele>706.332</ele>
        <time>2020-01-19T17:21:42Z</time>
      </trkpt>
      <trkpt lat="-23.413360" lon="-45.477825">
        <ele>706.216</ele>
        <time>2020-01-19T17:21:45Z</time>
      </trkpt>
      <trkpt lat="-23.413419" lon="-45.477829">
        <ele>705.739</ele>
        <time>2020-01-19T17:21:48Z</time>
      </trkpt>
      <trkpt lat="-23.413466" lon="-45.477838">
        <ele>705.719</ele>
        <time>2020-01-19T17:21:51Z</time>
      </trkpt>
      <trkpt lat="-23.413515" lon="-45.477842">
        <ele>704.985</ele>
        <time>2020-01-19T17:21:53Z</time>
      </trkpt>
      <trkpt lat="-23.413560" lon="-45.477848">
        <ele>704.889</ele>
        <time>2020-01-19T17:21:55Z</time>
      </trkpt>
      <trkpt lat="-23.413613" lon="-45.477849">
        <ele>704.817</ele>
        <time>2020-01-19T17:21:58Z</time>
      </trkpt>
      <trkpt lat="-23.413662" lon="-45.477847">
        <ele>705.508</ele>
        <time>2020-01-19T17:22:00Z</time>
      </trkpt>
      <trkpt lat="-23.413710" lon="-45.477837">
        <ele>706.112</ele>
        <time>2020-01-19T17:22:02Z</time>
      </trkpt>
      <trkpt lat="-23.413756" lon="-45.477831">
        <ele>706.943</ele>
        <time>2020-01-19T17:22:04Z</time>
      </trkpt>
      <trkpt lat="-23.413808" lon="-45.477822">
        <ele>707.475</ele>
        <time>2020-01-19T17:22:07Z</time>
      </trkpt>
      <trkpt lat="-23.413852" lon="-45.477810">
        <ele>707.799</ele>
        <time>2020-01-19T17:22:09Z</time>
      </trkpt>
      <trkpt lat="-23.413901" lon="-45.477786">
        <ele>707.945</ele>
        <time>2020-01-19T17:22:12Z</time>
      </trkpt>
      <trkpt lat="-23.413941" lon="-45.477762">
        <ele>707.989</ele>
        <time>2020-01-19T17:22:14Z</time>
      </trkpt>
      <trkpt lat="-23.413983" lon="-45.477736">
        <ele>708.112</ele>
        <time>2020-01-19T17:22:16Z</time>
      </trkpt>
      <trkpt lat="-23.414024" lon="-45.477709">
        <ele>709.092</ele>
        <time>2020-01-19T17:22:18Z</time>
      </trkpt>
      <trkpt lat="-23.414074" lon="-45.477675">
        <ele>709.548</ele>
        <time>2020-01-19T17:22:20Z</time>
      </trkpt>
      <trkpt lat="-23.414118" lon="-45.477656">
        <ele>709.961</ele>
        <time>2020-01-19T17:22:23Z</time>
      </trkpt>
      <trkpt lat="-23.414164" lon="-45.477639">
        <ele>710.017</ele>
        <time>2020-01-19T17:22:24Z</time>
      </trkpt>
      <trkpt lat="-23.414207" lon="-45.477625">
        <ele>709.808</ele>
        <time>2020-01-19T17:22:26Z</time>
      </trkpt>
      <trkpt lat="-23.414260" lon="-45.477602">
        <ele>709.758</ele>
        <time>2020-01-19T17:22:29Z</time>
      </trkpt>
      <trkpt lat="-23.414311" lon="-45.477575">
        <ele>710.239</ele>
        <time>2020-01-19T17:22:32Z</time>
      </trkpt>
      <trkpt lat="-23.414353" lon="-45.477554">
        <ele>711.271</ele>
        <time>2020-01-19T17:22:34Z</time>
      </trkpt>
      <trkpt lat="-23.414401" lon="-45.477528">
        <ele>712.385</ele>
        <time>2020-01-19T17:22:37Z</time>
      </trkpt>
      <trkpt lat="-23.414449" lon="-45.477513">
        <ele>713.031</ele>
        <time>2020-01-19T17:22:40Z</time>
      </trkpt>
      <trkpt lat="-23.414500" lon="-45.477503">
        <ele>713.715</ele>
        <time>2020-01-19T17:22:44Z</time>
      </trkpt>
      <trkpt lat="-23.414550" lon="-45.477491">
        <ele>714.228</ele>
        <time>2020-01-19T17:22:47Z</time>
      </trkpt>
      <trkpt lat="-23.414607" lon="-45.477488">
        <ele>714.678</ele>
        <time>2020-01-19T17:22:50Z</time>
      </trkpt>
      <trkpt lat="-23.414652" lon="-45.477489">
        <ele>715.065</ele>
        <time>2020-01-19T17:22:53Z</time>
      </trkpt>
      <trkpt lat="-23.414702" lon="-45.477492">
        <ele>715.068</ele>
        <time>2020-01-19T17:22:55Z</time>
      </trkpt>
      <trkpt lat="-23.414748" lon="-45.477499">
        <ele>714.914</ele>
        <time>2020-01-19T17:22:58Z</time>
      </trkpt>
      <trkpt lat="-23.414807" lon="-45.477512">
        <ele>714.708</ele>
        <time>2020-01-19T17:23:01Z</time>
      </trkpt>
      <trkpt lat="-23.414852" lon="-45.477527">
        <ele>714.510</ele>
        <time>2020-01-19T17:23:04Z</time>
      </trkpt>
      <trkpt lat="-23.414905" lon="-45.477528">
        <ele>714.461</ele>
        <time>2020-01-19T17:23:07Z</time>
      </trkpt>
      <trkpt lat="-23.414956" lon="-45.477528">
        <ele>714.073</ele>
        <time>2020-01-19T17:23:10Z</time>
      </trkpt>
      <trkpt lat="-23.415016" lon="-45.477528">
        <ele>713.997</ele>
        <time>2020-01-19T17:23:13Z</time>
      </trkpt>
      <trkpt lat="-23.415062" lon="-45.477526">
        <ele>713.653</ele>
        <time>2020-01-19T17:23:15Z</time>
      </trkpt>
      <trkpt lat="-23.415107" lon="-45.477526">
        <ele>713.947</ele>
        <time>2020-01-19T17:23:17Z</time>
      </trkpt>
      <trkpt lat="-23.415159" lon="-45.477527">
        <ele>714.240</ele>
        <time>2020-01-19T17:23:19Z</time>
      </trkpt>
      <trkpt lat="-23.415214" lon="-45.477529">
        <ele>714.770</ele>
        <time>2020-01-19T17:23:22Z</time>
      </trkpt>
      <trkpt lat="-23.415259" lon="-45.477528">
        <ele>715.485</ele>
        <time>2020-01-19T17:23:26Z</time>
      </trkpt>
      <trkpt lat="-23.415308" lon="-45.477527">
        <ele>715.589</ele>
        <time>2020-01-19T17:23:29Z</time>
      </trkpt>
      <trkpt lat="-23.415354" lon="-45.477520">
        <ele>715.617</ele>
        <time>2020-01-19T17:23:31Z</time>
      </trkpt>
      <trkpt lat="-23.415403" lon="-45.477518">
        <ele>716.108</ele>
        <time>2020-01-19T17:23:35Z</time>
      </trkpt>
      <trkpt lat="-23.415459" lon="-45.477513">
        <ele>716.222</ele>
        <time>2020-01-19T17:23:39Z</time>
      </trkpt>
      <trkpt lat="-23.415506" lon="-45.477522">
        <ele>716.713</ele>
        <time>2020-01-19T17:23:42Z</time>
      </trkpt>
      <trkpt lat="-23.415551" lon="-45.477521">
        <ele>717.615</ele>
        <time>2020-01-19T17:23:45Z</time>
      </trkpt>
      <trkpt lat="-23.415601" lon="-45.477514">
        <ele>718.469</ele>
        <time>2020-01-19T17:23:48Z</time>
      </trkpt>
      <trkpt lat="-23.415646" lon="-45.477518">
        <ele>718.955</ele>
        <time>2020-01-19T17:23:51Z</time>
      </trkpt>
      <trkpt lat="-23.415701" lon="-45.477513">
        <ele>718.779</ele>
        <time>2020-01-19T17:23:53Z</time>
      </trkpt>
      <trkpt lat="-23.415748" lon="-45.477525">
        <ele>718.882</ele>
        <time>2020-01-19T17:23:56Z</time>
      </trkpt>
      <trkpt lat="-23.415793" lon="-45.477539">
        <ele>718.672</ele>
        <time>2020-01-19T17:23:58Z</time>
      </trkpt>
      <trkpt lat="-23.415839" lon="-45.477549">
        <ele>718.486</ele>
        <time>2020-01-19T17:24:00Z</time>
      </trkpt>
      <trkpt lat="-23.415898" lon="-45.477555">
        <ele>718.760</ele>
        <time>2020-01-19T17:24:02Z</time>
      </trkpt>
      <trkpt lat="-23.415946" lon="-45.477564">
        <ele>719.726</ele>
        <time>2020-01-19T17:24:04Z</time>
      </trkpt>
      <trkpt lat="-23.415992" lon="-45.477567">
        <ele>720.108</ele>
        <time>2020-01-19T17:24:05Z</time>
      </trkpt>
      <trkpt lat="-23.416047" lon="-45.477571">
        <ele>721.242</ele>
        <time>2020-01-19T17:24:07Z</time>
      </trkpt>
      <trkpt lat="-23.416095" lon="-45.477580">
        <ele>721.653</ele>
        <time>2020-01-19T17:24:09Z</time>
      </trkpt>
      <trkpt lat="-23.416151" lon="-45.477591">
        <ele>720.525</ele>
        <time>2020-01-19T17:24:10Z</time>
      </trkpt>
      <trkpt lat="-23.416240" lon="-45.477552">
        <ele>719.829</ele>
        <time>2020-01-19T17:24:12Z</time>
      </trkpt>
      <trkpt lat="-23.416278" lon="-45.477505">
        <ele>719.435</ele>
        <time>2020-01-19T17:24:13Z</time>
      </trkpt>
      <trkpt lat="-23.416303" lon="-45.477461">
        <ele>719.079</ele>
        <time>2020-01-19T17:24:14Z</time>
      </trkpt>
      <trkpt lat="-23.416288" lon="-45.477397">
        <ele>719.052</ele>
        <time>2020-01-19T17:24:15Z</time>
      </trkpt>
      <trkpt lat="-23.416278" lon="-45.477332">
        <ele>719.632</ele>
        <time>2020-01-19T17:24:16Z</time>
      </trkpt>
      <trkpt lat="-23.416256" lon="-45.477264">
        <ele>720.385</ele>
        <time>2020-01-19T17:24:17Z</time>
      </trkpt>
      <trkpt lat="-23.416227" lon="-45.477193">
        <ele>721.089</ele>
        <time>2020-01-19T17:24:18Z</time>
      </trkpt>
      <trkpt lat="-23.416206" lon="-45.477127">
        <ele>721.417</ele>
        <time>2020-01-19T17:24:19Z</time>
      </trkpt>
      <trkpt lat="-23.416183" lon="-45.477062">
        <ele>721.408</ele>
        <time>2020-01-19T17:24:20Z</time>
      </trkpt>
      <trkpt lat="-23.416157" lon="-45.477000">
        <ele>721.392</ele>
        <time>2020-01-19T17:24:21Z</time>
      </trkpt>
      <trkpt lat="-23.416129" lon="-45.476935">
        <ele>721.353</ele>
        <time>2020-01-19T17:24:22Z</time>
      </trkpt>
      <trkpt lat="-23.416098" lon="-45.476871">
        <ele>721.765</ele>
        <time>2020-01-19T17:24:23Z</time>
      </trkpt>
      <trkpt lat="-23.416067" lon="-45.476810">
        <ele>722.019</ele>
        <time>2020-01-19T17:24:24Z</time>
      </trkpt>
      <trkpt lat="-23.416034" lon="-45.476755">
        <ele>722.055</ele>
        <time>2020-01-19T17:24:25Z</time>
      </trkpt>
      <trkpt lat="-23.416001" lon="-45.476699">
        <ele>721.759</ele>
        <time>2020-01-19T17:24:26Z</time>
      </trkpt>
      <trkpt lat="-23.415968" lon="-45.476645">
        <ele>721.762</ele>
        <time>2020-01-19T17:24:27Z</time>
      </trkpt>
      <trkpt lat="-23.415937" lon="-45.476598">
        <ele>721.482</ele>
        <time>2020-01-19T17:24:28Z</time>
      </trkpt>
      <trkpt lat="-23.415905" lon="-45.476555">
        <ele>721.611</ele>
        <time>2020-01-19T17:24:29Z</time>
      </trkpt>
      <trkpt lat="-23.415875" lon="-45.476516">
        <ele>721.321</ele>
        <time>2020-01-19T17:24:30Z</time>
      </trkpt>
      <trkpt lat="-23.415845" lon="-45.476478">
        <ele>721.303</ele>
        <time>2020-01-19T17:24:31Z</time>
      </trkpt>
      <trkpt lat="-23.415784" lon="-45.476421">
        <ele>720.408</ele>
        <time>2020-01-19T17:24:33Z</time>
      </trkpt>
      <trkpt lat="-23.415729" lon="-45.476374">
        <ele>719.545</ele>
        <time>2020-01-19T17:24:35Z</time>
      </trkpt>
      <trkpt lat="-23.415684" lon="-45.476340">
        <ele>718.586</ele>
        <time>2020-01-19T17:24:37Z</time>
      </trkpt>
      <trkpt lat="-23.415629" lon="-45.476314">
        <ele>717.968</ele>
        <time>2020-01-19T17:24:40Z</time>
      </trkpt>
      <trkpt lat="-23.415572" lon="-45.476282">
        <ele>716.762</ele>
        <time>2020-01-19T17:24:44Z</time>
      </trkpt>
      <trkpt lat="-23.415521" lon="-45.476257">
        <ele>715.678</ele>
        <time>2020-01-19T17:24:46Z</time>
      </trkpt>
      <trkpt lat="-23.415475" lon="-45.476226">
        <ele>714.522</ele>
        <time>2020-01-19T17:24:49Z</time>
      </trkpt>
      <trkpt lat="-23.415418" lon="-45.476188">
        <ele>714.025</ele>
        <time>2020-01-19T17:24:52Z</time>
      </trkpt>
      <trkpt lat="-23.415380" lon="-45.476157">
        <ele>713.665</ele>
        <time>2020-01-19T17:24:54Z</time>
      </trkpt>
      <trkpt lat="-23.415327" lon="-45.476123">
        <ele>713.621</ele>
        <time>2020-01-19T17:24:57Z</time>
      </trkpt>
      <trkpt lat="-23.415284" lon="-45.476091">
        <ele>713.641</ele>
        <time>2020-01-19T17:24:59Z</time>
      </trkpt>
      <trkpt lat="-23.415227" lon="-45.476056">
        <ele>713.005</ele>
        <time>2020-01-19T17:25:02Z</time>
      </trkpt>
      <trkpt lat="-23.415186" lon="-45.476026">
        <ele>712.708</ele>
        <time>2020-01-19T17:25:04Z</time>
      </trkpt>
      <trkpt lat="-23.415140" lon="-45.475994">
        <ele>712.766</ele>
        <time>2020-01-19T17:25:06Z</time>
      </trkpt>
      <trkpt lat="-23.415096" lon="-45.475971">
        <ele>712.247</ele>
        <time>2020-01-19T17:25:08Z</time>
      </trkpt>
      <trkpt lat="-23.415046" lon="-45.475949">
        <ele>712.029</ele>
        <time>2020-01-19T17:25:11Z</time>
      </trkpt>
      <trkpt lat="-23.414997" lon="-45.475920">
        <ele>712.153</ele>
        <time>2020-01-19T17:25:13Z</time>
      </trkpt>
      <trkpt lat="-23.414950" lon="-45.475897">
        <ele>712.319</ele>
        <time>2020-01-19T17:25:16Z</time>
      </trkpt>
      <trkpt lat="-23.414897" lon="-45.475877">
        <ele>712.583</ele>
        <time>2020-01-19T17:25:18Z</time>
      </trkpt>
      <trkpt lat="-23.414854" lon="-45.475861">
        <ele>712.816</ele>
        <time>2020-01-19T17:25:20Z</time>
      </trkpt>
      <trkpt lat="-23.414808" lon="-45.475833">
        <ele>712.766</ele>
        <time>2020-01-19T17:25:23Z</time>
      </trkpt>
      <trkpt lat="-23.414756" lon="-45.475797">
        <ele>713.569</ele>
        <time>2020-01-19T17:25:26Z</time>
      </trkpt>
      <trkpt lat="-23.414710" lon="-45.475775">
        <ele>714.104</ele>
        <time>2020-01-19T17:25:29Z</time>
      </trkpt>
      <trkpt lat="-23.414659" lon="-45.475749">
        <ele>715.424</ele>
        <time>2020-01-19T17:25:32Z</time>
      </trkpt>
      <trkpt lat="-23.414621" lon="-45.475718">
        <ele>716.308</ele>
        <time>2020-01-19T17:25:34Z</time>
      </trkpt>
      <trkpt lat="-23.414583" lon="-45.475691">
        <ele>716.480</ele>
        <time>2020-01-19T17:25:37Z</time>
      </trkpt>
      <trkpt lat="-23.414541" lon="-45.475655">
        <ele>716.451</ele>
        <time>2020-01-19T17:25:40Z</time>
      </trkpt>
      <trkpt lat="-23.414502" lon="-45.475622">
        <ele>716.233</ele>
        <time>2020-01-19T17:25:43Z</time>
      </trkpt>
      <trkpt lat="-23.414454" lon="-45.475607">
        <ele>716.637</ele>
        <time>2020-01-19T17:25:45Z</time>
      </trkpt>
      <trkpt lat="-23.414403" lon="-45.475594">
        <ele>717.013</ele>
        <time>2020-01-19T17:25:47Z</time>
      </trkpt>
      <trkpt lat="-23.414356" lon="-45.475604">
        <ele>717.457</ele>
        <time>2020-01-19T17:25:50Z</time>
      </trkpt>
      <trkpt lat="-23.414310" lon="-45.475590">
        <ele>717.710</ele>
        <time>2020-01-19T17:25:52Z</time>
      </trkpt>
      <trkpt lat="-23.414264" lon="-45.475570">
        <ele>718.140</ele>
        <time>2020-01-19T17:25:55Z</time>
      </trkpt>
      <trkpt lat="-23.414216" lon="-45.475547">
        <ele>718.492</ele>
        <time>2020-01-19T17:25:58Z</time>
      </trkpt>
      <trkpt lat="-23.414169" lon="-45.475533">
        <ele>719.173</ele>
        <time>2020-01-19T17:26:01Z</time>
      </trkpt>
      <trkpt lat="-23.414117" lon="-45.475518">
        <ele>719.320</ele>
        <time>2020-01-19T17:26:06Z</time>
      </trkpt>
      <trkpt lat="-23.414070" lon="-45.475501">
        <ele>719.208</ele>
        <time>2020-01-19T17:26:08Z</time>
      </trkpt>
      <trkpt lat="-23.414023" lon="-45.475479">
        <ele>719.863</ele>
        <time>2020-01-19T17:26:12Z</time>
      </trkpt>
      <trkpt lat="-23.413977" lon="-45.475451">
        <ele>720.634</ele>
        <time>2020-01-19T17:26:16Z</time>
      </trkpt>
      <trkpt lat="-23.413924" lon="-45.475427">
        <ele>721.936</ele>
        <time>2020-01-19T17:26:20Z</time>
      </trkpt>
      <trkpt lat="-23.413873" lon="-45.475417">
        <ele>722.460</ele>
        <time>2020-01-19T17:26:23Z</time>
      </trkpt>
      <trkpt lat="-23.413819" lon="-45.475400">
        <ele>723.596</ele>
        <time>2020-01-19T17:26:25Z</time>
      </trkpt>
      <trkpt lat="-23.413771" lon="-45.475379">
        <ele>724.380</ele>
        <time>2020-01-19T17:26:28Z</time>
      </trkpt>
      <trkpt lat="-23.413720" lon="-45.475357">
        <ele>724.563</ele>
        <time>2020-01-19T17:26:30Z</time>
      </trkpt>
      <trkpt lat="-23.413675" lon="-45.475341">
        <ele>723.683</ele>
        <time>2020-01-19T17:26:33Z</time>
      </trkpt>
      <trkpt lat="-23.413628" lon="-45.475329">
        <ele>722.731</ele>
        <time>2020-01-19T17:26:35Z</time>
      </trkpt>
      <trkpt lat="-23.413581" lon="-45.475314">
        <ele>721.661</ele>
        <time>2020-01-19T17:26:38Z</time>
      </trkpt>
      <trkpt lat="-23.413581" lon="-45.475314">
        <ele>721.607</ele>
        <time>2020-01-19T17:26:38Z</time>
      </trkpt>
      <trkpt lat="-23.413534" lon="-45.475299">
        <ele>720.708</ele>
        <time>2020-01-19T17:26:40Z</time>
      </trkpt>
      <trkpt lat="-23.413478" lon="-45.475287">
        <ele>720.447</ele>
        <time>2020-01-19T17:26:42Z</time>
      </trkpt>
      <trkpt lat="-23.413418" lon="-45.475286">
        <ele>719.928</ele>
        <time>2020-01-19T17:26:44Z</time>
      </trkpt>
      <trkpt lat="-23.413369" lon="-45.475279">
        <ele>718.740</ele>
        <time>2020-01-19T17:26:46Z</time>
      </trkpt>
      <trkpt lat="-23.413316" lon="-45.475284">
        <ele>717.944</ele>
        <time>2020-01-19T17:26:48Z</time>
      </trkpt>
      <trkpt lat="-23.413265" lon="-45.475291">
        <ele>717.950</ele>
        <time>2020-01-19T17:26:50Z</time>
      </trkpt>
      <trkpt lat="-23.413208" lon="-45.475290">
        <ele>718.664</ele>
        <time>2020-01-19T17:26:53Z</time>
      </trkpt>
      <trkpt lat="-23.413161" lon="-45.475295">
        <ele>719.357</ele>
        <time>2020-01-19T17:26:55Z</time>
      </trkpt>
      <trkpt lat="-23.413110" lon="-45.475303">
        <ele>719.177</ele>
        <time>2020-01-19T17:26:57Z</time>
      </trkpt>
      <trkpt lat="-23.413058" lon="-45.475311">
        <ele>718.987</ele>
        <time>2020-01-19T17:26:59Z</time>
      </trkpt>
      <trkpt lat="-23.412985" lon="-45.475326">
        <ele>718.942</ele>
        <time>2020-01-19T17:27:02Z</time>
      </trkpt>
      <trkpt lat="-23.412934" lon="-45.475332">
        <ele>718.526</ele>
        <time>2020-01-19T17:27:03Z</time>
      </trkpt>
      <trkpt lat="-23.412888" lon="-45.475338">
        <ele>718.208</ele>
        <time>2020-01-19T17:27:04Z</time>
      </trkpt>
      <trkpt lat="-23.412837" lon="-45.475339">
        <ele>717.372</ele>
        <time>2020-01-19T17:27:06Z</time>
      </trkpt>
      <trkpt lat="-23.412790" lon="-45.475340">
        <ele>717.133</ele>
        <time>2020-01-19T17:27:07Z</time>
      </trkpt>
      <trkpt lat="-23.412742" lon="-45.475342">
        <ele>717.495</ele>
        <time>2020-01-19T17:27:09Z</time>
      </trkpt>
      <trkpt lat="-23.412692" lon="-45.475334">
        <ele>717.759</ele>
        <time>2020-01-19T17:27:11Z</time>
      </trkpt>
      <trkpt lat="-23.412625" lon="-45.475318">
        <ele>718.115</ele>
        <time>2020-01-19T17:27:12Z</time>
      </trkpt>
      <trkpt lat="-23.412558" lon="-45.475299">
        <ele>718.429</ele>
        <time>2020-01-19T17:27:15Z</time>
      </trkpt>
      <trkpt lat="-23.412502" lon="-45.475272">
        <ele>718.182</ele>
        <time>2020-01-19T17:27:16Z</time>
      </trkpt>
      <trkpt lat="-23.412449" lon="-45.475238">
        <ele>717.982</ele>
        <time>2020-01-19T17:27:18Z</time>
      </trkpt>
      <trkpt lat="-23.412414" lon="-45.475205">
        <ele>717.711</ele>
        <time>2020-01-19T17:27:19Z</time>
      </trkpt>
      <trkpt lat="-23.412376" lon="-45.475153">
        <ele>717.621</ele>
        <time>2020-01-19T17:27:20Z</time>
      </trkpt>
      <trkpt lat="-23.412348" lon="-45.475094">
        <ele>717.803</ele>
        <time>2020-01-19T17:27:22Z</time>
      </trkpt>
      <trkpt lat="-23.412334" lon="-45.475008">
        <ele>717.908</ele>
        <time>2020-01-19T17:27:24Z</time>
      </trkpt>
      <trkpt lat="-23.412337" lon="-45.474921">
        <ele>718.025</ele>
        <time>2020-01-19T17:27:26Z</time>
      </trkpt>
      <trkpt lat="-23.412354" lon="-45.474863">
        <ele>718.066</ele>
        <time>2020-01-19T17:27:27Z</time>
      </trkpt>
      <trkpt lat="-23.412369" lon="-45.474811">
        <ele>717.918</ele>
        <time>2020-01-19T17:27:28Z</time>
      </trkpt>
      <trkpt lat="-23.412389" lon="-45.474759">
        <ele>717.812</ele>
        <time>2020-01-19T17:27:29Z</time>
      </trkpt>
      <trkpt lat="-23.412424" lon="-45.474693">
        <ele>717.678</ele>
        <time>2020-01-19T17:27:31Z</time>
      </trkpt>
      <trkpt lat="-23.412518" lon="-45.474582">
        <ele>717.572</ele>
        <time>2020-01-19T17:27:33Z</time>
      </trkpt>
      <trkpt lat="-23.412551" lon="-45.474535">
        <ele>717.555</ele>
        <time>2020-01-19T17:27:34Z</time>
      </trkpt>
      <trkpt lat="-23.412583" lon="-45.474491">
        <ele>717.495</ele>
        <time>2020-01-19T17:27:35Z</time>
      </trkpt>
      <trkpt lat="-23.412619" lon="-45.474448">
        <ele>717.598</ele>
        <time>2020-01-19T17:27:36Z</time>
      </trkpt>
      <trkpt lat="-23.412655" lon="-45.474405">
        <ele>717.815</ele>
        <time>2020-01-19T17:27:37Z</time>
      </trkpt>
      <trkpt lat="-23.412689" lon="-45.474360">
        <ele>717.926</ele>
        <time>2020-01-19T17:27:38Z</time>
      </trkpt>
      <trkpt lat="-23.412720" lon="-45.474312">
        <ele>717.908</ele>
        <time>2020-01-19T17:27:39Z</time>
      </trkpt>
      <trkpt lat="-23.412751" lon="-45.474268">
        <ele>717.673</ele>
        <time>2020-01-19T17:27:40Z</time>
      </trkpt>
      <trkpt lat="-23.412786" lon="-45.474225">
        <ele>717.374</ele>
        <time>2020-01-19T17:27:41Z</time>
      </trkpt>
      <trkpt lat="-23.412826" lon="-45.474181">
        <ele>716.766</ele>
        <time>2020-01-19T17:27:42Z</time>
      </trkpt>
      <trkpt lat="-23.412867" lon="-45.474135">
        <ele>716.030</ele>
        <time>2020-01-19T17:27:43Z</time>
      </trkpt>
      <trkpt lat="-23.412909" lon="-45.474091">
        <ele>715.436</ele>
        <time>2020-01-19T17:27:44Z</time>
      </trkpt>
      <trkpt lat="-23.412956" lon="-45.474051">
        <ele>714.890</ele>
        <time>2020-01-19T17:27:45Z</time>
      </trkpt>
      <trkpt lat="-23.412997" lon="-45.474014">
        <ele>714.393</ele>
        <time>2020-01-19T17:27:46Z</time>
      </trkpt>
      <trkpt lat="-23.413040" lon="-45.473977">
        <ele>713.973</ele>
        <time>2020-01-19T17:27:47Z</time>
      </trkpt>
      <trkpt lat="-23.413081" lon="-45.473942">
        <ele>713.646</ele>
        <time>2020-01-19T17:27:48Z</time>
      </trkpt>
      <trkpt lat="-23.413121" lon="-45.473907">
        <ele>713.288</ele>
        <time>2020-01-19T17:27:49Z</time>
      </trkpt>
      <trkpt lat="-23.413160" lon="-45.473875">
        <ele>712.816</ele>
        <time>2020-01-19T17:27:50Z</time>
      </trkpt>
      <trkpt lat="-23.413199" lon="-45.473844">
        <ele>712.508</ele>
        <time>2020-01-19T17:27:51Z</time>
      </trkpt>
      <trkpt lat="-23.413238" lon="-45.473815">
        <ele>712.168</ele>
        <time>2020-01-19T17:27:52Z</time>
      </trkpt>
      <trkpt lat="-23.413277" lon="-45.473788">
        <ele>711.739</ele>
        <time>2020-01-19T17:27:53Z</time>
      </trkpt>
      <trkpt lat="-23.413317" lon="-45.473761">
        <ele>711.641</ele>
        <time>2020-01-19T17:27:54Z</time>
      </trkpt>
      <trkpt lat="-23.413389" lon="-45.473709">
        <ele>711.565</ele>
        <time>2020-01-19T17:27:56Z</time>
      </trkpt>
      <trkpt lat="-23.413457" lon="-45.473661">
        <ele>711.281</ele>
        <time>2020-01-19T17:27:58Z</time>
      </trkpt>
      <trkpt lat="-23.413520" lon="-45.473619">
        <ele>710.865</ele>
        <time>2020-01-19T17:28:00Z</time>
      </trkpt>
      <trkpt lat="-23.413585" lon="-45.473582">
        <ele>710.038</ele>
        <time>2020-01-19T17:28:02Z</time>
      </trkpt>
      <trkpt lat="-23.413622" lon="-45.473553">
        <ele>709.328</ele>
        <time>2020-01-19T17:28:04Z</time>
      </trkpt>
      <trkpt lat="-23.413675" lon="-45.473533">
        <ele>708.528</ele>
        <time>2020-01-19T17:28:06Z</time>
      </trkpt>
      <trkpt lat="-23.413716" lon="-45.473508">
        <ele>708.589</ele>
        <time>2020-01-19T17:28:08Z</time>
      </trkpt>
      <trkpt lat="-23.413775" lon="-45.473475">
        <ele>708.217</ele>
        <time>2020-01-19T17:28:11Z</time>
      </trkpt>
      <trkpt lat="-23.413825" lon="-45.473449">
        <ele>708.608</ele>
        <time>2020-01-19T17:28:13Z</time>
      </trkpt>
      <trkpt lat="-23.413877" lon="-45.473421">
        <ele>709.536</ele>
        <time>2020-01-19T17:28:15Z</time>
      </trkpt>
      <trkpt lat="-23.413920" lon="-45.473403">
        <ele>709.787</ele>
        <time>2020-01-19T17:28:16Z</time>
      </trkpt>
      <trkpt lat="-23.413977" lon="-45.473390">
        <ele>710.039</ele>
        <time>2020-01-19T17:28:18Z</time>
      </trkpt>
      <trkpt lat="-23.414030" lon="-45.473378">
        <ele>710.613</ele>
        <time>2020-01-19T17:28:20Z</time>
      </trkpt>
      <trkpt lat="-23.414080" lon="-45.473361">
        <ele>711.299</ele>
        <time>2020-01-19T17:28:21Z</time>
      </trkpt>
      <trkpt lat="-23.414128" lon="-45.473343">
        <ele>711.663</ele>
        <time>2020-01-19T17:28:23Z</time>
      </trkpt>
      <trkpt lat="-23.414183" lon="-45.473311">
        <ele>712.146</ele>
        <time>2020-01-19T17:28:25Z</time>
      </trkpt>
      <trkpt lat="-23.414224" lon="-45.473272">
        <ele>712.686</ele>
        <time>2020-01-19T17:28:27Z</time>
      </trkpt>
      <trkpt lat="-23.414254" lon="-45.473230">
        <ele>712.975</ele>
        <time>2020-01-19T17:28:29Z</time>
      </trkpt>
      <trkpt lat="-23.414282" lon="-45.473182">
        <ele>713.228</ele>
        <time>2020-01-19T17:28:31Z</time>
      </trkpt>
      <trkpt lat="-23.414318" lon="-45.473137">
        <ele>713.820</ele>
        <time>2020-01-19T17:28:33Z</time>
      </trkpt>
      <trkpt lat="-23.414352" lon="-45.473101">
        <ele>714.008</ele>
        <time>2020-01-19T17:28:34Z</time>
      </trkpt>
      <trkpt lat="-23.414393" lon="-45.473069">
        <ele>713.911</ele>
        <time>2020-01-19T17:28:36Z</time>
      </trkpt>
      <trkpt lat="-23.414432" lon="-45.473039">
        <ele>713.832</ele>
        <time>2020-01-19T17:28:37Z</time>
      </trkpt>
      <trkpt lat="-23.414470" lon="-45.473011">
        <ele>713.834</ele>
        <time>2020-01-19T17:28:39Z</time>
      </trkpt>
      <trkpt lat="-23.414515" lon="-45.472981">
        <ele>713.718</ele>
        <time>2020-01-19T17:28:41Z</time>
      </trkpt>
      <trkpt lat="-23.414569" lon="-45.472950">
        <ele>713.364</ele>
        <time>2020-01-19T17:28:43Z</time>
      </trkpt>
      <trkpt lat="-23.414615" lon="-45.472917">
        <ele>713.148</ele>
        <time>2020-01-19T17:28:44Z</time>
      </trkpt>
      <trkpt lat="-23.414662" lon="-45.472894">
        <ele>713.121</ele>
        <time>2020-01-19T17:28:47Z</time>
      </trkpt>
      <trkpt lat="-23.414710" lon="-45.472877">
        <ele>712.751</ele>
        <time>2020-01-19T17:28:49Z</time>
      </trkpt>
      <trkpt lat="-23.414758" lon="-45.472870">
        <ele>712.661</ele>
        <time>2020-01-19T17:28:51Z</time>
      </trkpt>
      <trkpt lat="-23.414804" lon="-45.472865">
        <ele>712.821</ele>
        <time>2020-01-19T17:28:53Z</time>
      </trkpt>
      <trkpt lat="-23.414861" lon="-45.472859">
        <ele>713.013</ele>
        <time>2020-01-19T17:28:55Z</time>
      </trkpt>
      <trkpt lat="-23.414915" lon="-45.472861">
        <ele>713.108</ele>
        <time>2020-01-19T17:28:56Z</time>
      </trkpt>
      <trkpt lat="-23.414966" lon="-45.472856">
        <ele>713.170</ele>
        <time>2020-01-19T17:28:58Z</time>
      </trkpt>
      <trkpt lat="-23.415033" lon="-45.472850">
        <ele>713.521</ele>
        <time>2020-01-19T17:29:00Z</time>
      </trkpt>
      <trkpt lat="-23.415101" lon="-45.472835">
        <ele>713.743</ele>
        <time>2020-01-19T17:29:02Z</time>
      </trkpt>
      <trkpt lat="-23.415182" lon="-45.472805">
        <ele>713.597</ele>
        <time>2020-01-19T17:29:04Z</time>
      </trkpt>
      <trkpt lat="-23.415240" lon="-45.472781">
        <ele>713.433</ele>
        <time>2020-01-19T17:29:06Z</time>
      </trkpt>
      <trkpt lat="-23.415299" lon="-45.472753">
        <ele>713.317</ele>
        <time>2020-01-19T17:29:07Z</time>
      </trkpt>
      <trkpt lat="-23.415356" lon="-45.472731">
        <ele>713.060</ele>
        <time>2020-01-19T17:29:09Z</time>
      </trkpt>
      <trkpt lat="-23.415416" lon="-45.472697">
        <ele>712.930</ele>
        <time>2020-01-19T17:29:10Z</time>
      </trkpt>
      <trkpt lat="-23.415470" lon="-45.472670">
        <ele>712.716</ele>
        <time>2020-01-19T17:29:12Z</time>
      </trkpt>
      <trkpt lat="-23.415540" lon="-45.472633">
        <ele>712.476</ele>
        <time>2020-01-19T17:29:14Z</time>
      </trkpt>
      <trkpt lat="-23.415594" lon="-45.472605">
        <ele>712.013</ele>
        <time>2020-01-19T17:29:15Z</time>
      </trkpt>
      <trkpt lat="-23.415649" lon="-45.472577">
        <ele>711.608</ele>
        <time>2020-01-19T17:29:17Z</time>
      </trkpt>
      <trkpt lat="-23.415721" lon="-45.472547">
        <ele>711.135</ele>
        <time>2020-01-19T17:29:19Z</time>
      </trkpt>
      <trkpt lat="-23.415802" lon="-45.472522">
        <ele>710.626</ele>
        <time>2020-01-19T17:29:21Z</time>
      </trkpt>
      <trkpt lat="-23.415851" lon="-45.472505">
        <ele>710.258</ele>
        <time>2020-01-19T17:29:22Z</time>
      </trkpt>
      <trkpt lat="-23.415913" lon="-45.472485">
        <ele>710.052</ele>
        <time>2020-01-19T17:29:23Z</time>
      </trkpt>
      <trkpt lat="-23.415964" lon="-45.472467">
        <ele>709.858</ele>
        <time>2020-01-19T17:29:25Z</time>
      </trkpt>
      <trkpt lat="-23.416041" lon="-45.472437">
        <ele>709.422</ele>
        <time>2020-01-19T17:29:27Z</time>
      </trkpt>
      <trkpt lat="-23.416100" lon="-45.472417">
        <ele>709.695</ele>
        <time>2020-01-19T17:29:29Z</time>
      </trkpt>
      <trkpt lat="-23.416160" lon="-45.472396">
        <ele>709.855</ele>
        <time>2020-01-19T17:29:30Z</time>
      </trkpt>
      <trkpt lat="-23.416214" lon="-45.472381">
        <ele>710.467</ele>
        <time>2020-01-19T17:29:32Z</time>
      </trkpt>
      <trkpt lat="-23.416276" lon="-45.472363">
        <ele>711.681</ele>
        <time>2020-01-19T17:29:34Z</time>
      </trkpt>
      <trkpt lat="-23.416328" lon="-45.472351">
        <ele>712.419</ele>
        <time>2020-01-19T17:29:35Z</time>
      </trkpt>
      <trkpt lat="-23.416373" lon="-45.472342">
        <ele>712.908</ele>
        <time>2020-01-19T17:29:37Z</time>
      </trkpt>
      <trkpt lat="-23.416431" lon="-45.472332">
        <ele>713.290</ele>
        <time>2020-01-19T17:29:39Z</time>
      </trkpt>
      <trkpt lat="-23.416483" lon="-45.472323">
        <ele>713.361</ele>
        <time>2020-01-19T17:29:41Z</time>
      </trkpt>
      <trkpt lat="-23.416530" lon="-45.472313">
        <ele>713.493</ele>
        <time>2020-01-19T17:29:44Z</time>
      </trkpt>
      <trkpt lat="-23.416584" lon="-45.472298">
        <ele>713.137</ele>
        <time>2020-01-19T17:29:46Z</time>
      </trkpt>
      <trkpt lat="-23.416633" lon="-45.472285">
        <ele>712.873</ele>
        <time>2020-01-19T17:29:48Z</time>
      </trkpt>
      <trkpt lat="-23.416678" lon="-45.472271">
        <ele>712.627</ele>
        <time>2020-01-19T17:29:50Z</time>
      </trkpt>
      <trkpt lat="-23.416736" lon="-45.472254">
        <ele>712.860</ele>
        <time>2020-01-19T17:29:53Z</time>
      </trkpt>
      <trkpt lat="-23.416780" lon="-45.472245">
        <ele>713.490</ele>
        <time>2020-01-19T17:29:56Z</time>
      </trkpt>
      <trkpt lat="-23.416735" lon="-45.472236">
        <ele>709.478</ele>
        <time>2020-01-19T17:32:09Z</time>
      </trkpt>
      <trkpt lat="-23.416792" lon="-45.472248">
        <ele>707.733</ele>
        <time>2020-01-19T17:33:16Z</time>
      </trkpt>
      <trkpt lat="-23.416848" lon="-45.472226">
        <ele>706.526</ele>
        <time>2020-01-19T17:33:18Z</time>
      </trkpt>
      <trkpt lat="-23.416896" lon="-45.472209">
        <ele>706.608</ele>
        <time>2020-01-19T17:33:21Z</time>
      </trkpt>
      <trkpt lat="-23.416941" lon="-45.472191">
        <ele>706.821</ele>
        <time>2020-01-19T17:33:24Z</time>
      </trkpt>
      <trkpt lat="-23.416993" lon="-45.472174">
        <ele>707.792</ele>
        <time>2020-01-19T17:33:27Z</time>
      </trkpt>
      <trkpt lat="-23.417038" lon="-45.472161">
        <ele>708.624</ele>
        <time>2020-01-19T17:33:32Z</time>
      </trkpt>
      <trkpt lat="-23.417091" lon="-45.472160">
        <ele>709.968</ele>
        <time>2020-01-19T17:33:34Z</time>
      </trkpt>
      <trkpt lat="-23.417140" lon="-45.472144">
        <ele>711.274</ele>
        <time>2020-01-19T17:33:38Z</time>
      </trkpt>
      <trkpt lat="-23.417193" lon="-45.472140">
        <ele>712.598</ele>
        <time>2020-01-19T17:33:40Z</time>
      </trkpt>
      <trkpt lat="-23.417244" lon="-45.472137">
        <ele>713.261</ele>
        <time>2020-01-19T17:33:43Z</time>
      </trkpt>
      <trkpt lat="-23.417290" lon="-45.472121">
        <ele>713.561</ele>
        <time>2020-01-19T17:33:47Z</time>
      </trkpt>
      <trkpt lat="-23.417340" lon="-45.472107">
        <ele>713.969</ele>
        <time>2020-01-19T17:33:50Z</time>
      </trkpt>
      <trkpt lat="-23.417385" lon="-45.472101">
        <ele>714.004</ele>
        <time>2020-01-19T17:33:52Z</time>
      </trkpt>
      <trkpt lat="-23.417435" lon="-45.472098">
        <ele>714.324</ele>
        <time>2020-01-19T17:33:56Z</time>
      </trkpt>
      <trkpt lat="-23.417489" lon="-45.472093">
        <ele>714.308</ele>
        <time>2020-01-19T17:33:58Z</time>
      </trkpt>
      <trkpt lat="-23.417548" lon="-45.472091">
        <ele>714.560</ele>
        <time>2020-01-19T17:34:02Z</time>
      </trkpt>
      <trkpt lat="-23.417599" lon="-45.472093">
        <ele>715.541</ele>
        <time>2020-01-19T17:34:04Z</time>
      </trkpt>
      <trkpt lat="-23.417645" lon="-45.472092">
        <ele>716.113</ele>
        <time>2020-01-19T17:34:06Z</time>
      </trkpt>
      <trkpt lat="-23.417690" lon="-45.472084">
        <ele>716.167</ele>
        <time>2020-01-19T17:34:09Z</time>
      </trkpt>
      <trkpt lat="-23.417737" lon="-45.472076">
        <ele>716.613</ele>
        <time>2020-01-19T17:34:12Z</time>
      </trkpt>
      <trkpt lat="-23.417779" lon="-45.472056">
        <ele>717.297</ele>
        <time>2020-01-19T17:34:15Z</time>
      </trkpt>
      <trkpt lat="-23.417831" lon="-45.472032">
        <ele>718.360</ele>
        <time>2020-01-19T17:34:18Z</time>
      </trkpt>
      <trkpt lat="-23.417873" lon="-45.472008">
        <ele>718.520</ele>
        <time>2020-01-19T17:34:23Z</time>
      </trkpt>
      <trkpt lat="-23.417919" lon="-45.471984">
        <ele>718.765</ele>
        <time>2020-01-19T17:34:26Z</time>
      </trkpt>
      <trkpt lat="-23.417965" lon="-45.471973">
        <ele>718.968</ele>
        <time>2020-01-19T17:34:30Z</time>
      </trkpt>
      <trkpt lat="-23.418017" lon="-45.471960">
        <ele>716.814</ele>
        <time>2020-01-19T17:34:34Z</time>
      </trkpt>
      <trkpt lat="-23.418052" lon="-45.471924">
        <ele>715.508</ele>
        <time>2020-01-19T17:34:37Z</time>
      </trkpt>
      <trkpt lat="-23.418096" lon="-45.471900">
        <ele>715.720</ele>
        <time>2020-01-19T17:34:40Z</time>
      </trkpt>
      <trkpt lat="-23.418139" lon="-45.471880">
        <ele>716.471</ele>
        <time>2020-01-19T17:34:43Z</time>
      </trkpt>
      <trkpt lat="-23.418177" lon="-45.471850">
        <ele>717.043</ele>
        <time>2020-01-19T17:34:47Z</time>
      </trkpt>
      <trkpt lat="-23.418215" lon="-45.471813">
        <ele>718.067</ele>
        <time>2020-01-19T17:34:51Z</time>
      </trkpt>
      <trkpt lat="-23.418255" lon="-45.471781">
        <ele>718.583</ele>
        <time>2020-01-19T17:34:54Z</time>
      </trkpt>
      <trkpt lat="-23.418292" lon="-45.471747">
        <ele>720.147</ele>
        <time>2020-01-19T17:34:59Z</time>
      </trkpt>
      <trkpt lat="-23.418330" lon="-45.471716">
        <ele>721.660</ele>
        <time>2020-01-19T17:35:03Z</time>
      </trkpt>
      <trkpt lat="-23.418367" lon="-45.471678">
        <ele>722.670</ele>
        <time>2020-01-19T17:35:07Z</time>
      </trkpt>
      <trkpt lat="-23.418391" lon="-45.471625">
        <ele>724.099</ele>
        <time>2020-01-19T17:35:11Z</time>
      </trkpt>
      <trkpt lat="-23.418420" lon="-45.471586">
        <ele>725.207</ele>
        <time>2020-01-19T17:35:15Z</time>
      </trkpt>
      <trkpt lat="-23.418453" lon="-45.471546">
        <ele>725.227</ele>
        <time>2020-01-19T17:35:20Z</time>
      </trkpt>
      <trkpt lat="-23.418491" lon="-45.471515">
        <ele>725.708</ele>
        <time>2020-01-19T17:35:24Z</time>
      </trkpt>
      <trkpt lat="-23.418527" lon="-45.471481">
        <ele>726.213</ele>
        <time>2020-01-19T17:35:27Z</time>
      </trkpt>
      <trkpt lat="-23.418569" lon="-45.471459">
        <ele>726.834</ele>
        <time>2020-01-19T17:35:31Z</time>
      </trkpt>
      <trkpt lat="-23.418618" lon="-45.471452">
        <ele>727.136</ele>
        <time>2020-01-19T17:35:34Z</time>
      </trkpt>
      <trkpt lat="-23.418665" lon="-45.471444">
        <ele>726.730</ele>
        <time>2020-01-19T17:35:39Z</time>
      </trkpt>
      <trkpt lat="-23.418710" lon="-45.471426">
        <ele>726.766</ele>
        <time>2020-01-19T17:35:44Z</time>
      </trkpt>
      <trkpt lat="-23.418758" lon="-45.471415">
        <ele>727.110</ele>
        <time>2020-01-19T17:35:48Z</time>
      </trkpt>
      <trkpt lat="-23.418802" lon="-45.471400">
        <ele>728.973</ele>
        <time>2020-01-19T17:35:54Z</time>
      </trkpt>
      <trkpt lat="-23.418852" lon="-45.471390">
        <ele>730.343</ele>
        <time>2020-01-19T17:35:58Z</time>
      </trkpt>
      <trkpt lat="-23.418901" lon="-45.471377">
        <ele>731.443</ele>
        <time>2020-01-19T17:36:02Z</time>
      </trkpt>
      <trkpt lat="-23.418947" lon="-45.471361">
        <ele>732.164</ele>
        <time>2020-01-19T17:36:05Z</time>
      </trkpt>
      <trkpt lat="-23.419001" lon="-45.471344">
        <ele>732.510</ele>
        <time>2020-01-19T17:36:09Z</time>
      </trkpt>
      <trkpt lat="-23.419050" lon="-45.471335">
        <ele>733.508</ele>
        <time>2020-01-19T17:36:12Z</time>
      </trkpt>
      <trkpt lat="-23.419095" lon="-45.471323">
        <ele>735.058</ele>
        <time>2020-01-19T17:36:15Z</time>
      </trkpt>
      <trkpt lat="-23.419143" lon="-45.471321">
        <ele>736.439</ele>
        <time>2020-01-19T17:36:18Z</time>
      </trkpt>
      <trkpt lat="-23.419189" lon="-45.471321">
        <ele>738.151</ele>
        <time>2020-01-19T17:36:21Z</time>
      </trkpt>
      <trkpt lat="-23.419235" lon="-45.471332">
        <ele>739.265</ele>
        <time>2020-01-19T17:36:25Z</time>
      </trkpt>
      <trkpt lat="-23.419278" lon="-45.471347">
        <ele>740.331</ele>
        <time>2020-01-19T17:36:28Z</time>
      </trkpt>
      <trkpt lat="-23.419317" lon="-45.471373">
        <ele>741.385</ele>
        <time>2020-01-19T17:36:31Z</time>
      </trkpt>
      <trkpt lat="-23.419364" lon="-45.471393">
        <ele>741.658</ele>
        <time>2020-01-19T17:36:35Z</time>
      </trkpt>
      <trkpt lat="-23.419406" lon="-45.471423">
        <ele>741.858</ele>
        <time>2020-01-19T17:36:38Z</time>
      </trkpt>
      <trkpt lat="-23.419448" lon="-45.471450">
        <ele>741.742</ele>
        <time>2020-01-19T17:36:41Z</time>
      </trkpt>
      <trkpt lat="-23.419481" lon="-45.471489">
        <ele>741.522</ele>
        <time>2020-01-19T17:36:44Z</time>
      </trkpt>
      <trkpt lat="-23.419506" lon="-45.471533">
        <ele>742.414</ele>
        <time>2020-01-19T17:36:47Z</time>
      </trkpt>
      <trkpt lat="-23.419545" lon="-45.471570">
        <ele>743.508</ele>
        <time>2020-01-19T17:36:50Z</time>
      </trkpt>
      <trkpt lat="-23.419587" lon="-45.471604">
        <ele>744.398</ele>
        <time>2020-01-19T17:36:54Z</time>
      </trkpt>
      <trkpt lat="-23.419632" lon="-45.471632">
        <ele>745.119</ele>
        <time>2020-01-19T17:36:56Z</time>
      </trkpt>
      <trkpt lat="-23.419694" lon="-45.471656">
        <ele>746.431</ele>
        <time>2020-01-19T17:37:00Z</time>
      </trkpt>
      <trkpt lat="-23.419745" lon="-45.471661">
        <ele>746.035</ele>
        <time>2020-01-19T17:37:02Z</time>
      </trkpt>
      <trkpt lat="-23.419795" lon="-45.471658">
        <ele>745.871</ele>
        <time>2020-01-19T17:37:05Z</time>
      </trkpt>
      <trkpt lat="-23.419837" lon="-45.471636">
        <ele>745.345</ele>
        <time>2020-01-19T17:37:09Z</time>
      </trkpt>
      <trkpt lat="-23.419884" lon="-45.471619">
        <ele>744.718</ele>
        <time>2020-01-19T17:37:12Z</time>
      </trkpt>
      <trkpt lat="-23.419932" lon="-45.471600">
        <ele>744.138</ele>
        <time>2020-01-19T17:37:15Z</time>
      </trkpt>
      <trkpt lat="-23.419987" lon="-45.471583">
        <ele>744.054</ele>
        <time>2020-01-19T17:37:19Z</time>
      </trkpt>
      <trkpt lat="-23.420042" lon="-45.471575">
        <ele>743.356</ele>
        <time>2020-01-19T17:37:21Z</time>
      </trkpt>
      <trkpt lat="-23.420095" lon="-45.471567">
        <ele>741.211</ele>
        <time>2020-01-19T17:37:25Z</time>
      </trkpt>
      <trkpt lat="-23.420142" lon="-45.471566">
        <ele>741.208</ele>
        <time>2020-01-19T17:37:29Z</time>
      </trkpt>
      <trkpt lat="-23.420189" lon="-45.471566">
        <ele>740.159</ele>
        <time>2020-01-19T17:37:33Z</time>
      </trkpt>
      <trkpt lat="-23.420236" lon="-45.471570">
        <ele>739.540</ele>
        <time>2020-01-19T17:37:35Z</time>
      </trkpt>
      <trkpt lat="-23.420289" lon="-45.471576">
        <ele>739.072</ele>
        <time>2020-01-19T17:37:38Z</time>
      </trkpt>
      <trkpt lat="-23.420333" lon="-45.471584">
        <ele>738.926</ele>
        <time>2020-01-19T17:37:40Z</time>
      </trkpt>
      <trkpt lat="-23.420386" lon="-45.471595">
        <ele>738.992</ele>
        <time>2020-01-19T17:37:42Z</time>
      </trkpt>
      <trkpt lat="-23.420431" lon="-45.471605">
        <ele>738.446</ele>
        <time>2020-01-19T17:37:43Z</time>
      </trkpt>
      <trkpt lat="-23.420479" lon="-45.471618">
        <ele>738.499</ele>
        <time>2020-01-19T17:37:46Z</time>
      </trkpt>
      <trkpt lat="-23.420537" lon="-45.471634">
        <ele>737.629</ele>
        <time>2020-01-19T17:37:48Z</time>
      </trkpt>
      <trkpt lat="-23.420583" lon="-45.471644">
        <ele>736.394</ele>
        <time>2020-01-19T17:37:50Z</time>
      </trkpt>
      <trkpt lat="-23.420628" lon="-45.471650">
        <ele>735.557</ele>
        <time>2020-01-19T17:37:51Z</time>
      </trkpt>
      <trkpt lat="-23.420673" lon="-45.471655">
        <ele>734.722</ele>
        <time>2020-01-19T17:37:53Z</time>
      </trkpt>
      <trkpt lat="-23.420726" lon="-45.471662">
        <ele>734.408</ele>
        <time>2020-01-19T17:37:55Z</time>
      </trkpt>
      <trkpt lat="-23.420782" lon="-45.471676">
        <ele>732.923</ele>
        <time>2020-01-19T17:37:57Z</time>
      </trkpt>
      <trkpt lat="-23.420833" lon="-45.471695">
        <ele>732.054</ele>
        <time>2020-01-19T17:37:59Z</time>
      </trkpt>
      <trkpt lat="-23.420882" lon="-45.471718">
        <ele>731.246</ele>
        <time>2020-01-19T17:38:01Z</time>
      </trkpt>
      <trkpt lat="-23.420936" lon="-45.471743">
        <ele>730.520</ele>
        <time>2020-01-19T17:38:03Z</time>
      </trkpt>
      <trkpt lat="-23.420987" lon="-45.471786">
        <ele>729.286</ele>
        <time>2020-01-19T17:38:06Z</time>
      </trkpt>
      <trkpt lat="-23.421078" lon="-45.471840">
        <ele>728.370</ele>
        <time>2020-01-19T17:38:07Z</time>
      </trkpt>
      <trkpt lat="-23.421308" lon="-45.472003">
        <ele>726.963</ele>
        <time>2020-01-19T17:38:09Z</time>
      </trkpt>
      <trkpt lat="-23.421403" lon="-45.472079">
        <ele>726.493</ele>
        <time>2020-01-19T17:38:10Z</time>
      </trkpt>
      <trkpt lat="-23.421441" lon="-45.472107">
        <ele>726.384</ele>
        <time>2020-01-19T17:38:11Z</time>
      </trkpt>
      <trkpt lat="-23.421395" lon="-45.472100">
        <ele>726.507</ele>
        <time>2020-01-19T17:38:12Z</time>
      </trkpt>
      <trkpt lat="-23.421561" lon="-45.472217">
        <ele>727.317</ele>
        <time>2020-01-19T17:38:14Z</time>
      </trkpt>
      <trkpt lat="-23.421651" lon="-45.472273">
        <ele>727.808</ele>
        <time>2020-01-19T17:38:15Z</time>
      </trkpt>
      <trkpt lat="-23.421732" lon="-45.472319">
        <ele>727.962</ele>
        <time>2020-01-19T17:38:16Z</time>
      </trkpt>
      <trkpt lat="-23.421810" lon="-45.472348">
        <ele>727.723</ele>
        <time>2020-01-19T17:38:17Z</time>
      </trkpt>
      <trkpt lat="-23.421890" lon="-45.472357">
        <ele>727.745</ele>
        <time>2020-01-19T17:38:18Z</time>
      </trkpt>
      <trkpt lat="-23.421964" lon="-45.472357">
        <ele>727.159</ele>
        <time>2020-01-19T17:38:19Z</time>
      </trkpt>
      <trkpt lat="-23.422036" lon="-45.472358">
        <ele>726.485</ele>
        <time>2020-01-19T17:38:20Z</time>
      </trkpt>
      <trkpt lat="-23.422101" lon="-45.472347">
        <ele>725.379</ele>
        <time>2020-01-19T17:38:21Z</time>
      </trkpt>
      <trkpt lat="-23.422160" lon="-45.472323">
        <ele>725.152</ele>
        <time>2020-01-19T17:38:22Z</time>
      </trkpt>
      <trkpt lat="-23.422217" lon="-45.472290">
        <ele>725.112</ele>
        <time>2020-01-19T17:38:23Z</time>
      </trkpt>
      <trkpt lat="-23.422265" lon="-45.472255">
        <ele>724.956</ele>
        <time>2020-01-19T17:38:24Z</time>
      </trkpt>
      <trkpt lat="-23.422305" lon="-45.472217">
        <ele>724.059</ele>
        <time>2020-01-19T17:38:25Z</time>
      </trkpt>
      <trkpt lat="-23.422349" lon="-45.472191">
        <ele>723.714</ele>
        <time>2020-01-19T17:38:26Z</time>
      </trkpt>
      <trkpt lat="-23.422420" lon="-45.472163">
        <ele>721.908</ele>
        <time>2020-01-19T17:38:28Z</time>
      </trkpt>
      <trkpt lat="-23.422471" lon="-45.472162">
        <ele>720.259</ele>
        <time>2020-01-19T17:38:30Z</time>
      </trkpt>
      <trkpt lat="-23.422531" lon="-45.472160">
        <ele>719.310</ele>
        <time>2020-01-19T17:38:32Z</time>
      </trkpt>
      <trkpt lat="-23.422584" lon="-45.472144">
        <ele>717.962</ele>
        <time>2020-01-19T17:38:34Z</time>
      </trkpt>
      <trkpt lat="-23.422603" lon="-45.472217">
        <ele>717.036</ele>
        <time>2020-01-19T17:38:37Z</time>
      </trkpt>
      <trkpt lat="-23.422732" lon="-45.472148">
        <ele>716.862</ele>
        <time>2020-01-19T17:38:39Z</time>
      </trkpt>
      <trkpt lat="-23.422732" lon="-45.472148">
        <ele>716.846</ele>
        <time>2020-01-19T17:38:39Z</time>
      </trkpt>
      <trkpt lat="-23.422732" lon="-45.472148">
        <ele>716.849</ele>
        <time>2020-01-19T17:38:39Z</time>
      </trkpt>
      <trkpt lat="-23.422736" lon="-45.472093">
        <ele>716.739</ele>
        <time>2020-01-19T17:38:45Z</time>
      </trkpt>
      <trkpt lat="-23.422740" lon="-45.472039">
        <ele>716.959</ele>
        <time>2020-01-19T17:38:47Z</time>
      </trkpt>
      <trkpt lat="-23.422759" lon="-45.471981">
        <ele>717.603</ele>
        <time>2020-01-19T17:38:49Z</time>
      </trkpt>
      <trkpt lat="-23.422836" lon="-45.471855">
        <ele>717.523</ele>
        <time>2020-01-19T17:38:50Z</time>
      </trkpt>
      <trkpt lat="-23.422877" lon="-45.471750">
        <ele>717.708</ele>
        <time>2020-01-19T17:38:51Z</time>
      </trkpt>
      <trkpt lat="-23.422906" lon="-45.471657">
        <ele>717.989</ele>
        <time>2020-01-19T17:38:52Z</time>
      </trkpt>
      <trkpt lat="-23.422929" lon="-45.471573">
        <ele>717.730</ele>
        <time>2020-01-19T17:38:53Z</time>
      </trkpt>
      <trkpt lat="-23.422946" lon="-45.471496">
        <ele>717.572</ele>
        <time>2020-01-19T17:38:54Z</time>
      </trkpt>
      <trkpt lat="-23.422954" lon="-45.471432">
        <ele>716.956</ele>
        <time>2020-01-19T17:38:55Z</time>
      </trkpt>
      <trkpt lat="-23.422918" lon="-45.471394">
        <ele>716.422</ele>
        <time>2020-01-19T17:38:57Z</time>
      </trkpt>
      <trkpt lat="-23.422925" lon="-45.471342">
        <ele>719.266</ele>
        <time>2020-01-19T17:39:07Z</time>
      </trkpt>
      <trkpt lat="-23.422900" lon="-45.471292">
        <ele>720.799</ele>
        <time>2020-01-19T17:39:11Z</time>
      </trkpt>
      <trkpt lat="-23.422876" lon="-45.471249">
        <ele>720.599</ele>
        <time>2020-01-19T17:39:15Z</time>
      </trkpt>
      <trkpt lat="-23.422850" lon="-45.471209">
        <ele>721.112</ele>
        <time>2020-01-19T17:39:19Z</time>
      </trkpt>
      <trkpt lat="-23.422818" lon="-45.471165">
        <ele>722.132</ele>
        <time>2020-01-19T17:39:23Z</time>
      </trkpt>
      <trkpt lat="-23.422785" lon="-45.471122">
        <ele>722.305</ele>
        <time>2020-01-19T17:39:25Z</time>
      </trkpt>
      <trkpt lat="-23.422747" lon="-45.471083">
        <ele>722.008</ele>
        <time>2020-01-19T17:39:30Z</time>
      </trkpt>
      <trkpt lat="-23.422723" lon="-45.471040">
        <ele>722.025</ele>
        <time>2020-01-19T17:39:36Z</time>
      </trkpt>
      <trkpt lat="-23.422707" lon="-45.470992">
        <ele>721.536</ele>
        <time>2020-01-19T17:39:41Z</time>
      </trkpt>
      <trkpt lat="-23.422676" lon="-45.470951">
        <ele>721.078</ele>
        <time>2020-01-19T17:39:46Z</time>
      </trkpt>
      <trkpt lat="-23.422643" lon="-45.470910">
        <ele>720.952</ele>
        <time>2020-01-19T17:39:51Z</time>
      </trkpt>
      <trkpt lat="-23.422616" lon="-45.470870">
        <ele>720.628</ele>
        <time>2020-01-19T17:39:56Z</time>
      </trkpt>
      <trkpt lat="-23.422602" lon="-45.470820">
        <ele>720.522</ele>
        <time>2020-01-19T17:39:59Z</time>
      </trkpt>
      <trkpt lat="-23.422595" lon="-45.470767">
        <ele>720.145</ele>
        <time>2020-01-19T17:40:04Z</time>
      </trkpt>
      <trkpt lat="-23.422585" lon="-45.470715">
        <ele>720.195</ele>
        <time>2020-01-19T17:40:09Z</time>
      </trkpt>
      <trkpt lat="-23.422581" lon="-45.470664">
        <ele>720.287</ele>
        <time>2020-01-19T17:40:14Z</time>
      </trkpt>
      <trkpt lat="-23.422572" lon="-45.470613">
        <ele>720.342</ele>
        <time>2020-01-19T17:40:19Z</time>
      </trkpt>
      <trkpt lat="-23.422558" lon="-45.470561">
        <ele>720.526</ele>
        <time>2020-01-19T17:40:24Z</time>
      </trkpt>
      <trkpt lat="-23.422554" lon="-45.470510">
        <ele>721.108</ele>
        <time>2020-01-19T17:40:29Z</time>
      </trkpt>
      <trkpt lat="-23.422547" lon="-45.470456">
        <ele>721.452</ele>
        <time>2020-01-19T17:40:35Z</time>
      </trkpt>
      <trkpt lat="-23.422523" lon="-45.470409">
        <ele>721.613</ele>
        <time>2020-01-19T17:40:41Z</time>
      </trkpt>
      <trkpt lat="-23.422507" lon="-45.470361">
        <ele>722.095</ele>
        <time>2020-01-19T17:40:45Z</time>
      </trkpt>
      <trkpt lat="-23.422497" lon="-45.470309">
        <ele>723.599</ele>
        <time>2020-01-19T17:40:51Z</time>
      </trkpt>
      <trkpt lat="-23.422495" lon="-45.470259">
        <ele>724.465</ele>
        <time>2020-01-19T17:40:57Z</time>
      </trkpt>
      <trkpt lat="-23.422496" lon="-45.470205">
        <ele>725.189</ele>
        <time>2020-01-19T17:41:02Z</time>
      </trkpt>
      <trkpt lat="-23.422499" lon="-45.470155">
        <ele>725.282</ele>
        <time>2020-01-19T17:41:06Z</time>
      </trkpt>
      <trkpt lat="-23.422507" lon="-45.470103">
        <ele>725.792</ele>
        <time>2020-01-19T17:41:11Z</time>
      </trkpt>
      <trkpt lat="-23.422518" lon="-45.470053">
        <ele>726.448</ele>
        <time>2020-01-19T17:41:16Z</time>
      </trkpt>
      <trkpt lat="-23.422527" lon="-45.470002">
        <ele>727.161</ele>
        <time>2020-01-19T17:41:20Z</time>
      </trkpt>
      <trkpt lat="-23.422537" lon="-45.469953">
        <ele>727.517</ele>
        <time>2020-01-19T17:41:23Z</time>
      </trkpt>
      <trkpt lat="-23.422544" lon="-45.469898">
        <ele>728.208</ele>
        <time>2020-01-19T17:41:29Z</time>
      </trkpt>
      <trkpt lat="-23.422556" lon="-45.469839">
        <ele>728.418</ele>
        <time>2020-01-19T17:41:33Z</time>
      </trkpt>
      <trkpt lat="-23.422580" lon="-45.469793">
        <ele>728.059</ele>
        <time>2020-01-19T17:41:38Z</time>
      </trkpt>
      <trkpt lat="-23.422607" lon="-45.469753">
        <ele>727.931</ele>
        <time>2020-01-19T17:41:41Z</time>
      </trkpt>
      <trkpt lat="-23.422626" lon="-45.469708">
        <ele>727.655</ele>
        <time>2020-01-19T17:41:45Z</time>
      </trkpt>
      <trkpt lat="-23.422650" lon="-45.469663">
        <ele>726.931</ele>
        <time>2020-01-19T17:41:49Z</time>
      </trkpt>
      <trkpt lat="-23.422669" lon="-45.469609">
        <ele>727.165</ele>
        <time>2020-01-19T17:41:55Z</time>
      </trkpt>
      <trkpt lat="-23.422662" lon="-45.469551">
        <ele>727.888</ele>
        <time>2020-01-19T17:41:59Z</time>
      </trkpt>
      <trkpt lat="-23.422660" lon="-45.469500">
        <ele>727.198</ele>
        <time>2020-01-19T17:42:02Z</time>
      </trkpt>
      <trkpt lat="-23.422639" lon="-45.469455">
        <ele>726.023</ele>
        <time>2020-01-19T17:42:06Z</time>
      </trkpt>
      <trkpt lat="-23.422598" lon="-45.469430">
        <ele>723.283</ele>
        <time>2020-01-19T17:42:10Z</time>
      </trkpt>
      <trkpt lat="-23.422551" lon="-45.469405">
        <ele>721.711</ele>
        <time>2020-01-19T17:42:12Z</time>
      </trkpt>
      <trkpt lat="-23.422497" lon="-45.469393">
        <ele>721.008</ele>
        <time>2020-01-19T17:42:14Z</time>
      </trkpt>
      <trkpt lat="-23.422423" lon="-45.469397">
        <ele>720.366</ele>
        <time>2020-01-19T17:42:17Z</time>
      </trkpt>
      <trkpt lat="-23.422372" lon="-45.469406">
        <ele>720.397</ele>
        <time>2020-01-19T17:42:18Z</time>
      </trkpt>
      <trkpt lat="-23.422322" lon="-45.469416">
        <ele>719.959</ele>
        <time>2020-01-19T17:42:20Z</time>
      </trkpt>
      <trkpt lat="-23.422280" lon="-45.469436">
        <ele>719.873</ele>
        <time>2020-01-19T17:42:21Z</time>
      </trkpt>
      <trkpt lat="-23.422239" lon="-45.469466">
        <ele>719.769</ele>
        <time>2020-01-19T17:42:24Z</time>
      </trkpt>
      <trkpt lat="-23.422198" lon="-45.469493">
        <ele>720.163</ele>
        <time>2020-01-19T17:42:26Z</time>
      </trkpt>
      <trkpt lat="-23.422156" lon="-45.469523">
        <ele>721.826</ele>
        <time>2020-01-19T17:42:28Z</time>
      </trkpt>
      <trkpt lat="-23.422119" lon="-45.469561">
        <ele>722.966</ele>
        <time>2020-01-19T17:42:31Z</time>
      </trkpt>
      <trkpt lat="-23.422077" lon="-45.469586">
        <ele>724.254</ele>
        <time>2020-01-19T17:42:34Z</time>
      </trkpt>
      <trkpt lat="-23.422029" lon="-45.469611">
        <ele>724.756</ele>
        <time>2020-01-19T17:42:36Z</time>
      </trkpt>
      <trkpt lat="-23.421983" lon="-45.469634">
        <ele>725.111</ele>
        <time>2020-01-19T17:42:38Z</time>
      </trkpt>
      <trkpt lat="-23.421937" lon="-45.469653">
        <ele>725.308</ele>
        <time>2020-01-19T17:42:40Z</time>
      </trkpt>
      <trkpt lat="-23.421870" lon="-45.469669">
        <ele>725.229</ele>
        <time>2020-01-19T17:42:41Z</time>
      </trkpt>
      <trkpt lat="-23.421768" lon="-45.469699">
        <ele>725.220</ele>
        <time>2020-01-19T17:42:43Z</time>
      </trkpt>
      <trkpt lat="-23.421710" lon="-45.469713">
        <ele>725.682</ele>
        <time>2020-01-19T17:42:44Z</time>
      </trkpt>
      <trkpt lat="-23.421656" lon="-45.469731">
        <ele>726.366</ele>
        <time>2020-01-19T17:42:45Z</time>
      </trkpt>
      <trkpt lat="-23.421604" lon="-45.469753">
        <ele>727.092</ele>
        <time>2020-01-19T17:42:46Z</time>
      </trkpt>
      <trkpt lat="-23.421554" lon="-45.469777">
        <ele>726.646</ele>
        <time>2020-01-19T17:42:47Z</time>
      </trkpt>
      <trkpt lat="-23.421505" lon="-45.469797">
        <ele>725.979</ele>
        <time>2020-01-19T17:42:48Z</time>
      </trkpt>
      <trkpt lat="-23.421459" lon="-45.469820">
        <ele>725.299</ele>
        <time>2020-01-19T17:42:49Z</time>
      </trkpt>
      <trkpt lat="-23.421418" lon="-45.469847">
        <ele>725.257</ele>
        <time>2020-01-19T17:42:50Z</time>
      </trkpt>
      <trkpt lat="-23.421386" lon="-45.469883">
        <ele>725.900</ele>
        <time>2020-01-19T17:42:51Z</time>
      </trkpt>
      <trkpt lat="-23.421350" lon="-45.469914">
        <ele>726.420</ele>
        <time>2020-01-19T17:42:52Z</time>
      </trkpt>
      <trkpt lat="-23.421285" lon="-45.469970">
        <ele>727.408</ele>
        <time>2020-01-19T17:42:54Z</time>
      </trkpt>
      <trkpt lat="-23.421251" lon="-45.470013">
        <ele>727.919</ele>
        <time>2020-01-19T17:42:55Z</time>
      </trkpt>
      <trkpt lat="-23.421215" lon="-45.470053">
        <ele>728.460</ele>
        <time>2020-01-19T17:42:56Z</time>
      </trkpt>
      <trkpt lat="-23.421178" lon="-45.470088">
        <ele>728.442</ele>
        <time>2020-01-19T17:42:57Z</time>
      </trkpt>
      <trkpt lat="-23.421129" lon="-45.470109">
        <ele>727.116</ele>
        <time>2020-01-19T17:42:58Z</time>
      </trkpt>
      <trkpt lat="-23.421078" lon="-45.470126">
        <ele>726.112</ele>
        <time>2020-01-19T17:42:59Z</time>
      </trkpt>
      <trkpt lat="-23.421022" lon="-45.470141">
        <ele>725.476</ele>
        <time>2020-01-19T17:43:00Z</time>
      </trkpt>
      <trkpt lat="-23.420965" lon="-45.470155">
        <ele>724.439</ele>
        <time>2020-01-19T17:43:01Z</time>
      </trkpt>
      <trkpt lat="-23.420910" lon="-45.470165">
        <ele>723.549</ele>
        <time>2020-01-19T17:43:02Z</time>
      </trkpt>
      <trkpt lat="-23.420855" lon="-45.470171">
        <ele>723.226</ele>
        <time>2020-01-19T17:43:03Z</time>
      </trkpt>
      <trkpt lat="-23.420793" lon="-45.470176">
        <ele>723.147</ele>
        <time>2020-01-19T17:43:04Z</time>
      </trkpt>
      <trkpt lat="-23.420731" lon="-45.470179">
        <ele>722.911</ele>
        <time>2020-01-19T17:43:05Z</time>
      </trkpt>
      <trkpt lat="-23.420674" lon="-45.470179">
        <ele>723.208</ele>
        <time>2020-01-19T17:43:06Z</time>
      </trkpt>
      <trkpt lat="-23.420622" lon="-45.470173">
        <ele>723.466</ele>
        <time>2020-01-19T17:43:07Z</time>
      </trkpt>
      <trkpt lat="-23.420569" lon="-45.470142">
        <ele>723.337</ele>
        <time>2020-01-19T17:43:08Z</time>
      </trkpt>
      <trkpt lat="-23.420521" lon="-45.470105">
        <ele>722.859</ele>
        <time>2020-01-19T17:43:09Z</time>
      </trkpt>
      <trkpt lat="-23.420477" lon="-45.470064">
        <ele>722.733</ele>
        <time>2020-01-19T17:43:10Z</time>
      </trkpt>
      <trkpt lat="-23.420437" lon="-45.470009">
        <ele>722.729</ele>
        <time>2020-01-19T17:43:11Z</time>
      </trkpt>
      <trkpt lat="-23.420403" lon="-45.469944">
        <ele>722.293</ele>
        <time>2020-01-19T17:43:12Z</time>
      </trkpt>
      <trkpt lat="-23.420373" lon="-45.469871">
        <ele>721.996</ele>
        <time>2020-01-19T17:43:13Z</time>
      </trkpt>
      <trkpt lat="-23.420346" lon="-45.469795">
        <ele>721.316</ele>
        <time>2020-01-19T17:43:14Z</time>
      </trkpt>
      <trkpt lat="-23.420317" lon="-45.469721">
        <ele>720.928</ele>
        <time>2020-01-19T17:43:15Z</time>
      </trkpt>
      <trkpt lat="-23.420276" lon="-45.469660">
        <ele>720.889</ele>
        <time>2020-01-19T17:43:16Z</time>
      </trkpt>
      <trkpt lat="-23.420229" lon="-45.469615">
        <ele>720.517</ele>
        <time>2020-01-19T17:43:17Z</time>
      </trkpt>
      <trkpt lat="-23.420184" lon="-45.469583">
        <ele>720.008</ele>
        <time>2020-01-19T17:43:18Z</time>
      </trkpt>
      <trkpt lat="-23.420134" lon="-45.469575">
        <ele>719.426</ele>
        <time>2020-01-19T17:43:19Z</time>
      </trkpt>
      <trkpt lat="-23.420092" lon="-45.469599">
        <ele>719.257</ele>
        <time>2020-01-19T17:43:20Z</time>
      </trkpt>
      <trkpt lat="-23.420048" lon="-45.469631">
        <ele>719.159</ele>
        <time>2020-01-19T17:43:22Z</time>
      </trkpt>
      <trkpt lat="-23.420004" lon="-45.469642">
        <ele>720.283</ele>
        <time>2020-01-19T17:43:28Z</time>
      </trkpt>
      <trkpt lat="-23.419958" lon="-45.469636">
        <ele>720.899</ele>
        <time>2020-01-19T17:43:32Z</time>
      </trkpt>
      <trkpt lat="-23.419911" lon="-45.469616">
        <ele>720.423</ele>
        <time>2020-01-19T17:43:36Z</time>
      </trkpt>
      <trkpt lat="-23.419881" lon="-45.469579">
        <ele>720.256</ele>
        <time>2020-01-19T17:43:39Z</time>
      </trkpt>
      <trkpt lat="-23.419838" lon="-45.469563">
        <ele>719.826</ele>
        <time>2020-01-19T17:43:43Z</time>
      </trkpt>
      <trkpt lat="-23.419793" lon="-45.469564">
        <ele>719.575</ele>
        <time>2020-01-19T17:43:47Z</time>
      </trkpt>
      <trkpt lat="-23.419754" lon="-45.469589">
        <ele>719.228</ele>
        <time>2020-01-19T17:43:50Z</time>
      </trkpt>
      <trkpt lat="-23.419728" lon="-45.469639">
        <ele>720.620</ele>
        <time>2020-01-19T17:43:56Z</time>
      </trkpt>
      <trkpt lat="-23.419720" lon="-45.469692">
        <ele>722.008</ele>
        <time>2020-01-19T17:44:00Z</time>
      </trkpt>
      <trkpt lat="-23.419721" lon="-45.469745">
        <ele>724.051</ele>
        <time>2020-01-19T17:44:04Z</time>
      </trkpt>
      <trkpt lat="-23.419722" lon="-45.469798">
        <ele>725.792</ele>
        <time>2020-01-19T17:44:08Z</time>
      </trkpt>
      <trkpt lat="-23.419725" lon="-45.469856">
        <ele>726.524</ele>
        <time>2020-01-19T17:44:12Z</time>
      </trkpt>
      <trkpt lat="-23.419729" lon="-45.469906">
        <ele>727.228</ele>
        <time>2020-01-19T17:44:16Z</time>
      </trkpt>
      <trkpt lat="-23.419718" lon="-45.469964">
        <ele>726.784</ele>
        <time>2020-01-19T17:44:21Z</time>
      </trkpt>
      <trkpt lat="-23.419697" lon="-45.470017">
        <ele>726.238</ele>
        <time>2020-01-19T17:44:24Z</time>
      </trkpt>
      <trkpt lat="-23.419673" lon="-45.470061">
        <ele>725.751</ele>
        <time>2020-01-19T17:44:26Z</time>
      </trkpt>
      <trkpt lat="-23.419640" lon="-45.470097">
        <ele>725.341</ele>
        <time>2020-01-19T17:44:29Z</time>
      </trkpt>
      <trkpt lat="-23.419596" lon="-45.470140">
        <ele>724.929</ele>
        <time>2020-01-19T17:44:33Z</time>
      </trkpt>
      <trkpt lat="-23.419550" lon="-45.470161">
        <ele>724.700</ele>
        <time>2020-01-19T17:44:35Z</time>
      </trkpt>
      <trkpt lat="-23.419550" lon="-45.470161">
        <ele>724.720</ele>
        <time>2020-01-19T17:44:35Z</time>
      </trkpt>
      <trkpt lat="-23.419550" lon="-45.470161">
        <ele>724.708</ele>
        <time>2020-01-19T17:44:35Z</time>
      </trkpt>
      <trkpt lat="-23.419497" lon="-45.470168">
        <ele>724.946</ele>
        <time>2020-01-19T17:44:38Z</time>
      </trkpt>
      <trkpt lat="-23.419447" lon="-45.470167">
        <ele>724.917</ele>
        <time>2020-01-19T17:44:40Z</time>
      </trkpt>
      <trkpt lat="-23.419394" lon="-45.470144">
        <ele>724.539</ele>
        <time>2020-01-19T17:44:43Z</time>
      </trkpt>
      <trkpt lat="-23.419350" lon="-45.470128">
        <ele>724.333</ele>
        <time>2020-01-19T17:44:45Z</time>
      </trkpt>
      <trkpt lat="-23.419304" lon="-45.470115">
        <ele>724.089</ele>
        <time>2020-01-19T17:44:48Z</time>
      </trkpt>
      <trkpt lat="-23.419259" lon="-45.470097">
        <ele>723.883</ele>
        <time>2020-01-19T17:44:50Z</time>
      </trkpt>
      <trkpt lat="-23.419216" lon="-45.470082">
        <ele>723.916</ele>
        <time>2020-01-19T17:44:52Z</time>
      </trkpt>
      <trkpt lat="-23.419158" lon="-45.470076">
        <ele>723.496</ele>
        <time>2020-01-19T17:44:55Z</time>
      </trkpt>
      <trkpt lat="-23.419107" lon="-45.470075">
        <ele>722.978</ele>
        <time>2020-01-19T17:44:57Z</time>
      </trkpt>
      <trkpt lat="-23.419055" lon="-45.470064">
        <ele>722.133</ele>
        <time>2020-01-19T17:44:58Z</time>
      </trkpt>
      <trkpt lat="-23.419002" lon="-45.470049">
        <ele>721.526</ele>
        <time>2020-01-19T17:45:00Z</time>
      </trkpt>
      <trkpt lat="-23.418946" lon="-45.470034">
        <ele>720.308</ele>
        <time>2020-01-19T17:45:02Z</time>
      </trkpt>
      <trkpt lat="-23.418867" lon="-45.470001">
        <ele>719.361</ele>
        <time>2020-01-19T17:45:04Z</time>
      </trkpt>
      <trkpt lat="-23.418795" lon="-45.469967">
        <ele>719.782</ele>
        <time>2020-01-19T17:45:05Z</time>
      </trkpt>
      <trkpt lat="-23.418734" lon="-45.469936">
        <ele>719.674</ele>
        <time>2020-01-19T17:45:07Z</time>
      </trkpt>
      <trkpt lat="-23.418684" lon="-45.469913">
        <ele>718.788</ele>
        <time>2020-01-19T17:45:09Z</time>
      </trkpt>
      <trkpt lat="-23.418635" lon="-45.469900">
        <ele>717.964</ele>
        <time>2020-01-19T17:45:10Z</time>
      </trkpt>
      <trkpt lat="-23.418588" lon="-45.469904">
        <ele>718.938</ele>
        <time>2020-01-19T17:45:12Z</time>
      </trkpt>
      <trkpt lat="-23.418546" lon="-45.469932">
        <ele>719.581</ele>
        <time>2020-01-19T17:45:13Z</time>
      </trkpt>
      <trkpt lat="-23.418501" lon="-45.469967">
        <ele>719.551</ele>
        <time>2020-01-19T17:45:16Z</time>
      </trkpt>
      <trkpt lat="-23.418458" lon="-45.470001">
        <ele>719.452</ele>
        <time>2020-01-19T17:45:20Z</time>
      </trkpt>
      <trkpt lat="-23.418412" lon="-45.470007">
        <ele>718.653</ele>
        <time>2020-01-19T17:45:22Z</time>
      </trkpt>
      <trkpt lat="-23.418366" lon="-45.469987">
        <ele>718.908</ele>
        <time>2020-01-19T17:45:24Z</time>
      </trkpt>
      <trkpt lat="-23.418317" lon="-45.469964">
        <ele>719.708</ele>
        <time>2020-01-19T17:45:27Z</time>
      </trkpt>
      <trkpt lat="-23.418274" lon="-45.469925">
        <ele>720.149</ele>
        <time>2020-01-19T17:45:30Z</time>
      </trkpt>
      <trkpt lat="-23.418240" lon="-45.469882">
        <ele>720.740</ele>
        <time>2020-01-19T17:45:32Z</time>
      </trkpt>
      <trkpt lat="-23.418191" lon="-45.469843">
        <ele>721.042</ele>
        <time>2020-01-19T17:45:36Z</time>
      </trkpt>
      <trkpt lat="-23.418156" lon="-45.469806">
        <ele>720.946</ele>
        <time>2020-01-19T17:45:38Z</time>
      </trkpt>
      <trkpt lat="-23.418125" lon="-45.469770">
        <ele>720.432</ele>
        <time>2020-01-19T17:45:41Z</time>
      </trkpt>
      <trkpt lat="-23.418081" lon="-45.469738">
        <ele>720.666</ele>
        <time>2020-01-19T17:45:43Z</time>
      </trkpt>
      <trkpt lat="-23.418034" lon="-45.469721">
        <ele>720.839</ele>
        <time>2020-01-19T17:45:46Z</time>
      </trkpt>
      <trkpt lat="-23.417976" lon="-45.469701">
        <ele>721.329</ele>
        <time>2020-01-19T17:45:50Z</time>
      </trkpt>
      <trkpt lat="-23.417925" lon="-45.469686">
        <ele>721.741</ele>
        <time>2020-01-19T17:45:53Z</time>
      </trkpt>
      <trkpt lat="-23.417872" lon="-45.469672">
        <ele>721.281</ele>
        <time>2020-01-19T17:45:55Z</time>
      </trkpt>
      <trkpt lat="-23.417829" lon="-45.469658">
        <ele>720.209</ele>
        <time>2020-01-19T17:45:58Z</time>
      </trkpt>
      <trkpt lat="-23.417781" lon="-45.469637">
        <ele>720.408</ele>
        <time>2020-01-19T17:46:01Z</time>
      </trkpt>
      <trkpt lat="-23.417735" lon="-45.469607">
        <ele>720.558</ele>
        <time>2020-01-19T17:46:04Z</time>
      </trkpt>
      <trkpt lat="-23.417693" lon="-45.469584">
        <ele>720.699</ele>
        <time>2020-01-19T17:46:07Z</time>
      </trkpt>
      <trkpt lat="-23.417647" lon="-45.469575">
        <ele>721.321</ele>
        <time>2020-01-19T17:46:10Z</time>
      </trkpt>
      <trkpt lat="-23.417593" lon="-45.469566">
        <ele>721.075</ele>
        <time>2020-01-19T17:46:12Z</time>
      </trkpt>
      <trkpt lat="-23.417548" lon="-45.469557">
        <ele>721.821</ele>
        <time>2020-01-19T17:46:15Z</time>
      </trkpt>
      <trkpt lat="-23.417490" lon="-45.469566">
        <ele>722.415</ele>
        <time>2020-01-19T17:46:18Z</time>
      </trkpt>
      <trkpt lat="-23.417441" lon="-45.469568">
        <ele>722.438</ele>
        <time>2020-01-19T17:46:20Z</time>
      </trkpt>
      <trkpt lat="-23.417393" lon="-45.469565">
        <ele>722.278</ele>
        <time>2020-01-19T17:46:22Z</time>
      </trkpt>
      <trkpt lat="-23.417344" lon="-45.469546">
        <ele>721.597</ele>
        <time>2020-01-19T17:46:25Z</time>
      </trkpt>
      <trkpt lat="-23.417298" lon="-45.469543">
        <ele>721.023</ele>
        <time>2020-01-19T17:46:28Z</time>
      </trkpt>
      <trkpt lat="-23.417251" lon="-45.469520">
        <ele>719.625</ele>
        <time>2020-01-19T17:46:31Z</time>
      </trkpt>
      <trkpt lat="-23.417205" lon="-45.469498">
        <ele>718.808</ele>
        <time>2020-01-19T17:46:34Z</time>
      </trkpt>
      <trkpt lat="-23.417153" lon="-45.469483">
        <ele>718.993</ele>
        <time>2020-01-19T17:46:37Z</time>
      </trkpt>
      <trkpt lat="-23.417108" lon="-45.469478">
        <ele>719.664</ele>
        <time>2020-01-19T17:46:39Z</time>
      </trkpt>
      <trkpt lat="-23.417058" lon="-45.469466">
        <ele>720.176</ele>
        <time>2020-01-19T17:46:42Z</time>
      </trkpt>
      <trkpt lat="-23.417011" lon="-45.469446">
        <ele>720.410</ele>
        <time>2020-01-19T17:46:45Z</time>
      </trkpt>
      <trkpt lat="-23.416969" lon="-45.469424">
        <ele>720.226</ele>
        <time>2020-01-19T17:46:47Z</time>
      </trkpt>
      <trkpt lat="-23.416926" lon="-45.469407">
        <ele>720.370</ele>
        <time>2020-01-19T17:46:51Z</time>
      </trkpt>
      <trkpt lat="-23.416878" lon="-45.469401">
        <ele>720.993</ele>
        <time>2020-01-19T17:46:55Z</time>
      </trkpt>
      <trkpt lat="-23.416827" lon="-45.469392">
        <ele>722.023</ele>
        <time>2020-01-19T17:46:57Z</time>
      </trkpt>
      <trkpt lat="-23.416780" lon="-45.469383">
        <ele>722.971</ele>
        <time>2020-01-19T17:46:59Z</time>
      </trkpt>
      <trkpt lat="-23.416735" lon="-45.469376">
        <ele>724.041</ele>
        <time>2020-01-19T17:47:03Z</time>
      </trkpt>
      <trkpt lat="-23.416686" lon="-45.469369">
        <ele>724.415</ele>
        <time>2020-01-19T17:47:08Z</time>
      </trkpt>
      <trkpt lat="-23.416638" lon="-45.469347">
        <ele>724.708</ele>
        <time>2020-01-19T17:47:11Z</time>
      </trkpt>
      <trkpt lat="-23.416596" lon="-45.469325">
        <ele>725.441</ele>
        <time>2020-01-19T17:47:16Z</time>
      </trkpt>
      <trkpt lat="-23.416548" lon="-45.469317">
        <ele>725.812</ele>
        <time>2020-01-19T17:47:19Z</time>
      </trkpt>
      <trkpt lat="-23.416503" lon="-45.469295">
        <ele>726.114</ele>
        <time>2020-01-19T17:47:24Z</time>
      </trkpt>
      <trkpt lat="-23.416460" lon="-45.469271">
        <ele>726.828</ele>
        <time>2020-01-19T17:47:29Z</time>
      </trkpt>
      <trkpt lat="-23.416413" lon="-45.469252">
        <ele>728.054</ele>
        <time>2020-01-19T17:47:35Z</time>
      </trkpt>
      <trkpt lat="-23.416366" lon="-45.469234">
        <ele>729.448</ele>
        <time>2020-01-19T17:47:42Z</time>
      </trkpt>
      <trkpt lat="-23.416320" lon="-45.469226">
        <ele>732.281</ele>
        <time>2020-01-19T17:47:49Z</time>
      </trkpt>
      <trkpt lat="-23.416275" lon="-45.469217">
        <ele>733.941</ele>
        <time>2020-01-19T17:47:56Z</time>
      </trkpt>
      <trkpt lat="-23.416222" lon="-45.469218">
        <ele>735.333</ele>
        <time>2020-01-19T17:48:02Z</time>
      </trkpt>
      <trkpt lat="-23.416177" lon="-45.469215">
        <ele>737.023</ele>
        <time>2020-01-19T17:48:07Z</time>
      </trkpt>
      <trkpt lat="-23.416132" lon="-45.469212">
        <ele>738.115</ele>
        <time>2020-01-19T17:48:12Z</time>
      </trkpt>
      <trkpt lat="-23.416085" lon="-45.469215">
        <ele>738.208</ele>
        <time>2020-01-19T17:48:18Z</time>
      </trkpt>
      <trkpt lat="-23.416032" lon="-45.469222">
        <ele>738.457</ele>
        <time>2020-01-19T17:48:24Z</time>
      </trkpt>
      <trkpt lat="-23.415982" lon="-45.469233">
        <ele>738.718</ele>
        <time>2020-01-19T17:48:28Z</time>
      </trkpt>
      <trkpt lat="-23.415936" lon="-45.469242">
        <ele>738.560</ele>
        <time>2020-01-19T17:48:32Z</time>
      </trkpt>
      <trkpt lat="-23.415891" lon="-45.469240">
        <ele>738.764</ele>
        <time>2020-01-19T17:48:38Z</time>
      </trkpt>
      <trkpt lat="-23.415846" lon="-45.469246">
        <ele>737.650</ele>
        <time>2020-01-19T17:48:43Z</time>
      </trkpt>
      <trkpt lat="-23.415797" lon="-45.469243">
        <ele>736.884</ele>
        <time>2020-01-19T17:48:47Z</time>
      </trkpt>
      <trkpt lat="-23.415748" lon="-45.469240">
        <ele>736.297</ele>
        <time>2020-01-19T17:48:50Z</time>
      </trkpt>
      <trkpt lat="-23.415701" lon="-45.469239">
        <ele>736.117</ele>
        <time>2020-01-19T17:48:56Z</time>
      </trkpt>
      <trkpt lat="-23.415657" lon="-45.469248">
        <ele>736.527</ele>
        <time>2020-01-19T17:49:02Z</time>
      </trkpt>
      <trkpt lat="-23.415611" lon="-45.469249">
        <ele>735.768</ele>
        <time>2020-01-19T17:49:07Z</time>
      </trkpt>
      <trkpt lat="-23.415565" lon="-45.469259">
        <ele>734.714</ele>
        <time>2020-01-19T17:49:13Z</time>
      </trkpt>
      <trkpt lat="-23.415510" lon="-45.469260">
        <ele>734.808</ele>
        <time>2020-01-19T17:49:18Z</time>
      </trkpt>
      <trkpt lat="-23.415459" lon="-45.469252">
        <ele>736.036</ele>
        <time>2020-01-19T17:49:24Z</time>
      </trkpt>
      <trkpt lat="-23.415459" lon="-45.469252">
        <ele>736.017</ele>
        <time>2020-01-19T17:49:24Z</time>
      </trkpt>
      <trkpt lat="-23.415410" lon="-45.469251">
        <ele>736.949</ele>
        <time>2020-01-19T17:49:29Z</time>
      </trkpt>
      <trkpt lat="-23.415364" lon="-45.469252">
        <ele>737.643</ele>
        <time>2020-01-19T17:49:34Z</time>
      </trkpt>
      <trkpt lat="-23.415316" lon="-45.469258">
        <ele>737.949</ele>
        <time>2020-01-19T17:49:39Z</time>
      </trkpt>
      <trkpt lat="-23.415270" lon="-45.469245">
        <ele>738.543</ele>
        <time>2020-01-19T17:49:44Z</time>
      </trkpt>
      <trkpt lat="-23.415223" lon="-45.469236">
        <ele>738.846</ele>
        <time>2020-01-19T17:49:49Z</time>
      </trkpt>
      <trkpt lat="-23.415176" lon="-45.469215">
        <ele>739.396</ele>
        <time>2020-01-19T17:49:54Z</time>
      </trkpt>
      <trkpt lat="-23.415131" lon="-45.469201">
        <ele>739.261</ele>
        <time>2020-01-19T17:50:00Z</time>
      </trkpt>
      <trkpt lat="-23.415086" lon="-45.469194">
        <ele>739.121</ele>
        <time>2020-01-19T17:50:04Z</time>
      </trkpt>
      <trkpt lat="-23.415042" lon="-45.469182">
        <ele>738.413</ele>
        <time>2020-01-19T17:50:08Z</time>
      </trkpt>
      <trkpt lat="-23.414999" lon="-45.469157">
        <ele>738.008</ele>
        <time>2020-01-19T17:50:13Z</time>
      </trkpt>
      <trkpt lat="-23.414947" lon="-45.469145">
        <ele>737.480</ele>
        <time>2020-01-19T17:50:18Z</time>
      </trkpt>
      <trkpt lat="-23.414900" lon="-45.469138">
        <ele>736.611</ele>
        <time>2020-01-19T17:50:23Z</time>
      </trkpt>
      <trkpt lat="-23.414852" lon="-45.469135">
        <ele>736.053</ele>
        <time>2020-01-19T17:50:27Z</time>
      </trkpt>
      <trkpt lat="-23.414803" lon="-45.469124">
        <ele>737.647</ele>
        <time>2020-01-19T17:50:32Z</time>
      </trkpt>
      <trkpt lat="-23.414756" lon="-45.469122">
        <ele>739.943</ele>
        <time>2020-01-19T17:50:36Z</time>
      </trkpt>
      <trkpt lat="-23.414709" lon="-45.469140">
        <ele>742.517</ele>
        <time>2020-01-19T17:50:41Z</time>
      </trkpt>
      <trkpt lat="-23.414664" lon="-45.469163">
        <ele>741.610</ele>
        <time>2020-01-19T17:50:46Z</time>
      </trkpt>
      <trkpt lat="-23.414620" lon="-45.469191">
        <ele>743.690</ele>
        <time>2020-01-19T17:50:51Z</time>
      </trkpt>
      <trkpt lat="-23.414595" lon="-45.469234">
        <ele>746.934</ele>
        <time>2020-01-19T17:50:53Z</time>
      </trkpt>
      <trkpt lat="-23.414581" lon="-45.469286">
        <ele>748.355</ele>
        <time>2020-01-19T17:50:55Z</time>
      </trkpt>
      <trkpt lat="-23.414546" lon="-45.469324">
        <ele>749.010</ele>
        <time>2020-01-19T17:51:00Z</time>
      </trkpt>
      <trkpt lat="-23.414506" lon="-45.469350">
        <ele>749.508</ele>
        <time>2020-01-19T17:51:03Z</time>
      </trkpt>
      <trkpt lat="-23.414466" lon="-45.469376">
        <ele>750.667</ele>
        <time>2020-01-19T17:51:08Z</time>
      </trkpt>
      <trkpt lat="-23.414423" lon="-45.469393">
        <ele>752.418</ele>
        <time>2020-01-19T17:51:12Z</time>
      </trkpt>
      <trkpt lat="-23.414371" lon="-45.469400">
        <ele>754.380</ele>
        <time>2020-01-19T17:51:18Z</time>
      </trkpt>
      <trkpt lat="-23.414330" lon="-45.469380">
        <ele>756.144</ele>
        <time>2020-01-19T17:51:27Z</time>
      </trkpt>
      <trkpt lat="-23.414285" lon="-45.469371">
        <ele>756.930</ele>
        <time>2020-01-19T17:51:38Z</time>
      </trkpt>
      <trkpt lat="-23.414304" lon="-45.469320">
        <ele>756.814</ele>
        <time>2020-01-19T17:51:50Z</time>
      </trkpt>
      <trkpt lat="-23.414281" lon="-45.469277">
        <ele>755.097</ele>
        <time>2020-01-19T17:52:11Z</time>
      </trkpt>
      <trkpt lat="-23.414290" lon="-45.469325">
        <ele>753.717</ele>
        <time>2020-01-19T17:53:01Z</time>
      </trkpt>
      <trkpt lat="-23.414284" lon="-45.469270">
        <ele>754.277</ele>
        <time>2020-01-19T17:55:06Z</time>
      </trkpt>
      <trkpt lat="-23.414280" lon="-45.469216">
        <ele>754.961</ele>
        <time>2020-01-19T17:55:10Z</time>
      </trkpt>
      <trkpt lat="-23.414278" lon="-45.469161">
        <ele>755.127</ele>
        <time>2020-01-19T17:55:14Z</time>
      </trkpt>
      <trkpt lat="-23.414292" lon="-45.469108">
        <ele>755.308</ele>
        <time>2020-01-19T17:55:19Z</time>
      </trkpt>
      <trkpt lat="-23.414304" lon="-45.469057">
        <ele>755.211</ele>
        <time>2020-01-19T17:55:24Z</time>
      </trkpt>
      <trkpt lat="-23.414323" lon="-45.469004">
        <ele>754.762</ele>
        <time>2020-01-19T17:55:30Z</time>
      </trkpt>
      <trkpt lat="-23.414338" lon="-45.468956">
        <ele>754.734</ele>
        <time>2020-01-19T17:55:35Z</time>
      </trkpt>
      <trkpt lat="-23.414339" lon="-45.468906">
        <ele>754.568</ele>
        <time>2020-01-19T17:55:39Z</time>
      </trkpt>
      <trkpt lat="-23.414339" lon="-45.468854">
        <ele>755.234</ele>
        <time>2020-01-19T17:55:44Z</time>
      </trkpt>
      <trkpt lat="-23.414317" lon="-45.468807">
        <ele>755.558</ele>
        <time>2020-01-19T17:55:49Z</time>
      </trkpt>
      <trkpt lat="-23.414280" lon="-45.468776">
        <ele>756.091</ele>
        <time>2020-01-19T17:55:53Z</time>
      </trkpt>
      <trkpt lat="-23.414240" lon="-45.468747">
        <ele>756.641</ele>
        <time>2020-01-19T17:55:59Z</time>
      </trkpt>
      <trkpt lat="-23.414201" lon="-45.468718">
        <ele>756.763</ele>
        <time>2020-01-19T17:56:03Z</time>
      </trkpt>
      <trkpt lat="-23.414173" lon="-45.468676">
        <ele>757.444</ele>
        <time>2020-01-19T17:56:08Z</time>
      </trkpt>
      <trkpt lat="-23.414146" lon="-45.468635">
        <ele>758.118</ele>
        <time>2020-01-19T17:56:13Z</time>
      </trkpt>
      <trkpt lat="-23.414125" lon="-45.468587">
        <ele>758.808</ele>
        <time>2020-01-19T17:56:17Z</time>
      </trkpt>
      <trkpt lat="-23.414103" lon="-45.468541">
        <ele>759.450</ele>
        <time>2020-01-19T17:56:22Z</time>
      </trkpt>
      <trkpt lat="-23.414085" lon="-45.468492">
        <ele>759.791</ele>
        <time>2020-01-19T17:56:26Z</time>
      </trkpt>
      <trkpt lat="-23.414065" lon="-45.468446">
        <ele>760.433</ele>
        <time>2020-01-19T17:56:31Z</time>
      </trkpt>
      <trkpt lat="-23.414045" lon="-45.468397">
        <ele>761.347</ele>
        <time>2020-01-19T17:56:36Z</time>
      </trkpt>
      <trkpt lat="-23.414028" lon="-45.468350">
        <ele>761.863</ele>
        <time>2020-01-19T17:56:40Z</time>
      </trkpt>
      <trkpt lat="-23.414010" lon="-45.468302">
        <ele>762.247</ele>
        <time>2020-01-19T17:56:44Z</time>
      </trkpt>
      <trkpt lat="-23.413984" lon="-45.468261">
        <ele>762.430</ele>
        <time>2020-01-19T17:56:48Z</time>
      </trkpt>
      <trkpt lat="-23.413966" lon="-45.468216">
        <ele>762.570</ele>
        <time>2020-01-19T17:56:53Z</time>
      </trkpt>
      <trkpt lat="-23.413953" lon="-45.468166">
        <ele>762.497</ele>
        <time>2020-01-19T17:56:58Z</time>
      </trkpt>
      <trkpt lat="-23.413937" lon="-45.468116">
        <ele>762.723</ele>
        <time>2020-01-19T17:57:03Z</time>
      </trkpt>
      <trkpt lat="-23.413926" lon="-45.468069">
        <ele>762.825</ele>
        <time>2020-01-19T17:57:08Z</time>
      </trkpt>
      <trkpt lat="-23.413919" lon="-45.468019">
        <ele>763.308</ele>
        <time>2020-01-19T17:57:14Z</time>
      </trkpt>
      <trkpt lat="-23.413903" lon="-45.467966">
        <ele>763.793</ele>
        <time>2020-01-19T17:57:20Z</time>
      </trkpt>
      <trkpt lat="-23.413886" lon="-45.467913">
        <ele>763.884</ele>
        <time>2020-01-19T17:57:24Z</time>
      </trkpt>
      <trkpt lat="-23.413863" lon="-45.467864">
        <ele>764.146</ele>
        <time>2020-01-19T17:57:30Z</time>
      </trkpt>
      <trkpt lat="-23.413849" lon="-45.467816">
        <ele>764.550</ele>
        <time>2020-01-19T17:57:34Z</time>
      </trkpt>
      <trkpt lat="-23.413838" lon="-45.467764">
        <ele>765.236</ele>
        <time>2020-01-19T17:57:37Z</time>
      </trkpt>
      <trkpt lat="-23.413818" lon="-45.467717">
        <ele>765.820</ele>
        <time>2020-01-19T17:57:41Z</time>
      </trkpt>
      <trkpt lat="-23.413800" lon="-45.467664">
        <ele>766.043</ele>
        <time>2020-01-19T17:57:46Z</time>
      </trkpt>
      <trkpt lat="-23.413781" lon="-45.467619">
        <ele>766.053</ele>
        <time>2020-01-19T17:57:49Z</time>
      </trkpt>
      <trkpt lat="-23.413770" lon="-45.467571">
        <ele>765.579</ele>
        <time>2020-01-19T17:57:53Z</time>
      </trkpt>
      <trkpt lat="-23.413753" lon="-45.467525">
        <ele>765.905</ele>
        <time>2020-01-19T17:57:58Z</time>
      </trkpt>
      <trkpt lat="-23.413736" lon="-45.467479">
        <ele>766.925</ele>
        <time>2020-01-19T17:58:04Z</time>
      </trkpt>
      <trkpt lat="-23.413705" lon="-45.467437">
        <ele>768.408</ele>
        <time>2020-01-19T17:58:11Z</time>
      </trkpt>
      <trkpt lat="-23.413687" lon="-45.467387">
        <ele>769.581</ele>
        <time>2020-01-19T17:58:15Z</time>
      </trkpt>
      <trkpt lat="-23.413676" lon="-45.467339">
        <ele>770.072</ele>
        <time>2020-01-19T17:58:17Z</time>
      </trkpt>
      <trkpt lat="-23.413657" lon="-45.467285">
        <ele>770.194</ele>
        <time>2020-01-19T17:58:19Z</time>
      </trkpt>
      <trkpt lat="-23.413634" lon="-45.467236">
        <ele>771.098</ele>
        <time>2020-01-19T17:58:23Z</time>
      </trkpt>
      <trkpt lat="-23.413608" lon="-45.467191">
        <ele>771.924</ele>
        <time>2020-01-19T17:58:27Z</time>
      </trkpt>
      <trkpt lat="-23.413582" lon="-45.467140">
        <ele>770.638</ele>
        <time>2020-01-19T17:58:31Z</time>
      </trkpt>
      <trkpt lat="-23.413560" lon="-45.467094">
        <ele>770.851</ele>
        <time>2020-01-19T17:58:34Z</time>
      </trkpt>
      <trkpt lat="-23.413536" lon="-45.467036">
        <ele>772.191</ele>
        <time>2020-01-19T17:58:38Z</time>
      </trkpt>
      <trkpt lat="-23.413519" lon="-45.466987">
        <ele>773.369</ele>
        <time>2020-01-19T17:58:41Z</time>
      </trkpt>
      <trkpt lat="-23.413502" lon="-45.466939">
        <ele>774.104</ele>
        <time>2020-01-19T17:58:44Z</time>
      </trkpt>
      <trkpt lat="-23.413481" lon="-45.466893">
        <ele>774.424</ele>
        <time>2020-01-19T17:58:47Z</time>
      </trkpt>
      <trkpt lat="-23.413455" lon="-45.466851">
        <ele>775.708</ele>
        <time>2020-01-19T17:58:50Z</time>
      </trkpt>
      <trkpt lat="-23.413428" lon="-45.466805">
        <ele>776.430</ele>
        <time>2020-01-19T17:58:53Z</time>
      </trkpt>
      <trkpt lat="-23.413405" lon="-45.466760">
        <ele>776.961</ele>
        <time>2020-01-19T17:58:56Z</time>
      </trkpt>
      <trkpt lat="-23.413388" lon="-45.466715">
        <ele>777.363</ele>
        <time>2020-01-19T17:58:59Z</time>
      </trkpt>
      <trkpt lat="-23.413371" lon="-45.466657">
        <ele>777.217</ele>
        <time>2020-01-19T17:59:03Z</time>
      </trkpt>
      <trkpt lat="-23.413346" lon="-45.466611">
        <ele>777.643</ele>
        <time>2020-01-19T17:59:06Z</time>
      </trkpt>
      <trkpt lat="-23.413316" lon="-45.466569">
        <ele>777.687</ele>
        <time>2020-01-19T17:59:09Z</time>
      </trkpt>
      <trkpt lat="-23.413278" lon="-45.466535">
        <ele>778.040</ele>
        <time>2020-01-19T17:59:12Z</time>
      </trkpt>
      <trkpt lat="-23.413228" lon="-45.466535">
        <ele>778.160</ele>
        <time>2020-01-19T17:59:15Z</time>
      </trkpt>
      <trkpt lat="-23.413184" lon="-45.466551">
        <ele>778.584</ele>
        <time>2020-01-19T17:59:18Z</time>
      </trkpt>
      <trkpt lat="-23.413136" lon="-45.466582">
        <ele>778.407</ele>
        <time>2020-01-19T17:59:21Z</time>
      </trkpt>
      <trkpt lat="-23.413098" lon="-45.466619">
        <ele>778.217</ele>
        <time>2020-01-19T17:59:24Z</time>
      </trkpt>
      <trkpt lat="-23.413062" lon="-45.466657">
        <ele>778.008</ele>
        <time>2020-01-19T17:59:26Z</time>
      </trkpt>
      <trkpt lat="-23.413019" lon="-45.466716">
        <ele>777.862</ele>
        <time>2020-01-19T17:59:29Z</time>
      </trkpt>
      <trkpt lat="-23.412990" lon="-45.466759">
        <ele>777.843</ele>
        <time>2020-01-19T17:59:30Z</time>
      </trkpt>
      <trkpt lat="-23.412956" lon="-45.466814">
        <ele>777.455</ele>
        <time>2020-01-19T17:59:32Z</time>
      </trkpt>
      <trkpt lat="-23.412928" lon="-45.466863">
        <ele>776.649</ele>
        <time>2020-01-19T17:59:34Z</time>
      </trkpt>
      <trkpt lat="-23.412894" lon="-45.466916">
        <ele>776.045</ele>
        <time>2020-01-19T17:59:35Z</time>
      </trkpt>
      <trkpt lat="-23.412859" lon="-45.466967">
        <ele>775.699</ele>
        <time>2020-01-19T17:59:37Z</time>
      </trkpt>
      <trkpt lat="-23.412778" lon="-45.467096">
        <ele>775.612</ele>
        <time>2020-01-19T17:59:39Z</time>
      </trkpt>
      <trkpt lat="-23.412741" lon="-45.467142">
        <ele>775.632</ele>
        <time>2020-01-19T17:59:40Z</time>
      </trkpt>
      <trkpt lat="-23.412701" lon="-45.467187">
        <ele>775.736</ele>
        <time>2020-01-19T17:59:41Z</time>
      </trkpt>
      <trkpt lat="-23.412663" lon="-45.467232">
        <ele>775.517</ele>
        <time>2020-01-19T17:59:42Z</time>
      </trkpt>
      <trkpt lat="-23.412626" lon="-45.467278">
        <ele>775.418</ele>
        <time>2020-01-19T17:59:43Z</time>
      </trkpt>
      <trkpt lat="-23.412587" lon="-45.467322">
        <ele>775.308</ele>
        <time>2020-01-19T17:59:44Z</time>
      </trkpt>
      <trkpt lat="-23.412551" lon="-45.467371">
        <ele>775.987</ele>
        <time>2020-01-19T17:59:45Z</time>
      </trkpt>
      <trkpt lat="-23.412517" lon="-45.467421">
        <ele>776.698</ele>
        <time>2020-01-19T17:59:46Z</time>
      </trkpt>
      <trkpt lat="-23.412486" lon="-45.467476">
        <ele>778.070</ele>
        <time>2020-01-19T17:59:47Z</time>
      </trkpt>
      <trkpt lat="-23.412453" lon="-45.467538">
        <ele>779.464</ele>
        <time>2020-01-19T17:59:48Z</time>
      </trkpt>
      <trkpt lat="-23.412415" lon="-45.467599">
        <ele>780.530</ele>
        <time>2020-01-19T17:59:49Z</time>
      </trkpt>
      <trkpt lat="-23.412380" lon="-45.467658">
        <ele>781.034</ele>
        <time>2020-01-19T17:59:50Z</time>
      </trkpt>
      <trkpt lat="-23.412336" lon="-45.467708">
        <ele>780.897</ele>
        <time>2020-01-19T17:59:51Z</time>
      </trkpt>
      <trkpt lat="-23.412287" lon="-45.467756">
        <ele>779.897</ele>
        <time>2020-01-19T17:59:52Z</time>
      </trkpt>
      <trkpt lat="-23.412246" lon="-45.467812">
        <ele>778.676</ele>
        <time>2020-01-19T17:59:53Z</time>
      </trkpt>
      <trkpt lat="-23.412211" lon="-45.467873">
        <ele>778.190</ele>
        <time>2020-01-19T17:59:54Z</time>
      </trkpt>
      <trkpt lat="-23.412176" lon="-45.467933">
        <ele>777.519</ele>
        <time>2020-01-19T17:59:55Z</time>
      </trkpt>
      <trkpt lat="-23.412143" lon="-45.467990">
        <ele>776.608</ele>
        <time>2020-01-19T17:59:56Z</time>
      </trkpt>
      <trkpt lat="-23.412105" lon="-45.468041">
        <ele>775.941</ele>
        <time>2020-01-19T17:59:57Z</time>
      </trkpt>
      <trkpt lat="-23.412063" lon="-45.468093">
        <ele>775.252</ele>
        <time>2020-01-19T17:59:58Z</time>
      </trkpt>
      <trkpt lat="-23.412018" lon="-45.468140">
        <ele>773.494</ele>
        <time>2020-01-19T17:59:59Z</time>
      </trkpt>
      <trkpt lat="-23.411975" lon="-45.468182">
        <ele>772.418</ele>
        <time>2020-01-19T18:00:00Z</time>
      </trkpt>
      <trkpt lat="-23.411933" lon="-45.468216">
        <ele>772.074</ele>
        <time>2020-01-19T18:00:01Z</time>
      </trkpt>
      <trkpt lat="-23.411888" lon="-45.468249">
        <ele>771.898</ele>
        <time>2020-01-19T18:00:02Z</time>
      </trkpt>
      <trkpt lat="-23.411842" lon="-45.468283">
        <ele>771.061</ele>
        <time>2020-01-19T18:00:03Z</time>
      </trkpt>
      <trkpt lat="-23.411796" lon="-45.468322">
        <ele>770.481</ele>
        <time>2020-01-19T18:00:04Z</time>
      </trkpt>
      <trkpt lat="-23.411748" lon="-45.468360">
        <ele>769.964</ele>
        <time>2020-01-19T18:00:05Z</time>
      </trkpt>
      <trkpt lat="-23.411693" lon="-45.468399">
        <ele>769.606</ele>
        <time>2020-01-19T18:00:06Z</time>
      </trkpt>
      <trkpt lat="-23.411635" lon="-45.468439">
        <ele>769.416</ele>
        <time>2020-01-19T18:00:07Z</time>
      </trkpt>
      <trkpt lat="-23.411577" lon="-45.468484">
        <ele>769.608</ele>
        <time>2020-01-19T18:00:08Z</time>
      </trkpt>
      <trkpt lat="-23.411523" lon="-45.468530">
        <ele>769.530</ele>
        <time>2020-01-19T18:00:09Z</time>
      </trkpt>
      <trkpt lat="-23.411474" lon="-45.468582">
        <ele>769.571</ele>
        <time>2020-01-19T18:00:10Z</time>
      </trkpt>
      <trkpt lat="-23.411429" lon="-45.468641">
        <ele>769.463</ele>
        <time>2020-01-19T18:00:11Z</time>
      </trkpt>
      <trkpt lat="-23.411391" lon="-45.468704">
        <ele>768.817</ele>
        <time>2020-01-19T18:00:12Z</time>
      </trkpt>
      <trkpt lat="-23.411359" lon="-45.468768">
        <ele>768.213</ele>
        <time>2020-01-19T18:00:13Z</time>
      </trkpt>
      <trkpt lat="-23.411331" lon="-45.468840">
        <ele>768.037</ele>
        <time>2020-01-19T18:00:14Z</time>
      </trkpt>
      <trkpt lat="-23.411300" lon="-45.468910">
        <ele>767.590</ele>
        <time>2020-01-19T18:00:15Z</time>
      </trkpt>
      <trkpt lat="-23.411272" lon="-45.468980">
        <ele>767.390</ele>
        <time>2020-01-19T18:00:16Z</time>
      </trkpt>
      <trkpt lat="-23.411252" lon="-45.469050">
        <ele>767.684</ele>
        <time>2020-01-19T18:00:17Z</time>
      </trkpt>
      <trkpt lat="-23.411229" lon="-45.469109">
        <ele>767.907</ele>
        <time>2020-01-19T18:00:18Z</time>
      </trkpt>
      <trkpt lat="-23.411196" lon="-45.469152">
        <ele>767.817</ele>
        <time>2020-01-19T18:00:19Z</time>
      </trkpt>
      <trkpt lat="-23.411154" lon="-45.469184">
        <ele>767.408</ele>
        <time>2020-01-19T18:00:20Z</time>
      </trkpt>
      <trkpt lat="-23.411098" lon="-45.469196">
        <ele>767.312</ele>
        <time>2020-01-19T18:00:21Z</time>
      </trkpt>
      <trkpt lat="-23.411036" lon="-45.469192">
        <ele>766.543</ele>
        <time>2020-01-19T18:00:22Z</time>
      </trkpt>
      <trkpt lat="-23.410985" lon="-45.469187">
        <ele>765.575</ele>
        <time>2020-01-19T18:00:23Z</time>
      </trkpt>
      <trkpt lat="-23.410936" lon="-45.469163">
        <ele>764.629</ele>
        <time>2020-01-19T18:00:24Z</time>
      </trkpt>
      <trkpt lat="-23.410886" lon="-45.469126">
        <ele>764.175</ele>
        <time>2020-01-19T18:00:25Z</time>
      </trkpt>
      <trkpt lat="-23.410838" lon="-45.469077">
        <ele>764.329</ele>
        <time>2020-01-19T18:00:26Z</time>
      </trkpt>
      <trkpt lat="-23.410797" lon="-45.469028">
        <ele>764.552</ele>
        <time>2020-01-19T18:00:27Z</time>
      </trkpt>
      <trkpt lat="-23.410767" lon="-45.468978">
        <ele>764.512</ele>
        <time>2020-01-19T18:00:28Z</time>
      </trkpt>
      <trkpt lat="-23.410736" lon="-45.468924">
        <ele>764.292</ele>
        <time>2020-01-19T18:00:29Z</time>
      </trkpt>
      <trkpt lat="-23.410699" lon="-45.468866">
        <ele>764.073</ele>
        <time>2020-01-19T18:00:30Z</time>
      </trkpt>
      <trkpt lat="-23.410658" lon="-45.468812">
        <ele>763.720</ele>
        <time>2020-01-19T18:00:31Z</time>
      </trkpt>
      <trkpt lat="-23.410609" lon="-45.468756">
        <ele>763.308</ele>
        <time>2020-01-19T18:00:32Z</time>
      </trkpt>
      <trkpt lat="-23.410559" lon="-45.468707">
        <ele>763.023</ele>
        <time>2020-01-19T18:00:33Z</time>
      </trkpt>
      <trkpt lat="-23.410504" lon="-45.468667">
        <ele>762.434</ele>
        <time>2020-01-19T18:00:34Z</time>
      </trkpt>
      <trkpt lat="-23.410447" lon="-45.468622">
        <ele>761.476</ele>
        <time>2020-01-19T18:00:35Z</time>
      </trkpt>
      <trkpt lat="-23.410386" lon="-45.468575">
        <ele>760.310</ele>
        <time>2020-01-19T18:00:36Z</time>
      </trkpt>
      <trkpt lat="-23.410330" lon="-45.468524">
        <ele>759.296</ele>
        <time>2020-01-19T18:00:37Z</time>
      </trkpt>
      <trkpt lat="-23.410277" lon="-45.468467">
        <ele>758.320</ele>
        <time>2020-01-19T18:00:38Z</time>
      </trkpt>
      <trkpt lat="-23.410230" lon="-45.468408">
        <ele>757.713</ele>
        <time>2020-01-19T18:00:39Z</time>
      </trkpt>
      <trkpt lat="-23.410180" lon="-45.468350">
        <ele>757.493</ele>
        <time>2020-01-19T18:00:40Z</time>
      </trkpt>
      <trkpt lat="-23.410129" lon="-45.468292">
        <ele>757.136</ele>
        <time>2020-01-19T18:00:41Z</time>
      </trkpt>
      <trkpt lat="-23.410080" lon="-45.468231">
        <ele>757.117</ele>
        <time>2020-01-19T18:00:42Z</time>
      </trkpt>
      <trkpt lat="-23.410036" lon="-45.468169">
        <ele>757.318</ele>
        <time>2020-01-19T18:00:43Z</time>
      </trkpt>
      <trkpt lat="-23.409989" lon="-45.468112">
        <ele>757.308</ele>
        <time>2020-01-19T18:00:44Z</time>
      </trkpt>
      <trkpt lat="-23.409943" lon="-45.468061">
        <ele>757.387</ele>
        <time>2020-01-19T18:00:45Z</time>
      </trkpt>
      <trkpt lat="-23.409891" lon="-45.468018">
        <ele>757.558</ele>
        <time>2020-01-19T18:00:46Z</time>
      </trkpt>
      <trkpt lat="-23.409843" lon="-45.467975">
        <ele>757.610</ele>
        <time>2020-01-19T18:00:47Z</time>
      </trkpt>
      <trkpt lat="-23.409801" lon="-45.467928">
        <ele>757.684</ele>
        <time>2020-01-19T18:00:48Z</time>
      </trkpt>
      <trkpt lat="-23.409760" lon="-45.467881">
        <ele>757.880</ele>
        <time>2020-01-19T18:00:49Z</time>
      </trkpt>
      <trkpt lat="-23.409715" lon="-45.467835">
        <ele>757.374</ele>
        <time>2020-01-19T18:00:50Z</time>
      </trkpt>
      <trkpt lat="-23.409676" lon="-45.467794">
        <ele>756.977</ele>
        <time>2020-01-19T18:00:51Z</time>
      </trkpt>
      <trkpt lat="-23.409642" lon="-45.467746">
        <ele>757.017</ele>
        <time>2020-01-19T18:00:52Z</time>
      </trkpt>
      <trkpt lat="-23.409611" lon="-45.467706">
        <ele>757.431</ele>
        <time>2020-01-19T18:00:53Z</time>
      </trkpt>
      <trkpt lat="-23.409581" lon="-45.467669">
        <ele>757.561</ele>
        <time>2020-01-19T18:00:54Z</time>
      </trkpt>
      <trkpt lat="-23.409536" lon="-45.467625">
        <ele>757.407</ele>
        <time>2020-01-19T18:00:55Z</time>
      </trkpt>
      <trkpt lat="-23.409489" lon="-45.467586">
        <ele>757.608</ele>
        <time>2020-01-19T18:00:56Z</time>
      </trkpt>
      <trkpt lat="-23.409446" lon="-45.467556">
        <ele>758.257</ele>
        <time>2020-01-19T18:00:57Z</time>
      </trkpt>
      <trkpt lat="-23.409400" lon="-45.467536">
        <ele>758.578</ele>
        <time>2020-01-19T18:00:58Z</time>
      </trkpt>
      <trkpt lat="-23.409356" lon="-45.467514">
        <ele>758.670</ele>
        <time>2020-01-19T18:00:59Z</time>
      </trkpt>
      <trkpt lat="-23.409285" lon="-45.467474">
        <ele>758.754</ele>
        <time>2020-01-19T18:01:01Z</time>
      </trkpt>
      <trkpt lat="-23.409245" lon="-45.467448">
        <ele>759.250</ele>
        <time>2020-01-19T18:01:02Z</time>
      </trkpt>
      <trkpt lat="-23.409201" lon="-45.467433">
        <ele>759.774</ele>
        <time>2020-01-19T18:01:03Z</time>
      </trkpt>
      <trkpt lat="-23.409156" lon="-45.467419">
        <ele>759.887</ele>
        <time>2020-01-19T18:01:04Z</time>
      </trkpt>
      <trkpt lat="-23.409096" lon="-45.467397">
        <ele>760.677</ele>
        <time>2020-01-19T18:01:06Z</time>
      </trkpt>
      <trkpt lat="-23.409041" lon="-45.467360">
        <ele>760.987</ele>
        <time>2020-01-19T18:01:08Z</time>
      </trkpt>
      <trkpt lat="-23.408947" lon="-45.467333">
        <ele>761.142</ele>
        <time>2020-01-19T18:01:09Z</time>
      </trkpt>
      <trkpt lat="-23.408880" lon="-45.467310">
        <ele>760.526</ele>
        <time>2020-01-19T18:01:11Z</time>
      </trkpt>
      <trkpt lat="-23.408814" lon="-45.467297">
        <ele>759.808</ele>
        <time>2020-01-19T18:01:12Z</time>
      </trkpt>
      <trkpt lat="-23.408710" lon="-45.467288">
        <ele>759.812</ele>
        <time>2020-01-19T18:01:14Z</time>
      </trkpt>
      <trkpt lat="-23.408651" lon="-45.467284">
        <ele>759.713</ele>
        <time>2020-01-19T18:01:15Z</time>
      </trkpt>
      <trkpt lat="-23.408589" lon="-45.467277">
        <ele>759.915</ele>
        <time>2020-01-19T18:01:16Z</time>
      </trkpt>
      <trkpt lat="-23.408526" lon="-45.467263">
        <ele>759.469</ele>
        <time>2020-01-19T18:01:17Z</time>
      </trkpt>
      <trkpt lat="-23.408467" lon="-45.467251">
        <ele>759.145</ele>
        <time>2020-01-19T18:01:18Z</time>
      </trkpt>
      <trkpt lat="-23.408411" lon="-45.467235">
        <ele>758.639</ele>
        <time>2020-01-19T18:01:19Z</time>
      </trkpt>
      <trkpt lat="-23.408358" lon="-45.467213">
        <ele>759.212</ele>
        <time>2020-01-19T18:01:20Z</time>
      </trkpt>
      <trkpt lat="-23.408306" lon="-45.467202">
        <ele>759.652</ele>
        <time>2020-01-19T18:01:21Z</time>
      </trkpt>
      <trkpt lat="-23.408246" lon="-45.467197">
        <ele>759.581</ele>
        <time>2020-01-19T18:01:22Z</time>
      </trkpt>
      <trkpt lat="-23.408183" lon="-45.467185">
        <ele>758.761</ele>
        <time>2020-01-19T18:01:23Z</time>
      </trkpt>
      <trkpt lat="-23.408122" lon="-45.467173">
        <ele>757.617</ele>
        <time>2020-01-19T18:01:24Z</time>
      </trkpt>
      <trkpt lat="-23.408060" lon="-45.467158">
        <ele>756.508</ele>
        <time>2020-01-19T18:01:25Z</time>
      </trkpt>
      <trkpt lat="-23.407999" lon="-45.467137">
        <ele>755.112</ele>
        <time>2020-01-19T18:01:26Z</time>
      </trkpt>
      <trkpt lat="-23.407936" lon="-45.467116">
        <ele>754.613</ele>
        <time>2020-01-19T18:01:27Z</time>
      </trkpt>
      <trkpt lat="-23.407867" lon="-45.467094">
        <ele>753.985</ele>
        <time>2020-01-19T18:01:28Z</time>
      </trkpt>
      <trkpt lat="-23.407795" lon="-45.467073">
        <ele>752.939</ele>
        <time>2020-01-19T18:01:29Z</time>
      </trkpt>
      <trkpt lat="-23.407724" lon="-45.467055">
        <ele>752.025</ele>
        <time>2020-01-19T18:01:30Z</time>
      </trkpt>
      <trkpt lat="-23.407654" lon="-45.467032">
        <ele>751.619</ele>
        <time>2020-01-19T18:01:31Z</time>
      </trkpt>
      <trkpt lat="-23.407588" lon="-45.466999">
        <ele>751.092</ele>
        <time>2020-01-19T18:01:32Z</time>
      </trkpt>
      <trkpt lat="-23.407528" lon="-45.466960">
        <ele>750.662</ele>
        <time>2020-01-19T18:01:33Z</time>
      </trkpt>
      <trkpt lat="-23.407472" lon="-45.466920">
        <ele>750.742</ele>
        <time>2020-01-19T18:01:34Z</time>
      </trkpt>
      <trkpt lat="-23.407416" lon="-45.466877">
        <ele>749.822</ele>
        <time>2020-01-19T18:01:35Z</time>
      </trkpt>
      <trkpt lat="-23.407367" lon="-45.466831">
        <ele>749.314</ele>
        <time>2020-01-19T18:01:36Z</time>
      </trkpt>
      <trkpt lat="-23.407323" lon="-45.466787">
        <ele>749.008</ele>
        <time>2020-01-19T18:01:37Z</time>
      </trkpt>
      <trkpt lat="-23.407282" lon="-45.466744">
        <ele>748.768</ele>
        <time>2020-01-19T18:01:38Z</time>
      </trkpt>
      <trkpt lat="-23.407243" lon="-45.466697">
        <ele>748.819</ele>
        <time>2020-01-19T18:01:39Z</time>
      </trkpt>
      <trkpt lat="-23.407207" lon="-45.466653">
        <ele>748.831</ele>
        <time>2020-01-19T18:01:40Z</time>
      </trkpt>
      <trkpt lat="-23.407172" lon="-45.466613">
        <ele>748.375</ele>
        <time>2020-01-19T18:01:41Z</time>
      </trkpt>
      <trkpt lat="-23.407138" lon="-45.466576">
        <ele>748.191</ele>
        <time>2020-01-19T18:01:42Z</time>
      </trkpt>
      <trkpt lat="-23.407109" lon="-45.466535">
        <ele>747.245</ele>
        <time>2020-01-19T18:01:43Z</time>
      </trkpt>
      <trkpt lat="-23.407053" lon="-45.466470">
        <ele>745.938</ele>
        <time>2020-01-19T18:01:45Z</time>
      </trkpt>
      <trkpt lat="-23.407004" lon="-45.466415">
        <ele>744.328</ele>
        <time>2020-01-19T18:01:47Z</time>
      </trkpt>
      <trkpt lat="-23.406962" lon="-45.466361">
        <ele>742.985</ele>
        <time>2020-01-19T18:01:49Z</time>
      </trkpt>
      <trkpt lat="-23.406930" lon="-45.466301">
        <ele>742.189</ele>
        <time>2020-01-19T18:01:51Z</time>
      </trkpt>
      <trkpt lat="-23.406930" lon="-45.466248">
        <ele>741.517</ele>
        <time>2020-01-19T18:01:54Z</time>
      </trkpt>
      <trkpt lat="-23.406905" lon="-45.466198">
        <ele>740.808</ele>
        <time>2020-01-19T18:01:55Z</time>
      </trkpt>
      <trkpt lat="-23.406891" lon="-45.466147">
        <ele>740.582</ele>
        <time>2020-01-19T18:01:57Z</time>
      </trkpt>
      <trkpt lat="-23.406882" lon="-45.466097">
        <ele>739.743</ele>
        <time>2020-01-19T18:01:59Z</time>
      </trkpt>
      <trkpt lat="-23.406882" lon="-45.466040">
        <ele>739.345</ele>
        <time>2020-01-19T18:02:01Z</time>
      </trkpt>
      <trkpt lat="-23.406889" lon="-45.465986">
        <ele>739.119</ele>
        <time>2020-01-19T18:02:03Z</time>
      </trkpt>
      <trkpt lat="-23.406900" lon="-45.465936">
        <ele>739.495</ele>
        <time>2020-01-19T18:02:05Z</time>
      </trkpt>
      <trkpt lat="-23.406915" lon="-45.465881">
        <ele>739.469</ele>
        <time>2020-01-19T18:02:06Z</time>
      </trkpt>
      <trkpt lat="-23.406932" lon="-45.465826">
        <ele>739.692</ele>
        <time>2020-01-19T18:02:09Z</time>
      </trkpt>
      <trkpt lat="-23.406947" lon="-45.465772">
        <ele>740.162</ele>
        <time>2020-01-19T18:02:11Z</time>
      </trkpt>
      <trkpt lat="-23.406965" lon="-45.465701">
        <ele>740.193</ele>
        <time>2020-01-19T18:02:14Z</time>
      </trkpt>
      <trkpt lat="-23.406982" lon="-45.465638">
        <ele>739.365</ele>
        <time>2020-01-19T18:02:17Z</time>
      </trkpt>
      <trkpt lat="-23.406986" lon="-45.465569">
        <ele>739.621</ele>
        <time>2020-01-19T18:02:20Z</time>
      </trkpt>
      <trkpt lat="-23.406986" lon="-45.465520">
        <ele>739.908</ele>
        <time>2020-01-19T18:02:22Z</time>
      </trkpt>
      <trkpt lat="-23.406976" lon="-45.465459">
        <ele>740.583</ele>
        <time>2020-01-19T18:02:25Z</time>
      </trkpt>
      <trkpt lat="-23.406950" lon="-45.465407">
        <ele>741.164</ele>
        <time>2020-01-19T18:02:27Z</time>
      </trkpt>
      <trkpt lat="-23.406921" lon="-45.465350">
        <ele>741.866</ele>
        <time>2020-01-19T18:02:29Z</time>
      </trkpt>
      <trkpt lat="-23.406896" lon="-45.465302">
        <ele>742.380</ele>
        <time>2020-01-19T18:02:31Z</time>
      </trkpt>
      <trkpt lat="-23.406862" lon="-45.465251">
        <ele>742.766</ele>
        <time>2020-01-19T18:02:33Z</time>
      </trkpt>
      <trkpt lat="-23.406826" lon="-45.465204">
        <ele>742.830</ele>
        <time>2020-01-19T18:02:34Z</time>
      </trkpt>
      <trkpt lat="-23.406777" lon="-45.465159">
        <ele>741.553</ele>
        <time>2020-01-19T18:02:36Z</time>
      </trkpt>
      <trkpt lat="-23.406743" lon="-45.465125">
        <ele>740.753</ele>
        <time>2020-01-19T18:02:37Z</time>
      </trkpt>
      <trkpt lat="-23.406688" lon="-45.465080">
        <ele>740.155</ele>
        <time>2020-01-19T18:02:38Z</time>
      </trkpt>
      <trkpt lat="-23.406641" lon="-45.465043">
        <ele>739.807</ele>
        <time>2020-01-19T18:02:40Z</time>
      </trkpt>
      <trkpt lat="-23.406594" lon="-45.465000">
        <ele>739.917</ele>
        <time>2020-01-19T18:02:41Z</time>
      </trkpt>
      <trkpt lat="-23.406554" lon="-45.464967">
        <ele>741.108</ele>
        <time>2020-01-19T18:02:43Z</time>
      </trkpt>
      <trkpt lat="-23.406501" lon="-45.464935">
        <ele>741.519</ele>
        <time>2020-01-19T18:02:45Z</time>
      </trkpt>
      <trkpt lat="-23.406432" lon="-45.464917">
        <ele>741.750</ele>
        <time>2020-01-19T18:02:47Z</time>
      </trkpt>
      <trkpt lat="-23.406381" lon="-45.464908">
        <ele>741.772</ele>
        <time>2020-01-19T18:02:48Z</time>
      </trkpt>
      <trkpt lat="-23.406326" lon="-45.464901">
        <ele>741.296</ele>
        <time>2020-01-19T18:02:50Z</time>
      </trkpt>
      <trkpt lat="-23.406252" lon="-45.464898">
        <ele>741.052</ele>
        <time>2020-01-19T18:02:52Z</time>
      </trkpt>
      <trkpt lat="-23.406196" lon="-45.464914">
        <ele>741.456</ele>
        <time>2020-01-19T18:02:54Z</time>
      </trkpt>
      <trkpt lat="-23.406143" lon="-45.464944">
        <ele>741.659</ele>
        <time>2020-01-19T18:02:55Z</time>
      </trkpt>
      <trkpt lat="-23.406085" lon="-45.464970">
        <ele>741.549</ele>
        <time>2020-01-19T18:02:57Z</time>
      </trkpt>
      <trkpt lat="-23.406025" lon="-45.464986">
        <ele>741.536</ele>
        <time>2020-01-19T18:02:59Z</time>
      </trkpt>
      <trkpt lat="-23.405939" lon="-45.464999">
        <ele>741.717</ele>
        <time>2020-01-19T18:03:01Z</time>
      </trkpt>
      <trkpt lat="-23.405869" lon="-45.465007">
        <ele>741.518</ele>
        <time>2020-01-19T18:03:03Z</time>
      </trkpt>
      <trkpt lat="-23.405814" lon="-45.465022">
        <ele>741.108</ele>
        <time>2020-01-19T18:03:05Z</time>
      </trkpt>
      <trkpt lat="-23.405755" lon="-45.465039">
        <ele>741.217</ele>
        <time>2020-01-19T18:03:07Z</time>
      </trkpt>
      <trkpt lat="-23.405697" lon="-45.465051">
        <ele>741.098</ele>
        <time>2020-01-19T18:03:08Z</time>
      </trkpt>
      <trkpt lat="-23.405644" lon="-45.465057">
        <ele>741.850</ele>
        <time>2020-01-19T18:03:10Z</time>
      </trkpt>
      <trkpt lat="-23.405588" lon="-45.465054">
        <ele>742.514</ele>
        <time>2020-01-19T18:03:11Z</time>
      </trkpt>
      <trkpt lat="-23.405524" lon="-45.465039">
        <ele>743.830</ele>
        <time>2020-01-19T18:03:13Z</time>
      </trkpt>
      <trkpt lat="-23.405474" lon="-45.465009">
        <ele>742.664</ele>
        <time>2020-01-19T18:03:15Z</time>
      </trkpt>
      <trkpt lat="-23.405455" lon="-45.464940">
        <ele>743.197</ele>
        <time>2020-01-19T18:03:18Z</time>
      </trkpt>
      <trkpt lat="-23.405447" lon="-45.464882">
        <ele>744.037</ele>
        <time>2020-01-19T18:03:19Z</time>
      </trkpt>
      <trkpt lat="-23.405436" lon="-45.464818">
        <ele>743.263</ele>
        <time>2020-01-19T18:03:21Z</time>
      </trkpt>
      <trkpt lat="-23.405428" lon="-45.464769">
        <ele>742.744</ele>
        <time>2020-01-19T18:03:22Z</time>
      </trkpt>
      <trkpt lat="-23.405423" lon="-45.464676">
        <ele>742.918</ele>
        <time>2020-01-19T18:03:24Z</time>
      </trkpt>
      <trkpt lat="-23.405410" lon="-45.464590">
        <ele>744.308</ele>
        <time>2020-01-19T18:03:26Z</time>
      </trkpt>
      <trkpt lat="-23.405399" lon="-45.464524">
        <ele>744.610</ele>
        <time>2020-01-19T18:03:27Z</time>
      </trkpt>
      <trkpt lat="-23.405392" lon="-45.464463">
        <ele>745.281</ele>
        <time>2020-01-19T18:03:29Z</time>
      </trkpt>
      <trkpt lat="-23.405383" lon="-45.464387">
        <ele>746.283</ele>
        <time>2020-01-19T18:03:31Z</time>
      </trkpt>
      <trkpt lat="-23.405366" lon="-45.464328">
        <ele>747.057</ele>
        <time>2020-01-19T18:03:32Z</time>
      </trkpt>
      <trkpt lat="-23.405351" lon="-45.464276">
        <ele>747.063</ele>
        <time>2020-01-19T18:03:34Z</time>
      </trkpt>
      <trkpt lat="-23.405338" lon="-45.464222">
        <ele>746.747</ele>
        <time>2020-01-19T18:03:35Z</time>
      </trkpt>
      <trkpt lat="-23.405322" lon="-45.464159">
        <ele>746.440</ele>
        <time>2020-01-19T18:03:37Z</time>
      </trkpt>
      <trkpt lat="-23.405305" lon="-45.464094">
        <ele>745.780</ele>
        <time>2020-01-19T18:03:39Z</time>
      </trkpt>
      <trkpt lat="-23.405283" lon="-45.464017">
        <ele>745.234</ele>
        <time>2020-01-19T18:03:41Z</time>
      </trkpt>
      <trkpt lat="-23.405260" lon="-45.463956">
        <ele>745.455</ele>
        <time>2020-01-19T18:03:42Z</time>
      </trkpt>
      <trkpt lat="-23.405242" lon="-45.463905">
        <ele>746.010</ele>
        <time>2020-01-19T18:03:43Z</time>
      </trkpt>
      <trkpt lat="-23.405214" lon="-45.463833">
        <ele>746.408</ele>
        <time>2020-01-19T18:03:46Z</time>
      </trkpt>
      <trkpt lat="-23.405195" lon="-45.463772">
        <ele>746.127</ele>
        <time>2020-01-19T18:03:48Z</time>
      </trkpt>
      <trkpt lat="-23.405174" lon="-45.463719">
        <ele>746.668</ele>
        <time>2020-01-19T18:03:49Z</time>
      </trkpt>
      <trkpt lat="-23.405157" lon="-45.463671">
        <ele>747.590</ele>
        <time>2020-01-19T18:03:51Z</time>
      </trkpt>
      <trkpt lat="-23.405152" lon="-45.463612">
        <ele>747.844</ele>
        <time>2020-01-19T18:03:52Z</time>
      </trkpt>
      <trkpt lat="-23.405156" lon="-45.463552">
        <ele>748.540</ele>
        <time>2020-01-19T18:03:54Z</time>
      </trkpt>
      <trkpt lat="-23.405164" lon="-45.463486">
        <ele>749.064</ele>
        <time>2020-01-19T18:03:55Z</time>
      </trkpt>
      <trkpt lat="-23.405176" lon="-45.463423">
        <ele>748.587</ele>
        <time>2020-01-19T18:03:57Z</time>
      </trkpt>
      <trkpt lat="-23.405229" lon="-45.463334">
        <ele>748.377</ele>
        <time>2020-01-19T18:03:58Z</time>
      </trkpt>
      <trkpt lat="-23.405254" lon="-45.463258">
        <ele>747.037</ele>
        <time>2020-01-19T18:03:59Z</time>
      </trkpt>
      <trkpt lat="-23.405276" lon="-45.463190">
        <ele>746.149</ele>
        <time>2020-01-19T18:04:00Z</time>
      </trkpt>
      <trkpt lat="-23.405298" lon="-45.463125">
        <ele>745.413</ele>
        <time>2020-01-19T18:04:01Z</time>
      </trkpt>
      <trkpt lat="-23.405324" lon="-45.463071">
        <ele>745.008</ele>
        <time>2020-01-19T18:04:02Z</time>
      </trkpt>
      <trkpt lat="-23.405354" lon="-45.463022">
        <ele>745.037</ele>
        <time>2020-01-19T18:04:03Z</time>
      </trkpt>
      <trkpt lat="-23.405385" lon="-45.462972">
        <ele>745.098</ele>
        <time>2020-01-19T18:04:04Z</time>
      </trkpt>
      <trkpt lat="-23.405419" lon="-45.462929">
        <ele>745.340</ele>
        <time>2020-01-19T18:04:05Z</time>
      </trkpt>
      <trkpt lat="-23.405457" lon="-45.462892">
        <ele>745.554</ele>
        <time>2020-01-19T18:04:06Z</time>
      </trkpt>
      <trkpt lat="-23.405490" lon="-45.462857">
        <ele>745.930</ele>
        <time>2020-01-19T18:04:07Z</time>
      </trkpt>
      <trkpt lat="-23.405482" lon="-45.462792">
        <ele>746.794</ele>
        <time>2020-01-19T18:04:09Z</time>
      </trkpt>
      <trkpt lat="-23.405461" lon="-45.462712">
        <ele>746.977</ele>
        <time>2020-01-19T18:04:10Z</time>
      </trkpt>
      <trkpt lat="-23.405438" lon="-45.462650">
        <ele>747.147</ele>
        <time>2020-01-19T18:04:12Z</time>
      </trkpt>
      <trkpt lat="-23.405408" lon="-45.462603">
        <ele>746.431</ele>
        <time>2020-01-19T18:04:14Z</time>
      </trkpt>
      <trkpt lat="-23.405353" lon="-45.462566">
        <ele>745.561</ele>
        <time>2020-01-19T18:04:16Z</time>
      </trkpt>
      <trkpt lat="-23.405310" lon="-45.462544">
        <ele>745.307</ele>
        <time>2020-01-19T18:04:17Z</time>
      </trkpt>
      <trkpt lat="-23.405256" lon="-45.462526">
        <ele>745.708</ele>
        <time>2020-01-19T18:04:20Z</time>
      </trkpt>
      <trkpt lat="-23.405213" lon="-45.462508">
        <ele>745.917</ele>
        <time>2020-01-19T18:04:22Z</time>
      </trkpt>
      <trkpt lat="-23.405168" lon="-45.462499">
        <ele>746.558</ele>
        <time>2020-01-19T18:04:23Z</time>
      </trkpt>
      <trkpt lat="-23.405114" lon="-45.462484">
        <ele>746.440</ele>
        <time>2020-01-19T18:04:25Z</time>
      </trkpt>
      <trkpt lat="-23.405051" lon="-45.462469">
        <ele>746.494</ele>
        <time>2020-01-19T18:04:27Z</time>
      </trkpt>
      <trkpt lat="-23.404999" lon="-45.462443">
        <ele>746.470</ele>
        <time>2020-01-19T18:04:29Z</time>
      </trkpt>
      <trkpt lat="-23.404931" lon="-45.462413">
        <ele>746.314</ele>
        <time>2020-01-19T18:04:31Z</time>
      </trkpt>
      <trkpt lat="-23.404848" lon="-45.462386">
        <ele>746.637</ele>
        <time>2020-01-19T18:04:33Z</time>
      </trkpt>
      <trkpt lat="-23.404789" lon="-45.462367">
        <ele>746.977</ele>
        <time>2020-01-19T18:04:35Z</time>
      </trkpt>
      <trkpt lat="-23.404737" lon="-45.462351">
        <ele>746.611</ele>
        <time>2020-01-19T18:04:36Z</time>
      </trkpt>
      <trkpt lat="-23.404679" lon="-45.462332">
        <ele>746.121</ele>
        <time>2020-01-19T18:04:38Z</time>
      </trkpt>
      <trkpt lat="-23.404623" lon="-45.462312">
        <ele>745.503</ele>
        <time>2020-01-19T18:04:41Z</time>
      </trkpt>
      <trkpt lat="-23.404568" lon="-45.462293">
        <ele>745.008</ele>
        <time>2020-01-19T18:04:43Z</time>
      </trkpt>
      <trkpt lat="-23.404517" lon="-45.462277">
        <ele>744.315</ele>
        <time>2020-01-19T18:04:45Z</time>
      </trkpt>
      <trkpt lat="-23.404461" lon="-45.462271">
        <ele>743.766</ele>
        <time>2020-01-19T18:04:47Z</time>
      </trkpt>
      <trkpt lat="-23.404414" lon="-45.462265">
        <ele>743.288</ele>
        <time>2020-01-19T18:04:48Z</time>
      </trkpt>
      <trkpt lat="-23.404359" lon="-45.462250">
        <ele>742.792</ele>
        <time>2020-01-19T18:04:50Z</time>
      </trkpt>
      <trkpt lat="-23.404314" lon="-45.462239">
        <ele>742.198</ele>
        <time>2020-01-19T18:04:52Z</time>
      </trkpt>
      <trkpt lat="-23.404265" lon="-45.462231">
        <ele>742.042</ele>
        <time>2020-01-19T18:04:54Z</time>
      </trkpt>
      <trkpt lat="-23.404208" lon="-45.462222">
        <ele>741.915</ele>
        <time>2020-01-19T18:04:56Z</time>
      </trkpt>
      <trkpt lat="-23.404149" lon="-45.462215">
        <ele>741.815</ele>
        <time>2020-01-19T18:04:57Z</time>
      </trkpt>
      <trkpt lat="-23.404093" lon="-45.462205">
        <ele>741.832</ele>
        <time>2020-01-19T18:05:00Z</time>
      </trkpt>
      <trkpt lat="-23.404043" lon="-45.462195">
        <ele>741.692</ele>
        <time>2020-01-19T18:05:02Z</time>
      </trkpt>
      <trkpt lat="-23.403994" lon="-45.462189">
        <ele>741.611</ele>
        <time>2020-01-19T18:05:04Z</time>
      </trkpt>
      <trkpt lat="-23.403949" lon="-45.462181">
        <ele>743.008</ele>
        <time>2020-01-19T18:05:05Z</time>
      </trkpt>
      <trkpt lat="-23.403897" lon="-45.462166">
        <ele>743.317</ele>
        <time>2020-01-19T18:05:07Z</time>
      </trkpt>
      <trkpt lat="-23.403852" lon="-45.462160">
        <ele>744.138</ele>
        <time>2020-01-19T18:05:09Z</time>
      </trkpt>
      <trkpt lat="-23.403798" lon="-45.462154">
        <ele>744.780</ele>
        <time>2020-01-19T18:05:12Z</time>
      </trkpt>
      <trkpt lat="-23.403739" lon="-45.462147">
        <ele>745.284</ele>
        <time>2020-01-19T18:05:14Z</time>
      </trkpt>
      <trkpt lat="-23.403679" lon="-45.462137">
        <ele>745.480</ele>
        <time>2020-01-19T18:05:15Z</time>
      </trkpt>
      <trkpt lat="-23.403626" lon="-45.462134">
        <ele>745.424</ele>
        <time>2020-01-19T18:05:17Z</time>
      </trkpt>
      <trkpt lat="-23.403575" lon="-45.462129">
        <ele>745.157</ele>
        <time>2020-01-19T18:05:19Z</time>
      </trkpt>
      <trkpt lat="-23.403524" lon="-45.462123">
        <ele>745.397</ele>
        <time>2020-01-19T18:05:21Z</time>
      </trkpt>
      <trkpt lat="-23.403450" lon="-45.462116">
        <ele>745.648</ele>
        <time>2020-01-19T18:05:22Z</time>
      </trkpt>
      <trkpt lat="-23.403397" lon="-45.462111">
        <ele>745.861</ele>
        <time>2020-01-19T18:05:24Z</time>
      </trkpt>
      <trkpt lat="-23.403347" lon="-45.462110">
        <ele>746.117</ele>
        <time>2020-01-19T18:05:26Z</time>
      </trkpt>
      <trkpt lat="-23.403298" lon="-45.462108">
        <ele>746.308</ele>
        <time>2020-01-19T18:05:27Z</time>
      </trkpt>
      <trkpt lat="-23.403246" lon="-45.462109">
        <ele>746.158</ele>
        <time>2020-01-19T18:05:29Z</time>
      </trkpt>
      <trkpt lat="-23.403167" lon="-45.462111">
        <ele>746.059</ele>
        <time>2020-01-19T18:05:30Z</time>
      </trkpt>
      <trkpt lat="-23.403111" lon="-45.462109">
        <ele>746.151</ele>
        <time>2020-01-19T18:05:32Z</time>
      </trkpt>
      <trkpt lat="-23.403055" lon="-45.462112">
        <ele>746.185</ele>
        <time>2020-01-19T18:05:33Z</time>
      </trkpt>
      <trkpt lat="-23.402980" lon="-45.462116">
        <ele>746.041</ele>
        <time>2020-01-19T18:05:36Z</time>
      </trkpt>
      <trkpt lat="-23.402909" lon="-45.462125">
        <ele>746.175</ele>
        <time>2020-01-19T18:05:38Z</time>
      </trkpt>
      <trkpt lat="-23.402854" lon="-45.462137">
        <ele>746.288</ele>
        <time>2020-01-19T18:05:39Z</time>
      </trkpt>
      <trkpt lat="-23.402803" lon="-45.462152">
        <ele>746.028</ele>
        <time>2020-01-19T18:05:41Z</time>
      </trkpt>
      <trkpt lat="-23.402752" lon="-45.462167">
        <ele>745.925</ele>
        <time>2020-01-19T18:05:42Z</time>
      </trkpt>
      <trkpt lat="-23.402694" lon="-45.462188">
        <ele>746.326</ele>
        <time>2020-01-19T18:05:44Z</time>
      </trkpt>
      <trkpt lat="-23.402642" lon="-45.462208">
        <ele>746.608</ele>
        <time>2020-01-19T18:05:45Z</time>
      </trkpt>
      <trkpt lat="-23.402594" lon="-45.462222">
        <ele>746.608</ele>
        <time>2020-01-19T18:05:47Z</time>
      </trkpt>
      <trkpt lat="-23.402539" lon="-45.462238">
        <ele>746.876</ele>
        <time>2020-01-19T18:05:49Z</time>
      </trkpt>
      <trkpt lat="-23.402448" lon="-45.462239">
        <ele>747.547</ele>
        <time>2020-01-19T18:05:51Z</time>
      </trkpt>
      <trkpt lat="-23.402388" lon="-45.462229">
        <ele>748.039</ele>
        <time>2020-01-19T18:05:52Z</time>
      </trkpt>
      <trkpt lat="-23.402324" lon="-45.462215">
        <ele>748.813</ele>
        <time>2020-01-19T18:05:54Z</time>
      </trkpt>
      <trkpt lat="-23.402263" lon="-45.462201">
        <ele>748.869</ele>
        <time>2020-01-19T18:05:56Z</time>
      </trkpt>
      <trkpt lat="-23.402202" lon="-45.462180">
        <ele>748.933</ele>
        <time>2020-01-19T18:05:57Z</time>
      </trkpt>
      <trkpt lat="-23.402143" lon="-45.462158">
        <ele>748.376</ele>
        <time>2020-01-19T18:05:58Z</time>
      </trkpt>
      <trkpt lat="-23.402086" lon="-45.462137">
        <ele>747.916</ele>
        <time>2020-01-19T18:06:00Z</time>
      </trkpt>
      <trkpt lat="-23.402033" lon="-45.462120">
        <ele>748.168</ele>
        <time>2020-01-19T18:06:01Z</time>
      </trkpt>
      <trkpt lat="-23.401965" lon="-45.462097">
        <ele>748.242</ele>
        <time>2020-01-19T18:06:03Z</time>
      </trkpt>
      <trkpt lat="-23.401902" lon="-45.462075">
        <ele>748.726</ele>
        <time>2020-01-19T18:06:05Z</time>
      </trkpt>
      <trkpt lat="-23.401841" lon="-45.462054">
        <ele>749.108</ele>
        <time>2020-01-19T18:06:06Z</time>
      </trkpt>
      <trkpt lat="-23.401779" lon="-45.462034">
        <ele>749.360</ele>
        <time>2020-01-19T18:06:08Z</time>
      </trkpt>
      <trkpt lat="-23.401712" lon="-45.462012">
        <ele>749.381</ele>
        <time>2020-01-19T18:06:09Z</time>
      </trkpt>
      <trkpt lat="-23.401652" lon="-45.461998">
        <ele>749.443</ele>
        <time>2020-01-19T18:06:11Z</time>
      </trkpt>
      <trkpt lat="-23.401589" lon="-45.461994">
        <ele>749.347</ele>
        <time>2020-01-19T18:06:12Z</time>
      </trkpt>
      <trkpt lat="-23.401512" lon="-45.462031">
        <ele>749.283</ele>
        <time>2020-01-19T18:06:14Z</time>
      </trkpt>
      <trkpt lat="-23.401466" lon="-45.462064">
        <ele>749.077</ele>
        <time>2020-01-19T18:06:15Z</time>
      </trkpt>
      <trkpt lat="-23.401419" lon="-45.462102">
        <ele>748.930</ele>
        <time>2020-01-19T18:06:16Z</time>
      </trkpt>
      <trkpt lat="-23.401372" lon="-45.462140">
        <ele>748.830</ele>
        <time>2020-01-19T18:06:17Z</time>
      </trkpt>
      <trkpt lat="-23.401320" lon="-45.462178">
        <ele>748.784</ele>
        <time>2020-01-19T18:06:18Z</time>
      </trkpt>
      <trkpt lat="-23.401266" lon="-45.462212">
        <ele>748.607</ele>
        <time>2020-01-19T18:06:19Z</time>
      </trkpt>
      <trkpt lat="-23.401214" lon="-45.462242">
        <ele>748.617</ele>
        <time>2020-01-19T18:06:20Z</time>
      </trkpt>
      <trkpt lat="-23.401163" lon="-45.462269">
        <ele>748.408</ele>
        <time>2020-01-19T18:06:21Z</time>
      </trkpt>
      <trkpt lat="-23.401111" lon="-45.462297">
        <ele>748.152</ele>
        <time>2020-01-19T18:06:22Z</time>
      </trkpt>
      <trkpt lat="-23.401064" lon="-45.462326">
        <ele>747.493</ele>
        <time>2020-01-19T18:06:23Z</time>
      </trkpt>
      <trkpt lat="-23.401014" lon="-45.462354">
        <ele>746.865</ele>
        <time>2020-01-19T18:06:24Z</time>
      </trkpt>
      <trkpt lat="-23.400965" lon="-45.462383">
        <ele>746.389</ele>
        <time>2020-01-19T18:06:25Z</time>
      </trkpt>
      <trkpt lat="-23.400917" lon="-45.462414">
        <ele>745.955</ele>
        <time>2020-01-19T18:06:26Z</time>
      </trkpt>
      <trkpt lat="-23.400866" lon="-45.462435">
        <ele>745.319</ele>
        <time>2020-01-19T18:06:27Z</time>
      </trkpt>
      <trkpt lat="-23.400814" lon="-45.462450">
        <ele>744.982</ele>
        <time>2020-01-19T18:06:28Z</time>
      </trkpt>
      <trkpt lat="-23.400768" lon="-45.462465">
        <ele>744.452</ele>
        <time>2020-01-19T18:06:29Z</time>
      </trkpt>
      <trkpt lat="-23.400680" lon="-45.462484">
        <ele>743.573</ele>
        <time>2020-01-19T18:06:31Z</time>
      </trkpt>
      <trkpt lat="-23.400630" lon="-45.462491">
        <ele>742.585</ele>
        <time>2020-01-19T18:06:32Z</time>
      </trkpt>
      <trkpt lat="-23.400578" lon="-45.462494">
        <ele>741.913</ele>
        <time>2020-01-19T18:06:33Z</time>
      </trkpt>
      <trkpt lat="-23.400503" lon="-45.462492">
        <ele>741.608</ele>
        <time>2020-01-19T18:06:35Z</time>
      </trkpt>
      <trkpt lat="-23.400444" lon="-45.462488">
        <ele>741.211</ele>
        <time>2020-01-19T18:06:37Z</time>
      </trkpt>
      <trkpt lat="-23.400379" lon="-45.462488">
        <ele>739.622</ele>
        <time>2020-01-19T18:06:39Z</time>
      </trkpt>
      <trkpt lat="-23.400326" lon="-45.462508">
        <ele>738.814</ele>
        <time>2020-01-19T18:06:41Z</time>
      </trkpt>
      <trkpt lat="-23.400278" lon="-45.462499">
        <ele>738.388</ele>
        <time>2020-01-19T18:06:42Z</time>
      </trkpt>
      <trkpt lat="-23.400220" lon="-45.462486">
        <ele>736.954</ele>
        <time>2020-01-19T18:06:44Z</time>
      </trkpt>
      <trkpt lat="-23.400166" lon="-45.462477">
        <ele>735.378</ele>
        <time>2020-01-19T18:06:46Z</time>
      </trkpt>
      <trkpt lat="-23.400113" lon="-45.462471">
        <ele>734.551</ele>
        <time>2020-01-19T18:06:47Z</time>
      </trkpt>
      <trkpt lat="-23.400066" lon="-45.462464">
        <ele>734.051</ele>
        <time>2020-01-19T18:06:49Z</time>
      </trkpt>
      <trkpt lat="-23.400017" lon="-45.462452">
        <ele>734.245</ele>
        <time>2020-01-19T18:06:50Z</time>
      </trkpt>
      <trkpt lat="-23.399958" lon="-45.462441">
        <ele>734.347</ele>
        <time>2020-01-19T18:06:52Z</time>
      </trkpt>
      <trkpt lat="-23.399899" lon="-45.462427">
        <ele>733.611</ele>
        <time>2020-01-19T18:06:53Z</time>
      </trkpt>
      <trkpt lat="-23.399840" lon="-45.462416">
        <ele>733.008</ele>
        <time>2020-01-19T18:06:55Z</time>
      </trkpt>
      <trkpt lat="-23.399795" lon="-45.462407">
        <ele>732.438</ele>
        <time>2020-01-19T18:06:56Z</time>
      </trkpt>
      <trkpt lat="-23.399733" lon="-45.462397">
        <ele>731.649</ele>
        <time>2020-01-19T18:06:57Z</time>
      </trkpt>
      <trkpt lat="-23.399675" lon="-45.462389">
        <ele>730.471</ele>
        <time>2020-01-19T18:06:59Z</time>
      </trkpt>
      <trkpt lat="-23.399610" lon="-45.462382">
        <ele>729.065</ele>
        <time>2020-01-19T18:07:00Z</time>
      </trkpt>
      <trkpt lat="-23.399550" lon="-45.462374">
        <ele>727.561</ele>
        <time>2020-01-19T18:07:02Z</time>
      </trkpt>
      <trkpt lat="-23.399486" lon="-45.462364">
        <ele>726.145</ele>
        <time>2020-01-19T18:07:04Z</time>
      </trkpt>
      <trkpt lat="-23.399406" lon="-45.462351">
        <ele>724.438</ele>
        <time>2020-01-19T18:07:06Z</time>
      </trkpt>
      <trkpt lat="-23.399339" lon="-45.462342">
        <ele>722.818</ele>
        <time>2020-01-19T18:07:07Z</time>
      </trkpt>
      <trkpt lat="-23.399278" lon="-45.462334">
        <ele>720.869</ele>
        <time>2020-01-19T18:07:09Z</time>
      </trkpt>
      <trkpt lat="-23.399214" lon="-45.462326">
        <ele>719.804</ele>
        <time>2020-01-19T18:07:10Z</time>
      </trkpt>
      <trkpt lat="-23.399165" lon="-45.462322">
        <ele>718.524</ele>
        <time>2020-01-19T18:07:11Z</time>
      </trkpt>
      <trkpt lat="-23.399110" lon="-45.462325">
        <ele>717.808</ele>
        <time>2020-01-19T18:07:13Z</time>
      </trkpt>
      <trkpt lat="-23.399033" lon="-45.462330">
        <ele>717.030</ele>
        <time>2020-01-19T18:07:15Z</time>
      </trkpt>
      <trkpt lat="-23.398985" lon="-45.462335">
        <ele>716.591</ele>
        <time>2020-01-19T18:07:17Z</time>
      </trkpt>
      <trkpt lat="-23.398931" lon="-45.462349">
        <ele>715.823</ele>
        <time>2020-01-19T18:07:18Z</time>
      </trkpt>
      <trkpt lat="-23.398884" lon="-45.462371">
        <ele>714.347</ele>
        <time>2020-01-19T18:07:21Z</time>
      </trkpt>
      <trkpt lat="-23.398834" lon="-45.462400">
        <ele>712.233</ele>
        <time>2020-01-19T18:07:23Z</time>
      </trkpt>
      <trkpt lat="-23.398789" lon="-45.462424">
        <ele>710.677</ele>
        <time>2020-01-19T18:07:25Z</time>
      </trkpt>
      <trkpt lat="-23.398741" lon="-45.462443">
        <ele>707.940</ele>
        <time>2020-01-19T18:07:28Z</time>
      </trkpt>
      <trkpt lat="-23.398760" lon="-45.462490">
        <ele>705.540</ele>
        <time>2020-01-19T18:08:25Z</time>
      </trkpt>
      <trkpt lat="-23.398715" lon="-45.462484">
        <ele>704.177</ele>
        <time>2020-01-19T18:08:44Z</time>
      </trkpt>
      <trkpt lat="-23.398670" lon="-45.462486">
        <ele>703.261</ele>
        <time>2020-01-19T18:09:12Z</time>
      </trkpt>
      <trkpt lat="-23.398624" lon="-45.462502">
        <ele>702.127</ele>
        <time>2020-01-19T18:09:32Z</time>
      </trkpt>
      <trkpt lat="-23.398581" lon="-45.462520">
        <ele>701.508</ele>
        <time>2020-01-19T18:09:39Z</time>
      </trkpt>
      <trkpt lat="-23.398541" lon="-45.462547">
        <ele>700.581</ele>
        <time>2020-01-19T18:09:45Z</time>
      </trkpt>
      <trkpt lat="-23.398504" lon="-45.462578">
        <ele>700.652</ele>
        <time>2020-01-19T18:09:50Z</time>
      </trkpt>
      <trkpt lat="-23.398461" lon="-45.462595">
        <ele>700.584</ele>
        <time>2020-01-19T18:09:56Z</time>
      </trkpt>
      <trkpt lat="-23.398418" lon="-45.462613">
        <ele>699.828</ele>
        <time>2020-01-19T18:10:02Z</time>
      </trkpt>
      <trkpt lat="-23.398380" lon="-45.462641">
        <ele>700.334</ele>
        <time>2020-01-19T18:10:09Z</time>
      </trkpt>
      <trkpt lat="-23.398349" lon="-45.462676">
        <ele>700.568</ele>
        <time>2020-01-19T18:10:15Z</time>
      </trkpt>
      <trkpt lat="-23.398316" lon="-45.462711">
        <ele>701.011</ele>
        <time>2020-01-19T18:10:22Z</time>
      </trkpt>
      <trkpt lat="-23.398274" lon="-45.462728">
        <ele>701.821</ele>
        <time>2020-01-19T18:10:34Z</time>
      </trkpt>
      <trkpt lat="-23.398275" lon="-45.462677">
        <ele>700.979</ele>
        <time>2020-01-19T18:10:52Z</time>
      </trkpt>
      <trkpt lat="-23.398245" lon="-45.462715">
        <ele>700.605</ele>
        <time>2020-01-19T18:11:04Z</time>
      </trkpt>
      <trkpt lat="-23.398292" lon="-45.462717">
        <ele>700.525</ele>
        <time>2020-01-19T18:16:48Z</time>
      </trkpt>
      <trkpt lat="-23.398240" lon="-45.462708">
        <ele>696.508</ele>
        <time>2020-01-19T18:19:12Z</time>
      </trkpt>
      <trkpt lat="-23.398226" lon="-45.462755">
        <ele>695.911</ele>
        <time>2020-01-19T18:22:16Z</time>
      </trkpt>
      <trkpt lat="-23.398197" lon="-45.462795">
        <ele>696.092</ele>
        <time>2020-01-19T18:22:24Z</time>
      </trkpt>
      <trkpt lat="-23.398161" lon="-45.462827">
        <ele>695.914</ele>
        <time>2020-01-19T18:22:31Z</time>
      </trkpt>
      <trkpt lat="-23.398113" lon="-45.462835">
        <ele>695.318</ele>
        <time>2020-01-19T18:22:35Z</time>
      </trkpt>
      <trkpt lat="-23.398064" lon="-45.462835">
        <ele>694.954</ele>
        <time>2020-01-19T18:22:40Z</time>
      </trkpt>
      <trkpt lat="-23.398016" lon="-45.462826">
        <ele>694.418</ele>
        <time>2020-01-19T18:22:44Z</time>
      </trkpt>
      <trkpt lat="-23.397967" lon="-45.462818">
        <ele>694.711</ele>
        <time>2020-01-19T18:22:48Z</time>
      </trkpt>
      <trkpt lat="-23.397921" lon="-45.462805">
        <ele>693.821</ele>
        <time>2020-01-19T18:22:54Z</time>
      </trkpt>
      <trkpt lat="-23.397874" lon="-45.462810">
        <ele>693.446</ele>
        <time>2020-01-19T18:23:26Z</time>
      </trkpt>
      <trkpt lat="-23.397834" lon="-45.462833">
        <ele>692.988</ele>
        <time>2020-01-19T18:23:39Z</time>
      </trkpt>
      <trkpt lat="-23.397878" lon="-45.462841">
        <ele>691.316</ele>
        <time>2020-01-19T18:24:01Z</time>
      </trkpt>
      <trkpt lat="-23.397835" lon="-45.462821">
        <ele>690.308</ele>
        <time>2020-01-19T18:24:27Z</time>
      </trkpt>
      <trkpt lat="-23.397786" lon="-45.462819">
        <ele>689.438</ele>
        <time>2020-01-19T18:24:30Z</time>
      </trkpt>
      <trkpt lat="-23.397742" lon="-45.462807">
        <ele>689.239</ele>
        <time>2020-01-19T18:24:35Z</time>
      </trkpt>
      <trkpt lat="-23.397703" lon="-45.462782">
        <ele>689.681</ele>
        <time>2020-01-19T18:24:43Z</time>
      </trkpt>
      <trkpt lat="-23.397659" lon="-45.462768">
        <ele>690.215</ele>
        <time>2020-01-19T18:24:51Z</time>
      </trkpt>
      <trkpt lat="-23.397613" lon="-45.462781">
        <ele>691.171</ele>
        <time>2020-01-19T18:24:58Z</time>
      </trkpt>
      <trkpt lat="-23.397569" lon="-45.462795">
        <ele>691.595</ele>
        <time>2020-01-19T18:25:18Z</time>
      </trkpt>
      <trkpt lat="-23.397525" lon="-45.462842">
        <ele>690.958</ele>
        <time>2020-01-19T18:25:20Z</time>
      </trkpt>
      <trkpt lat="-23.397487" lon="-45.462877">
        <ele>690.468</ele>
        <time>2020-01-19T18:25:22Z</time>
      </trkpt>
      <trkpt lat="-23.397451" lon="-45.462921">
        <ele>689.068</ele>
        <time>2020-01-19T18:25:26Z</time>
      </trkpt>
      <trkpt lat="-23.397422" lon="-45.462963">
        <ele>687.142</ele>
        <time>2020-01-19T18:25:36Z</time>
      </trkpt>
      <trkpt lat="-23.397401" lon="-45.463008">
        <ele>687.526</ele>
        <time>2020-01-19T18:25:42Z</time>
      </trkpt>
      <trkpt lat="-23.397359" lon="-45.463052">
        <ele>688.208</ele>
        <time>2020-01-19T18:25:44Z</time>
      </trkpt>
      <trkpt lat="-23.397315" lon="-45.463082">
        <ele>689.220</ele>
        <time>2020-01-19T18:25:47Z</time>
      </trkpt>
      <trkpt lat="-23.397269" lon="-45.463092">
        <ele>689.431</ele>
        <time>2020-01-19T18:26:02Z</time>
      </trkpt>
      <trkpt lat="-23.397220" lon="-45.463099">
        <ele>688.213</ele>
        <time>2020-01-19T18:26:09Z</time>
      </trkpt>
      <trkpt lat="-23.397191" lon="-45.463059">
        <ele>686.767</ele>
        <time>2020-01-19T18:26:16Z</time>
      </trkpt>
      <trkpt lat="-23.397155" lon="-45.463024">
        <ele>685.863</ele>
        <time>2020-01-19T18:26:22Z</time>
      </trkpt>
      <trkpt lat="-23.397080" lon="-45.462977">
        <ele>684.967</ele>
        <time>2020-01-19T18:26:26Z</time>
      </trkpt>
      <trkpt lat="-23.397033" lon="-45.462948">
        <ele>684.970</ele>
        <time>2020-01-19T18:26:28Z</time>
      </trkpt>
      <trkpt lat="-23.396988" lon="-45.462927">
        <ele>684.710</ele>
        <time>2020-01-19T18:26:31Z</time>
      </trkpt>
      <trkpt lat="-23.396935" lon="-45.462915">
        <ele>685.066</ele>
        <time>2020-01-19T18:26:35Z</time>
      </trkpt>
      <trkpt lat="-23.396888" lon="-45.462883">
        <ele>686.129</ele>
        <time>2020-01-19T18:26:39Z</time>
      </trkpt>
      <trkpt lat="-23.396843" lon="-45.462858">
        <ele>686.421</ele>
        <time>2020-01-19T18:26:42Z</time>
      </trkpt>
      <trkpt lat="-23.396796" lon="-45.462836">
        <ele>687.408</ele>
        <time>2020-01-19T18:26:45Z</time>
      </trkpt>
      <trkpt lat="-23.396749" lon="-45.462812">
        <ele>688.270</ele>
        <time>2020-01-19T18:26:48Z</time>
      </trkpt>
      <trkpt lat="-23.396703" lon="-45.462787">
        <ele>688.761</ele>
        <time>2020-01-19T18:26:51Z</time>
      </trkpt>
      <trkpt lat="-23.396654" lon="-45.462761">
        <ele>689.223</ele>
        <time>2020-01-19T18:26:54Z</time>
      </trkpt>
      <trkpt lat="-23.396608" lon="-45.462745">
        <ele>688.987</ele>
        <time>2020-01-19T18:26:57Z</time>
      </trkpt>
      <trkpt lat="-23.396558" lon="-45.462733">
        <ele>687.373</ele>
        <time>2020-01-19T18:27:00Z</time>
      </trkpt>
      <trkpt lat="-23.396507" lon="-45.462719">
        <ele>684.197</ele>
        <time>2020-01-19T18:27:03Z</time>
      </trkpt>
      <trkpt lat="-23.396459" lon="-45.462698">
        <ele>682.740</ele>
        <time>2020-01-19T18:27:07Z</time>
      </trkpt>
      <trkpt lat="-23.396413" lon="-45.462686">
        <ele>682.490</ele>
        <time>2020-01-19T18:27:10Z</time>
      </trkpt>
      <trkpt lat="-23.396366" lon="-45.462673">
        <ele>682.429</ele>
        <time>2020-01-19T18:27:13Z</time>
      </trkpt>
      <trkpt lat="-23.396320" lon="-45.462670">
        <ele>682.600</ele>
        <time>2020-01-19T18:27:15Z</time>
      </trkpt>
      <trkpt lat="-23.396269" lon="-45.462662">
        <ele>682.620</ele>
        <time>2020-01-19T18:27:18Z</time>
      </trkpt>
      <trkpt lat="-23.396210" lon="-45.462666">
        <ele>683.408</ele>
        <time>2020-01-19T18:27:21Z</time>
      </trkpt>
      <trkpt lat="-23.396151" lon="-45.462667">
        <ele>684.736</ele>
        <time>2020-01-19T18:27:24Z</time>
      </trkpt>
      <trkpt lat="-23.396104" lon="-45.462668">
        <ele>684.927</ele>
        <time>2020-01-19T18:27:26Z</time>
      </trkpt>
      <trkpt lat="-23.396055" lon="-45.462667">
        <ele>684.839</ele>
        <time>2020-01-19T18:27:29Z</time>
      </trkpt>
      <trkpt lat="-23.395989" lon="-45.462665">
        <ele>685.333</ele>
        <time>2020-01-19T18:27:32Z</time>
      </trkpt>
      <trkpt lat="-23.395926" lon="-45.462666">
        <ele>686.129</ele>
        <time>2020-01-19T18:27:34Z</time>
      </trkpt>
      <trkpt lat="-23.395879" lon="-45.462666">
        <ele>686.393</ele>
        <time>2020-01-19T18:27:36Z</time>
      </trkpt>
      <trkpt lat="-23.395815" lon="-45.462660">
        <ele>687.136</ele>
        <time>2020-01-19T18:27:39Z</time>
      </trkpt>
      <trkpt lat="-23.395757" lon="-45.462650">
        <ele>688.366</ele>
        <time>2020-01-19T18:27:42Z</time>
      </trkpt>
      <trkpt lat="-23.395709" lon="-45.462627">
        <ele>689.379</ele>
        <time>2020-01-19T18:27:45Z</time>
      </trkpt>
      <trkpt lat="-23.395700" lon="-45.462578">
        <ele>690.105</ele>
        <time>2020-01-19T18:27:48Z</time>
      </trkpt>
      <trkpt lat="-23.395650" lon="-45.462546">
        <ele>690.725</ele>
        <time>2020-01-19T18:27:52Z</time>
      </trkpt>
      <trkpt lat="-23.395571" lon="-45.462569">
        <ele>691.108</ele>
        <time>2020-01-19T18:27:54Z</time>
      </trkpt>
      <trkpt lat="-23.395501" lon="-45.462583">
        <ele>691.491</ele>
        <time>2020-01-19T18:27:56Z</time>
      </trkpt>
      <trkpt lat="-23.395442" lon="-45.462589">
        <ele>691.142</ele>
        <time>2020-01-19T18:27:58Z</time>
      </trkpt>
      <trkpt lat="-23.395386" lon="-45.462592">
        <ele>690.854</ele>
        <time>2020-01-19T18:28:00Z</time>
      </trkpt>
      <trkpt lat="-23.395335" lon="-45.462591">
        <ele>690.698</ele>
        <time>2020-01-19T18:28:02Z</time>
      </trkpt>
      <trkpt lat="-23.395285" lon="-45.462591">
        <ele>690.234</ele>
        <time>2020-01-19T18:28:04Z</time>
      </trkpt>
      <trkpt lat="-23.395234" lon="-45.462593">
        <ele>689.718</ele>
        <time>2020-01-19T18:28:06Z</time>
      </trkpt>
      <trkpt lat="-23.395168" lon="-45.462590">
        <ele>689.511</ele>
        <time>2020-01-19T18:28:09Z</time>
      </trkpt>
      <trkpt lat="-23.395104" lon="-45.462583">
        <ele>688.611</ele>
        <time>2020-01-19T18:28:12Z</time>
      </trkpt>
      <trkpt lat="-23.395042" lon="-45.462582">
        <ele>688.255</ele>
        <time>2020-01-19T18:28:15Z</time>
      </trkpt>
      <trkpt lat="-23.394976" lon="-45.462569">
        <ele>688.507</ele>
        <time>2020-01-19T18:28:18Z</time>
      </trkpt>
      <trkpt lat="-23.394931" lon="-45.462558">
        <ele>689.917</ele>
        <time>2020-01-19T18:28:20Z</time>
      </trkpt>
      <trkpt lat="-23.394874" lon="-45.462533">
        <ele>690.308</ele>
        <time>2020-01-19T18:28:24Z</time>
      </trkpt>
      <trkpt lat="-23.394828" lon="-45.462521">
        <ele>688.589</ele>
        <time>2020-01-19T18:28:26Z</time>
      </trkpt>
      <trkpt lat="-23.394769" lon="-45.462513">
        <ele>687.550</ele>
        <time>2020-01-19T18:28:29Z</time>
      </trkpt>
      <trkpt lat="-23.394712" lon="-45.462505">
        <ele>686.822</ele>
        <time>2020-01-19T18:28:32Z</time>
      </trkpt>
      <trkpt lat="-23.394652" lon="-45.462494">
        <ele>686.976</ele>
        <time>2020-01-19T18:28:35Z</time>
      </trkpt>
      <trkpt lat="-23.394608" lon="-45.462481">
        <ele>687.552</ele>
        <time>2020-01-19T18:28:37Z</time>
      </trkpt>
      <trkpt lat="-23.394551" lon="-45.462466">
        <ele>688.176</ele>
        <time>2020-01-19T18:28:39Z</time>
      </trkpt>
      <trkpt lat="-23.394490" lon="-45.462442">
        <ele>688.879</ele>
        <time>2020-01-19T18:28:42Z</time>
      </trkpt>
      <trkpt lat="-23.394431" lon="-45.462422">
        <ele>689.499</ele>
        <time>2020-01-19T18:28:45Z</time>
      </trkpt>
      <trkpt lat="-23.394374" lon="-45.462403">
        <ele>689.687</ele>
        <time>2020-01-19T18:28:48Z</time>
      </trkpt>
      <trkpt lat="-23.394314" lon="-45.462386">
        <ele>689.442</ele>
        <time>2020-01-19T18:28:51Z</time>
      </trkpt>
      <trkpt lat="-23.394253" lon="-45.462370">
        <ele>689.826</ele>
        <time>2020-01-19T18:28:54Z</time>
      </trkpt>
      <trkpt lat="-23.394191" lon="-45.462355">
        <ele>691.008</ele>
        <time>2020-01-19T18:28:57Z</time>
      </trkpt>
      <trkpt lat="-23.394131" lon="-45.462338">
        <ele>693.562</ele>
        <time>2020-01-19T18:29:00Z</time>
      </trkpt>
      <trkpt lat="-23.394072" lon="-45.462320">
        <ele>695.963</ele>
        <time>2020-01-19T18:29:03Z</time>
      </trkpt>
      <trkpt lat="-23.394010" lon="-45.462304">
        <ele>697.345</ele>
        <time>2020-01-19T18:29:06Z</time>
      </trkpt>
      <trkpt lat="-23.393949" lon="-45.462288">
        <ele>699.359</ele>
        <time>2020-01-19T18:29:09Z</time>
      </trkpt>
      <trkpt lat="-23.393884" lon="-45.462265">
        <ele>698.985</ele>
        <time>2020-01-19T18:29:12Z</time>
      </trkpt>
      <trkpt lat="-23.393839" lon="-45.462258">
        <ele>698.189</ele>
        <time>2020-01-19T18:29:14Z</time>
      </trkpt>
      <trkpt lat="-23.393786" lon="-45.462261">
        <ele>698.882</ele>
        <time>2020-01-19T18:29:16Z</time>
      </trkpt>
      <trkpt lat="-23.393739" lon="-45.462265">
        <ele>698.612</ele>
        <time>2020-01-19T18:29:18Z</time>
      </trkpt>
      <trkpt lat="-23.393681" lon="-45.462282">
        <ele>698.599</ele>
        <time>2020-01-19T18:29:21Z</time>
      </trkpt>
      <trkpt lat="-23.393629" lon="-45.462258">
        <ele>697.807</ele>
        <time>2020-01-19T18:29:24Z</time>
      </trkpt>
      <trkpt lat="-23.393579" lon="-45.462244">
        <ele>697.127</ele>
        <time>2020-01-19T18:29:27Z</time>
      </trkpt>
      <trkpt lat="-23.393534" lon="-45.462234">
        <ele>696.608</ele>
        <time>2020-01-19T18:29:29Z</time>
      </trkpt>
      <trkpt lat="-23.393488" lon="-45.462224">
        <ele>696.113</ele>
        <time>2020-01-19T18:29:31Z</time>
      </trkpt>
      <trkpt lat="-23.393439" lon="-45.462214">
        <ele>695.714</ele>
        <time>2020-01-19T18:29:33Z</time>
      </trkpt>
      <trkpt lat="-23.393376" lon="-45.462203">
        <ele>694.596</ele>
        <time>2020-01-19T18:29:36Z</time>
      </trkpt>
      <trkpt lat="-23.393331" lon="-45.462199">
        <ele>693.520</ele>
        <time>2020-01-19T18:29:38Z</time>
      </trkpt>
      <trkpt lat="-23.393277" lon="-45.462199">
        <ele>692.266</ele>
        <time>2020-01-19T18:29:40Z</time>
      </trkpt>
      <trkpt lat="-23.393228" lon="-45.462189">
        <ele>691.390</ele>
        <time>2020-01-19T18:29:43Z</time>
      </trkpt>
      <trkpt lat="-23.393165" lon="-45.462182">
        <ele>690.443</ele>
        <time>2020-01-19T18:29:46Z</time>
      </trkpt>
      <trkpt lat="-23.393110" lon="-45.462181">
        <ele>689.623</ele>
        <time>2020-01-19T18:29:48Z</time>
      </trkpt>
      <trkpt lat="-23.393059" lon="-45.462176">
        <ele>689.893</ele>
        <time>2020-01-19T18:29:51Z</time>
      </trkpt>
      <trkpt lat="-23.393014" lon="-45.462168">
        <ele>689.665</ele>
        <time>2020-01-19T18:29:53Z</time>
      </trkpt>
      <trkpt lat="-23.392959" lon="-45.462161">
        <ele>689.021</ele>
        <time>2020-01-19T18:29:56Z</time>
      </trkpt>
      <trkpt lat="-23.392904" lon="-45.462145">
        <ele>688.708</ele>
        <time>2020-01-19T18:29:59Z</time>
      </trkpt>
      <trkpt lat="-23.392841" lon="-45.462135">
        <ele>688.323</ele>
        <time>2020-01-19T18:30:02Z</time>
      </trkpt>
      <trkpt lat="-23.392777" lon="-45.462125">
        <ele>687.964</ele>
        <time>2020-01-19T18:30:05Z</time>
      </trkpt>
      <trkpt lat="-23.392725" lon="-45.462121">
        <ele>688.246</ele>
        <time>2020-01-19T18:30:07Z</time>
      </trkpt>
      <trkpt lat="-23.392677" lon="-45.462115">
        <ele>688.310</ele>
        <time>2020-01-19T18:30:09Z</time>
      </trkpt>
      <trkpt lat="-23.392629" lon="-45.462113">
        <ele>686.826</ele>
        <time>2020-01-19T18:30:11Z</time>
      </trkpt>
      <trkpt lat="-23.392584" lon="-45.462107">
        <ele>685.520</ele>
        <time>2020-01-19T18:30:13Z</time>
      </trkpt>
      <trkpt lat="-23.392522" lon="-45.462093">
        <ele>683.853</ele>
        <time>2020-01-19T18:30:16Z</time>
      </trkpt>
      <trkpt lat="-23.392476" lon="-45.462082">
        <ele>682.293</ele>
        <time>2020-01-19T18:30:18Z</time>
      </trkpt>
      <trkpt lat="-23.392416" lon="-45.462069">
        <ele>680.495</ele>
        <time>2020-01-19T18:30:21Z</time>
      </trkpt>
      <trkpt lat="-23.392365" lon="-45.462049">
        <ele>678.349</ele>
        <time>2020-01-19T18:30:24Z</time>
      </trkpt>
      <trkpt lat="-23.392313" lon="-45.462039">
        <ele>678.723</ele>
        <time>2020-01-19T18:30:27Z</time>
      </trkpt>
      <trkpt lat="-23.392251" lon="-45.462030">
        <ele>678.508</ele>
        <time>2020-01-19T18:30:30Z</time>
      </trkpt>
      <trkpt lat="-23.392204" lon="-45.462021">
        <ele>679.093</ele>
        <time>2020-01-19T18:30:32Z</time>
      </trkpt>
      <trkpt lat="-23.392152" lon="-45.462011">
        <ele>680.034</ele>
        <time>2020-01-19T18:30:35Z</time>
      </trkpt>
      <trkpt lat="-23.392096" lon="-45.462002">
        <ele>681.026</ele>
        <time>2020-01-19T18:30:38Z</time>
      </trkpt>
      <trkpt lat="-23.392032" lon="-45.461992">
        <ele>682.080</ele>
        <time>2020-01-19T18:30:41Z</time>
      </trkpt>
      <trkpt lat="-23.391980" lon="-45.461983">
        <ele>682.976</ele>
        <time>2020-01-19T18:30:43Z</time>
      </trkpt>
      <trkpt lat="-23.391904" lon="-45.461968">
        <ele>684.790</ele>
        <time>2020-01-19T18:30:46Z</time>
      </trkpt>
      <trkpt lat="-23.391858" lon="-45.461959">
        <ele>685.653</ele>
        <time>2020-01-19T18:30:48Z</time>
      </trkpt>
      <trkpt lat="-23.391795" lon="-45.461950">
        <ele>685.693</ele>
        <time>2020-01-19T18:30:51Z</time>
      </trkpt>
      <trkpt lat="-23.391730" lon="-45.461939">
        <ele>686.475</ele>
        <time>2020-01-19T18:30:54Z</time>
      </trkpt>
      <trkpt lat="-23.391664" lon="-45.461929">
        <ele>687.828</ele>
        <time>2020-01-19T18:30:57Z</time>
      </trkpt>
      <trkpt lat="-23.391618" lon="-45.461925">
        <ele>688.420</ele>
        <time>2020-01-19T18:30:59Z</time>
      </trkpt>
      <trkpt lat="-23.391570" lon="-45.461917">
        <ele>688.208</ele>
        <time>2020-01-19T18:31:01Z</time>
      </trkpt>
      <trkpt lat="-23.391521" lon="-45.461909">
        <ele>688.491</ele>
        <time>2020-01-19T18:31:03Z</time>
      </trkpt>
      <trkpt lat="-23.391472" lon="-45.461902">
        <ele>688.462</ele>
        <time>2020-01-19T18:31:05Z</time>
      </trkpt>
      <trkpt lat="-23.391427" lon="-45.461895">
        <ele>689.184</ele>
        <time>2020-01-19T18:31:07Z</time>
      </trkpt>
      <trkpt lat="-23.391361" lon="-45.461887">
        <ele>689.688</ele>
        <time>2020-01-19T18:31:10Z</time>
      </trkpt>
      <trkpt lat="-23.391297" lon="-45.461880">
        <ele>690.164</ele>
        <time>2020-01-19T18:31:13Z</time>
      </trkpt>
      <trkpt lat="-23.391239" lon="-45.461872">
        <ele>690.288</ele>
        <time>2020-01-19T18:31:16Z</time>
      </trkpt>
      <trkpt lat="-23.391180" lon="-45.461864">
        <ele>690.281</ele>
        <time>2020-01-19T18:31:19Z</time>
      </trkpt>
      <trkpt lat="-23.391115" lon="-45.461857">
        <ele>689.251</ele>
        <time>2020-01-19T18:31:22Z</time>
      </trkpt>
      <trkpt lat="-23.391067" lon="-45.461853">
        <ele>688.466</ele>
        <time>2020-01-19T18:31:24Z</time>
      </trkpt>
      <trkpt lat="-23.391022" lon="-45.461849">
        <ele>688.229</ele>
        <time>2020-01-19T18:31:26Z</time>
      </trkpt>
      <trkpt lat="-23.390976" lon="-45.461843">
        <ele>689.021</ele>
        <time>2020-01-19T18:31:28Z</time>
      </trkpt>
      <trkpt lat="-23.390912" lon="-45.461829">
        <ele>689.608</ele>
        <time>2020-01-19T18:31:31Z</time>
      </trkpt>
      <trkpt lat="-23.390864" lon="-45.461797">
        <ele>690.480</ele>
        <time>2020-01-19T18:31:34Z</time>
      </trkpt>
      <trkpt lat="-23.390857" lon="-45.461742">
        <ele>688.711</ele>
        <time>2020-01-19T18:31:38Z</time>
      </trkpt>
      <trkpt lat="-23.390800" lon="-45.461741">
        <ele>687.243</ele>
        <time>2020-01-19T18:31:40Z</time>
      </trkpt>
      <trkpt lat="-23.390753" lon="-45.461752">
        <ele>686.157</ele>
        <time>2020-01-19T18:31:42Z</time>
      </trkpt>
      <trkpt lat="-23.390708" lon="-45.461744">
        <ele>685.073</ele>
        <time>2020-01-19T18:31:44Z</time>
      </trkpt>
      <trkpt lat="-23.390652" lon="-45.461736">
        <ele>685.287</ele>
        <time>2020-01-19T18:31:46Z</time>
      </trkpt>
      <trkpt lat="-23.390596" lon="-45.461718">
        <ele>686.040</ele>
        <time>2020-01-19T18:31:48Z</time>
      </trkpt>
      <trkpt lat="-23.390547" lon="-45.461692">
        <ele>685.930</ele>
        <time>2020-01-19T18:31:49Z</time>
      </trkpt>
      <trkpt lat="-23.390489" lon="-45.461668">
        <ele>684.742</ele>
        <time>2020-01-19T18:31:52Z</time>
      </trkpt>
      <trkpt lat="-23.390441" lon="-45.461653">
        <ele>683.922</ele>
        <time>2020-01-19T18:31:54Z</time>
      </trkpt>
      <trkpt lat="-23.390377" lon="-45.461628">
        <ele>682.814</ele>
        <time>2020-01-19T18:31:57Z</time>
      </trkpt>
      <trkpt lat="-23.390314" lon="-45.461603">
        <ele>682.808</ele>
        <time>2020-01-19T18:32:00Z</time>
      </trkpt>
      <trkpt lat="-23.390250" lon="-45.461584">
        <ele>683.558</ele>
        <time>2020-01-19T18:32:03Z</time>
      </trkpt>
      <trkpt lat="-23.390194" lon="-45.461564">
        <ele>684.389</ele>
        <time>2020-01-19T18:32:05Z</time>
      </trkpt>
      <trkpt lat="-23.390134" lon="-45.461537">
        <ele>684.331</ele>
        <time>2020-01-19T18:32:08Z</time>
      </trkpt>
      <trkpt lat="-23.390075" lon="-45.461514">
        <ele>683.545</ele>
        <time>2020-01-19T18:32:11Z</time>
      </trkpt>
      <trkpt lat="-23.390017" lon="-45.461498">
        <ele>682.951</ele>
        <time>2020-01-19T18:32:14Z</time>
      </trkpt>
      <trkpt lat="-23.389955" lon="-45.461480">
        <ele>682.175</ele>
        <time>2020-01-19T18:32:17Z</time>
      </trkpt>
      <trkpt lat="-23.389910" lon="-45.461463">
        <ele>681.758</ele>
        <time>2020-01-19T18:32:19Z</time>
      </trkpt>
      <trkpt lat="-23.389868" lon="-45.461441">
        <ele>681.878</ele>
        <time>2020-01-19T18:32:21Z</time>
      </trkpt>
      <trkpt lat="-23.389828" lon="-45.461418">
        <ele>681.849</ele>
        <time>2020-01-19T18:32:23Z</time>
      </trkpt>
      <trkpt lat="-23.389788" lon="-45.461396">
        <ele>681.702</ele>
        <time>2020-01-19T18:32:25Z</time>
      </trkpt>
      <trkpt lat="-23.389729" lon="-45.461368">
        <ele>682.422</ele>
        <time>2020-01-19T18:32:28Z</time>
      </trkpt>
      <trkpt lat="-23.389696" lon="-45.461402">
        <ele>683.708</ele>
        <time>2020-01-19T18:32:32Z</time>
      </trkpt>
      <trkpt lat="-23.389645" lon="-45.461390">
        <ele>684.538</ele>
        <time>2020-01-19T18:32:37Z</time>
      </trkpt>
      <trkpt lat="-23.389587" lon="-45.461340">
        <ele>685.219</ele>
        <time>2020-01-19T18:32:39Z</time>
      </trkpt>
      <trkpt lat="-23.389539" lon="-45.461328">
        <ele>686.221</ele>
        <time>2020-01-19T18:32:42Z</time>
      </trkpt>
      <trkpt lat="-23.389486" lon="-45.461290">
        <ele>686.275</ele>
        <time>2020-01-19T18:32:44Z</time>
      </trkpt>
      <trkpt lat="-23.389436" lon="-45.461262">
        <ele>686.511</ele>
        <time>2020-01-19T18:32:46Z</time>
      </trkpt>
      <trkpt lat="-23.389387" lon="-45.461240">
        <ele>687.285</ele>
        <time>2020-01-19T18:32:48Z</time>
      </trkpt>
      <trkpt lat="-23.389341" lon="-45.461217">
        <ele>687.698</ele>
        <time>2020-01-19T18:32:50Z</time>
      </trkpt>
      <trkpt lat="-23.389291" lon="-45.461195">
        <ele>688.438</ele>
        <time>2020-01-19T18:32:52Z</time>
      </trkpt>
      <trkpt lat="-23.389247" lon="-45.461173">
        <ele>689.176</ele>
        <time>2020-01-19T18:32:54Z</time>
      </trkpt>
      <trkpt lat="-23.389205" lon="-45.461153">
        <ele>689.390</ele>
        <time>2020-01-19T18:32:55Z</time>
      </trkpt>
      <trkpt lat="-23.389159" lon="-45.461140">
        <ele>688.819</ele>
        <time>2020-01-19T18:32:57Z</time>
      </trkpt>
      <trkpt lat="-23.389096" lon="-45.461121">
        <ele>688.808</ele>
        <time>2020-01-19T18:33:00Z</time>
      </trkpt>
      <trkpt lat="-23.389038" lon="-45.461097">
        <ele>689.231</ele>
        <time>2020-01-19T18:33:03Z</time>
      </trkpt>
      <trkpt lat="-23.388982" lon="-45.461065">
        <ele>689.612</ele>
        <time>2020-01-19T18:33:06Z</time>
      </trkpt>
      <trkpt lat="-23.388924" lon="-45.461037">
        <ele>689.854</ele>
        <time>2020-01-19T18:33:09Z</time>
      </trkpt>
      <trkpt lat="-23.388866" lon="-45.461010">
        <ele>690.298</ele>
        <time>2020-01-19T18:33:12Z</time>
      </trkpt>
      <trkpt lat="-23.388806" lon="-45.460986">
        <ele>690.344</ele>
        <time>2020-01-19T18:33:15Z</time>
      </trkpt>
      <trkpt lat="-23.388745" lon="-45.460967">
        <ele>690.648</ele>
        <time>2020-01-19T18:33:18Z</time>
      </trkpt>
      <trkpt lat="-23.388692" lon="-45.460943">
        <ele>690.841</ele>
        <time>2020-01-19T18:33:21Z</time>
      </trkpt>
      <trkpt lat="-23.388689" lon="-45.460891">
        <ele>690.941</ele>
        <time>2020-01-19T18:33:25Z</time>
      </trkpt>
      <trkpt lat="-23.388637" lon="-45.460880">
        <ele>690.942</ele>
        <time>2020-01-19T18:33:28Z</time>
      </trkpt>
      <trkpt lat="-23.388565" lon="-45.460884">
        <ele>691.122</ele>
        <time>2020-01-19T18:33:30Z</time>
      </trkpt>
      <trkpt lat="-23.388508" lon="-45.460883">
        <ele>690.914</ele>
        <time>2020-01-19T18:33:32Z</time>
      </trkpt>
      <trkpt lat="-23.388461" lon="-45.460876">
        <ele>691.008</ele>
        <time>2020-01-19T18:33:34Z</time>
      </trkpt>
      <trkpt lat="-23.388398" lon="-45.460865">
        <ele>690.858</ele>
        <time>2020-01-19T18:33:37Z</time>
      </trkpt>
      <trkpt lat="-23.388333" lon="-45.460853">
        <ele>691.229</ele>
        <time>2020-01-19T18:33:40Z</time>
      </trkpt>
      <trkpt lat="-23.388289" lon="-45.460842">
        <ele>691.421</ele>
        <time>2020-01-19T18:33:42Z</time>
      </trkpt>
      <trkpt lat="-23.388224" lon="-45.460825">
        <ele>691.125</ele>
        <time>2020-01-19T18:33:45Z</time>
      </trkpt>
      <trkpt lat="-23.388178" lon="-45.460814">
        <ele>690.811</ele>
        <time>2020-01-19T18:33:47Z</time>
      </trkpt>
      <trkpt lat="-23.388131" lon="-45.460803">
        <ele>690.825</ele>
        <time>2020-01-19T18:33:49Z</time>
      </trkpt>
      <trkpt lat="-23.388087" lon="-45.460793">
        <ele>690.728</ele>
        <time>2020-01-19T18:33:51Z</time>
      </trkpt>
      <trkpt lat="-23.388043" lon="-45.460784">
        <ele>690.618</ele>
        <time>2020-01-19T18:33:53Z</time>
      </trkpt>
      <trkpt lat="-23.387999" lon="-45.460775">
        <ele>690.248</ele>
        <time>2020-01-19T18:33:55Z</time>
      </trkpt>
      <trkpt lat="-23.387953" lon="-45.460766">
        <ele>689.661</ele>
        <time>2020-01-19T18:33:57Z</time>
      </trkpt>
      <trkpt lat="-23.387887" lon="-45.460753">
        <ele>689.117</ele>
        <time>2020-01-19T18:34:00Z</time>
      </trkpt>
      <trkpt lat="-23.387822" lon="-45.460739">
        <ele>688.808</ele>
        <time>2020-01-19T18:34:03Z</time>
      </trkpt>
      <trkpt lat="-23.387766" lon="-45.460718">
        <ele>688.688</ele>
        <time>2020-01-19T18:34:06Z</time>
      </trkpt>
      <trkpt lat="-23.387752" lon="-45.460668">
        <ele>687.829</ele>
        <time>2020-01-19T18:34:10Z</time>
      </trkpt>
      <trkpt lat="-23.387694" lon="-45.460669">
        <ele>687.431</ele>
        <time>2020-01-19T18:34:12Z</time>
      </trkpt>
      <trkpt lat="-23.387641" lon="-45.460666">
        <ele>686.715</ele>
        <time>2020-01-19T18:34:14Z</time>
      </trkpt>
      <trkpt lat="-23.387596" lon="-45.460658">
        <ele>686.041</ele>
        <time>2020-01-19T18:34:16Z</time>
      </trkpt>
      <trkpt lat="-23.387546" lon="-45.460654">
        <ele>685.755</ele>
        <time>2020-01-19T18:34:18Z</time>
      </trkpt>
      <trkpt lat="-23.387490" lon="-45.460661">
        <ele>684.998</ele>
        <time>2020-01-19T18:34:21Z</time>
      </trkpt>
      <trkpt lat="-23.387446" lon="-45.460681">
        <ele>683.858</ele>
        <time>2020-01-19T18:34:24Z</time>
      </trkpt>
      <trkpt lat="-23.387406" lon="-45.460708">
        <ele>683.062</ele>
        <time>2020-01-19T18:34:31Z</time>
      </trkpt>
      <trkpt lat="-23.387364" lon="-45.460679">
        <ele>682.883</ele>
        <time>2020-01-19T18:34:34Z</time>
      </trkpt>
      <trkpt lat="-23.387310" lon="-45.460627">
        <ele>683.011</ele>
        <time>2020-01-19T18:34:38Z</time>
      </trkpt>
      <trkpt lat="-23.387244" lon="-45.460607">
        <ele>684.508</ele>
        <time>2020-01-19T18:34:41Z</time>
      </trkpt>
      <trkpt lat="-23.387183" lon="-45.460584">
        <ele>685.860</ele>
        <time>2020-01-19T18:34:43Z</time>
      </trkpt>
      <trkpt lat="-23.387131" lon="-45.460567">
        <ele>686.461</ele>
        <time>2020-01-19T18:34:45Z</time>
      </trkpt>
      <trkpt lat="-23.387082" lon="-45.460554">
        <ele>686.533</ele>
        <time>2020-01-19T18:34:47Z</time>
      </trkpt>
      <trkpt lat="-23.387037" lon="-45.460544">
        <ele>686.877</ele>
        <time>2020-01-19T18:34:49Z</time>
      </trkpt>
      <trkpt lat="-23.386991" lon="-45.460519">
        <ele>687.153</ele>
        <time>2020-01-19T18:34:52Z</time>
      </trkpt>
      <trkpt lat="-23.386949" lon="-45.460497">
        <ele>687.097</ele>
        <time>2020-01-19T18:34:59Z</time>
      </trkpt>
      <trkpt lat="-23.386890" lon="-45.460503">
        <ele>687.040</ele>
        <time>2020-01-19T18:35:02Z</time>
      </trkpt>
      <trkpt lat="-23.386834" lon="-45.460517">
        <ele>687.330</ele>
        <time>2020-01-19T18:35:05Z</time>
      </trkpt>
      <trkpt lat="-23.386781" lon="-45.460524">
        <ele>688.167</ele>
        <time>2020-01-19T18:35:08Z</time>
      </trkpt>
      <trkpt lat="-23.386732" lon="-45.460532">
        <ele>688.481</ele>
        <time>2020-01-19T18:35:11Z</time>
      </trkpt>
      <trkpt lat="-23.386682" lon="-45.460546">
        <ele>688.719</ele>
        <time>2020-01-19T18:35:14Z</time>
      </trkpt>
      <trkpt lat="-23.386633" lon="-45.460557">
        <ele>688.808</ele>
        <time>2020-01-19T18:35:17Z</time>
      </trkpt>
      <trkpt lat="-23.386574" lon="-45.460562">
        <ele>688.870</ele>
        <time>2020-01-19T18:35:20Z</time>
      </trkpt>
      <trkpt lat="-23.386523" lon="-45.460570">
        <ele>688.761</ele>
        <time>2020-01-19T18:35:23Z</time>
      </trkpt>
      <trkpt lat="-23.386469" lon="-45.460583">
        <ele>688.413</ele>
        <time>2020-01-19T18:35:26Z</time>
      </trkpt>
      <trkpt lat="-23.386414" lon="-45.460591">
        <ele>688.437</ele>
        <time>2020-01-19T18:35:29Z</time>
      </trkpt>
      <trkpt lat="-23.386360" lon="-45.460590">
        <ele>689.093</ele>
        <time>2020-01-19T18:35:32Z</time>
      </trkpt>
      <trkpt lat="-23.386309" lon="-45.460583">
        <ele>689.117</ele>
        <time>2020-01-19T18:35:35Z</time>
      </trkpt>
      <trkpt lat="-23.386264" lon="-45.460568">
        <ele>689.210</ele>
        <time>2020-01-19T18:35:38Z</time>
      </trkpt>
      <trkpt lat="-23.386215" lon="-45.460556">
        <ele>689.630</ele>
        <time>2020-01-19T18:35:41Z</time>
      </trkpt>
      <trkpt lat="-23.386165" lon="-45.460541">
        <ele>690.222</ele>
        <time>2020-01-19T18:35:44Z</time>
      </trkpt>
      <trkpt lat="-23.386123" lon="-45.460523">
        <ele>691.062</ele>
        <time>2020-01-19T18:35:47Z</time>
      </trkpt>
      <trkpt lat="-23.386063" lon="-45.460495">
        <ele>690.908</ele>
        <time>2020-01-19T18:35:51Z</time>
      </trkpt>
      <trkpt lat="-23.386012" lon="-45.460468">
        <ele>690.808</ele>
        <time>2020-01-19T18:35:54Z</time>
      </trkpt>
      <trkpt lat="-23.385967" lon="-45.460442">
        <ele>690.436</ele>
        <time>2020-01-19T18:35:57Z</time>
      </trkpt>
      <trkpt lat="-23.385919" lon="-45.460416">
        <ele>691.137</ele>
        <time>2020-01-19T18:36:01Z</time>
      </trkpt>
      <trkpt lat="-23.385878" lon="-45.460391">
        <ele>690.869</ele>
        <time>2020-01-19T18:36:04Z</time>
      </trkpt>
      <trkpt lat="-23.385837" lon="-45.460359">
        <ele>690.513</ele>
        <time>2020-01-19T18:36:08Z</time>
      </trkpt>
      <trkpt lat="-23.385798" lon="-45.460323">
        <ele>690.599</ele>
        <time>2020-01-19T18:36:12Z</time>
      </trkpt>
      <trkpt lat="-23.385765" lon="-45.460284">
        <ele>690.263</ele>
        <time>2020-01-19T18:36:16Z</time>
      </trkpt>
      <trkpt lat="-23.385734" lon="-45.460246">
        <ele>689.986</ele>
        <time>2020-01-19T18:36:20Z</time>
      </trkpt>
      <trkpt lat="-23.385698" lon="-45.460198">
        <ele>689.986</ele>
        <time>2020-01-19T18:36:25Z</time>
      </trkpt>
      <trkpt lat="-23.385666" lon="-45.460160">
        <ele>689.692</ele>
        <time>2020-01-19T18:36:30Z</time>
      </trkpt>
      <trkpt lat="-23.385632" lon="-45.460126">
        <ele>688.673</ele>
        <time>2020-01-19T18:36:34Z</time>
      </trkpt>
      <trkpt lat="-23.385592" lon="-45.460084">
        <ele>688.720</ele>
        <time>2020-01-19T18:36:39Z</time>
      </trkpt>
      <trkpt lat="-23.385561" lon="-45.460047">
        <ele>687.708</ele>
        <time>2020-01-19T18:36:43Z</time>
      </trkpt>
      <trkpt lat="-23.385529" lon="-45.460004">
        <ele>686.953</ele>
        <time>2020-01-19T18:36:48Z</time>
      </trkpt>
      <trkpt lat="-23.385498" lon="-45.459964">
        <ele>686.654</ele>
        <time>2020-01-19T18:36:56Z</time>
      </trkpt>
      <trkpt lat="-23.385463" lon="-45.459925">
        <ele>687.396</ele>
        <time>2020-01-19T18:37:03Z</time>
      </trkpt>
      <trkpt lat="-23.385433" lon="-45.459887">
        <ele>685.670</ele>
        <time>2020-01-19T18:37:51Z</time>
      </trkpt>
      <trkpt lat="-23.385425" lon="-45.459838">
        <ele>682.936</ele>
        <time>2020-01-19T18:37:58Z</time>
      </trkpt>
      <trkpt lat="-23.385399" lon="-45.459795">
        <ele>679.510</ele>
        <time>2020-01-19T18:38:04Z</time>
      </trkpt>
      <trkpt lat="-23.385368" lon="-45.459759">
        <ele>677.043</ele>
        <time>2020-01-19T18:38:09Z</time>
      </trkpt>
      <trkpt lat="-23.385335" lon="-45.459719">
        <ele>674.033</ele>
        <time>2020-01-19T18:38:15Z</time>
      </trkpt>
      <trkpt lat="-23.385305" lon="-45.459679">
        <ele>673.566</ele>
        <time>2020-01-19T18:38:19Z</time>
      </trkpt>
      <trkpt lat="-23.385278" lon="-45.459639">
        <ele>675.129</ele>
        <time>2020-01-19T18:38:24Z</time>
      </trkpt>
      <trkpt lat="-23.385255" lon="-45.459595">
        <ele>677.021</ele>
        <time>2020-01-19T18:38:30Z</time>
      </trkpt>
      <trkpt lat="-23.385224" lon="-45.459551">
        <ele>678.908</ele>
        <time>2020-01-19T18:38:35Z</time>
      </trkpt>
      <trkpt lat="-23.385199" lon="-45.459507">
        <ele>680.630</ele>
        <time>2020-01-19T18:38:39Z</time>
      </trkpt>
      <trkpt lat="-23.385175" lon="-45.459461">
        <ele>682.191</ele>
        <time>2020-01-19T18:38:44Z</time>
      </trkpt>
      <trkpt lat="-23.385148" lon="-45.459417">
        <ele>681.923</ele>
        <time>2020-01-19T18:38:48Z</time>
      </trkpt>
      <trkpt lat="-23.385119" lon="-45.459379">
        <ele>682.657</ele>
        <time>2020-01-19T18:38:54Z</time>
      </trkpt>
      <trkpt lat="-23.385080" lon="-45.459346">
        <ele>683.123</ele>
        <time>2020-01-19T18:39:00Z</time>
      </trkpt>
      <trkpt lat="-23.385037" lon="-45.459326">
        <ele>683.857</ele>
        <time>2020-01-19T18:39:04Z</time>
      </trkpt>
      <trkpt lat="-23.384991" lon="-45.459311">
        <ele>684.310</ele>
        <time>2020-01-19T18:39:10Z</time>
      </trkpt>
      <trkpt lat="-23.384946" lon="-45.459292">
        <ele>686.030</ele>
        <time>2020-01-19T18:39:16Z</time>
      </trkpt>
      <trkpt lat="-23.384903" lon="-45.459274">
        <ele>688.094</ele>
        <time>2020-01-19T18:39:22Z</time>
      </trkpt>
      <trkpt lat="-23.384859" lon="-45.459260">
        <ele>689.057</ele>
        <time>2020-01-19T18:39:27Z</time>
      </trkpt>
      <trkpt lat="-23.384813" lon="-45.459241">
        <ele>690.322</ele>
        <time>2020-01-19T18:39:33Z</time>
      </trkpt>
      <trkpt lat="-23.384769" lon="-45.459223">
        <ele>689.308</ele>
        <time>2020-01-19T18:39:37Z</time>
      </trkpt>
      <trkpt lat="-23.384725" lon="-45.459200">
        <ele>688.493</ele>
        <time>2020-01-19T18:39:42Z</time>
      </trkpt>
      <trkpt lat="-23.384683" lon="-45.459165">
        <ele>686.114</ele>
        <time>2020-01-19T18:39:48Z</time>
      </trkpt>
      <trkpt lat="-23.384650" lon="-45.459128">
        <ele>683.246</ele>
        <time>2020-01-19T18:39:52Z</time>
      </trkpt>
      <trkpt lat="-23.384611" lon="-45.459104">
        <ele>680.310</ele>
        <time>2020-01-19T18:39:59Z</time>
      </trkpt>
      <trkpt lat="-23.384570" lon="-45.459124">
        <ele>678.786</ele>
        <time>2020-01-19T18:40:16Z</time>
      </trkpt>
      <trkpt lat="-23.384627" lon="-45.459127">
        <ele>677.830</ele>
        <time>2020-01-19T18:40:34Z</time>
      </trkpt>
      <trkpt lat="-23.384619" lon="-45.459176">
        <ele>681.893</ele>
        <time>2020-01-19T18:43:09Z</time>
      </trkpt>
      <trkpt lat="-23.384612" lon="-45.459229">
        <ele>685.893</ele>
        <time>2020-01-19T18:43:24Z</time>
      </trkpt>
      <trkpt lat="-23.384591" lon="-45.459272">
        <ele>688.947</ele>
        <time>2020-01-19T18:43:38Z</time>
      </trkpt>
      <trkpt lat="-23.384555" lon="-45.459242">
        <ele>688.029</ele>
        <time>2020-01-19T18:46:39Z</time>
      </trkpt>
      <trkpt lat="-23.384593" lon="-45.459208">
        <ele>686.421</ele>
        <time>2020-01-19T18:47:06Z</time>
      </trkpt>
      <trkpt lat="-23.384637" lon="-45.459191">
        <ele>685.908</ele>
        <time>2020-01-19T18:49:33Z</time>
      </trkpt>
      <trkpt lat="-23.384614" lon="-45.459146">
        <ele>689.948</ele>
        <time>2020-01-19T18:49:54Z</time>
      </trkpt>
      <trkpt lat="-23.384561" lon="-45.459127">
        <ele>693.929</ele>
        <time>2020-01-19T18:49:57Z</time>
      </trkpt>
      <trkpt lat="-23.384496" lon="-45.459108">
        <ele>697.731</ele>
        <time>2020-01-19T18:49:59Z</time>
      </trkpt>
      <trkpt lat="-23.384442" lon="-45.459092">
        <ele>700.625</ele>
        <time>2020-01-19T18:50:01Z</time>
      </trkpt>
      <trkpt lat="-23.384391" lon="-45.459070">
        <ele>702.541</ele>
        <time>2020-01-19T18:50:03Z</time>
      </trkpt>
      <trkpt lat="-23.384333" lon="-45.459043">
        <ele>704.035</ele>
        <time>2020-01-19T18:50:06Z</time>
      </trkpt>
      <trkpt lat="-23.384276" lon="-45.459029">
        <ele>705.438</ele>
        <time>2020-01-19T18:50:09Z</time>
      </trkpt>
      <trkpt lat="-23.384230" lon="-45.459013">
        <ele>705.748</ele>
        <time>2020-01-19T18:50:11Z</time>
      </trkpt>
      <trkpt lat="-23.384185" lon="-45.458997">
        <ele>703.931</ele>
        <time>2020-01-19T18:50:13Z</time>
      </trkpt>
      <trkpt lat="-23.384140" lon="-45.458987">
        <ele>702.961</ele>
        <time>2020-01-19T18:50:15Z</time>
      </trkpt>
      <trkpt lat="-23.384092" lon="-45.458991">
        <ele>702.007</ele>
        <time>2020-01-19T18:50:18Z</time>
      </trkpt>
      <trkpt lat="-23.384053" lon="-45.459028">
        <ele>701.208</ele>
        <time>2020-01-19T18:50:22Z</time>
      </trkpt>
      <trkpt lat="-23.384052" lon="-45.459080">
        <ele>699.817</ele>
        <time>2020-01-19T18:50:24Z</time>
      </trkpt>
      <trkpt lat="-23.384078" lon="-45.459133">
        <ele>699.088</ele>
        <time>2020-01-19T18:50:26Z</time>
      </trkpt>
      <trkpt lat="-23.384120" lon="-45.459165">
        <ele>699.230</ele>
        <time>2020-01-19T18:50:28Z</time>
      </trkpt>
      <trkpt lat="-23.384157" lon="-45.459213">
        <ele>699.764</ele>
        <time>2020-01-19T18:50:31Z</time>
      </trkpt>
      <trkpt lat="-23.384187" lon="-45.459275">
        <ele>700.040</ele>
        <time>2020-01-19T18:50:34Z</time>
      </trkpt>
      <trkpt lat="-23.384202" lon="-45.459323">
        <ele>699.684</ele>
        <time>2020-01-19T18:50:36Z</time>
      </trkpt>
      <trkpt lat="-23.384207" lon="-45.459376">
        <ele>699.367</ele>
        <time>2020-01-19T18:50:38Z</time>
      </trkpt>
      <trkpt lat="-23.384196" lon="-45.459431">
        <ele>700.047</ele>
        <time>2020-01-19T18:50:41Z</time>
      </trkpt>
      <trkpt lat="-23.384161" lon="-45.459467">
        <ele>701.042</ele>
        <time>2020-01-19T18:50:44Z</time>
      </trkpt>
      <trkpt lat="-23.384095" lon="-45.459517">
        <ele>702.222</ele>
        <time>2020-01-19T18:50:46Z</time>
      </trkpt>
      <trkpt lat="-23.384056" lon="-45.459542">
        <ele>702.914</ele>
        <time>2020-01-19T18:50:47Z</time>
      </trkpt>
      <trkpt lat="-23.384003" lon="-45.459566">
        <ele>702.708</ele>
        <time>2020-01-19T18:50:48Z</time>
      </trkpt>
      <trkpt lat="-23.383947" lon="-45.459586">
        <ele>702.978</ele>
        <time>2020-01-19T18:50:49Z</time>
      </trkpt>
      <trkpt lat="-23.383898" lon="-45.459604">
        <ele>702.639</ele>
        <time>2020-01-19T18:50:51Z</time>
      </trkpt>
      <trkpt lat="-23.383857" lon="-45.459625">
        <ele>701.861</ele>
        <time>2020-01-19T18:50:53Z</time>
      </trkpt>
      <trkpt lat="-23.383805" lon="-45.459653">
        <ele>701.375</ele>
        <time>2020-01-19T18:50:55Z</time>
      </trkpt>
      <trkpt lat="-23.383763" lon="-45.459682">
        <ele>701.361</ele>
        <time>2020-01-19T18:50:56Z</time>
      </trkpt>
      <trkpt lat="-23.383720" lon="-45.459722">
        <ele>701.265</ele>
        <time>2020-01-19T18:50:58Z</time>
      </trkpt>
      <trkpt lat="-23.383683" lon="-45.459763">
        <ele>701.588</ele>
        <time>2020-01-19T18:51:00Z</time>
      </trkpt>
      <trkpt lat="-23.383652" lon="-45.459806">
        <ele>701.948</ele>
        <time>2020-01-19T18:51:03Z</time>
      </trkpt>
      <trkpt lat="-23.383589" lon="-45.459869">
        <ele>701.991</ele>
        <time>2020-01-19T18:51:05Z</time>
      </trkpt>
      <trkpt lat="-23.383536" lon="-45.459910">
        <ele>702.781</ele>
        <time>2020-01-19T18:51:07Z</time>
      </trkpt>
      <trkpt lat="-23.383472" lon="-45.459941">
        <ele>703.019</ele>
        <time>2020-01-19T18:51:09Z</time>
      </trkpt>
      <trkpt lat="-23.383402" lon="-45.459946">
        <ele>703.608</ele>
        <time>2020-01-19T18:51:11Z</time>
      </trkpt>
      <trkpt lat="-23.383334" lon="-45.459930">
        <ele>703.553</ele>
        <time>2020-01-19T18:51:13Z</time>
      </trkpt>
      <trkpt lat="-23.383281" lon="-45.459906">
        <ele>703.584</ele>
        <time>2020-01-19T18:51:14Z</time>
      </trkpt>
      <trkpt lat="-23.383232" lon="-45.459880">
        <ele>703.796</ele>
        <time>2020-01-19T18:51:16Z</time>
      </trkpt>
      <trkpt lat="-23.383177" lon="-45.459849">
        <ele>703.840</ele>
        <time>2020-01-19T18:51:17Z</time>
      </trkpt>
      <trkpt lat="-23.383124" lon="-45.459813">
        <ele>703.686</ele>
        <time>2020-01-19T18:51:19Z</time>
      </trkpt>
      <trkpt lat="-23.383065" lon="-45.459776">
        <ele>707.650</ele>
        <time>2020-01-19T18:51:20Z</time>
      </trkpt>
      <trkpt lat="-23.383029" lon="-45.459741">
        <ele>711.183</ele>
        <time>2020-01-19T18:51:22Z</time>
      </trkpt>
      <trkpt lat="-23.383014" lon="-45.459688">
        <ele>709.643</ele>
        <time>2020-01-19T18:51:24Z</time>
      </trkpt>
      <trkpt lat="-23.383006" lon="-45.459632">
        <ele>708.615</ele>
        <time>2020-01-19T18:51:27Z</time>
      </trkpt>
      <trkpt lat="-23.382994" lon="-45.459574">
        <ele>707.265</ele>
        <time>2020-01-19T18:51:28Z</time>
      </trkpt>
      <trkpt lat="-23.382979" lon="-45.459527">
        <ele>706.611</ele>
        <time>2020-01-19T18:51:30Z</time>
      </trkpt>
      <trkpt lat="-23.382959" lon="-45.459464">
        <ele>705.808</ele>
        <time>2020-01-19T18:51:34Z</time>
      </trkpt>
      <trkpt lat="-23.382949" lon="-45.459409">
        <ele>704.945</ele>
        <time>2020-01-19T18:51:36Z</time>
      </trkpt>
      <trkpt lat="-23.382934" lon="-45.459359">
        <ele>703.916</ele>
        <time>2020-01-19T18:51:38Z</time>
      </trkpt>
      <trkpt lat="-23.382923" lon="-45.459309">
        <ele>703.218</ele>
        <time>2020-01-19T18:51:40Z</time>
      </trkpt>
      <trkpt lat="-23.382902" lon="-45.459249">
        <ele>702.462</ele>
        <time>2020-01-19T18:51:42Z</time>
      </trkpt>
      <trkpt lat="-23.382884" lon="-45.459192">
        <ele>702.018</ele>
        <time>2020-01-19T18:51:44Z</time>
      </trkpt>
      <trkpt lat="-23.382856" lon="-45.459135">
        <ele>701.792</ele>
        <time>2020-01-19T18:51:46Z</time>
      </trkpt>
      <trkpt lat="-23.382833" lon="-45.459074">
        <ele>701.595</ele>
        <time>2020-01-19T18:51:48Z</time>
      </trkpt>
      <trkpt lat="-23.382815" lon="-45.459028">
        <ele>701.665</ele>
        <time>2020-01-19T18:51:50Z</time>
      </trkpt>
      <trkpt lat="-23.382791" lon="-45.458971">
        <ele>701.575</ele>
        <time>2020-01-19T18:51:52Z</time>
      </trkpt>
      <trkpt lat="-23.382770" lon="-45.458917">
        <ele>701.228</ele>
        <time>2020-01-19T18:51:54Z</time>
      </trkpt>
      <trkpt lat="-23.382750" lon="-45.458868">
        <ele>700.320</ele>
        <time>2020-01-19T18:51:56Z</time>
      </trkpt>
      <trkpt lat="-23.382727" lon="-45.458821">
        <ele>699.308</ele>
        <time>2020-01-19T18:51:58Z</time>
      </trkpt>
      <trkpt lat="-23.382696" lon="-45.458774">
        <ele>698.281</ele>
        <time>2020-01-19T18:52:00Z</time>
      </trkpt>
      <trkpt lat="-23.382670" lon="-45.458729">
        <ele>697.622</ele>
        <time>2020-01-19T18:52:02Z</time>
      </trkpt>
      <trkpt lat="-23.382633" lon="-45.458692">
        <ele>697.374</ele>
        <time>2020-01-19T18:52:04Z</time>
      </trkpt>
      <trkpt lat="-23.382595" lon="-45.458657">
        <ele>698.018</ele>
        <time>2020-01-19T18:52:06Z</time>
      </trkpt>
      <trkpt lat="-23.382552" lon="-45.458625">
        <ele>698.814</ele>
        <time>2020-01-19T18:52:08Z</time>
      </trkpt>
      <trkpt lat="-23.382506" lon="-45.458589">
        <ele>699.588</ele>
        <time>2020-01-19T18:52:10Z</time>
      </trkpt>
      <trkpt lat="-23.382469" lon="-45.458561">
        <ele>699.691</ele>
        <time>2020-01-19T18:52:12Z</time>
      </trkpt>
      <trkpt lat="-23.382422" lon="-45.458517">
        <ele>699.391</ele>
        <time>2020-01-19T18:52:14Z</time>
      </trkpt>
      <trkpt lat="-23.382387" lon="-45.458485">
        <ele>699.192</ele>
        <time>2020-01-19T18:52:15Z</time>
      </trkpt>
      <trkpt lat="-23.382350" lon="-45.458444">
        <ele>699.273</ele>
        <time>2020-01-19T18:52:17Z</time>
      </trkpt>
      <trkpt lat="-23.382311" lon="-45.458413">
        <ele>699.320</ele>
        <time>2020-01-19T18:52:20Z</time>
      </trkpt>
      <trkpt lat="-23.382268" lon="-45.458380">
        <ele>699.108</ele>
        <time>2020-01-19T18:52:23Z</time>
      </trkpt>
      <trkpt lat="-23.382226" lon="-45.458345">
        <ele>699.083</ele>
        <time>2020-01-19T18:52:25Z</time>
      </trkpt>
      <trkpt lat="-23.382187" lon="-45.458313">
        <ele>699.254</ele>
        <time>2020-01-19T18:52:27Z</time>
      </trkpt>
      <trkpt lat="-23.382141" lon="-45.458282">
        <ele>699.886</ele>
        <time>2020-01-19T18:52:29Z</time>
      </trkpt>
      <trkpt lat="-23.382087" lon="-45.458247">
        <ele>700.370</ele>
        <time>2020-01-19T18:52:32Z</time>
      </trkpt>
      <trkpt lat="-23.382051" lon="-45.458212">
        <ele>700.796</ele>
        <time>2020-01-19T18:52:33Z</time>
      </trkpt>
      <trkpt lat="-23.382009" lon="-45.458175">
        <ele>701.380</ele>
        <time>2020-01-19T18:52:35Z</time>
      </trkpt>
      <trkpt lat="-23.381953" lon="-45.458133">
        <ele>702.213</ele>
        <time>2020-01-19T18:52:38Z</time>
      </trkpt>
      <trkpt lat="-23.381914" lon="-45.458104">
        <ele>702.853</ele>
        <time>2020-01-19T18:52:39Z</time>
      </trkpt>
      <trkpt lat="-23.381871" lon="-45.458066">
        <ele>703.723</ele>
        <time>2020-01-19T18:52:41Z</time>
      </trkpt>
      <trkpt lat="-23.381835" lon="-45.458031">
        <ele>703.983</ele>
        <time>2020-01-19T18:52:43Z</time>
      </trkpt>
      <trkpt lat="-23.381799" lon="-45.457990">
        <ele>704.711</ele>
        <time>2020-01-19T18:52:46Z</time>
      </trkpt>
      <trkpt lat="-23.381765" lon="-45.457950">
        <ele>706.108</ele>
        <time>2020-01-19T18:52:48Z</time>
      </trkpt>
      <trkpt lat="-23.381725" lon="-45.457904">
        <ele>706.836</ele>
        <time>2020-01-19T18:52:50Z</time>
      </trkpt>
      <trkpt lat="-23.381694" lon="-45.457866">
        <ele>707.087</ele>
        <time>2020-01-19T18:52:52Z</time>
      </trkpt>
      <trkpt lat="-23.381657" lon="-45.457815">
        <ele>706.979</ele>
        <time>2020-01-19T18:52:54Z</time>
      </trkpt>
      <trkpt lat="-23.381626" lon="-45.457773">
        <ele>706.833</ele>
        <time>2020-01-19T18:52:55Z</time>
      </trkpt>
      <trkpt lat="-23.381578" lon="-45.457712">
        <ele>706.449</ele>
        <time>2020-01-19T18:52:58Z</time>
      </trkpt>
      <trkpt lat="-23.381540" lon="-45.457659">
        <ele>706.293</ele>
        <time>2020-01-19T18:53:00Z</time>
      </trkpt>
      <trkpt lat="-23.381503" lon="-45.457604">
        <ele>704.936</ele>
        <time>2020-01-19T18:53:03Z</time>
      </trkpt>
      <trkpt lat="-23.381487" lon="-45.457558">
        <ele>703.656</ele>
        <time>2020-01-19T18:53:05Z</time>
      </trkpt>
      <trkpt lat="-23.381466" lon="-45.457492">
        <ele>702.884</ele>
        <time>2020-01-19T18:53:08Z</time>
      </trkpt>
      <trkpt lat="-23.381445" lon="-45.457437">
        <ele>703.107</ele>
        <time>2020-01-19T18:53:10Z</time>
      </trkpt>
      <trkpt lat="-23.381420" lon="-45.457392">
        <ele>704.117</ele>
        <time>2020-01-19T18:53:12Z</time>
      </trkpt>
      <trkpt lat="-23.381392" lon="-45.457350">
        <ele>704.408</ele>
        <time>2020-01-19T18:53:14Z</time>
      </trkpt>
      <trkpt lat="-23.381365" lon="-45.457299">
        <ele>705.212</ele>
        <time>2020-01-19T18:53:16Z</time>
      </trkpt>
      <trkpt lat="-23.381345" lon="-45.457246">
        <ele>705.173</ele>
        <time>2020-01-19T18:53:18Z</time>
      </trkpt>
      <trkpt lat="-23.381328" lon="-45.457196">
        <ele>705.225</ele>
        <time>2020-01-19T18:53:20Z</time>
      </trkpt>
      <trkpt lat="-23.381313" lon="-45.457139">
        <ele>705.639</ele>
        <time>2020-01-19T18:53:22Z</time>
      </trkpt>
      <trkpt lat="-23.381303" lon="-45.457080">
        <ele>705.975</ele>
        <time>2020-01-19T18:53:25Z</time>
      </trkpt>
      <trkpt lat="-23.381297" lon="-45.457029">
        <ele>705.719</ele>
        <time>2020-01-19T18:53:26Z</time>
      </trkpt>
      <trkpt lat="-23.381292" lon="-45.456970">
        <ele>705.452</ele>
        <time>2020-01-19T18:53:28Z</time>
      </trkpt>
      <trkpt lat="-23.381292" lon="-45.456905">
        <ele>704.872</ele>
        <time>2020-01-19T18:53:30Z</time>
      </trkpt>
      <trkpt lat="-23.381295" lon="-45.456845">
        <ele>704.264</ele>
        <time>2020-01-19T18:53:32Z</time>
      </trkpt>
      <trkpt lat="-23.381297" lon="-45.456794">
        <ele>703.706</ele>
        <time>2020-01-19T18:53:34Z</time>
      </trkpt>
      <trkpt lat="-23.381305" lon="-45.456716">
        <ele>704.116</ele>
        <time>2020-01-19T18:53:37Z</time>
      </trkpt>
      <trkpt lat="-23.381328" lon="-45.456649">
        <ele>704.708</ele>
        <time>2020-01-19T18:53:39Z</time>
      </trkpt>
      <trkpt lat="-23.381346" lon="-45.456589">
        <ele>705.350</ele>
        <time>2020-01-19T18:53:41Z</time>
      </trkpt>
      <trkpt lat="-23.381362" lon="-45.456539">
        <ele>705.731</ele>
        <time>2020-01-19T18:53:42Z</time>
      </trkpt>
      <trkpt lat="-23.381381" lon="-45.456491">
        <ele>706.033</ele>
        <time>2020-01-19T18:53:44Z</time>
      </trkpt>
      <trkpt lat="-23.381401" lon="-45.456442">
        <ele>706.157</ele>
        <time>2020-01-19T18:53:45Z</time>
      </trkpt>
      <trkpt lat="-23.381425" lon="-45.456386">
        <ele>706.173</ele>
        <time>2020-01-19T18:53:47Z</time>
      </trkpt>
      <trkpt lat="-23.381449" lon="-45.456333">
        <ele>706.087</ele>
        <time>2020-01-19T18:53:48Z</time>
      </trkpt>
      <trkpt lat="-23.381477" lon="-45.456280">
        <ele>705.990</ele>
        <time>2020-01-19T18:53:50Z</time>
      </trkpt>
      <trkpt lat="-23.381503" lon="-45.456235">
        <ele>705.840</ele>
        <time>2020-01-19T18:53:52Z</time>
      </trkpt>
      <trkpt lat="-23.381530" lon="-45.456185">
        <ele>705.827</ele>
        <time>2020-01-19T18:53:53Z</time>
      </trkpt>
      <trkpt lat="-23.381551" lon="-45.456139">
        <ele>706.068</ele>
        <time>2020-01-19T18:53:55Z</time>
      </trkpt>
      <trkpt lat="-23.381570" lon="-45.456089">
        <ele>706.114</ele>
        <time>2020-01-19T18:53:56Z</time>
      </trkpt>
      <trkpt lat="-23.381588" lon="-45.456039">
        <ele>706.008</ele>
        <time>2020-01-19T18:53:58Z</time>
      </trkpt>
      <trkpt lat="-23.381607" lon="-45.455989">
        <ele>706.256</ele>
        <time>2020-01-19T18:53:59Z</time>
      </trkpt>
      <trkpt lat="-23.381632" lon="-45.455929">
        <ele>706.137</ele>
        <time>2020-01-19T18:54:02Z</time>
      </trkpt>
      <trkpt lat="-23.381653" lon="-45.455868">
        <ele>706.049</ele>
        <time>2020-01-19T18:54:04Z</time>
      </trkpt>
      <trkpt lat="-23.381665" lon="-45.455820">
        <ele>705.973</ele>
        <time>2020-01-19T18:54:05Z</time>
      </trkpt>
      <trkpt lat="-23.381685" lon="-45.455747">
        <ele>706.729</ele>
        <time>2020-01-19T18:54:07Z</time>
      </trkpt>
      <trkpt lat="-23.381700" lon="-45.455688">
        <ele>707.483</ele>
        <time>2020-01-19T18:54:08Z</time>
      </trkpt>
      <trkpt lat="-23.381701" lon="-45.455631">
        <ele>708.456</ele>
        <time>2020-01-19T18:54:10Z</time>
      </trkpt>
      <trkpt lat="-23.381700" lon="-45.455573">
        <ele>708.896</ele>
        <time>2020-01-19T18:54:12Z</time>
      </trkpt>
      <trkpt lat="-23.381695" lon="-45.455509">
        <ele>708.862</ele>
        <time>2020-01-19T18:54:13Z</time>
      </trkpt>
      <trkpt lat="-23.381690" lon="-45.455447">
        <ele>708.883</ele>
        <time>2020-01-19T18:54:15Z</time>
      </trkpt>
      <trkpt lat="-23.381681" lon="-45.455380">
        <ele>708.811</ele>
        <time>2020-01-19T18:54:16Z</time>
      </trkpt>
      <trkpt lat="-23.381671" lon="-45.455322">
        <ele>708.508</ele>
        <time>2020-01-19T18:54:18Z</time>
      </trkpt>
      <trkpt lat="-23.381655" lon="-45.455245">
        <ele>708.210</ele>
        <time>2020-01-19T18:54:20Z</time>
      </trkpt>
      <trkpt lat="-23.381634" lon="-45.455187">
        <ele>707.981</ele>
        <time>2020-01-19T18:54:21Z</time>
      </trkpt>
      <trkpt lat="-23.381619" lon="-45.455138">
        <ele>707.633</ele>
        <time>2020-01-19T18:54:23Z</time>
      </trkpt>
      <trkpt lat="-23.381597" lon="-45.455069">
        <ele>707.477</ele>
        <time>2020-01-19T18:54:25Z</time>
      </trkpt>
      <trkpt lat="-23.381572" lon="-45.455011">
        <ele>707.253</ele>
        <time>2020-01-19T18:54:27Z</time>
      </trkpt>
      <trkpt lat="-23.381553" lon="-45.454940">
        <ele>707.627</ele>
        <time>2020-01-19T18:54:28Z</time>
      </trkpt>
      <trkpt lat="-23.381545" lon="-45.454885">
        <ele>707.220</ele>
        <time>2020-01-19T18:54:30Z</time>
      </trkpt>
      <trkpt lat="-23.381534" lon="-45.454824">
        <ele>707.060</ele>
        <time>2020-01-19T18:54:32Z</time>
      </trkpt>
      <trkpt lat="-23.381528" lon="-45.454769">
        <ele>706.282</ele>
        <time>2020-01-19T18:54:34Z</time>
      </trkpt>
      <trkpt lat="-23.381529" lon="-45.454709">
        <ele>705.543</ele>
        <time>2020-01-19T18:54:35Z</time>
      </trkpt>
      <trkpt lat="-23.381527" lon="-45.454658">
        <ele>704.817</ele>
        <time>2020-01-19T18:54:37Z</time>
      </trkpt>
      <trkpt lat="-23.381521" lon="-45.454606">
        <ele>704.408</ele>
        <time>2020-01-19T18:54:39Z</time>
      </trkpt>
      <trkpt lat="-23.381523" lon="-45.454551">
        <ele>704.092</ele>
        <time>2020-01-19T18:54:40Z</time>
      </trkpt>
      <trkpt lat="-23.381523" lon="-45.454497">
        <ele>704.083</ele>
        <time>2020-01-19T18:54:42Z</time>
      </trkpt>
      <trkpt lat="-23.381532" lon="-45.454421">
        <ele>703.535</ele>
        <time>2020-01-19T18:54:44Z</time>
      </trkpt>
      <trkpt lat="-23.381543" lon="-45.454330">
        <ele>703.269</ele>
        <time>2020-01-19T18:54:46Z</time>
      </trkpt>
      <trkpt lat="-23.381547" lon="-45.454272">
        <ele>703.395</ele>
        <time>2020-01-19T18:54:47Z</time>
      </trkpt>
      <trkpt lat="-23.381557" lon="-45.454184">
        <ele>703.639</ele>
        <time>2020-01-19T18:54:50Z</time>
      </trkpt>
      <trkpt lat="-23.381560" lon="-45.454123">
        <ele>703.632</ele>
        <time>2020-01-19T18:54:51Z</time>
      </trkpt>
      <trkpt lat="-23.381564" lon="-45.454062">
        <ele>704.042</ele>
        <time>2020-01-19T18:54:52Z</time>
      </trkpt>
      <trkpt lat="-23.381562" lon="-45.454009">
        <ele>704.531</ele>
        <time>2020-01-19T18:54:54Z</time>
      </trkpt>
      <trkpt lat="-23.381557" lon="-45.453954">
        <ele>704.761</ele>
        <time>2020-01-19T18:54:56Z</time>
      </trkpt>
      <trkpt lat="-23.381552" lon="-45.453889">
        <ele>704.607</ele>
        <time>2020-01-19T18:54:58Z</time>
      </trkpt>
      <trkpt lat="-23.381542" lon="-45.453831">
        <ele>704.708</ele>
        <time>2020-01-19T18:54:59Z</time>
      </trkpt>
      <trkpt lat="-23.381532" lon="-45.453782">
        <ele>704.817</ele>
        <time>2020-01-19T18:55:01Z</time>
      </trkpt>
      <trkpt lat="-23.381513" lon="-45.453717">
        <ele>704.758</ele>
        <time>2020-01-19T18:55:03Z</time>
      </trkpt>
      <trkpt lat="-23.381498" lon="-45.453669">
        <ele>704.670</ele>
        <time>2020-01-19T18:55:04Z</time>
      </trkpt>
      <trkpt lat="-23.381480" lon="-45.453611">
        <ele>704.684</ele>
        <time>2020-01-19T18:55:06Z</time>
      </trkpt>
      <trkpt lat="-23.381460" lon="-45.453565">
        <ele>703.730</ele>
        <time>2020-01-19T18:55:08Z</time>
      </trkpt>
      <trkpt lat="-23.381447" lon="-45.453514">
        <ele>702.944</ele>
        <time>2020-01-19T18:55:09Z</time>
      </trkpt>
      <trkpt lat="-23.381420" lon="-45.453443">
        <ele>702.457</ele>
        <time>2020-01-19T18:55:12Z</time>
      </trkpt>
      <trkpt lat="-23.381397" lon="-45.453386">
        <ele>701.987</ele>
        <time>2020-01-19T18:55:14Z</time>
      </trkpt>
      <trkpt lat="-23.381368" lon="-45.453338">
        <ele>702.379</ele>
        <time>2020-01-19T18:55:16Z</time>
      </trkpt>
      <trkpt lat="-23.381342" lon="-45.453290">
        <ele>702.405</ele>
        <time>2020-01-19T18:55:18Z</time>
      </trkpt>
      <trkpt lat="-23.381312" lon="-45.453244">
        <ele>702.725</ele>
        <time>2020-01-19T18:55:20Z</time>
      </trkpt>
      <trkpt lat="-23.381274" lon="-45.453194">
        <ele>704.008</ele>
        <time>2020-01-19T18:55:22Z</time>
      </trkpt>
      <trkpt lat="-23.381244" lon="-45.453151">
        <ele>704.741</ele>
        <time>2020-01-19T18:55:24Z</time>
      </trkpt>
      <trkpt lat="-23.381211" lon="-45.453117">
        <ele>704.832</ele>
        <time>2020-01-19T18:55:26Z</time>
      </trkpt>
      <trkpt lat="-23.381168" lon="-45.453083">
        <ele>705.344</ele>
        <time>2020-01-19T18:55:29Z</time>
      </trkpt>
      <trkpt lat="-23.381128" lon="-45.453050">
        <ele>705.968</ele>
        <time>2020-01-19T18:55:32Z</time>
      </trkpt>
      <trkpt lat="-23.381077" lon="-45.453004">
        <ele>706.684</ele>
        <time>2020-01-19T18:55:34Z</time>
      </trkpt>
      <trkpt lat="-23.381039" lon="-45.452967">
        <ele>706.588</ele>
        <time>2020-01-19T18:55:37Z</time>
      </trkpt>
      <trkpt lat="-23.380998" lon="-45.452933">
        <ele>706.951</ele>
        <time>2020-01-19T18:55:40Z</time>
      </trkpt>
      <trkpt lat="-23.380953" lon="-45.452899">
        <ele>707.491</ele>
        <time>2020-01-19T18:55:43Z</time>
      </trkpt>
      <trkpt lat="-23.380909" lon="-45.452867">
        <ele>707.916</ele>
        <time>2020-01-19T18:55:45Z</time>
      </trkpt>
      <trkpt lat="-23.380861" lon="-45.452839">
        <ele>708.076</ele>
        <time>2020-01-19T18:55:50Z</time>
      </trkpt>
      <trkpt lat="-23.380811" lon="-45.452825">
        <ele>708.013</ele>
        <time>2020-01-19T18:55:54Z</time>
      </trkpt>
      <trkpt lat="-23.380760" lon="-45.452795">
        <ele>707.508</ele>
        <time>2020-01-19T18:55:57Z</time>
      </trkpt>
      <trkpt lat="-23.380717" lon="-45.452767">
        <ele>706.685</ele>
        <time>2020-01-19T18:56:00Z</time>
      </trkpt>
      <trkpt lat="-23.380673" lon="-45.452741">
        <ele>706.026</ele>
        <time>2020-01-19T18:56:02Z</time>
      </trkpt>
      <trkpt lat="-23.380631" lon="-45.452709">
        <ele>705.668</ele>
        <time>2020-01-19T18:56:06Z</time>
      </trkpt>
      <trkpt lat="-23.380590" lon="-45.452675">
        <ele>706.032</ele>
        <time>2020-01-19T18:56:09Z</time>
      </trkpt>
      <trkpt lat="-23.380548" lon="-45.452646">
        <ele>706.398</ele>
        <time>2020-01-19T18:56:12Z</time>
      </trkpt>
      <trkpt lat="-23.380502" lon="-45.452622">
        <ele>706.442</ele>
        <time>2020-01-19T18:56:16Z</time>
      </trkpt>
      <trkpt lat="-23.380460" lon="-45.452591">
        <ele>706.665</ele>
        <time>2020-01-19T18:56:19Z</time>
      </trkpt>
      <trkpt lat="-23.380422" lon="-45.452559">
        <ele>706.345</ele>
        <time>2020-01-19T18:56:23Z</time>
      </trkpt>
      <trkpt lat="-23.380391" lon="-45.452523">
        <ele>705.836</ele>
        <time>2020-01-19T18:56:25Z</time>
      </trkpt>
      <trkpt lat="-23.380363" lon="-45.452481">
        <ele>705.317</ele>
        <time>2020-01-19T18:56:28Z</time>
      </trkpt>
      <trkpt lat="-23.380331" lon="-45.452440">
        <ele>705.518</ele>
        <time>2020-01-19T18:56:31Z</time>
      </trkpt>
      <trkpt lat="-23.380296" lon="-45.452398">
        <ele>706.208</ele>
        <time>2020-01-19T18:56:33Z</time>
      </trkpt>
      <trkpt lat="-23.380271" lon="-45.452352">
        <ele>706.127</ele>
        <time>2020-01-19T18:56:37Z</time>
      </trkpt>
      <trkpt lat="-23.380254" lon="-45.452306">
        <ele>706.598</ele>
        <time>2020-01-19T18:56:39Z</time>
      </trkpt>
      <trkpt lat="-23.380235" lon="-45.452260">
        <ele>706.080</ele>
        <time>2020-01-19T18:56:41Z</time>
      </trkpt>
      <trkpt lat="-23.380221" lon="-45.452208">
        <ele>705.864</ele>
        <time>2020-01-19T18:56:44Z</time>
      </trkpt>
      <trkpt lat="-23.380209" lon="-45.452157">
        <ele>705.120</ele>
        <time>2020-01-19T18:56:46Z</time>
      </trkpt>
      <trkpt lat="-23.380192" lon="-45.452106">
        <ele>704.824</ele>
        <time>2020-01-19T18:56:49Z</time>
      </trkpt>
      <trkpt lat="-23.380167" lon="-45.452058">
        <ele>704.787</ele>
        <time>2020-01-19T18:56:51Z</time>
      </trkpt>
      <trkpt lat="-23.380144" lon="-45.452006">
        <ele>705.187</ele>
        <time>2020-01-19T18:56:53Z</time>
      </trkpt>
      <trkpt lat="-23.380123" lon="-45.451955">
        <ele>705.532</ele>
        <time>2020-01-19T18:56:56Z</time>
      </trkpt>
      <trkpt lat="-23.380094" lon="-45.451906">
        <ele>706.192</ele>
        <time>2020-01-19T18:56:59Z</time>
      </trkpt>
      <trkpt lat="-23.380075" lon="-45.451855">
        <ele>706.511</ele>
        <time>2020-01-19T18:57:01Z</time>
      </trkpt>
      <trkpt lat="-23.380060" lon="-45.451807">
        <ele>706.808</ele>
        <time>2020-01-19T18:57:03Z</time>
      </trkpt>
      <trkpt lat="-23.380041" lon="-45.451757">
        <ele>707.217</ele>
        <time>2020-01-19T18:57:05Z</time>
      </trkpt>
      <trkpt lat="-23.380017" lon="-45.451696">
        <ele>707.688</ele>
        <time>2020-01-19T18:57:09Z</time>
      </trkpt>
      <trkpt lat="-23.379994" lon="-45.451645">
        <ele>707.540</ele>
        <time>2020-01-19T18:57:11Z</time>
      </trkpt>
      <trkpt lat="-23.379975" lon="-45.451590">
        <ele>707.244</ele>
        <time>2020-01-19T18:57:14Z</time>
      </trkpt>
      <trkpt lat="-23.379955" lon="-45.451523">
        <ele>707.050</ele>
        <time>2020-01-19T18:57:17Z</time>
      </trkpt>
      <trkpt lat="-23.379934" lon="-45.451474">
        <ele>707.164</ele>
        <time>2020-01-19T18:57:19Z</time>
      </trkpt>
      <trkpt lat="-23.379913" lon="-45.451417">
        <ele>707.157</ele>
        <time>2020-01-19T18:57:21Z</time>
      </trkpt>
      <trkpt lat="-23.379898" lon="-45.451371">
        <ele>707.747</ele>
        <time>2020-01-19T18:57:24Z</time>
      </trkpt>
      <trkpt lat="-23.379875" lon="-45.451310">
        <ele>707.556</ele>
        <time>2020-01-19T18:57:26Z</time>
      </trkpt>
      <trkpt lat="-23.379860" lon="-45.451258">
        <ele>707.559</ele>
        <time>2020-01-19T18:57:29Z</time>
      </trkpt>
      <trkpt lat="-23.379835" lon="-45.451204">
        <ele>707.414</ele>
        <time>2020-01-19T18:57:31Z</time>
      </trkpt>
      <trkpt lat="-23.379812" lon="-45.451155">
        <ele>707.608</ele>
        <time>2020-01-19T18:57:34Z</time>
      </trkpt>
      <trkpt lat="-23.379792" lon="-45.451108">
        <ele>708.459</ele>
        <time>2020-01-19T18:57:36Z</time>
      </trkpt>
      <trkpt lat="-23.379772" lon="-45.451060">
        <ele>709.710</ele>
        <time>2020-01-19T18:57:38Z</time>
      </trkpt>
      <trkpt lat="-23.379747" lon="-45.451017">
        <ele>710.572</ele>
        <time>2020-01-19T18:57:40Z</time>
      </trkpt>
      <trkpt lat="-23.379722" lon="-45.450966">
        <ele>711.066</ele>
        <time>2020-01-19T18:57:42Z</time>
      </trkpt>
      <trkpt lat="-23.379705" lon="-45.450917">
        <ele>711.562</ele>
        <time>2020-01-19T18:57:44Z</time>
      </trkpt>
      <trkpt lat="-23.379689" lon="-45.450864">
        <ele>711.946</ele>
        <time>2020-01-19T18:57:46Z</time>
      </trkpt>
      <trkpt lat="-23.379668" lon="-45.450819">
        <ele>712.629</ele>
        <time>2020-01-19T18:57:48Z</time>
      </trkpt>
      <trkpt lat="-23.379647" lon="-45.450768">
        <ele>712.699</ele>
        <time>2020-01-19T18:57:50Z</time>
      </trkpt>
      <trkpt lat="-23.379632" lon="-45.450716">
        <ele>712.624</ele>
        <time>2020-01-19T18:57:52Z</time>
      </trkpt>
      <trkpt lat="-23.379619" lon="-45.450666">
        <ele>712.204</ele>
        <time>2020-01-19T18:57:54Z</time>
      </trkpt>
      <trkpt lat="-23.379600" lon="-45.450611">
        <ele>712.214</ele>
        <time>2020-01-19T18:57:56Z</time>
      </trkpt>
      <trkpt lat="-23.379587" lon="-45.450564">
        <ele>711.608</ele>
        <time>2020-01-19T18:57:58Z</time>
      </trkpt>
      <trkpt lat="-23.379569" lon="-45.450511">
        <ele>711.276</ele>
        <time>2020-01-19T18:58:00Z</time>
      </trkpt>
      <trkpt lat="-23.379555" lon="-45.450457">
        <ele>710.977</ele>
        <time>2020-01-19T18:58:03Z</time>
      </trkpt>
      <trkpt lat="-23.379535" lon="-45.450405">
        <ele>710.969</ele>
        <time>2020-01-19T18:58:05Z</time>
      </trkpt>
      <trkpt lat="-23.379513" lon="-45.450354">
        <ele>711.283</ele>
        <time>2020-01-19T18:58:07Z</time>
      </trkpt>
      <trkpt lat="-23.379492" lon="-45.450297">
        <ele>711.439</ele>
        <time>2020-01-19T18:58:09Z</time>
      </trkpt>
      <trkpt lat="-23.379473" lon="-45.450252">
        <ele>711.393</ele>
        <time>2020-01-19T18:58:12Z</time>
      </trkpt>
      <trkpt lat="-23.379455" lon="-45.450207">
        <ele>711.456</ele>
        <time>2020-01-19T18:58:14Z</time>
      </trkpt>
      <trkpt lat="-23.379436" lon="-45.450161">
        <ele>711.436</ele>
        <time>2020-01-19T18:58:16Z</time>
      </trkpt>
      <trkpt lat="-23.379423" lon="-45.450112">
        <ele>711.429</ele>
        <time>2020-01-19T18:58:18Z</time>
      </trkpt>
      <trkpt lat="-23.379405" lon="-45.450054">
        <ele>711.500</ele>
        <time>2020-01-19T18:58:20Z</time>
      </trkpt>
      <trkpt lat="-23.379391" lon="-45.450004">
        <ele>711.020</ele>
        <time>2020-01-19T18:58:22Z</time>
      </trkpt>
      <trkpt lat="-23.379374" lon="-45.449958">
        <ele>710.708</ele>
        <time>2020-01-19T18:58:25Z</time>
      </trkpt>
      <trkpt lat="-23.379352" lon="-45.449910">
        <ele>710.976</ele>
        <time>2020-01-19T18:58:27Z</time>
      </trkpt>
      <trkpt lat="-23.379332" lon="-45.449856">
        <ele>711.127</ele>
        <time>2020-01-19T18:58:29Z</time>
      </trkpt>
      <trkpt lat="-23.379309" lon="-45.449805">
        <ele>711.219</ele>
        <time>2020-01-19T18:58:31Z</time>
      </trkpt>
      <trkpt lat="-23.379293" lon="-45.449754">
        <ele>711.223</ele>
        <time>2020-01-19T18:58:33Z</time>
      </trkpt>
      <trkpt lat="-23.379276" lon="-45.449705">
        <ele>710.649</ele>
        <time>2020-01-19T18:58:35Z</time>
      </trkpt>
      <trkpt lat="-23.379256" lon="-45.449653">
        <ele>710.693</ele>
        <time>2020-01-19T18:58:37Z</time>
      </trkpt>
      <trkpt lat="-23.379240" lon="-45.449605">
        <ele>711.076</ele>
        <time>2020-01-19T18:58:40Z</time>
      </trkpt>
      <trkpt lat="-23.379217" lon="-45.449553">
        <ele>711.676</ele>
        <time>2020-01-19T18:58:42Z</time>
      </trkpt>
      <trkpt lat="-23.379196" lon="-45.449505">
        <ele>711.844</ele>
        <time>2020-01-19T18:58:43Z</time>
      </trkpt>
      <trkpt lat="-23.379173" lon="-45.449454">
        <ele>712.005</ele>
        <time>2020-01-19T18:58:46Z</time>
      </trkpt>
      <trkpt lat="-23.379154" lon="-45.449398">
        <ele>712.015</ele>
        <time>2020-01-19T18:58:48Z</time>
      </trkpt>
      <trkpt lat="-23.379134" lon="-45.449353">
        <ele>712.308</ele>
        <time>2020-01-19T18:58:50Z</time>
      </trkpt>
      <trkpt lat="-23.379117" lon="-45.449303">
        <ele>712.738</ele>
        <time>2020-01-19T18:58:52Z</time>
      </trkpt>
      <trkpt lat="-23.379096" lon="-45.449246">
        <ele>713.219</ele>
        <time>2020-01-19T18:58:55Z</time>
      </trkpt>
      <trkpt lat="-23.379079" lon="-45.449194">
        <ele>713.481</ele>
        <time>2020-01-19T18:58:57Z</time>
      </trkpt>
      <trkpt lat="-23.379060" lon="-45.449147">
        <ele>713.325</ele>
        <time>2020-01-19T18:58:59Z</time>
      </trkpt>
      <trkpt lat="-23.379043" lon="-45.449096">
        <ele>712.921</ele>
        <time>2020-01-19T18:59:01Z</time>
      </trkpt>
      <trkpt lat="-23.379026" lon="-45.449047">
        <ele>712.845</ele>
        <time>2020-01-19T18:59:03Z</time>
      </trkpt>
      <trkpt lat="-23.379011" lon="-45.448994">
        <ele>712.668</ele>
        <time>2020-01-19T18:59:05Z</time>
      </trkpt>
      <trkpt lat="-23.378993" lon="-45.448940">
        <ele>712.728</ele>
        <time>2020-01-19T18:59:07Z</time>
      </trkpt>
      <trkpt lat="-23.378970" lon="-45.448886">
        <ele>712.825</ele>
        <time>2020-01-19T18:59:09Z</time>
      </trkpt>
      <trkpt lat="-23.378953" lon="-45.448835">
        <ele>713.026</ele>
        <time>2020-01-19T18:59:11Z</time>
      </trkpt>
      <trkpt lat="-23.378932" lon="-45.448777">
        <ele>713.108</ele>
        <time>2020-01-19T18:59:14Z</time>
      </trkpt>
      <trkpt lat="-23.378914" lon="-45.448729">
        <ele>713.208</ele>
        <time>2020-01-19T18:59:16Z</time>
      </trkpt>
      <trkpt lat="-23.378895" lon="-45.448674">
        <ele>713.346</ele>
        <time>2020-01-19T18:59:18Z</time>
      </trkpt>
      <trkpt lat="-23.378877" lon="-45.448626">
        <ele>713.317</ele>
        <time>2020-01-19T18:59:20Z</time>
      </trkpt>
      <trkpt lat="-23.378877" lon="-45.448626">
        <ele>713.339</ele>
        <time>2020-01-19T18:59:20Z</time>
      </trkpt>
      <trkpt lat="-23.378877" lon="-45.448626">
        <ele>713.393</ele>
        <time>2020-01-19T18:59:20Z</time>
      </trkpt>
      <trkpt lat="-23.378877" lon="-45.448626">
        <ele>713.399</ele>
        <time>2020-01-19T18:59:20Z</time>
      </trkpt>
      <trkpt lat="-23.378858" lon="-45.448577">
        <ele>713.293</ele>
        <time>2020-01-19T18:59:22Z</time>
      </trkpt>
      <trkpt lat="-23.378834" lon="-45.448510">
        <ele>712.476</ele>
        <time>2020-01-19T18:59:24Z</time>
      </trkpt>
      <trkpt lat="-23.378815" lon="-45.448455">
        <ele>711.816</ele>
        <time>2020-01-19T18:59:26Z</time>
      </trkpt>
      <trkpt lat="-23.378797" lon="-45.448410">
        <ele>711.352</ele>
        <time>2020-01-19T18:59:28Z</time>
      </trkpt>
      <trkpt lat="-23.378783" lon="-45.448363">
        <ele>711.153</ele>
        <time>2020-01-19T18:59:29Z</time>
      </trkpt>
      <trkpt lat="-23.378764" lon="-45.448301">
        <ele>711.208</ele>
        <time>2020-01-19T18:59:31Z</time>
      </trkpt>
      <trkpt lat="-23.378740" lon="-45.448242">
        <ele>711.708</ele>
        <time>2020-01-19T18:59:33Z</time>
      </trkpt>
      <trkpt lat="-23.378714" lon="-45.448183">
        <ele>711.749</ele>
        <time>2020-01-19T18:59:35Z</time>
      </trkpt>
      <trkpt lat="-23.378692" lon="-45.448127">
        <ele>711.790</ele>
        <time>2020-01-19T18:59:36Z</time>
      </trkpt>
      <trkpt lat="-23.378673" lon="-45.448079">
        <ele>711.822</ele>
        <time>2020-01-19T18:59:37Z</time>
      </trkpt>
      <trkpt lat="-23.378657" lon="-45.448013">
        <ele>712.476</ele>
        <time>2020-01-19T18:59:39Z</time>
      </trkpt>
      <trkpt lat="-23.378644" lon="-45.447954">
        <ele>712.632</ele>
        <time>2020-01-19T18:59:41Z</time>
      </trkpt>
      <trkpt lat="-23.378620" lon="-45.447893">
        <ele>712.596</ele>
        <time>2020-01-19T18:59:42Z</time>
      </trkpt>
      <trkpt lat="-23.378593" lon="-45.447833">
        <ele>711.949</ele>
        <time>2020-01-19T18:59:44Z</time>
      </trkpt>
      <trkpt lat="-23.378538" lon="-45.447741">
        <ele>711.679</ele>
        <time>2020-01-19T18:59:46Z</time>
      </trkpt>
      <trkpt lat="-23.378499" lon="-45.447678">
        <ele>711.145</ele>
        <time>2020-01-19T18:59:47Z</time>
      </trkpt>
      <trkpt lat="-23.378458" lon="-45.447608">
        <ele>710.847</ele>
        <time>2020-01-19T18:59:48Z</time>
      </trkpt>
      <trkpt lat="-23.378419" lon="-45.447528">
        <ele>709.911</ele>
        <time>2020-01-19T18:59:49Z</time>
      </trkpt>
      <trkpt lat="-23.378385" lon="-45.447432">
        <ele>709.008</ele>
        <time>2020-01-19T18:59:50Z</time>
      </trkpt>
      <trkpt lat="-23.378346" lon="-45.447332">
        <ele>708.618</ele>
        <time>2020-01-19T18:59:51Z</time>
      </trkpt>
      <trkpt lat="-23.378308" lon="-45.447233">
        <ele>708.249</ele>
        <time>2020-01-19T18:59:52Z</time>
      </trkpt>
      <trkpt lat="-23.378271" lon="-45.447136">
        <ele>707.911</ele>
        <time>2020-01-19T18:59:53Z</time>
      </trkpt>
      <trkpt lat="-23.378238" lon="-45.447048">
        <ele>707.255</ele>
        <time>2020-01-19T18:59:54Z</time>
      </trkpt>
      <trkpt lat="-23.378210" lon="-45.446970">
        <ele>706.761</ele>
        <time>2020-01-19T18:59:55Z</time>
      </trkpt>
      <trkpt lat="-23.378183" lon="-45.446897">
        <ele>706.135</ele>
        <time>2020-01-19T18:59:56Z</time>
      </trkpt>
      <trkpt lat="-23.378160" lon="-45.446827">
        <ele>705.848</ele>
        <time>2020-01-19T18:59:57Z</time>
      </trkpt>
      <trkpt lat="-23.378136" lon="-45.446762">
        <ele>705.928</ele>
        <time>2020-01-19T18:59:58Z</time>
      </trkpt>
      <trkpt lat="-23.378108" lon="-45.446697">
        <ele>705.924</ele>
        <time>2020-01-19T18:59:59Z</time>
      </trkpt>
      <trkpt lat="-23.378083" lon="-45.446637">
        <ele>705.604</ele>
        <time>2020-01-19T19:00:00Z</time>
      </trkpt>
      <trkpt lat="-23.378060" lon="-45.446573">
        <ele>704.814</ele>
        <time>2020-01-19T19:00:01Z</time>
      </trkpt>
      <trkpt lat="-23.378036" lon="-45.446512">
        <ele>704.508</ele>
        <time>2020-01-19T19:00:02Z</time>
      </trkpt>
      <trkpt lat="-23.378013" lon="-45.446455">
        <ele>704.126</ele>
        <time>2020-01-19T19:00:03Z</time>
      </trkpt>
      <trkpt lat="-23.377994" lon="-45.446401">
        <ele>703.717</ele>
        <time>2020-01-19T19:00:04Z</time>
      </trkpt>
      <trkpt lat="-23.377972" lon="-45.446350">
        <ele>703.499</ele>
        <time>2020-01-19T19:00:05Z</time>
      </trkpt>
      <trkpt lat="-23.377952" lon="-45.446301">
        <ele>703.083</ele>
        <time>2020-01-19T19:00:06Z</time>
      </trkpt>
      <trkpt lat="-23.377916" lon="-45.446213">
        <ele>702.869</ele>
        <time>2020-01-19T19:00:08Z</time>
      </trkpt>
      <trkpt lat="-23.377882" lon="-45.446137">
        <ele>702.783</ele>
        <time>2020-01-19T19:00:10Z</time>
      </trkpt>
      <trkpt lat="-23.377859" lon="-45.446067">
        <ele>702.996</ele>
        <time>2020-01-19T19:00:12Z</time>
      </trkpt>
      <trkpt lat="-23.377842" lon="-45.446008">
        <ele>703.216</ele>
        <time>2020-01-19T19:00:14Z</time>
      </trkpt>
      <trkpt lat="-23.377797" lon="-45.445965">
        <ele>703.393</ele>
        <time>2020-01-19T19:00:17Z</time>
      </trkpt>
      <trkpt lat="-23.377784" lon="-45.445913">
        <ele>703.365</ele>
        <time>2020-01-19T19:00:19Z</time>
      </trkpt>
      <trkpt lat="-23.377775" lon="-45.445860">
        <ele>703.421</ele>
        <time>2020-01-19T19:00:21Z</time>
      </trkpt>
      <trkpt lat="-23.377756" lon="-45.445813">
        <ele>703.308</ele>
        <time>2020-01-19T19:00:23Z</time>
      </trkpt>
      <trkpt lat="-23.377726" lon="-45.445752">
        <ele>705.433</ele>
        <time>2020-01-19T19:00:26Z</time>
      </trkpt>
      <trkpt lat="-23.377709" lon="-45.445699">
        <ele>706.724</ele>
        <time>2020-01-19T19:00:29Z</time>
      </trkpt>
      <trkpt lat="-23.377688" lon="-45.445628">
        <ele>707.536</ele>
        <time>2020-01-19T19:00:32Z</time>
      </trkpt>
      <trkpt lat="-23.377665" lon="-45.445552">
        <ele>708.010</ele>
        <time>2020-01-19T19:00:34Z</time>
      </trkpt>
      <trkpt lat="-23.377645" lon="-45.445490">
        <ele>708.326</ele>
        <time>2020-01-19T19:00:37Z</time>
      </trkpt>
      <trkpt lat="-23.377623" lon="-45.445431">
        <ele>708.550</ele>
        <time>2020-01-19T19:00:39Z</time>
      </trkpt>
      <trkpt lat="-23.377605" lon="-45.445379">
        <ele>708.633</ele>
        <time>2020-01-19T19:00:41Z</time>
      </trkpt>
      <trkpt lat="-23.377584" lon="-45.445329">
        <ele>708.743</ele>
        <time>2020-01-19T19:00:43Z</time>
      </trkpt>
      <trkpt lat="-23.377564" lon="-45.445282">
        <ele>708.722</ele>
        <time>2020-01-19T19:00:45Z</time>
      </trkpt>
      <trkpt lat="-23.377542" lon="-45.445238">
        <ele>708.762</ele>
        <time>2020-01-19T19:00:47Z</time>
      </trkpt>
      <trkpt lat="-23.377514" lon="-45.445190">
        <ele>708.708</ele>
        <time>2020-01-19T19:00:49Z</time>
      </trkpt>
      <trkpt lat="-23.377482" lon="-45.445129">
        <ele>708.708</ele>
        <time>2020-01-19T19:00:52Z</time>
      </trkpt>
      <trkpt lat="-23.377460" lon="-45.445076">
        <ele>708.776</ele>
        <time>2020-01-19T19:00:54Z</time>
      </trkpt>
      <trkpt lat="-23.377447" lon="-45.445017">
        <ele>708.747</ele>
        <time>2020-01-19T19:00:56Z</time>
      </trkpt>
      <trkpt lat="-23.377432" lon="-45.444963">
        <ele>708.729</ele>
        <time>2020-01-19T19:00:58Z</time>
      </trkpt>
      <trkpt lat="-23.377417" lon="-45.444909">
        <ele>708.793</ele>
        <time>2020-01-19T19:01:00Z</time>
      </trkpt>
      <trkpt lat="-23.377399" lon="-45.444856">
        <ele>708.729</ele>
        <time>2020-01-19T19:01:02Z</time>
      </trkpt>
      <trkpt lat="-23.377379" lon="-45.444808">
        <ele>708.753</ele>
        <time>2020-01-19T19:01:04Z</time>
      </trkpt>
      <trkpt lat="-23.377359" lon="-45.444763">
        <ele>708.776</ele>
        <time>2020-01-19T19:01:05Z</time>
      </trkpt>
      <trkpt lat="-23.377334" lon="-45.444711">
        <ele>708.736</ele>
        <time>2020-01-19T19:01:08Z</time>
      </trkpt>
      <trkpt lat="-23.377313" lon="-45.444666">
        <ele>708.748</ele>
        <time>2020-01-19T19:01:10Z</time>
      </trkpt>
      <trkpt lat="-23.377294" lon="-45.444611">
        <ele>708.761</ele>
        <time>2020-01-19T19:01:12Z</time>
      </trkpt>
      <trkpt lat="-23.377273" lon="-45.444562">
        <ele>708.717</ele>
        <time>2020-01-19T19:01:14Z</time>
      </trkpt>
      <trkpt lat="-23.377245" lon="-45.444503">
        <ele>708.708</ele>
        <time>2020-01-19T19:01:17Z</time>
      </trkpt>
      <trkpt lat="-23.377228" lon="-45.444448">
        <ele>708.798</ele>
        <time>2020-01-19T19:01:22Z</time>
      </trkpt>
      <trkpt lat="-23.377229" lon="-45.444397">
        <ele>709.189</ele>
        <time>2020-01-19T19:01:26Z</time>
      </trkpt>
      <trkpt lat="-23.377262" lon="-45.444355">
        <ele>709.311</ele>
        <time>2020-01-19T19:01:28Z</time>
      </trkpt>
      <trkpt lat="-23.377306" lon="-45.444340">
        <ele>709.445</ele>
        <time>2020-01-19T19:01:30Z</time>
      </trkpt>
      <trkpt lat="-23.377361" lon="-45.444335">
        <ele>709.551</ele>
        <time>2020-01-19T19:01:33Z</time>
      </trkpt>
      <trkpt lat="-23.377407" lon="-45.444328">
        <ele>709.555</ele>
        <time>2020-01-19T19:01:37Z</time>
      </trkpt>
      <trkpt lat="-23.377458" lon="-45.444315">
        <ele>709.558</ele>
        <time>2020-01-19T19:01:40Z</time>
      </trkpt>
      <trkpt lat="-23.377511" lon="-45.444311">
        <ele>709.578</ele>
        <time>2020-01-19T19:01:44Z</time>
      </trkpt>
      <trkpt lat="-23.377565" lon="-45.444314">
        <ele>709.548</ele>
        <time>2020-01-19T19:01:48Z</time>
      </trkpt>
      <trkpt lat="-23.377601" lon="-45.444283">
        <ele>709.561</ele>
        <time>2020-01-19T19:01:53Z</time>
      </trkpt>
      <trkpt lat="-23.377602" lon="-45.444229">
        <ele>709.517</ele>
        <time>2020-01-19T19:01:55Z</time>
      </trkpt>
      <trkpt lat="-23.377576" lon="-45.444181">
        <ele>712.408</ele>
        <time>2020-01-19T19:01:59Z</time>
      </trkpt>
      <trkpt lat="-23.377531" lon="-45.444157">
        <ele>714.148</ele>
        <time>2020-01-19T19:02:02Z</time>
      </trkpt>
      <trkpt lat="-23.377506" lon="-45.444199">
        <ele>714.099</ele>
        <time>2020-01-19T19:02:25Z</time>
      </trkpt>
      <trkpt lat="-23.377553" lon="-45.444232">
        <ele>714.091</ele>
        <time>2020-01-19T19:02:47Z</time>
      </trkpt>
      <trkpt lat="-23.377577" lon="-45.444274">
        <ele>713.975</ele>
        <time>2020-01-19T19:02:56Z</time>
      </trkpt>
      <trkpt lat="-23.377538" lon="-45.444194">
        <ele>713.961</ele>
        <time>2020-01-19T19:03:06Z</time>
      </trkpt>
      <trkpt lat="-23.377507" lon="-45.444147">
        <ele>713.915</ele>
        <time>2020-01-19T19:03:08Z</time>
      </trkpt>
      <trkpt lat="-23.377550" lon="-45.444202">
        <ele>713.978</ele>
        <time>2020-01-19T19:03:10Z</time>
      </trkpt>
      <trkpt lat="-23.377591" lon="-45.444250">
        <ele>713.988</ele>
        <time>2020-01-19T19:03:12Z</time>
      </trkpt>
      <trkpt lat="-23.377537" lon="-45.444183">
        <ele>713.974</ele>
        <time>2020-01-19T19:03:15Z</time>
      </trkpt>
      <trkpt lat="-23.377506" lon="-45.444144">
        <ele>713.956</ele>
        <time>2020-01-19T19:03:18Z</time>
      </trkpt>
      <trkpt lat="-23.377578" lon="-45.444235">
        <ele>713.921</ele>
        <time>2020-01-19T19:03:25Z</time>
      </trkpt>
      <trkpt lat="-23.377611" lon="-45.444291">
        <ele>713.908</ele>
        <time>2020-01-19T19:03:27Z</time>
      </trkpt>
      <trkpt lat="-23.377577" lon="-45.444252">
        <ele>713.971</ele>
        <time>2020-01-19T19:03:48Z</time>
      </trkpt>
      <trkpt lat="-23.377538" lon="-45.444181">
        <ele>713.942</ele>
        <time>2020-01-19T19:03:50Z</time>
      </trkpt>
      <trkpt lat="-23.377576" lon="-45.444223">
        <ele>713.934</ele>
        <time>2020-01-19T19:05:08Z</time>
      </trkpt>
      <trkpt lat="-23.377608" lon="-45.444267">
        <ele>713.918</ele>
        <time>2020-01-19T19:05:11Z</time>
      </trkpt>
      <trkpt lat="-23.377590" lon="-45.444220">
        <ele>713.924</ele>
        <time>2020-01-19T19:05:20Z</time>
      </trkpt>
      <trkpt lat="-23.377595" lon="-45.444165">
        <ele>717.978</ele>
        <time>2020-01-19T19:05:25Z</time>
      </trkpt>
      <trkpt lat="-23.377594" lon="-45.444114">
        <ele>716.321</ele>
        <time>2020-01-19T19:05:36Z</time>
      </trkpt>
      <trkpt lat="-23.377642" lon="-45.444105">
        <ele>719.541</ele>
        <time>2020-01-19T19:05:42Z</time>
      </trkpt>
      <trkpt lat="-23.377663" lon="-45.444163">
        <ele>717.339</ele>
        <time>2020-01-19T19:05:49Z</time>
      </trkpt>
      <trkpt lat="-23.377699" lon="-45.444192">
        <ele>716.001</ele>
        <time>2020-01-19T19:06:19Z</time>
      </trkpt>
      <trkpt lat="-23.377738" lon="-45.444166">
        <ele>715.221</ele>
        <time>2020-01-19T19:06:29Z</time>
      </trkpt>
      <trkpt lat="-23.377736" lon="-45.444218">
        <ele>714.708</ele>
        <time>2020-01-19T19:06:32Z</time>
      </trkpt>
      <trkpt lat="-23.377753" lon="-45.444164">
        <ele>714.477</ele>
        <time>2020-01-19T19:06:42Z</time>
      </trkpt>
      <trkpt lat="-23.377812" lon="-45.444152">
        <ele>714.248</ele>
        <time>2020-01-19T19:06:43Z</time>
      </trkpt>
      <trkpt lat="-23.377866" lon="-45.444141">
        <ele>714.170</ele>
        <time>2020-01-19T19:06:45Z</time>
      </trkpt>
      <trkpt lat="-23.377913" lon="-45.444138">
        <ele>714.034</ele>
        <time>2020-01-19T19:06:49Z</time>
      </trkpt>
      <trkpt lat="-23.377966" lon="-45.444123">
        <ele>714.090</ele>
        <time>2020-01-19T19:06:52Z</time>
      </trkpt>
      <trkpt lat="-23.378011" lon="-45.444112">
        <ele>714.024</ele>
        <time>2020-01-19T19:06:54Z</time>
      </trkpt>
      <trkpt lat="-23.378064" lon="-45.444111">
        <ele>714.087</ele>
        <time>2020-01-19T19:06:57Z</time>
      </trkpt>
      <trkpt lat="-23.378110" lon="-45.444107">
        <ele>714.027</ele>
        <time>2020-01-19T19:07:00Z</time>
      </trkpt>
      <trkpt lat="-23.378158" lon="-45.444096">
        <ele>714.056</ele>
        <time>2020-01-19T19:07:02Z</time>
      </trkpt>
      <trkpt lat="-23.378210" lon="-45.444088">
        <ele>714.059</ele>
        <time>2020-01-19T19:07:05Z</time>
      </trkpt>
      <trkpt lat="-23.378267" lon="-45.444084">
        <ele>714.014</ele>
        <time>2020-01-19T19:07:08Z</time>
      </trkpt>
      <trkpt lat="-23.378313" lon="-45.444080">
        <ele>714.008</ele>
        <time>2020-01-19T19:07:11Z</time>
      </trkpt>
      <trkpt lat="-23.378366" lon="-45.444065">
        <ele>714.069</ele>
        <time>2020-01-19T19:07:14Z</time>
      </trkpt>
      <trkpt lat="-23.378412" lon="-45.444060">
        <ele>714.010</ele>
        <time>2020-01-19T19:07:16Z</time>
      </trkpt>
      <trkpt lat="-23.378462" lon="-45.444047">
        <ele>715.172</ele>
        <time>2020-01-19T19:07:20Z</time>
      </trkpt>
      <trkpt lat="-23.378507" lon="-45.444037">
        <ele>715.896</ele>
        <time>2020-01-19T19:07:23Z</time>
      </trkpt>
      <trkpt lat="-23.378555" lon="-45.444017">
        <ele>716.282</ele>
        <time>2020-01-19T19:07:26Z</time>
      </trkpt>
      <trkpt lat="-23.378603" lon="-45.444002">
        <ele>716.486</ele>
        <time>2020-01-19T19:07:30Z</time>
      </trkpt>
      <trkpt lat="-23.378657" lon="-45.443993">
        <ele>716.599</ele>
        <time>2020-01-19T19:07:32Z</time>
      </trkpt>
      <trkpt lat="-23.378707" lon="-45.443981">
        <ele>716.669</ele>
        <time>2020-01-19T19:07:34Z</time>
      </trkpt>
      <trkpt lat="-23.378759" lon="-45.443964">
        <ele>716.765</ele>
        <time>2020-01-19T19:07:37Z</time>
      </trkpt>
      <trkpt lat="-23.378804" lon="-45.443951">
        <ele>716.768</ele>
        <time>2020-01-19T19:07:40Z</time>
      </trkpt>
      <trkpt lat="-23.378854" lon="-45.443948">
        <ele>716.714</ele>
        <time>2020-01-19T19:07:43Z</time>
      </trkpt>
      <trkpt lat="-23.378903" lon="-45.443930">
        <ele>716.708</ele>
        <time>2020-01-19T19:07:46Z</time>
      </trkpt>
      <trkpt lat="-23.378953" lon="-45.443918">
        <ele>716.710</ele>
        <time>2020-01-19T19:07:50Z</time>
      </trkpt>
      <trkpt lat="-23.378999" lon="-45.443896">
        <ele>716.741</ele>
        <time>2020-01-19T19:07:53Z</time>
      </trkpt>
      <trkpt lat="-23.379046" lon="-45.443865">
        <ele>716.743</ele>
        <time>2020-01-19T19:07:56Z</time>
      </trkpt>
      <trkpt lat="-23.379095" lon="-45.443827">
        <ele>716.717</ele>
        <time>2020-01-19T19:08:00Z</time>
      </trkpt>
      <trkpt lat="-23.379143" lon="-45.443806">
        <ele>716.753</ele>
        <time>2020-01-19T19:08:03Z</time>
      </trkpt>
      <trkpt lat="-23.379195" lon="-45.443788">
        <ele>716.797</ele>
        <time>2020-01-19T19:08:05Z</time>
      </trkpt>
      <trkpt lat="-23.379241" lon="-45.443771">
        <ele>716.740</ele>
        <time>2020-01-19T19:08:07Z</time>
      </trkpt>
      <trkpt lat="-23.379296" lon="-45.443763">
        <ele>716.770</ele>
        <time>2020-01-19T19:08:10Z</time>
      </trkpt>
      <trkpt lat="-23.379348" lon="-45.443764">
        <ele>716.745</ele>
        <time>2020-01-19T19:08:12Z</time>
      </trkpt>
      <trkpt lat="-23.379397" lon="-45.443763">
        <ele>716.747</ele>
        <time>2020-01-19T19:08:15Z</time>
      </trkpt>
      <trkpt lat="-23.379455" lon="-45.443774">
        <ele>716.711</ele>
        <time>2020-01-19T19:08:18Z</time>
      </trkpt>
      <trkpt lat="-23.379502" lon="-45.443775">
        <ele>718.808</ele>
        <time>2020-01-19T19:08:20Z</time>
      </trkpt>
      <trkpt lat="-23.379541" lon="-45.443745">
        <ele>720.028</ele>
        <time>2020-01-19T19:08:25Z</time>
      </trkpt>
      <trkpt lat="-23.379500" lon="-45.443715">
        <ele>720.779</ele>
        <time>2020-01-19T19:08:58Z</time>
      </trkpt>
      <trkpt lat="-23.379472" lon="-45.443673">
        <ele>721.111</ele>
        <time>2020-01-19T19:09:01Z</time>
      </trkpt>
      <trkpt lat="-23.379476" lon="-45.443624">
        <ele>721.415</ele>
        <time>2020-01-19T19:09:22Z</time>
      </trkpt>
      <trkpt lat="-23.379423" lon="-45.443655">
        <ele>721.621</ele>
        <time>2020-01-19T19:09:38Z</time>
      </trkpt>
      <trkpt lat="-23.379482" lon="-45.443635">
        <ele>721.785</ele>
        <time>2020-01-19T19:09:43Z</time>
      </trkpt>
      <trkpt lat="-23.379505" lon="-45.443679">
        <ele>721.848</ele>
        <time>2020-01-19T19:11:41Z</time>
      </trkpt>
      <trkpt lat="-23.379551" lon="-45.443676">
        <ele>721.878</ele>
        <time>2020-01-19T19:11:48Z</time>
      </trkpt>
      <trkpt lat="-23.379585" lon="-45.443638">
        <ele>721.877</ele>
        <time>2020-01-19T19:12:17Z</time>
      </trkpt>
      <trkpt lat="-23.379541" lon="-45.443621">
        <ele>721.861</ele>
        <time>2020-01-19T19:12:52Z</time>
      </trkpt>
      <trkpt lat="-23.379499" lon="-45.443640">
        <ele>721.827</ele>
        <time>2020-01-19T19:14:00Z</time>
      </trkpt>
      <trkpt lat="-23.379510" lon="-45.443591">
        <ele>721.808</ele>
        <time>2020-01-19T19:14:04Z</time>
      </trkpt>
      <trkpt lat="-23.379539" lon="-45.443553">
        <ele>721.821</ele>
        <time>2020-01-19T19:15:33Z</time>
      </trkpt>
      <trkpt lat="-23.379554" lon="-45.443601">
        <ele>721.872</ele>
        <time>2020-01-19T19:15:38Z</time>
      </trkpt>
      <trkpt lat="-23.379544" lon="-45.443553">
        <ele>721.874</ele>
        <time>2020-01-19T19:15:50Z</time>
      </trkpt>
      <trkpt lat="-23.379554" lon="-45.443606">
        <ele>721.868</ele>
        <time>2020-01-19T19:15:56Z</time>
      </trkpt>
      <trkpt lat="-23.379564" lon="-45.443548">
        <ele>721.844</ele>
        <time>2020-01-19T19:17:47Z</time>
      </trkpt>
      <trkpt lat="-23.379575" lon="-45.443486">
        <ele>721.848</ele>
        <time>2020-01-19T19:17:49Z</time>
      </trkpt>
      <trkpt lat="-23.379553" lon="-45.443587">
        <ele>721.881</ele>
        <time>2020-01-19T19:17:52Z</time>
      </trkpt>
    </trkseg>
  </trk>
</gpx>
